<?xml version="1.0" encoding="UTF-8" standalone="no" ?>
<gpx xmlns="http://www.topografix.com/GPX/1/1" xmlns:xsi="http://www.w3.org/2001/XMLSchema-instance" xsi:schemaLocation="http://www.topografix.com/GPX/1/1 http://www.topografix.com/GPX/1/1/gpx.xsd" version="1.1" creator="VisuGPX - https://www.visugpx.com">
  <metadata>
    <name>Vtt</name>
  </metadata>
  <trk>
    <name><![CDATA[Vtt_1]]></name>
    <trkseg>
      <trkpt lat="45.8353" lon="1.22155">
        <ele>253</ele>
        <time>2025-06-16T11:54:05Z</time>
      </trkpt>
      <trkpt lat="45.8353" lon="1.22154">
        <ele>253</ele>
        <time>2025-06-16T11:54:06Z</time>
      </trkpt>
      <trkpt lat="45.8353" lon="1.22154">
        <ele>252.9</ele>
        <time>2025-06-16T11:54:07Z</time>
      </trkpt>
      <trkpt lat="45.83531" lon="1.22153">
        <ele>252.9</ele>
        <time>2025-06-16T11:54:08Z</time>
      </trkpt>
      <trkpt lat="45.83533" lon="1.22152">
        <ele>252.8</ele>
        <time>2025-06-16T11:54:09Z</time>
      </trkpt>
      <trkpt lat="45.83536" lon="1.2215">
        <ele>252.7</ele>
        <time>2025-06-16T11:54:10Z</time>
      </trkpt>
      <trkpt lat="45.83539" lon="1.22149">
        <ele>252.5</ele>
        <time>2025-06-16T11:54:11Z</time>
      </trkpt>
      <trkpt lat="45.83541" lon="1.22146">
        <ele>252.4</ele>
        <time>2025-06-16T11:54:12Z</time>
      </trkpt>
      <trkpt lat="45.83544" lon="1.22144">
        <ele>252.2</ele>
        <time>2025-06-16T11:54:13Z</time>
      </trkpt>
      <trkpt lat="45.83547" lon="1.22142">
        <ele>252.2</ele>
        <time>2025-06-16T11:54:14Z</time>
      </trkpt>
      <trkpt lat="45.83551" lon="1.22141">
        <ele>252.2</ele>
        <time>2025-06-16T11:54:15Z</time>
      </trkpt>
      <trkpt lat="45.83554" lon="1.2214">
        <ele>252.3</ele>
        <time>2025-06-16T11:54:16Z</time>
      </trkpt>
      <trkpt lat="45.83558" lon="1.22138">
        <ele>252.3</ele>
        <time>2025-06-16T11:54:17Z</time>
      </trkpt>
      <trkpt lat="45.83561" lon="1.22137">
        <ele>252.3</ele>
        <time>2025-06-16T11:54:18Z</time>
      </trkpt>
      <trkpt lat="45.83564" lon="1.22136">
        <ele>252.3</ele>
        <time>2025-06-16T11:54:19Z</time>
      </trkpt>
      <trkpt lat="45.83567" lon="1.22135">
        <ele>252.3</ele>
        <time>2025-06-16T11:54:20Z</time>
      </trkpt>
      <trkpt lat="45.8357" lon="1.22132">
        <ele>252.3</ele>
        <time>2025-06-16T11:54:21Z</time>
      </trkpt>
      <trkpt lat="45.83571" lon="1.22131">
        <ele>252.3</ele>
        <time>2025-06-16T11:54:22Z</time>
      </trkpt>
      <trkpt lat="45.83573" lon="1.22128">
        <ele>252.3</ele>
        <time>2025-06-16T11:54:23Z</time>
      </trkpt>
      <trkpt lat="45.83575" lon="1.22125">
        <ele>252.2</ele>
        <time>2025-06-16T11:54:24Z</time>
      </trkpt>
      <trkpt lat="45.83577" lon="1.2212">
        <ele>252</ele>
        <time>2025-06-16T11:54:25Z</time>
      </trkpt>
      <trkpt lat="45.83578" lon="1.22115">
        <ele>251.9</ele>
        <time>2025-06-16T11:54:26Z</time>
      </trkpt>
      <trkpt lat="45.83579" lon="1.22109">
        <ele>251.8</ele>
        <time>2025-06-16T11:54:27Z</time>
      </trkpt>
      <trkpt lat="45.83581" lon="1.22104">
        <ele>251.8</ele>
        <time>2025-06-16T11:54:28Z</time>
      </trkpt>
      <trkpt lat="45.83582" lon="1.22098">
        <ele>251.8</ele>
        <time>2025-06-16T11:54:29Z</time>
      </trkpt>
      <trkpt lat="45.83583" lon="1.22093">
        <ele>251.8</ele>
        <time>2025-06-16T11:54:30Z</time>
      </trkpt>
      <trkpt lat="45.83585" lon="1.22088">
        <ele>251.8</ele>
        <time>2025-06-16T11:54:31Z</time>
      </trkpt>
      <trkpt lat="45.83586" lon="1.22084">
        <ele>251.9</ele>
        <time>2025-06-16T11:54:32Z</time>
      </trkpt>
      <trkpt lat="45.83588" lon="1.22079">
        <ele>251.9</ele>
        <time>2025-06-16T11:54:33Z</time>
      </trkpt>
      <trkpt lat="45.8359" lon="1.22075">
        <ele>251.9</ele>
        <time>2025-06-16T11:54:34Z</time>
      </trkpt>
      <trkpt lat="45.83591" lon="1.2207">
        <ele>251.9</ele>
        <time>2025-06-16T11:54:35Z</time>
      </trkpt>
      <trkpt lat="45.83593" lon="1.22066">
        <ele>251.8</ele>
        <time>2025-06-16T11:54:36Z</time>
      </trkpt>
      <trkpt lat="45.83595" lon="1.22062">
        <ele>251.8</ele>
        <time>2025-06-16T11:54:37Z</time>
      </trkpt>
      <trkpt lat="45.83596" lon="1.22059">
        <ele>251.7</ele>
        <time>2025-06-16T11:54:38Z</time>
      </trkpt>
      <trkpt lat="45.83597" lon="1.22059">
        <ele>251.7</ele>
        <time>2025-06-16T11:54:39Z</time>
      </trkpt>
      <trkpt lat="45.83599" lon="1.2206">
        <ele>251.7</ele>
        <time>2025-06-16T11:54:40Z</time>
      </trkpt>
      <trkpt lat="45.836" lon="1.2206">
        <ele>251.7</ele>
        <time>2025-06-16T11:54:41Z</time>
      </trkpt>
      <trkpt lat="45.83601" lon="1.2206">
        <ele>251.7</ele>
        <time>2025-06-16T11:54:42Z</time>
      </trkpt>
      <trkpt lat="45.83602" lon="1.2206">
        <ele>251.7</ele>
        <time>2025-06-16T11:54:43Z</time>
      </trkpt>
      <trkpt lat="45.83603" lon="1.2206">
        <ele>251.7</ele>
        <time>2025-06-16T11:54:44Z</time>
      </trkpt>
      <trkpt lat="45.83604" lon="1.22061">
        <ele>251.7</ele>
        <time>2025-06-16T11:54:45Z</time>
      </trkpt>
      <trkpt lat="45.83604" lon="1.22061">
        <ele>251.7</ele>
        <time>2025-06-16T11:54:46Z</time>
      </trkpt>
      <trkpt lat="45.83605" lon="1.22061">
        <ele>251.7</ele>
        <time>2025-06-16T11:54:47Z</time>
      </trkpt>
      <trkpt lat="45.83605" lon="1.22061">
        <ele>251.7</ele>
        <time>2025-06-16T11:54:48Z</time>
      </trkpt>
      <trkpt lat="45.83605" lon="1.2206">
        <ele>251.7</ele>
        <time>2025-06-16T11:54:49Z</time>
      </trkpt>
      <trkpt lat="45.83605" lon="1.2206">
        <ele>251.7</ele>
        <time>2025-06-16T11:54:50Z</time>
      </trkpt>
      <trkpt lat="45.83605" lon="1.2206">
        <ele>251.7</ele>
        <time>2025-06-16T11:54:51Z</time>
      </trkpt>
      <trkpt lat="45.83605" lon="1.2206">
        <ele>251.7</ele>
        <time>2025-06-16T11:54:52Z</time>
      </trkpt>
      <trkpt lat="45.83605" lon="1.2206">
        <ele>251.7</ele>
        <time>2025-06-16T11:54:53Z</time>
      </trkpt>
      <trkpt lat="45.83605" lon="1.22059">
        <ele>251.7</ele>
        <time>2025-06-16T11:54:54Z</time>
      </trkpt>
      <trkpt lat="45.83605" lon="1.22059">
        <ele>251.7</ele>
        <time>2025-06-16T11:54:55Z</time>
      </trkpt>
      <trkpt lat="45.83605" lon="1.22059">
        <ele>251.7</ele>
        <time>2025-06-16T11:54:56Z</time>
      </trkpt>
      <trkpt lat="45.83605" lon="1.22059">
        <ele>251.7</ele>
        <time>2025-06-16T11:54:57Z</time>
      </trkpt>
      <trkpt lat="45.83606" lon="1.22059">
        <ele>251.7</ele>
        <time>2025-06-16T11:54:58Z</time>
      </trkpt>
      <trkpt lat="45.83606" lon="1.22059">
        <ele>251.7</ele>
        <time>2025-06-16T11:54:59Z</time>
      </trkpt>
      <trkpt lat="45.83606" lon="1.22059">
        <ele>251.7</ele>
        <time>2025-06-16T11:55:00Z</time>
      </trkpt>
      <trkpt lat="45.83606" lon="1.22059">
        <ele>251.7</ele>
        <time>2025-06-16T11:55:01Z</time>
      </trkpt>
      <trkpt lat="45.83606" lon="1.22059">
        <ele>251.7</ele>
        <time>2025-06-16T11:55:02Z</time>
      </trkpt>
      <trkpt lat="45.83606" lon="1.22059">
        <ele>251.7</ele>
        <time>2025-06-16T11:55:03Z</time>
      </trkpt>
      <trkpt lat="45.83606" lon="1.22059">
        <ele>251.7</ele>
        <time>2025-06-16T11:55:04Z</time>
      </trkpt>
      <trkpt lat="45.83606" lon="1.22059">
        <ele>251.7</ele>
        <time>2025-06-16T11:55:05Z</time>
      </trkpt>
      <trkpt lat="45.83606" lon="1.22059">
        <ele>251.7</ele>
        <time>2025-06-16T11:55:06Z</time>
      </trkpt>
      <trkpt lat="45.83606" lon="1.22059">
        <ele>251.7</ele>
        <time>2025-06-16T11:55:07Z</time>
      </trkpt>
      <trkpt lat="45.83606" lon="1.22059">
        <ele>251.7</ele>
        <time>2025-06-16T11:55:08Z</time>
      </trkpt>
      <trkpt lat="45.83606" lon="1.22059">
        <ele>251.7</ele>
        <time>2025-06-16T11:55:09Z</time>
      </trkpt>
      <trkpt lat="45.83606" lon="1.22059">
        <ele>251.7</ele>
        <time>2025-06-16T11:55:10Z</time>
      </trkpt>
      <trkpt lat="45.83606" lon="1.22059">
        <ele>251.7</ele>
        <time>2025-06-16T11:55:11Z</time>
      </trkpt>
      <trkpt lat="45.83606" lon="1.22059">
        <ele>251.7</ele>
        <time>2025-06-16T11:55:12Z</time>
      </trkpt>
      <trkpt lat="45.83606" lon="1.22059">
        <ele>251.7</ele>
        <time>2025-06-16T11:55:13Z</time>
      </trkpt>
      <trkpt lat="45.83606" lon="1.22059">
        <ele>251.7</ele>
        <time>2025-06-16T11:55:14Z</time>
      </trkpt>
      <trkpt lat="45.83606" lon="1.22059">
        <ele>251.7</ele>
        <time>2025-06-16T11:55:15Z</time>
      </trkpt>
      <trkpt lat="45.83606" lon="1.22059">
        <ele>251.7</ele>
        <time>2025-06-16T11:55:16Z</time>
      </trkpt>
      <trkpt lat="45.83606" lon="1.22059">
        <ele>251.7</ele>
        <time>2025-06-16T11:55:17Z</time>
      </trkpt>
      <trkpt lat="45.83606" lon="1.22059">
        <ele>251.7</ele>
        <time>2025-06-16T11:55:18Z</time>
      </trkpt>
      <trkpt lat="45.83606" lon="1.22059">
        <ele>251.7</ele>
        <time>2025-06-16T11:55:19Z</time>
      </trkpt>
      <trkpt lat="45.83606" lon="1.22059">
        <ele>251.7</ele>
        <time>2025-06-16T11:55:20Z</time>
      </trkpt>
      <trkpt lat="45.83606" lon="1.22059">
        <ele>251.7</ele>
        <time>2025-06-16T11:55:21Z</time>
      </trkpt>
      <trkpt lat="45.83606" lon="1.22059">
        <ele>251.7</ele>
        <time>2025-06-16T11:55:22Z</time>
      </trkpt>
      <trkpt lat="45.83606" lon="1.22059">
        <ele>251.7</ele>
        <time>2025-06-16T11:55:23Z</time>
      </trkpt>
      <trkpt lat="45.83606" lon="1.22059">
        <ele>251.7</ele>
        <time>2025-06-16T11:55:24Z</time>
      </trkpt>
      <trkpt lat="45.83606" lon="1.22059">
        <ele>251.7</ele>
        <time>2025-06-16T11:55:25Z</time>
      </trkpt>
      <trkpt lat="45.83606" lon="1.22059">
        <ele>251.7</ele>
        <time>2025-06-16T11:55:26Z</time>
      </trkpt>
      <trkpt lat="45.83606" lon="1.22059">
        <ele>251.7</ele>
        <time>2025-06-16T11:55:27Z</time>
      </trkpt>
      <trkpt lat="45.83606" lon="1.22059">
        <ele>251.7</ele>
        <time>2025-06-16T11:55:28Z</time>
      </trkpt>
      <trkpt lat="45.83606" lon="1.22059">
        <ele>251.7</ele>
        <time>2025-06-16T11:55:29Z</time>
      </trkpt>
      <trkpt lat="45.83606" lon="1.22059">
        <ele>251.7</ele>
        <time>2025-06-16T11:55:30Z</time>
      </trkpt>
      <trkpt lat="45.83606" lon="1.22059">
        <ele>251.7</ele>
        <time>2025-06-16T11:55:31Z</time>
      </trkpt>
      <trkpt lat="45.83606" lon="1.22059">
        <ele>251.7</ele>
        <time>2025-06-16T11:55:32Z</time>
      </trkpt>
      <trkpt lat="45.83606" lon="1.22059">
        <ele>251.7</ele>
        <time>2025-06-16T11:55:33Z</time>
      </trkpt>
      <trkpt lat="45.83606" lon="1.22059">
        <ele>251.7</ele>
        <time>2025-06-16T11:55:34Z</time>
      </trkpt>
      <trkpt lat="45.83606" lon="1.22059">
        <ele>251.7</ele>
        <time>2025-06-16T11:55:35Z</time>
      </trkpt>
      <trkpt lat="45.83606" lon="1.22059">
        <ele>251.7</ele>
        <time>2025-06-16T11:55:36Z</time>
      </trkpt>
      <trkpt lat="45.83606" lon="1.22059">
        <ele>251.7</ele>
        <time>2025-06-16T11:55:37Z</time>
      </trkpt>
      <trkpt lat="45.83606" lon="1.22059">
        <ele>251.7</ele>
        <time>2025-06-16T11:55:38Z</time>
      </trkpt>
      <trkpt lat="45.83606" lon="1.22059">
        <ele>251.7</ele>
        <time>2025-06-16T11:55:39Z</time>
      </trkpt>
      <trkpt lat="45.83606" lon="1.22059">
        <ele>251.7</ele>
        <time>2025-06-16T11:55:40Z</time>
      </trkpt>
      <trkpt lat="45.83607" lon="1.22058">
        <ele>251.7</ele>
        <time>2025-06-16T11:55:41Z</time>
      </trkpt>
      <trkpt lat="45.83609" lon="1.22058">
        <ele>251.6</ele>
        <time>2025-06-16T11:55:42Z</time>
      </trkpt>
      <trkpt lat="45.83612" lon="1.22057">
        <ele>251.6</ele>
        <time>2025-06-16T11:55:43Z</time>
      </trkpt>
      <trkpt lat="45.83613" lon="1.22057">
        <ele>251.6</ele>
        <time>2025-06-16T11:55:44Z</time>
      </trkpt>
      <trkpt lat="45.83616" lon="1.22059">
        <ele>251.6</ele>
        <time>2025-06-16T11:55:45Z</time>
      </trkpt>
      <trkpt lat="45.8362" lon="1.22061">
        <ele>251.6</ele>
        <time>2025-06-16T11:55:46Z</time>
      </trkpt>
      <trkpt lat="45.83623" lon="1.22063">
        <ele>251.6</ele>
        <time>2025-06-16T11:55:47Z</time>
      </trkpt>
      <trkpt lat="45.83626" lon="1.22065">
        <ele>251.5</ele>
        <time>2025-06-16T11:55:48Z</time>
      </trkpt>
      <trkpt lat="45.83628" lon="1.22069">
        <ele>251.5</ele>
        <time>2025-06-16T11:55:49Z</time>
      </trkpt>
      <trkpt lat="45.83629" lon="1.2207">
        <ele>251.5</ele>
        <time>2025-06-16T11:55:50Z</time>
      </trkpt>
      <trkpt lat="45.83634" lon="1.22072">
        <ele>251.5</ele>
        <time>2025-06-16T11:55:52Z</time>
      </trkpt>
      <trkpt lat="45.83642" lon="1.22076">
        <ele>251.5</ele>
        <time>2025-06-16T11:55:53Z</time>
      </trkpt>
      <trkpt lat="45.83646" lon="1.22079">
        <ele>251.5</ele>
        <time>2025-06-16T11:55:55Z</time>
      </trkpt>
      <trkpt lat="45.83648" lon="1.22081">
        <ele>251.4</ele>
        <time>2025-06-16T11:55:56Z</time>
      </trkpt>
      <trkpt lat="45.83651" lon="1.22084">
        <ele>251.4</ele>
        <time>2025-06-16T11:55:57Z</time>
      </trkpt>
      <trkpt lat="45.83655" lon="1.22086">
        <ele>251.3</ele>
        <time>2025-06-16T11:55:58Z</time>
      </trkpt>
      <trkpt lat="45.83657" lon="1.22088">
        <ele>251.2</ele>
        <time>2025-06-16T11:55:59Z</time>
      </trkpt>
      <trkpt lat="45.83662" lon="1.22089">
        <ele>251</ele>
        <time>2025-06-16T11:56:00Z</time>
      </trkpt>
      <trkpt lat="45.83668" lon="1.2209">
        <ele>250.8</ele>
        <time>2025-06-16T11:56:01Z</time>
      </trkpt>
      <trkpt lat="45.83673" lon="1.22093">
        <ele>250.5</ele>
        <time>2025-06-16T11:56:02Z</time>
      </trkpt>
      <trkpt lat="45.83678" lon="1.22097">
        <ele>250.2</ele>
        <time>2025-06-16T11:56:03Z</time>
      </trkpt>
      <trkpt lat="45.83684" lon="1.22102">
        <ele>249.9</ele>
        <time>2025-06-16T11:56:04Z</time>
      </trkpt>
      <trkpt lat="45.8369" lon="1.22108">
        <ele>249.8</ele>
        <time>2025-06-16T11:56:05Z</time>
      </trkpt>
      <trkpt lat="45.83693" lon="1.22114">
        <ele>249.7</ele>
        <time>2025-06-16T11:56:06Z</time>
      </trkpt>
      <trkpt lat="45.83696" lon="1.2212">
        <ele>249.6</ele>
        <time>2025-06-16T11:56:07Z</time>
      </trkpt>
      <trkpt lat="45.83698" lon="1.22127">
        <ele>249.6</ele>
        <time>2025-06-16T11:56:08Z</time>
      </trkpt>
      <trkpt lat="45.83701" lon="1.22134">
        <ele>249.7</ele>
        <time>2025-06-16T11:56:09Z</time>
      </trkpt>
      <trkpt lat="45.83703" lon="1.22141">
        <ele>249.7</ele>
        <time>2025-06-16T11:56:10Z</time>
      </trkpt>
      <trkpt lat="45.83706" lon="1.22146">
        <ele>249.7</ele>
        <time>2025-06-16T11:56:11Z</time>
      </trkpt>
      <trkpt lat="45.83707" lon="1.22151">
        <ele>249.7</ele>
        <time>2025-06-16T11:56:12Z</time>
      </trkpt>
      <trkpt lat="45.8371" lon="1.22157">
        <ele>249.8</ele>
        <time>2025-06-16T11:56:13Z</time>
      </trkpt>
      <trkpt lat="45.83712" lon="1.22162">
        <ele>249.8</ele>
        <time>2025-06-16T11:56:14Z</time>
      </trkpt>
      <trkpt lat="45.83713" lon="1.22165">
        <ele>249.8</ele>
        <time>2025-06-16T11:56:15Z</time>
      </trkpt>
      <trkpt lat="45.83715" lon="1.22169">
        <ele>249.8</ele>
        <time>2025-06-16T11:56:16Z</time>
      </trkpt>
      <trkpt lat="45.83717" lon="1.22173">
        <ele>249.8</ele>
        <time>2025-06-16T11:56:17Z</time>
      </trkpt>
      <trkpt lat="45.83719" lon="1.22177">
        <ele>249.8</ele>
        <time>2025-06-16T11:56:18Z</time>
      </trkpt>
      <trkpt lat="45.8372" lon="1.22181">
        <ele>249.8</ele>
        <time>2025-06-16T11:56:19Z</time>
      </trkpt>
      <trkpt lat="45.83722" lon="1.22185">
        <ele>249.8</ele>
        <time>2025-06-16T11:56:20Z</time>
      </trkpt>
      <trkpt lat="45.83726" lon="1.22186">
        <ele>249.7</ele>
        <time>2025-06-16T11:56:21Z</time>
      </trkpt>
      <trkpt lat="45.83729" lon="1.22183">
        <ele>249.7</ele>
        <time>2025-06-16T11:56:22Z</time>
      </trkpt>
      <trkpt lat="45.83731" lon="1.22181">
        <ele>249.7</ele>
        <time>2025-06-16T11:56:23Z</time>
      </trkpt>
      <trkpt lat="45.83734" lon="1.22179">
        <ele>249.7</ele>
        <time>2025-06-16T11:56:24Z</time>
      </trkpt>
      <trkpt lat="45.83737" lon="1.22178">
        <ele>249.6</ele>
        <time>2025-06-16T11:56:25Z</time>
      </trkpt>
      <trkpt lat="45.83741" lon="1.22177">
        <ele>249.6</ele>
        <time>2025-06-16T11:56:26Z</time>
      </trkpt>
      <trkpt lat="45.83745" lon="1.2217">
        <ele>249.5</ele>
        <time>2025-06-16T11:56:27Z</time>
      </trkpt>
      <trkpt lat="45.83748" lon="1.22169">
        <ele>249.5</ele>
        <time>2025-06-16T11:56:29Z</time>
      </trkpt>
      <trkpt lat="45.83751" lon="1.22168">
        <ele>249.5</ele>
        <time>2025-06-16T11:56:30Z</time>
      </trkpt>
      <trkpt lat="45.83755" lon="1.22169">
        <ele>249.5</ele>
        <time>2025-06-16T11:56:31Z</time>
      </trkpt>
      <trkpt lat="45.83759" lon="1.22172">
        <ele>249.5</ele>
        <time>2025-06-16T11:56:32Z</time>
      </trkpt>
      <trkpt lat="45.83763" lon="1.22174">
        <ele>249.5</ele>
        <time>2025-06-16T11:56:33Z</time>
      </trkpt>
      <trkpt lat="45.83767" lon="1.22176">
        <ele>249.5</ele>
        <time>2025-06-16T11:56:34Z</time>
      </trkpt>
      <trkpt lat="45.8377" lon="1.22178">
        <ele>249.5</ele>
        <time>2025-06-16T11:56:35Z</time>
      </trkpt>
      <trkpt lat="45.83773" lon="1.22181">
        <ele>249.6</ele>
        <time>2025-06-16T11:56:36Z</time>
      </trkpt>
      <trkpt lat="45.83778" lon="1.22183">
        <ele>249.6</ele>
        <time>2025-06-16T11:56:37Z</time>
      </trkpt>
      <trkpt lat="45.83781" lon="1.22186">
        <ele>249.6</ele>
        <time>2025-06-16T11:56:39Z</time>
      </trkpt>
      <trkpt lat="45.83784" lon="1.2219">
        <ele>249.6</ele>
        <time>2025-06-16T11:56:40Z</time>
      </trkpt>
      <trkpt lat="45.83786" lon="1.22194">
        <ele>249.7</ele>
        <time>2025-06-16T11:56:41Z</time>
      </trkpt>
      <trkpt lat="45.83788" lon="1.22198">
        <ele>249.7</ele>
        <time>2025-06-16T11:56:42Z</time>
      </trkpt>
      <trkpt lat="45.83792" lon="1.22206">
        <ele>249.7</ele>
        <time>2025-06-16T11:56:43Z</time>
      </trkpt>
      <trkpt lat="45.83794" lon="1.2221">
        <ele>249.8</ele>
        <time>2025-06-16T11:56:45Z</time>
      </trkpt>
      <trkpt lat="45.83796" lon="1.22214">
        <ele>249.8</ele>
        <time>2025-06-16T11:56:46Z</time>
      </trkpt>
      <trkpt lat="45.83798" lon="1.22217">
        <ele>249.8</ele>
        <time>2025-06-16T11:56:47Z</time>
      </trkpt>
      <trkpt lat="45.838" lon="1.22221">
        <ele>249.9</ele>
        <time>2025-06-16T11:56:48Z</time>
      </trkpt>
      <trkpt lat="45.83801" lon="1.22225">
        <ele>249.9</ele>
        <time>2025-06-16T11:56:49Z</time>
      </trkpt>
      <trkpt lat="45.83805" lon="1.22232">
        <ele>249.9</ele>
        <time>2025-06-16T11:56:50Z</time>
      </trkpt>
      <trkpt lat="45.83808" lon="1.22236">
        <ele>250</ele>
        <time>2025-06-16T11:56:52Z</time>
      </trkpt>
      <trkpt lat="45.83811" lon="1.2224">
        <ele>250</ele>
        <time>2025-06-16T11:56:53Z</time>
      </trkpt>
      <trkpt lat="45.83813" lon="1.22244">
        <ele>250</ele>
        <time>2025-06-16T11:56:54Z</time>
      </trkpt>
      <trkpt lat="45.83816" lon="1.22248">
        <ele>250.1</ele>
        <time>2025-06-16T11:56:55Z</time>
      </trkpt>
      <trkpt lat="45.83818" lon="1.22252">
        <ele>250.1</ele>
        <time>2025-06-16T11:56:56Z</time>
      </trkpt>
      <trkpt lat="45.8382" lon="1.22256">
        <ele>250.1</ele>
        <time>2025-06-16T11:56:57Z</time>
      </trkpt>
      <trkpt lat="45.83822" lon="1.22261">
        <ele>250.1</ele>
        <time>2025-06-16T11:56:58Z</time>
      </trkpt>
      <trkpt lat="45.83824" lon="1.22265">
        <ele>250.1</ele>
        <time>2025-06-16T11:56:59Z</time>
      </trkpt>
      <trkpt lat="45.83826" lon="1.22269">
        <ele>250.2</ele>
        <time>2025-06-16T11:57:00Z</time>
      </trkpt>
      <trkpt lat="45.83829" lon="1.22273">
        <ele>250.2</ele>
        <time>2025-06-16T11:57:01Z</time>
      </trkpt>
      <trkpt lat="45.83832" lon="1.22277">
        <ele>250.2</ele>
        <time>2025-06-16T11:57:02Z</time>
      </trkpt>
      <trkpt lat="45.83834" lon="1.22281">
        <ele>250.2</ele>
        <time>2025-06-16T11:57:03Z</time>
      </trkpt>
      <trkpt lat="45.83837" lon="1.22284">
        <ele>250.3</ele>
        <time>2025-06-16T11:57:04Z</time>
      </trkpt>
      <trkpt lat="45.8384" lon="1.22288">
        <ele>250.3</ele>
        <time>2025-06-16T11:57:05Z</time>
      </trkpt>
      <trkpt lat="45.83842" lon="1.22291">
        <ele>250.4</ele>
        <time>2025-06-16T11:57:06Z</time>
      </trkpt>
      <trkpt lat="45.83845" lon="1.22293">
        <ele>250.4</ele>
        <time>2025-06-16T11:57:07Z</time>
      </trkpt>
      <trkpt lat="45.83848" lon="1.22296">
        <ele>250.5</ele>
        <time>2025-06-16T11:57:08Z</time>
      </trkpt>
      <trkpt lat="45.8385" lon="1.22299">
        <ele>250.5</ele>
        <time>2025-06-16T11:57:09Z</time>
      </trkpt>
      <trkpt lat="45.83853" lon="1.22303">
        <ele>250.6</ele>
        <time>2025-06-16T11:57:10Z</time>
      </trkpt>
      <trkpt lat="45.83856" lon="1.22306">
        <ele>250.7</ele>
        <time>2025-06-16T11:57:11Z</time>
      </trkpt>
      <trkpt lat="45.8386" lon="1.22308">
        <ele>250.8</ele>
        <time>2025-06-16T11:57:12Z</time>
      </trkpt>
      <trkpt lat="45.83862" lon="1.2231">
        <ele>250.9</ele>
        <time>2025-06-16T11:57:13Z</time>
      </trkpt>
      <trkpt lat="45.83865" lon="1.22312">
        <ele>251</ele>
        <time>2025-06-16T11:57:14Z</time>
      </trkpt>
      <trkpt lat="45.83868" lon="1.22314">
        <ele>251.1</ele>
        <time>2025-06-16T11:57:15Z</time>
      </trkpt>
      <trkpt lat="45.83871" lon="1.22316">
        <ele>251.2</ele>
        <time>2025-06-16T11:57:16Z</time>
      </trkpt>
      <trkpt lat="45.83874" lon="1.22317">
        <ele>251.3</ele>
        <time>2025-06-16T11:57:17Z</time>
      </trkpt>
      <trkpt lat="45.83878" lon="1.22318">
        <ele>251.4</ele>
        <time>2025-06-16T11:57:18Z</time>
      </trkpt>
      <trkpt lat="45.83881" lon="1.22319">
        <ele>251.6</ele>
        <time>2025-06-16T11:57:19Z</time>
      </trkpt>
      <trkpt lat="45.83885" lon="1.2232">
        <ele>251.7</ele>
        <time>2025-06-16T11:57:20Z</time>
      </trkpt>
      <trkpt lat="45.83888" lon="1.22321">
        <ele>251.8</ele>
        <time>2025-06-16T11:57:21Z</time>
      </trkpt>
      <trkpt lat="45.8389" lon="1.22323">
        <ele>251.9</ele>
        <time>2025-06-16T11:57:22Z</time>
      </trkpt>
      <trkpt lat="45.83894" lon="1.22328">
        <ele>252.1</ele>
        <time>2025-06-16T11:57:23Z</time>
      </trkpt>
      <trkpt lat="45.83895" lon="1.22333">
        <ele>252.1</ele>
        <time>2025-06-16T11:57:24Z</time>
      </trkpt>
      <trkpt lat="45.83896" lon="1.22338">
        <ele>252.2</ele>
        <time>2025-06-16T11:57:26Z</time>
      </trkpt>
      <trkpt lat="45.83898" lon="1.22342">
        <ele>252.2</ele>
        <time>2025-06-16T11:57:27Z</time>
      </trkpt>
      <trkpt lat="45.83902" lon="1.22343">
        <ele>252.2</ele>
        <time>2025-06-16T11:57:28Z</time>
      </trkpt>
      <trkpt lat="45.83904" lon="1.22343">
        <ele>252.2</ele>
        <time>2025-06-16T11:57:29Z</time>
      </trkpt>
      <trkpt lat="45.83909" lon="1.22342">
        <ele>252.2</ele>
        <time>2025-06-16T11:57:30Z</time>
      </trkpt>
      <trkpt lat="45.83918" lon="1.22342">
        <ele>252.2</ele>
        <time>2025-06-16T11:57:31Z</time>
      </trkpt>
      <trkpt lat="45.83922" lon="1.22343">
        <ele>252.3</ele>
        <time>2025-06-16T11:57:33Z</time>
      </trkpt>
      <trkpt lat="45.83926" lon="1.22344">
        <ele>252.3</ele>
        <time>2025-06-16T11:57:34Z</time>
      </trkpt>
      <trkpt lat="45.83933" lon="1.22349">
        <ele>252.4</ele>
        <time>2025-06-16T11:57:35Z</time>
      </trkpt>
      <trkpt lat="45.83937" lon="1.22352">
        <ele>252.5</ele>
        <time>2025-06-16T11:57:36Z</time>
      </trkpt>
      <trkpt lat="45.8394" lon="1.22356">
        <ele>252.5</ele>
        <time>2025-06-16T11:57:38Z</time>
      </trkpt>
      <trkpt lat="45.83946" lon="1.22364">
        <ele>252.5</ele>
        <time>2025-06-16T11:57:39Z</time>
      </trkpt>
      <trkpt lat="45.83951" lon="1.22371">
        <ele>252.5</ele>
        <time>2025-06-16T11:57:41Z</time>
      </trkpt>
      <trkpt lat="45.83954" lon="1.22375">
        <ele>252.5</ele>
        <time>2025-06-16T11:57:42Z</time>
      </trkpt>
      <trkpt lat="45.83956" lon="1.22378">
        <ele>252.5</ele>
        <time>2025-06-16T11:57:44Z</time>
      </trkpt>
      <trkpt lat="45.83959" lon="1.22382">
        <ele>252.5</ele>
        <time>2025-06-16T11:57:45Z</time>
      </trkpt>
      <trkpt lat="45.83961" lon="1.22387">
        <ele>252.5</ele>
        <time>2025-06-16T11:57:46Z</time>
      </trkpt>
      <trkpt lat="45.83963" lon="1.22392">
        <ele>252.5</ele>
        <time>2025-06-16T11:57:47Z</time>
      </trkpt>
      <trkpt lat="45.83964" lon="1.22397">
        <ele>252.4</ele>
        <time>2025-06-16T11:57:48Z</time>
      </trkpt>
      <trkpt lat="45.83965" lon="1.22402">
        <ele>252.4</ele>
        <time>2025-06-16T11:57:49Z</time>
      </trkpt>
      <trkpt lat="45.83967" lon="1.22408">
        <ele>252.4</ele>
        <time>2025-06-16T11:57:50Z</time>
      </trkpt>
      <trkpt lat="45.83969" lon="1.22414">
        <ele>252.3</ele>
        <time>2025-06-16T11:57:51Z</time>
      </trkpt>
      <trkpt lat="45.83971" lon="1.22419">
        <ele>252.2</ele>
        <time>2025-06-16T11:57:52Z</time>
      </trkpt>
      <trkpt lat="45.83973" lon="1.22425">
        <ele>252.2</ele>
        <time>2025-06-16T11:57:53Z</time>
      </trkpt>
      <trkpt lat="45.83974" lon="1.2243">
        <ele>252.1</ele>
        <time>2025-06-16T11:57:54Z</time>
      </trkpt>
      <trkpt lat="45.83977" lon="1.22436">
        <ele>252.1</ele>
        <time>2025-06-16T11:57:55Z</time>
      </trkpt>
      <trkpt lat="45.83983" lon="1.22444">
        <ele>252</ele>
        <time>2025-06-16T11:57:56Z</time>
      </trkpt>
      <trkpt lat="45.83986" lon="1.22447">
        <ele>252</ele>
        <time>2025-06-16T11:57:58Z</time>
      </trkpt>
      <trkpt lat="45.8399" lon="1.22449">
        <ele>252.1</ele>
        <time>2025-06-16T11:57:59Z</time>
      </trkpt>
      <trkpt lat="45.83994" lon="1.22452">
        <ele>252.1</ele>
        <time>2025-06-16T11:58:00Z</time>
      </trkpt>
      <trkpt lat="45.83998" lon="1.22454">
        <ele>252.2</ele>
        <time>2025-06-16T11:58:01Z</time>
      </trkpt>
      <trkpt lat="45.84002" lon="1.22455">
        <ele>252.2</ele>
        <time>2025-06-16T11:58:02Z</time>
      </trkpt>
      <trkpt lat="45.84007" lon="1.22457">
        <ele>252.3</ele>
        <time>2025-06-16T11:58:03Z</time>
      </trkpt>
      <trkpt lat="45.84011" lon="1.22457">
        <ele>252.4</ele>
        <time>2025-06-16T11:58:04Z</time>
      </trkpt>
      <trkpt lat="45.84015" lon="1.22458">
        <ele>252.4</ele>
        <time>2025-06-16T11:58:05Z</time>
      </trkpt>
      <trkpt lat="45.84019" lon="1.22458">
        <ele>252.5</ele>
        <time>2025-06-16T11:58:06Z</time>
      </trkpt>
      <trkpt lat="45.84023" lon="1.22458">
        <ele>252.6</ele>
        <time>2025-06-16T11:58:07Z</time>
      </trkpt>
      <trkpt lat="45.84027" lon="1.22458">
        <ele>252.7</ele>
        <time>2025-06-16T11:58:08Z</time>
      </trkpt>
      <trkpt lat="45.84031" lon="1.22458">
        <ele>252.8</ele>
        <time>2025-06-16T11:58:09Z</time>
      </trkpt>
      <trkpt lat="45.84034" lon="1.22458">
        <ele>252.9</ele>
        <time>2025-06-16T11:58:10Z</time>
      </trkpt>
      <trkpt lat="45.84037" lon="1.22457">
        <ele>253</ele>
        <time>2025-06-16T11:58:11Z</time>
      </trkpt>
      <trkpt lat="45.8404" lon="1.22458">
        <ele>253.1</ele>
        <time>2025-06-16T11:58:12Z</time>
      </trkpt>
      <trkpt lat="45.84043" lon="1.22461">
        <ele>253.2</ele>
        <time>2025-06-16T11:58:13Z</time>
      </trkpt>
      <trkpt lat="45.84045" lon="1.22467">
        <ele>253.2</ele>
        <time>2025-06-16T11:58:14Z</time>
      </trkpt>
      <trkpt lat="45.84045" lon="1.22472">
        <ele>253.3</ele>
        <time>2025-06-16T11:58:15Z</time>
      </trkpt>
      <trkpt lat="45.84045" lon="1.22478">
        <ele>253.4</ele>
        <time>2025-06-16T11:58:16Z</time>
      </trkpt>
      <trkpt lat="45.84045" lon="1.22484">
        <ele>253.5</ele>
        <time>2025-06-16T11:58:17Z</time>
      </trkpt>
      <trkpt lat="45.84045" lon="1.2249">
        <ele>253.6</ele>
        <time>2025-06-16T11:58:18Z</time>
      </trkpt>
      <trkpt lat="45.84044" lon="1.22495">
        <ele>253.6</ele>
        <time>2025-06-16T11:58:19Z</time>
      </trkpt>
      <trkpt lat="45.84043" lon="1.22496">
        <ele>253.7</ele>
        <time>2025-06-16T11:58:20Z</time>
      </trkpt>
      <trkpt lat="45.84042" lon="1.225">
        <ele>253.7</ele>
        <time>2025-06-16T11:58:21Z</time>
      </trkpt>
      <trkpt lat="45.84041" lon="1.22504">
        <ele>253.8</ele>
        <time>2025-06-16T11:58:22Z</time>
      </trkpt>
      <trkpt lat="45.8404" lon="1.22509">
        <ele>253.8</ele>
        <time>2025-06-16T11:58:23Z</time>
      </trkpt>
      <trkpt lat="45.84042" lon="1.22513">
        <ele>253.9</ele>
        <time>2025-06-16T11:58:24Z</time>
      </trkpt>
      <trkpt lat="45.84044" lon="1.22517">
        <ele>253.9</ele>
        <time>2025-06-16T11:58:25Z</time>
      </trkpt>
      <trkpt lat="45.84047" lon="1.2252">
        <ele>253.9</ele>
        <time>2025-06-16T11:58:26Z</time>
      </trkpt>
      <trkpt lat="45.8405" lon="1.22522">
        <ele>254</ele>
        <time>2025-06-16T11:58:27Z</time>
      </trkpt>
      <trkpt lat="45.84054" lon="1.22525">
        <ele>254</ele>
        <time>2025-06-16T11:58:28Z</time>
      </trkpt>
      <trkpt lat="45.84057" lon="1.22528">
        <ele>254.1</ele>
        <time>2025-06-16T11:58:29Z</time>
      </trkpt>
      <trkpt lat="45.8406" lon="1.22531">
        <ele>254.1</ele>
        <time>2025-06-16T11:58:30Z</time>
      </trkpt>
      <trkpt lat="45.84063" lon="1.22535">
        <ele>254.2</ele>
        <time>2025-06-16T11:58:31Z</time>
      </trkpt>
      <trkpt lat="45.84066" lon="1.22539">
        <ele>254.2</ele>
        <time>2025-06-16T11:58:32Z</time>
      </trkpt>
      <trkpt lat="45.84069" lon="1.22543">
        <ele>254.2</ele>
        <time>2025-06-16T11:58:33Z</time>
      </trkpt>
      <trkpt lat="45.84071" lon="1.22547">
        <ele>254.3</ele>
        <time>2025-06-16T11:58:34Z</time>
      </trkpt>
      <trkpt lat="45.84075" lon="1.22555">
        <ele>254.4</ele>
        <time>2025-06-16T11:58:35Z</time>
      </trkpt>
      <trkpt lat="45.84078" lon="1.22558">
        <ele>254.4</ele>
        <time>2025-06-16T11:58:37Z</time>
      </trkpt>
      <trkpt lat="45.8408" lon="1.22562">
        <ele>254.5</ele>
        <time>2025-06-16T11:58:38Z</time>
      </trkpt>
      <trkpt lat="45.84083" lon="1.22565">
        <ele>254.5</ele>
        <time>2025-06-16T11:58:39Z</time>
      </trkpt>
      <trkpt lat="45.84086" lon="1.22568">
        <ele>254.5</ele>
        <time>2025-06-16T11:58:40Z</time>
      </trkpt>
      <trkpt lat="45.8409" lon="1.2257">
        <ele>254.6</ele>
        <time>2025-06-16T11:58:41Z</time>
      </trkpt>
      <trkpt lat="45.84093" lon="1.22573">
        <ele>254.6</ele>
        <time>2025-06-16T11:58:42Z</time>
      </trkpt>
      <trkpt lat="45.84096" lon="1.22576">
        <ele>254.6</ele>
        <time>2025-06-16T11:58:43Z</time>
      </trkpt>
      <trkpt lat="45.84099" lon="1.22579">
        <ele>254.6</ele>
        <time>2025-06-16T11:58:44Z</time>
      </trkpt>
      <trkpt lat="45.84102" lon="1.22581">
        <ele>254.6</ele>
        <time>2025-06-16T11:58:45Z</time>
      </trkpt>
      <trkpt lat="45.84105" lon="1.22584">
        <ele>254.6</ele>
        <time>2025-06-16T11:58:46Z</time>
      </trkpt>
      <trkpt lat="45.84112" lon="1.22589">
        <ele>254.6</ele>
        <time>2025-06-16T11:58:47Z</time>
      </trkpt>
      <trkpt lat="45.84115" lon="1.22591">
        <ele>254.6</ele>
        <time>2025-06-16T11:58:49Z</time>
      </trkpt>
      <trkpt lat="45.84119" lon="1.22593">
        <ele>254.6</ele>
        <time>2025-06-16T11:58:50Z</time>
      </trkpt>
      <trkpt lat="45.84123" lon="1.22595">
        <ele>254.5</ele>
        <time>2025-06-16T11:58:51Z</time>
      </trkpt>
      <trkpt lat="45.84127" lon="1.22597">
        <ele>254.5</ele>
        <time>2025-06-16T11:58:52Z</time>
      </trkpt>
      <trkpt lat="45.84131" lon="1.22599">
        <ele>254.5</ele>
        <time>2025-06-16T11:58:53Z</time>
      </trkpt>
      <trkpt lat="45.84134" lon="1.22601">
        <ele>254.4</ele>
        <time>2025-06-16T11:58:54Z</time>
      </trkpt>
      <trkpt lat="45.84138" lon="1.22602">
        <ele>254.4</ele>
        <time>2025-06-16T11:58:55Z</time>
      </trkpt>
      <trkpt lat="45.84143" lon="1.22603">
        <ele>254.4</ele>
        <time>2025-06-16T11:58:56Z</time>
      </trkpt>
      <trkpt lat="45.84147" lon="1.22604">
        <ele>254.3</ele>
        <time>2025-06-16T11:58:57Z</time>
      </trkpt>
      <trkpt lat="45.84152" lon="1.22605">
        <ele>254.3</ele>
        <time>2025-06-16T11:58:58Z</time>
      </trkpt>
      <trkpt lat="45.84156" lon="1.22606">
        <ele>254.3</ele>
        <time>2025-06-16T11:58:59Z</time>
      </trkpt>
      <trkpt lat="45.84161" lon="1.22607">
        <ele>254.3</ele>
        <time>2025-06-16T11:59:00Z</time>
      </trkpt>
      <trkpt lat="45.84165" lon="1.22608">
        <ele>254.3</ele>
        <time>2025-06-16T11:59:01Z</time>
      </trkpt>
      <trkpt lat="45.8417" lon="1.22609">
        <ele>254.3</ele>
        <time>2025-06-16T11:59:02Z</time>
      </trkpt>
      <trkpt lat="45.84174" lon="1.22609">
        <ele>254.3</ele>
        <time>2025-06-16T11:59:03Z</time>
      </trkpt>
      <trkpt lat="45.84182" lon="1.22611">
        <ele>254.3</ele>
        <time>2025-06-16T11:59:04Z</time>
      </trkpt>
      <trkpt lat="45.8419" lon="1.22613">
        <ele>254.3</ele>
        <time>2025-06-16T11:59:06Z</time>
      </trkpt>
      <trkpt lat="45.84194" lon="1.22614">
        <ele>254.3</ele>
        <time>2025-06-16T11:59:08Z</time>
      </trkpt>
      <trkpt lat="45.84198" lon="1.22614">
        <ele>254.3</ele>
        <time>2025-06-16T11:59:09Z</time>
      </trkpt>
      <trkpt lat="45.84201" lon="1.22615">
        <ele>254.3</ele>
        <time>2025-06-16T11:59:10Z</time>
      </trkpt>
      <trkpt lat="45.84205" lon="1.22616">
        <ele>254.3</ele>
        <time>2025-06-16T11:59:11Z</time>
      </trkpt>
      <trkpt lat="45.84209" lon="1.22617">
        <ele>254.3</ele>
        <time>2025-06-16T11:59:12Z</time>
      </trkpt>
      <trkpt lat="45.84213" lon="1.22618">
        <ele>254.3</ele>
        <time>2025-06-16T11:59:13Z</time>
      </trkpt>
      <trkpt lat="45.8422" lon="1.22619">
        <ele>254.3</ele>
        <time>2025-06-16T11:59:14Z</time>
      </trkpt>
      <trkpt lat="45.84224" lon="1.2262">
        <ele>254.3</ele>
        <time>2025-06-16T11:59:16Z</time>
      </trkpt>
      <trkpt lat="45.84227" lon="1.22621">
        <ele>254.4</ele>
        <time>2025-06-16T11:59:17Z</time>
      </trkpt>
      <trkpt lat="45.84234" lon="1.22626">
        <ele>254.5</ele>
        <time>2025-06-16T11:59:18Z</time>
      </trkpt>
      <trkpt lat="45.84237" lon="1.2263">
        <ele>254.6</ele>
        <time>2025-06-16T11:59:19Z</time>
      </trkpt>
      <trkpt lat="45.8424" lon="1.22634">
        <ele>254.6</ele>
        <time>2025-06-16T11:59:21Z</time>
      </trkpt>
      <trkpt lat="45.84245" lon="1.22641">
        <ele>254.8</ele>
        <time>2025-06-16T11:59:22Z</time>
      </trkpt>
      <trkpt lat="45.84249" lon="1.22643">
        <ele>254.8</ele>
        <time>2025-06-16T11:59:24Z</time>
      </trkpt>
      <trkpt lat="45.84252" lon="1.22645">
        <ele>254.9</ele>
        <time>2025-06-16T11:59:25Z</time>
      </trkpt>
      <trkpt lat="45.84256" lon="1.22647">
        <ele>254.9</ele>
        <time>2025-06-16T11:59:26Z</time>
      </trkpt>
      <trkpt lat="45.84259" lon="1.22649">
        <ele>255</ele>
        <time>2025-06-16T11:59:27Z</time>
      </trkpt>
      <trkpt lat="45.84263" lon="1.22651">
        <ele>255.1</ele>
        <time>2025-06-16T11:59:28Z</time>
      </trkpt>
      <trkpt lat="45.84266" lon="1.22654">
        <ele>255.2</ele>
        <time>2025-06-16T11:59:29Z</time>
      </trkpt>
      <trkpt lat="45.84272" lon="1.22658">
        <ele>255.3</ele>
        <time>2025-06-16T11:59:30Z</time>
      </trkpt>
      <trkpt lat="45.84276" lon="1.2266">
        <ele>255.4</ele>
        <time>2025-06-16T11:59:32Z</time>
      </trkpt>
      <trkpt lat="45.8428" lon="1.22662">
        <ele>255.5</ele>
        <time>2025-06-16T11:59:33Z</time>
      </trkpt>
      <trkpt lat="45.84283" lon="1.22664">
        <ele>255.6</ele>
        <time>2025-06-16T11:59:34Z</time>
      </trkpt>
      <trkpt lat="45.84286" lon="1.22666">
        <ele>255.7</ele>
        <time>2025-06-16T11:59:35Z</time>
      </trkpt>
      <trkpt lat="45.84287" lon="1.22667">
        <ele>255.7</ele>
        <time>2025-06-16T11:59:36Z</time>
      </trkpt>
      <trkpt lat="45.8429" lon="1.22669">
        <ele>255.7</ele>
        <time>2025-06-16T11:59:37Z</time>
      </trkpt>
      <trkpt lat="45.84293" lon="1.2267">
        <ele>255.7</ele>
        <time>2025-06-16T11:59:38Z</time>
      </trkpt>
      <trkpt lat="45.84296" lon="1.22672">
        <ele>255.8</ele>
        <time>2025-06-16T11:59:39Z</time>
      </trkpt>
      <trkpt lat="45.84298" lon="1.22674">
        <ele>255.8</ele>
        <time>2025-06-16T11:59:40Z</time>
      </trkpt>
      <trkpt lat="45.84301" lon="1.22679">
        <ele>255.8</ele>
        <time>2025-06-16T11:59:41Z</time>
      </trkpt>
      <trkpt lat="45.84302" lon="1.22684">
        <ele>255.9</ele>
        <time>2025-06-16T11:59:42Z</time>
      </trkpt>
      <trkpt lat="45.84304" lon="1.22689">
        <ele>256</ele>
        <time>2025-06-16T11:59:43Z</time>
      </trkpt>
      <trkpt lat="45.84306" lon="1.22694">
        <ele>256.1</ele>
        <time>2025-06-16T11:59:44Z</time>
      </trkpt>
      <trkpt lat="45.84308" lon="1.22697">
        <ele>256.2</ele>
        <time>2025-06-16T11:59:45Z</time>
      </trkpt>
      <trkpt lat="45.8431" lon="1.227">
        <ele>256.3</ele>
        <time>2025-06-16T11:59:46Z</time>
      </trkpt>
      <trkpt lat="45.84313" lon="1.22702">
        <ele>256.4</ele>
        <time>2025-06-16T11:59:47Z</time>
      </trkpt>
      <trkpt lat="45.84316" lon="1.22702">
        <ele>256.5</ele>
        <time>2025-06-16T11:59:48Z</time>
      </trkpt>
      <trkpt lat="45.8432" lon="1.22703">
        <ele>256.6</ele>
        <time>2025-06-16T11:59:49Z</time>
      </trkpt>
      <trkpt lat="45.84323" lon="1.22703">
        <ele>256.7</ele>
        <time>2025-06-16T11:59:50Z</time>
      </trkpt>
      <trkpt lat="45.84326" lon="1.22704">
        <ele>256.8</ele>
        <time>2025-06-16T11:59:51Z</time>
      </trkpt>
      <trkpt lat="45.8433" lon="1.22705">
        <ele>257</ele>
        <time>2025-06-16T11:59:52Z</time>
      </trkpt>
      <trkpt lat="45.84333" lon="1.22706">
        <ele>257.1</ele>
        <time>2025-06-16T11:59:53Z</time>
      </trkpt>
      <trkpt lat="45.84337" lon="1.22707">
        <ele>257.3</ele>
        <time>2025-06-16T11:59:54Z</time>
      </trkpt>
      <trkpt lat="45.8434" lon="1.22709">
        <ele>257.4</ele>
        <time>2025-06-16T11:59:55Z</time>
      </trkpt>
      <trkpt lat="45.84342" lon="1.2271">
        <ele>257.6</ele>
        <time>2025-06-16T11:59:56Z</time>
      </trkpt>
      <trkpt lat="45.84345" lon="1.22711">
        <ele>257.8</ele>
        <time>2025-06-16T11:59:57Z</time>
      </trkpt>
      <trkpt lat="45.84348" lon="1.22712">
        <ele>258</ele>
        <time>2025-06-16T11:59:58Z</time>
      </trkpt>
      <trkpt lat="45.84351" lon="1.22714">
        <ele>258.3</ele>
        <time>2025-06-16T11:59:59Z</time>
      </trkpt>
      <trkpt lat="45.84354" lon="1.22715">
        <ele>258.5</ele>
        <time>2025-06-16T12:00:00Z</time>
      </trkpt>
      <trkpt lat="45.84359" lon="1.2272">
        <ele>259.2</ele>
        <time>2025-06-16T12:00:01Z</time>
      </trkpt>
      <trkpt lat="45.84361" lon="1.22723">
        <ele>259.6</ele>
        <time>2025-06-16T12:00:03Z</time>
      </trkpt>
      <trkpt lat="45.84363" lon="1.22726">
        <ele>260</ele>
        <time>2025-06-16T12:00:04Z</time>
      </trkpt>
      <trkpt lat="45.84365" lon="1.22729">
        <ele>260.5</ele>
        <time>2025-06-16T12:00:05Z</time>
      </trkpt>
      <trkpt lat="45.84366" lon="1.22735">
        <ele>261.1</ele>
        <time>2025-06-16T12:00:06Z</time>
      </trkpt>
      <trkpt lat="45.84367" lon="1.22736">
        <ele>261.3</ele>
        <time>2025-06-16T12:00:07Z</time>
      </trkpt>
      <trkpt lat="45.84368" lon="1.22741">
        <ele>261.9</ele>
        <time>2025-06-16T12:00:08Z</time>
      </trkpt>
      <trkpt lat="45.84368" lon="1.22742">
        <ele>262</ele>
        <time>2025-06-16T12:00:09Z</time>
      </trkpt>
      <trkpt lat="45.84368" lon="1.22744">
        <ele>262.3</ele>
        <time>2025-06-16T12:00:10Z</time>
      </trkpt>
      <trkpt lat="45.84369" lon="1.22746">
        <ele>262.6</ele>
        <time>2025-06-16T12:00:11Z</time>
      </trkpt>
      <trkpt lat="45.84369" lon="1.22748">
        <ele>262.8</ele>
        <time>2025-06-16T12:00:12Z</time>
      </trkpt>
      <trkpt lat="45.84369" lon="1.22752">
        <ele>263.3</ele>
        <time>2025-06-16T12:00:13Z</time>
      </trkpt>
      <trkpt lat="45.8437" lon="1.22754">
        <ele>263.6</ele>
        <time>2025-06-16T12:00:15Z</time>
      </trkpt>
      <trkpt lat="45.8437" lon="1.22756">
        <ele>263.9</ele>
        <time>2025-06-16T12:00:16Z</time>
      </trkpt>
      <trkpt lat="45.8437" lon="1.22758">
        <ele>264.2</ele>
        <time>2025-06-16T12:00:17Z</time>
      </trkpt>
      <trkpt lat="45.8437" lon="1.2276">
        <ele>264.4</ele>
        <time>2025-06-16T12:00:18Z</time>
      </trkpt>
      <trkpt lat="45.8437" lon="1.22763">
        <ele>264.7</ele>
        <time>2025-06-16T12:00:19Z</time>
      </trkpt>
      <trkpt lat="45.84372" lon="1.22767">
        <ele>265.3</ele>
        <time>2025-06-16T12:00:20Z</time>
      </trkpt>
      <trkpt lat="45.84372" lon="1.22771">
        <ele>265.8</ele>
        <time>2025-06-16T12:00:21Z</time>
      </trkpt>
      <trkpt lat="45.84372" lon="1.22772">
        <ele>265.9</ele>
        <time>2025-06-16T12:00:22Z</time>
      </trkpt>
      <trkpt lat="45.84372" lon="1.22775">
        <ele>266.2</ele>
        <time>2025-06-16T12:00:23Z</time>
      </trkpt>
      <trkpt lat="45.84373" lon="1.22777">
        <ele>266.4</ele>
        <time>2025-06-16T12:00:24Z</time>
      </trkpt>
      <trkpt lat="45.84373" lon="1.22779">
        <ele>266.7</ele>
        <time>2025-06-16T12:00:25Z</time>
      </trkpt>
      <trkpt lat="45.84374" lon="1.22782">
        <ele>266.9</ele>
        <time>2025-06-16T12:00:26Z</time>
      </trkpt>
      <trkpt lat="45.84374" lon="1.22784">
        <ele>267.1</ele>
        <time>2025-06-16T12:00:27Z</time>
      </trkpt>
      <trkpt lat="45.84376" lon="1.22786">
        <ele>267.4</ele>
        <time>2025-06-16T12:00:28Z</time>
      </trkpt>
      <trkpt lat="45.84377" lon="1.22788">
        <ele>267.6</ele>
        <time>2025-06-16T12:00:29Z</time>
      </trkpt>
      <trkpt lat="45.84378" lon="1.2279">
        <ele>267.7</ele>
        <time>2025-06-16T12:00:30Z</time>
      </trkpt>
      <trkpt lat="45.8438" lon="1.22791">
        <ele>267.8</ele>
        <time>2025-06-16T12:00:31Z</time>
      </trkpt>
      <trkpt lat="45.84381" lon="1.22792">
        <ele>267.8</ele>
        <time>2025-06-16T12:00:32Z</time>
      </trkpt>
      <trkpt lat="45.84384" lon="1.22794">
        <ele>267.9</ele>
        <time>2025-06-16T12:00:33Z</time>
      </trkpt>
      <trkpt lat="45.84385" lon="1.22795">
        <ele>268</ele>
        <time>2025-06-16T12:00:34Z</time>
      </trkpt>
      <trkpt lat="45.84387" lon="1.22797">
        <ele>268.1</ele>
        <time>2025-06-16T12:00:35Z</time>
      </trkpt>
      <trkpt lat="45.84388" lon="1.22798">
        <ele>268.1</ele>
        <time>2025-06-16T12:00:36Z</time>
      </trkpt>
      <trkpt lat="45.84391" lon="1.228">
        <ele>268.3</ele>
        <time>2025-06-16T12:00:37Z</time>
      </trkpt>
      <trkpt lat="45.84392" lon="1.22801">
        <ele>268.4</ele>
        <time>2025-06-16T12:00:38Z</time>
      </trkpt>
      <trkpt lat="45.84395" lon="1.22804">
        <ele>268.7</ele>
        <time>2025-06-16T12:00:39Z</time>
      </trkpt>
      <trkpt lat="45.84395" lon="1.22805">
        <ele>268.7</ele>
        <time>2025-06-16T12:00:40Z</time>
      </trkpt>
      <trkpt lat="45.84396" lon="1.22807">
        <ele>268.9</ele>
        <time>2025-06-16T12:00:41Z</time>
      </trkpt>
      <trkpt lat="45.84397" lon="1.22808">
        <ele>269</ele>
        <time>2025-06-16T12:00:42Z</time>
      </trkpt>
      <trkpt lat="45.844" lon="1.22811">
        <ele>269.3</ele>
        <time>2025-06-16T12:00:43Z</time>
      </trkpt>
      <trkpt lat="45.84401" lon="1.22812">
        <ele>269.4</ele>
        <time>2025-06-16T12:00:44Z</time>
      </trkpt>
      <trkpt lat="45.84403" lon="1.22815">
        <ele>269.8</ele>
        <time>2025-06-16T12:00:45Z</time>
      </trkpt>
      <trkpt lat="45.84403" lon="1.22817">
        <ele>270</ele>
        <time>2025-06-16T12:00:46Z</time>
      </trkpt>
      <trkpt lat="45.84404" lon="1.22819">
        <ele>270.2</ele>
        <time>2025-06-16T12:00:47Z</time>
      </trkpt>
      <trkpt lat="45.84404" lon="1.22821">
        <ele>270.4</ele>
        <time>2025-06-16T12:00:48Z</time>
      </trkpt>
      <trkpt lat="45.84405" lon="1.22824">
        <ele>270.7</ele>
        <time>2025-06-16T12:00:49Z</time>
      </trkpt>
      <trkpt lat="45.84406" lon="1.22825">
        <ele>270.8</ele>
        <time>2025-06-16T12:00:50Z</time>
      </trkpt>
      <trkpt lat="45.84406" lon="1.22826">
        <ele>271</ele>
        <time>2025-06-16T12:00:51Z</time>
      </trkpt>
      <trkpt lat="45.84407" lon="1.22828">
        <ele>271.1</ele>
        <time>2025-06-16T12:00:52Z</time>
      </trkpt>
      <trkpt lat="45.84407" lon="1.22829">
        <ele>271.3</ele>
        <time>2025-06-16T12:00:53Z</time>
      </trkpt>
      <trkpt lat="45.84408" lon="1.22831">
        <ele>271.4</ele>
        <time>2025-06-16T12:00:54Z</time>
      </trkpt>
      <trkpt lat="45.84409" lon="1.22832">
        <ele>271.7</ele>
        <time>2025-06-16T12:00:55Z</time>
      </trkpt>
      <trkpt lat="45.8441" lon="1.22834">
        <ele>271.9</ele>
        <time>2025-06-16T12:00:56Z</time>
      </trkpt>
      <trkpt lat="45.84411" lon="1.22836">
        <ele>272.1</ele>
        <time>2025-06-16T12:00:57Z</time>
      </trkpt>
      <trkpt lat="45.84412" lon="1.22837">
        <ele>272.3</ele>
        <time>2025-06-16T12:00:58Z</time>
      </trkpt>
      <trkpt lat="45.84413" lon="1.22841">
        <ele>272.6</ele>
        <time>2025-06-16T12:00:59Z</time>
      </trkpt>
      <trkpt lat="45.84413" lon="1.22842">
        <ele>272.8</ele>
        <time>2025-06-16T12:01:00Z</time>
      </trkpt>
      <trkpt lat="45.84414" lon="1.22846">
        <ele>273.2</ele>
        <time>2025-06-16T12:01:01Z</time>
      </trkpt>
      <trkpt lat="45.84415" lon="1.22848">
        <ele>273.3</ele>
        <time>2025-06-16T12:01:02Z</time>
      </trkpt>
      <trkpt lat="45.84416" lon="1.22851">
        <ele>273.7</ele>
        <time>2025-06-16T12:01:03Z</time>
      </trkpt>
      <trkpt lat="45.84416" lon="1.22853">
        <ele>273.8</ele>
        <time>2025-06-16T12:01:04Z</time>
      </trkpt>
      <trkpt lat="45.84417" lon="1.22855">
        <ele>274</ele>
        <time>2025-06-16T12:01:05Z</time>
      </trkpt>
      <trkpt lat="45.84418" lon="1.22857">
        <ele>274.2</ele>
        <time>2025-06-16T12:01:06Z</time>
      </trkpt>
      <trkpt lat="45.84418" lon="1.22859">
        <ele>274.5</ele>
        <time>2025-06-16T12:01:07Z</time>
      </trkpt>
      <trkpt lat="45.84419" lon="1.22861">
        <ele>274.7</ele>
        <time>2025-06-16T12:01:08Z</time>
      </trkpt>
      <trkpt lat="45.84419" lon="1.22864">
        <ele>274.9</ele>
        <time>2025-06-16T12:01:09Z</time>
      </trkpt>
      <trkpt lat="45.84419" lon="1.22866">
        <ele>275.1</ele>
        <time>2025-06-16T12:01:10Z</time>
      </trkpt>
      <trkpt lat="45.84419" lon="1.22868">
        <ele>275.3</ele>
        <time>2025-06-16T12:01:11Z</time>
      </trkpt>
      <trkpt lat="45.84418" lon="1.22871">
        <ele>275.5</ele>
        <time>2025-06-16T12:01:12Z</time>
      </trkpt>
      <trkpt lat="45.84418" lon="1.22873">
        <ele>275.7</ele>
        <time>2025-06-16T12:01:13Z</time>
      </trkpt>
      <trkpt lat="45.84417" lon="1.22875">
        <ele>275.9</ele>
        <time>2025-06-16T12:01:14Z</time>
      </trkpt>
      <trkpt lat="45.84417" lon="1.22877">
        <ele>276.1</ele>
        <time>2025-06-16T12:01:15Z</time>
      </trkpt>
      <trkpt lat="45.84416" lon="1.22879">
        <ele>276.3</ele>
        <time>2025-06-16T12:01:16Z</time>
      </trkpt>
      <trkpt lat="45.84416" lon="1.22881">
        <ele>276.6</ele>
        <time>2025-06-16T12:01:17Z</time>
      </trkpt>
      <trkpt lat="45.84415" lon="1.22883">
        <ele>276.8</ele>
        <time>2025-06-16T12:01:18Z</time>
      </trkpt>
      <trkpt lat="45.84414" lon="1.22885">
        <ele>277</ele>
        <time>2025-06-16T12:01:19Z</time>
      </trkpt>
      <trkpt lat="45.84413" lon="1.22887">
        <ele>277.2</ele>
        <time>2025-06-16T12:01:20Z</time>
      </trkpt>
      <trkpt lat="45.84412" lon="1.22888">
        <ele>277.4</ele>
        <time>2025-06-16T12:01:21Z</time>
      </trkpt>
      <trkpt lat="45.84411" lon="1.2289">
        <ele>277.5</ele>
        <time>2025-06-16T12:01:22Z</time>
      </trkpt>
      <trkpt lat="45.84412" lon="1.22893">
        <ele>277.8</ele>
        <time>2025-06-16T12:01:23Z</time>
      </trkpt>
      <trkpt lat="45.84413" lon="1.22895">
        <ele>277.9</ele>
        <time>2025-06-16T12:01:24Z</time>
      </trkpt>
      <trkpt lat="45.84413" lon="1.22896">
        <ele>278.1</ele>
        <time>2025-06-16T12:01:25Z</time>
      </trkpt>
      <trkpt lat="45.84415" lon="1.22899">
        <ele>278.4</ele>
        <time>2025-06-16T12:01:26Z</time>
      </trkpt>
      <trkpt lat="45.84415" lon="1.229">
        <ele>278.5</ele>
        <time>2025-06-16T12:01:27Z</time>
      </trkpt>
      <trkpt lat="45.84418" lon="1.22903">
        <ele>278.8</ele>
        <time>2025-06-16T12:01:28Z</time>
      </trkpt>
      <trkpt lat="45.84419" lon="1.22904">
        <ele>278.9</ele>
        <time>2025-06-16T12:01:29Z</time>
      </trkpt>
      <trkpt lat="45.84421" lon="1.22906">
        <ele>279.1</ele>
        <time>2025-06-16T12:01:30Z</time>
      </trkpt>
      <trkpt lat="45.84421" lon="1.22907">
        <ele>279.2</ele>
        <time>2025-06-16T12:01:31Z</time>
      </trkpt>
      <trkpt lat="45.84423" lon="1.22911">
        <ele>279.5</ele>
        <time>2025-06-16T12:01:32Z</time>
      </trkpt>
      <trkpt lat="45.84424" lon="1.22912">
        <ele>279.6</ele>
        <time>2025-06-16T12:01:33Z</time>
      </trkpt>
      <trkpt lat="45.84427" lon="1.22917">
        <ele>279.9</ele>
        <time>2025-06-16T12:01:34Z</time>
      </trkpt>
      <trkpt lat="45.84428" lon="1.22918">
        <ele>280</ele>
        <time>2025-06-16T12:01:35Z</time>
      </trkpt>
      <trkpt lat="45.8443" lon="1.22921">
        <ele>280.2</ele>
        <time>2025-06-16T12:01:36Z</time>
      </trkpt>
      <trkpt lat="45.84432" lon="1.22925">
        <ele>280.6</ele>
        <time>2025-06-16T12:01:37Z</time>
      </trkpt>
      <trkpt lat="45.84433" lon="1.22927">
        <ele>280.7</ele>
        <time>2025-06-16T12:01:38Z</time>
      </trkpt>
      <trkpt lat="45.84434" lon="1.22931">
        <ele>281</ele>
        <time>2025-06-16T12:01:39Z</time>
      </trkpt>
      <trkpt lat="45.84434" lon="1.22933">
        <ele>281.1</ele>
        <time>2025-06-16T12:01:40Z</time>
      </trkpt>
      <trkpt lat="45.84435" lon="1.22939">
        <ele>282.1</ele>
        <time>2025-06-16T12:01:41Z</time>
      </trkpt>
      <trkpt lat="45.84435" lon="1.22941">
        <ele>282.2</ele>
        <time>2025-06-16T12:01:42Z</time>
      </trkpt>
      <trkpt lat="45.84437" lon="1.22944">
        <ele>282.3</ele>
        <time>2025-06-16T12:01:43Z</time>
      </trkpt>
      <trkpt lat="45.8444" lon="1.22947">
        <ele>282.4</ele>
        <time>2025-06-16T12:01:44Z</time>
      </trkpt>
      <trkpt lat="45.84443" lon="1.22951">
        <ele>282.5</ele>
        <time>2025-06-16T12:01:45Z</time>
      </trkpt>
      <trkpt lat="45.84444" lon="1.22952">
        <ele>282.5</ele>
        <time>2025-06-16T12:01:46Z</time>
      </trkpt>
      <trkpt lat="45.84446" lon="1.22955">
        <ele>282.6</ele>
        <time>2025-06-16T12:01:47Z</time>
      </trkpt>
      <trkpt lat="45.84449" lon="1.22958">
        <ele>282.8</ele>
        <time>2025-06-16T12:01:48Z</time>
      </trkpt>
      <trkpt lat="45.8445" lon="1.2296">
        <ele>282.8</ele>
        <time>2025-06-16T12:01:49Z</time>
      </trkpt>
      <trkpt lat="45.84452" lon="1.22964">
        <ele>282.9</ele>
        <time>2025-06-16T12:01:50Z</time>
      </trkpt>
      <trkpt lat="45.84453" lon="1.22965">
        <ele>283</ele>
        <time>2025-06-16T12:01:51Z</time>
      </trkpt>
      <trkpt lat="45.84456" lon="1.2297">
        <ele>283.1</ele>
        <time>2025-06-16T12:01:52Z</time>
      </trkpt>
      <trkpt lat="45.84456" lon="1.22971">
        <ele>283.1</ele>
        <time>2025-06-16T12:01:53Z</time>
      </trkpt>
      <trkpt lat="45.84458" lon="1.22976">
        <ele>283.2</ele>
        <time>2025-06-16T12:01:54Z</time>
      </trkpt>
      <trkpt lat="45.84459" lon="1.22977">
        <ele>283.2</ele>
        <time>2025-06-16T12:01:55Z</time>
      </trkpt>
      <trkpt lat="45.84459" lon="1.22979">
        <ele>283.3</ele>
        <time>2025-06-16T12:01:56Z</time>
      </trkpt>
      <trkpt lat="45.8446" lon="1.22982">
        <ele>283.3</ele>
        <time>2025-06-16T12:01:57Z</time>
      </trkpt>
      <trkpt lat="45.84462" lon="1.22986">
        <ele>283.4</ele>
        <time>2025-06-16T12:01:58Z</time>
      </trkpt>
      <trkpt lat="45.84462" lon="1.22987">
        <ele>283.5</ele>
        <time>2025-06-16T12:01:59Z</time>
      </trkpt>
      <trkpt lat="45.84464" lon="1.22992">
        <ele>283.6</ele>
        <time>2025-06-16T12:02:00Z</time>
      </trkpt>
      <trkpt lat="45.84465" lon="1.22993">
        <ele>283.6</ele>
        <time>2025-06-16T12:02:01Z</time>
      </trkpt>
      <trkpt lat="45.84466" lon="1.22994">
        <ele>283.7</ele>
        <time>2025-06-16T12:02:02Z</time>
      </trkpt>
      <trkpt lat="45.84467" lon="1.22995">
        <ele>283.7</ele>
        <time>2025-06-16T12:02:03Z</time>
      </trkpt>
      <trkpt lat="45.84467" lon="1.22995">
        <ele>283.7</ele>
        <time>2025-06-16T12:02:04Z</time>
      </trkpt>
      <trkpt lat="45.84468" lon="1.22995">
        <ele>283.8</ele>
        <time>2025-06-16T12:02:05Z</time>
      </trkpt>
      <trkpt lat="45.84471" lon="1.22997">
        <ele>283.9</ele>
        <time>2025-06-16T12:02:06Z</time>
      </trkpt>
      <trkpt lat="45.84472" lon="1.22997">
        <ele>284</ele>
        <time>2025-06-16T12:02:07Z</time>
      </trkpt>
      <trkpt lat="45.84475" lon="1.23">
        <ele>284.1</ele>
        <time>2025-06-16T12:02:08Z</time>
      </trkpt>
      <trkpt lat="45.84477" lon="1.23004">
        <ele>284.2</ele>
        <time>2025-06-16T12:02:09Z</time>
      </trkpt>
      <trkpt lat="45.84478" lon="1.23006">
        <ele>284.2</ele>
        <time>2025-06-16T12:02:10Z</time>
      </trkpt>
      <trkpt lat="45.8448" lon="1.2301">
        <ele>284.4</ele>
        <time>2025-06-16T12:02:11Z</time>
      </trkpt>
      <trkpt lat="45.84481" lon="1.23014">
        <ele>284.5</ele>
        <time>2025-06-16T12:02:12Z</time>
      </trkpt>
      <trkpt lat="45.84482" lon="1.23019">
        <ele>284.6</ele>
        <time>2025-06-16T12:02:13Z</time>
      </trkpt>
      <trkpt lat="45.84483" lon="1.2302">
        <ele>284.6</ele>
        <time>2025-06-16T12:02:14Z</time>
      </trkpt>
      <trkpt lat="45.84483" lon="1.23024">
        <ele>284.8</ele>
        <time>2025-06-16T12:02:15Z</time>
      </trkpt>
      <trkpt lat="45.84483" lon="1.23025">
        <ele>284.8</ele>
        <time>2025-06-16T12:02:16Z</time>
      </trkpt>
      <trkpt lat="45.84482" lon="1.23034">
        <ele>285</ele>
        <time>2025-06-16T12:02:17Z</time>
      </trkpt>
      <trkpt lat="45.84482" lon="1.23039">
        <ele>285.1</ele>
        <time>2025-06-16T12:02:19Z</time>
      </trkpt>
      <trkpt lat="45.84481" lon="1.23043">
        <ele>285.2</ele>
        <time>2025-06-16T12:02:20Z</time>
      </trkpt>
      <trkpt lat="45.8448" lon="1.23048">
        <ele>285.3</ele>
        <time>2025-06-16T12:02:21Z</time>
      </trkpt>
      <trkpt lat="45.84479" lon="1.23052">
        <ele>285.4</ele>
        <time>2025-06-16T12:02:22Z</time>
      </trkpt>
      <trkpt lat="45.84478" lon="1.23056">
        <ele>285.5</ele>
        <time>2025-06-16T12:02:23Z</time>
      </trkpt>
      <trkpt lat="45.84477" lon="1.23061">
        <ele>285.6</ele>
        <time>2025-06-16T12:02:24Z</time>
      </trkpt>
      <trkpt lat="45.84476" lon="1.23063">
        <ele>285.7</ele>
        <time>2025-06-16T12:02:25Z</time>
      </trkpt>
      <trkpt lat="45.84476" lon="1.23069">
        <ele>285.8</ele>
        <time>2025-06-16T12:02:26Z</time>
      </trkpt>
      <trkpt lat="45.84476" lon="1.23071">
        <ele>285.9</ele>
        <time>2025-06-16T12:02:27Z</time>
      </trkpt>
      <trkpt lat="45.84477" lon="1.23076">
        <ele>286</ele>
        <time>2025-06-16T12:02:28Z</time>
      </trkpt>
      <trkpt lat="45.84478" lon="1.2308">
        <ele>286.2</ele>
        <time>2025-06-16T12:02:29Z</time>
      </trkpt>
      <trkpt lat="45.84479" lon="1.23084">
        <ele>286.3</ele>
        <time>2025-06-16T12:02:30Z</time>
      </trkpt>
      <trkpt lat="45.84481" lon="1.23088">
        <ele>286.3</ele>
        <time>2025-06-16T12:02:31Z</time>
      </trkpt>
      <trkpt lat="45.84484" lon="1.2309">
        <ele>286.4</ele>
        <time>2025-06-16T12:02:32Z</time>
      </trkpt>
      <trkpt lat="45.84487" lon="1.23092">
        <ele>286.5</ele>
        <time>2025-06-16T12:02:33Z</time>
      </trkpt>
      <trkpt lat="45.8449" lon="1.23094">
        <ele>286.5</ele>
        <time>2025-06-16T12:02:34Z</time>
      </trkpt>
      <trkpt lat="45.84493" lon="1.23096">
        <ele>286.6</ele>
        <time>2025-06-16T12:02:35Z</time>
      </trkpt>
      <trkpt lat="45.84495" lon="1.23098">
        <ele>286.6</ele>
        <time>2025-06-16T12:02:36Z</time>
      </trkpt>
      <trkpt lat="45.84498" lon="1.23101">
        <ele>286.7</ele>
        <time>2025-06-16T12:02:37Z</time>
      </trkpt>
      <trkpt lat="45.84501" lon="1.23103">
        <ele>286.8</ele>
        <time>2025-06-16T12:02:38Z</time>
      </trkpt>
      <trkpt lat="45.84504" lon="1.23106">
        <ele>286.8</ele>
        <time>2025-06-16T12:02:39Z</time>
      </trkpt>
      <trkpt lat="45.84507" lon="1.23108">
        <ele>286.9</ele>
        <time>2025-06-16T12:02:40Z</time>
      </trkpt>
      <trkpt lat="45.8451" lon="1.23111">
        <ele>287</ele>
        <time>2025-06-16T12:02:41Z</time>
      </trkpt>
      <trkpt lat="45.84513" lon="1.23114">
        <ele>287</ele>
        <time>2025-06-16T12:02:42Z</time>
      </trkpt>
      <trkpt lat="45.84515" lon="1.23117">
        <ele>287.1</ele>
        <time>2025-06-16T12:02:43Z</time>
      </trkpt>
      <trkpt lat="45.84518" lon="1.23119">
        <ele>287.2</ele>
        <time>2025-06-16T12:02:44Z</time>
      </trkpt>
      <trkpt lat="45.84521" lon="1.23122">
        <ele>287.3</ele>
        <time>2025-06-16T12:02:45Z</time>
      </trkpt>
      <trkpt lat="45.84523" lon="1.23124">
        <ele>287.4</ele>
        <time>2025-06-16T12:02:46Z</time>
      </trkpt>
      <trkpt lat="45.84526" lon="1.23127">
        <ele>287.4</ele>
        <time>2025-06-16T12:02:47Z</time>
      </trkpt>
      <trkpt lat="45.84529" lon="1.23129">
        <ele>287.5</ele>
        <time>2025-06-16T12:02:48Z</time>
      </trkpt>
      <trkpt lat="45.84532" lon="1.23132">
        <ele>287.6</ele>
        <time>2025-06-16T12:02:49Z</time>
      </trkpt>
      <trkpt lat="45.84534" lon="1.23135">
        <ele>287.7</ele>
        <time>2025-06-16T12:02:50Z</time>
      </trkpt>
      <trkpt lat="45.84537" lon="1.23138">
        <ele>287.8</ele>
        <time>2025-06-16T12:02:51Z</time>
      </trkpt>
      <trkpt lat="45.84543" lon="1.23143">
        <ele>287.9</ele>
        <time>2025-06-16T12:02:52Z</time>
      </trkpt>
      <trkpt lat="45.84545" lon="1.23147">
        <ele>288</ele>
        <time>2025-06-16T12:02:54Z</time>
      </trkpt>
      <trkpt lat="45.84547" lon="1.2315">
        <ele>288.1</ele>
        <time>2025-06-16T12:02:55Z</time>
      </trkpt>
      <trkpt lat="45.8455" lon="1.23153">
        <ele>288.2</ele>
        <time>2025-06-16T12:02:56Z</time>
      </trkpt>
      <trkpt lat="45.84553" lon="1.23155">
        <ele>288.3</ele>
        <time>2025-06-16T12:02:57Z</time>
      </trkpt>
      <trkpt lat="45.84556" lon="1.23159">
        <ele>288.4</ele>
        <time>2025-06-16T12:02:58Z</time>
      </trkpt>
      <trkpt lat="45.84559" lon="1.23162">
        <ele>288.5</ele>
        <time>2025-06-16T12:02:59Z</time>
      </trkpt>
      <trkpt lat="45.84561" lon="1.23165">
        <ele>288.5</ele>
        <time>2025-06-16T12:03:00Z</time>
      </trkpt>
      <trkpt lat="45.84564" lon="1.23169">
        <ele>288.6</ele>
        <time>2025-06-16T12:03:01Z</time>
      </trkpt>
      <trkpt lat="45.84567" lon="1.23174">
        <ele>288.7</ele>
        <time>2025-06-16T12:03:02Z</time>
      </trkpt>
      <trkpt lat="45.84569" lon="1.23178">
        <ele>288.8</ele>
        <time>2025-06-16T12:03:03Z</time>
      </trkpt>
      <trkpt lat="45.84571" lon="1.23183">
        <ele>288.9</ele>
        <time>2025-06-16T12:03:04Z</time>
      </trkpt>
      <trkpt lat="45.84573" lon="1.23187">
        <ele>289</ele>
        <time>2025-06-16T12:03:05Z</time>
      </trkpt>
      <trkpt lat="45.84575" lon="1.23191">
        <ele>289.1</ele>
        <time>2025-06-16T12:03:06Z</time>
      </trkpt>
      <trkpt lat="45.84578" lon="1.23195">
        <ele>289.2</ele>
        <time>2025-06-16T12:03:07Z</time>
      </trkpt>
      <trkpt lat="45.84581" lon="1.23199">
        <ele>289.3</ele>
        <time>2025-06-16T12:03:08Z</time>
      </trkpt>
      <trkpt lat="45.84583" lon="1.23203">
        <ele>289.4</ele>
        <time>2025-06-16T12:03:09Z</time>
      </trkpt>
      <trkpt lat="45.84586" lon="1.23206">
        <ele>289.5</ele>
        <time>2025-06-16T12:03:10Z</time>
      </trkpt>
      <trkpt lat="45.84588" lon="1.2321">
        <ele>289.6</ele>
        <time>2025-06-16T12:03:11Z</time>
      </trkpt>
      <trkpt lat="45.84591" lon="1.23213">
        <ele>289.7</ele>
        <time>2025-06-16T12:03:12Z</time>
      </trkpt>
      <trkpt lat="45.84593" lon="1.23217">
        <ele>289.8</ele>
        <time>2025-06-16T12:03:13Z</time>
      </trkpt>
      <trkpt lat="45.84596" lon="1.23221">
        <ele>289.9</ele>
        <time>2025-06-16T12:03:14Z</time>
      </trkpt>
      <trkpt lat="45.84597" lon="1.23225">
        <ele>290</ele>
        <time>2025-06-16T12:03:15Z</time>
      </trkpt>
      <trkpt lat="45.84599" lon="1.23228">
        <ele>290.1</ele>
        <time>2025-06-16T12:03:16Z</time>
      </trkpt>
      <trkpt lat="45.84601" lon="1.23232">
        <ele>290.1</ele>
        <time>2025-06-16T12:03:17Z</time>
      </trkpt>
      <trkpt lat="45.84604" lon="1.23237">
        <ele>290.2</ele>
        <time>2025-06-16T12:03:18Z</time>
      </trkpt>
      <trkpt lat="45.84605" lon="1.23237">
        <ele>290.2</ele>
        <time>2025-06-16T12:03:19Z</time>
      </trkpt>
      <trkpt lat="45.84605" lon="1.23239">
        <ele>290.3</ele>
        <time>2025-06-16T12:03:21Z</time>
      </trkpt>
      <trkpt lat="45.84605" lon="1.2324">
        <ele>290.3</ele>
        <time>2025-06-16T12:03:22Z</time>
      </trkpt>
      <trkpt lat="45.84606" lon="1.23242">
        <ele>290.3</ele>
        <time>2025-06-16T12:03:23Z</time>
      </trkpt>
      <trkpt lat="45.84606" lon="1.23246">
        <ele>290.4</ele>
        <time>2025-06-16T12:03:24Z</time>
      </trkpt>
      <trkpt lat="45.84606" lon="1.23248">
        <ele>290.4</ele>
        <time>2025-06-16T12:03:25Z</time>
      </trkpt>
      <trkpt lat="45.84607" lon="1.23253">
        <ele>290.5</ele>
        <time>2025-06-16T12:03:26Z</time>
      </trkpt>
      <trkpt lat="45.84609" lon="1.23258">
        <ele>290.6</ele>
        <time>2025-06-16T12:03:27Z</time>
      </trkpt>
      <trkpt lat="45.84611" lon="1.23263">
        <ele>290.7</ele>
        <time>2025-06-16T12:03:28Z</time>
      </trkpt>
      <trkpt lat="45.84612" lon="1.23268">
        <ele>290.8</ele>
        <time>2025-06-16T12:03:29Z</time>
      </trkpt>
      <trkpt lat="45.84614" lon="1.23272">
        <ele>290.9</ele>
        <time>2025-06-16T12:03:30Z</time>
      </trkpt>
      <trkpt lat="45.84617" lon="1.23277">
        <ele>291</ele>
        <time>2025-06-16T12:03:31Z</time>
      </trkpt>
      <trkpt lat="45.84619" lon="1.23281">
        <ele>291.1</ele>
        <time>2025-06-16T12:03:32Z</time>
      </trkpt>
      <trkpt lat="45.84622" lon="1.23286">
        <ele>291.2</ele>
        <time>2025-06-16T12:03:33Z</time>
      </trkpt>
      <trkpt lat="45.84624" lon="1.2329">
        <ele>291.3</ele>
        <time>2025-06-16T12:03:34Z</time>
      </trkpt>
      <trkpt lat="45.84626" lon="1.23294">
        <ele>291.3</ele>
        <time>2025-06-16T12:03:35Z</time>
      </trkpt>
      <trkpt lat="45.84628" lon="1.23298">
        <ele>291.4</ele>
        <time>2025-06-16T12:03:36Z</time>
      </trkpt>
      <trkpt lat="45.8463" lon="1.23302">
        <ele>291.5</ele>
        <time>2025-06-16T12:03:37Z</time>
      </trkpt>
      <trkpt lat="45.84633" lon="1.23306">
        <ele>291.6</ele>
        <time>2025-06-16T12:03:38Z</time>
      </trkpt>
      <trkpt lat="45.84635" lon="1.2331">
        <ele>291.7</ele>
        <time>2025-06-16T12:03:39Z</time>
      </trkpt>
      <trkpt lat="45.84637" lon="1.23314">
        <ele>291.7</ele>
        <time>2025-06-16T12:03:40Z</time>
      </trkpt>
      <trkpt lat="45.8464" lon="1.23315">
        <ele>291.8</ele>
        <time>2025-06-16T12:03:41Z</time>
      </trkpt>
      <trkpt lat="45.84644" lon="1.23316">
        <ele>291.9</ele>
        <time>2025-06-16T12:03:42Z</time>
      </trkpt>
      <trkpt lat="45.84645" lon="1.23316">
        <ele>291.9</ele>
        <time>2025-06-16T12:03:43Z</time>
      </trkpt>
      <trkpt lat="45.84647" lon="1.23316">
        <ele>292</ele>
        <time>2025-06-16T12:03:44Z</time>
      </trkpt>
      <trkpt lat="45.8465" lon="1.23316">
        <ele>292</ele>
        <time>2025-06-16T12:03:45Z</time>
      </trkpt>
      <trkpt lat="45.84651" lon="1.23318">
        <ele>291.9</ele>
        <time>2025-06-16T12:03:47Z</time>
      </trkpt>
      <trkpt lat="45.84652" lon="1.23322">
        <ele>291.6</ele>
        <time>2025-06-16T12:03:48Z</time>
      </trkpt>
      <trkpt lat="45.84655" lon="1.23323">
        <ele>291.4</ele>
        <time>2025-06-16T12:03:49Z</time>
      </trkpt>
      <trkpt lat="45.84657" lon="1.23322">
        <ele>291.3</ele>
        <time>2025-06-16T12:03:51Z</time>
      </trkpt>
      <trkpt lat="45.84658" lon="1.23321">
        <ele>291.1</ele>
        <time>2025-06-16T12:03:52Z</time>
      </trkpt>
      <trkpt lat="45.84659" lon="1.23321">
        <ele>291</ele>
        <time>2025-06-16T12:03:53Z</time>
      </trkpt>
      <trkpt lat="45.84662" lon="1.23319">
        <ele>290.8</ele>
        <time>2025-06-16T12:03:54Z</time>
      </trkpt>
      <trkpt lat="45.84665" lon="1.23318">
        <ele>290.5</ele>
        <time>2025-06-16T12:03:55Z</time>
      </trkpt>
      <trkpt lat="45.84669" lon="1.23316">
        <ele>290.2</ele>
        <time>2025-06-16T12:03:56Z</time>
      </trkpt>
      <trkpt lat="45.84672" lon="1.23315">
        <ele>289.9</ele>
        <time>2025-06-16T12:03:57Z</time>
      </trkpt>
      <trkpt lat="45.84675" lon="1.23314">
        <ele>289.7</ele>
        <time>2025-06-16T12:03:58Z</time>
      </trkpt>
      <trkpt lat="45.84679" lon="1.23314">
        <ele>289.5</ele>
        <time>2025-06-16T12:03:59Z</time>
      </trkpt>
      <trkpt lat="45.8468" lon="1.23313">
        <ele>289.4</ele>
        <time>2025-06-16T12:04:00Z</time>
      </trkpt>
      <trkpt lat="45.84682" lon="1.23311">
        <ele>289.2</ele>
        <time>2025-06-16T12:04:01Z</time>
      </trkpt>
      <trkpt lat="45.84685" lon="1.23308">
        <ele>289</ele>
        <time>2025-06-16T12:04:02Z</time>
      </trkpt>
      <trkpt lat="45.84685" lon="1.23307">
        <ele>288.9</ele>
        <time>2025-06-16T12:04:03Z</time>
      </trkpt>
      <trkpt lat="45.84689" lon="1.23307">
        <ele>288.7</ele>
        <time>2025-06-16T12:04:04Z</time>
      </trkpt>
      <trkpt lat="45.8469" lon="1.23307">
        <ele>288.7</ele>
        <time>2025-06-16T12:04:05Z</time>
      </trkpt>
      <trkpt lat="45.84693" lon="1.23308">
        <ele>288.5</ele>
        <time>2025-06-16T12:04:06Z</time>
      </trkpt>
      <trkpt lat="45.84696" lon="1.23308">
        <ele>288.3</ele>
        <time>2025-06-16T12:04:07Z</time>
      </trkpt>
      <trkpt lat="45.84697" lon="1.23308">
        <ele>288.2</ele>
        <time>2025-06-16T12:04:08Z</time>
      </trkpt>
      <trkpt lat="45.84701" lon="1.23309">
        <ele>287.9</ele>
        <time>2025-06-16T12:04:09Z</time>
      </trkpt>
      <trkpt lat="45.84703" lon="1.23309">
        <ele>287.7</ele>
        <time>2025-06-16T12:04:10Z</time>
      </trkpt>
      <trkpt lat="45.84713" lon="1.23309">
        <ele>286.5</ele>
        <time>2025-06-16T12:04:11Z</time>
      </trkpt>
      <trkpt lat="45.84721" lon="1.2331">
        <ele>285.4</ele>
        <time>2025-06-16T12:04:12Z</time>
      </trkpt>
      <trkpt lat="45.8473" lon="1.23314">
        <ele>284.3</ele>
        <time>2025-06-16T12:04:13Z</time>
      </trkpt>
      <trkpt lat="45.84737" lon="1.23318">
        <ele>283.7</ele>
        <time>2025-06-16T12:04:14Z</time>
      </trkpt>
      <trkpt lat="45.84742" lon="1.23322">
        <ele>283.1</ele>
        <time>2025-06-16T12:04:15Z</time>
      </trkpt>
      <trkpt lat="45.84748" lon="1.23327">
        <ele>282.6</ele>
        <time>2025-06-16T12:04:16Z</time>
      </trkpt>
      <trkpt lat="45.84753" lon="1.23332">
        <ele>282.2</ele>
        <time>2025-06-16T12:04:17Z</time>
      </trkpt>
      <trkpt lat="45.84758" lon="1.23337">
        <ele>281.8</ele>
        <time>2025-06-16T12:04:18Z</time>
      </trkpt>
      <trkpt lat="45.84762" lon="1.23341">
        <ele>281.5</ele>
        <time>2025-06-16T12:04:19Z</time>
      </trkpt>
      <trkpt lat="45.84766" lon="1.23345">
        <ele>281.3</ele>
        <time>2025-06-16T12:04:20Z</time>
      </trkpt>
      <trkpt lat="45.84769" lon="1.23349">
        <ele>281</ele>
        <time>2025-06-16T12:04:21Z</time>
      </trkpt>
      <trkpt lat="45.84774" lon="1.23354">
        <ele>280.6</ele>
        <time>2025-06-16T12:04:22Z</time>
      </trkpt>
      <trkpt lat="45.84778" lon="1.23361">
        <ele>280.2</ele>
        <time>2025-06-16T12:04:23Z</time>
      </trkpt>
      <trkpt lat="45.84781" lon="1.23367">
        <ele>279.7</ele>
        <time>2025-06-16T12:04:24Z</time>
      </trkpt>
      <trkpt lat="45.84785" lon="1.23372">
        <ele>279.3</ele>
        <time>2025-06-16T12:04:25Z</time>
      </trkpt>
      <trkpt lat="45.84789" lon="1.23377">
        <ele>278.8</ele>
        <time>2025-06-16T12:04:26Z</time>
      </trkpt>
      <trkpt lat="45.84793" lon="1.23381">
        <ele>278.4</ele>
        <time>2025-06-16T12:04:27Z</time>
      </trkpt>
      <trkpt lat="45.84796" lon="1.23386">
        <ele>278</ele>
        <time>2025-06-16T12:04:28Z</time>
      </trkpt>
      <trkpt lat="45.84799" lon="1.23394">
        <ele>277.4</ele>
        <time>2025-06-16T12:04:29Z</time>
      </trkpt>
      <trkpt lat="45.84803" lon="1.234">
        <ele>276.9</ele>
        <time>2025-06-16T12:04:30Z</time>
      </trkpt>
      <trkpt lat="45.84806" lon="1.23406">
        <ele>276.4</ele>
        <time>2025-06-16T12:04:31Z</time>
      </trkpt>
      <trkpt lat="45.84808" lon="1.23412">
        <ele>275.9</ele>
        <time>2025-06-16T12:04:32Z</time>
      </trkpt>
      <trkpt lat="45.84811" lon="1.23417">
        <ele>275.4</ele>
        <time>2025-06-16T12:04:33Z</time>
      </trkpt>
      <trkpt lat="45.84814" lon="1.23422">
        <ele>275</ele>
        <time>2025-06-16T12:04:34Z</time>
      </trkpt>
      <trkpt lat="45.84816" lon="1.23427">
        <ele>274.7</ele>
        <time>2025-06-16T12:04:35Z</time>
      </trkpt>
      <trkpt lat="45.84818" lon="1.23431">
        <ele>274.3</ele>
        <time>2025-06-16T12:04:36Z</time>
      </trkpt>
      <trkpt lat="45.84819" lon="1.23432">
        <ele>274.2</ele>
        <time>2025-06-16T12:04:37Z</time>
      </trkpt>
      <trkpt lat="45.8482" lon="1.23434">
        <ele>274.1</ele>
        <time>2025-06-16T12:04:38Z</time>
      </trkpt>
      <trkpt lat="45.8482" lon="1.23435">
        <ele>274</ele>
        <time>2025-06-16T12:04:39Z</time>
      </trkpt>
      <trkpt lat="45.8482" lon="1.23436">
        <ele>274</ele>
        <time>2025-06-16T12:04:40Z</time>
      </trkpt>
      <trkpt lat="45.8482" lon="1.23436">
        <ele>273.9</ele>
        <time>2025-06-16T12:04:41Z</time>
      </trkpt>
      <trkpt lat="45.84821" lon="1.23436">
        <ele>273.8</ele>
        <time>2025-06-16T12:04:42Z</time>
      </trkpt>
      <trkpt lat="45.84822" lon="1.23437">
        <ele>273.8</ele>
        <time>2025-06-16T12:04:43Z</time>
      </trkpt>
      <trkpt lat="45.84823" lon="1.23437">
        <ele>273.6</ele>
        <time>2025-06-16T12:04:44Z</time>
      </trkpt>
      <trkpt lat="45.84823" lon="1.23433">
        <ele>273.4</ele>
        <time>2025-06-16T12:04:45Z</time>
      </trkpt>
      <trkpt lat="45.84823" lon="1.2343">
        <ele>273.2</ele>
        <time>2025-06-16T12:04:46Z</time>
      </trkpt>
      <trkpt lat="45.84822" lon="1.23428">
        <ele>273</ele>
        <time>2025-06-16T12:04:47Z</time>
      </trkpt>
      <trkpt lat="45.84821" lon="1.23421">
        <ele>272.5</ele>
        <time>2025-06-16T12:04:48Z</time>
      </trkpt>
      <trkpt lat="45.8482" lon="1.23415">
        <ele>272.1</ele>
        <time>2025-06-16T12:04:49Z</time>
      </trkpt>
      <trkpt lat="45.84818" lon="1.23409">
        <ele>271.7</ele>
        <time>2025-06-16T12:04:50Z</time>
      </trkpt>
      <trkpt lat="45.84817" lon="1.23404">
        <ele>271.3</ele>
        <time>2025-06-16T12:04:51Z</time>
      </trkpt>
      <trkpt lat="45.84816" lon="1.23398">
        <ele>270.9</ele>
        <time>2025-06-16T12:04:52Z</time>
      </trkpt>
      <trkpt lat="45.84816" lon="1.23397">
        <ele>270.8</ele>
        <time>2025-06-16T12:04:53Z</time>
      </trkpt>
      <trkpt lat="45.84814" lon="1.23392">
        <ele>270.4</ele>
        <time>2025-06-16T12:04:54Z</time>
      </trkpt>
      <trkpt lat="45.84812" lon="1.23387">
        <ele>270</ele>
        <time>2025-06-16T12:04:55Z</time>
      </trkpt>
      <trkpt lat="45.84811" lon="1.2338">
        <ele>269.6</ele>
        <time>2025-06-16T12:04:56Z</time>
      </trkpt>
      <trkpt lat="45.84809" lon="1.23374">
        <ele>269.1</ele>
        <time>2025-06-16T12:04:57Z</time>
      </trkpt>
      <trkpt lat="45.84807" lon="1.23368">
        <ele>268.7</ele>
        <time>2025-06-16T12:04:58Z</time>
      </trkpt>
      <trkpt lat="45.84805" lon="1.23362">
        <ele>268.3</ele>
        <time>2025-06-16T12:04:59Z</time>
      </trkpt>
      <trkpt lat="45.84803" lon="1.23356">
        <ele>267.9</ele>
        <time>2025-06-16T12:05:00Z</time>
      </trkpt>
      <trkpt lat="45.84801" lon="1.2335">
        <ele>267.5</ele>
        <time>2025-06-16T12:05:01Z</time>
      </trkpt>
      <trkpt lat="45.84799" lon="1.23344">
        <ele>267.1</ele>
        <time>2025-06-16T12:05:02Z</time>
      </trkpt>
      <trkpt lat="45.84799" lon="1.23339">
        <ele>266.8</ele>
        <time>2025-06-16T12:05:03Z</time>
      </trkpt>
      <trkpt lat="45.84799" lon="1.23335">
        <ele>266.6</ele>
        <time>2025-06-16T12:05:04Z</time>
      </trkpt>
      <trkpt lat="45.84799" lon="1.2333">
        <ele>266.3</ele>
        <time>2025-06-16T12:05:05Z</time>
      </trkpt>
      <trkpt lat="45.84799" lon="1.23327">
        <ele>266.1</ele>
        <time>2025-06-16T12:05:06Z</time>
      </trkpt>
      <trkpt lat="45.84799" lon="1.23323">
        <ele>265.9</ele>
        <time>2025-06-16T12:05:07Z</time>
      </trkpt>
      <trkpt lat="45.848" lon="1.23317">
        <ele>265.6</ele>
        <time>2025-06-16T12:05:08Z</time>
      </trkpt>
      <trkpt lat="45.84799" lon="1.23315">
        <ele>265.6</ele>
        <time>2025-06-16T12:05:09Z</time>
      </trkpt>
      <trkpt lat="45.84798" lon="1.23311">
        <ele>265.4</ele>
        <time>2025-06-16T12:05:10Z</time>
      </trkpt>
      <trkpt lat="45.84796" lon="1.23305">
        <ele>265.2</ele>
        <time>2025-06-16T12:05:11Z</time>
      </trkpt>
      <trkpt lat="45.84793" lon="1.23298">
        <ele>265</ele>
        <time>2025-06-16T12:05:12Z</time>
      </trkpt>
      <trkpt lat="45.84791" lon="1.23292">
        <ele>264.9</ele>
        <time>2025-06-16T12:05:13Z</time>
      </trkpt>
      <trkpt lat="45.84789" lon="1.23286">
        <ele>264.7</ele>
        <time>2025-06-16T12:05:14Z</time>
      </trkpt>
      <trkpt lat="45.84789" lon="1.2328">
        <ele>264.6</ele>
        <time>2025-06-16T12:05:15Z</time>
      </trkpt>
      <trkpt lat="45.84788" lon="1.23273">
        <ele>264.6</ele>
        <time>2025-06-16T12:05:16Z</time>
      </trkpt>
      <trkpt lat="45.84789" lon="1.23268">
        <ele>264.6</ele>
        <time>2025-06-16T12:05:17Z</time>
      </trkpt>
      <trkpt lat="45.84789" lon="1.23264">
        <ele>264.7</ele>
        <time>2025-06-16T12:05:18Z</time>
      </trkpt>
      <trkpt lat="45.8479" lon="1.23259">
        <ele>264.6</ele>
        <time>2025-06-16T12:05:19Z</time>
      </trkpt>
      <trkpt lat="45.8479" lon="1.23257">
        <ele>264.6</ele>
        <time>2025-06-16T12:05:20Z</time>
      </trkpt>
      <trkpt lat="45.84792" lon="1.23252">
        <ele>264.5</ele>
        <time>2025-06-16T12:05:21Z</time>
      </trkpt>
      <trkpt lat="45.84792" lon="1.2325">
        <ele>264.4</ele>
        <time>2025-06-16T12:05:22Z</time>
      </trkpt>
      <trkpt lat="45.84794" lon="1.23247">
        <ele>264.3</ele>
        <time>2025-06-16T12:05:23Z</time>
      </trkpt>
      <trkpt lat="45.84797" lon="1.23245">
        <ele>264.3</ele>
        <time>2025-06-16T12:05:24Z</time>
      </trkpt>
      <trkpt lat="45.848" lon="1.23244">
        <ele>263.9</ele>
        <time>2025-06-16T12:05:25Z</time>
      </trkpt>
      <trkpt lat="45.84803" lon="1.23244">
        <ele>263.9</ele>
        <time>2025-06-16T12:05:26Z</time>
      </trkpt>
      <trkpt lat="45.84803" lon="1.23244">
        <ele>263.9</ele>
        <time>2025-06-16T12:05:27Z</time>
      </trkpt>
      <trkpt lat="45.84805" lon="1.23245">
        <ele>264.1</ele>
        <time>2025-06-16T12:05:28Z</time>
      </trkpt>
      <trkpt lat="45.84806" lon="1.23245">
        <ele>264</ele>
        <time>2025-06-16T12:05:29Z</time>
      </trkpt>
      <trkpt lat="45.84806" lon="1.23245">
        <ele>264</ele>
        <time>2025-06-16T12:05:30Z</time>
      </trkpt>
      <trkpt lat="45.84807" lon="1.23245">
        <ele>264</ele>
        <time>2025-06-16T12:05:31Z</time>
      </trkpt>
      <trkpt lat="45.84808" lon="1.23245">
        <ele>264</ele>
        <time>2025-06-16T12:05:32Z</time>
      </trkpt>
      <trkpt lat="45.84808" lon="1.23245">
        <ele>264</ele>
        <time>2025-06-16T12:05:33Z</time>
      </trkpt>
      <trkpt lat="45.84808" lon="1.23244">
        <ele>264</ele>
        <time>2025-06-16T12:05:34Z</time>
      </trkpt>
      <trkpt lat="45.84808" lon="1.23244">
        <ele>264</ele>
        <time>2025-06-16T12:05:35Z</time>
      </trkpt>
      <trkpt lat="45.84808" lon="1.23244">
        <ele>263.8</ele>
        <time>2025-06-16T12:05:36Z</time>
      </trkpt>
      <trkpt lat="45.84808" lon="1.23244">
        <ele>263.8</ele>
        <time>2025-06-16T12:05:37Z</time>
      </trkpt>
      <trkpt lat="45.84808" lon="1.23244">
        <ele>263.8</ele>
        <time>2025-06-16T12:05:38Z</time>
      </trkpt>
      <trkpt lat="45.84808" lon="1.23244">
        <ele>263.8</ele>
        <time>2025-06-16T12:05:39Z</time>
      </trkpt>
      <trkpt lat="45.84808" lon="1.23244">
        <ele>263.8</ele>
        <time>2025-06-16T12:05:40Z</time>
      </trkpt>
      <trkpt lat="45.84808" lon="1.23244">
        <ele>263.8</ele>
        <time>2025-06-16T12:05:41Z</time>
      </trkpt>
      <trkpt lat="45.84807" lon="1.23244">
        <ele>264</ele>
        <time>2025-06-16T12:05:42Z</time>
      </trkpt>
      <trkpt lat="45.84807" lon="1.23245">
        <ele>264</ele>
        <time>2025-06-16T12:05:43Z</time>
      </trkpt>
      <trkpt lat="45.84807" lon="1.23245">
        <ele>264</ele>
        <time>2025-06-16T12:05:44Z</time>
      </trkpt>
      <trkpt lat="45.84807" lon="1.23245">
        <ele>264</ele>
        <time>2025-06-16T12:05:45Z</time>
      </trkpt>
      <trkpt lat="45.84807" lon="1.23245">
        <ele>264</ele>
        <time>2025-06-16T12:05:46Z</time>
      </trkpt>
      <trkpt lat="45.84807" lon="1.23245">
        <ele>264</ele>
        <time>2025-06-16T12:05:47Z</time>
      </trkpt>
      <trkpt lat="45.84807" lon="1.23245">
        <ele>264</ele>
        <time>2025-06-16T12:05:48Z</time>
      </trkpt>
      <trkpt lat="45.84807" lon="1.23244">
        <ele>264</ele>
        <time>2025-06-16T12:05:49Z</time>
      </trkpt>
      <trkpt lat="45.84808" lon="1.23244">
        <ele>263.8</ele>
        <time>2025-06-16T12:05:50Z</time>
      </trkpt>
      <trkpt lat="45.84808" lon="1.23244">
        <ele>263.8</ele>
        <time>2025-06-16T12:05:51Z</time>
      </trkpt>
      <trkpt lat="45.84808" lon="1.23244">
        <ele>263.8</ele>
        <time>2025-06-16T12:05:52Z</time>
      </trkpt>
      <trkpt lat="45.84808" lon="1.23244">
        <ele>263.8</ele>
        <time>2025-06-16T12:05:53Z</time>
      </trkpt>
      <trkpt lat="45.84808" lon="1.23244">
        <ele>263.8</ele>
        <time>2025-06-16T12:05:54Z</time>
      </trkpt>
      <trkpt lat="45.84808" lon="1.23244">
        <ele>264</ele>
        <time>2025-06-16T12:05:55Z</time>
      </trkpt>
      <trkpt lat="45.84809" lon="1.23244">
        <ele>263.9</ele>
        <time>2025-06-16T12:05:56Z</time>
      </trkpt>
      <trkpt lat="45.84809" lon="1.23244">
        <ele>263.9</ele>
        <time>2025-06-16T12:05:57Z</time>
      </trkpt>
      <trkpt lat="45.84809" lon="1.23244">
        <ele>263.9</ele>
        <time>2025-06-16T12:05:58Z</time>
      </trkpt>
      <trkpt lat="45.84809" lon="1.23244">
        <ele>263.9</ele>
        <time>2025-06-16T12:05:59Z</time>
      </trkpt>
      <trkpt lat="45.84809" lon="1.23244">
        <ele>263.9</ele>
        <time>2025-06-16T12:06:00Z</time>
      </trkpt>
      <trkpt lat="45.84809" lon="1.23244">
        <ele>263.9</ele>
        <time>2025-06-16T12:06:01Z</time>
      </trkpt>
      <trkpt lat="45.84809" lon="1.23244">
        <ele>263.7</ele>
        <time>2025-06-16T12:06:02Z</time>
      </trkpt>
      <trkpt lat="45.84809" lon="1.23244">
        <ele>263.7</ele>
        <time>2025-06-16T12:06:03Z</time>
      </trkpt>
      <trkpt lat="45.84809" lon="1.23244">
        <ele>263.7</ele>
        <time>2025-06-16T12:06:04Z</time>
      </trkpt>
      <trkpt lat="45.84809" lon="1.23244">
        <ele>263.7</ele>
        <time>2025-06-16T12:06:05Z</time>
      </trkpt>
      <trkpt lat="45.84809" lon="1.23244">
        <ele>263.7</ele>
        <time>2025-06-16T12:06:06Z</time>
      </trkpt>
      <trkpt lat="45.84809" lon="1.23244">
        <ele>263.7</ele>
        <time>2025-06-16T12:06:07Z</time>
      </trkpt>
      <trkpt lat="45.84809" lon="1.23244">
        <ele>263.7</ele>
        <time>2025-06-16T12:06:08Z</time>
      </trkpt>
      <trkpt lat="45.84809" lon="1.23244">
        <ele>263.7</ele>
        <time>2025-06-16T12:06:09Z</time>
      </trkpt>
      <trkpt lat="45.84809" lon="1.23244">
        <ele>263.7</ele>
        <time>2025-06-16T12:06:10Z</time>
      </trkpt>
      <trkpt lat="45.84809" lon="1.23244">
        <ele>263.7</ele>
        <time>2025-06-16T12:06:11Z</time>
      </trkpt>
      <trkpt lat="45.84809" lon="1.23244">
        <ele>263.7</ele>
        <time>2025-06-16T12:06:12Z</time>
      </trkpt>
      <trkpt lat="45.84809" lon="1.23244">
        <ele>263.7</ele>
        <time>2025-06-16T12:06:13Z</time>
      </trkpt>
      <trkpt lat="45.84809" lon="1.23243">
        <ele>263.7</ele>
        <time>2025-06-16T12:06:14Z</time>
      </trkpt>
      <trkpt lat="45.84809" lon="1.23243">
        <ele>263.7</ele>
        <time>2025-06-16T12:06:15Z</time>
      </trkpt>
      <trkpt lat="45.84809" lon="1.23243">
        <ele>263.7</ele>
        <time>2025-06-16T12:06:16Z</time>
      </trkpt>
      <trkpt lat="45.84809" lon="1.23243">
        <ele>263.7</ele>
        <time>2025-06-16T12:06:17Z</time>
      </trkpt>
      <trkpt lat="45.84809" lon="1.23243">
        <ele>263.7</ele>
        <time>2025-06-16T12:06:18Z</time>
      </trkpt>
      <trkpt lat="45.84809" lon="1.23243">
        <ele>263.7</ele>
        <time>2025-06-16T12:06:19Z</time>
      </trkpt>
      <trkpt lat="45.84809" lon="1.23243">
        <ele>263.7</ele>
        <time>2025-06-16T12:06:20Z</time>
      </trkpt>
      <trkpt lat="45.84809" lon="1.23243">
        <ele>263.7</ele>
        <time>2025-06-16T12:06:21Z</time>
      </trkpt>
      <trkpt lat="45.84809" lon="1.23243">
        <ele>263.7</ele>
        <time>2025-06-16T12:06:22Z</time>
      </trkpt>
      <trkpt lat="45.84809" lon="1.23243">
        <ele>263.7</ele>
        <time>2025-06-16T12:06:23Z</time>
      </trkpt>
      <trkpt lat="45.84809" lon="1.23243">
        <ele>263.7</ele>
        <time>2025-06-16T12:06:24Z</time>
      </trkpt>
      <trkpt lat="45.84809" lon="1.23243">
        <ele>263.7</ele>
        <time>2025-06-16T12:06:25Z</time>
      </trkpt>
      <trkpt lat="45.8481" lon="1.23243">
        <ele>263.7</ele>
        <time>2025-06-16T12:06:26Z</time>
      </trkpt>
      <trkpt lat="45.8481" lon="1.23243">
        <ele>263.7</ele>
        <time>2025-06-16T12:06:27Z</time>
      </trkpt>
      <trkpt lat="45.84809" lon="1.23243">
        <ele>263.7</ele>
        <time>2025-06-16T12:06:28Z</time>
      </trkpt>
      <trkpt lat="45.84808" lon="1.23242">
        <ele>263.7</ele>
        <time>2025-06-16T12:06:29Z</time>
      </trkpt>
      <trkpt lat="45.84808" lon="1.23242">
        <ele>263.7</ele>
        <time>2025-06-16T12:06:30Z</time>
      </trkpt>
      <trkpt lat="45.84807" lon="1.23242">
        <ele>263.7</ele>
        <time>2025-06-16T12:06:31Z</time>
      </trkpt>
      <trkpt lat="45.84807" lon="1.23242">
        <ele>263.7</ele>
        <time>2025-06-16T12:06:32Z</time>
      </trkpt>
      <trkpt lat="45.84807" lon="1.23242">
        <ele>263.7</ele>
        <time>2025-06-16T12:06:33Z</time>
      </trkpt>
      <trkpt lat="45.84807" lon="1.23242">
        <ele>263.7</ele>
        <time>2025-06-16T12:06:34Z</time>
      </trkpt>
      <trkpt lat="45.84807" lon="1.23242">
        <ele>263.7</ele>
        <time>2025-06-16T12:06:35Z</time>
      </trkpt>
      <trkpt lat="45.84807" lon="1.23243">
        <ele>263.7</ele>
        <time>2025-06-16T12:06:36Z</time>
      </trkpt>
      <trkpt lat="45.84807" lon="1.23243">
        <ele>263.7</ele>
        <time>2025-06-16T12:06:37Z</time>
      </trkpt>
      <trkpt lat="45.84807" lon="1.23243">
        <ele>263.7</ele>
        <time>2025-06-16T12:06:38Z</time>
      </trkpt>
      <trkpt lat="45.84807" lon="1.23243">
        <ele>263.7</ele>
        <time>2025-06-16T12:06:39Z</time>
      </trkpt>
      <trkpt lat="45.84807" lon="1.23243">
        <ele>263.7</ele>
        <time>2025-06-16T12:06:40Z</time>
      </trkpt>
      <trkpt lat="45.84807" lon="1.23243">
        <ele>263.7</ele>
        <time>2025-06-16T12:06:41Z</time>
      </trkpt>
      <trkpt lat="45.84807" lon="1.23243">
        <ele>263.7</ele>
        <time>2025-06-16T12:06:42Z</time>
      </trkpt>
      <trkpt lat="45.84807" lon="1.23243">
        <ele>263.7</ele>
        <time>2025-06-16T12:06:43Z</time>
      </trkpt>
      <trkpt lat="45.84807" lon="1.23243">
        <ele>263.7</ele>
        <time>2025-06-16T12:06:44Z</time>
      </trkpt>
      <trkpt lat="45.84807" lon="1.23243">
        <ele>263.7</ele>
        <time>2025-06-16T12:06:45Z</time>
      </trkpt>
      <trkpt lat="45.84807" lon="1.23243">
        <ele>263.7</ele>
        <time>2025-06-16T12:06:46Z</time>
      </trkpt>
      <trkpt lat="45.84807" lon="1.23243">
        <ele>263.7</ele>
        <time>2025-06-16T12:06:47Z</time>
      </trkpt>
      <trkpt lat="45.84807" lon="1.23243">
        <ele>263.7</ele>
        <time>2025-06-16T12:06:48Z</time>
      </trkpt>
      <trkpt lat="45.84807" lon="1.23243">
        <ele>263.7</ele>
        <time>2025-06-16T12:06:49Z</time>
      </trkpt>
      <trkpt lat="45.84807" lon="1.23243">
        <ele>263.7</ele>
        <time>2025-06-16T12:06:50Z</time>
      </trkpt>
      <trkpt lat="45.84807" lon="1.23243">
        <ele>263.7</ele>
        <time>2025-06-16T12:06:51Z</time>
      </trkpt>
      <trkpt lat="45.84807" lon="1.23243">
        <ele>263.7</ele>
        <time>2025-06-16T12:06:52Z</time>
      </trkpt>
      <trkpt lat="45.84807" lon="1.23243">
        <ele>263.7</ele>
        <time>2025-06-16T12:06:53Z</time>
      </trkpt>
      <trkpt lat="45.84807" lon="1.23243">
        <ele>263.7</ele>
        <time>2025-06-16T12:06:54Z</time>
      </trkpt>
      <trkpt lat="45.84806" lon="1.23243">
        <ele>263.7</ele>
        <time>2025-06-16T12:06:55Z</time>
      </trkpt>
      <trkpt lat="45.84806" lon="1.23243">
        <ele>263.7</ele>
        <time>2025-06-16T12:06:56Z</time>
      </trkpt>
      <trkpt lat="45.84806" lon="1.23243">
        <ele>263.7</ele>
        <time>2025-06-16T12:06:57Z</time>
      </trkpt>
      <trkpt lat="45.84806" lon="1.23243">
        <ele>263.7</ele>
        <time>2025-06-16T12:06:58Z</time>
      </trkpt>
      <trkpt lat="45.84806" lon="1.23243">
        <ele>263.7</ele>
        <time>2025-06-16T12:06:59Z</time>
      </trkpt>
      <trkpt lat="45.84806" lon="1.23243">
        <ele>263.7</ele>
        <time>2025-06-16T12:07:00Z</time>
      </trkpt>
      <trkpt lat="45.84806" lon="1.23243">
        <ele>263.7</ele>
        <time>2025-06-16T12:07:01Z</time>
      </trkpt>
      <trkpt lat="45.84806" lon="1.23243">
        <ele>263.7</ele>
        <time>2025-06-16T12:07:02Z</time>
      </trkpt>
      <trkpt lat="45.84806" lon="1.23243">
        <ele>263.7</ele>
        <time>2025-06-16T12:07:03Z</time>
      </trkpt>
      <trkpt lat="45.84806" lon="1.23243">
        <ele>263.7</ele>
        <time>2025-06-16T12:07:04Z</time>
      </trkpt>
      <trkpt lat="45.84806" lon="1.23243">
        <ele>263.7</ele>
        <time>2025-06-16T12:07:05Z</time>
      </trkpt>
      <trkpt lat="45.84806" lon="1.23243">
        <ele>263.7</ele>
        <time>2025-06-16T12:07:06Z</time>
      </trkpt>
      <trkpt lat="45.84806" lon="1.23243">
        <ele>263.7</ele>
        <time>2025-06-16T12:07:07Z</time>
      </trkpt>
      <trkpt lat="45.84806" lon="1.23243">
        <ele>263.7</ele>
        <time>2025-06-16T12:07:08Z</time>
      </trkpt>
      <trkpt lat="45.84806" lon="1.23243">
        <ele>263.7</ele>
        <time>2025-06-16T12:07:09Z</time>
      </trkpt>
      <trkpt lat="45.84806" lon="1.23243">
        <ele>263.7</ele>
        <time>2025-06-16T12:07:10Z</time>
      </trkpt>
      <trkpt lat="45.84806" lon="1.23243">
        <ele>263.7</ele>
        <time>2025-06-16T12:07:11Z</time>
      </trkpt>
      <trkpt lat="45.84806" lon="1.23243">
        <ele>263.7</ele>
        <time>2025-06-16T12:07:12Z</time>
      </trkpt>
      <trkpt lat="45.84806" lon="1.23243">
        <ele>263.7</ele>
        <time>2025-06-16T12:07:13Z</time>
      </trkpt>
      <trkpt lat="45.84806" lon="1.23243">
        <ele>263.7</ele>
        <time>2025-06-16T12:07:14Z</time>
      </trkpt>
      <trkpt lat="45.84806" lon="1.23243">
        <ele>263.7</ele>
        <time>2025-06-16T12:07:15Z</time>
      </trkpt>
      <trkpt lat="45.84806" lon="1.23243">
        <ele>263.7</ele>
        <time>2025-06-16T12:07:16Z</time>
      </trkpt>
      <trkpt lat="45.84806" lon="1.23243">
        <ele>263.7</ele>
        <time>2025-06-16T12:07:17Z</time>
      </trkpt>
      <trkpt lat="45.84806" lon="1.23243">
        <ele>263.7</ele>
        <time>2025-06-16T12:07:18Z</time>
      </trkpt>
      <trkpt lat="45.84806" lon="1.23243">
        <ele>263.7</ele>
        <time>2025-06-16T12:07:19Z</time>
      </trkpt>
      <trkpt lat="45.84806" lon="1.23243">
        <ele>263.7</ele>
        <time>2025-06-16T12:07:20Z</time>
      </trkpt>
      <trkpt lat="45.84806" lon="1.23243">
        <ele>263.7</ele>
        <time>2025-06-16T12:07:21Z</time>
      </trkpt>
      <trkpt lat="45.84806" lon="1.23243">
        <ele>263.7</ele>
        <time>2025-06-16T12:07:22Z</time>
      </trkpt>
      <trkpt lat="45.84806" lon="1.23243">
        <ele>263.7</ele>
        <time>2025-06-16T12:07:23Z</time>
      </trkpt>
      <trkpt lat="45.84806" lon="1.23243">
        <ele>263.7</ele>
        <time>2025-06-16T12:07:24Z</time>
      </trkpt>
      <trkpt lat="45.84806" lon="1.23243">
        <ele>263.7</ele>
        <time>2025-06-16T12:07:25Z</time>
      </trkpt>
      <trkpt lat="45.84806" lon="1.23243">
        <ele>263.7</ele>
        <time>2025-06-16T12:07:26Z</time>
      </trkpt>
      <trkpt lat="45.84806" lon="1.23243">
        <ele>263.7</ele>
        <time>2025-06-16T12:07:27Z</time>
      </trkpt>
      <trkpt lat="45.84806" lon="1.23243">
        <ele>263.7</ele>
        <time>2025-06-16T12:07:28Z</time>
      </trkpt>
      <trkpt lat="45.84806" lon="1.23243">
        <ele>263.7</ele>
        <time>2025-06-16T12:07:29Z</time>
      </trkpt>
      <trkpt lat="45.84806" lon="1.23243">
        <ele>263.7</ele>
        <time>2025-06-16T12:07:30Z</time>
      </trkpt>
      <trkpt lat="45.84806" lon="1.23243">
        <ele>263.7</ele>
        <time>2025-06-16T12:07:31Z</time>
      </trkpt>
      <trkpt lat="45.84806" lon="1.23243">
        <ele>263.7</ele>
        <time>2025-06-16T12:07:32Z</time>
      </trkpt>
      <trkpt lat="45.84806" lon="1.23243">
        <ele>263.7</ele>
        <time>2025-06-16T12:07:33Z</time>
      </trkpt>
      <trkpt lat="45.84806" lon="1.23243">
        <ele>263.7</ele>
        <time>2025-06-16T12:07:34Z</time>
      </trkpt>
      <trkpt lat="45.84806" lon="1.23243">
        <ele>263.7</ele>
        <time>2025-06-16T12:07:35Z</time>
      </trkpt>
      <trkpt lat="45.84806" lon="1.23243">
        <ele>263.7</ele>
        <time>2025-06-16T12:07:36Z</time>
      </trkpt>
      <trkpt lat="45.84806" lon="1.23243">
        <ele>263.7</ele>
        <time>2025-06-16T12:07:37Z</time>
      </trkpt>
      <trkpt lat="45.84807" lon="1.23243">
        <ele>263.6</ele>
        <time>2025-06-16T12:07:38Z</time>
      </trkpt>
      <trkpt lat="45.84806" lon="1.23243">
        <ele>263.6</ele>
        <time>2025-06-16T12:07:39Z</time>
      </trkpt>
      <trkpt lat="45.84806" lon="1.23243">
        <ele>263.6</ele>
        <time>2025-06-16T12:07:40Z</time>
      </trkpt>
      <trkpt lat="45.84806" lon="1.23242">
        <ele>263.6</ele>
        <time>2025-06-16T12:07:41Z</time>
      </trkpt>
      <trkpt lat="45.84806" lon="1.23242">
        <ele>263.6</ele>
        <time>2025-06-16T12:07:42Z</time>
      </trkpt>
      <trkpt lat="45.84806" lon="1.23242">
        <ele>263.6</ele>
        <time>2025-06-16T12:07:43Z</time>
      </trkpt>
      <trkpt lat="45.84806" lon="1.23242">
        <ele>263.6</ele>
        <time>2025-06-16T12:07:44Z</time>
      </trkpt>
      <trkpt lat="45.84806" lon="1.23242">
        <ele>263.6</ele>
        <time>2025-06-16T12:07:45Z</time>
      </trkpt>
      <trkpt lat="45.84806" lon="1.23242">
        <ele>263.6</ele>
        <time>2025-06-16T12:07:46Z</time>
      </trkpt>
      <trkpt lat="45.84806" lon="1.23242">
        <ele>263.6</ele>
        <time>2025-06-16T12:07:47Z</time>
      </trkpt>
      <trkpt lat="45.84806" lon="1.23242">
        <ele>263.6</ele>
        <time>2025-06-16T12:07:48Z</time>
      </trkpt>
      <trkpt lat="45.84806" lon="1.23243">
        <ele>263.6</ele>
        <time>2025-06-16T12:07:49Z</time>
      </trkpt>
      <trkpt lat="45.84806" lon="1.23243">
        <ele>263.6</ele>
        <time>2025-06-16T12:07:50Z</time>
      </trkpt>
      <trkpt lat="45.84806" lon="1.23243">
        <ele>263.6</ele>
        <time>2025-06-16T12:07:51Z</time>
      </trkpt>
      <trkpt lat="45.84806" lon="1.23243">
        <ele>263.6</ele>
        <time>2025-06-16T12:07:52Z</time>
      </trkpt>
      <trkpt lat="45.84806" lon="1.23243">
        <ele>263.6</ele>
        <time>2025-06-16T12:07:53Z</time>
      </trkpt>
      <trkpt lat="45.84806" lon="1.23243">
        <ele>263.6</ele>
        <time>2025-06-16T12:07:54Z</time>
      </trkpt>
      <trkpt lat="45.84806" lon="1.23243">
        <ele>263.6</ele>
        <time>2025-06-16T12:07:55Z</time>
      </trkpt>
      <trkpt lat="45.84806" lon="1.23244">
        <ele>263.6</ele>
        <time>2025-06-16T12:07:56Z</time>
      </trkpt>
      <trkpt lat="45.84806" lon="1.23244">
        <ele>263.6</ele>
        <time>2025-06-16T12:07:57Z</time>
      </trkpt>
      <trkpt lat="45.84806" lon="1.23244">
        <ele>263.6</ele>
        <time>2025-06-16T12:07:58Z</time>
      </trkpt>
      <trkpt lat="45.84806" lon="1.23244">
        <ele>263.6</ele>
        <time>2025-06-16T12:07:59Z</time>
      </trkpt>
      <trkpt lat="45.84806" lon="1.23244">
        <ele>263.6</ele>
        <time>2025-06-16T12:08:00Z</time>
      </trkpt>
      <trkpt lat="45.84806" lon="1.23244">
        <ele>263.6</ele>
        <time>2025-06-16T12:08:01Z</time>
      </trkpt>
      <trkpt lat="45.84806" lon="1.23244">
        <ele>263.6</ele>
        <time>2025-06-16T12:08:02Z</time>
      </trkpt>
      <trkpt lat="45.84806" lon="1.23244">
        <ele>263.6</ele>
        <time>2025-06-16T12:08:03Z</time>
      </trkpt>
      <trkpt lat="45.84806" lon="1.23244">
        <ele>263.6</ele>
        <time>2025-06-16T12:08:04Z</time>
      </trkpt>
      <trkpt lat="45.84806" lon="1.23244">
        <ele>263.6</ele>
        <time>2025-06-16T12:08:05Z</time>
      </trkpt>
      <trkpt lat="45.84806" lon="1.23244">
        <ele>263.6</ele>
        <time>2025-06-16T12:08:06Z</time>
      </trkpt>
      <trkpt lat="45.84806" lon="1.23244">
        <ele>263.6</ele>
        <time>2025-06-16T12:08:07Z</time>
      </trkpt>
      <trkpt lat="45.84807" lon="1.23243">
        <ele>263.6</ele>
        <time>2025-06-16T12:08:08Z</time>
      </trkpt>
      <trkpt lat="45.84807" lon="1.23243">
        <ele>263.6</ele>
        <time>2025-06-16T12:08:09Z</time>
      </trkpt>
      <trkpt lat="45.84807" lon="1.23243">
        <ele>263.6</ele>
        <time>2025-06-16T12:08:10Z</time>
      </trkpt>
      <trkpt lat="45.84807" lon="1.23243">
        <ele>263.6</ele>
        <time>2025-06-16T12:08:11Z</time>
      </trkpt>
      <trkpt lat="45.84807" lon="1.23243">
        <ele>263.6</ele>
        <time>2025-06-16T12:08:12Z</time>
      </trkpt>
      <trkpt lat="45.84807" lon="1.23242">
        <ele>263.6</ele>
        <time>2025-06-16T12:08:13Z</time>
      </trkpt>
      <trkpt lat="45.84807" lon="1.23242">
        <ele>263.6</ele>
        <time>2025-06-16T12:08:14Z</time>
      </trkpt>
      <trkpt lat="45.84807" lon="1.23242">
        <ele>263.6</ele>
        <time>2025-06-16T12:08:15Z</time>
      </trkpt>
      <trkpt lat="45.84807" lon="1.23243">
        <ele>263.6</ele>
        <time>2025-06-16T12:08:16Z</time>
      </trkpt>
      <trkpt lat="45.84807" lon="1.23242">
        <ele>263.6</ele>
        <time>2025-06-16T12:08:17Z</time>
      </trkpt>
      <trkpt lat="45.84808" lon="1.23242">
        <ele>263.6</ele>
        <time>2025-06-16T12:08:18Z</time>
      </trkpt>
      <trkpt lat="45.84808" lon="1.23242">
        <ele>263.6</ele>
        <time>2025-06-16T12:08:19Z</time>
      </trkpt>
      <trkpt lat="45.84808" lon="1.23242">
        <ele>263.6</ele>
        <time>2025-06-16T12:08:20Z</time>
      </trkpt>
      <trkpt lat="45.84808" lon="1.23242">
        <ele>263.6</ele>
        <time>2025-06-16T12:08:21Z</time>
      </trkpt>
      <trkpt lat="45.84808" lon="1.23242">
        <ele>263.6</ele>
        <time>2025-06-16T12:08:22Z</time>
      </trkpt>
      <trkpt lat="45.84808" lon="1.23241">
        <ele>263.6</ele>
        <time>2025-06-16T12:08:23Z</time>
      </trkpt>
      <trkpt lat="45.84808" lon="1.23241">
        <ele>263.6</ele>
        <time>2025-06-16T12:08:24Z</time>
      </trkpt>
      <trkpt lat="45.84808" lon="1.23241">
        <ele>263.6</ele>
        <time>2025-06-16T12:08:25Z</time>
      </trkpt>
      <trkpt lat="45.84808" lon="1.23241">
        <ele>263.6</ele>
        <time>2025-06-16T12:08:26Z</time>
      </trkpt>
      <trkpt lat="45.84808" lon="1.23241">
        <ele>263.6</ele>
        <time>2025-06-16T12:08:27Z</time>
      </trkpt>
      <trkpt lat="45.84808" lon="1.2324">
        <ele>263.6</ele>
        <time>2025-06-16T12:08:28Z</time>
      </trkpt>
      <trkpt lat="45.84808" lon="1.2324">
        <ele>263.6</ele>
        <time>2025-06-16T12:08:29Z</time>
      </trkpt>
      <trkpt lat="45.84808" lon="1.23241">
        <ele>263.6</ele>
        <time>2025-06-16T12:08:30Z</time>
      </trkpt>
      <trkpt lat="45.84808" lon="1.23241">
        <ele>263.6</ele>
        <time>2025-06-16T12:08:31Z</time>
      </trkpt>
      <trkpt lat="45.84808" lon="1.23241">
        <ele>263.6</ele>
        <time>2025-06-16T12:08:32Z</time>
      </trkpt>
      <trkpt lat="45.84808" lon="1.23241">
        <ele>263.6</ele>
        <time>2025-06-16T12:08:33Z</time>
      </trkpt>
      <trkpt lat="45.84808" lon="1.23241">
        <ele>263.6</ele>
        <time>2025-06-16T12:08:34Z</time>
      </trkpt>
      <trkpt lat="45.84808" lon="1.23241">
        <ele>263.6</ele>
        <time>2025-06-16T12:08:35Z</time>
      </trkpt>
      <trkpt lat="45.84808" lon="1.23241">
        <ele>263.6</ele>
        <time>2025-06-16T12:08:36Z</time>
      </trkpt>
      <trkpt lat="45.84808" lon="1.23241">
        <ele>263.6</ele>
        <time>2025-06-16T12:08:37Z</time>
      </trkpt>
      <trkpt lat="45.84808" lon="1.23241">
        <ele>263.6</ele>
        <time>2025-06-16T12:08:38Z</time>
      </trkpt>
      <trkpt lat="45.84808" lon="1.23241">
        <ele>263.6</ele>
        <time>2025-06-16T12:08:39Z</time>
      </trkpt>
      <trkpt lat="45.84808" lon="1.23241">
        <ele>263.6</ele>
        <time>2025-06-16T12:08:40Z</time>
      </trkpt>
      <trkpt lat="45.84808" lon="1.23241">
        <ele>263.6</ele>
        <time>2025-06-16T12:08:41Z</time>
      </trkpt>
      <trkpt lat="45.84808" lon="1.23241">
        <ele>263.6</ele>
        <time>2025-06-16T12:08:42Z</time>
      </trkpt>
      <trkpt lat="45.84808" lon="1.2324">
        <ele>263.4</ele>
        <time>2025-06-16T12:08:43Z</time>
      </trkpt>
      <trkpt lat="45.84808" lon="1.2324">
        <ele>263.4</ele>
        <time>2025-06-16T12:08:44Z</time>
      </trkpt>
      <trkpt lat="45.84808" lon="1.23239">
        <ele>263.4</ele>
        <time>2025-06-16T12:08:45Z</time>
      </trkpt>
      <trkpt lat="45.84808" lon="1.23239">
        <ele>263.4</ele>
        <time>2025-06-16T12:08:46Z</time>
      </trkpt>
      <trkpt lat="45.84808" lon="1.23239">
        <ele>263.4</ele>
        <time>2025-06-16T12:08:47Z</time>
      </trkpt>
      <trkpt lat="45.84808" lon="1.23239">
        <ele>263.4</ele>
        <time>2025-06-16T12:08:48Z</time>
      </trkpt>
      <trkpt lat="45.84808" lon="1.23239">
        <ele>263.4</ele>
        <time>2025-06-16T12:08:49Z</time>
      </trkpt>
      <trkpt lat="45.84809" lon="1.23239">
        <ele>263.4</ele>
        <time>2025-06-16T12:08:50Z</time>
      </trkpt>
      <trkpt lat="45.84809" lon="1.23239">
        <ele>263.4</ele>
        <time>2025-06-16T12:08:51Z</time>
      </trkpt>
      <trkpt lat="45.84809" lon="1.23238">
        <ele>263.4</ele>
        <time>2025-06-16T12:08:52Z</time>
      </trkpt>
      <trkpt lat="45.84809" lon="1.23238">
        <ele>263.4</ele>
        <time>2025-06-16T12:08:53Z</time>
      </trkpt>
      <trkpt lat="45.84809" lon="1.23239">
        <ele>263.4</ele>
        <time>2025-06-16T12:08:54Z</time>
      </trkpt>
      <trkpt lat="45.84809" lon="1.23239">
        <ele>263.4</ele>
        <time>2025-06-16T12:08:55Z</time>
      </trkpt>
      <trkpt lat="45.84809" lon="1.23239">
        <ele>263.4</ele>
        <time>2025-06-16T12:08:56Z</time>
      </trkpt>
      <trkpt lat="45.84809" lon="1.23239">
        <ele>263.4</ele>
        <time>2025-06-16T12:08:57Z</time>
      </trkpt>
      <trkpt lat="45.84809" lon="1.23238">
        <ele>263.4</ele>
        <time>2025-06-16T12:08:58Z</time>
      </trkpt>
      <trkpt lat="45.84809" lon="1.23238">
        <ele>263.4</ele>
        <time>2025-06-16T12:08:59Z</time>
      </trkpt>
      <trkpt lat="45.84809" lon="1.23238">
        <ele>263.4</ele>
        <time>2025-06-16T12:09:00Z</time>
      </trkpt>
      <trkpt lat="45.8481" lon="1.23238">
        <ele>263.4</ele>
        <time>2025-06-16T12:09:01Z</time>
      </trkpt>
      <trkpt lat="45.8481" lon="1.23238">
        <ele>263.4</ele>
        <time>2025-06-16T12:09:02Z</time>
      </trkpt>
      <trkpt lat="45.8481" lon="1.23238">
        <ele>263.4</ele>
        <time>2025-06-16T12:09:03Z</time>
      </trkpt>
      <trkpt lat="45.84809" lon="1.23238">
        <ele>263.4</ele>
        <time>2025-06-16T12:09:04Z</time>
      </trkpt>
      <trkpt lat="45.84809" lon="1.23238">
        <ele>263.4</ele>
        <time>2025-06-16T12:09:05Z</time>
      </trkpt>
      <trkpt lat="45.8481" lon="1.23238">
        <ele>263.4</ele>
        <time>2025-06-16T12:09:06Z</time>
      </trkpt>
      <trkpt lat="45.8481" lon="1.23239">
        <ele>263.4</ele>
        <time>2025-06-16T12:09:07Z</time>
      </trkpt>
      <trkpt lat="45.84809" lon="1.23239">
        <ele>263.4</ele>
        <time>2025-06-16T12:09:08Z</time>
      </trkpt>
      <trkpt lat="45.84809" lon="1.23239">
        <ele>263.3</ele>
        <time>2025-06-16T12:09:09Z</time>
      </trkpt>
      <trkpt lat="45.84809" lon="1.23239">
        <ele>263.3</ele>
        <time>2025-06-16T12:09:10Z</time>
      </trkpt>
      <trkpt lat="45.8481" lon="1.23239">
        <ele>263.3</ele>
        <time>2025-06-16T12:09:11Z</time>
      </trkpt>
      <trkpt lat="45.84809" lon="1.23239">
        <ele>263.3</ele>
        <time>2025-06-16T12:09:12Z</time>
      </trkpt>
      <trkpt lat="45.84809" lon="1.23239">
        <ele>263.3</ele>
        <time>2025-06-16T12:09:13Z</time>
      </trkpt>
      <trkpt lat="45.84809" lon="1.23239">
        <ele>263.3</ele>
        <time>2025-06-16T12:09:14Z</time>
      </trkpt>
      <trkpt lat="45.84809" lon="1.23239">
        <ele>263.3</ele>
        <time>2025-06-16T12:09:15Z</time>
      </trkpt>
      <trkpt lat="45.84809" lon="1.23239">
        <ele>263.3</ele>
        <time>2025-06-16T12:09:16Z</time>
      </trkpt>
      <trkpt lat="45.84809" lon="1.2324">
        <ele>263.3</ele>
        <time>2025-06-16T12:09:17Z</time>
      </trkpt>
      <trkpt lat="45.84809" lon="1.2324">
        <ele>263.5</ele>
        <time>2025-06-16T12:09:18Z</time>
      </trkpt>
      <trkpt lat="45.84809" lon="1.2324">
        <ele>263.5</ele>
        <time>2025-06-16T12:09:19Z</time>
      </trkpt>
      <trkpt lat="45.84809" lon="1.23241">
        <ele>263.5</ele>
        <time>2025-06-16T12:09:20Z</time>
      </trkpt>
      <trkpt lat="45.84809" lon="1.23241">
        <ele>263.5</ele>
        <time>2025-06-16T12:09:21Z</time>
      </trkpt>
      <trkpt lat="45.84809" lon="1.23241">
        <ele>263.5</ele>
        <time>2025-06-16T12:09:22Z</time>
      </trkpt>
      <trkpt lat="45.84809" lon="1.23241">
        <ele>263.5</ele>
        <time>2025-06-16T12:09:23Z</time>
      </trkpt>
      <trkpt lat="45.84809" lon="1.23241">
        <ele>263.5</ele>
        <time>2025-06-16T12:09:24Z</time>
      </trkpt>
      <trkpt lat="45.84809" lon="1.23241">
        <ele>263.5</ele>
        <time>2025-06-16T12:09:25Z</time>
      </trkpt>
      <trkpt lat="45.84809" lon="1.23241">
        <ele>263.5</ele>
        <time>2025-06-16T12:09:26Z</time>
      </trkpt>
      <trkpt lat="45.84809" lon="1.23241">
        <ele>263.5</ele>
        <time>2025-06-16T12:09:27Z</time>
      </trkpt>
      <trkpt lat="45.84809" lon="1.23241">
        <ele>263.5</ele>
        <time>2025-06-16T12:09:28Z</time>
      </trkpt>
      <trkpt lat="45.84809" lon="1.23241">
        <ele>263.5</ele>
        <time>2025-06-16T12:09:29Z</time>
      </trkpt>
      <trkpt lat="45.84808" lon="1.23241">
        <ele>263.5</ele>
        <time>2025-06-16T12:09:30Z</time>
      </trkpt>
      <trkpt lat="45.84808" lon="1.23241">
        <ele>263.5</ele>
        <time>2025-06-16T12:09:31Z</time>
      </trkpt>
      <trkpt lat="45.84808" lon="1.23241">
        <ele>263.5</ele>
        <time>2025-06-16T12:09:32Z</time>
      </trkpt>
      <trkpt lat="45.84808" lon="1.23241">
        <ele>263.5</ele>
        <time>2025-06-16T12:09:33Z</time>
      </trkpt>
      <trkpt lat="45.84808" lon="1.23241">
        <ele>263.5</ele>
        <time>2025-06-16T12:09:34Z</time>
      </trkpt>
      <trkpt lat="45.84808" lon="1.23241">
        <ele>263.5</ele>
        <time>2025-06-16T12:09:35Z</time>
      </trkpt>
      <trkpt lat="45.84808" lon="1.23241">
        <ele>263.5</ele>
        <time>2025-06-16T12:09:36Z</time>
      </trkpt>
      <trkpt lat="45.84808" lon="1.23241">
        <ele>263.5</ele>
        <time>2025-06-16T12:09:37Z</time>
      </trkpt>
      <trkpt lat="45.84807" lon="1.23242">
        <ele>263.5</ele>
        <time>2025-06-16T12:09:38Z</time>
      </trkpt>
      <trkpt lat="45.84807" lon="1.23242">
        <ele>263.5</ele>
        <time>2025-06-16T12:09:39Z</time>
      </trkpt>
      <trkpt lat="45.84807" lon="1.23241">
        <ele>263.5</ele>
        <time>2025-06-16T12:09:40Z</time>
      </trkpt>
      <trkpt lat="45.84807" lon="1.23241">
        <ele>263.5</ele>
        <time>2025-06-16T12:09:41Z</time>
      </trkpt>
      <trkpt lat="45.84807" lon="1.23241">
        <ele>263.5</ele>
        <time>2025-06-16T12:09:42Z</time>
      </trkpt>
      <trkpt lat="45.84807" lon="1.23241">
        <ele>263.5</ele>
        <time>2025-06-16T12:09:43Z</time>
      </trkpt>
      <trkpt lat="45.84807" lon="1.23241">
        <ele>263.5</ele>
        <time>2025-06-16T12:09:44Z</time>
      </trkpt>
      <trkpt lat="45.84807" lon="1.23241">
        <ele>263.5</ele>
        <time>2025-06-16T12:09:45Z</time>
      </trkpt>
      <trkpt lat="45.84807" lon="1.23241">
        <ele>263.5</ele>
        <time>2025-06-16T12:09:46Z</time>
      </trkpt>
      <trkpt lat="45.84807" lon="1.23241">
        <ele>263.5</ele>
        <time>2025-06-16T12:09:47Z</time>
      </trkpt>
      <trkpt lat="45.84807" lon="1.23241">
        <ele>263.5</ele>
        <time>2025-06-16T12:09:48Z</time>
      </trkpt>
      <trkpt lat="45.84807" lon="1.23241">
        <ele>263.5</ele>
        <time>2025-06-16T12:09:49Z</time>
      </trkpt>
      <trkpt lat="45.84807" lon="1.23241">
        <ele>263.5</ele>
        <time>2025-06-16T12:09:50Z</time>
      </trkpt>
      <trkpt lat="45.84807" lon="1.23241">
        <ele>263.5</ele>
        <time>2025-06-16T12:09:51Z</time>
      </trkpt>
      <trkpt lat="45.84807" lon="1.23241">
        <ele>263.5</ele>
        <time>2025-06-16T12:09:52Z</time>
      </trkpt>
      <trkpt lat="45.84808" lon="1.23241">
        <ele>263.5</ele>
        <time>2025-06-16T12:09:53Z</time>
      </trkpt>
      <trkpt lat="45.84808" lon="1.23241">
        <ele>263.5</ele>
        <time>2025-06-16T12:09:54Z</time>
      </trkpt>
      <trkpt lat="45.84808" lon="1.23241">
        <ele>263.5</ele>
        <time>2025-06-16T12:09:55Z</time>
      </trkpt>
      <trkpt lat="45.84808" lon="1.23241">
        <ele>263.5</ele>
        <time>2025-06-16T12:09:56Z</time>
      </trkpt>
      <trkpt lat="45.84808" lon="1.23241">
        <ele>263.5</ele>
        <time>2025-06-16T12:09:57Z</time>
      </trkpt>
      <trkpt lat="45.84808" lon="1.23241">
        <ele>263.5</ele>
        <time>2025-06-16T12:09:58Z</time>
      </trkpt>
      <trkpt lat="45.84808" lon="1.2324">
        <ele>263.5</ele>
        <time>2025-06-16T12:09:59Z</time>
      </trkpt>
      <trkpt lat="45.84808" lon="1.2324">
        <ele>263.5</ele>
        <time>2025-06-16T12:10:00Z</time>
      </trkpt>
      <trkpt lat="45.84808" lon="1.2324">
        <ele>263.5</ele>
        <time>2025-06-16T12:10:01Z</time>
      </trkpt>
      <trkpt lat="45.84807" lon="1.2324">
        <ele>263.3</ele>
        <time>2025-06-16T12:10:02Z</time>
      </trkpt>
      <trkpt lat="45.84807" lon="1.2324">
        <ele>263.3</ele>
        <time>2025-06-16T12:10:03Z</time>
      </trkpt>
      <trkpt lat="45.84807" lon="1.2324">
        <ele>263.3</ele>
        <time>2025-06-16T12:10:04Z</time>
      </trkpt>
      <trkpt lat="45.84807" lon="1.23239">
        <ele>263.3</ele>
        <time>2025-06-16T12:10:05Z</time>
      </trkpt>
      <trkpt lat="45.84807" lon="1.23239">
        <ele>263.3</ele>
        <time>2025-06-16T12:10:06Z</time>
      </trkpt>
      <trkpt lat="45.84807" lon="1.23239">
        <ele>263.3</ele>
        <time>2025-06-16T12:10:07Z</time>
      </trkpt>
      <trkpt lat="45.84807" lon="1.2324">
        <ele>263.3</ele>
        <time>2025-06-16T12:10:08Z</time>
      </trkpt>
      <trkpt lat="45.84806" lon="1.2324">
        <ele>263.3</ele>
        <time>2025-06-16T12:10:09Z</time>
      </trkpt>
      <trkpt lat="45.84806" lon="1.2324">
        <ele>263.3</ele>
        <time>2025-06-16T12:10:10Z</time>
      </trkpt>
      <trkpt lat="45.84806" lon="1.2324">
        <ele>263.3</ele>
        <time>2025-06-16T12:10:11Z</time>
      </trkpt>
      <trkpt lat="45.84806" lon="1.23239">
        <ele>263.3</ele>
        <time>2025-06-16T12:10:12Z</time>
      </trkpt>
      <trkpt lat="45.84806" lon="1.23239">
        <ele>263.3</ele>
        <time>2025-06-16T12:10:13Z</time>
      </trkpt>
      <trkpt lat="45.84806" lon="1.23239">
        <ele>263.3</ele>
        <time>2025-06-16T12:10:14Z</time>
      </trkpt>
      <trkpt lat="45.84806" lon="1.23239">
        <ele>263.3</ele>
        <time>2025-06-16T12:10:15Z</time>
      </trkpt>
      <trkpt lat="45.84806" lon="1.23239">
        <ele>263.3</ele>
        <time>2025-06-16T12:10:16Z</time>
      </trkpt>
      <trkpt lat="45.84806" lon="1.23239">
        <ele>263.3</ele>
        <time>2025-06-16T12:10:17Z</time>
      </trkpt>
      <trkpt lat="45.84805" lon="1.23239">
        <ele>263.3</ele>
        <time>2025-06-16T12:10:18Z</time>
      </trkpt>
      <trkpt lat="45.84805" lon="1.23239">
        <ele>263.3</ele>
        <time>2025-06-16T12:10:19Z</time>
      </trkpt>
      <trkpt lat="45.84805" lon="1.23239">
        <ele>263.3</ele>
        <time>2025-06-16T12:10:20Z</time>
      </trkpt>
      <trkpt lat="45.84806" lon="1.23239">
        <ele>263.3</ele>
        <time>2025-06-16T12:10:21Z</time>
      </trkpt>
      <trkpt lat="45.84806" lon="1.23239">
        <ele>263.3</ele>
        <time>2025-06-16T12:10:22Z</time>
      </trkpt>
      <trkpt lat="45.84806" lon="1.23238">
        <ele>263.3</ele>
        <time>2025-06-16T12:10:23Z</time>
      </trkpt>
      <trkpt lat="45.84807" lon="1.23238">
        <ele>263.3</ele>
        <time>2025-06-16T12:10:24Z</time>
      </trkpt>
      <trkpt lat="45.84807" lon="1.23238">
        <ele>263.3</ele>
        <time>2025-06-16T12:10:25Z</time>
      </trkpt>
      <trkpt lat="45.84807" lon="1.23237">
        <ele>263.3</ele>
        <time>2025-06-16T12:10:26Z</time>
      </trkpt>
      <trkpt lat="45.84807" lon="1.23237">
        <ele>263.3</ele>
        <time>2025-06-16T12:10:27Z</time>
      </trkpt>
      <trkpt lat="45.84808" lon="1.23237">
        <ele>263.3</ele>
        <time>2025-06-16T12:10:28Z</time>
      </trkpt>
      <trkpt lat="45.84808" lon="1.23237">
        <ele>263.3</ele>
        <time>2025-06-16T12:10:29Z</time>
      </trkpt>
      <trkpt lat="45.84808" lon="1.23237">
        <ele>263.3</ele>
        <time>2025-06-16T12:10:30Z</time>
      </trkpt>
      <trkpt lat="45.84808" lon="1.23237">
        <ele>263.3</ele>
        <time>2025-06-16T12:10:31Z</time>
      </trkpt>
      <trkpt lat="45.84808" lon="1.23237">
        <ele>263.3</ele>
        <time>2025-06-16T12:10:32Z</time>
      </trkpt>
      <trkpt lat="45.84808" lon="1.23237">
        <ele>263.3</ele>
        <time>2025-06-16T12:10:33Z</time>
      </trkpt>
      <trkpt lat="45.84807" lon="1.23237">
        <ele>263.3</ele>
        <time>2025-06-16T12:10:34Z</time>
      </trkpt>
      <trkpt lat="45.84807" lon="1.23237">
        <ele>263.3</ele>
        <time>2025-06-16T12:10:35Z</time>
      </trkpt>
      <trkpt lat="45.84807" lon="1.23237">
        <ele>263.3</ele>
        <time>2025-06-16T12:10:36Z</time>
      </trkpt>
      <trkpt lat="45.84807" lon="1.23237">
        <ele>263.3</ele>
        <time>2025-06-16T12:10:37Z</time>
      </trkpt>
      <trkpt lat="45.84807" lon="1.23236">
        <ele>263.3</ele>
        <time>2025-06-16T12:10:38Z</time>
      </trkpt>
      <trkpt lat="45.84807" lon="1.23236">
        <ele>263.3</ele>
        <time>2025-06-16T12:10:39Z</time>
      </trkpt>
      <trkpt lat="45.84806" lon="1.23237">
        <ele>263.2</ele>
        <time>2025-06-16T12:10:40Z</time>
      </trkpt>
      <trkpt lat="45.84806" lon="1.23237">
        <ele>263.2</ele>
        <time>2025-06-16T12:10:41Z</time>
      </trkpt>
      <trkpt lat="45.84806" lon="1.23237">
        <ele>263.2</ele>
        <time>2025-06-16T12:10:42Z</time>
      </trkpt>
      <trkpt lat="45.84806" lon="1.23237">
        <ele>263.2</ele>
        <time>2025-06-16T12:10:43Z</time>
      </trkpt>
      <trkpt lat="45.84806" lon="1.23238">
        <ele>263.2</ele>
        <time>2025-06-16T12:10:44Z</time>
      </trkpt>
      <trkpt lat="45.84805" lon="1.23238">
        <ele>263.2</ele>
        <time>2025-06-16T12:10:45Z</time>
      </trkpt>
      <trkpt lat="45.84805" lon="1.23238">
        <ele>263.3</ele>
        <time>2025-06-16T12:10:46Z</time>
      </trkpt>
      <trkpt lat="45.84805" lon="1.23238">
        <ele>263.3</ele>
        <time>2025-06-16T12:10:47Z</time>
      </trkpt>
      <trkpt lat="45.84805" lon="1.23238">
        <ele>263.3</ele>
        <time>2025-06-16T12:10:48Z</time>
      </trkpt>
      <trkpt lat="45.84805" lon="1.23238">
        <ele>263.3</ele>
        <time>2025-06-16T12:10:49Z</time>
      </trkpt>
      <trkpt lat="45.84805" lon="1.23238">
        <ele>263.3</ele>
        <time>2025-06-16T12:10:50Z</time>
      </trkpt>
      <trkpt lat="45.84805" lon="1.23238">
        <ele>263.3</ele>
        <time>2025-06-16T12:10:51Z</time>
      </trkpt>
      <trkpt lat="45.84805" lon="1.23238">
        <ele>263.3</ele>
        <time>2025-06-16T12:10:52Z</time>
      </trkpt>
      <trkpt lat="45.84805" lon="1.23239">
        <ele>263.3</ele>
        <time>2025-06-16T12:10:53Z</time>
      </trkpt>
      <trkpt lat="45.84805" lon="1.23239">
        <ele>263.3</ele>
        <time>2025-06-16T12:10:54Z</time>
      </trkpt>
      <trkpt lat="45.84805" lon="1.23239">
        <ele>263.3</ele>
        <time>2025-06-16T12:10:55Z</time>
      </trkpt>
      <trkpt lat="45.84805" lon="1.23238">
        <ele>263.3</ele>
        <time>2025-06-16T12:10:56Z</time>
      </trkpt>
      <trkpt lat="45.84805" lon="1.23238">
        <ele>263.3</ele>
        <time>2025-06-16T12:10:57Z</time>
      </trkpt>
      <trkpt lat="45.84805" lon="1.23238">
        <ele>263.3</ele>
        <time>2025-06-16T12:10:58Z</time>
      </trkpt>
      <trkpt lat="45.84805" lon="1.23238">
        <ele>263.3</ele>
        <time>2025-06-16T12:10:59Z</time>
      </trkpt>
      <trkpt lat="45.84805" lon="1.23238">
        <ele>263.3</ele>
        <time>2025-06-16T12:11:00Z</time>
      </trkpt>
      <trkpt lat="45.84805" lon="1.23238">
        <ele>263.3</ele>
        <time>2025-06-16T12:11:01Z</time>
      </trkpt>
      <trkpt lat="45.84805" lon="1.23238">
        <ele>263.3</ele>
        <time>2025-06-16T12:11:02Z</time>
      </trkpt>
      <trkpt lat="45.84805" lon="1.23238">
        <ele>263.3</ele>
        <time>2025-06-16T12:11:03Z</time>
      </trkpt>
      <trkpt lat="45.84804" lon="1.23238">
        <ele>263.2</ele>
        <time>2025-06-16T12:11:04Z</time>
      </trkpt>
      <trkpt lat="45.84804" lon="1.23238">
        <ele>263.2</ele>
        <time>2025-06-16T12:11:05Z</time>
      </trkpt>
      <trkpt lat="45.84804" lon="1.23238">
        <ele>263.2</ele>
        <time>2025-06-16T12:11:06Z</time>
      </trkpt>
      <trkpt lat="45.84804" lon="1.23238">
        <ele>263.2</ele>
        <time>2025-06-16T12:11:07Z</time>
      </trkpt>
      <trkpt lat="45.84804" lon="1.23238">
        <ele>263.2</ele>
        <time>2025-06-16T12:11:08Z</time>
      </trkpt>
      <trkpt lat="45.84804" lon="1.23238">
        <ele>263.2</ele>
        <time>2025-06-16T12:11:09Z</time>
      </trkpt>
      <trkpt lat="45.84804" lon="1.23238">
        <ele>263.2</ele>
        <time>2025-06-16T12:11:10Z</time>
      </trkpt>
      <trkpt lat="45.84805" lon="1.23239">
        <ele>263.2</ele>
        <time>2025-06-16T12:11:11Z</time>
      </trkpt>
      <trkpt lat="45.84805" lon="1.23239">
        <ele>263.2</ele>
        <time>2025-06-16T12:11:12Z</time>
      </trkpt>
      <trkpt lat="45.84805" lon="1.23239">
        <ele>263.2</ele>
        <time>2025-06-16T12:11:13Z</time>
      </trkpt>
      <trkpt lat="45.84805" lon="1.2324">
        <ele>263.2</ele>
        <time>2025-06-16T12:11:14Z</time>
      </trkpt>
      <trkpt lat="45.84805" lon="1.2324">
        <ele>263.2</ele>
        <time>2025-06-16T12:11:15Z</time>
      </trkpt>
      <trkpt lat="45.84805" lon="1.2324">
        <ele>263.2</ele>
        <time>2025-06-16T12:11:16Z</time>
      </trkpt>
      <trkpt lat="45.84805" lon="1.2324">
        <ele>263.2</ele>
        <time>2025-06-16T12:11:17Z</time>
      </trkpt>
      <trkpt lat="45.84805" lon="1.2324">
        <ele>263.4</ele>
        <time>2025-06-16T12:11:18Z</time>
      </trkpt>
      <trkpt lat="45.84805" lon="1.2324">
        <ele>263.4</ele>
        <time>2025-06-16T12:11:19Z</time>
      </trkpt>
      <trkpt lat="45.84805" lon="1.2324">
        <ele>263.4</ele>
        <time>2025-06-16T12:11:20Z</time>
      </trkpt>
      <trkpt lat="45.84805" lon="1.2324">
        <ele>263.4</ele>
        <time>2025-06-16T12:11:21Z</time>
      </trkpt>
      <trkpt lat="45.84805" lon="1.2324">
        <ele>263.4</ele>
        <time>2025-06-16T12:11:22Z</time>
      </trkpt>
      <trkpt lat="45.84805" lon="1.2324">
        <ele>263.4</ele>
        <time>2025-06-16T12:11:23Z</time>
      </trkpt>
      <trkpt lat="45.84805" lon="1.23241">
        <ele>263.4</ele>
        <time>2025-06-16T12:11:24Z</time>
      </trkpt>
      <trkpt lat="45.84805" lon="1.23241">
        <ele>263.4</ele>
        <time>2025-06-16T12:11:25Z</time>
      </trkpt>
      <trkpt lat="45.84805" lon="1.23241">
        <ele>263.4</ele>
        <time>2025-06-16T12:11:26Z</time>
      </trkpt>
      <trkpt lat="45.84805" lon="1.23241">
        <ele>263.4</ele>
        <time>2025-06-16T12:11:27Z</time>
      </trkpt>
      <trkpt lat="45.84805" lon="1.23241">
        <ele>263.4</ele>
        <time>2025-06-16T12:11:28Z</time>
      </trkpt>
      <trkpt lat="45.84805" lon="1.23241">
        <ele>263.4</ele>
        <time>2025-06-16T12:11:29Z</time>
      </trkpt>
      <trkpt lat="45.84805" lon="1.23241">
        <ele>263.4</ele>
        <time>2025-06-16T12:11:30Z</time>
      </trkpt>
      <trkpt lat="45.84805" lon="1.23241">
        <ele>263.4</ele>
        <time>2025-06-16T12:11:31Z</time>
      </trkpt>
      <trkpt lat="45.84805" lon="1.23241">
        <ele>263.4</ele>
        <time>2025-06-16T12:11:32Z</time>
      </trkpt>
      <trkpt lat="45.84805" lon="1.23241">
        <ele>263.4</ele>
        <time>2025-06-16T12:11:33Z</time>
      </trkpt>
      <trkpt lat="45.84805" lon="1.23241">
        <ele>263.4</ele>
        <time>2025-06-16T12:11:34Z</time>
      </trkpt>
      <trkpt lat="45.84805" lon="1.23241">
        <ele>263.4</ele>
        <time>2025-06-16T12:11:35Z</time>
      </trkpt>
      <trkpt lat="45.84806" lon="1.23241">
        <ele>263.3</ele>
        <time>2025-06-16T12:11:36Z</time>
      </trkpt>
      <trkpt lat="45.84807" lon="1.23241">
        <ele>263.3</ele>
        <time>2025-06-16T12:11:37Z</time>
      </trkpt>
      <trkpt lat="45.84808" lon="1.23242">
        <ele>263.3</ele>
        <time>2025-06-16T12:11:38Z</time>
      </trkpt>
      <trkpt lat="45.84809" lon="1.23241">
        <ele>263.3</ele>
        <time>2025-06-16T12:11:39Z</time>
      </trkpt>
      <trkpt lat="45.84811" lon="1.23241">
        <ele>263.3</ele>
        <time>2025-06-16T12:11:40Z</time>
      </trkpt>
      <trkpt lat="45.84813" lon="1.2324">
        <ele>263.2</ele>
        <time>2025-06-16T12:11:41Z</time>
      </trkpt>
      <trkpt lat="45.84814" lon="1.2324">
        <ele>263.2</ele>
        <time>2025-06-16T12:11:42Z</time>
      </trkpt>
      <trkpt lat="45.84817" lon="1.23241">
        <ele>263.3</ele>
        <time>2025-06-16T12:11:43Z</time>
      </trkpt>
      <trkpt lat="45.84818" lon="1.23242">
        <ele>263.3</ele>
        <time>2025-06-16T12:11:44Z</time>
      </trkpt>
      <trkpt lat="45.8482" lon="1.23242">
        <ele>263.3</ele>
        <time>2025-06-16T12:11:45Z</time>
      </trkpt>
      <trkpt lat="45.84822" lon="1.23243">
        <ele>263.4</ele>
        <time>2025-06-16T12:11:46Z</time>
      </trkpt>
      <trkpt lat="45.84822" lon="1.23242">
        <ele>263.4</ele>
        <time>2025-06-16T12:11:47Z</time>
      </trkpt>
      <trkpt lat="45.84822" lon="1.23242">
        <ele>263.4</ele>
        <time>2025-06-16T12:11:48Z</time>
      </trkpt>
      <trkpt lat="45.84822" lon="1.23241">
        <ele>263.4</ele>
        <time>2025-06-16T12:11:49Z</time>
      </trkpt>
      <trkpt lat="45.84822" lon="1.23241">
        <ele>263.4</ele>
        <time>2025-06-16T12:11:50Z</time>
      </trkpt>
      <trkpt lat="45.84822" lon="1.23241">
        <ele>263.4</ele>
        <time>2025-06-16T12:11:51Z</time>
      </trkpt>
      <trkpt lat="45.84823" lon="1.23241">
        <ele>263.4</ele>
        <time>2025-06-16T12:11:52Z</time>
      </trkpt>
      <trkpt lat="45.84823" lon="1.23241">
        <ele>263.4</ele>
        <time>2025-06-16T12:11:53Z</time>
      </trkpt>
      <trkpt lat="45.84823" lon="1.23241">
        <ele>263.4</ele>
        <time>2025-06-16T12:11:54Z</time>
      </trkpt>
      <trkpt lat="45.84824" lon="1.23242">
        <ele>263.5</ele>
        <time>2025-06-16T12:11:55Z</time>
      </trkpt>
      <trkpt lat="45.84824" lon="1.23242">
        <ele>263.5</ele>
        <time>2025-06-16T12:11:56Z</time>
      </trkpt>
      <trkpt lat="45.84824" lon="1.23242">
        <ele>263.5</ele>
        <time>2025-06-16T12:11:57Z</time>
      </trkpt>
      <trkpt lat="45.84824" lon="1.23242">
        <ele>263.5</ele>
        <time>2025-06-16T12:11:58Z</time>
      </trkpt>
      <trkpt lat="45.84824" lon="1.23241">
        <ele>263.5</ele>
        <time>2025-06-16T12:11:59Z</time>
      </trkpt>
      <trkpt lat="45.84824" lon="1.23241">
        <ele>263.5</ele>
        <time>2025-06-16T12:12:00Z</time>
      </trkpt>
      <trkpt lat="45.84824" lon="1.2324">
        <ele>263.5</ele>
        <time>2025-06-16T12:12:01Z</time>
      </trkpt>
      <trkpt lat="45.84824" lon="1.2324">
        <ele>263.4</ele>
        <time>2025-06-16T12:12:02Z</time>
      </trkpt>
      <trkpt lat="45.84824" lon="1.2324">
        <ele>263.4</ele>
        <time>2025-06-16T12:12:03Z</time>
      </trkpt>
      <trkpt lat="45.84824" lon="1.2324">
        <ele>263.4</ele>
        <time>2025-06-16T12:12:04Z</time>
      </trkpt>
      <trkpt lat="45.84824" lon="1.2324">
        <ele>263.4</ele>
        <time>2025-06-16T12:12:05Z</time>
      </trkpt>
      <trkpt lat="45.84824" lon="1.2324">
        <ele>263.4</ele>
        <time>2025-06-16T12:12:06Z</time>
      </trkpt>
      <trkpt lat="45.84824" lon="1.2324">
        <ele>263.3</ele>
        <time>2025-06-16T12:12:07Z</time>
      </trkpt>
      <trkpt lat="45.84824" lon="1.2324">
        <ele>263.3</ele>
        <time>2025-06-16T12:12:08Z</time>
      </trkpt>
      <trkpt lat="45.84824" lon="1.2324">
        <ele>263.3</ele>
        <time>2025-06-16T12:12:09Z</time>
      </trkpt>
      <trkpt lat="45.84824" lon="1.2324">
        <ele>263.4</ele>
        <time>2025-06-16T12:12:10Z</time>
      </trkpt>
      <trkpt lat="45.84824" lon="1.2324">
        <ele>263.4</ele>
        <time>2025-06-16T12:12:11Z</time>
      </trkpt>
      <trkpt lat="45.84824" lon="1.2324">
        <ele>263.4</ele>
        <time>2025-06-16T12:12:12Z</time>
      </trkpt>
      <trkpt lat="45.84824" lon="1.23241">
        <ele>263.4</ele>
        <time>2025-06-16T12:12:13Z</time>
      </trkpt>
      <trkpt lat="45.84824" lon="1.2324">
        <ele>263.4</ele>
        <time>2025-06-16T12:12:14Z</time>
      </trkpt>
      <trkpt lat="45.84824" lon="1.2324">
        <ele>263.4</ele>
        <time>2025-06-16T12:12:15Z</time>
      </trkpt>
      <trkpt lat="45.84824" lon="1.2324">
        <ele>263.3</ele>
        <time>2025-06-16T12:12:16Z</time>
      </trkpt>
      <trkpt lat="45.84824" lon="1.2324">
        <ele>263.3</ele>
        <time>2025-06-16T12:12:17Z</time>
      </trkpt>
      <trkpt lat="45.84824" lon="1.2324">
        <ele>263.3</ele>
        <time>2025-06-16T12:12:18Z</time>
      </trkpt>
      <trkpt lat="45.84824" lon="1.2324">
        <ele>263.3</ele>
        <time>2025-06-16T12:12:19Z</time>
      </trkpt>
      <trkpt lat="45.84824" lon="1.2324">
        <ele>263.3</ele>
        <time>2025-06-16T12:12:20Z</time>
      </trkpt>
      <trkpt lat="45.84824" lon="1.2324">
        <ele>263.4</ele>
        <time>2025-06-16T12:12:21Z</time>
      </trkpt>
      <trkpt lat="45.84824" lon="1.2324">
        <ele>263.4</ele>
        <time>2025-06-16T12:12:22Z</time>
      </trkpt>
      <trkpt lat="45.84825" lon="1.23241">
        <ele>263.4</ele>
        <time>2025-06-16T12:12:23Z</time>
      </trkpt>
      <trkpt lat="45.84824" lon="1.23241">
        <ele>263.4</ele>
        <time>2025-06-16T12:12:24Z</time>
      </trkpt>
      <trkpt lat="45.84824" lon="1.23241">
        <ele>263.4</ele>
        <time>2025-06-16T12:12:25Z</time>
      </trkpt>
      <trkpt lat="45.84824" lon="1.23241">
        <ele>263.4</ele>
        <time>2025-06-16T12:12:26Z</time>
      </trkpt>
      <trkpt lat="45.84824" lon="1.23241">
        <ele>263.4</ele>
        <time>2025-06-16T12:12:27Z</time>
      </trkpt>
      <trkpt lat="45.84825" lon="1.23241">
        <ele>263.4</ele>
        <time>2025-06-16T12:12:28Z</time>
      </trkpt>
      <trkpt lat="45.84825" lon="1.23241">
        <ele>263.4</ele>
        <time>2025-06-16T12:12:29Z</time>
      </trkpt>
      <trkpt lat="45.84825" lon="1.23241">
        <ele>263.4</ele>
        <time>2025-06-16T12:12:30Z</time>
      </trkpt>
      <trkpt lat="45.84825" lon="1.23241">
        <ele>263.4</ele>
        <time>2025-06-16T12:12:31Z</time>
      </trkpt>
      <trkpt lat="45.84825" lon="1.23241">
        <ele>263.4</ele>
        <time>2025-06-16T12:12:32Z</time>
      </trkpt>
      <trkpt lat="45.84825" lon="1.23241">
        <ele>263.4</ele>
        <time>2025-06-16T12:12:33Z</time>
      </trkpt>
      <trkpt lat="45.84825" lon="1.23242">
        <ele>263.4</ele>
        <time>2025-06-16T12:12:34Z</time>
      </trkpt>
      <trkpt lat="45.84824" lon="1.23243">
        <ele>263.4</ele>
        <time>2025-06-16T12:12:35Z</time>
      </trkpt>
      <trkpt lat="45.84825" lon="1.23244">
        <ele>263.4</ele>
        <time>2025-06-16T12:12:36Z</time>
      </trkpt>
      <trkpt lat="45.84826" lon="1.23246">
        <ele>263.5</ele>
        <time>2025-06-16T12:12:37Z</time>
      </trkpt>
      <trkpt lat="45.84827" lon="1.23248">
        <ele>263.6</ele>
        <time>2025-06-16T12:12:38Z</time>
      </trkpt>
      <trkpt lat="45.84828" lon="1.23248">
        <ele>263.6</ele>
        <time>2025-06-16T12:12:39Z</time>
      </trkpt>
      <trkpt lat="45.84829" lon="1.23249">
        <ele>263.7</ele>
        <time>2025-06-16T12:12:40Z</time>
      </trkpt>
      <trkpt lat="45.8483" lon="1.23253">
        <ele>264</ele>
        <time>2025-06-16T12:12:41Z</time>
      </trkpt>
      <trkpt lat="45.8483" lon="1.23255">
        <ele>264</ele>
        <time>2025-06-16T12:12:42Z</time>
      </trkpt>
      <trkpt lat="45.84829" lon="1.23259">
        <ele>264.1</ele>
        <time>2025-06-16T12:12:43Z</time>
      </trkpt>
      <trkpt lat="45.84828" lon="1.2326">
        <ele>264.1</ele>
        <time>2025-06-16T12:12:44Z</time>
      </trkpt>
      <trkpt lat="45.84828" lon="1.23263">
        <ele>264.3</ele>
        <time>2025-06-16T12:12:45Z</time>
      </trkpt>
      <trkpt lat="45.84828" lon="1.23265">
        <ele>264.3</ele>
        <time>2025-06-16T12:12:46Z</time>
      </trkpt>
      <trkpt lat="45.84828" lon="1.23268">
        <ele>264.5</ele>
        <time>2025-06-16T12:12:47Z</time>
      </trkpt>
      <trkpt lat="45.84828" lon="1.2327">
        <ele>264.5</ele>
        <time>2025-06-16T12:12:48Z</time>
      </trkpt>
      <trkpt lat="45.84829" lon="1.23273">
        <ele>264.7</ele>
        <time>2025-06-16T12:12:49Z</time>
      </trkpt>
      <trkpt lat="45.8483" lon="1.23275">
        <ele>265</ele>
        <time>2025-06-16T12:12:50Z</time>
      </trkpt>
      <trkpt lat="45.84831" lon="1.23279">
        <ele>265.2</ele>
        <time>2025-06-16T12:12:51Z</time>
      </trkpt>
      <trkpt lat="45.84832" lon="1.23281">
        <ele>265.2</ele>
        <time>2025-06-16T12:12:52Z</time>
      </trkpt>
      <trkpt lat="45.84832" lon="1.23283">
        <ele>265.5</ele>
        <time>2025-06-16T12:12:53Z</time>
      </trkpt>
      <trkpt lat="45.84833" lon="1.23285">
        <ele>265.5</ele>
        <time>2025-06-16T12:12:54Z</time>
      </trkpt>
      <trkpt lat="45.84834" lon="1.23289">
        <ele>265.7</ele>
        <time>2025-06-16T12:12:55Z</time>
      </trkpt>
      <trkpt lat="45.84834" lon="1.2329">
        <ele>265.7</ele>
        <time>2025-06-16T12:12:56Z</time>
      </trkpt>
      <trkpt lat="45.84836" lon="1.23294">
        <ele>266</ele>
        <time>2025-06-16T12:12:57Z</time>
      </trkpt>
      <trkpt lat="45.84837" lon="1.23295">
        <ele>266</ele>
        <time>2025-06-16T12:12:58Z</time>
      </trkpt>
      <trkpt lat="45.84838" lon="1.23297">
        <ele>266.2</ele>
        <time>2025-06-16T12:12:59Z</time>
      </trkpt>
      <trkpt lat="45.84838" lon="1.23299">
        <ele>266.2</ele>
        <time>2025-06-16T12:13:00Z</time>
      </trkpt>
      <trkpt lat="45.84839" lon="1.23301">
        <ele>266.4</ele>
        <time>2025-06-16T12:13:01Z</time>
      </trkpt>
      <trkpt lat="45.8484" lon="1.23303">
        <ele>266.4</ele>
        <time>2025-06-16T12:13:02Z</time>
      </trkpt>
      <trkpt lat="45.84842" lon="1.23306">
        <ele>266.6</ele>
        <time>2025-06-16T12:13:03Z</time>
      </trkpt>
      <trkpt lat="45.84843" lon="1.23307">
        <ele>266.6</ele>
        <time>2025-06-16T12:13:04Z</time>
      </trkpt>
      <trkpt lat="45.84845" lon="1.23309">
        <ele>266.6</ele>
        <time>2025-06-16T12:13:05Z</time>
      </trkpt>
      <trkpt lat="45.84845" lon="1.23311">
        <ele>266.8</ele>
        <time>2025-06-16T12:13:06Z</time>
      </trkpt>
      <trkpt lat="45.84846" lon="1.23315">
        <ele>267</ele>
        <time>2025-06-16T12:13:07Z</time>
      </trkpt>
      <trkpt lat="45.84846" lon="1.23317">
        <ele>267</ele>
        <time>2025-06-16T12:13:08Z</time>
      </trkpt>
      <trkpt lat="45.84847" lon="1.23321">
        <ele>267.2</ele>
        <time>2025-06-16T12:13:09Z</time>
      </trkpt>
      <trkpt lat="45.84847" lon="1.23323">
        <ele>267.3</ele>
        <time>2025-06-16T12:13:10Z</time>
      </trkpt>
      <trkpt lat="45.84847" lon="1.23324">
        <ele>267.3</ele>
        <time>2025-06-16T12:13:11Z</time>
      </trkpt>
      <trkpt lat="45.84848" lon="1.23325">
        <ele>267.3</ele>
        <time>2025-06-16T12:13:12Z</time>
      </trkpt>
      <trkpt lat="45.84849" lon="1.23325">
        <ele>267.3</ele>
        <time>2025-06-16T12:13:13Z</time>
      </trkpt>
      <trkpt lat="45.84849" lon="1.23323">
        <ele>267.3</ele>
        <time>2025-06-16T12:13:14Z</time>
      </trkpt>
      <trkpt lat="45.84849" lon="1.23321">
        <ele>267.1</ele>
        <time>2025-06-16T12:13:15Z</time>
      </trkpt>
      <trkpt lat="45.84849" lon="1.23319">
        <ele>267.1</ele>
        <time>2025-06-16T12:13:16Z</time>
      </trkpt>
      <trkpt lat="45.84849" lon="1.23317">
        <ele>267</ele>
        <time>2025-06-16T12:13:17Z</time>
      </trkpt>
      <trkpt lat="45.84847" lon="1.23313">
        <ele>266.8</ele>
        <time>2025-06-16T12:13:18Z</time>
      </trkpt>
      <trkpt lat="45.84846" lon="1.23311">
        <ele>266.8</ele>
        <time>2025-06-16T12:13:19Z</time>
      </trkpt>
      <trkpt lat="45.84843" lon="1.23308">
        <ele>266.6</ele>
        <time>2025-06-16T12:13:20Z</time>
      </trkpt>
      <trkpt lat="45.84841" lon="1.23305">
        <ele>266.6</ele>
        <time>2025-06-16T12:13:21Z</time>
      </trkpt>
      <trkpt lat="45.84839" lon="1.23302">
        <ele>266.4</ele>
        <time>2025-06-16T12:13:22Z</time>
      </trkpt>
      <trkpt lat="45.84837" lon="1.23299">
        <ele>266.2</ele>
        <time>2025-06-16T12:13:23Z</time>
      </trkpt>
      <trkpt lat="45.84835" lon="1.23294">
        <ele>265.9</ele>
        <time>2025-06-16T12:13:24Z</time>
      </trkpt>
      <trkpt lat="45.84834" lon="1.23292">
        <ele>265.9</ele>
        <time>2025-06-16T12:13:25Z</time>
      </trkpt>
      <trkpt lat="45.84833" lon="1.23289">
        <ele>265.7</ele>
        <time>2025-06-16T12:13:26Z</time>
      </trkpt>
      <trkpt lat="45.84832" lon="1.23287">
        <ele>265.7</ele>
        <time>2025-06-16T12:13:27Z</time>
      </trkpt>
      <trkpt lat="45.84831" lon="1.23283">
        <ele>265.4</ele>
        <time>2025-06-16T12:13:28Z</time>
      </trkpt>
      <trkpt lat="45.84831" lon="1.23282">
        <ele>265.2</ele>
        <time>2025-06-16T12:13:29Z</time>
      </trkpt>
      <trkpt lat="45.8483" lon="1.23277">
        <ele>264.9</ele>
        <time>2025-06-16T12:13:30Z</time>
      </trkpt>
      <trkpt lat="45.8483" lon="1.23275">
        <ele>264.9</ele>
        <time>2025-06-16T12:13:31Z</time>
      </trkpt>
      <trkpt lat="45.8483" lon="1.23271">
        <ele>264.7</ele>
        <time>2025-06-16T12:13:32Z</time>
      </trkpt>
      <trkpt lat="45.8483" lon="1.23269">
        <ele>264.5</ele>
        <time>2025-06-16T12:13:33Z</time>
      </trkpt>
      <trkpt lat="45.8483" lon="1.23265">
        <ele>264.3</ele>
        <time>2025-06-16T12:13:34Z</time>
      </trkpt>
      <trkpt lat="45.8483" lon="1.23261">
        <ele>264.1</ele>
        <time>2025-06-16T12:13:35Z</time>
      </trkpt>
      <trkpt lat="45.84831" lon="1.23256">
        <ele>263.9</ele>
        <time>2025-06-16T12:13:36Z</time>
      </trkpt>
      <trkpt lat="45.84831" lon="1.23255">
        <ele>263.9</ele>
        <time>2025-06-16T12:13:37Z</time>
      </trkpt>
      <trkpt lat="45.84829" lon="1.23251">
        <ele>263.7</ele>
        <time>2025-06-16T12:13:38Z</time>
      </trkpt>
      <trkpt lat="45.84828" lon="1.23251">
        <ele>263.7</ele>
        <time>2025-06-16T12:13:39Z</time>
      </trkpt>
      <trkpt lat="45.84825" lon="1.23251">
        <ele>263.6</ele>
        <time>2025-06-16T12:13:40Z</time>
      </trkpt>
      <trkpt lat="45.84825" lon="1.2325">
        <ele>263.6</ele>
        <time>2025-06-16T12:13:41Z</time>
      </trkpt>
      <trkpt lat="45.84824" lon="1.2325">
        <ele>263.6</ele>
        <time>2025-06-16T12:13:42Z</time>
      </trkpt>
      <trkpt lat="45.84823" lon="1.23248">
        <ele>263.4</ele>
        <time>2025-06-16T12:13:43Z</time>
      </trkpt>
      <trkpt lat="45.84821" lon="1.23246">
        <ele>263.4</ele>
        <time>2025-06-16T12:13:44Z</time>
      </trkpt>
      <trkpt lat="45.84819" lon="1.23246">
        <ele>263.3</ele>
        <time>2025-06-16T12:13:45Z</time>
      </trkpt>
      <trkpt lat="45.84818" lon="1.23246">
        <ele>263.3</ele>
        <time>2025-06-16T12:13:46Z</time>
      </trkpt>
      <trkpt lat="45.84817" lon="1.23247">
        <ele>263.3</ele>
        <time>2025-06-16T12:13:47Z</time>
      </trkpt>
      <trkpt lat="45.84817" lon="1.23247">
        <ele>263.3</ele>
        <time>2025-06-16T12:13:48Z</time>
      </trkpt>
      <trkpt lat="45.84818" lon="1.23248">
        <ele>263.3</ele>
        <time>2025-06-16T12:13:49Z</time>
      </trkpt>
      <trkpt lat="45.84818" lon="1.23248">
        <ele>263.3</ele>
        <time>2025-06-16T12:13:50Z</time>
      </trkpt>
      <trkpt lat="45.84819" lon="1.23247">
        <ele>263.3</ele>
        <time>2025-06-16T12:13:51Z</time>
      </trkpt>
      <trkpt lat="45.8482" lon="1.23247">
        <ele>263.3</ele>
        <time>2025-06-16T12:13:52Z</time>
      </trkpt>
      <trkpt lat="45.8482" lon="1.23246">
        <ele>263.3</ele>
        <time>2025-06-16T12:13:53Z</time>
      </trkpt>
      <trkpt lat="45.84821" lon="1.23246">
        <ele>263.4</ele>
        <time>2025-06-16T12:13:54Z</time>
      </trkpt>
      <trkpt lat="45.84821" lon="1.23246">
        <ele>263.4</ele>
        <time>2025-06-16T12:13:55Z</time>
      </trkpt>
      <trkpt lat="45.84821" lon="1.23246">
        <ele>263.4</ele>
        <time>2025-06-16T12:13:56Z</time>
      </trkpt>
      <trkpt lat="45.84821" lon="1.23246">
        <ele>263.3</ele>
        <time>2025-06-16T12:13:57Z</time>
      </trkpt>
      <trkpt lat="45.84821" lon="1.23246">
        <ele>263.3</ele>
        <time>2025-06-16T12:13:58Z</time>
      </trkpt>
      <trkpt lat="45.84821" lon="1.23246">
        <ele>263.3</ele>
        <time>2025-06-16T12:13:59Z</time>
      </trkpt>
      <trkpt lat="45.84821" lon="1.23246">
        <ele>263.3</ele>
        <time>2025-06-16T12:14:00Z</time>
      </trkpt>
      <trkpt lat="45.84821" lon="1.23246">
        <ele>263.3</ele>
        <time>2025-06-16T12:14:01Z</time>
      </trkpt>
      <trkpt lat="45.84821" lon="1.23246">
        <ele>263.3</ele>
        <time>2025-06-16T12:14:02Z</time>
      </trkpt>
      <trkpt lat="45.84821" lon="1.23246">
        <ele>263.3</ele>
        <time>2025-06-16T12:14:03Z</time>
      </trkpt>
      <trkpt lat="45.84821" lon="1.23246">
        <ele>263.3</ele>
        <time>2025-06-16T12:14:04Z</time>
      </trkpt>
      <trkpt lat="45.84821" lon="1.23246">
        <ele>263.3</ele>
        <time>2025-06-16T12:14:05Z</time>
      </trkpt>
      <trkpt lat="45.84821" lon="1.23246">
        <ele>263.3</ele>
        <time>2025-06-16T12:14:06Z</time>
      </trkpt>
      <trkpt lat="45.84821" lon="1.23246">
        <ele>263.3</ele>
        <time>2025-06-16T12:14:07Z</time>
      </trkpt>
      <trkpt lat="45.84821" lon="1.23246">
        <ele>263.3</ele>
        <time>2025-06-16T12:14:08Z</time>
      </trkpt>
      <trkpt lat="45.84822" lon="1.23246">
        <ele>263.3</ele>
        <time>2025-06-16T12:14:09Z</time>
      </trkpt>
      <trkpt lat="45.84821" lon="1.23245">
        <ele>263.3</ele>
        <time>2025-06-16T12:14:10Z</time>
      </trkpt>
      <trkpt lat="45.8482" lon="1.23245">
        <ele>263.3</ele>
        <time>2025-06-16T12:14:11Z</time>
      </trkpt>
      <trkpt lat="45.84819" lon="1.23244">
        <ele>263.2</ele>
        <time>2025-06-16T12:14:12Z</time>
      </trkpt>
      <trkpt lat="45.84819" lon="1.23243">
        <ele>263.2</ele>
        <time>2025-06-16T12:14:13Z</time>
      </trkpt>
      <trkpt lat="45.84818" lon="1.23243">
        <ele>263.2</ele>
        <time>2025-06-16T12:14:14Z</time>
      </trkpt>
      <trkpt lat="45.84818" lon="1.23242">
        <ele>263.2</ele>
        <time>2025-06-16T12:14:15Z</time>
      </trkpt>
      <trkpt lat="45.84818" lon="1.23242">
        <ele>263.1</ele>
        <time>2025-06-16T12:14:16Z</time>
      </trkpt>
      <trkpt lat="45.84817" lon="1.23242">
        <ele>263.1</ele>
        <time>2025-06-16T12:14:17Z</time>
      </trkpt>
      <trkpt lat="45.84817" lon="1.23242">
        <ele>263.1</ele>
        <time>2025-06-16T12:14:18Z</time>
      </trkpt>
      <trkpt lat="45.84817" lon="1.23241">
        <ele>263.1</ele>
        <time>2025-06-16T12:14:19Z</time>
      </trkpt>
      <trkpt lat="45.84817" lon="1.23241">
        <ele>263.1</ele>
        <time>2025-06-16T12:14:20Z</time>
      </trkpt>
      <trkpt lat="45.84817" lon="1.23241">
        <ele>263.1</ele>
        <time>2025-06-16T12:14:21Z</time>
      </trkpt>
      <trkpt lat="45.84816" lon="1.23241">
        <ele>263.1</ele>
        <time>2025-06-16T12:14:22Z</time>
      </trkpt>
      <trkpt lat="45.84816" lon="1.23241">
        <ele>263.1</ele>
        <time>2025-06-16T12:14:23Z</time>
      </trkpt>
      <trkpt lat="45.84816" lon="1.23242">
        <ele>263</ele>
        <time>2025-06-16T12:14:24Z</time>
      </trkpt>
      <trkpt lat="45.84816" lon="1.23242">
        <ele>263</ele>
        <time>2025-06-16T12:14:25Z</time>
      </trkpt>
      <trkpt lat="45.84816" lon="1.23242">
        <ele>263</ele>
        <time>2025-06-16T12:14:26Z</time>
      </trkpt>
      <trkpt lat="45.84817" lon="1.23243">
        <ele>263</ele>
        <time>2025-06-16T12:14:27Z</time>
      </trkpt>
      <trkpt lat="45.84817" lon="1.23243">
        <ele>263</ele>
        <time>2025-06-16T12:14:28Z</time>
      </trkpt>
      <trkpt lat="45.84817" lon="1.23244">
        <ele>263</ele>
        <time>2025-06-16T12:14:29Z</time>
      </trkpt>
      <trkpt lat="45.84817" lon="1.23244">
        <ele>263</ele>
        <time>2025-06-16T12:14:30Z</time>
      </trkpt>
      <trkpt lat="45.84817" lon="1.23245">
        <ele>263</ele>
        <time>2025-06-16T12:14:31Z</time>
      </trkpt>
      <trkpt lat="45.84817" lon="1.23245">
        <ele>262.9</ele>
        <time>2025-06-16T12:14:32Z</time>
      </trkpt>
      <trkpt lat="45.84817" lon="1.23246">
        <ele>262.9</ele>
        <time>2025-06-16T12:14:33Z</time>
      </trkpt>
      <trkpt lat="45.84817" lon="1.23246">
        <ele>262.9</ele>
        <time>2025-06-16T12:14:34Z</time>
      </trkpt>
      <trkpt lat="45.84818" lon="1.23247">
        <ele>262.9</ele>
        <time>2025-06-16T12:14:35Z</time>
      </trkpt>
      <trkpt lat="45.84818" lon="1.23248">
        <ele>262.9</ele>
        <time>2025-06-16T12:14:36Z</time>
      </trkpt>
      <trkpt lat="45.84818" lon="1.23248">
        <ele>262.8</ele>
        <time>2025-06-16T12:14:37Z</time>
      </trkpt>
      <trkpt lat="45.84818" lon="1.23248">
        <ele>262.8</ele>
        <time>2025-06-16T12:14:38Z</time>
      </trkpt>
      <trkpt lat="45.84818" lon="1.23249">
        <ele>262.8</ele>
        <time>2025-06-16T12:14:39Z</time>
      </trkpt>
      <trkpt lat="45.84818" lon="1.2325">
        <ele>262.8</ele>
        <time>2025-06-16T12:14:40Z</time>
      </trkpt>
      <trkpt lat="45.84818" lon="1.2325">
        <ele>262.8</ele>
        <time>2025-06-16T12:14:41Z</time>
      </trkpt>
      <trkpt lat="45.84818" lon="1.2325">
        <ele>262.8</ele>
        <time>2025-06-16T12:14:42Z</time>
      </trkpt>
      <trkpt lat="45.84818" lon="1.2325">
        <ele>262.8</ele>
        <time>2025-06-16T12:14:43Z</time>
      </trkpt>
      <trkpt lat="45.84818" lon="1.2325">
        <ele>262.8</ele>
        <time>2025-06-16T12:14:44Z</time>
      </trkpt>
      <trkpt lat="45.84818" lon="1.2325">
        <ele>262.8</ele>
        <time>2025-06-16T12:14:45Z</time>
      </trkpt>
      <trkpt lat="45.84818" lon="1.23249">
        <ele>262.7</ele>
        <time>2025-06-16T12:14:46Z</time>
      </trkpt>
      <trkpt lat="45.84818" lon="1.23249">
        <ele>262.7</ele>
        <time>2025-06-16T12:14:47Z</time>
      </trkpt>
      <trkpt lat="45.84818" lon="1.23249">
        <ele>262.7</ele>
        <time>2025-06-16T12:14:48Z</time>
      </trkpt>
      <trkpt lat="45.84818" lon="1.23248">
        <ele>262.7</ele>
        <time>2025-06-16T12:14:49Z</time>
      </trkpt>
      <trkpt lat="45.84818" lon="1.23247">
        <ele>262.7</ele>
        <time>2025-06-16T12:14:50Z</time>
      </trkpt>
      <trkpt lat="45.84818" lon="1.23246">
        <ele>262.7</ele>
        <time>2025-06-16T12:14:51Z</time>
      </trkpt>
      <trkpt lat="45.84818" lon="1.23246">
        <ele>262.6</ele>
        <time>2025-06-16T12:14:52Z</time>
      </trkpt>
      <trkpt lat="45.84818" lon="1.23245">
        <ele>262.6</ele>
        <time>2025-06-16T12:14:53Z</time>
      </trkpt>
      <trkpt lat="45.84818" lon="1.23244">
        <ele>262.6</ele>
        <time>2025-06-16T12:14:54Z</time>
      </trkpt>
      <trkpt lat="45.84818" lon="1.23242">
        <ele>262.5</ele>
        <time>2025-06-16T12:14:55Z</time>
      </trkpt>
      <trkpt lat="45.84818" lon="1.2324">
        <ele>262.5</ele>
        <time>2025-06-16T12:14:56Z</time>
      </trkpt>
      <trkpt lat="45.84818" lon="1.23239">
        <ele>262.5</ele>
        <time>2025-06-16T12:14:57Z</time>
      </trkpt>
      <trkpt lat="45.84818" lon="1.23239">
        <ele>262.5</ele>
        <time>2025-06-16T12:14:58Z</time>
      </trkpt>
      <trkpt lat="45.84818" lon="1.23238">
        <ele>262.5</ele>
        <time>2025-06-16T12:14:59Z</time>
      </trkpt>
      <trkpt lat="45.84817" lon="1.23238">
        <ele>262.4</ele>
        <time>2025-06-16T12:15:00Z</time>
      </trkpt>
      <trkpt lat="45.84818" lon="1.23238">
        <ele>262.4</ele>
        <time>2025-06-16T12:15:01Z</time>
      </trkpt>
      <trkpt lat="45.84818" lon="1.23238">
        <ele>262.4</ele>
        <time>2025-06-16T12:15:02Z</time>
      </trkpt>
      <trkpt lat="45.84818" lon="1.23239">
        <ele>262.4</ele>
        <time>2025-06-16T12:15:03Z</time>
      </trkpt>
      <trkpt lat="45.84818" lon="1.23239">
        <ele>262.4</ele>
        <time>2025-06-16T12:15:04Z</time>
      </trkpt>
      <trkpt lat="45.84818" lon="1.23239">
        <ele>262.4</ele>
        <time>2025-06-16T12:15:05Z</time>
      </trkpt>
      <trkpt lat="45.84818" lon="1.23239">
        <ele>262.4</ele>
        <time>2025-06-16T12:15:06Z</time>
      </trkpt>
      <trkpt lat="45.84818" lon="1.23239">
        <ele>262.4</ele>
        <time>2025-06-16T12:15:07Z</time>
      </trkpt>
      <trkpt lat="45.84818" lon="1.23239">
        <ele>262.4</ele>
        <time>2025-06-16T12:15:08Z</time>
      </trkpt>
      <trkpt lat="45.84818" lon="1.23239">
        <ele>262.4</ele>
        <time>2025-06-16T12:15:09Z</time>
      </trkpt>
      <trkpt lat="45.84818" lon="1.23239">
        <ele>262.4</ele>
        <time>2025-06-16T12:15:10Z</time>
      </trkpt>
      <trkpt lat="45.84818" lon="1.23239">
        <ele>262.4</ele>
        <time>2025-06-16T12:15:11Z</time>
      </trkpt>
      <trkpt lat="45.84818" lon="1.23239">
        <ele>262.4</ele>
        <time>2025-06-16T12:15:12Z</time>
      </trkpt>
      <trkpt lat="45.84818" lon="1.23239">
        <ele>262.4</ele>
        <time>2025-06-16T12:15:13Z</time>
      </trkpt>
      <trkpt lat="45.84818" lon="1.23239">
        <ele>262.4</ele>
        <time>2025-06-16T12:15:14Z</time>
      </trkpt>
      <trkpt lat="45.84818" lon="1.23239">
        <ele>262.4</ele>
        <time>2025-06-16T12:15:15Z</time>
      </trkpt>
      <trkpt lat="45.84817" lon="1.23239">
        <ele>262.4</ele>
        <time>2025-06-16T12:15:16Z</time>
      </trkpt>
      <trkpt lat="45.84817" lon="1.23239">
        <ele>262.4</ele>
        <time>2025-06-16T12:15:17Z</time>
      </trkpt>
      <trkpt lat="45.84817" lon="1.23239">
        <ele>262.4</ele>
        <time>2025-06-16T12:15:18Z</time>
      </trkpt>
      <trkpt lat="45.84816" lon="1.23239">
        <ele>262.3</ele>
        <time>2025-06-16T12:15:19Z</time>
      </trkpt>
      <trkpt lat="45.84816" lon="1.23239">
        <ele>262.3</ele>
        <time>2025-06-16T12:15:20Z</time>
      </trkpt>
      <trkpt lat="45.84816" lon="1.23239">
        <ele>262.3</ele>
        <time>2025-06-16T12:15:21Z</time>
      </trkpt>
      <trkpt lat="45.84816" lon="1.23239">
        <ele>262.3</ele>
        <time>2025-06-16T12:15:22Z</time>
      </trkpt>
      <trkpt lat="45.84815" lon="1.23239">
        <ele>262.3</ele>
        <time>2025-06-16T12:15:23Z</time>
      </trkpt>
      <trkpt lat="45.84815" lon="1.23239">
        <ele>262.3</ele>
        <time>2025-06-16T12:15:24Z</time>
      </trkpt>
      <trkpt lat="45.84815" lon="1.23239">
        <ele>262.3</ele>
        <time>2025-06-16T12:15:25Z</time>
      </trkpt>
      <trkpt lat="45.84815" lon="1.2324">
        <ele>262.3</ele>
        <time>2025-06-16T12:15:26Z</time>
      </trkpt>
      <trkpt lat="45.84815" lon="1.2324">
        <ele>262.3</ele>
        <time>2025-06-16T12:15:27Z</time>
      </trkpt>
      <trkpt lat="45.84815" lon="1.2324">
        <ele>262.3</ele>
        <time>2025-06-16T12:15:28Z</time>
      </trkpt>
      <trkpt lat="45.84815" lon="1.2324">
        <ele>262.3</ele>
        <time>2025-06-16T12:15:29Z</time>
      </trkpt>
      <trkpt lat="45.84815" lon="1.2324">
        <ele>262.3</ele>
        <time>2025-06-16T12:15:30Z</time>
      </trkpt>
      <trkpt lat="45.84815" lon="1.23241">
        <ele>262.3</ele>
        <time>2025-06-16T12:15:31Z</time>
      </trkpt>
      <trkpt lat="45.84815" lon="1.23241">
        <ele>262.3</ele>
        <time>2025-06-16T12:15:32Z</time>
      </trkpt>
      <trkpt lat="45.84814" lon="1.23241">
        <ele>262.3</ele>
        <time>2025-06-16T12:15:33Z</time>
      </trkpt>
      <trkpt lat="45.84814" lon="1.23242">
        <ele>262.3</ele>
        <time>2025-06-16T12:15:34Z</time>
      </trkpt>
      <trkpt lat="45.84814" lon="1.23241">
        <ele>262.3</ele>
        <time>2025-06-16T12:15:35Z</time>
      </trkpt>
      <trkpt lat="45.84814" lon="1.2324">
        <ele>262.2</ele>
        <time>2025-06-16T12:15:36Z</time>
      </trkpt>
      <trkpt lat="45.84814" lon="1.2324">
        <ele>262.2</ele>
        <time>2025-06-16T12:15:37Z</time>
      </trkpt>
      <trkpt lat="45.84814" lon="1.2324">
        <ele>262.2</ele>
        <time>2025-06-16T12:15:38Z</time>
      </trkpt>
      <trkpt lat="45.84814" lon="1.2324">
        <ele>262.2</ele>
        <time>2025-06-16T12:15:39Z</time>
      </trkpt>
      <trkpt lat="45.84814" lon="1.23239">
        <ele>262.2</ele>
        <time>2025-06-16T12:15:40Z</time>
      </trkpt>
      <trkpt lat="45.84814" lon="1.23239">
        <ele>262.2</ele>
        <time>2025-06-16T12:15:41Z</time>
      </trkpt>
      <trkpt lat="45.84814" lon="1.23238">
        <ele>262.2</ele>
        <time>2025-06-16T12:15:42Z</time>
      </trkpt>
      <trkpt lat="45.84813" lon="1.23238">
        <ele>262.2</ele>
        <time>2025-06-16T12:15:43Z</time>
      </trkpt>
      <trkpt lat="45.84814" lon="1.23238">
        <ele>262.2</ele>
        <time>2025-06-16T12:15:44Z</time>
      </trkpt>
      <trkpt lat="45.84814" lon="1.23238">
        <ele>262.2</ele>
        <time>2025-06-16T12:15:45Z</time>
      </trkpt>
      <trkpt lat="45.84814" lon="1.23238">
        <ele>262.2</ele>
        <time>2025-06-16T12:15:46Z</time>
      </trkpt>
      <trkpt lat="45.84814" lon="1.23239">
        <ele>262.2</ele>
        <time>2025-06-16T12:15:47Z</time>
      </trkpt>
      <trkpt lat="45.84814" lon="1.23239">
        <ele>262.2</ele>
        <time>2025-06-16T12:15:48Z</time>
      </trkpt>
      <trkpt lat="45.84814" lon="1.23239">
        <ele>262.2</ele>
        <time>2025-06-16T12:15:49Z</time>
      </trkpt>
      <trkpt lat="45.84815" lon="1.23239">
        <ele>262.2</ele>
        <time>2025-06-16T12:15:50Z</time>
      </trkpt>
      <trkpt lat="45.84815" lon="1.2324">
        <ele>262.2</ele>
        <time>2025-06-16T12:15:51Z</time>
      </trkpt>
      <trkpt lat="45.84815" lon="1.2324">
        <ele>262.2</ele>
        <time>2025-06-16T12:15:52Z</time>
      </trkpt>
      <trkpt lat="45.84816" lon="1.23241">
        <ele>262.2</ele>
        <time>2025-06-16T12:15:53Z</time>
      </trkpt>
      <trkpt lat="45.84816" lon="1.23241">
        <ele>262.1</ele>
        <time>2025-06-16T12:15:54Z</time>
      </trkpt>
      <trkpt lat="45.84816" lon="1.23241">
        <ele>262.1</ele>
        <time>2025-06-16T12:15:55Z</time>
      </trkpt>
      <trkpt lat="45.84816" lon="1.23241">
        <ele>262.1</ele>
        <time>2025-06-16T12:15:56Z</time>
      </trkpt>
      <trkpt lat="45.84816" lon="1.23241">
        <ele>262.1</ele>
        <time>2025-06-16T12:15:57Z</time>
      </trkpt>
      <trkpt lat="45.84816" lon="1.23241">
        <ele>262.1</ele>
        <time>2025-06-16T12:15:58Z</time>
      </trkpt>
      <trkpt lat="45.84816" lon="1.23241">
        <ele>262.1</ele>
        <time>2025-06-16T12:15:59Z</time>
      </trkpt>
      <trkpt lat="45.84816" lon="1.23241">
        <ele>262.1</ele>
        <time>2025-06-16T12:16:00Z</time>
      </trkpt>
      <trkpt lat="45.84816" lon="1.23241">
        <ele>262.1</ele>
        <time>2025-06-16T12:16:01Z</time>
      </trkpt>
      <trkpt lat="45.84816" lon="1.23241">
        <ele>262.1</ele>
        <time>2025-06-16T12:16:02Z</time>
      </trkpt>
      <trkpt lat="45.84816" lon="1.23241">
        <ele>262.1</ele>
        <time>2025-06-16T12:16:03Z</time>
      </trkpt>
      <trkpt lat="45.84816" lon="1.23241">
        <ele>262.1</ele>
        <time>2025-06-16T12:16:04Z</time>
      </trkpt>
      <trkpt lat="45.84816" lon="1.23241">
        <ele>262.1</ele>
        <time>2025-06-16T12:16:05Z</time>
      </trkpt>
      <trkpt lat="45.84816" lon="1.23241">
        <ele>262.1</ele>
        <time>2025-06-16T12:16:06Z</time>
      </trkpt>
      <trkpt lat="45.84816" lon="1.23241">
        <ele>262.1</ele>
        <time>2025-06-16T12:16:07Z</time>
      </trkpt>
      <trkpt lat="45.84816" lon="1.23242">
        <ele>262.1</ele>
        <time>2025-06-16T12:16:08Z</time>
      </trkpt>
      <trkpt lat="45.84816" lon="1.23242">
        <ele>262.1</ele>
        <time>2025-06-16T12:16:09Z</time>
      </trkpt>
      <trkpt lat="45.84816" lon="1.23242">
        <ele>262.1</ele>
        <time>2025-06-16T12:16:10Z</time>
      </trkpt>
      <trkpt lat="45.84816" lon="1.23243">
        <ele>262.1</ele>
        <time>2025-06-16T12:16:11Z</time>
      </trkpt>
      <trkpt lat="45.84817" lon="1.23243">
        <ele>262.1</ele>
        <time>2025-06-16T12:16:12Z</time>
      </trkpt>
      <trkpt lat="45.84817" lon="1.23244">
        <ele>262.1</ele>
        <time>2025-06-16T12:16:13Z</time>
      </trkpt>
      <trkpt lat="45.84817" lon="1.23244">
        <ele>262.1</ele>
        <time>2025-06-16T12:16:14Z</time>
      </trkpt>
      <trkpt lat="45.84817" lon="1.23244">
        <ele>262.1</ele>
        <time>2025-06-16T12:16:15Z</time>
      </trkpt>
      <trkpt lat="45.84817" lon="1.23243">
        <ele>262.1</ele>
        <time>2025-06-16T12:16:16Z</time>
      </trkpt>
      <trkpt lat="45.84817" lon="1.23243">
        <ele>262.1</ele>
        <time>2025-06-16T12:16:17Z</time>
      </trkpt>
      <trkpt lat="45.84817" lon="1.23243">
        <ele>262.1</ele>
        <time>2025-06-16T12:16:18Z</time>
      </trkpt>
      <trkpt lat="45.84817" lon="1.23244">
        <ele>262.1</ele>
        <time>2025-06-16T12:16:19Z</time>
      </trkpt>
      <trkpt lat="45.84817" lon="1.23244">
        <ele>262.1</ele>
        <time>2025-06-16T12:16:20Z</time>
      </trkpt>
      <trkpt lat="45.84817" lon="1.23244">
        <ele>262.1</ele>
        <time>2025-06-16T12:16:21Z</time>
      </trkpt>
      <trkpt lat="45.84817" lon="1.23244">
        <ele>262.1</ele>
        <time>2025-06-16T12:16:22Z</time>
      </trkpt>
      <trkpt lat="45.84817" lon="1.23244">
        <ele>262.1</ele>
        <time>2025-06-16T12:16:23Z</time>
      </trkpt>
      <trkpt lat="45.84817" lon="1.23244">
        <ele>262.1</ele>
        <time>2025-06-16T12:16:24Z</time>
      </trkpt>
      <trkpt lat="45.84817" lon="1.23244">
        <ele>262.1</ele>
        <time>2025-06-16T12:16:25Z</time>
      </trkpt>
      <trkpt lat="45.84817" lon="1.23244">
        <ele>262.1</ele>
        <time>2025-06-16T12:16:26Z</time>
      </trkpt>
      <trkpt lat="45.84817" lon="1.23244">
        <ele>262.1</ele>
        <time>2025-06-16T12:16:27Z</time>
      </trkpt>
      <trkpt lat="45.84817" lon="1.23244">
        <ele>262.1</ele>
        <time>2025-06-16T12:16:28Z</time>
      </trkpt>
      <trkpt lat="45.84817" lon="1.23244">
        <ele>262.1</ele>
        <time>2025-06-16T12:16:29Z</time>
      </trkpt>
      <trkpt lat="45.84817" lon="1.23244">
        <ele>262.1</ele>
        <time>2025-06-16T12:16:30Z</time>
      </trkpt>
      <trkpt lat="45.84817" lon="1.23242">
        <ele>262.1</ele>
        <time>2025-06-16T12:16:31Z</time>
      </trkpt>
      <trkpt lat="45.84817" lon="1.23242">
        <ele>262.1</ele>
        <time>2025-06-16T12:16:32Z</time>
      </trkpt>
      <trkpt lat="45.84817" lon="1.2324">
        <ele>262.1</ele>
        <time>2025-06-16T12:16:33Z</time>
      </trkpt>
      <trkpt lat="45.84817" lon="1.2324">
        <ele>262.1</ele>
        <time>2025-06-16T12:16:34Z</time>
      </trkpt>
      <trkpt lat="45.84817" lon="1.2324">
        <ele>262.1</ele>
        <time>2025-06-16T12:16:35Z</time>
      </trkpt>
      <trkpt lat="45.84817" lon="1.2324">
        <ele>262.1</ele>
        <time>2025-06-16T12:16:36Z</time>
      </trkpt>
      <trkpt lat="45.84817" lon="1.23239">
        <ele>262.1</ele>
        <time>2025-06-16T12:16:37Z</time>
      </trkpt>
      <trkpt lat="45.84816" lon="1.23238">
        <ele>262.1</ele>
        <time>2025-06-16T12:16:38Z</time>
      </trkpt>
      <trkpt lat="45.84816" lon="1.23238">
        <ele>262.1</ele>
        <time>2025-06-16T12:16:39Z</time>
      </trkpt>
      <trkpt lat="45.84816" lon="1.23238">
        <ele>262.1</ele>
        <time>2025-06-16T12:16:40Z</time>
      </trkpt>
      <trkpt lat="45.84816" lon="1.23238">
        <ele>262.1</ele>
        <time>2025-06-16T12:16:41Z</time>
      </trkpt>
      <trkpt lat="45.84816" lon="1.23238">
        <ele>262.1</ele>
        <time>2025-06-16T12:16:42Z</time>
      </trkpt>
      <trkpt lat="45.84817" lon="1.23238">
        <ele>262.1</ele>
        <time>2025-06-16T12:16:43Z</time>
      </trkpt>
      <trkpt lat="45.84817" lon="1.23239">
        <ele>262</ele>
        <time>2025-06-16T12:16:44Z</time>
      </trkpt>
      <trkpt lat="45.84817" lon="1.23239">
        <ele>262</ele>
        <time>2025-06-16T12:16:45Z</time>
      </trkpt>
      <trkpt lat="45.84817" lon="1.23239">
        <ele>262</ele>
        <time>2025-06-16T12:16:46Z</time>
      </trkpt>
      <trkpt lat="45.84817" lon="1.23239">
        <ele>262</ele>
        <time>2025-06-16T12:16:47Z</time>
      </trkpt>
      <trkpt lat="45.84816" lon="1.23239">
        <ele>262</ele>
        <time>2025-06-16T12:16:48Z</time>
      </trkpt>
      <trkpt lat="45.84816" lon="1.23238">
        <ele>262</ele>
        <time>2025-06-16T12:16:49Z</time>
      </trkpt>
      <trkpt lat="45.84816" lon="1.23238">
        <ele>262</ele>
        <time>2025-06-16T12:16:50Z</time>
      </trkpt>
      <trkpt lat="45.84816" lon="1.23238">
        <ele>262</ele>
        <time>2025-06-16T12:16:51Z</time>
      </trkpt>
      <trkpt lat="45.84816" lon="1.23238">
        <ele>262</ele>
        <time>2025-06-16T12:16:52Z</time>
      </trkpt>
      <trkpt lat="45.84816" lon="1.23238">
        <ele>262</ele>
        <time>2025-06-16T12:16:53Z</time>
      </trkpt>
      <trkpt lat="45.84816" lon="1.23237">
        <ele>262</ele>
        <time>2025-06-16T12:16:54Z</time>
      </trkpt>
      <trkpt lat="45.84816" lon="1.23238">
        <ele>262</ele>
        <time>2025-06-16T12:16:55Z</time>
      </trkpt>
      <trkpt lat="45.84816" lon="1.23238">
        <ele>262</ele>
        <time>2025-06-16T12:16:56Z</time>
      </trkpt>
      <trkpt lat="45.84816" lon="1.23239">
        <ele>262</ele>
        <time>2025-06-16T12:16:57Z</time>
      </trkpt>
      <trkpt lat="45.84816" lon="1.23239">
        <ele>262</ele>
        <time>2025-06-16T12:16:58Z</time>
      </trkpt>
      <trkpt lat="45.84816" lon="1.23239">
        <ele>262</ele>
        <time>2025-06-16T12:16:59Z</time>
      </trkpt>
      <trkpt lat="45.84816" lon="1.23239">
        <ele>262</ele>
        <time>2025-06-16T12:17:00Z</time>
      </trkpt>
      <trkpt lat="45.84816" lon="1.23239">
        <ele>262</ele>
        <time>2025-06-16T12:17:01Z</time>
      </trkpt>
      <trkpt lat="45.84816" lon="1.23239">
        <ele>262</ele>
        <time>2025-06-16T12:17:02Z</time>
      </trkpt>
      <trkpt lat="45.84816" lon="1.2324">
        <ele>262</ele>
        <time>2025-06-16T12:17:03Z</time>
      </trkpt>
      <trkpt lat="45.84816" lon="1.2324">
        <ele>262</ele>
        <time>2025-06-16T12:17:04Z</time>
      </trkpt>
      <trkpt lat="45.84816" lon="1.2324">
        <ele>262</ele>
        <time>2025-06-16T12:17:05Z</time>
      </trkpt>
      <trkpt lat="45.84816" lon="1.2324">
        <ele>262</ele>
        <time>2025-06-16T12:17:06Z</time>
      </trkpt>
      <trkpt lat="45.84816" lon="1.2324">
        <ele>262</ele>
        <time>2025-06-16T12:17:07Z</time>
      </trkpt>
      <trkpt lat="45.84816" lon="1.2324">
        <ele>262</ele>
        <time>2025-06-16T12:17:08Z</time>
      </trkpt>
      <trkpt lat="45.84816" lon="1.2324">
        <ele>262</ele>
        <time>2025-06-16T12:17:09Z</time>
      </trkpt>
      <trkpt lat="45.84816" lon="1.2324">
        <ele>262</ele>
        <time>2025-06-16T12:17:10Z</time>
      </trkpt>
      <trkpt lat="45.84817" lon="1.2324">
        <ele>262</ele>
        <time>2025-06-16T12:17:11Z</time>
      </trkpt>
      <trkpt lat="45.84816" lon="1.23239">
        <ele>262</ele>
        <time>2025-06-16T12:17:12Z</time>
      </trkpt>
      <trkpt lat="45.84816" lon="1.2324">
        <ele>262</ele>
        <time>2025-06-16T12:17:13Z</time>
      </trkpt>
      <trkpt lat="45.84816" lon="1.2324">
        <ele>262</ele>
        <time>2025-06-16T12:17:14Z</time>
      </trkpt>
      <trkpt lat="45.84816" lon="1.2324">
        <ele>262</ele>
        <time>2025-06-16T12:17:15Z</time>
      </trkpt>
      <trkpt lat="45.84816" lon="1.2324">
        <ele>262</ele>
        <time>2025-06-16T12:17:16Z</time>
      </trkpt>
      <trkpt lat="45.84816" lon="1.2324">
        <ele>262</ele>
        <time>2025-06-16T12:17:17Z</time>
      </trkpt>
      <trkpt lat="45.84816" lon="1.2324">
        <ele>262</ele>
        <time>2025-06-16T12:17:18Z</time>
      </trkpt>
      <trkpt lat="45.84815" lon="1.23237">
        <ele>262</ele>
        <time>2025-06-16T12:17:19Z</time>
      </trkpt>
      <trkpt lat="45.84814" lon="1.23236">
        <ele>262</ele>
        <time>2025-06-16T12:17:20Z</time>
      </trkpt>
      <trkpt lat="45.84812" lon="1.2324">
        <ele>262.1</ele>
        <time>2025-06-16T12:17:21Z</time>
      </trkpt>
      <trkpt lat="45.84812" lon="1.23241">
        <ele>262.1</ele>
        <time>2025-06-16T12:17:22Z</time>
      </trkpt>
      <trkpt lat="45.84809" lon="1.23244">
        <ele>262.1</ele>
        <time>2025-06-16T12:17:23Z</time>
      </trkpt>
      <trkpt lat="45.84808" lon="1.23245">
        <ele>262.1</ele>
        <time>2025-06-16T12:17:24Z</time>
      </trkpt>
      <trkpt lat="45.84806" lon="1.23249">
        <ele>262.1</ele>
        <time>2025-06-16T12:17:25Z</time>
      </trkpt>
      <trkpt lat="45.84804" lon="1.23254">
        <ele>262.1</ele>
        <time>2025-06-16T12:17:26Z</time>
      </trkpt>
      <trkpt lat="45.84804" lon="1.2326">
        <ele>262.2</ele>
        <time>2025-06-16T12:17:27Z</time>
      </trkpt>
      <trkpt lat="45.84804" lon="1.23265">
        <ele>262.2</ele>
        <time>2025-06-16T12:17:28Z</time>
      </trkpt>
      <trkpt lat="45.84805" lon="1.23271">
        <ele>262.3</ele>
        <time>2025-06-16T12:17:29Z</time>
      </trkpt>
      <trkpt lat="45.84807" lon="1.23276">
        <ele>262.3</ele>
        <time>2025-06-16T12:17:30Z</time>
      </trkpt>
      <trkpt lat="45.84809" lon="1.2328">
        <ele>262.3</ele>
        <time>2025-06-16T12:17:31Z</time>
      </trkpt>
      <trkpt lat="45.8481" lon="1.23284">
        <ele>262.4</ele>
        <time>2025-06-16T12:17:32Z</time>
      </trkpt>
      <trkpt lat="45.84811" lon="1.23289">
        <ele>262.4</ele>
        <time>2025-06-16T12:17:33Z</time>
      </trkpt>
      <trkpt lat="45.84812" lon="1.23291">
        <ele>262.4</ele>
        <time>2025-06-16T12:17:34Z</time>
      </trkpt>
      <trkpt lat="45.84813" lon="1.23295">
        <ele>262.5</ele>
        <time>2025-06-16T12:17:35Z</time>
      </trkpt>
      <trkpt lat="45.84815" lon="1.23299">
        <ele>262.5</ele>
        <time>2025-06-16T12:17:36Z</time>
      </trkpt>
      <trkpt lat="45.84817" lon="1.23303">
        <ele>262.6</ele>
        <time>2025-06-16T12:17:37Z</time>
      </trkpt>
      <trkpt lat="45.84819" lon="1.23308">
        <ele>262.6</ele>
        <time>2025-06-16T12:17:38Z</time>
      </trkpt>
      <trkpt lat="45.84821" lon="1.23312">
        <ele>262.7</ele>
        <time>2025-06-16T12:17:39Z</time>
      </trkpt>
      <trkpt lat="45.84823" lon="1.23316">
        <ele>262.7</ele>
        <time>2025-06-16T12:17:40Z</time>
      </trkpt>
      <trkpt lat="45.84825" lon="1.2332">
        <ele>262.8</ele>
        <time>2025-06-16T12:17:41Z</time>
      </trkpt>
      <trkpt lat="45.84827" lon="1.23324">
        <ele>262.8</ele>
        <time>2025-06-16T12:17:42Z</time>
      </trkpt>
      <trkpt lat="45.84829" lon="1.23328">
        <ele>262.9</ele>
        <time>2025-06-16T12:17:43Z</time>
      </trkpt>
      <trkpt lat="45.84831" lon="1.23332">
        <ele>262.9</ele>
        <time>2025-06-16T12:17:44Z</time>
      </trkpt>
      <trkpt lat="45.84833" lon="1.23335">
        <ele>263</ele>
        <time>2025-06-16T12:17:45Z</time>
      </trkpt>
      <trkpt lat="45.84834" lon="1.23339">
        <ele>263</ele>
        <time>2025-06-16T12:17:46Z</time>
      </trkpt>
      <trkpt lat="45.84839" lon="1.23345">
        <ele>263.2</ele>
        <time>2025-06-16T12:17:47Z</time>
      </trkpt>
      <trkpt lat="45.84844" lon="1.23356">
        <ele>263.3</ele>
        <time>2025-06-16T12:17:49Z</time>
      </trkpt>
      <trkpt lat="45.84846" lon="1.23361">
        <ele>263.4</ele>
        <time>2025-06-16T12:17:51Z</time>
      </trkpt>
      <trkpt lat="45.8485" lon="1.23369">
        <ele>263.5</ele>
        <time>2025-06-16T12:17:52Z</time>
      </trkpt>
      <trkpt lat="45.84853" lon="1.23373">
        <ele>263.5</ele>
        <time>2025-06-16T12:17:54Z</time>
      </trkpt>
      <trkpt lat="45.84856" lon="1.23377">
        <ele>263.6</ele>
        <time>2025-06-16T12:17:55Z</time>
      </trkpt>
      <trkpt lat="45.84859" lon="1.2338">
        <ele>263.6</ele>
        <time>2025-06-16T12:17:56Z</time>
      </trkpt>
      <trkpt lat="45.84862" lon="1.23383">
        <ele>263.6</ele>
        <time>2025-06-16T12:17:57Z</time>
      </trkpt>
      <trkpt lat="45.84864" lon="1.23386">
        <ele>263.6</ele>
        <time>2025-06-16T12:17:58Z</time>
      </trkpt>
      <trkpt lat="45.84866" lon="1.23389">
        <ele>263.7</ele>
        <time>2025-06-16T12:17:59Z</time>
      </trkpt>
      <trkpt lat="45.84868" lon="1.23394">
        <ele>263.7</ele>
        <time>2025-06-16T12:18:00Z</time>
      </trkpt>
      <trkpt lat="45.84869" lon="1.23398">
        <ele>263.7</ele>
        <time>2025-06-16T12:18:01Z</time>
      </trkpt>
      <trkpt lat="45.84871" lon="1.23404">
        <ele>263.8</ele>
        <time>2025-06-16T12:18:02Z</time>
      </trkpt>
      <trkpt lat="45.84872" lon="1.23405">
        <ele>263.8</ele>
        <time>2025-06-16T12:18:03Z</time>
      </trkpt>
      <trkpt lat="45.84873" lon="1.2341">
        <ele>263.8</ele>
        <time>2025-06-16T12:18:04Z</time>
      </trkpt>
      <trkpt lat="45.84875" lon="1.23414">
        <ele>263.8</ele>
        <time>2025-06-16T12:18:05Z</time>
      </trkpt>
      <trkpt lat="45.84877" lon="1.23418">
        <ele>263.8</ele>
        <time>2025-06-16T12:18:06Z</time>
      </trkpt>
      <trkpt lat="45.84878" lon="1.23423">
        <ele>263.8</ele>
        <time>2025-06-16T12:18:07Z</time>
      </trkpt>
      <trkpt lat="45.8488" lon="1.23427">
        <ele>263.9</ele>
        <time>2025-06-16T12:18:08Z</time>
      </trkpt>
      <trkpt lat="45.84882" lon="1.23432">
        <ele>263.9</ele>
        <time>2025-06-16T12:18:09Z</time>
      </trkpt>
      <trkpt lat="45.84884" lon="1.23436">
        <ele>263.9</ele>
        <time>2025-06-16T12:18:10Z</time>
      </trkpt>
      <trkpt lat="45.84886" lon="1.2344">
        <ele>263.9</ele>
        <time>2025-06-16T12:18:11Z</time>
      </trkpt>
      <trkpt lat="45.84888" lon="1.23444">
        <ele>263.9</ele>
        <time>2025-06-16T12:18:12Z</time>
      </trkpt>
      <trkpt lat="45.84889" lon="1.23449">
        <ele>263.9</ele>
        <time>2025-06-16T12:18:13Z</time>
      </trkpt>
      <trkpt lat="45.84891" lon="1.23453">
        <ele>263.9</ele>
        <time>2025-06-16T12:18:14Z</time>
      </trkpt>
      <trkpt lat="45.84893" lon="1.23457">
        <ele>263.9</ele>
        <time>2025-06-16T12:18:15Z</time>
      </trkpt>
      <trkpt lat="45.84895" lon="1.23461">
        <ele>263.9</ele>
        <time>2025-06-16T12:18:16Z</time>
      </trkpt>
      <trkpt lat="45.84897" lon="1.23466">
        <ele>263.9</ele>
        <time>2025-06-16T12:18:17Z</time>
      </trkpt>
      <trkpt lat="45.84899" lon="1.2347">
        <ele>263.9</ele>
        <time>2025-06-16T12:18:18Z</time>
      </trkpt>
      <trkpt lat="45.84904" lon="1.2348">
        <ele>263.9</ele>
        <time>2025-06-16T12:18:19Z</time>
      </trkpt>
      <trkpt lat="45.84906" lon="1.23484">
        <ele>263.9</ele>
        <time>2025-06-16T12:18:21Z</time>
      </trkpt>
      <trkpt lat="45.84908" lon="1.23488">
        <ele>263.9</ele>
        <time>2025-06-16T12:18:22Z</time>
      </trkpt>
      <trkpt lat="45.84912" lon="1.23497">
        <ele>263.9</ele>
        <time>2025-06-16T12:18:23Z</time>
      </trkpt>
      <trkpt lat="45.84914" lon="1.23502">
        <ele>263.9</ele>
        <time>2025-06-16T12:18:24Z</time>
      </trkpt>
      <trkpt lat="45.84916" lon="1.23507">
        <ele>263.9</ele>
        <time>2025-06-16T12:18:25Z</time>
      </trkpt>
      <trkpt lat="45.8492" lon="1.23518">
        <ele>263.9</ele>
        <time>2025-06-16T12:18:27Z</time>
      </trkpt>
      <trkpt lat="45.84923" lon="1.23523">
        <ele>264</ele>
        <time>2025-06-16T12:18:29Z</time>
      </trkpt>
      <trkpt lat="45.84925" lon="1.23527">
        <ele>264</ele>
        <time>2025-06-16T12:18:30Z</time>
      </trkpt>
      <trkpt lat="45.84927" lon="1.23531">
        <ele>264.1</ele>
        <time>2025-06-16T12:18:31Z</time>
      </trkpt>
      <trkpt lat="45.8493" lon="1.23535">
        <ele>264.1</ele>
        <time>2025-06-16T12:18:32Z</time>
      </trkpt>
      <trkpt lat="45.84932" lon="1.23539">
        <ele>264.1</ele>
        <time>2025-06-16T12:18:33Z</time>
      </trkpt>
      <trkpt lat="45.84935" lon="1.23543">
        <ele>264.2</ele>
        <time>2025-06-16T12:18:34Z</time>
      </trkpt>
      <trkpt lat="45.84938" lon="1.23546">
        <ele>264.2</ele>
        <time>2025-06-16T12:18:35Z</time>
      </trkpt>
      <trkpt lat="45.8494" lon="1.23549">
        <ele>264.3</ele>
        <time>2025-06-16T12:18:36Z</time>
      </trkpt>
      <trkpt lat="45.84945" lon="1.23555">
        <ele>264.3</ele>
        <time>2025-06-16T12:18:37Z</time>
      </trkpt>
      <trkpt lat="45.8495" lon="1.23562">
        <ele>264.4</ele>
        <time>2025-06-16T12:18:39Z</time>
      </trkpt>
      <trkpt lat="45.84955" lon="1.23567">
        <ele>264.4</ele>
        <time>2025-06-16T12:18:41Z</time>
      </trkpt>
      <trkpt lat="45.84958" lon="1.23571">
        <ele>264.4</ele>
        <time>2025-06-16T12:18:43Z</time>
      </trkpt>
      <trkpt lat="45.8496" lon="1.23575">
        <ele>264.5</ele>
        <time>2025-06-16T12:18:44Z</time>
      </trkpt>
      <trkpt lat="45.84962" lon="1.2358">
        <ele>264.5</ele>
        <time>2025-06-16T12:18:45Z</time>
      </trkpt>
      <trkpt lat="45.84966" lon="1.23587">
        <ele>264.6</ele>
        <time>2025-06-16T12:18:46Z</time>
      </trkpt>
      <trkpt lat="45.84968" lon="1.2359">
        <ele>264.6</ele>
        <time>2025-06-16T12:18:47Z</time>
      </trkpt>
      <trkpt lat="45.84972" lon="1.23594">
        <ele>264.7</ele>
        <time>2025-06-16T12:18:49Z</time>
      </trkpt>
      <trkpt lat="45.84974" lon="1.23598">
        <ele>264.7</ele>
        <time>2025-06-16T12:18:50Z</time>
      </trkpt>
      <trkpt lat="45.84977" lon="1.23602">
        <ele>264.8</ele>
        <time>2025-06-16T12:18:51Z</time>
      </trkpt>
      <trkpt lat="45.8498" lon="1.23606">
        <ele>264.8</ele>
        <time>2025-06-16T12:18:52Z</time>
      </trkpt>
      <trkpt lat="45.84983" lon="1.2361">
        <ele>264.9</ele>
        <time>2025-06-16T12:18:53Z</time>
      </trkpt>
      <trkpt lat="45.84986" lon="1.23613">
        <ele>264.9</ele>
        <time>2025-06-16T12:18:54Z</time>
      </trkpt>
      <trkpt lat="45.84989" lon="1.23618">
        <ele>265</ele>
        <time>2025-06-16T12:18:55Z</time>
      </trkpt>
      <trkpt lat="45.84991" lon="1.23622">
        <ele>265</ele>
        <time>2025-06-16T12:18:56Z</time>
      </trkpt>
      <trkpt lat="45.84994" lon="1.23627">
        <ele>265.1</ele>
        <time>2025-06-16T12:18:57Z</time>
      </trkpt>
      <trkpt lat="45.84997" lon="1.23631">
        <ele>265.1</ele>
        <time>2025-06-16T12:18:58Z</time>
      </trkpt>
      <trkpt lat="45.85" lon="1.23635">
        <ele>265.1</ele>
        <time>2025-06-16T12:18:59Z</time>
      </trkpt>
      <trkpt lat="45.85003" lon="1.23639">
        <ele>265.2</ele>
        <time>2025-06-16T12:19:00Z</time>
      </trkpt>
      <trkpt lat="45.85005" lon="1.23643">
        <ele>265.2</ele>
        <time>2025-06-16T12:19:01Z</time>
      </trkpt>
      <trkpt lat="45.85008" lon="1.23653">
        <ele>265.3</ele>
        <time>2025-06-16T12:19:02Z</time>
      </trkpt>
      <trkpt lat="45.85009" lon="1.23657">
        <ele>265.4</ele>
        <time>2025-06-16T12:19:04Z</time>
      </trkpt>
      <trkpt lat="45.8501" lon="1.23661">
        <ele>265.4</ele>
        <time>2025-06-16T12:19:05Z</time>
      </trkpt>
      <trkpt lat="45.85011" lon="1.23665">
        <ele>265.5</ele>
        <time>2025-06-16T12:19:06Z</time>
      </trkpt>
      <trkpt lat="45.85012" lon="1.23669">
        <ele>265.5</ele>
        <time>2025-06-16T12:19:07Z</time>
      </trkpt>
      <trkpt lat="45.85013" lon="1.23673">
        <ele>265.6</ele>
        <time>2025-06-16T12:19:08Z</time>
      </trkpt>
      <trkpt lat="45.85015" lon="1.2368">
        <ele>265.6</ele>
        <time>2025-06-16T12:19:09Z</time>
      </trkpt>
      <trkpt lat="45.85017" lon="1.23684">
        <ele>265.7</ele>
        <time>2025-06-16T12:19:11Z</time>
      </trkpt>
      <trkpt lat="45.85019" lon="1.23687">
        <ele>265.7</ele>
        <time>2025-06-16T12:19:12Z</time>
      </trkpt>
      <trkpt lat="45.8502" lon="1.2369">
        <ele>265.7</ele>
        <time>2025-06-16T12:19:13Z</time>
      </trkpt>
      <trkpt lat="45.85024" lon="1.23696">
        <ele>265.7</ele>
        <time>2025-06-16T12:19:14Z</time>
      </trkpt>
      <trkpt lat="45.85025" lon="1.23699">
        <ele>265.8</ele>
        <time>2025-06-16T12:19:16Z</time>
      </trkpt>
      <trkpt lat="45.85026" lon="1.23703">
        <ele>265.8</ele>
        <time>2025-06-16T12:19:17Z</time>
      </trkpt>
      <trkpt lat="45.85027" lon="1.23707">
        <ele>265.8</ele>
        <time>2025-06-16T12:19:18Z</time>
      </trkpt>
      <trkpt lat="45.85027" lon="1.23711">
        <ele>265.8</ele>
        <time>2025-06-16T12:19:19Z</time>
      </trkpt>
      <trkpt lat="45.85027" lon="1.23717">
        <ele>265.9</ele>
        <time>2025-06-16T12:19:20Z</time>
      </trkpt>
      <trkpt lat="45.85028" lon="1.23723">
        <ele>265.9</ele>
        <time>2025-06-16T12:19:21Z</time>
      </trkpt>
      <trkpt lat="45.85029" lon="1.2373">
        <ele>265.9</ele>
        <time>2025-06-16T12:19:22Z</time>
      </trkpt>
      <trkpt lat="45.8503" lon="1.23736">
        <ele>266</ele>
        <time>2025-06-16T12:19:23Z</time>
      </trkpt>
      <trkpt lat="45.85031" lon="1.23742">
        <ele>266</ele>
        <time>2025-06-16T12:19:24Z</time>
      </trkpt>
      <trkpt lat="45.85033" lon="1.23754">
        <ele>266.1</ele>
        <time>2025-06-16T12:19:25Z</time>
      </trkpt>
      <trkpt lat="45.85035" lon="1.2376">
        <ele>266.1</ele>
        <time>2025-06-16T12:19:27Z</time>
      </trkpt>
      <trkpt lat="45.85038" lon="1.23765">
        <ele>266.1</ele>
        <time>2025-06-16T12:19:28Z</time>
      </trkpt>
      <trkpt lat="45.85041" lon="1.23769">
        <ele>266.1</ele>
        <time>2025-06-16T12:19:29Z</time>
      </trkpt>
      <trkpt lat="45.85043" lon="1.23773">
        <ele>266.1</ele>
        <time>2025-06-16T12:19:30Z</time>
      </trkpt>
      <trkpt lat="45.85046" lon="1.23777">
        <ele>266.1</ele>
        <time>2025-06-16T12:19:31Z</time>
      </trkpt>
      <trkpt lat="45.85047" lon="1.23781">
        <ele>266.1</ele>
        <time>2025-06-16T12:19:32Z</time>
      </trkpt>
      <trkpt lat="45.85048" lon="1.23785">
        <ele>266.1</ele>
        <time>2025-06-16T12:19:33Z</time>
      </trkpt>
      <trkpt lat="45.8505" lon="1.23792">
        <ele>266.2</ele>
        <time>2025-06-16T12:19:34Z</time>
      </trkpt>
      <trkpt lat="45.85052" lon="1.23799">
        <ele>266.2</ele>
        <time>2025-06-16T12:19:36Z</time>
      </trkpt>
      <trkpt lat="45.85056" lon="1.23808">
        <ele>266.3</ele>
        <time>2025-06-16T12:19:37Z</time>
      </trkpt>
      <trkpt lat="45.85058" lon="1.23812">
        <ele>266.4</ele>
        <time>2025-06-16T12:19:38Z</time>
      </trkpt>
      <trkpt lat="45.85062" lon="1.23817">
        <ele>266.5</ele>
        <time>2025-06-16T12:19:40Z</time>
      </trkpt>
      <trkpt lat="45.85062" lon="1.23818">
        <ele>266.6</ele>
        <time>2025-06-16T12:19:41Z</time>
      </trkpt>
      <trkpt lat="45.85063" lon="1.2382">
        <ele>266.6</ele>
        <time>2025-06-16T12:19:42Z</time>
      </trkpt>
      <trkpt lat="45.85064" lon="1.23824">
        <ele>266.7</ele>
        <time>2025-06-16T12:19:43Z</time>
      </trkpt>
      <trkpt lat="45.85064" lon="1.23825">
        <ele>266.7</ele>
        <time>2025-06-16T12:19:44Z</time>
      </trkpt>
      <trkpt lat="45.85065" lon="1.23828">
        <ele>266.7</ele>
        <time>2025-06-16T12:19:45Z</time>
      </trkpt>
      <trkpt lat="45.85066" lon="1.2383">
        <ele>266.7</ele>
        <time>2025-06-16T12:19:46Z</time>
      </trkpt>
      <trkpt lat="45.85068" lon="1.23833">
        <ele>266.8</ele>
        <time>2025-06-16T12:19:47Z</time>
      </trkpt>
      <trkpt lat="45.85068" lon="1.23835">
        <ele>266.8</ele>
        <time>2025-06-16T12:19:48Z</time>
      </trkpt>
      <trkpt lat="45.8507" lon="1.2384">
        <ele>266.8</ele>
        <time>2025-06-16T12:19:49Z</time>
      </trkpt>
      <trkpt lat="45.8507" lon="1.23842">
        <ele>266.8</ele>
        <time>2025-06-16T12:19:50Z</time>
      </trkpt>
      <trkpt lat="45.85071" lon="1.2385">
        <ele>266.9</ele>
        <time>2025-06-16T12:19:51Z</time>
      </trkpt>
      <trkpt lat="45.85072" lon="1.23856">
        <ele>266.9</ele>
        <time>2025-06-16T12:19:53Z</time>
      </trkpt>
      <trkpt lat="45.85074" lon="1.23861">
        <ele>267</ele>
        <time>2025-06-16T12:19:54Z</time>
      </trkpt>
      <trkpt lat="45.85078" lon="1.23865">
        <ele>267</ele>
        <time>2025-06-16T12:19:55Z</time>
      </trkpt>
      <trkpt lat="45.85083" lon="1.23868">
        <ele>267.1</ele>
        <time>2025-06-16T12:19:56Z</time>
      </trkpt>
      <trkpt lat="45.85087" lon="1.23871">
        <ele>267.1</ele>
        <time>2025-06-16T12:19:57Z</time>
      </trkpt>
      <trkpt lat="45.85095" lon="1.23876">
        <ele>267.2</ele>
        <time>2025-06-16T12:19:58Z</time>
      </trkpt>
      <trkpt lat="45.85102" lon="1.23883">
        <ele>267.3</ele>
        <time>2025-06-16T12:20:00Z</time>
      </trkpt>
      <trkpt lat="45.85109" lon="1.2389">
        <ele>267.3</ele>
        <time>2025-06-16T12:20:02Z</time>
      </trkpt>
      <trkpt lat="45.85113" lon="1.23894">
        <ele>267.3</ele>
        <time>2025-06-16T12:20:03Z</time>
      </trkpt>
      <trkpt lat="45.85117" lon="1.23897">
        <ele>267.3</ele>
        <time>2025-06-16T12:20:04Z</time>
      </trkpt>
      <trkpt lat="45.85121" lon="1.23898">
        <ele>267.3</ele>
        <time>2025-06-16T12:20:06Z</time>
      </trkpt>
      <trkpt lat="45.85124" lon="1.239">
        <ele>267.4</ele>
        <time>2025-06-16T12:20:07Z</time>
      </trkpt>
      <trkpt lat="45.85128" lon="1.23902">
        <ele>267.4</ele>
        <time>2025-06-16T12:20:08Z</time>
      </trkpt>
      <trkpt lat="45.8513" lon="1.23904">
        <ele>267.4</ele>
        <time>2025-06-16T12:20:09Z</time>
      </trkpt>
      <trkpt lat="45.85133" lon="1.23905">
        <ele>267.4</ele>
        <time>2025-06-16T12:20:10Z</time>
      </trkpt>
      <trkpt lat="45.85138" lon="1.23908">
        <ele>267.5</ele>
        <time>2025-06-16T12:20:11Z</time>
      </trkpt>
      <trkpt lat="45.85143" lon="1.23911">
        <ele>267.5</ele>
        <time>2025-06-16T12:20:13Z</time>
      </trkpt>
      <trkpt lat="45.85146" lon="1.23914">
        <ele>267.5</ele>
        <time>2025-06-16T12:20:15Z</time>
      </trkpt>
      <trkpt lat="45.85149" lon="1.23917">
        <ele>267.6</ele>
        <time>2025-06-16T12:20:16Z</time>
      </trkpt>
      <trkpt lat="45.85153" lon="1.23921">
        <ele>267.6</ele>
        <time>2025-06-16T12:20:17Z</time>
      </trkpt>
      <trkpt lat="45.85155" lon="1.23924">
        <ele>267.6</ele>
        <time>2025-06-16T12:20:18Z</time>
      </trkpt>
      <trkpt lat="45.85158" lon="1.23927">
        <ele>267.6</ele>
        <time>2025-06-16T12:20:19Z</time>
      </trkpt>
      <trkpt lat="45.85164" lon="1.23933">
        <ele>267.7</ele>
        <time>2025-06-16T12:20:20Z</time>
      </trkpt>
      <trkpt lat="45.85166" lon="1.23937">
        <ele>267.7</ele>
        <time>2025-06-16T12:20:21Z</time>
      </trkpt>
      <trkpt lat="45.85169" lon="1.23942">
        <ele>267.7</ele>
        <time>2025-06-16T12:20:23Z</time>
      </trkpt>
      <trkpt lat="45.85174" lon="1.23951">
        <ele>267.7</ele>
        <time>2025-06-16T12:20:24Z</time>
      </trkpt>
      <trkpt lat="45.85177" lon="1.23955">
        <ele>267.7</ele>
        <time>2025-06-16T12:20:26Z</time>
      </trkpt>
      <trkpt lat="45.85179" lon="1.23959">
        <ele>267.8</ele>
        <time>2025-06-16T12:20:27Z</time>
      </trkpt>
      <trkpt lat="45.8518" lon="1.23962">
        <ele>267.8</ele>
        <time>2025-06-16T12:20:28Z</time>
      </trkpt>
      <trkpt lat="45.85185" lon="1.2397">
        <ele>267.8</ele>
        <time>2025-06-16T12:20:29Z</time>
      </trkpt>
      <trkpt lat="45.85191" lon="1.23978">
        <ele>267.8</ele>
        <time>2025-06-16T12:20:31Z</time>
      </trkpt>
      <trkpt lat="45.85193" lon="1.2398">
        <ele>267.8</ele>
        <time>2025-06-16T12:20:32Z</time>
      </trkpt>
      <trkpt lat="45.85195" lon="1.23983">
        <ele>267.8</ele>
        <time>2025-06-16T12:20:34Z</time>
      </trkpt>
      <trkpt lat="45.85198" lon="1.23986">
        <ele>267.8</ele>
        <time>2025-06-16T12:20:35Z</time>
      </trkpt>
      <trkpt lat="45.85203" lon="1.23993">
        <ele>267.8</ele>
        <time>2025-06-16T12:20:36Z</time>
      </trkpt>
      <trkpt lat="45.85206" lon="1.23998">
        <ele>267.8</ele>
        <time>2025-06-16T12:20:38Z</time>
      </trkpt>
      <trkpt lat="45.85209" lon="1.24002">
        <ele>267.8</ele>
        <time>2025-06-16T12:20:39Z</time>
      </trkpt>
      <trkpt lat="45.85213" lon="1.24005">
        <ele>267.8</ele>
        <time>2025-06-16T12:20:40Z</time>
      </trkpt>
      <trkpt lat="45.85215" lon="1.24009">
        <ele>267.9</ele>
        <time>2025-06-16T12:20:41Z</time>
      </trkpt>
      <trkpt lat="45.85218" lon="1.24012">
        <ele>267.9</ele>
        <time>2025-06-16T12:20:42Z</time>
      </trkpt>
      <trkpt lat="45.85221" lon="1.24016">
        <ele>267.9</ele>
        <time>2025-06-16T12:20:43Z</time>
      </trkpt>
      <trkpt lat="45.85223" lon="1.24019">
        <ele>267.9</ele>
        <time>2025-06-16T12:20:44Z</time>
      </trkpt>
      <trkpt lat="45.85226" lon="1.24023">
        <ele>267.9</ele>
        <time>2025-06-16T12:20:45Z</time>
      </trkpt>
      <trkpt lat="45.85231" lon="1.24028">
        <ele>267.9</ele>
        <time>2025-06-16T12:20:46Z</time>
      </trkpt>
      <trkpt lat="45.85234" lon="1.24031">
        <ele>267.9</ele>
        <time>2025-06-16T12:20:48Z</time>
      </trkpt>
      <trkpt lat="45.85237" lon="1.24035">
        <ele>267.9</ele>
        <time>2025-06-16T12:20:49Z</time>
      </trkpt>
      <trkpt lat="45.85243" lon="1.24042">
        <ele>268</ele>
        <time>2025-06-16T12:20:50Z</time>
      </trkpt>
      <trkpt lat="45.85245" lon="1.24046">
        <ele>268</ele>
        <time>2025-06-16T12:20:51Z</time>
      </trkpt>
      <trkpt lat="45.85248" lon="1.24049">
        <ele>268</ele>
        <time>2025-06-16T12:20:52Z</time>
      </trkpt>
      <trkpt lat="45.85252" lon="1.24052">
        <ele>268</ele>
        <time>2025-06-16T12:20:54Z</time>
      </trkpt>
      <trkpt lat="45.85255" lon="1.24054">
        <ele>268</ele>
        <time>2025-06-16T12:20:55Z</time>
      </trkpt>
      <trkpt lat="45.85258" lon="1.24056">
        <ele>268.1</ele>
        <time>2025-06-16T12:20:56Z</time>
      </trkpt>
      <trkpt lat="45.8526" lon="1.24059">
        <ele>268.1</ele>
        <time>2025-06-16T12:20:57Z</time>
      </trkpt>
      <trkpt lat="45.85263" lon="1.24063">
        <ele>268.1</ele>
        <time>2025-06-16T12:20:58Z</time>
      </trkpt>
      <trkpt lat="45.85264" lon="1.24064">
        <ele>268.1</ele>
        <time>2025-06-16T12:20:59Z</time>
      </trkpt>
      <trkpt lat="45.85266" lon="1.24067">
        <ele>268.1</ele>
        <time>2025-06-16T12:21:00Z</time>
      </trkpt>
      <trkpt lat="45.85267" lon="1.24069">
        <ele>268.1</ele>
        <time>2025-06-16T12:21:01Z</time>
      </trkpt>
      <trkpt lat="45.85269" lon="1.24073">
        <ele>268.2</ele>
        <time>2025-06-16T12:21:02Z</time>
      </trkpt>
      <trkpt lat="45.85269" lon="1.24074">
        <ele>268.2</ele>
        <time>2025-06-16T12:21:03Z</time>
      </trkpt>
      <trkpt lat="45.85272" lon="1.24079">
        <ele>268.2</ele>
        <time>2025-06-16T12:21:04Z</time>
      </trkpt>
      <trkpt lat="45.85274" lon="1.24082">
        <ele>268.2</ele>
        <time>2025-06-16T12:21:06Z</time>
      </trkpt>
      <trkpt lat="45.85275" lon="1.24083">
        <ele>268.2</ele>
        <time>2025-06-16T12:21:07Z</time>
      </trkpt>
      <trkpt lat="45.85281" lon="1.24088">
        <ele>268.3</ele>
        <time>2025-06-16T12:21:08Z</time>
      </trkpt>
      <trkpt lat="45.85284" lon="1.24091">
        <ele>268.3</ele>
        <time>2025-06-16T12:21:10Z</time>
      </trkpt>
      <trkpt lat="45.85288" lon="1.24093">
        <ele>268.3</ele>
        <time>2025-06-16T12:21:11Z</time>
      </trkpt>
      <trkpt lat="45.85293" lon="1.24097">
        <ele>268.3</ele>
        <time>2025-06-16T12:21:12Z</time>
      </trkpt>
      <trkpt lat="45.85297" lon="1.241">
        <ele>268.4</ele>
        <time>2025-06-16T12:21:13Z</time>
      </trkpt>
      <trkpt lat="45.85301" lon="1.24104">
        <ele>268.4</ele>
        <time>2025-06-16T12:21:14Z</time>
      </trkpt>
      <trkpt lat="45.85305" lon="1.24108">
        <ele>268.5</ele>
        <time>2025-06-16T12:21:15Z</time>
      </trkpt>
      <trkpt lat="45.85308" lon="1.24113">
        <ele>268.5</ele>
        <time>2025-06-16T12:21:16Z</time>
      </trkpt>
      <trkpt lat="45.85311" lon="1.24116">
        <ele>268.5</ele>
        <time>2025-06-16T12:21:17Z</time>
      </trkpt>
      <trkpt lat="45.85315" lon="1.24121">
        <ele>268.6</ele>
        <time>2025-06-16T12:21:18Z</time>
      </trkpt>
      <trkpt lat="45.85319" lon="1.24126">
        <ele>268.6</ele>
        <time>2025-06-16T12:21:19Z</time>
      </trkpt>
      <trkpt lat="45.85322" lon="1.24131">
        <ele>268.6</ele>
        <time>2025-06-16T12:21:20Z</time>
      </trkpt>
      <trkpt lat="45.85325" lon="1.24135">
        <ele>268.6</ele>
        <time>2025-06-16T12:21:21Z</time>
      </trkpt>
      <trkpt lat="45.85328" lon="1.24139">
        <ele>268.7</ele>
        <time>2025-06-16T12:21:22Z</time>
      </trkpt>
      <trkpt lat="45.8533" lon="1.24142">
        <ele>268.7</ele>
        <time>2025-06-16T12:21:23Z</time>
      </trkpt>
      <trkpt lat="45.85332" lon="1.24145">
        <ele>268.7</ele>
        <time>2025-06-16T12:21:24Z</time>
      </trkpt>
      <trkpt lat="45.85335" lon="1.24148">
        <ele>268.7</ele>
        <time>2025-06-16T12:21:25Z</time>
      </trkpt>
      <trkpt lat="45.85338" lon="1.2415">
        <ele>268.7</ele>
        <time>2025-06-16T12:21:26Z</time>
      </trkpt>
      <trkpt lat="45.85342" lon="1.24153">
        <ele>268.7</ele>
        <time>2025-06-16T12:21:27Z</time>
      </trkpt>
      <trkpt lat="45.85345" lon="1.24155">
        <ele>268.7</ele>
        <time>2025-06-16T12:21:28Z</time>
      </trkpt>
      <trkpt lat="45.85349" lon="1.24158">
        <ele>268.7</ele>
        <time>2025-06-16T12:21:29Z</time>
      </trkpt>
      <trkpt lat="45.85353" lon="1.24159">
        <ele>268.7</ele>
        <time>2025-06-16T12:21:30Z</time>
      </trkpt>
      <trkpt lat="45.85356" lon="1.2416">
        <ele>268.8</ele>
        <time>2025-06-16T12:21:31Z</time>
      </trkpt>
      <trkpt lat="45.8536" lon="1.24162">
        <ele>268.8</ele>
        <time>2025-06-16T12:21:32Z</time>
      </trkpt>
      <trkpt lat="45.85362" lon="1.24163">
        <ele>268.8</ele>
        <time>2025-06-16T12:21:33Z</time>
      </trkpt>
      <trkpt lat="45.85365" lon="1.24165">
        <ele>268.9</ele>
        <time>2025-06-16T12:21:34Z</time>
      </trkpt>
      <trkpt lat="45.85366" lon="1.24166">
        <ele>268.9</ele>
        <time>2025-06-16T12:21:35Z</time>
      </trkpt>
      <trkpt lat="45.8537" lon="1.24168">
        <ele>268.9</ele>
        <time>2025-06-16T12:21:36Z</time>
      </trkpt>
      <trkpt lat="45.85375" lon="1.24172">
        <ele>269.1</ele>
        <time>2025-06-16T12:21:38Z</time>
      </trkpt>
      <trkpt lat="45.85377" lon="1.24175">
        <ele>269.1</ele>
        <time>2025-06-16T12:21:39Z</time>
      </trkpt>
      <trkpt lat="45.85381" lon="1.24177">
        <ele>269.3</ele>
        <time>2025-06-16T12:21:41Z</time>
      </trkpt>
      <trkpt lat="45.85384" lon="1.24179">
        <ele>269.3</ele>
        <time>2025-06-16T12:21:42Z</time>
      </trkpt>
      <trkpt lat="45.85387" lon="1.24181">
        <ele>269.4</ele>
        <time>2025-06-16T12:21:43Z</time>
      </trkpt>
      <trkpt lat="45.8539" lon="1.24182">
        <ele>269.5</ele>
        <time>2025-06-16T12:21:44Z</time>
      </trkpt>
      <trkpt lat="45.85394" lon="1.24184">
        <ele>269.6</ele>
        <time>2025-06-16T12:21:45Z</time>
      </trkpt>
      <trkpt lat="45.85398" lon="1.24186">
        <ele>269.6</ele>
        <time>2025-06-16T12:21:46Z</time>
      </trkpt>
      <trkpt lat="45.85402" lon="1.24187">
        <ele>269.6</ele>
        <time>2025-06-16T12:21:47Z</time>
      </trkpt>
      <trkpt lat="45.85406" lon="1.24188">
        <ele>269.6</ele>
        <time>2025-06-16T12:21:48Z</time>
      </trkpt>
      <trkpt lat="45.8541" lon="1.24189">
        <ele>269.6</ele>
        <time>2025-06-16T12:21:49Z</time>
      </trkpt>
      <trkpt lat="45.85413" lon="1.24189">
        <ele>269.6</ele>
        <time>2025-06-16T12:21:50Z</time>
      </trkpt>
      <trkpt lat="45.85417" lon="1.24189">
        <ele>269.7</ele>
        <time>2025-06-16T12:21:51Z</time>
      </trkpt>
      <trkpt lat="45.85421" lon="1.2419">
        <ele>269.7</ele>
        <time>2025-06-16T12:21:52Z</time>
      </trkpt>
      <trkpt lat="45.85424" lon="1.2419">
        <ele>269.7</ele>
        <time>2025-06-16T12:21:53Z</time>
      </trkpt>
      <trkpt lat="45.85428" lon="1.2419">
        <ele>269.7</ele>
        <time>2025-06-16T12:21:54Z</time>
      </trkpt>
      <trkpt lat="45.85432" lon="1.24191">
        <ele>269.8</ele>
        <time>2025-06-16T12:21:55Z</time>
      </trkpt>
      <trkpt lat="45.85435" lon="1.24191">
        <ele>269.8</ele>
        <time>2025-06-16T12:21:56Z</time>
      </trkpt>
      <trkpt lat="45.85438" lon="1.24192">
        <ele>269.8</ele>
        <time>2025-06-16T12:21:57Z</time>
      </trkpt>
      <trkpt lat="45.85441" lon="1.24193">
        <ele>269.8</ele>
        <time>2025-06-16T12:21:58Z</time>
      </trkpt>
      <trkpt lat="45.85445" lon="1.24195">
        <ele>269.9</ele>
        <time>2025-06-16T12:21:59Z</time>
      </trkpt>
      <trkpt lat="45.85449" lon="1.24197">
        <ele>269.9</ele>
        <time>2025-06-16T12:22:00Z</time>
      </trkpt>
      <trkpt lat="45.85453" lon="1.24199">
        <ele>269.9</ele>
        <time>2025-06-16T12:22:01Z</time>
      </trkpt>
      <trkpt lat="45.85456" lon="1.242">
        <ele>269.9</ele>
        <time>2025-06-16T12:22:02Z</time>
      </trkpt>
      <trkpt lat="45.85459" lon="1.24202">
        <ele>269.9</ele>
        <time>2025-06-16T12:22:03Z</time>
      </trkpt>
      <trkpt lat="45.85463" lon="1.24204">
        <ele>269.9</ele>
        <time>2025-06-16T12:22:04Z</time>
      </trkpt>
      <trkpt lat="45.85466" lon="1.24206">
        <ele>269.9</ele>
        <time>2025-06-16T12:22:05Z</time>
      </trkpt>
      <trkpt lat="45.85469" lon="1.24208">
        <ele>269.9</ele>
        <time>2025-06-16T12:22:06Z</time>
      </trkpt>
      <trkpt lat="45.85472" lon="1.24211">
        <ele>269.9</ele>
        <time>2025-06-16T12:22:07Z</time>
      </trkpt>
      <trkpt lat="45.85475" lon="1.24214">
        <ele>269.9</ele>
        <time>2025-06-16T12:22:08Z</time>
      </trkpt>
      <trkpt lat="45.85478" lon="1.24218">
        <ele>269.9</ele>
        <time>2025-06-16T12:22:09Z</time>
      </trkpt>
      <trkpt lat="45.8548" lon="1.2422">
        <ele>269.9</ele>
        <time>2025-06-16T12:22:10Z</time>
      </trkpt>
      <trkpt lat="45.85483" lon="1.24224">
        <ele>269.9</ele>
        <time>2025-06-16T12:22:11Z</time>
      </trkpt>
      <trkpt lat="45.85484" lon="1.24226">
        <ele>269.9</ele>
        <time>2025-06-16T12:22:12Z</time>
      </trkpt>
      <trkpt lat="45.85486" lon="1.24229">
        <ele>269.9</ele>
        <time>2025-06-16T12:22:13Z</time>
      </trkpt>
      <trkpt lat="45.85489" lon="1.24233">
        <ele>270</ele>
        <time>2025-06-16T12:22:14Z</time>
      </trkpt>
      <trkpt lat="45.85492" lon="1.24236">
        <ele>270</ele>
        <time>2025-06-16T12:22:15Z</time>
      </trkpt>
      <trkpt lat="45.85494" lon="1.2424">
        <ele>270.1</ele>
        <time>2025-06-16T12:22:16Z</time>
      </trkpt>
      <trkpt lat="45.85497" lon="1.24242">
        <ele>270.1</ele>
        <time>2025-06-16T12:22:17Z</time>
      </trkpt>
      <trkpt lat="45.85501" lon="1.24247">
        <ele>270.2</ele>
        <time>2025-06-16T12:22:18Z</time>
      </trkpt>
      <trkpt lat="45.85506" lon="1.2425">
        <ele>270.4</ele>
        <time>2025-06-16T12:22:19Z</time>
      </trkpt>
      <trkpt lat="45.8551" lon="1.24252">
        <ele>270.5</ele>
        <time>2025-06-16T12:22:20Z</time>
      </trkpt>
      <trkpt lat="45.85514" lon="1.24253">
        <ele>270.6</ele>
        <time>2025-06-16T12:22:21Z</time>
      </trkpt>
      <trkpt lat="45.85517" lon="1.24255">
        <ele>270.7</ele>
        <time>2025-06-16T12:22:22Z</time>
      </trkpt>
      <trkpt lat="45.8552" lon="1.24256">
        <ele>270.8</ele>
        <time>2025-06-16T12:22:23Z</time>
      </trkpt>
      <trkpt lat="45.85524" lon="1.24257">
        <ele>270.9</ele>
        <time>2025-06-16T12:22:24Z</time>
      </trkpt>
      <trkpt lat="45.85526" lon="1.24257">
        <ele>271</ele>
        <time>2025-06-16T12:22:25Z</time>
      </trkpt>
      <trkpt lat="45.85532" lon="1.24256">
        <ele>271.2</ele>
        <time>2025-06-16T12:22:26Z</time>
      </trkpt>
      <trkpt lat="45.85535" lon="1.24256">
        <ele>271.3</ele>
        <time>2025-06-16T12:22:28Z</time>
      </trkpt>
      <trkpt lat="45.85538" lon="1.24256">
        <ele>271.4</ele>
        <time>2025-06-16T12:22:29Z</time>
      </trkpt>
      <trkpt lat="45.85541" lon="1.24256">
        <ele>271.5</ele>
        <time>2025-06-16T12:22:30Z</time>
      </trkpt>
      <trkpt lat="45.85548" lon="1.24256">
        <ele>271.8</ele>
        <time>2025-06-16T12:22:31Z</time>
      </trkpt>
      <trkpt lat="45.85554" lon="1.24257">
        <ele>272</ele>
        <time>2025-06-16T12:22:33Z</time>
      </trkpt>
      <trkpt lat="45.85556" lon="1.24257">
        <ele>272.1</ele>
        <time>2025-06-16T12:22:34Z</time>
      </trkpt>
      <trkpt lat="45.85558" lon="1.24258">
        <ele>272.2</ele>
        <time>2025-06-16T12:22:36Z</time>
      </trkpt>
      <trkpt lat="45.85562" lon="1.2426">
        <ele>272.4</ele>
        <time>2025-06-16T12:22:37Z</time>
      </trkpt>
      <trkpt lat="45.85564" lon="1.24261">
        <ele>272.5</ele>
        <time>2025-06-16T12:22:38Z</time>
      </trkpt>
      <trkpt lat="45.85568" lon="1.24262">
        <ele>272.7</ele>
        <time>2025-06-16T12:22:39Z</time>
      </trkpt>
      <trkpt lat="45.85572" lon="1.24264">
        <ele>273</ele>
        <time>2025-06-16T12:22:40Z</time>
      </trkpt>
      <trkpt lat="45.85574" lon="1.24266">
        <ele>273.1</ele>
        <time>2025-06-16T12:22:41Z</time>
      </trkpt>
      <trkpt lat="45.85575" lon="1.24268">
        <ele>273.3</ele>
        <time>2025-06-16T12:22:42Z</time>
      </trkpt>
      <trkpt lat="45.85577" lon="1.24269">
        <ele>273.4</ele>
        <time>2025-06-16T12:22:43Z</time>
      </trkpt>
      <trkpt lat="45.85578" lon="1.24271">
        <ele>273.5</ele>
        <time>2025-06-16T12:22:44Z</time>
      </trkpt>
      <trkpt lat="45.85579" lon="1.24272">
        <ele>273.6</ele>
        <time>2025-06-16T12:22:45Z</time>
      </trkpt>
      <trkpt lat="45.85581" lon="1.24273">
        <ele>273.7</ele>
        <time>2025-06-16T12:22:46Z</time>
      </trkpt>
      <trkpt lat="45.85581" lon="1.24274">
        <ele>273.8</ele>
        <time>2025-06-16T12:22:47Z</time>
      </trkpt>
      <trkpt lat="45.85583" lon="1.24275">
        <ele>273.9</ele>
        <time>2025-06-16T12:22:49Z</time>
      </trkpt>
      <trkpt lat="45.85584" lon="1.24277">
        <ele>274</ele>
        <time>2025-06-16T12:22:50Z</time>
      </trkpt>
      <trkpt lat="45.85587" lon="1.24282">
        <ele>274.2</ele>
        <time>2025-06-16T12:22:51Z</time>
      </trkpt>
      <trkpt lat="45.85588" lon="1.24285">
        <ele>274.3</ele>
        <time>2025-06-16T12:22:52Z</time>
      </trkpt>
      <trkpt lat="45.85589" lon="1.2429">
        <ele>274.5</ele>
        <time>2025-06-16T12:22:54Z</time>
      </trkpt>
      <trkpt lat="45.8559" lon="1.24296">
        <ele>274.5</ele>
        <time>2025-06-16T12:22:55Z</time>
      </trkpt>
      <trkpt lat="45.85591" lon="1.24304">
        <ele>274.5</ele>
        <time>2025-06-16T12:22:56Z</time>
      </trkpt>
      <trkpt lat="45.85592" lon="1.24309">
        <ele>274.4</ele>
        <time>2025-06-16T12:22:58Z</time>
      </trkpt>
      <trkpt lat="45.85593" lon="1.24313">
        <ele>274.4</ele>
        <time>2025-06-16T12:22:59Z</time>
      </trkpt>
      <trkpt lat="45.85593" lon="1.24318">
        <ele>274.4</ele>
        <time>2025-06-16T12:23:00Z</time>
      </trkpt>
      <trkpt lat="45.85593" lon="1.24321">
        <ele>274.4</ele>
        <time>2025-06-16T12:23:01Z</time>
      </trkpt>
      <trkpt lat="45.85593" lon="1.24325">
        <ele>274.3</ele>
        <time>2025-06-16T12:23:02Z</time>
      </trkpt>
      <trkpt lat="45.85593" lon="1.24329">
        <ele>274.3</ele>
        <time>2025-06-16T12:23:03Z</time>
      </trkpt>
      <trkpt lat="45.85593" lon="1.24333">
        <ele>274.3</ele>
        <time>2025-06-16T12:23:04Z</time>
      </trkpt>
      <trkpt lat="45.85592" lon="1.24338">
        <ele>274.3</ele>
        <time>2025-06-16T12:23:05Z</time>
      </trkpt>
      <trkpt lat="45.85592" lon="1.24343">
        <ele>274.3</ele>
        <time>2025-06-16T12:23:06Z</time>
      </trkpt>
      <trkpt lat="45.85591" lon="1.24349">
        <ele>274.4</ele>
        <time>2025-06-16T12:23:07Z</time>
      </trkpt>
      <trkpt lat="45.85591" lon="1.24356">
        <ele>274.5</ele>
        <time>2025-06-16T12:23:08Z</time>
      </trkpt>
      <trkpt lat="45.8559" lon="1.24362">
        <ele>274.5</ele>
        <time>2025-06-16T12:23:09Z</time>
      </trkpt>
      <trkpt lat="45.8559" lon="1.24368">
        <ele>274.7</ele>
        <time>2025-06-16T12:23:10Z</time>
      </trkpt>
      <trkpt lat="45.8559" lon="1.24377">
        <ele>274.9</ele>
        <time>2025-06-16T12:23:11Z</time>
      </trkpt>
      <trkpt lat="45.8559" lon="1.24381">
        <ele>275</ele>
        <time>2025-06-16T12:23:13Z</time>
      </trkpt>
      <trkpt lat="45.8559" lon="1.24386">
        <ele>275.2</ele>
        <time>2025-06-16T12:23:14Z</time>
      </trkpt>
      <trkpt lat="45.85591" lon="1.2439">
        <ele>275.3</ele>
        <time>2025-06-16T12:23:15Z</time>
      </trkpt>
      <trkpt lat="45.85591" lon="1.24394">
        <ele>275.5</ele>
        <time>2025-06-16T12:23:16Z</time>
      </trkpt>
      <trkpt lat="45.85592" lon="1.24403">
        <ele>275.7</ele>
        <time>2025-06-16T12:23:17Z</time>
      </trkpt>
      <trkpt lat="45.85592" lon="1.24408">
        <ele>275.9</ele>
        <time>2025-06-16T12:23:18Z</time>
      </trkpt>
      <trkpt lat="45.85593" lon="1.24413">
        <ele>276</ele>
        <time>2025-06-16T12:23:20Z</time>
      </trkpt>
      <trkpt lat="45.85593" lon="1.24417">
        <ele>276.2</ele>
        <time>2025-06-16T12:23:21Z</time>
      </trkpt>
      <trkpt lat="45.85594" lon="1.24426">
        <ele>276.5</ele>
        <time>2025-06-16T12:23:22Z</time>
      </trkpt>
      <trkpt lat="45.85595" lon="1.24431">
        <ele>276.6</ele>
        <time>2025-06-16T12:23:24Z</time>
      </trkpt>
      <trkpt lat="45.85596" lon="1.24435">
        <ele>276.8</ele>
        <time>2025-06-16T12:23:25Z</time>
      </trkpt>
      <trkpt lat="45.85596" lon="1.24439">
        <ele>276.9</ele>
        <time>2025-06-16T12:23:26Z</time>
      </trkpt>
      <trkpt lat="45.85597" lon="1.24444">
        <ele>277.1</ele>
        <time>2025-06-16T12:23:27Z</time>
      </trkpt>
      <trkpt lat="45.85597" lon="1.24446">
        <ele>277.2</ele>
        <time>2025-06-16T12:23:28Z</time>
      </trkpt>
      <trkpt lat="45.85598" lon="1.2445">
        <ele>277.3</ele>
        <time>2025-06-16T12:23:29Z</time>
      </trkpt>
      <trkpt lat="45.85599" lon="1.24455">
        <ele>277.5</ele>
        <time>2025-06-16T12:23:30Z</time>
      </trkpt>
      <trkpt lat="45.85599" lon="1.24456">
        <ele>277.6</ele>
        <time>2025-06-16T12:23:31Z</time>
      </trkpt>
      <trkpt lat="45.856" lon="1.2446">
        <ele>277.8</ele>
        <time>2025-06-16T12:23:32Z</time>
      </trkpt>
      <trkpt lat="45.85601" lon="1.24461">
        <ele>277.8</ele>
        <time>2025-06-16T12:23:33Z</time>
      </trkpt>
      <trkpt lat="45.85603" lon="1.24466">
        <ele>278.1</ele>
        <time>2025-06-16T12:23:34Z</time>
      </trkpt>
      <trkpt lat="45.85604" lon="1.24468">
        <ele>278.2</ele>
        <time>2025-06-16T12:23:35Z</time>
      </trkpt>
      <trkpt lat="45.85606" lon="1.24471">
        <ele>278.4</ele>
        <time>2025-06-16T12:23:36Z</time>
      </trkpt>
      <trkpt lat="45.85608" lon="1.24474">
        <ele>278.6</ele>
        <time>2025-06-16T12:23:37Z</time>
      </trkpt>
      <trkpt lat="45.85609" lon="1.24475">
        <ele>278.7</ele>
        <time>2025-06-16T12:23:38Z</time>
      </trkpt>
      <trkpt lat="45.85612" lon="1.24478">
        <ele>278.9</ele>
        <time>2025-06-16T12:23:39Z</time>
      </trkpt>
      <trkpt lat="45.85612" lon="1.24479">
        <ele>279</ele>
        <time>2025-06-16T12:23:40Z</time>
      </trkpt>
      <trkpt lat="45.85614" lon="1.24481">
        <ele>279.1</ele>
        <time>2025-06-16T12:23:41Z</time>
      </trkpt>
      <trkpt lat="45.85615" lon="1.24481">
        <ele>279.2</ele>
        <time>2025-06-16T12:23:42Z</time>
      </trkpt>
      <trkpt lat="45.85616" lon="1.24482">
        <ele>279.3</ele>
        <time>2025-06-16T12:23:43Z</time>
      </trkpt>
      <trkpt lat="45.85616" lon="1.24483">
        <ele>279.4</ele>
        <time>2025-06-16T12:23:44Z</time>
      </trkpt>
      <trkpt lat="45.85617" lon="1.24485">
        <ele>279.5</ele>
        <time>2025-06-16T12:23:45Z</time>
      </trkpt>
      <trkpt lat="45.85619" lon="1.24488">
        <ele>279.7</ele>
        <time>2025-06-16T12:23:46Z</time>
      </trkpt>
      <trkpt lat="45.85619" lon="1.2449">
        <ele>279.8</ele>
        <time>2025-06-16T12:23:47Z</time>
      </trkpt>
      <trkpt lat="45.85621" lon="1.24494">
        <ele>280.1</ele>
        <time>2025-06-16T12:23:48Z</time>
      </trkpt>
      <trkpt lat="45.85622" lon="1.24495">
        <ele>280.1</ele>
        <time>2025-06-16T12:23:49Z</time>
      </trkpt>
      <trkpt lat="45.85624" lon="1.24498">
        <ele>280.4</ele>
        <time>2025-06-16T12:23:50Z</time>
      </trkpt>
      <trkpt lat="45.85624" lon="1.24499">
        <ele>280.5</ele>
        <time>2025-06-16T12:23:51Z</time>
      </trkpt>
      <trkpt lat="45.85626" lon="1.24503">
        <ele>280.7</ele>
        <time>2025-06-16T12:23:52Z</time>
      </trkpt>
      <trkpt lat="45.85627" lon="1.24504">
        <ele>280.8</ele>
        <time>2025-06-16T12:23:53Z</time>
      </trkpt>
      <trkpt lat="45.8563" lon="1.24509">
        <ele>281.2</ele>
        <time>2025-06-16T12:23:54Z</time>
      </trkpt>
      <trkpt lat="45.85633" lon="1.24513">
        <ele>281.6</ele>
        <time>2025-06-16T12:23:56Z</time>
      </trkpt>
      <trkpt lat="45.85634" lon="1.24514">
        <ele>281.7</ele>
        <time>2025-06-16T12:23:57Z</time>
      </trkpt>
      <trkpt lat="45.85635" lon="1.24515">
        <ele>281.8</ele>
        <time>2025-06-16T12:23:58Z</time>
      </trkpt>
      <trkpt lat="45.85636" lon="1.24517">
        <ele>281.9</ele>
        <time>2025-06-16T12:23:59Z</time>
      </trkpt>
      <trkpt lat="45.85638" lon="1.24521">
        <ele>282.2</ele>
        <time>2025-06-16T12:24:00Z</time>
      </trkpt>
      <trkpt lat="45.8564" lon="1.24524">
        <ele>282.5</ele>
        <time>2025-06-16T12:24:02Z</time>
      </trkpt>
      <trkpt lat="45.85643" lon="1.24528">
        <ele>282.8</ele>
        <time>2025-06-16T12:24:03Z</time>
      </trkpt>
      <trkpt lat="45.85643" lon="1.24529">
        <ele>282.8</ele>
        <time>2025-06-16T12:24:04Z</time>
      </trkpt>
      <trkpt lat="45.85645" lon="1.24532">
        <ele>283.1</ele>
        <time>2025-06-16T12:24:05Z</time>
      </trkpt>
      <trkpt lat="45.85646" lon="1.24533">
        <ele>283.2</ele>
        <time>2025-06-16T12:24:06Z</time>
      </trkpt>
      <trkpt lat="45.85649" lon="1.24538">
        <ele>283.6</ele>
        <time>2025-06-16T12:24:07Z</time>
      </trkpt>
      <trkpt lat="45.8565" lon="1.24541">
        <ele>283.8</ele>
        <time>2025-06-16T12:24:08Z</time>
      </trkpt>
      <trkpt lat="45.85652" lon="1.24543">
        <ele>284</ele>
        <time>2025-06-16T12:24:09Z</time>
      </trkpt>
      <trkpt lat="45.85654" lon="1.24545">
        <ele>284.2</ele>
        <time>2025-06-16T12:24:11Z</time>
      </trkpt>
      <trkpt lat="45.85654" lon="1.24546">
        <ele>284.3</ele>
        <time>2025-06-16T12:24:12Z</time>
      </trkpt>
      <trkpt lat="45.85655" lon="1.24547">
        <ele>284.3</ele>
        <time>2025-06-16T12:24:13Z</time>
      </trkpt>
      <trkpt lat="45.85655" lon="1.24548">
        <ele>284.3</ele>
        <time>2025-06-16T12:24:14Z</time>
      </trkpt>
      <trkpt lat="45.85655" lon="1.24548">
        <ele>284.4</ele>
        <time>2025-06-16T12:24:15Z</time>
      </trkpt>
      <trkpt lat="45.85655" lon="1.24548">
        <ele>284.4</ele>
        <time>2025-06-16T12:24:16Z</time>
      </trkpt>
      <trkpt lat="45.85655" lon="1.24548">
        <ele>284.4</ele>
        <time>2025-06-16T12:24:17Z</time>
      </trkpt>
      <trkpt lat="45.85655" lon="1.24548">
        <ele>284.4</ele>
        <time>2025-06-16T12:24:18Z</time>
      </trkpt>
      <trkpt lat="45.85655" lon="1.24548">
        <ele>284.4</ele>
        <time>2025-06-16T12:24:19Z</time>
      </trkpt>
      <trkpt lat="45.85655" lon="1.24547">
        <ele>284.4</ele>
        <time>2025-06-16T12:24:20Z</time>
      </trkpt>
      <trkpt lat="45.85655" lon="1.24547">
        <ele>284.4</ele>
        <time>2025-06-16T12:24:21Z</time>
      </trkpt>
      <trkpt lat="45.85655" lon="1.24547">
        <ele>284.4</ele>
        <time>2025-06-16T12:24:22Z</time>
      </trkpt>
      <trkpt lat="45.85655" lon="1.24547">
        <ele>284.4</ele>
        <time>2025-06-16T12:24:23Z</time>
      </trkpt>
      <trkpt lat="45.85655" lon="1.24547">
        <ele>284.4</ele>
        <time>2025-06-16T12:24:24Z</time>
      </trkpt>
      <trkpt lat="45.85655" lon="1.24547">
        <ele>284.4</ele>
        <time>2025-06-16T12:24:25Z</time>
      </trkpt>
      <trkpt lat="45.85655" lon="1.24547">
        <ele>284.4</ele>
        <time>2025-06-16T12:24:26Z</time>
      </trkpt>
      <trkpt lat="45.85655" lon="1.24546">
        <ele>284.4</ele>
        <time>2025-06-16T12:24:27Z</time>
      </trkpt>
      <trkpt lat="45.85655" lon="1.24546">
        <ele>284.5</ele>
        <time>2025-06-16T12:24:28Z</time>
      </trkpt>
      <trkpt lat="45.85655" lon="1.24546">
        <ele>284.5</ele>
        <time>2025-06-16T12:24:29Z</time>
      </trkpt>
      <trkpt lat="45.85655" lon="1.24546">
        <ele>284.5</ele>
        <time>2025-06-16T12:24:30Z</time>
      </trkpt>
      <trkpt lat="45.85655" lon="1.24546">
        <ele>284.5</ele>
        <time>2025-06-16T12:24:31Z</time>
      </trkpt>
      <trkpt lat="45.85655" lon="1.24546">
        <ele>284.5</ele>
        <time>2025-06-16T12:24:32Z</time>
      </trkpt>
      <trkpt lat="45.85655" lon="1.24546">
        <ele>284.5</ele>
        <time>2025-06-16T12:24:33Z</time>
      </trkpt>
      <trkpt lat="45.85655" lon="1.24546">
        <ele>284.5</ele>
        <time>2025-06-16T12:24:34Z</time>
      </trkpt>
      <trkpt lat="45.85655" lon="1.24546">
        <ele>284.5</ele>
        <time>2025-06-16T12:24:35Z</time>
      </trkpt>
      <trkpt lat="45.85655" lon="1.24546">
        <ele>284.5</ele>
        <time>2025-06-16T12:24:36Z</time>
      </trkpt>
      <trkpt lat="45.85655" lon="1.24546">
        <ele>284.5</ele>
        <time>2025-06-16T12:24:37Z</time>
      </trkpt>
      <trkpt lat="45.85655" lon="1.24546">
        <ele>284.5</ele>
        <time>2025-06-16T12:24:38Z</time>
      </trkpt>
      <trkpt lat="45.85656" lon="1.24546">
        <ele>284.6</ele>
        <time>2025-06-16T12:24:39Z</time>
      </trkpt>
      <trkpt lat="45.85656" lon="1.24546">
        <ele>284.6</ele>
        <time>2025-06-16T12:24:40Z</time>
      </trkpt>
      <trkpt lat="45.85656" lon="1.24546">
        <ele>284.6</ele>
        <time>2025-06-16T12:24:41Z</time>
      </trkpt>
      <trkpt lat="45.85656" lon="1.24546">
        <ele>284.6</ele>
        <time>2025-06-16T12:24:42Z</time>
      </trkpt>
      <trkpt lat="45.85656" lon="1.24546">
        <ele>284.6</ele>
        <time>2025-06-16T12:24:43Z</time>
      </trkpt>
      <trkpt lat="45.85656" lon="1.24546">
        <ele>284.6</ele>
        <time>2025-06-16T12:24:44Z</time>
      </trkpt>
      <trkpt lat="45.85656" lon="1.24546">
        <ele>284.7</ele>
        <time>2025-06-16T12:24:45Z</time>
      </trkpt>
      <trkpt lat="45.85656" lon="1.24546">
        <ele>284.7</ele>
        <time>2025-06-16T12:24:46Z</time>
      </trkpt>
      <trkpt lat="45.85656" lon="1.24545">
        <ele>284.7</ele>
        <time>2025-06-16T12:24:47Z</time>
      </trkpt>
      <trkpt lat="45.85656" lon="1.24545">
        <ele>284.7</ele>
        <time>2025-06-16T12:24:48Z</time>
      </trkpt>
      <trkpt lat="45.85656" lon="1.24545">
        <ele>284.7</ele>
        <time>2025-06-16T12:24:49Z</time>
      </trkpt>
      <trkpt lat="45.85656" lon="1.24546">
        <ele>284.7</ele>
        <time>2025-06-16T12:24:50Z</time>
      </trkpt>
      <trkpt lat="45.85656" lon="1.24545">
        <ele>284.7</ele>
        <time>2025-06-16T12:24:51Z</time>
      </trkpt>
      <trkpt lat="45.85656" lon="1.24545">
        <ele>284.8</ele>
        <time>2025-06-16T12:24:52Z</time>
      </trkpt>
      <trkpt lat="45.85656" lon="1.24546">
        <ele>284.8</ele>
        <time>2025-06-16T12:24:53Z</time>
      </trkpt>
      <trkpt lat="45.85656" lon="1.24546">
        <ele>284.8</ele>
        <time>2025-06-16T12:24:54Z</time>
      </trkpt>
      <trkpt lat="45.85656" lon="1.24546">
        <ele>284.8</ele>
        <time>2025-06-16T12:24:55Z</time>
      </trkpt>
      <trkpt lat="45.85656" lon="1.24546">
        <ele>284.8</ele>
        <time>2025-06-16T12:24:56Z</time>
      </trkpt>
      <trkpt lat="45.85656" lon="1.24546">
        <ele>284.8</ele>
        <time>2025-06-16T12:24:57Z</time>
      </trkpt>
      <trkpt lat="45.85657" lon="1.24547">
        <ele>284.9</ele>
        <time>2025-06-16T12:24:58Z</time>
      </trkpt>
      <trkpt lat="45.85657" lon="1.24547">
        <ele>284.9</ele>
        <time>2025-06-16T12:24:59Z</time>
      </trkpt>
      <trkpt lat="45.85657" lon="1.24547">
        <ele>284.9</ele>
        <time>2025-06-16T12:25:00Z</time>
      </trkpt>
      <trkpt lat="45.85657" lon="1.24547">
        <ele>284.9</ele>
        <time>2025-06-16T12:25:01Z</time>
      </trkpt>
      <trkpt lat="45.85657" lon="1.24547">
        <ele>284.9</ele>
        <time>2025-06-16T12:25:02Z</time>
      </trkpt>
      <trkpt lat="45.85657" lon="1.24547">
        <ele>284.9</ele>
        <time>2025-06-16T12:25:03Z</time>
      </trkpt>
      <trkpt lat="45.85657" lon="1.24547">
        <ele>285</ele>
        <time>2025-06-16T12:25:04Z</time>
      </trkpt>
      <trkpt lat="45.85657" lon="1.24547">
        <ele>285</ele>
        <time>2025-06-16T12:25:05Z</time>
      </trkpt>
      <trkpt lat="45.85657" lon="1.24547">
        <ele>285</ele>
        <time>2025-06-16T12:25:06Z</time>
      </trkpt>
      <trkpt lat="45.85657" lon="1.24547">
        <ele>285</ele>
        <time>2025-06-16T12:25:07Z</time>
      </trkpt>
      <trkpt lat="45.85657" lon="1.24547">
        <ele>285</ele>
        <time>2025-06-16T12:25:08Z</time>
      </trkpt>
      <trkpt lat="45.85657" lon="1.24547">
        <ele>285</ele>
        <time>2025-06-16T12:25:09Z</time>
      </trkpt>
      <trkpt lat="45.85657" lon="1.24547">
        <ele>285.1</ele>
        <time>2025-06-16T12:25:10Z</time>
      </trkpt>
      <trkpt lat="45.85656" lon="1.24547">
        <ele>285.1</ele>
        <time>2025-06-16T12:25:11Z</time>
      </trkpt>
      <trkpt lat="45.85657" lon="1.24546">
        <ele>285.1</ele>
        <time>2025-06-16T12:25:12Z</time>
      </trkpt>
      <trkpt lat="45.85657" lon="1.24546">
        <ele>285.1</ele>
        <time>2025-06-16T12:25:13Z</time>
      </trkpt>
      <trkpt lat="45.85657" lon="1.24547">
        <ele>285.1</ele>
        <time>2025-06-16T12:25:14Z</time>
      </trkpt>
      <trkpt lat="45.85657" lon="1.24547">
        <ele>285.1</ele>
        <time>2025-06-16T12:25:15Z</time>
      </trkpt>
      <trkpt lat="45.85657" lon="1.24547">
        <ele>285.1</ele>
        <time>2025-06-16T12:25:16Z</time>
      </trkpt>
      <trkpt lat="45.85657" lon="1.24547">
        <ele>285.1</ele>
        <time>2025-06-16T12:25:17Z</time>
      </trkpt>
      <trkpt lat="45.85657" lon="1.24547">
        <ele>285.1</ele>
        <time>2025-06-16T12:25:18Z</time>
      </trkpt>
      <trkpt lat="45.85656" lon="1.24547">
        <ele>285.2</ele>
        <time>2025-06-16T12:25:19Z</time>
      </trkpt>
      <trkpt lat="45.85656" lon="1.24547">
        <ele>285.2</ele>
        <time>2025-06-16T12:25:20Z</time>
      </trkpt>
      <trkpt lat="45.85656" lon="1.24547">
        <ele>285.2</ele>
        <time>2025-06-16T12:25:21Z</time>
      </trkpt>
      <trkpt lat="45.85656" lon="1.24547">
        <ele>285.2</ele>
        <time>2025-06-16T12:25:22Z</time>
      </trkpt>
      <trkpt lat="45.85656" lon="1.24548">
        <ele>285.2</ele>
        <time>2025-06-16T12:25:23Z</time>
      </trkpt>
      <trkpt lat="45.85656" lon="1.24548">
        <ele>285.2</ele>
        <time>2025-06-16T12:25:24Z</time>
      </trkpt>
      <trkpt lat="45.85656" lon="1.24548">
        <ele>285.3</ele>
        <time>2025-06-16T12:25:25Z</time>
      </trkpt>
      <trkpt lat="45.85655" lon="1.24548">
        <ele>285.3</ele>
        <time>2025-06-16T12:25:26Z</time>
      </trkpt>
      <trkpt lat="45.85655" lon="1.24549">
        <ele>285.3</ele>
        <time>2025-06-16T12:25:27Z</time>
      </trkpt>
      <trkpt lat="45.85655" lon="1.24549">
        <ele>285.3</ele>
        <time>2025-06-16T12:25:28Z</time>
      </trkpt>
      <trkpt lat="45.85655" lon="1.24549">
        <ele>285.3</ele>
        <time>2025-06-16T12:25:29Z</time>
      </trkpt>
      <trkpt lat="45.85655" lon="1.24549">
        <ele>285.3</ele>
        <time>2025-06-16T12:25:30Z</time>
      </trkpt>
      <trkpt lat="45.85655" lon="1.24549">
        <ele>285.4</ele>
        <time>2025-06-16T12:25:31Z</time>
      </trkpt>
      <trkpt lat="45.85655" lon="1.2455">
        <ele>285.4</ele>
        <time>2025-06-16T12:25:32Z</time>
      </trkpt>
      <trkpt lat="45.85655" lon="1.24549">
        <ele>285.4</ele>
        <time>2025-06-16T12:25:33Z</time>
      </trkpt>
      <trkpt lat="45.85655" lon="1.24549">
        <ele>285.4</ele>
        <time>2025-06-16T12:25:34Z</time>
      </trkpt>
      <trkpt lat="45.85655" lon="1.24549">
        <ele>285.4</ele>
        <time>2025-06-16T12:25:35Z</time>
      </trkpt>
      <trkpt lat="45.85655" lon="1.24548">
        <ele>285.4</ele>
        <time>2025-06-16T12:25:36Z</time>
      </trkpt>
      <trkpt lat="45.85655" lon="1.24548">
        <ele>285.4</ele>
        <time>2025-06-16T12:25:37Z</time>
      </trkpt>
      <trkpt lat="45.85655" lon="1.24548">
        <ele>285.4</ele>
        <time>2025-06-16T12:25:38Z</time>
      </trkpt>
      <trkpt lat="45.85655" lon="1.24548">
        <ele>285.4</ele>
        <time>2025-06-16T12:25:39Z</time>
      </trkpt>
      <trkpt lat="45.85655" lon="1.24548">
        <ele>285.5</ele>
        <time>2025-06-16T12:25:40Z</time>
      </trkpt>
      <trkpt lat="45.85655" lon="1.24548">
        <ele>285.5</ele>
        <time>2025-06-16T12:25:41Z</time>
      </trkpt>
      <trkpt lat="45.85655" lon="1.24548">
        <ele>285.5</ele>
        <time>2025-06-16T12:25:42Z</time>
      </trkpt>
      <trkpt lat="45.85655" lon="1.24549">
        <ele>285.5</ele>
        <time>2025-06-16T12:25:43Z</time>
      </trkpt>
      <trkpt lat="45.85655" lon="1.24549">
        <ele>285.5</ele>
        <time>2025-06-16T12:25:44Z</time>
      </trkpt>
      <trkpt lat="45.85655" lon="1.24549">
        <ele>285.5</ele>
        <time>2025-06-16T12:25:45Z</time>
      </trkpt>
      <trkpt lat="45.85655" lon="1.24548">
        <ele>285.5</ele>
        <time>2025-06-16T12:25:46Z</time>
      </trkpt>
      <trkpt lat="45.85655" lon="1.24548">
        <ele>285.5</ele>
        <time>2025-06-16T12:25:47Z</time>
      </trkpt>
      <trkpt lat="45.85655" lon="1.24548">
        <ele>285.5</ele>
        <time>2025-06-16T12:25:48Z</time>
      </trkpt>
      <trkpt lat="45.85655" lon="1.24548">
        <ele>285.5</ele>
        <time>2025-06-16T12:25:49Z</time>
      </trkpt>
      <trkpt lat="45.85655" lon="1.24548">
        <ele>285.5</ele>
        <time>2025-06-16T12:25:50Z</time>
      </trkpt>
      <trkpt lat="45.85655" lon="1.24548">
        <ele>285.5</ele>
        <time>2025-06-16T12:25:51Z</time>
      </trkpt>
      <trkpt lat="45.85655" lon="1.24548">
        <ele>285.5</ele>
        <time>2025-06-16T12:25:52Z</time>
      </trkpt>
      <trkpt lat="45.85655" lon="1.24548">
        <ele>285.5</ele>
        <time>2025-06-16T12:25:53Z</time>
      </trkpt>
      <trkpt lat="45.85655" lon="1.24548">
        <ele>285.5</ele>
        <time>2025-06-16T12:25:54Z</time>
      </trkpt>
      <trkpt lat="45.85655" lon="1.24548">
        <ele>285.5</ele>
        <time>2025-06-16T12:25:55Z</time>
      </trkpt>
      <trkpt lat="45.85655" lon="1.24548">
        <ele>285.5</ele>
        <time>2025-06-16T12:25:56Z</time>
      </trkpt>
      <trkpt lat="45.85655" lon="1.24548">
        <ele>285.6</ele>
        <time>2025-06-16T12:25:57Z</time>
      </trkpt>
      <trkpt lat="45.85655" lon="1.24548">
        <ele>285.6</ele>
        <time>2025-06-16T12:25:58Z</time>
      </trkpt>
      <trkpt lat="45.85655" lon="1.24548">
        <ele>285.6</ele>
        <time>2025-06-16T12:25:59Z</time>
      </trkpt>
      <trkpt lat="45.85655" lon="1.24548">
        <ele>285.6</ele>
        <time>2025-06-16T12:26:00Z</time>
      </trkpt>
      <trkpt lat="45.85655" lon="1.24548">
        <ele>285.6</ele>
        <time>2025-06-16T12:26:01Z</time>
      </trkpt>
      <trkpt lat="45.85655" lon="1.24548">
        <ele>285.6</ele>
        <time>2025-06-16T12:26:02Z</time>
      </trkpt>
      <trkpt lat="45.85655" lon="1.24548">
        <ele>285.6</ele>
        <time>2025-06-16T12:26:03Z</time>
      </trkpt>
      <trkpt lat="45.85655" lon="1.24548">
        <ele>285.6</ele>
        <time>2025-06-16T12:26:04Z</time>
      </trkpt>
      <trkpt lat="45.85654" lon="1.24547">
        <ele>285.6</ele>
        <time>2025-06-16T12:26:05Z</time>
      </trkpt>
      <trkpt lat="45.85654" lon="1.24548">
        <ele>285.6</ele>
        <time>2025-06-16T12:26:06Z</time>
      </trkpt>
      <trkpt lat="45.85654" lon="1.24548">
        <ele>285.6</ele>
        <time>2025-06-16T12:26:07Z</time>
      </trkpt>
      <trkpt lat="45.85654" lon="1.24548">
        <ele>285.6</ele>
        <time>2025-06-16T12:26:08Z</time>
      </trkpt>
      <trkpt lat="45.85654" lon="1.24548">
        <ele>285.7</ele>
        <time>2025-06-16T12:26:09Z</time>
      </trkpt>
      <trkpt lat="45.85654" lon="1.24548">
        <ele>285.7</ele>
        <time>2025-06-16T12:26:10Z</time>
      </trkpt>
      <trkpt lat="45.85654" lon="1.24549">
        <ele>285.7</ele>
        <time>2025-06-16T12:26:11Z</time>
      </trkpt>
      <trkpt lat="45.85655" lon="1.24549">
        <ele>285.7</ele>
        <time>2025-06-16T12:26:12Z</time>
      </trkpt>
      <trkpt lat="45.85655" lon="1.24549">
        <ele>285.7</ele>
        <time>2025-06-16T12:26:13Z</time>
      </trkpt>
      <trkpt lat="45.85655" lon="1.24549">
        <ele>285.7</ele>
        <time>2025-06-16T12:26:14Z</time>
      </trkpt>
      <trkpt lat="45.85655" lon="1.24549">
        <ele>285.8</ele>
        <time>2025-06-16T12:26:15Z</time>
      </trkpt>
      <trkpt lat="45.85656" lon="1.24549">
        <ele>285.8</ele>
        <time>2025-06-16T12:26:16Z</time>
      </trkpt>
      <trkpt lat="45.85656" lon="1.24549">
        <ele>285.8</ele>
        <time>2025-06-16T12:26:17Z</time>
      </trkpt>
      <trkpt lat="45.85655" lon="1.24549">
        <ele>285.8</ele>
        <time>2025-06-16T12:26:18Z</time>
      </trkpt>
      <trkpt lat="45.85655" lon="1.24549">
        <ele>285.8</ele>
        <time>2025-06-16T12:26:19Z</time>
      </trkpt>
      <trkpt lat="45.85655" lon="1.24549">
        <ele>285.8</ele>
        <time>2025-06-16T12:26:20Z</time>
      </trkpt>
      <trkpt lat="45.85655" lon="1.24549">
        <ele>285.8</ele>
        <time>2025-06-16T12:26:21Z</time>
      </trkpt>
      <trkpt lat="45.85655" lon="1.24549">
        <ele>285.8</ele>
        <time>2025-06-16T12:26:22Z</time>
      </trkpt>
      <trkpt lat="45.85655" lon="1.24549">
        <ele>285.8</ele>
        <time>2025-06-16T12:26:23Z</time>
      </trkpt>
      <trkpt lat="45.85655" lon="1.24549">
        <ele>285.8</ele>
        <time>2025-06-16T12:26:24Z</time>
      </trkpt>
      <trkpt lat="45.85655" lon="1.24549">
        <ele>285.8</ele>
        <time>2025-06-16T12:26:25Z</time>
      </trkpt>
      <trkpt lat="45.85655" lon="1.2455">
        <ele>285.8</ele>
        <time>2025-06-16T12:26:26Z</time>
      </trkpt>
      <trkpt lat="45.85655" lon="1.2455">
        <ele>285.9</ele>
        <time>2025-06-16T12:26:27Z</time>
      </trkpt>
      <trkpt lat="45.85655" lon="1.2455">
        <ele>285.9</ele>
        <time>2025-06-16T12:26:28Z</time>
      </trkpt>
      <trkpt lat="45.85655" lon="1.2455">
        <ele>285.9</ele>
        <time>2025-06-16T12:26:29Z</time>
      </trkpt>
      <trkpt lat="45.85655" lon="1.2455">
        <ele>285.9</ele>
        <time>2025-06-16T12:26:30Z</time>
      </trkpt>
      <trkpt lat="45.85655" lon="1.2455">
        <ele>285.9</ele>
        <time>2025-06-16T12:26:31Z</time>
      </trkpt>
      <trkpt lat="45.85655" lon="1.2455">
        <ele>285.9</ele>
        <time>2025-06-16T12:26:32Z</time>
      </trkpt>
      <trkpt lat="45.85655" lon="1.2455">
        <ele>285.9</ele>
        <time>2025-06-16T12:26:33Z</time>
      </trkpt>
      <trkpt lat="45.85655" lon="1.2455">
        <ele>285.9</ele>
        <time>2025-06-16T12:26:34Z</time>
      </trkpt>
      <trkpt lat="45.85655" lon="1.2455">
        <ele>285.9</ele>
        <time>2025-06-16T12:26:35Z</time>
      </trkpt>
      <trkpt lat="45.85655" lon="1.2455">
        <ele>285.9</ele>
        <time>2025-06-16T12:26:36Z</time>
      </trkpt>
      <trkpt lat="45.85655" lon="1.2455">
        <ele>285.9</ele>
        <time>2025-06-16T12:26:37Z</time>
      </trkpt>
      <trkpt lat="45.85655" lon="1.2455">
        <ele>285.9</ele>
        <time>2025-06-16T12:26:38Z</time>
      </trkpt>
      <trkpt lat="45.85655" lon="1.2455">
        <ele>285.9</ele>
        <time>2025-06-16T12:26:39Z</time>
      </trkpt>
      <trkpt lat="45.85655" lon="1.24549">
        <ele>285.9</ele>
        <time>2025-06-16T12:26:40Z</time>
      </trkpt>
      <trkpt lat="45.85655" lon="1.24549">
        <ele>285.9</ele>
        <time>2025-06-16T12:26:41Z</time>
      </trkpt>
      <trkpt lat="45.85656" lon="1.24549">
        <ele>285.9</ele>
        <time>2025-06-16T12:26:42Z</time>
      </trkpt>
      <trkpt lat="45.85656" lon="1.24549">
        <ele>285.9</ele>
        <time>2025-06-16T12:26:43Z</time>
      </trkpt>
      <trkpt lat="45.85656" lon="1.24549">
        <ele>285.9</ele>
        <time>2025-06-16T12:26:44Z</time>
      </trkpt>
      <trkpt lat="45.85656" lon="1.24549">
        <ele>285.9</ele>
        <time>2025-06-16T12:26:45Z</time>
      </trkpt>
      <trkpt lat="45.85656" lon="1.24549">
        <ele>285.9</ele>
        <time>2025-06-16T12:26:46Z</time>
      </trkpt>
      <trkpt lat="45.85656" lon="1.24548">
        <ele>286</ele>
        <time>2025-06-16T12:26:47Z</time>
      </trkpt>
      <trkpt lat="45.85656" lon="1.24548">
        <ele>286</ele>
        <time>2025-06-16T12:26:48Z</time>
      </trkpt>
      <trkpt lat="45.85657" lon="1.24548">
        <ele>286</ele>
        <time>2025-06-16T12:26:49Z</time>
      </trkpt>
      <trkpt lat="45.85657" lon="1.24548">
        <ele>286</ele>
        <time>2025-06-16T12:26:50Z</time>
      </trkpt>
      <trkpt lat="45.85657" lon="1.24548">
        <ele>286</ele>
        <time>2025-06-16T12:26:51Z</time>
      </trkpt>
      <trkpt lat="45.85657" lon="1.24548">
        <ele>286</ele>
        <time>2025-06-16T12:26:52Z</time>
      </trkpt>
      <trkpt lat="45.85657" lon="1.24548">
        <ele>286</ele>
        <time>2025-06-16T12:26:53Z</time>
      </trkpt>
      <trkpt lat="45.85657" lon="1.24548">
        <ele>286</ele>
        <time>2025-06-16T12:26:54Z</time>
      </trkpt>
      <trkpt lat="45.85657" lon="1.24548">
        <ele>286</ele>
        <time>2025-06-16T12:26:55Z</time>
      </trkpt>
      <trkpt lat="45.85658" lon="1.24548">
        <ele>286.1</ele>
        <time>2025-06-16T12:26:56Z</time>
      </trkpt>
      <trkpt lat="45.85658" lon="1.24548">
        <ele>286.1</ele>
        <time>2025-06-16T12:26:57Z</time>
      </trkpt>
      <trkpt lat="45.85658" lon="1.24548">
        <ele>286.1</ele>
        <time>2025-06-16T12:26:58Z</time>
      </trkpt>
      <trkpt lat="45.85658" lon="1.24548">
        <ele>286.1</ele>
        <time>2025-06-16T12:26:59Z</time>
      </trkpt>
      <trkpt lat="45.85658" lon="1.24548">
        <ele>286.1</ele>
        <time>2025-06-16T12:27:00Z</time>
      </trkpt>
      <trkpt lat="45.85658" lon="1.24548">
        <ele>286.1</ele>
        <time>2025-06-16T12:27:01Z</time>
      </trkpt>
      <trkpt lat="45.85658" lon="1.24548">
        <ele>286.1</ele>
        <time>2025-06-16T12:27:02Z</time>
      </trkpt>
      <trkpt lat="45.85658" lon="1.24548">
        <ele>286.1</ele>
        <time>2025-06-16T12:27:03Z</time>
      </trkpt>
      <trkpt lat="45.85658" lon="1.24548">
        <ele>286.1</ele>
        <time>2025-06-16T12:27:04Z</time>
      </trkpt>
      <trkpt lat="45.85658" lon="1.24548">
        <ele>286.1</ele>
        <time>2025-06-16T12:27:05Z</time>
      </trkpt>
      <trkpt lat="45.85658" lon="1.24548">
        <ele>286.1</ele>
        <time>2025-06-16T12:27:06Z</time>
      </trkpt>
      <trkpt lat="45.85659" lon="1.24549">
        <ele>286.2</ele>
        <time>2025-06-16T12:27:07Z</time>
      </trkpt>
      <trkpt lat="45.8566" lon="1.2455">
        <ele>286.2</ele>
        <time>2025-06-16T12:27:08Z</time>
      </trkpt>
      <trkpt lat="45.85661" lon="1.24555">
        <ele>285.8</ele>
        <time>2025-06-16T12:27:09Z</time>
      </trkpt>
      <trkpt lat="45.85661" lon="1.24556">
        <ele>285.8</ele>
        <time>2025-06-16T12:27:10Z</time>
      </trkpt>
      <trkpt lat="45.85661" lon="1.24561">
        <ele>285.6</ele>
        <time>2025-06-16T12:27:11Z</time>
      </trkpt>
      <trkpt lat="45.85661" lon="1.24566">
        <ele>285.4</ele>
        <time>2025-06-16T12:27:12Z</time>
      </trkpt>
      <trkpt lat="45.85661" lon="1.24571">
        <ele>285.3</ele>
        <time>2025-06-16T12:27:13Z</time>
      </trkpt>
      <trkpt lat="45.85661" lon="1.24576">
        <ele>285</ele>
        <time>2025-06-16T12:27:14Z</time>
      </trkpt>
      <trkpt lat="45.8566" lon="1.24582">
        <ele>284.8</ele>
        <time>2025-06-16T12:27:15Z</time>
      </trkpt>
      <trkpt lat="45.8566" lon="1.24588">
        <ele>284.6</ele>
        <time>2025-06-16T12:27:16Z</time>
      </trkpt>
      <trkpt lat="45.8566" lon="1.24595">
        <ele>284.3</ele>
        <time>2025-06-16T12:27:17Z</time>
      </trkpt>
      <trkpt lat="45.85659" lon="1.24602">
        <ele>284.1</ele>
        <time>2025-06-16T12:27:18Z</time>
      </trkpt>
      <trkpt lat="45.85659" lon="1.2461">
        <ele>283.8</ele>
        <time>2025-06-16T12:27:19Z</time>
      </trkpt>
      <trkpt lat="45.85659" lon="1.24618">
        <ele>283.5</ele>
        <time>2025-06-16T12:27:20Z</time>
      </trkpt>
      <trkpt lat="45.85659" lon="1.24626">
        <ele>283.2</ele>
        <time>2025-06-16T12:27:21Z</time>
      </trkpt>
      <trkpt lat="45.85658" lon="1.24634">
        <ele>282.9</ele>
        <time>2025-06-16T12:27:22Z</time>
      </trkpt>
      <trkpt lat="45.85657" lon="1.24643">
        <ele>282.6</ele>
        <time>2025-06-16T12:27:23Z</time>
      </trkpt>
      <trkpt lat="45.85656" lon="1.24651">
        <ele>282.3</ele>
        <time>2025-06-16T12:27:24Z</time>
      </trkpt>
      <trkpt lat="45.85655" lon="1.2466">
        <ele>282.3</ele>
        <time>2025-06-16T12:27:25Z</time>
      </trkpt>
      <trkpt lat="45.85653" lon="1.24668">
        <ele>282.2</ele>
        <time>2025-06-16T12:27:26Z</time>
      </trkpt>
      <trkpt lat="45.85651" lon="1.24676">
        <ele>282.1</ele>
        <time>2025-06-16T12:27:27Z</time>
      </trkpt>
      <trkpt lat="45.85648" lon="1.24684">
        <ele>281.8</ele>
        <time>2025-06-16T12:27:28Z</time>
      </trkpt>
      <trkpt lat="45.85645" lon="1.24692">
        <ele>281.4</ele>
        <time>2025-06-16T12:27:29Z</time>
      </trkpt>
      <trkpt lat="45.85643" lon="1.247">
        <ele>281</ele>
        <time>2025-06-16T12:27:30Z</time>
      </trkpt>
      <trkpt lat="45.85641" lon="1.24708">
        <ele>280.6</ele>
        <time>2025-06-16T12:27:31Z</time>
      </trkpt>
      <trkpt lat="45.85638" lon="1.24716">
        <ele>280.2</ele>
        <time>2025-06-16T12:27:32Z</time>
      </trkpt>
      <trkpt lat="45.85634" lon="1.24725">
        <ele>279.7</ele>
        <time>2025-06-16T12:27:33Z</time>
      </trkpt>
      <trkpt lat="45.85631" lon="1.24734">
        <ele>279.2</ele>
        <time>2025-06-16T12:27:34Z</time>
      </trkpt>
      <trkpt lat="45.85627" lon="1.24743">
        <ele>278.8</ele>
        <time>2025-06-16T12:27:35Z</time>
      </trkpt>
      <trkpt lat="45.85623" lon="1.2475">
        <ele>278.9</ele>
        <time>2025-06-16T12:27:36Z</time>
      </trkpt>
      <trkpt lat="45.85619" lon="1.24759">
        <ele>279</ele>
        <time>2025-06-16T12:27:37Z</time>
      </trkpt>
      <trkpt lat="45.85615" lon="1.24767">
        <ele>279</ele>
        <time>2025-06-16T12:27:38Z</time>
      </trkpt>
      <trkpt lat="45.85612" lon="1.24775">
        <ele>279</ele>
        <time>2025-06-16T12:27:39Z</time>
      </trkpt>
      <trkpt lat="45.85608" lon="1.24782">
        <ele>278.9</ele>
        <time>2025-06-16T12:27:40Z</time>
      </trkpt>
      <trkpt lat="45.85604" lon="1.2479">
        <ele>278.8</ele>
        <time>2025-06-16T12:27:41Z</time>
      </trkpt>
      <trkpt lat="45.856" lon="1.24796">
        <ele>278.7</ele>
        <time>2025-06-16T12:27:42Z</time>
      </trkpt>
      <trkpt lat="45.85596" lon="1.24803">
        <ele>278.6</ele>
        <time>2025-06-16T12:27:43Z</time>
      </trkpt>
      <trkpt lat="45.85592" lon="1.2481">
        <ele>278.6</ele>
        <time>2025-06-16T12:27:44Z</time>
      </trkpt>
      <trkpt lat="45.85589" lon="1.24816">
        <ele>278.5</ele>
        <time>2025-06-16T12:27:45Z</time>
      </trkpt>
      <trkpt lat="45.85588" lon="1.24821">
        <ele>278.5</ele>
        <time>2025-06-16T12:27:46Z</time>
      </trkpt>
      <trkpt lat="45.85587" lon="1.24827">
        <ele>278.3</ele>
        <time>2025-06-16T12:27:47Z</time>
      </trkpt>
      <trkpt lat="45.85589" lon="1.24833">
        <ele>278.2</ele>
        <time>2025-06-16T12:27:48Z</time>
      </trkpt>
      <trkpt lat="45.85592" lon="1.24839">
        <ele>278</ele>
        <time>2025-06-16T12:27:49Z</time>
      </trkpt>
      <trkpt lat="45.85596" lon="1.24845">
        <ele>277.8</ele>
        <time>2025-06-16T12:27:50Z</time>
      </trkpt>
      <trkpt lat="45.85599" lon="1.24851">
        <ele>277.7</ele>
        <time>2025-06-16T12:27:51Z</time>
      </trkpt>
      <trkpt lat="45.85603" lon="1.24856">
        <ele>277.6</ele>
        <time>2025-06-16T12:27:52Z</time>
      </trkpt>
      <trkpt lat="45.85607" lon="1.24861">
        <ele>277.6</ele>
        <time>2025-06-16T12:27:53Z</time>
      </trkpt>
      <trkpt lat="45.8561" lon="1.24866">
        <ele>277.6</ele>
        <time>2025-06-16T12:27:54Z</time>
      </trkpt>
      <trkpt lat="45.85613" lon="1.24872">
        <ele>277.5</ele>
        <time>2025-06-16T12:27:55Z</time>
      </trkpt>
      <trkpt lat="45.85616" lon="1.24877">
        <ele>277.5</ele>
        <time>2025-06-16T12:27:56Z</time>
      </trkpt>
      <trkpt lat="45.85619" lon="1.24882">
        <ele>277.5</ele>
        <time>2025-06-16T12:27:57Z</time>
      </trkpt>
      <trkpt lat="45.85622" lon="1.24887">
        <ele>277.5</ele>
        <time>2025-06-16T12:27:58Z</time>
      </trkpt>
      <trkpt lat="45.85625" lon="1.24893">
        <ele>277.5</ele>
        <time>2025-06-16T12:27:59Z</time>
      </trkpt>
      <trkpt lat="45.85629" lon="1.24898">
        <ele>277.5</ele>
        <time>2025-06-16T12:28:00Z</time>
      </trkpt>
      <trkpt lat="45.85633" lon="1.24903">
        <ele>277.5</ele>
        <time>2025-06-16T12:28:01Z</time>
      </trkpt>
      <trkpt lat="45.85636" lon="1.24909">
        <ele>277.5</ele>
        <time>2025-06-16T12:28:02Z</time>
      </trkpt>
      <trkpt lat="45.8564" lon="1.24914">
        <ele>277.6</ele>
        <time>2025-06-16T12:28:03Z</time>
      </trkpt>
      <trkpt lat="45.85643" lon="1.24919">
        <ele>277.6</ele>
        <time>2025-06-16T12:28:04Z</time>
      </trkpt>
      <trkpt lat="45.85646" lon="1.24924">
        <ele>277.6</ele>
        <time>2025-06-16T12:28:05Z</time>
      </trkpt>
      <trkpt lat="45.8565" lon="1.24929">
        <ele>277.7</ele>
        <time>2025-06-16T12:28:06Z</time>
      </trkpt>
      <trkpt lat="45.85653" lon="1.24934">
        <ele>277.7</ele>
        <time>2025-06-16T12:28:07Z</time>
      </trkpt>
      <trkpt lat="45.85656" lon="1.24939">
        <ele>277.8</ele>
        <time>2025-06-16T12:28:08Z</time>
      </trkpt>
      <trkpt lat="45.85659" lon="1.24943">
        <ele>277.9</ele>
        <time>2025-06-16T12:28:09Z</time>
      </trkpt>
      <trkpt lat="45.85663" lon="1.24948">
        <ele>278</ele>
        <time>2025-06-16T12:28:10Z</time>
      </trkpt>
      <trkpt lat="45.85666" lon="1.24952">
        <ele>278</ele>
        <time>2025-06-16T12:28:11Z</time>
      </trkpt>
      <trkpt lat="45.85669" lon="1.24957">
        <ele>278.1</ele>
        <time>2025-06-16T12:28:12Z</time>
      </trkpt>
      <trkpt lat="45.85673" lon="1.24961">
        <ele>278.2</ele>
        <time>2025-06-16T12:28:13Z</time>
      </trkpt>
      <trkpt lat="45.85676" lon="1.24966">
        <ele>278.2</ele>
        <time>2025-06-16T12:28:14Z</time>
      </trkpt>
      <trkpt lat="45.8568" lon="1.24971">
        <ele>278.3</ele>
        <time>2025-06-16T12:28:15Z</time>
      </trkpt>
      <trkpt lat="45.85684" lon="1.24976">
        <ele>278.4</ele>
        <time>2025-06-16T12:28:16Z</time>
      </trkpt>
      <trkpt lat="45.85687" lon="1.24981">
        <ele>278.5</ele>
        <time>2025-06-16T12:28:17Z</time>
      </trkpt>
      <trkpt lat="45.8569" lon="1.24986">
        <ele>278.6</ele>
        <time>2025-06-16T12:28:18Z</time>
      </trkpt>
      <trkpt lat="45.85692" lon="1.24992">
        <ele>278.6</ele>
        <time>2025-06-16T12:28:19Z</time>
      </trkpt>
      <trkpt lat="45.85696" lon="1.24996">
        <ele>278.7</ele>
        <time>2025-06-16T12:28:20Z</time>
      </trkpt>
      <trkpt lat="45.85699" lon="1.25001">
        <ele>278.8</ele>
        <time>2025-06-16T12:28:21Z</time>
      </trkpt>
      <trkpt lat="45.85702" lon="1.25006">
        <ele>278.9</ele>
        <time>2025-06-16T12:28:22Z</time>
      </trkpt>
      <trkpt lat="45.85705" lon="1.2501">
        <ele>279</ele>
        <time>2025-06-16T12:28:23Z</time>
      </trkpt>
      <trkpt lat="45.85709" lon="1.25014">
        <ele>279.1</ele>
        <time>2025-06-16T12:28:24Z</time>
      </trkpt>
      <trkpt lat="45.85713" lon="1.25018">
        <ele>279.3</ele>
        <time>2025-06-16T12:28:25Z</time>
      </trkpt>
      <trkpt lat="45.85715" lon="1.25022">
        <ele>279.4</ele>
        <time>2025-06-16T12:28:26Z</time>
      </trkpt>
      <trkpt lat="45.85717" lon="1.25027">
        <ele>279.6</ele>
        <time>2025-06-16T12:28:27Z</time>
      </trkpt>
      <trkpt lat="45.85717" lon="1.25032">
        <ele>279.8</ele>
        <time>2025-06-16T12:28:28Z</time>
      </trkpt>
      <trkpt lat="45.85717" lon="1.25036">
        <ele>279.9</ele>
        <time>2025-06-16T12:28:29Z</time>
      </trkpt>
      <trkpt lat="45.85715" lon="1.25039">
        <ele>280.1</ele>
        <time>2025-06-16T12:28:30Z</time>
      </trkpt>
      <trkpt lat="45.85711" lon="1.25041">
        <ele>280.3</ele>
        <time>2025-06-16T12:28:31Z</time>
      </trkpt>
      <trkpt lat="45.8571" lon="1.25042">
        <ele>280.4</ele>
        <time>2025-06-16T12:28:32Z</time>
      </trkpt>
      <trkpt lat="45.85707" lon="1.25043">
        <ele>280.6</ele>
        <time>2025-06-16T12:28:33Z</time>
      </trkpt>
      <trkpt lat="45.85703" lon="1.25044">
        <ele>280.8</ele>
        <time>2025-06-16T12:28:34Z</time>
      </trkpt>
      <trkpt lat="45.85702" lon="1.25045">
        <ele>280.9</ele>
        <time>2025-06-16T12:28:35Z</time>
      </trkpt>
      <trkpt lat="45.85698" lon="1.25046">
        <ele>281.3</ele>
        <time>2025-06-16T12:28:36Z</time>
      </trkpt>
      <trkpt lat="45.85697" lon="1.25047">
        <ele>281.4</ele>
        <time>2025-06-16T12:28:37Z</time>
      </trkpt>
      <trkpt lat="45.85694" lon="1.25049">
        <ele>281.7</ele>
        <time>2025-06-16T12:28:38Z</time>
      </trkpt>
      <trkpt lat="45.85693" lon="1.2505">
        <ele>281.8</ele>
        <time>2025-06-16T12:28:39Z</time>
      </trkpt>
      <trkpt lat="45.8569" lon="1.25052">
        <ele>282.2</ele>
        <time>2025-06-16T12:28:40Z</time>
      </trkpt>
      <trkpt lat="45.85688" lon="1.25052">
        <ele>282.3</ele>
        <time>2025-06-16T12:28:41Z</time>
      </trkpt>
      <trkpt lat="45.85685" lon="1.25054">
        <ele>282.7</ele>
        <time>2025-06-16T12:28:42Z</time>
      </trkpt>
      <trkpt lat="45.85684" lon="1.25055">
        <ele>282.9</ele>
        <time>2025-06-16T12:28:43Z</time>
      </trkpt>
      <trkpt lat="45.8568" lon="1.25057">
        <ele>283.4</ele>
        <time>2025-06-16T12:28:44Z</time>
      </trkpt>
      <trkpt lat="45.8568" lon="1.25058">
        <ele>283.5</ele>
        <time>2025-06-16T12:28:45Z</time>
      </trkpt>
      <trkpt lat="45.85677" lon="1.25061">
        <ele>283.9</ele>
        <time>2025-06-16T12:28:46Z</time>
      </trkpt>
      <trkpt lat="45.85676" lon="1.25062">
        <ele>284.1</ele>
        <time>2025-06-16T12:28:47Z</time>
      </trkpt>
      <trkpt lat="45.85675" lon="1.25065">
        <ele>284.5</ele>
        <time>2025-06-16T12:28:48Z</time>
      </trkpt>
      <trkpt lat="45.85674" lon="1.25066">
        <ele>284.6</ele>
        <time>2025-06-16T12:28:49Z</time>
      </trkpt>
      <trkpt lat="45.85673" lon="1.2507">
        <ele>285.1</ele>
        <time>2025-06-16T12:28:50Z</time>
      </trkpt>
      <trkpt lat="45.85673" lon="1.25072">
        <ele>285.2</ele>
        <time>2025-06-16T12:28:51Z</time>
      </trkpt>
      <trkpt lat="45.85674" lon="1.25076">
        <ele>285.2</ele>
        <time>2025-06-16T12:28:52Z</time>
      </trkpt>
      <trkpt lat="45.85675" lon="1.25077">
        <ele>285.2</ele>
        <time>2025-06-16T12:28:53Z</time>
      </trkpt>
      <trkpt lat="45.85677" lon="1.25079">
        <ele>285.1</ele>
        <time>2025-06-16T12:28:54Z</time>
      </trkpt>
      <trkpt lat="45.85681" lon="1.25081">
        <ele>285</ele>
        <time>2025-06-16T12:28:55Z</time>
      </trkpt>
      <trkpt lat="45.85684" lon="1.25083">
        <ele>284.9</ele>
        <time>2025-06-16T12:28:56Z</time>
      </trkpt>
      <trkpt lat="45.85688" lon="1.25087">
        <ele>284.8</ele>
        <time>2025-06-16T12:28:57Z</time>
      </trkpt>
      <trkpt lat="45.85693" lon="1.25091">
        <ele>284.6</ele>
        <time>2025-06-16T12:28:58Z</time>
      </trkpt>
      <trkpt lat="45.85697" lon="1.25097">
        <ele>284.5</ele>
        <time>2025-06-16T12:28:59Z</time>
      </trkpt>
      <trkpt lat="45.85701" lon="1.25101">
        <ele>284.3</ele>
        <time>2025-06-16T12:29:00Z</time>
      </trkpt>
      <trkpt lat="45.85706" lon="1.25105">
        <ele>284.2</ele>
        <time>2025-06-16T12:29:01Z</time>
      </trkpt>
      <trkpt lat="45.85711" lon="1.2511">
        <ele>284.1</ele>
        <time>2025-06-16T12:29:02Z</time>
      </trkpt>
      <trkpt lat="45.85715" lon="1.25115">
        <ele>284</ele>
        <time>2025-06-16T12:29:03Z</time>
      </trkpt>
      <trkpt lat="45.85718" lon="1.2512">
        <ele>284</ele>
        <time>2025-06-16T12:29:04Z</time>
      </trkpt>
      <trkpt lat="45.85721" lon="1.25125">
        <ele>283.9</ele>
        <time>2025-06-16T12:29:05Z</time>
      </trkpt>
      <trkpt lat="45.85725" lon="1.25131">
        <ele>283.9</ele>
        <time>2025-06-16T12:29:06Z</time>
      </trkpt>
      <trkpt lat="45.85728" lon="1.25136">
        <ele>283.8</ele>
        <time>2025-06-16T12:29:07Z</time>
      </trkpt>
      <trkpt lat="45.8573" lon="1.25141">
        <ele>283.8</ele>
        <time>2025-06-16T12:29:08Z</time>
      </trkpt>
      <trkpt lat="45.85733" lon="1.25145">
        <ele>283.7</ele>
        <time>2025-06-16T12:29:09Z</time>
      </trkpt>
      <trkpt lat="45.85735" lon="1.25147">
        <ele>283.7</ele>
        <time>2025-06-16T12:29:10Z</time>
      </trkpt>
      <trkpt lat="45.85736" lon="1.25152">
        <ele>283.7</ele>
        <time>2025-06-16T12:29:11Z</time>
      </trkpt>
      <trkpt lat="45.85738" lon="1.25157">
        <ele>283.7</ele>
        <time>2025-06-16T12:29:12Z</time>
      </trkpt>
      <trkpt lat="45.8574" lon="1.25162">
        <ele>283.7</ele>
        <time>2025-06-16T12:29:13Z</time>
      </trkpt>
      <trkpt lat="45.85742" lon="1.25168">
        <ele>283.7</ele>
        <time>2025-06-16T12:29:14Z</time>
      </trkpt>
      <trkpt lat="45.85745" lon="1.25174">
        <ele>283.6</ele>
        <time>2025-06-16T12:29:15Z</time>
      </trkpt>
      <trkpt lat="45.85747" lon="1.2518">
        <ele>283.6</ele>
        <time>2025-06-16T12:29:16Z</time>
      </trkpt>
      <trkpt lat="45.85749" lon="1.25187">
        <ele>283.6</ele>
        <time>2025-06-16T12:29:17Z</time>
      </trkpt>
      <trkpt lat="45.85752" lon="1.25193">
        <ele>283.6</ele>
        <time>2025-06-16T12:29:18Z</time>
      </trkpt>
      <trkpt lat="45.85754" lon="1.252">
        <ele>283.6</ele>
        <time>2025-06-16T12:29:19Z</time>
      </trkpt>
      <trkpt lat="45.85757" lon="1.25206">
        <ele>283.6</ele>
        <time>2025-06-16T12:29:20Z</time>
      </trkpt>
      <trkpt lat="45.85759" lon="1.25213">
        <ele>283.6</ele>
        <time>2025-06-16T12:29:21Z</time>
      </trkpt>
      <trkpt lat="45.85762" lon="1.2522">
        <ele>283.6</ele>
        <time>2025-06-16T12:29:22Z</time>
      </trkpt>
      <trkpt lat="45.85765" lon="1.25226">
        <ele>283.6</ele>
        <time>2025-06-16T12:29:23Z</time>
      </trkpt>
      <trkpt lat="45.85768" lon="1.25233">
        <ele>283.6</ele>
        <time>2025-06-16T12:29:24Z</time>
      </trkpt>
      <trkpt lat="45.85771" lon="1.25239">
        <ele>283.7</ele>
        <time>2025-06-16T12:29:25Z</time>
      </trkpt>
      <trkpt lat="45.85774" lon="1.25246">
        <ele>283.7</ele>
        <time>2025-06-16T12:29:26Z</time>
      </trkpt>
      <trkpt lat="45.85777" lon="1.25252">
        <ele>283.7</ele>
        <time>2025-06-16T12:29:27Z</time>
      </trkpt>
      <trkpt lat="45.8578" lon="1.25258">
        <ele>283.7</ele>
        <time>2025-06-16T12:29:28Z</time>
      </trkpt>
      <trkpt lat="45.85783" lon="1.25265">
        <ele>283.7</ele>
        <time>2025-06-16T12:29:29Z</time>
      </trkpt>
      <trkpt lat="45.85786" lon="1.25272">
        <ele>283.7</ele>
        <time>2025-06-16T12:29:30Z</time>
      </trkpt>
      <trkpt lat="45.85789" lon="1.25279">
        <ele>283.8</ele>
        <time>2025-06-16T12:29:31Z</time>
      </trkpt>
      <trkpt lat="45.85791" lon="1.25286">
        <ele>283.8</ele>
        <time>2025-06-16T12:29:32Z</time>
      </trkpt>
      <trkpt lat="45.85794" lon="1.25292">
        <ele>283.9</ele>
        <time>2025-06-16T12:29:33Z</time>
      </trkpt>
      <trkpt lat="45.85797" lon="1.25298">
        <ele>284</ele>
        <time>2025-06-16T12:29:34Z</time>
      </trkpt>
      <trkpt lat="45.85799" lon="1.25304">
        <ele>284</ele>
        <time>2025-06-16T12:29:35Z</time>
      </trkpt>
      <trkpt lat="45.85802" lon="1.25309">
        <ele>284.1</ele>
        <time>2025-06-16T12:29:36Z</time>
      </trkpt>
      <trkpt lat="45.85806" lon="1.25314">
        <ele>284.2</ele>
        <time>2025-06-16T12:29:37Z</time>
      </trkpt>
      <trkpt lat="45.85808" lon="1.2532">
        <ele>284.4</ele>
        <time>2025-06-16T12:29:38Z</time>
      </trkpt>
      <trkpt lat="45.8581" lon="1.25325">
        <ele>284.6</ele>
        <time>2025-06-16T12:29:39Z</time>
      </trkpt>
      <trkpt lat="45.85813" lon="1.2533">
        <ele>284.9</ele>
        <time>2025-06-16T12:29:40Z</time>
      </trkpt>
      <trkpt lat="45.85815" lon="1.25333">
        <ele>285.1</ele>
        <time>2025-06-16T12:29:41Z</time>
      </trkpt>
      <trkpt lat="45.85818" lon="1.25336">
        <ele>285.2</ele>
        <time>2025-06-16T12:29:42Z</time>
      </trkpt>
      <trkpt lat="45.85821" lon="1.25339">
        <ele>285.4</ele>
        <time>2025-06-16T12:29:43Z</time>
      </trkpt>
      <trkpt lat="45.85824" lon="1.25342">
        <ele>285.6</ele>
        <time>2025-06-16T12:29:44Z</time>
      </trkpt>
      <trkpt lat="45.85827" lon="1.25345">
        <ele>285.9</ele>
        <time>2025-06-16T12:29:45Z</time>
      </trkpt>
      <trkpt lat="45.8583" lon="1.25347">
        <ele>286.1</ele>
        <time>2025-06-16T12:29:46Z</time>
      </trkpt>
      <trkpt lat="45.85832" lon="1.25349">
        <ele>286.2</ele>
        <time>2025-06-16T12:29:47Z</time>
      </trkpt>
      <trkpt lat="45.85835" lon="1.2535">
        <ele>286.4</ele>
        <time>2025-06-16T12:29:48Z</time>
      </trkpt>
      <trkpt lat="45.85838" lon="1.25352">
        <ele>286.6</ele>
        <time>2025-06-16T12:29:49Z</time>
      </trkpt>
      <trkpt lat="45.85842" lon="1.25354">
        <ele>286.9</ele>
        <time>2025-06-16T12:29:50Z</time>
      </trkpt>
      <trkpt lat="45.85847" lon="1.25356">
        <ele>287.1</ele>
        <time>2025-06-16T12:29:51Z</time>
      </trkpt>
      <trkpt lat="45.85851" lon="1.25358">
        <ele>287.4</ele>
        <time>2025-06-16T12:29:52Z</time>
      </trkpt>
      <trkpt lat="45.85855" lon="1.25359">
        <ele>287.7</ele>
        <time>2025-06-16T12:29:53Z</time>
      </trkpt>
      <trkpt lat="45.85858" lon="1.25361">
        <ele>287.9</ele>
        <time>2025-06-16T12:29:54Z</time>
      </trkpt>
      <trkpt lat="45.85863" lon="1.25364">
        <ele>288.2</ele>
        <time>2025-06-16T12:29:55Z</time>
      </trkpt>
      <trkpt lat="45.85867" lon="1.25367">
        <ele>288.4</ele>
        <time>2025-06-16T12:29:56Z</time>
      </trkpt>
      <trkpt lat="45.8587" lon="1.25369">
        <ele>288.6</ele>
        <time>2025-06-16T12:29:57Z</time>
      </trkpt>
      <trkpt lat="45.85873" lon="1.25372">
        <ele>288.8</ele>
        <time>2025-06-16T12:29:58Z</time>
      </trkpt>
      <trkpt lat="45.85877" lon="1.25375">
        <ele>289</ele>
        <time>2025-06-16T12:29:59Z</time>
      </trkpt>
      <trkpt lat="45.85881" lon="1.25378">
        <ele>289.3</ele>
        <time>2025-06-16T12:30:00Z</time>
      </trkpt>
      <trkpt lat="45.85884" lon="1.25381">
        <ele>289.5</ele>
        <time>2025-06-16T12:30:01Z</time>
      </trkpt>
      <trkpt lat="45.85887" lon="1.25385">
        <ele>289.7</ele>
        <time>2025-06-16T12:30:02Z</time>
      </trkpt>
      <trkpt lat="45.8589" lon="1.25388">
        <ele>289.9</ele>
        <time>2025-06-16T12:30:03Z</time>
      </trkpt>
      <trkpt lat="45.85893" lon="1.25391">
        <ele>290.1</ele>
        <time>2025-06-16T12:30:04Z</time>
      </trkpt>
      <trkpt lat="45.85896" lon="1.25395">
        <ele>290.3</ele>
        <time>2025-06-16T12:30:05Z</time>
      </trkpt>
      <trkpt lat="45.85899" lon="1.25399">
        <ele>290.5</ele>
        <time>2025-06-16T12:30:06Z</time>
      </trkpt>
      <trkpt lat="45.85902" lon="1.25402">
        <ele>290.7</ele>
        <time>2025-06-16T12:30:07Z</time>
      </trkpt>
      <trkpt lat="45.85905" lon="1.25406">
        <ele>290.9</ele>
        <time>2025-06-16T12:30:08Z</time>
      </trkpt>
      <trkpt lat="45.85908" lon="1.25409">
        <ele>291.1</ele>
        <time>2025-06-16T12:30:09Z</time>
      </trkpt>
      <trkpt lat="45.85911" lon="1.25413">
        <ele>291.3</ele>
        <time>2025-06-16T12:30:10Z</time>
      </trkpt>
      <trkpt lat="45.85914" lon="1.25417">
        <ele>291.5</ele>
        <time>2025-06-16T12:30:11Z</time>
      </trkpt>
      <trkpt lat="45.85916" lon="1.25422">
        <ele>291.7</ele>
        <time>2025-06-16T12:30:12Z</time>
      </trkpt>
      <trkpt lat="45.85918" lon="1.25427">
        <ele>291.9</ele>
        <time>2025-06-16T12:30:13Z</time>
      </trkpt>
      <trkpt lat="45.8592" lon="1.25432">
        <ele>292.1</ele>
        <time>2025-06-16T12:30:14Z</time>
      </trkpt>
      <trkpt lat="45.85923" lon="1.25436">
        <ele>292.2</ele>
        <time>2025-06-16T12:30:15Z</time>
      </trkpt>
      <trkpt lat="45.85925" lon="1.25441">
        <ele>292.4</ele>
        <time>2025-06-16T12:30:16Z</time>
      </trkpt>
      <trkpt lat="45.85927" lon="1.25446">
        <ele>292.6</ele>
        <time>2025-06-16T12:30:17Z</time>
      </trkpt>
      <trkpt lat="45.85929" lon="1.25451">
        <ele>292.7</ele>
        <time>2025-06-16T12:30:18Z</time>
      </trkpt>
      <trkpt lat="45.8593" lon="1.25455">
        <ele>292.9</ele>
        <time>2025-06-16T12:30:19Z</time>
      </trkpt>
      <trkpt lat="45.85932" lon="1.2546">
        <ele>293</ele>
        <time>2025-06-16T12:30:20Z</time>
      </trkpt>
      <trkpt lat="45.85934" lon="1.25465">
        <ele>293.2</ele>
        <time>2025-06-16T12:30:21Z</time>
      </trkpt>
      <trkpt lat="45.85936" lon="1.2547">
        <ele>293.3</ele>
        <time>2025-06-16T12:30:22Z</time>
      </trkpt>
      <trkpt lat="45.85937" lon="1.25475">
        <ele>293.5</ele>
        <time>2025-06-16T12:30:23Z</time>
      </trkpt>
      <trkpt lat="45.85939" lon="1.2548">
        <ele>293.6</ele>
        <time>2025-06-16T12:30:24Z</time>
      </trkpt>
      <trkpt lat="45.8594" lon="1.25485">
        <ele>293.7</ele>
        <time>2025-06-16T12:30:25Z</time>
      </trkpt>
      <trkpt lat="45.85942" lon="1.2549">
        <ele>293.8</ele>
        <time>2025-06-16T12:30:26Z</time>
      </trkpt>
      <trkpt lat="45.85942" lon="1.25494">
        <ele>294</ele>
        <time>2025-06-16T12:30:27Z</time>
      </trkpt>
      <trkpt lat="45.85944" lon="1.25498">
        <ele>294.1</ele>
        <time>2025-06-16T12:30:28Z</time>
      </trkpt>
      <trkpt lat="45.85944" lon="1.25503">
        <ele>294.2</ele>
        <time>2025-06-16T12:30:29Z</time>
      </trkpt>
      <trkpt lat="45.85945" lon="1.25507">
        <ele>294.4</ele>
        <time>2025-06-16T12:30:30Z</time>
      </trkpt>
      <trkpt lat="45.85946" lon="1.25511">
        <ele>294.5</ele>
        <time>2025-06-16T12:30:31Z</time>
      </trkpt>
      <trkpt lat="45.85947" lon="1.25515">
        <ele>294.6</ele>
        <time>2025-06-16T12:30:32Z</time>
      </trkpt>
      <trkpt lat="45.85948" lon="1.25519">
        <ele>294.7</ele>
        <time>2025-06-16T12:30:33Z</time>
      </trkpt>
      <trkpt lat="45.85949" lon="1.25523">
        <ele>294.8</ele>
        <time>2025-06-16T12:30:34Z</time>
      </trkpt>
      <trkpt lat="45.8595" lon="1.25527">
        <ele>294.9</ele>
        <time>2025-06-16T12:30:35Z</time>
      </trkpt>
      <trkpt lat="45.85951" lon="1.25531">
        <ele>295</ele>
        <time>2025-06-16T12:30:36Z</time>
      </trkpt>
      <trkpt lat="45.85951" lon="1.25535">
        <ele>295.1</ele>
        <time>2025-06-16T12:30:37Z</time>
      </trkpt>
      <trkpt lat="45.85952" lon="1.2554">
        <ele>295.3</ele>
        <time>2025-06-16T12:30:38Z</time>
      </trkpt>
      <trkpt lat="45.85953" lon="1.25545">
        <ele>295.5</ele>
        <time>2025-06-16T12:30:39Z</time>
      </trkpt>
      <trkpt lat="45.85953" lon="1.2555">
        <ele>295.7</ele>
        <time>2025-06-16T12:30:40Z</time>
      </trkpt>
      <trkpt lat="45.85953" lon="1.25555">
        <ele>295.9</ele>
        <time>2025-06-16T12:30:41Z</time>
      </trkpt>
      <trkpt lat="45.85953" lon="1.25559">
        <ele>296.1</ele>
        <time>2025-06-16T12:30:42Z</time>
      </trkpt>
      <trkpt lat="45.85953" lon="1.25564">
        <ele>296.3</ele>
        <time>2025-06-16T12:30:43Z</time>
      </trkpt>
      <trkpt lat="45.85953" lon="1.25568">
        <ele>296.5</ele>
        <time>2025-06-16T12:30:44Z</time>
      </trkpt>
      <trkpt lat="45.85953" lon="1.25573">
        <ele>296.6</ele>
        <time>2025-06-16T12:30:45Z</time>
      </trkpt>
      <trkpt lat="45.85953" lon="1.25577">
        <ele>296.8</ele>
        <time>2025-06-16T12:30:46Z</time>
      </trkpt>
      <trkpt lat="45.85953" lon="1.25581">
        <ele>297</ele>
        <time>2025-06-16T12:30:47Z</time>
      </trkpt>
      <trkpt lat="45.85953" lon="1.25585">
        <ele>297.1</ele>
        <time>2025-06-16T12:30:48Z</time>
      </trkpt>
      <trkpt lat="45.85953" lon="1.2559">
        <ele>297.4</ele>
        <time>2025-06-16T12:30:49Z</time>
      </trkpt>
      <trkpt lat="45.85952" lon="1.25592">
        <ele>297.4</ele>
        <time>2025-06-16T12:30:50Z</time>
      </trkpt>
      <trkpt lat="45.85952" lon="1.25596">
        <ele>297.6</ele>
        <time>2025-06-16T12:30:51Z</time>
      </trkpt>
      <trkpt lat="45.85952" lon="1.256">
        <ele>297.8</ele>
        <time>2025-06-16T12:30:52Z</time>
      </trkpt>
      <trkpt lat="45.85951" lon="1.25604">
        <ele>297.9</ele>
        <time>2025-06-16T12:30:53Z</time>
      </trkpt>
      <trkpt lat="45.85951" lon="1.25609">
        <ele>298.1</ele>
        <time>2025-06-16T12:30:54Z</time>
      </trkpt>
      <trkpt lat="45.8595" lon="1.25614">
        <ele>298.3</ele>
        <time>2025-06-16T12:30:55Z</time>
      </trkpt>
      <trkpt lat="45.85949" lon="1.25619">
        <ele>298.5</ele>
        <time>2025-06-16T12:30:56Z</time>
      </trkpt>
      <trkpt lat="45.85947" lon="1.25623">
        <ele>298.7</ele>
        <time>2025-06-16T12:30:57Z</time>
      </trkpt>
      <trkpt lat="45.85946" lon="1.25628">
        <ele>298.9</ele>
        <time>2025-06-16T12:30:58Z</time>
      </trkpt>
      <trkpt lat="45.85944" lon="1.25632">
        <ele>299.1</ele>
        <time>2025-06-16T12:30:59Z</time>
      </trkpt>
      <trkpt lat="45.85944" lon="1.25636">
        <ele>299.3</ele>
        <time>2025-06-16T12:31:00Z</time>
      </trkpt>
      <trkpt lat="45.85943" lon="1.25638">
        <ele>299.4</ele>
        <time>2025-06-16T12:31:01Z</time>
      </trkpt>
      <trkpt lat="45.85943" lon="1.25641">
        <ele>299.5</ele>
        <time>2025-06-16T12:31:02Z</time>
      </trkpt>
      <trkpt lat="45.85943" lon="1.25643">
        <ele>299.6</ele>
        <time>2025-06-16T12:31:03Z</time>
      </trkpt>
      <trkpt lat="45.85942" lon="1.25644">
        <ele>299.6</ele>
        <time>2025-06-16T12:31:04Z</time>
      </trkpt>
      <trkpt lat="45.85941" lon="1.25649">
        <ele>299.8</ele>
        <time>2025-06-16T12:31:05Z</time>
      </trkpt>
      <trkpt lat="45.85941" lon="1.25651">
        <ele>299.9</ele>
        <time>2025-06-16T12:31:06Z</time>
      </trkpt>
      <trkpt lat="45.8594" lon="1.25656">
        <ele>300.1</ele>
        <time>2025-06-16T12:31:07Z</time>
      </trkpt>
      <trkpt lat="45.85939" lon="1.25661">
        <ele>300.4</ele>
        <time>2025-06-16T12:31:08Z</time>
      </trkpt>
      <trkpt lat="45.85938" lon="1.25666">
        <ele>300.6</ele>
        <time>2025-06-16T12:31:09Z</time>
      </trkpt>
      <trkpt lat="45.85937" lon="1.25671">
        <ele>300.8</ele>
        <time>2025-06-16T12:31:10Z</time>
      </trkpt>
      <trkpt lat="45.85936" lon="1.25675">
        <ele>301</ele>
        <time>2025-06-16T12:31:11Z</time>
      </trkpt>
      <trkpt lat="45.85935" lon="1.25678">
        <ele>301.2</ele>
        <time>2025-06-16T12:31:12Z</time>
      </trkpt>
      <trkpt lat="45.85934" lon="1.25683">
        <ele>301.5</ele>
        <time>2025-06-16T12:31:13Z</time>
      </trkpt>
      <trkpt lat="45.85933" lon="1.25685">
        <ele>301.6</ele>
        <time>2025-06-16T12:31:14Z</time>
      </trkpt>
      <trkpt lat="45.85931" lon="1.2569">
        <ele>301.9</ele>
        <time>2025-06-16T12:31:15Z</time>
      </trkpt>
      <trkpt lat="45.8593" lon="1.25691">
        <ele>302</ele>
        <time>2025-06-16T12:31:16Z</time>
      </trkpt>
      <trkpt lat="45.85929" lon="1.25695">
        <ele>302.2</ele>
        <time>2025-06-16T12:31:17Z</time>
      </trkpt>
      <trkpt lat="45.85928" lon="1.25699">
        <ele>302.4</ele>
        <time>2025-06-16T12:31:18Z</time>
      </trkpt>
      <trkpt lat="45.85927" lon="1.25703">
        <ele>302.6</ele>
        <time>2025-06-16T12:31:19Z</time>
      </trkpt>
      <trkpt lat="45.85924" lon="1.25706">
        <ele>302.8</ele>
        <time>2025-06-16T12:31:20Z</time>
      </trkpt>
      <trkpt lat="45.85922" lon="1.2571">
        <ele>303.1</ele>
        <time>2025-06-16T12:31:21Z</time>
      </trkpt>
      <trkpt lat="45.8592" lon="1.25714">
        <ele>303.3</ele>
        <time>2025-06-16T12:31:22Z</time>
      </trkpt>
      <trkpt lat="45.85918" lon="1.25717">
        <ele>303.6</ele>
        <time>2025-06-16T12:31:23Z</time>
      </trkpt>
      <trkpt lat="45.85916" lon="1.25721">
        <ele>303.8</ele>
        <time>2025-06-16T12:31:24Z</time>
      </trkpt>
      <trkpt lat="45.85914" lon="1.25724">
        <ele>304</ele>
        <time>2025-06-16T12:31:25Z</time>
      </trkpt>
      <trkpt lat="45.85912" lon="1.25728">
        <ele>304.3</ele>
        <time>2025-06-16T12:31:26Z</time>
      </trkpt>
      <trkpt lat="45.8591" lon="1.25731">
        <ele>304.5</ele>
        <time>2025-06-16T12:31:27Z</time>
      </trkpt>
      <trkpt lat="45.85909" lon="1.25735">
        <ele>304.7</ele>
        <time>2025-06-16T12:31:28Z</time>
      </trkpt>
      <trkpt lat="45.85907" lon="1.25738">
        <ele>304.9</ele>
        <time>2025-06-16T12:31:29Z</time>
      </trkpt>
      <trkpt lat="45.85906" lon="1.25741">
        <ele>305.1</ele>
        <time>2025-06-16T12:31:30Z</time>
      </trkpt>
      <trkpt lat="45.85904" lon="1.25745">
        <ele>305.4</ele>
        <time>2025-06-16T12:31:31Z</time>
      </trkpt>
      <trkpt lat="45.85902" lon="1.25748">
        <ele>305.6</ele>
        <time>2025-06-16T12:31:32Z</time>
      </trkpt>
      <trkpt lat="45.85901" lon="1.25751">
        <ele>305.8</ele>
        <time>2025-06-16T12:31:33Z</time>
      </trkpt>
      <trkpt lat="45.85899" lon="1.25754">
        <ele>306</ele>
        <time>2025-06-16T12:31:34Z</time>
      </trkpt>
      <trkpt lat="45.85897" lon="1.25757">
        <ele>306.2</ele>
        <time>2025-06-16T12:31:35Z</time>
      </trkpt>
      <trkpt lat="45.85895" lon="1.2576">
        <ele>306.4</ele>
        <time>2025-06-16T12:31:36Z</time>
      </trkpt>
      <trkpt lat="45.85893" lon="1.25764">
        <ele>306.6</ele>
        <time>2025-06-16T12:31:37Z</time>
      </trkpt>
      <trkpt lat="45.85892" lon="1.25765">
        <ele>306.7</ele>
        <time>2025-06-16T12:31:38Z</time>
      </trkpt>
      <trkpt lat="45.85889" lon="1.2577">
        <ele>307</ele>
        <time>2025-06-16T12:31:39Z</time>
      </trkpt>
      <trkpt lat="45.85889" lon="1.25771">
        <ele>307.1</ele>
        <time>2025-06-16T12:31:40Z</time>
      </trkpt>
      <trkpt lat="45.85887" lon="1.25775">
        <ele>307.3</ele>
        <time>2025-06-16T12:31:41Z</time>
      </trkpt>
      <trkpt lat="45.85885" lon="1.25779">
        <ele>307.4</ele>
        <time>2025-06-16T12:31:42Z</time>
      </trkpt>
      <trkpt lat="45.85882" lon="1.25782">
        <ele>307.5</ele>
        <time>2025-06-16T12:31:43Z</time>
      </trkpt>
      <trkpt lat="45.85879" lon="1.25784">
        <ele>307.7</ele>
        <time>2025-06-16T12:31:44Z</time>
      </trkpt>
      <trkpt lat="45.85876" lon="1.25786">
        <ele>307.8</ele>
        <time>2025-06-16T12:31:45Z</time>
      </trkpt>
      <trkpt lat="45.85873" lon="1.25788">
        <ele>308</ele>
        <time>2025-06-16T12:31:46Z</time>
      </trkpt>
      <trkpt lat="45.8587" lon="1.2579">
        <ele>308.2</ele>
        <time>2025-06-16T12:31:47Z</time>
      </trkpt>
      <trkpt lat="45.85867" lon="1.25791">
        <ele>308.4</ele>
        <time>2025-06-16T12:31:48Z</time>
      </trkpt>
      <trkpt lat="45.85864" lon="1.25793">
        <ele>308.6</ele>
        <time>2025-06-16T12:31:49Z</time>
      </trkpt>
      <trkpt lat="45.85861" lon="1.25795">
        <ele>308.9</ele>
        <time>2025-06-16T12:31:50Z</time>
      </trkpt>
      <trkpt lat="45.85858" lon="1.25797">
        <ele>309.1</ele>
        <time>2025-06-16T12:31:51Z</time>
      </trkpt>
      <trkpt lat="45.85855" lon="1.25799">
        <ele>309.3</ele>
        <time>2025-06-16T12:31:52Z</time>
      </trkpt>
      <trkpt lat="45.85853" lon="1.25801">
        <ele>309.5</ele>
        <time>2025-06-16T12:31:53Z</time>
      </trkpt>
      <trkpt lat="45.8585" lon="1.25803">
        <ele>309.6</ele>
        <time>2025-06-16T12:31:54Z</time>
      </trkpt>
      <trkpt lat="45.85848" lon="1.25806">
        <ele>309.6</ele>
        <time>2025-06-16T12:31:55Z</time>
      </trkpt>
      <trkpt lat="45.85846" lon="1.2581">
        <ele>309.5</ele>
        <time>2025-06-16T12:31:56Z</time>
      </trkpt>
      <trkpt lat="45.85845" lon="1.25811">
        <ele>309.5</ele>
        <time>2025-06-16T12:31:57Z</time>
      </trkpt>
      <trkpt lat="45.85843" lon="1.25814">
        <ele>309.4</ele>
        <time>2025-06-16T12:31:58Z</time>
      </trkpt>
      <trkpt lat="45.85842" lon="1.25815">
        <ele>309.3</ele>
        <time>2025-06-16T12:31:59Z</time>
      </trkpt>
      <trkpt lat="45.8584" lon="1.25819">
        <ele>309.2</ele>
        <time>2025-06-16T12:32:00Z</time>
      </trkpt>
      <trkpt lat="45.8584" lon="1.2582">
        <ele>309.2</ele>
        <time>2025-06-16T12:32:01Z</time>
      </trkpt>
      <trkpt lat="45.8584" lon="1.25821">
        <ele>309.2</ele>
        <time>2025-06-16T12:32:02Z</time>
      </trkpt>
      <trkpt lat="45.8584" lon="1.25821">
        <ele>309.2</ele>
        <time>2025-06-16T12:32:03Z</time>
      </trkpt>
      <trkpt lat="45.8584" lon="1.25821">
        <ele>309.2</ele>
        <time>2025-06-16T12:32:04Z</time>
      </trkpt>
      <trkpt lat="45.8584" lon="1.25821">
        <ele>309.2</ele>
        <time>2025-06-16T12:32:05Z</time>
      </trkpt>
      <trkpt lat="45.8584" lon="1.25821">
        <ele>309.2</ele>
        <time>2025-06-16T12:32:06Z</time>
      </trkpt>
      <trkpt lat="45.8584" lon="1.25822">
        <ele>309.2</ele>
        <time>2025-06-16T12:32:07Z</time>
      </trkpt>
      <trkpt lat="45.8584" lon="1.25822">
        <ele>309.2</ele>
        <time>2025-06-16T12:32:08Z</time>
      </trkpt>
      <trkpt lat="45.85841" lon="1.25822">
        <ele>309.2</ele>
        <time>2025-06-16T12:32:09Z</time>
      </trkpt>
      <trkpt lat="45.85841" lon="1.25822">
        <ele>309.2</ele>
        <time>2025-06-16T12:32:10Z</time>
      </trkpt>
      <trkpt lat="45.85841" lon="1.25822">
        <ele>309.2</ele>
        <time>2025-06-16T12:32:11Z</time>
      </trkpt>
      <trkpt lat="45.85841" lon="1.25822">
        <ele>309.2</ele>
        <time>2025-06-16T12:32:12Z</time>
      </trkpt>
      <trkpt lat="45.85841" lon="1.25823">
        <ele>309.2</ele>
        <time>2025-06-16T12:32:13Z</time>
      </trkpt>
      <trkpt lat="45.85841" lon="1.25823">
        <ele>309.1</ele>
        <time>2025-06-16T12:32:14Z</time>
      </trkpt>
      <trkpt lat="45.85841" lon="1.25823">
        <ele>309.1</ele>
        <time>2025-06-16T12:32:15Z</time>
      </trkpt>
      <trkpt lat="45.85841" lon="1.25823">
        <ele>309.1</ele>
        <time>2025-06-16T12:32:16Z</time>
      </trkpt>
      <trkpt lat="45.85841" lon="1.25823">
        <ele>309.1</ele>
        <time>2025-06-16T12:32:17Z</time>
      </trkpt>
      <trkpt lat="45.85841" lon="1.25823">
        <ele>309.1</ele>
        <time>2025-06-16T12:32:18Z</time>
      </trkpt>
      <trkpt lat="45.85841" lon="1.25824">
        <ele>309.1</ele>
        <time>2025-06-16T12:32:19Z</time>
      </trkpt>
      <trkpt lat="45.85841" lon="1.25824">
        <ele>309.1</ele>
        <time>2025-06-16T12:32:20Z</time>
      </trkpt>
      <trkpt lat="45.85841" lon="1.25824">
        <ele>309.1</ele>
        <time>2025-06-16T12:32:21Z</time>
      </trkpt>
      <trkpt lat="45.85841" lon="1.25824">
        <ele>309.1</ele>
        <time>2025-06-16T12:32:22Z</time>
      </trkpt>
      <trkpt lat="45.85841" lon="1.25824">
        <ele>309.1</ele>
        <time>2025-06-16T12:32:23Z</time>
      </trkpt>
      <trkpt lat="45.85842" lon="1.25824">
        <ele>309.1</ele>
        <time>2025-06-16T12:32:24Z</time>
      </trkpt>
      <trkpt lat="45.85842" lon="1.2583">
        <ele>309</ele>
        <time>2025-06-16T12:32:25Z</time>
      </trkpt>
      <trkpt lat="45.85843" lon="1.25832">
        <ele>309</ele>
        <time>2025-06-16T12:32:26Z</time>
      </trkpt>
      <trkpt lat="45.85843" lon="1.25837">
        <ele>308.9</ele>
        <time>2025-06-16T12:32:27Z</time>
      </trkpt>
      <trkpt lat="45.85843" lon="1.25842">
        <ele>308.9</ele>
        <time>2025-06-16T12:32:28Z</time>
      </trkpt>
      <trkpt lat="45.85844" lon="1.25847">
        <ele>308.8</ele>
        <time>2025-06-16T12:32:29Z</time>
      </trkpt>
      <trkpt lat="45.85844" lon="1.25853">
        <ele>308.7</ele>
        <time>2025-06-16T12:32:30Z</time>
      </trkpt>
      <trkpt lat="45.85845" lon="1.25858">
        <ele>308.7</ele>
        <time>2025-06-16T12:32:31Z</time>
      </trkpt>
      <trkpt lat="45.85845" lon="1.25864">
        <ele>308.6</ele>
        <time>2025-06-16T12:32:32Z</time>
      </trkpt>
      <trkpt lat="45.85846" lon="1.2587">
        <ele>308.5</ele>
        <time>2025-06-16T12:32:33Z</time>
      </trkpt>
      <trkpt lat="45.85847" lon="1.25876">
        <ele>308.4</ele>
        <time>2025-06-16T12:32:34Z</time>
      </trkpt>
      <trkpt lat="45.85847" lon="1.25883">
        <ele>308.4</ele>
        <time>2025-06-16T12:32:35Z</time>
      </trkpt>
      <trkpt lat="45.85848" lon="1.2589">
        <ele>308.3</ele>
        <time>2025-06-16T12:32:36Z</time>
      </trkpt>
      <trkpt lat="45.85849" lon="1.25896">
        <ele>308.2</ele>
        <time>2025-06-16T12:32:37Z</time>
      </trkpt>
      <trkpt lat="45.85851" lon="1.25903">
        <ele>308.1</ele>
        <time>2025-06-16T12:32:38Z</time>
      </trkpt>
      <trkpt lat="45.85852" lon="1.2591">
        <ele>308</ele>
        <time>2025-06-16T12:32:39Z</time>
      </trkpt>
      <trkpt lat="45.85854" lon="1.25917">
        <ele>307.8</ele>
        <time>2025-06-16T12:32:40Z</time>
      </trkpt>
      <trkpt lat="45.85855" lon="1.25925">
        <ele>307.7</ele>
        <time>2025-06-16T12:32:41Z</time>
      </trkpt>
      <trkpt lat="45.85856" lon="1.25932">
        <ele>307.6</ele>
        <time>2025-06-16T12:32:42Z</time>
      </trkpt>
      <trkpt lat="45.85857" lon="1.25939">
        <ele>307.5</ele>
        <time>2025-06-16T12:32:43Z</time>
      </trkpt>
      <trkpt lat="45.85858" lon="1.25945">
        <ele>307.5</ele>
        <time>2025-06-16T12:32:44Z</time>
      </trkpt>
      <trkpt lat="45.85859" lon="1.25951">
        <ele>307.4</ele>
        <time>2025-06-16T12:32:45Z</time>
      </trkpt>
      <trkpt lat="45.8586" lon="1.25956">
        <ele>307.4</ele>
        <time>2025-06-16T12:32:46Z</time>
      </trkpt>
      <trkpt lat="45.8586" lon="1.25957">
        <ele>307.4</ele>
        <time>2025-06-16T12:32:47Z</time>
      </trkpt>
      <trkpt lat="45.8586" lon="1.2596">
        <ele>307.3</ele>
        <time>2025-06-16T12:32:48Z</time>
      </trkpt>
      <trkpt lat="45.8586" lon="1.25962">
        <ele>307.3</ele>
        <time>2025-06-16T12:32:49Z</time>
      </trkpt>
      <trkpt lat="45.85861" lon="1.25964">
        <ele>307.3</ele>
        <time>2025-06-16T12:32:50Z</time>
      </trkpt>
      <trkpt lat="45.85863" lon="1.25965">
        <ele>307.3</ele>
        <time>2025-06-16T12:32:51Z</time>
      </trkpt>
      <trkpt lat="45.85864" lon="1.25969">
        <ele>307.3</ele>
        <time>2025-06-16T12:32:52Z</time>
      </trkpt>
      <trkpt lat="45.85865" lon="1.25971">
        <ele>307.3</ele>
        <time>2025-06-16T12:32:53Z</time>
      </trkpt>
      <trkpt lat="45.85865" lon="1.25976">
        <ele>307.3</ele>
        <time>2025-06-16T12:32:54Z</time>
      </trkpt>
      <trkpt lat="45.85865" lon="1.25978">
        <ele>307.2</ele>
        <time>2025-06-16T12:32:55Z</time>
      </trkpt>
      <trkpt lat="45.85865" lon="1.25982">
        <ele>307.2</ele>
        <time>2025-06-16T12:32:56Z</time>
      </trkpt>
      <trkpt lat="45.85866" lon="1.25987">
        <ele>307.2</ele>
        <time>2025-06-16T12:32:57Z</time>
      </trkpt>
      <trkpt lat="45.85867" lon="1.25993">
        <ele>307.3</ele>
        <time>2025-06-16T12:32:58Z</time>
      </trkpt>
      <trkpt lat="45.85867" lon="1.25998">
        <ele>307.3</ele>
        <time>2025-06-16T12:32:59Z</time>
      </trkpt>
      <trkpt lat="45.85869" lon="1.26003">
        <ele>307.3</ele>
        <time>2025-06-16T12:33:00Z</time>
      </trkpt>
      <trkpt lat="45.85869" lon="1.26008">
        <ele>307.4</ele>
        <time>2025-06-16T12:33:01Z</time>
      </trkpt>
      <trkpt lat="45.8587" lon="1.26014">
        <ele>307.4</ele>
        <time>2025-06-16T12:33:02Z</time>
      </trkpt>
      <trkpt lat="45.8587" lon="1.2602">
        <ele>307.5</ele>
        <time>2025-06-16T12:33:03Z</time>
      </trkpt>
      <trkpt lat="45.85871" lon="1.26024">
        <ele>307.5</ele>
        <time>2025-06-16T12:33:04Z</time>
      </trkpt>
      <trkpt lat="45.85872" lon="1.2603">
        <ele>307.6</ele>
        <time>2025-06-16T12:33:05Z</time>
      </trkpt>
      <trkpt lat="45.85872" lon="1.26032">
        <ele>307.6</ele>
        <time>2025-06-16T12:33:06Z</time>
      </trkpt>
      <trkpt lat="45.85872" lon="1.26036">
        <ele>307.6</ele>
        <time>2025-06-16T12:33:07Z</time>
      </trkpt>
      <trkpt lat="45.85873" lon="1.2604">
        <ele>307.7</ele>
        <time>2025-06-16T12:33:08Z</time>
      </trkpt>
      <trkpt lat="45.85873" lon="1.26045">
        <ele>307.7</ele>
        <time>2025-06-16T12:33:09Z</time>
      </trkpt>
      <trkpt lat="45.85874" lon="1.26049">
        <ele>307.8</ele>
        <time>2025-06-16T12:33:10Z</time>
      </trkpt>
      <trkpt lat="45.85875" lon="1.26054">
        <ele>307.9</ele>
        <time>2025-06-16T12:33:11Z</time>
      </trkpt>
      <trkpt lat="45.85877" lon="1.26059">
        <ele>307.9</ele>
        <time>2025-06-16T12:33:12Z</time>
      </trkpt>
      <trkpt lat="45.85878" lon="1.26064">
        <ele>308</ele>
        <time>2025-06-16T12:33:13Z</time>
      </trkpt>
      <trkpt lat="45.85879" lon="1.2607">
        <ele>308.1</ele>
        <time>2025-06-16T12:33:14Z</time>
      </trkpt>
      <trkpt lat="45.85879" lon="1.26075">
        <ele>308.2</ele>
        <time>2025-06-16T12:33:15Z</time>
      </trkpt>
      <trkpt lat="45.8588" lon="1.2608">
        <ele>308.2</ele>
        <time>2025-06-16T12:33:16Z</time>
      </trkpt>
      <trkpt lat="45.85881" lon="1.26084">
        <ele>308.3</ele>
        <time>2025-06-16T12:33:17Z</time>
      </trkpt>
      <trkpt lat="45.85882" lon="1.26089">
        <ele>308.4</ele>
        <time>2025-06-16T12:33:18Z</time>
      </trkpt>
      <trkpt lat="45.85883" lon="1.26094">
        <ele>308.5</ele>
        <time>2025-06-16T12:33:19Z</time>
      </trkpt>
      <trkpt lat="45.85883" lon="1.26098">
        <ele>308.5</ele>
        <time>2025-06-16T12:33:20Z</time>
      </trkpt>
      <trkpt lat="45.85885" lon="1.26103">
        <ele>308.6</ele>
        <time>2025-06-16T12:33:21Z</time>
      </trkpt>
      <trkpt lat="45.85886" lon="1.26108">
        <ele>308.7</ele>
        <time>2025-06-16T12:33:22Z</time>
      </trkpt>
      <trkpt lat="45.85888" lon="1.26114">
        <ele>308.8</ele>
        <time>2025-06-16T12:33:23Z</time>
      </trkpt>
      <trkpt lat="45.8589" lon="1.26121">
        <ele>308.9</ele>
        <time>2025-06-16T12:33:24Z</time>
      </trkpt>
      <trkpt lat="45.85892" lon="1.26127">
        <ele>309</ele>
        <time>2025-06-16T12:33:25Z</time>
      </trkpt>
      <trkpt lat="45.85893" lon="1.26132">
        <ele>309.1</ele>
        <time>2025-06-16T12:33:26Z</time>
      </trkpt>
      <trkpt lat="45.85894" lon="1.26138">
        <ele>309.2</ele>
        <time>2025-06-16T12:33:27Z</time>
      </trkpt>
      <trkpt lat="45.85895" lon="1.26143">
        <ele>309.2</ele>
        <time>2025-06-16T12:33:28Z</time>
      </trkpt>
      <trkpt lat="45.85896" lon="1.26149">
        <ele>309.3</ele>
        <time>2025-06-16T12:33:29Z</time>
      </trkpt>
      <trkpt lat="45.85897" lon="1.26154">
        <ele>309.4</ele>
        <time>2025-06-16T12:33:30Z</time>
      </trkpt>
      <trkpt lat="45.85898" lon="1.2616">
        <ele>309.5</ele>
        <time>2025-06-16T12:33:31Z</time>
      </trkpt>
      <trkpt lat="45.85899" lon="1.26166">
        <ele>309.6</ele>
        <time>2025-06-16T12:33:32Z</time>
      </trkpt>
      <trkpt lat="45.859" lon="1.26171">
        <ele>309.6</ele>
        <time>2025-06-16T12:33:33Z</time>
      </trkpt>
      <trkpt lat="45.85901" lon="1.26177">
        <ele>309.7</ele>
        <time>2025-06-16T12:33:34Z</time>
      </trkpt>
      <trkpt lat="45.85902" lon="1.26183">
        <ele>309.8</ele>
        <time>2025-06-16T12:33:35Z</time>
      </trkpt>
      <trkpt lat="45.85903" lon="1.26188">
        <ele>309.9</ele>
        <time>2025-06-16T12:33:36Z</time>
      </trkpt>
      <trkpt lat="45.85904" lon="1.26194">
        <ele>309.9</ele>
        <time>2025-06-16T12:33:37Z</time>
      </trkpt>
      <trkpt lat="45.85905" lon="1.262">
        <ele>310</ele>
        <time>2025-06-16T12:33:38Z</time>
      </trkpt>
      <trkpt lat="45.85906" lon="1.26205">
        <ele>310</ele>
        <time>2025-06-16T12:33:39Z</time>
      </trkpt>
      <trkpt lat="45.85907" lon="1.2621">
        <ele>310.1</ele>
        <time>2025-06-16T12:33:40Z</time>
      </trkpt>
      <trkpt lat="45.85908" lon="1.26216">
        <ele>310.2</ele>
        <time>2025-06-16T12:33:41Z</time>
      </trkpt>
      <trkpt lat="45.85909" lon="1.26221">
        <ele>310.2</ele>
        <time>2025-06-16T12:33:42Z</time>
      </trkpt>
      <trkpt lat="45.8591" lon="1.26227">
        <ele>310.2</ele>
        <time>2025-06-16T12:33:43Z</time>
      </trkpt>
      <trkpt lat="45.85911" lon="1.26232">
        <ele>310.3</ele>
        <time>2025-06-16T12:33:44Z</time>
      </trkpt>
      <trkpt lat="45.85912" lon="1.26238">
        <ele>310.3</ele>
        <time>2025-06-16T12:33:45Z</time>
      </trkpt>
      <trkpt lat="45.85913" lon="1.26244">
        <ele>310.3</ele>
        <time>2025-06-16T12:33:46Z</time>
      </trkpt>
      <trkpt lat="45.85914" lon="1.2625">
        <ele>310.3</ele>
        <time>2025-06-16T12:33:47Z</time>
      </trkpt>
      <trkpt lat="45.85915" lon="1.26256">
        <ele>310.2</ele>
        <time>2025-06-16T12:33:48Z</time>
      </trkpt>
      <trkpt lat="45.85916" lon="1.26262">
        <ele>310.1</ele>
        <time>2025-06-16T12:33:49Z</time>
      </trkpt>
      <trkpt lat="45.85917" lon="1.26268">
        <ele>310.1</ele>
        <time>2025-06-16T12:33:50Z</time>
      </trkpt>
      <trkpt lat="45.85918" lon="1.26274">
        <ele>310</ele>
        <time>2025-06-16T12:33:51Z</time>
      </trkpt>
      <trkpt lat="45.85919" lon="1.2628">
        <ele>309.8</ele>
        <time>2025-06-16T12:33:52Z</time>
      </trkpt>
      <trkpt lat="45.8592" lon="1.26286">
        <ele>309.7</ele>
        <time>2025-06-16T12:33:53Z</time>
      </trkpt>
      <trkpt lat="45.85922" lon="1.26293">
        <ele>309.5</ele>
        <time>2025-06-16T12:33:54Z</time>
      </trkpt>
      <trkpt lat="45.85923" lon="1.263">
        <ele>309.3</ele>
        <time>2025-06-16T12:33:55Z</time>
      </trkpt>
      <trkpt lat="45.85925" lon="1.26307">
        <ele>309.1</ele>
        <time>2025-06-16T12:33:56Z</time>
      </trkpt>
      <trkpt lat="45.85926" lon="1.26314">
        <ele>308.9</ele>
        <time>2025-06-16T12:33:57Z</time>
      </trkpt>
      <trkpt lat="45.85927" lon="1.26321">
        <ele>308.6</ele>
        <time>2025-06-16T12:33:58Z</time>
      </trkpt>
      <trkpt lat="45.85928" lon="1.26329">
        <ele>308.4</ele>
        <time>2025-06-16T12:33:59Z</time>
      </trkpt>
      <trkpt lat="45.8593" lon="1.26337">
        <ele>308</ele>
        <time>2025-06-16T12:34:00Z</time>
      </trkpt>
      <trkpt lat="45.85931" lon="1.26345">
        <ele>307.7</ele>
        <time>2025-06-16T12:34:01Z</time>
      </trkpt>
      <trkpt lat="45.85932" lon="1.26353">
        <ele>307.4</ele>
        <time>2025-06-16T12:34:02Z</time>
      </trkpt>
      <trkpt lat="45.85933" lon="1.26361">
        <ele>307.1</ele>
        <time>2025-06-16T12:34:03Z</time>
      </trkpt>
      <trkpt lat="45.85934" lon="1.2637">
        <ele>306.8</ele>
        <time>2025-06-16T12:34:04Z</time>
      </trkpt>
      <trkpt lat="45.85935" lon="1.26379">
        <ele>306.6</ele>
        <time>2025-06-16T12:34:05Z</time>
      </trkpt>
      <trkpt lat="45.85936" lon="1.26388">
        <ele>306.3</ele>
        <time>2025-06-16T12:34:06Z</time>
      </trkpt>
      <trkpt lat="45.85938" lon="1.26396">
        <ele>306.1</ele>
        <time>2025-06-16T12:34:07Z</time>
      </trkpt>
      <trkpt lat="45.85939" lon="1.26405">
        <ele>305.8</ele>
        <time>2025-06-16T12:34:08Z</time>
      </trkpt>
      <trkpt lat="45.85941" lon="1.26414">
        <ele>305.6</ele>
        <time>2025-06-16T12:34:09Z</time>
      </trkpt>
      <trkpt lat="45.85943" lon="1.26422">
        <ele>305.4</ele>
        <time>2025-06-16T12:34:10Z</time>
      </trkpt>
      <trkpt lat="45.85944" lon="1.26431">
        <ele>305.2</ele>
        <time>2025-06-16T12:34:11Z</time>
      </trkpt>
      <trkpt lat="45.85946" lon="1.26441">
        <ele>305</ele>
        <time>2025-06-16T12:34:12Z</time>
      </trkpt>
      <trkpt lat="45.85947" lon="1.2645">
        <ele>304.9</ele>
        <time>2025-06-16T12:34:13Z</time>
      </trkpt>
      <trkpt lat="45.85948" lon="1.26458">
        <ele>304.9</ele>
        <time>2025-06-16T12:34:14Z</time>
      </trkpt>
      <trkpt lat="45.85949" lon="1.26465">
        <ele>304.8</ele>
        <time>2025-06-16T12:34:15Z</time>
      </trkpt>
      <trkpt lat="45.85951" lon="1.26473">
        <ele>304.8</ele>
        <time>2025-06-16T12:34:16Z</time>
      </trkpt>
      <trkpt lat="45.85953" lon="1.2648">
        <ele>304.8</ele>
        <time>2025-06-16T12:34:17Z</time>
      </trkpt>
      <trkpt lat="45.85954" lon="1.26487">
        <ele>304.8</ele>
        <time>2025-06-16T12:34:18Z</time>
      </trkpt>
      <trkpt lat="45.85956" lon="1.26495">
        <ele>304.8</ele>
        <time>2025-06-16T12:34:19Z</time>
      </trkpt>
      <trkpt lat="45.85957" lon="1.26501">
        <ele>304.9</ele>
        <time>2025-06-16T12:34:20Z</time>
      </trkpt>
      <trkpt lat="45.85958" lon="1.26509">
        <ele>305</ele>
        <time>2025-06-16T12:34:21Z</time>
      </trkpt>
      <trkpt lat="45.85959" lon="1.26515">
        <ele>305.1</ele>
        <time>2025-06-16T12:34:22Z</time>
      </trkpt>
      <trkpt lat="45.85961" lon="1.26522">
        <ele>305.2</ele>
        <time>2025-06-16T12:34:23Z</time>
      </trkpt>
      <trkpt lat="45.85962" lon="1.26528">
        <ele>305.3</ele>
        <time>2025-06-16T12:34:24Z</time>
      </trkpt>
      <trkpt lat="45.85963" lon="1.26534">
        <ele>305.4</ele>
        <time>2025-06-16T12:34:25Z</time>
      </trkpt>
      <trkpt lat="45.85963" lon="1.26539">
        <ele>305.4</ele>
        <time>2025-06-16T12:34:26Z</time>
      </trkpt>
      <trkpt lat="45.85963" lon="1.26546">
        <ele>305.5</ele>
        <time>2025-06-16T12:34:27Z</time>
      </trkpt>
      <trkpt lat="45.85964" lon="1.26552">
        <ele>305.5</ele>
        <time>2025-06-16T12:34:28Z</time>
      </trkpt>
      <trkpt lat="45.85964" lon="1.26558">
        <ele>305.6</ele>
        <time>2025-06-16T12:34:29Z</time>
      </trkpt>
      <trkpt lat="45.85965" lon="1.26565">
        <ele>305.8</ele>
        <time>2025-06-16T12:34:30Z</time>
      </trkpt>
      <trkpt lat="45.85965" lon="1.26572">
        <ele>306</ele>
        <time>2025-06-16T12:34:31Z</time>
      </trkpt>
      <trkpt lat="45.85965" lon="1.26579">
        <ele>306.2</ele>
        <time>2025-06-16T12:34:32Z</time>
      </trkpt>
      <trkpt lat="45.85965" lon="1.26585">
        <ele>306.3</ele>
        <time>2025-06-16T12:34:33Z</time>
      </trkpt>
      <trkpt lat="45.85965" lon="1.2659">
        <ele>306.4</ele>
        <time>2025-06-16T12:34:34Z</time>
      </trkpt>
      <trkpt lat="45.85964" lon="1.26595">
        <ele>306.6</ele>
        <time>2025-06-16T12:34:35Z</time>
      </trkpt>
      <trkpt lat="45.85964" lon="1.26599">
        <ele>306.7</ele>
        <time>2025-06-16T12:34:36Z</time>
      </trkpt>
      <trkpt lat="45.85963" lon="1.26603">
        <ele>306.8</ele>
        <time>2025-06-16T12:34:37Z</time>
      </trkpt>
      <trkpt lat="45.85963" lon="1.26608">
        <ele>306.9</ele>
        <time>2025-06-16T12:34:38Z</time>
      </trkpt>
      <trkpt lat="45.85962" lon="1.26612">
        <ele>307</ele>
        <time>2025-06-16T12:34:39Z</time>
      </trkpt>
      <trkpt lat="45.85961" lon="1.26616">
        <ele>307.1</ele>
        <time>2025-06-16T12:34:40Z</time>
      </trkpt>
      <trkpt lat="45.8596" lon="1.2662">
        <ele>307.2</ele>
        <time>2025-06-16T12:34:41Z</time>
      </trkpt>
      <trkpt lat="45.8596" lon="1.26621">
        <ele>307.2</ele>
        <time>2025-06-16T12:34:42Z</time>
      </trkpt>
      <trkpt lat="45.8596" lon="1.26625">
        <ele>307.3</ele>
        <time>2025-06-16T12:34:43Z</time>
      </trkpt>
      <trkpt lat="45.85959" lon="1.26627">
        <ele>307.3</ele>
        <time>2025-06-16T12:34:44Z</time>
      </trkpt>
      <trkpt lat="45.85959" lon="1.2663">
        <ele>307.4</ele>
        <time>2025-06-16T12:34:45Z</time>
      </trkpt>
      <trkpt lat="45.85958" lon="1.26632">
        <ele>307.5</ele>
        <time>2025-06-16T12:34:46Z</time>
      </trkpt>
      <trkpt lat="45.85956" lon="1.26635">
        <ele>307.6</ele>
        <time>2025-06-16T12:34:47Z</time>
      </trkpt>
      <trkpt lat="45.85956" lon="1.26636">
        <ele>307.7</ele>
        <time>2025-06-16T12:34:48Z</time>
      </trkpt>
      <trkpt lat="45.85954" lon="1.2664">
        <ele>307.8</ele>
        <time>2025-06-16T12:34:49Z</time>
      </trkpt>
      <trkpt lat="45.85953" lon="1.26644">
        <ele>307.9</ele>
        <time>2025-06-16T12:34:50Z</time>
      </trkpt>
      <trkpt lat="45.85951" lon="1.26648">
        <ele>308.1</ele>
        <time>2025-06-16T12:34:51Z</time>
      </trkpt>
      <trkpt lat="45.8595" lon="1.26653">
        <ele>308.2</ele>
        <time>2025-06-16T12:34:52Z</time>
      </trkpt>
      <trkpt lat="45.85949" lon="1.26657">
        <ele>308.4</ele>
        <time>2025-06-16T12:34:53Z</time>
      </trkpt>
      <trkpt lat="45.85948" lon="1.26659">
        <ele>308.5</ele>
        <time>2025-06-16T12:34:54Z</time>
      </trkpt>
      <trkpt lat="45.85947" lon="1.26664">
        <ele>308.6</ele>
        <time>2025-06-16T12:34:55Z</time>
      </trkpt>
      <trkpt lat="45.85947" lon="1.26665">
        <ele>308.6</ele>
        <time>2025-06-16T12:34:56Z</time>
      </trkpt>
      <trkpt lat="45.85946" lon="1.26669">
        <ele>308.7</ele>
        <time>2025-06-16T12:34:57Z</time>
      </trkpt>
      <trkpt lat="45.85945" lon="1.26673">
        <ele>308.8</ele>
        <time>2025-06-16T12:34:58Z</time>
      </trkpt>
      <trkpt lat="45.85943" lon="1.26677">
        <ele>309</ele>
        <time>2025-06-16T12:34:59Z</time>
      </trkpt>
      <trkpt lat="45.85941" lon="1.26682">
        <ele>309.1</ele>
        <time>2025-06-16T12:35:00Z</time>
      </trkpt>
      <trkpt lat="45.8594" lon="1.26686">
        <ele>309.3</ele>
        <time>2025-06-16T12:35:01Z</time>
      </trkpt>
      <trkpt lat="45.85938" lon="1.2669">
        <ele>309.5</ele>
        <time>2025-06-16T12:35:02Z</time>
      </trkpt>
      <trkpt lat="45.85935" lon="1.26695">
        <ele>309.7</ele>
        <time>2025-06-16T12:35:03Z</time>
      </trkpt>
      <trkpt lat="45.85933" lon="1.26699">
        <ele>310</ele>
        <time>2025-06-16T12:35:04Z</time>
      </trkpt>
      <trkpt lat="45.85932" lon="1.26705">
        <ele>310.4</ele>
        <time>2025-06-16T12:35:05Z</time>
      </trkpt>
      <trkpt lat="45.8593" lon="1.2671">
        <ele>310.7</ele>
        <time>2025-06-16T12:35:06Z</time>
      </trkpt>
      <trkpt lat="45.8593" lon="1.26715">
        <ele>311</ele>
        <time>2025-06-16T12:35:07Z</time>
      </trkpt>
      <trkpt lat="45.85929" lon="1.2672">
        <ele>311.3</ele>
        <time>2025-06-16T12:35:08Z</time>
      </trkpt>
      <trkpt lat="45.85928" lon="1.26725">
        <ele>311.6</ele>
        <time>2025-06-16T12:35:09Z</time>
      </trkpt>
      <trkpt lat="45.85927" lon="1.26729">
        <ele>311.8</ele>
        <time>2025-06-16T12:35:10Z</time>
      </trkpt>
      <trkpt lat="45.85925" lon="1.26732">
        <ele>312.1</ele>
        <time>2025-06-16T12:35:11Z</time>
      </trkpt>
      <trkpt lat="45.85922" lon="1.26736">
        <ele>312.3</ele>
        <time>2025-06-16T12:35:12Z</time>
      </trkpt>
      <trkpt lat="45.85919" lon="1.2674">
        <ele>312.6</ele>
        <time>2025-06-16T12:35:13Z</time>
      </trkpt>
      <trkpt lat="45.85917" lon="1.26744">
        <ele>312.8</ele>
        <time>2025-06-16T12:35:14Z</time>
      </trkpt>
      <trkpt lat="45.85916" lon="1.26748">
        <ele>313</ele>
        <time>2025-06-16T12:35:15Z</time>
      </trkpt>
      <trkpt lat="45.85914" lon="1.26751">
        <ele>313.2</ele>
        <time>2025-06-16T12:35:16Z</time>
      </trkpt>
      <trkpt lat="45.85913" lon="1.26755">
        <ele>313.4</ele>
        <time>2025-06-16T12:35:17Z</time>
      </trkpt>
      <trkpt lat="45.85912" lon="1.26759">
        <ele>313.6</ele>
        <time>2025-06-16T12:35:18Z</time>
      </trkpt>
      <trkpt lat="45.8591" lon="1.26765">
        <ele>313.9</ele>
        <time>2025-06-16T12:35:19Z</time>
      </trkpt>
      <trkpt lat="45.8591" lon="1.26766">
        <ele>314</ele>
        <time>2025-06-16T12:35:20Z</time>
      </trkpt>
      <trkpt lat="45.85909" lon="1.2677">
        <ele>314.3</ele>
        <time>2025-06-16T12:35:21Z</time>
      </trkpt>
      <trkpt lat="45.85908" lon="1.26774">
        <ele>314.5</ele>
        <time>2025-06-16T12:35:22Z</time>
      </trkpt>
      <trkpt lat="45.85906" lon="1.26778">
        <ele>314.7</ele>
        <time>2025-06-16T12:35:23Z</time>
      </trkpt>
      <trkpt lat="45.85905" lon="1.26781">
        <ele>315</ele>
        <time>2025-06-16T12:35:24Z</time>
      </trkpt>
      <trkpt lat="45.85903" lon="1.26785">
        <ele>315.3</ele>
        <time>2025-06-16T12:35:25Z</time>
      </trkpt>
      <trkpt lat="45.85902" lon="1.26787">
        <ele>315.4</ele>
        <time>2025-06-16T12:35:26Z</time>
      </trkpt>
      <trkpt lat="45.859" lon="1.26792">
        <ele>315.7</ele>
        <time>2025-06-16T12:35:27Z</time>
      </trkpt>
      <trkpt lat="45.859" lon="1.26794">
        <ele>315.8</ele>
        <time>2025-06-16T12:35:28Z</time>
      </trkpt>
      <trkpt lat="45.85899" lon="1.26798">
        <ele>316.1</ele>
        <time>2025-06-16T12:35:29Z</time>
      </trkpt>
      <trkpt lat="45.85897" lon="1.26803">
        <ele>316.4</ele>
        <time>2025-06-16T12:35:30Z</time>
      </trkpt>
      <trkpt lat="45.85897" lon="1.26804">
        <ele>316.5</ele>
        <time>2025-06-16T12:35:31Z</time>
      </trkpt>
      <trkpt lat="45.85895" lon="1.26807">
        <ele>316.7</ele>
        <time>2025-06-16T12:35:32Z</time>
      </trkpt>
      <trkpt lat="45.85893" lon="1.2681">
        <ele>317</ele>
        <time>2025-06-16T12:35:33Z</time>
      </trkpt>
      <trkpt lat="45.8589" lon="1.26811">
        <ele>317.3</ele>
        <time>2025-06-16T12:35:34Z</time>
      </trkpt>
      <trkpt lat="45.85889" lon="1.26811">
        <ele>317.4</ele>
        <time>2025-06-16T12:35:35Z</time>
      </trkpt>
      <trkpt lat="45.85886" lon="1.26813">
        <ele>317.7</ele>
        <time>2025-06-16T12:35:36Z</time>
      </trkpt>
      <trkpt lat="45.85885" lon="1.26814">
        <ele>317.8</ele>
        <time>2025-06-16T12:35:37Z</time>
      </trkpt>
      <trkpt lat="45.85881" lon="1.26815">
        <ele>318.2</ele>
        <time>2025-06-16T12:35:38Z</time>
      </trkpt>
      <trkpt lat="45.8588" lon="1.26815">
        <ele>318.3</ele>
        <time>2025-06-16T12:35:39Z</time>
      </trkpt>
      <trkpt lat="45.85877" lon="1.26816">
        <ele>318.6</ele>
        <time>2025-06-16T12:35:40Z</time>
      </trkpt>
      <trkpt lat="45.85876" lon="1.26816">
        <ele>318.8</ele>
        <time>2025-06-16T12:35:41Z</time>
      </trkpt>
      <trkpt lat="45.85873" lon="1.26816">
        <ele>319</ele>
        <time>2025-06-16T12:35:42Z</time>
      </trkpt>
      <trkpt lat="45.85872" lon="1.26816">
        <ele>319.1</ele>
        <time>2025-06-16T12:35:43Z</time>
      </trkpt>
      <trkpt lat="45.8587" lon="1.26815">
        <ele>319.3</ele>
        <time>2025-06-16T12:35:44Z</time>
      </trkpt>
      <trkpt lat="45.85868" lon="1.26815">
        <ele>319.4</ele>
        <time>2025-06-16T12:35:45Z</time>
      </trkpt>
      <trkpt lat="45.85865" lon="1.26817">
        <ele>319.7</ele>
        <time>2025-06-16T12:35:46Z</time>
      </trkpt>
      <trkpt lat="45.85865" lon="1.26818">
        <ele>319.8</ele>
        <time>2025-06-16T12:35:47Z</time>
      </trkpt>
      <trkpt lat="45.85862" lon="1.2682">
        <ele>320</ele>
        <time>2025-06-16T12:35:48Z</time>
      </trkpt>
      <trkpt lat="45.8586" lon="1.26821">
        <ele>320.2</ele>
        <time>2025-06-16T12:35:49Z</time>
      </trkpt>
      <trkpt lat="45.85857" lon="1.26823">
        <ele>320.4</ele>
        <time>2025-06-16T12:35:50Z</time>
      </trkpt>
      <trkpt lat="45.85855" lon="1.26825">
        <ele>320.5</ele>
        <time>2025-06-16T12:35:51Z</time>
      </trkpt>
      <trkpt lat="45.85852" lon="1.26827">
        <ele>320.5</ele>
        <time>2025-06-16T12:35:52Z</time>
      </trkpt>
      <trkpt lat="45.8585" lon="1.26828">
        <ele>320.5</ele>
        <time>2025-06-16T12:35:53Z</time>
      </trkpt>
      <trkpt lat="45.85847" lon="1.2683">
        <ele>320.6</ele>
        <time>2025-06-16T12:35:54Z</time>
      </trkpt>
      <trkpt lat="45.85845" lon="1.2683">
        <ele>320.6</ele>
        <time>2025-06-16T12:35:55Z</time>
      </trkpt>
      <trkpt lat="45.85842" lon="1.26832">
        <ele>320.7</ele>
        <time>2025-06-16T12:35:56Z</time>
      </trkpt>
      <trkpt lat="45.8584" lon="1.26834">
        <ele>320.7</ele>
        <time>2025-06-16T12:35:57Z</time>
      </trkpt>
      <trkpt lat="45.85839" lon="1.26834">
        <ele>320.7</ele>
        <time>2025-06-16T12:35:58Z</time>
      </trkpt>
      <trkpt lat="45.85836" lon="1.26836">
        <ele>320.8</ele>
        <time>2025-06-16T12:35:59Z</time>
      </trkpt>
      <trkpt lat="45.85835" lon="1.26836">
        <ele>320.8</ele>
        <time>2025-06-16T12:36:00Z</time>
      </trkpt>
      <trkpt lat="45.85834" lon="1.26836">
        <ele>320.8</ele>
        <time>2025-06-16T12:36:01Z</time>
      </trkpt>
      <trkpt lat="45.85832" lon="1.26837">
        <ele>320.9</ele>
        <time>2025-06-16T12:36:02Z</time>
      </trkpt>
      <trkpt lat="45.85829" lon="1.26839">
        <ele>320.9</ele>
        <time>2025-06-16T12:36:03Z</time>
      </trkpt>
      <trkpt lat="45.85828" lon="1.2684">
        <ele>321</ele>
        <time>2025-06-16T12:36:04Z</time>
      </trkpt>
      <trkpt lat="45.85826" lon="1.26841">
        <ele>321.1</ele>
        <time>2025-06-16T12:36:05Z</time>
      </trkpt>
      <trkpt lat="45.85823" lon="1.26843">
        <ele>321.3</ele>
        <time>2025-06-16T12:36:06Z</time>
      </trkpt>
      <trkpt lat="45.85819" lon="1.26846">
        <ele>321.5</ele>
        <time>2025-06-16T12:36:07Z</time>
      </trkpt>
      <trkpt lat="45.85816" lon="1.26848">
        <ele>321.6</ele>
        <time>2025-06-16T12:36:08Z</time>
      </trkpt>
      <trkpt lat="45.85813" lon="1.2685">
        <ele>321.7</ele>
        <time>2025-06-16T12:36:10Z</time>
      </trkpt>
      <trkpt lat="45.85811" lon="1.26853">
        <ele>321.9</ele>
        <time>2025-06-16T12:36:11Z</time>
      </trkpt>
      <trkpt lat="45.85809" lon="1.26856">
        <ele>321.9</ele>
        <time>2025-06-16T12:36:12Z</time>
      </trkpt>
      <trkpt lat="45.85811" lon="1.26865">
        <ele>321.5</ele>
        <time>2025-06-16T12:36:13Z</time>
      </trkpt>
      <trkpt lat="45.85815" lon="1.26869">
        <ele>321.3</ele>
        <time>2025-06-16T12:36:15Z</time>
      </trkpt>
      <trkpt lat="45.85818" lon="1.26872">
        <ele>321.1</ele>
        <time>2025-06-16T12:36:16Z</time>
      </trkpt>
      <trkpt lat="45.85819" lon="1.26877">
        <ele>320.9</ele>
        <time>2025-06-16T12:36:17Z</time>
      </trkpt>
      <trkpt lat="45.8582" lon="1.26882">
        <ele>320.8</ele>
        <time>2025-06-16T12:36:18Z</time>
      </trkpt>
      <trkpt lat="45.85818" lon="1.26888">
        <ele>320.9</ele>
        <time>2025-06-16T12:36:19Z</time>
      </trkpt>
      <trkpt lat="45.85815" lon="1.26892">
        <ele>321.1</ele>
        <time>2025-06-16T12:36:20Z</time>
      </trkpt>
      <trkpt lat="45.85811" lon="1.26896">
        <ele>321.2</ele>
        <time>2025-06-16T12:36:21Z</time>
      </trkpt>
      <trkpt lat="45.85807" lon="1.269">
        <ele>321.4</ele>
        <time>2025-06-16T12:36:22Z</time>
      </trkpt>
      <trkpt lat="45.85799" lon="1.26904">
        <ele>322</ele>
        <time>2025-06-16T12:36:23Z</time>
      </trkpt>
      <trkpt lat="45.85796" lon="1.26906">
        <ele>322.1</ele>
        <time>2025-06-16T12:36:25Z</time>
      </trkpt>
      <trkpt lat="45.85792" lon="1.26909">
        <ele>322.3</ele>
        <time>2025-06-16T12:36:26Z</time>
      </trkpt>
      <trkpt lat="45.85789" lon="1.26912">
        <ele>322.4</ele>
        <time>2025-06-16T12:36:27Z</time>
      </trkpt>
      <trkpt lat="45.85786" lon="1.26915">
        <ele>322.4</ele>
        <time>2025-06-16T12:36:28Z</time>
      </trkpt>
      <trkpt lat="45.85783" lon="1.26917">
        <ele>322.8</ele>
        <time>2025-06-16T12:36:29Z</time>
      </trkpt>
      <trkpt lat="45.8578" lon="1.2692">
        <ele>322.9</ele>
        <time>2025-06-16T12:36:30Z</time>
      </trkpt>
      <trkpt lat="45.85773" lon="1.26924">
        <ele>323.2</ele>
        <time>2025-06-16T12:36:31Z</time>
      </trkpt>
      <trkpt lat="45.85771" lon="1.26925">
        <ele>323.4</ele>
        <time>2025-06-16T12:36:33Z</time>
      </trkpt>
      <trkpt lat="45.85768" lon="1.26927">
        <ele>323.4</ele>
        <time>2025-06-16T12:36:34Z</time>
      </trkpt>
      <trkpt lat="45.85765" lon="1.26928">
        <ele>323.6</ele>
        <time>2025-06-16T12:36:35Z</time>
      </trkpt>
      <trkpt lat="45.85762" lon="1.26929">
        <ele>323.8</ele>
        <time>2025-06-16T12:36:36Z</time>
      </trkpt>
      <trkpt lat="45.85759" lon="1.26931">
        <ele>323.9</ele>
        <time>2025-06-16T12:36:37Z</time>
      </trkpt>
      <trkpt lat="45.85757" lon="1.26933">
        <ele>324.1</ele>
        <time>2025-06-16T12:36:38Z</time>
      </trkpt>
      <trkpt lat="45.85754" lon="1.26935">
        <ele>324.4</ele>
        <time>2025-06-16T12:36:39Z</time>
      </trkpt>
      <trkpt lat="45.85751" lon="1.26937">
        <ele>324.6</ele>
        <time>2025-06-16T12:36:40Z</time>
      </trkpt>
      <trkpt lat="45.85748" lon="1.2694">
        <ele>324.8</ele>
        <time>2025-06-16T12:36:41Z</time>
      </trkpt>
      <trkpt lat="45.85745" lon="1.26943">
        <ele>325.1</ele>
        <time>2025-06-16T12:36:42Z</time>
      </trkpt>
      <trkpt lat="45.85743" lon="1.26946">
        <ele>325.2</ele>
        <time>2025-06-16T12:36:43Z</time>
      </trkpt>
      <trkpt lat="45.8574" lon="1.26949">
        <ele>325.4</ele>
        <time>2025-06-16T12:36:44Z</time>
      </trkpt>
      <trkpt lat="45.85734" lon="1.26955">
        <ele>325.8</ele>
        <time>2025-06-16T12:36:45Z</time>
      </trkpt>
      <trkpt lat="45.85731" lon="1.26958">
        <ele>326</ele>
        <time>2025-06-16T12:36:47Z</time>
      </trkpt>
      <trkpt lat="45.85728" lon="1.26961">
        <ele>326.3</ele>
        <time>2025-06-16T12:36:48Z</time>
      </trkpt>
      <trkpt lat="45.85726" lon="1.26964">
        <ele>326.6</ele>
        <time>2025-06-16T12:36:49Z</time>
      </trkpt>
      <trkpt lat="45.85725" lon="1.26968">
        <ele>326.5</ele>
        <time>2025-06-16T12:36:50Z</time>
      </trkpt>
      <trkpt lat="45.85726" lon="1.26972">
        <ele>326.1</ele>
        <time>2025-06-16T12:36:51Z</time>
      </trkpt>
      <trkpt lat="45.85729" lon="1.26975">
        <ele>326.1</ele>
        <time>2025-06-16T12:36:52Z</time>
      </trkpt>
      <trkpt lat="45.85732" lon="1.26977">
        <ele>325.8</ele>
        <time>2025-06-16T12:36:53Z</time>
      </trkpt>
      <trkpt lat="45.85734" lon="1.26979">
        <ele>325.6</ele>
        <time>2025-06-16T12:36:54Z</time>
      </trkpt>
      <trkpt lat="45.85737" lon="1.26981">
        <ele>325.3</ele>
        <time>2025-06-16T12:36:55Z</time>
      </trkpt>
      <trkpt lat="45.85737" lon="1.26982">
        <ele>325.4</ele>
        <time>2025-06-16T12:36:56Z</time>
      </trkpt>
      <trkpt lat="45.85737" lon="1.26984">
        <ele>325.3</ele>
        <time>2025-06-16T12:36:57Z</time>
      </trkpt>
      <trkpt lat="45.85736" lon="1.26985">
        <ele>325.3</ele>
        <time>2025-06-16T12:36:58Z</time>
      </trkpt>
      <trkpt lat="45.85736" lon="1.26985">
        <ele>325.3</ele>
        <time>2025-06-16T12:36:59Z</time>
      </trkpt>
      <trkpt lat="45.85735" lon="1.26986">
        <ele>325.3</ele>
        <time>2025-06-16T12:37:00Z</time>
      </trkpt>
      <trkpt lat="45.85735" lon="1.26986">
        <ele>325.2</ele>
        <time>2025-06-16T12:37:01Z</time>
      </trkpt>
      <trkpt lat="45.85735" lon="1.26986">
        <ele>325.2</ele>
        <time>2025-06-16T12:37:02Z</time>
      </trkpt>
      <trkpt lat="45.85735" lon="1.26987">
        <ele>325.2</ele>
        <time>2025-06-16T12:37:03Z</time>
      </trkpt>
      <trkpt lat="45.85735" lon="1.26987">
        <ele>325.4</ele>
        <time>2025-06-16T12:37:04Z</time>
      </trkpt>
      <trkpt lat="45.85735" lon="1.26987">
        <ele>325.4</ele>
        <time>2025-06-16T12:37:05Z</time>
      </trkpt>
      <trkpt lat="45.85735" lon="1.26987">
        <ele>325.3</ele>
        <time>2025-06-16T12:37:06Z</time>
      </trkpt>
      <trkpt lat="45.85735" lon="1.26988">
        <ele>325.3</ele>
        <time>2025-06-16T12:37:07Z</time>
      </trkpt>
      <trkpt lat="45.85735" lon="1.26988">
        <ele>325.3</ele>
        <time>2025-06-16T12:37:08Z</time>
      </trkpt>
      <trkpt lat="45.85735" lon="1.26988">
        <ele>325.3</ele>
        <time>2025-06-16T12:37:09Z</time>
      </trkpt>
      <trkpt lat="45.85735" lon="1.26988">
        <ele>325.2</ele>
        <time>2025-06-16T12:37:10Z</time>
      </trkpt>
      <trkpt lat="45.85735" lon="1.26989">
        <ele>325.2</ele>
        <time>2025-06-16T12:37:11Z</time>
      </trkpt>
      <trkpt lat="45.85734" lon="1.26989">
        <ele>325.2</ele>
        <time>2025-06-16T12:37:12Z</time>
      </trkpt>
      <trkpt lat="45.85734" lon="1.26989">
        <ele>325.2</ele>
        <time>2025-06-16T12:37:13Z</time>
      </trkpt>
      <trkpt lat="45.85734" lon="1.26989">
        <ele>325.1</ele>
        <time>2025-06-16T12:37:14Z</time>
      </trkpt>
      <trkpt lat="45.85734" lon="1.2699">
        <ele>325.1</ele>
        <time>2025-06-16T12:37:15Z</time>
      </trkpt>
      <trkpt lat="45.85734" lon="1.2699">
        <ele>325.1</ele>
        <time>2025-06-16T12:37:16Z</time>
      </trkpt>
      <trkpt lat="45.85734" lon="1.2699">
        <ele>325</ele>
        <time>2025-06-16T12:37:17Z</time>
      </trkpt>
      <trkpt lat="45.85734" lon="1.26991">
        <ele>325</ele>
        <time>2025-06-16T12:37:18Z</time>
      </trkpt>
      <trkpt lat="45.85734" lon="1.26991">
        <ele>325</ele>
        <time>2025-06-16T12:37:19Z</time>
      </trkpt>
      <trkpt lat="45.85734" lon="1.26991">
        <ele>325</ele>
        <time>2025-06-16T12:37:20Z</time>
      </trkpt>
      <trkpt lat="45.85734" lon="1.26991">
        <ele>325</ele>
        <time>2025-06-16T12:37:21Z</time>
      </trkpt>
      <trkpt lat="45.85734" lon="1.26992">
        <ele>325</ele>
        <time>2025-06-16T12:37:22Z</time>
      </trkpt>
      <trkpt lat="45.85735" lon="1.26996">
        <ele>325</ele>
        <time>2025-06-16T12:37:23Z</time>
      </trkpt>
      <trkpt lat="45.85735" lon="1.26997">
        <ele>325</ele>
        <time>2025-06-16T12:37:24Z</time>
      </trkpt>
      <trkpt lat="45.85734" lon="1.27001">
        <ele>325</ele>
        <time>2025-06-16T12:37:25Z</time>
      </trkpt>
      <trkpt lat="45.85733" lon="1.27002">
        <ele>325</ele>
        <time>2025-06-16T12:37:26Z</time>
      </trkpt>
      <trkpt lat="45.85729" lon="1.27005">
        <ele>325.2</ele>
        <time>2025-06-16T12:37:28Z</time>
      </trkpt>
      <trkpt lat="45.85727" lon="1.27009">
        <ele>325.5</ele>
        <time>2025-06-16T12:37:29Z</time>
      </trkpt>
      <trkpt lat="45.85725" lon="1.27013">
        <ele>325.8</ele>
        <time>2025-06-16T12:37:30Z</time>
      </trkpt>
      <trkpt lat="45.85722" lon="1.27016">
        <ele>325.9</ele>
        <time>2025-06-16T12:37:31Z</time>
      </trkpt>
      <trkpt lat="45.85717" lon="1.27016">
        <ele>326.1</ele>
        <time>2025-06-16T12:37:32Z</time>
      </trkpt>
      <trkpt lat="45.85714" lon="1.27011">
        <ele>326.5</ele>
        <time>2025-06-16T12:37:33Z</time>
      </trkpt>
      <trkpt lat="45.85712" lon="1.27006">
        <ele>326.4</ele>
        <time>2025-06-16T12:37:34Z</time>
      </trkpt>
      <trkpt lat="45.85709" lon="1.27003">
        <ele>326.6</ele>
        <time>2025-06-16T12:37:35Z</time>
      </trkpt>
      <trkpt lat="45.85707" lon="1.27">
        <ele>326.8</ele>
        <time>2025-06-16T12:37:36Z</time>
      </trkpt>
      <trkpt lat="45.85709" lon="1.26998">
        <ele>326.5</ele>
        <time>2025-06-16T12:37:37Z</time>
      </trkpt>
      <trkpt lat="45.85712" lon="1.26998">
        <ele>326.2</ele>
        <time>2025-06-16T12:37:38Z</time>
      </trkpt>
      <trkpt lat="45.85714" lon="1.27002">
        <ele>326.2</ele>
        <time>2025-06-16T12:37:39Z</time>
      </trkpt>
      <trkpt lat="45.85714" lon="1.27007">
        <ele>326.2</ele>
        <time>2025-06-16T12:37:40Z</time>
      </trkpt>
      <trkpt lat="45.85713" lon="1.27012">
        <ele>326.3</ele>
        <time>2025-06-16T12:37:41Z</time>
      </trkpt>
      <trkpt lat="45.85711" lon="1.27016">
        <ele>326.3</ele>
        <time>2025-06-16T12:37:42Z</time>
      </trkpt>
      <trkpt lat="45.85708" lon="1.2702">
        <ele>326.6</ele>
        <time>2025-06-16T12:37:43Z</time>
      </trkpt>
      <trkpt lat="45.85707" lon="1.27026">
        <ele>327</ele>
        <time>2025-06-16T12:37:44Z</time>
      </trkpt>
      <trkpt lat="45.85707" lon="1.27027">
        <ele>326.9</ele>
        <time>2025-06-16T12:37:45Z</time>
      </trkpt>
      <trkpt lat="45.85705" lon="1.27032">
        <ele>327.2</ele>
        <time>2025-06-16T12:37:46Z</time>
      </trkpt>
      <trkpt lat="45.85704" lon="1.27033">
        <ele>327.2</ele>
        <time>2025-06-16T12:37:47Z</time>
      </trkpt>
      <trkpt lat="45.85702" lon="1.27033">
        <ele>327.3</ele>
        <time>2025-06-16T12:37:48Z</time>
      </trkpt>
      <trkpt lat="45.85701" lon="1.27033">
        <ele>327.3</ele>
        <time>2025-06-16T12:37:49Z</time>
      </trkpt>
      <trkpt lat="45.857" lon="1.27032">
        <ele>327.4</ele>
        <time>2025-06-16T12:37:50Z</time>
      </trkpt>
      <trkpt lat="45.85696" lon="1.27033">
        <ele>327.5</ele>
        <time>2025-06-16T12:37:51Z</time>
      </trkpt>
      <trkpt lat="45.85694" lon="1.27033">
        <ele>327.5</ele>
        <time>2025-06-16T12:37:52Z</time>
      </trkpt>
      <trkpt lat="45.85691" lon="1.27035">
        <ele>327.6</ele>
        <time>2025-06-16T12:37:53Z</time>
      </trkpt>
      <trkpt lat="45.85688" lon="1.27036">
        <ele>327.7</ele>
        <time>2025-06-16T12:37:54Z</time>
      </trkpt>
      <trkpt lat="45.85685" lon="1.27035">
        <ele>327.8</ele>
        <time>2025-06-16T12:37:55Z</time>
      </trkpt>
      <trkpt lat="45.85682" lon="1.27035">
        <ele>327.9</ele>
        <time>2025-06-16T12:37:56Z</time>
      </trkpt>
      <trkpt lat="45.85678" lon="1.27037">
        <ele>328</ele>
        <time>2025-06-16T12:37:57Z</time>
      </trkpt>
      <trkpt lat="45.85675" lon="1.27039">
        <ele>328.1</ele>
        <time>2025-06-16T12:37:58Z</time>
      </trkpt>
      <trkpt lat="45.85673" lon="1.27042">
        <ele>328.2</ele>
        <time>2025-06-16T12:37:59Z</time>
      </trkpt>
      <trkpt lat="45.8567" lon="1.27044">
        <ele>328.3</ele>
        <time>2025-06-16T12:38:00Z</time>
      </trkpt>
      <trkpt lat="45.85667" lon="1.27045">
        <ele>328.4</ele>
        <time>2025-06-16T12:38:01Z</time>
      </trkpt>
      <trkpt lat="45.85664" lon="1.27046">
        <ele>328.5</ele>
        <time>2025-06-16T12:38:02Z</time>
      </trkpt>
      <trkpt lat="45.85661" lon="1.27044">
        <ele>328.5</ele>
        <time>2025-06-16T12:38:03Z</time>
      </trkpt>
      <trkpt lat="45.8566" lon="1.27044">
        <ele>328.5</ele>
        <time>2025-06-16T12:38:04Z</time>
      </trkpt>
      <trkpt lat="45.85657" lon="1.27042">
        <ele>328.6</ele>
        <time>2025-06-16T12:38:05Z</time>
      </trkpt>
      <trkpt lat="45.85654" lon="1.27043">
        <ele>328.6</ele>
        <time>2025-06-16T12:38:06Z</time>
      </trkpt>
      <trkpt lat="45.85651" lon="1.27045">
        <ele>328.7</ele>
        <time>2025-06-16T12:38:07Z</time>
      </trkpt>
      <trkpt lat="45.85648" lon="1.27047">
        <ele>328.7</ele>
        <time>2025-06-16T12:38:08Z</time>
      </trkpt>
      <trkpt lat="45.85644" lon="1.27049">
        <ele>328.8</ele>
        <time>2025-06-16T12:38:09Z</time>
      </trkpt>
      <trkpt lat="45.85641" lon="1.27051">
        <ele>328.9</ele>
        <time>2025-06-16T12:38:10Z</time>
      </trkpt>
      <trkpt lat="45.85638" lon="1.27052">
        <ele>328.9</ele>
        <time>2025-06-16T12:38:11Z</time>
      </trkpt>
      <trkpt lat="45.85636" lon="1.27054">
        <ele>328.9</ele>
        <time>2025-06-16T12:38:12Z</time>
      </trkpt>
      <trkpt lat="45.85633" lon="1.27055">
        <ele>329</ele>
        <time>2025-06-16T12:38:13Z</time>
      </trkpt>
      <trkpt lat="45.8563" lon="1.27056">
        <ele>329</ele>
        <time>2025-06-16T12:38:14Z</time>
      </trkpt>
      <trkpt lat="45.85627" lon="1.27057">
        <ele>329</ele>
        <time>2025-06-16T12:38:15Z</time>
      </trkpt>
      <trkpt lat="45.85625" lon="1.27059">
        <ele>329</ele>
        <time>2025-06-16T12:38:16Z</time>
      </trkpt>
      <trkpt lat="45.85622" lon="1.27061">
        <ele>329.1</ele>
        <time>2025-06-16T12:38:17Z</time>
      </trkpt>
      <trkpt lat="45.8562" lon="1.27062">
        <ele>329.1</ele>
        <time>2025-06-16T12:38:18Z</time>
      </trkpt>
      <trkpt lat="45.85616" lon="1.27065">
        <ele>329.1</ele>
        <time>2025-06-16T12:38:19Z</time>
      </trkpt>
      <trkpt lat="45.85615" lon="1.27066">
        <ele>329.1</ele>
        <time>2025-06-16T12:38:20Z</time>
      </trkpt>
      <trkpt lat="45.85613" lon="1.27069">
        <ele>329.1</ele>
        <time>2025-06-16T12:38:21Z</time>
      </trkpt>
      <trkpt lat="45.85613" lon="1.27075">
        <ele>329.1</ele>
        <time>2025-06-16T12:38:22Z</time>
      </trkpt>
      <trkpt lat="45.85612" lon="1.27076">
        <ele>329.1</ele>
        <time>2025-06-16T12:38:23Z</time>
      </trkpt>
      <trkpt lat="45.8561" lon="1.27079">
        <ele>329.1</ele>
        <time>2025-06-16T12:38:24Z</time>
      </trkpt>
      <trkpt lat="45.85607" lon="1.27081">
        <ele>329</ele>
        <time>2025-06-16T12:38:25Z</time>
      </trkpt>
      <trkpt lat="45.85604" lon="1.27083">
        <ele>329</ele>
        <time>2025-06-16T12:38:26Z</time>
      </trkpt>
      <trkpt lat="45.85604" lon="1.27084">
        <ele>328.9</ele>
        <time>2025-06-16T12:38:27Z</time>
      </trkpt>
      <trkpt lat="45.85604" lon="1.27087">
        <ele>328.8</ele>
        <time>2025-06-16T12:38:28Z</time>
      </trkpt>
      <trkpt lat="45.85604" lon="1.27089">
        <ele>328.8</ele>
        <time>2025-06-16T12:38:29Z</time>
      </trkpt>
      <trkpt lat="45.85603" lon="1.27096">
        <ele>328.5</ele>
        <time>2025-06-16T12:38:30Z</time>
      </trkpt>
      <trkpt lat="45.85603" lon="1.27098">
        <ele>328.4</ele>
        <time>2025-06-16T12:38:31Z</time>
      </trkpt>
      <trkpt lat="45.85602" lon="1.27105">
        <ele>328.2</ele>
        <time>2025-06-16T12:38:32Z</time>
      </trkpt>
      <trkpt lat="45.85602" lon="1.27112">
        <ele>327.9</ele>
        <time>2025-06-16T12:38:33Z</time>
      </trkpt>
      <trkpt lat="45.85602" lon="1.2712">
        <ele>327.5</ele>
        <time>2025-06-16T12:38:34Z</time>
      </trkpt>
      <trkpt lat="45.85603" lon="1.27128">
        <ele>327.2</ele>
        <time>2025-06-16T12:38:35Z</time>
      </trkpt>
      <trkpt lat="45.85604" lon="1.27135">
        <ele>326.9</ele>
        <time>2025-06-16T12:38:36Z</time>
      </trkpt>
      <trkpt lat="45.85606" lon="1.27143">
        <ele>326.4</ele>
        <time>2025-06-16T12:38:37Z</time>
      </trkpt>
      <trkpt lat="45.85607" lon="1.27151">
        <ele>326</ele>
        <time>2025-06-16T12:38:38Z</time>
      </trkpt>
      <trkpt lat="45.85609" lon="1.27159">
        <ele>325.5</ele>
        <time>2025-06-16T12:38:39Z</time>
      </trkpt>
      <trkpt lat="45.85612" lon="1.27167">
        <ele>325.1</ele>
        <time>2025-06-16T12:38:40Z</time>
      </trkpt>
      <trkpt lat="45.85614" lon="1.27175">
        <ele>324.5</ele>
        <time>2025-06-16T12:38:41Z</time>
      </trkpt>
      <trkpt lat="45.85616" lon="1.27183">
        <ele>324.1</ele>
        <time>2025-06-16T12:38:42Z</time>
      </trkpt>
      <trkpt lat="45.85619" lon="1.27191">
        <ele>323.7</ele>
        <time>2025-06-16T12:38:43Z</time>
      </trkpt>
      <trkpt lat="45.85621" lon="1.27199">
        <ele>323.3</ele>
        <time>2025-06-16T12:38:44Z</time>
      </trkpt>
      <trkpt lat="45.85624" lon="1.27208">
        <ele>322.9</ele>
        <time>2025-06-16T12:38:45Z</time>
      </trkpt>
      <trkpt lat="45.85625" lon="1.27216">
        <ele>322.5</ele>
        <time>2025-06-16T12:38:46Z</time>
      </trkpt>
      <trkpt lat="45.85627" lon="1.27223">
        <ele>322.1</ele>
        <time>2025-06-16T12:38:47Z</time>
      </trkpt>
      <trkpt lat="45.8563" lon="1.27231">
        <ele>321.8</ele>
        <time>2025-06-16T12:38:48Z</time>
      </trkpt>
      <trkpt lat="45.85631" lon="1.27238">
        <ele>321.4</ele>
        <time>2025-06-16T12:38:49Z</time>
      </trkpt>
      <trkpt lat="45.85632" lon="1.27246">
        <ele>321</ele>
        <time>2025-06-16T12:38:50Z</time>
      </trkpt>
      <trkpt lat="45.8563" lon="1.27254">
        <ele>320.6</ele>
        <time>2025-06-16T12:38:51Z</time>
      </trkpt>
      <trkpt lat="45.85626" lon="1.27262">
        <ele>320.2</ele>
        <time>2025-06-16T12:38:52Z</time>
      </trkpt>
      <trkpt lat="45.85621" lon="1.27268">
        <ele>319.8</ele>
        <time>2025-06-16T12:38:53Z</time>
      </trkpt>
      <trkpt lat="45.85615" lon="1.27274">
        <ele>319.4</ele>
        <time>2025-06-16T12:38:54Z</time>
      </trkpt>
      <trkpt lat="45.85608" lon="1.27279">
        <ele>319.1</ele>
        <time>2025-06-16T12:38:55Z</time>
      </trkpt>
      <trkpt lat="45.85602" lon="1.27285">
        <ele>318.8</ele>
        <time>2025-06-16T12:38:56Z</time>
      </trkpt>
      <trkpt lat="45.85596" lon="1.2729">
        <ele>318.5</ele>
        <time>2025-06-16T12:38:57Z</time>
      </trkpt>
      <trkpt lat="45.85589" lon="1.27294">
        <ele>318.2</ele>
        <time>2025-06-16T12:38:58Z</time>
      </trkpt>
      <trkpt lat="45.85583" lon="1.27299">
        <ele>318</ele>
        <time>2025-06-16T12:38:59Z</time>
      </trkpt>
      <trkpt lat="45.85577" lon="1.27306">
        <ele>317.7</ele>
        <time>2025-06-16T12:39:00Z</time>
      </trkpt>
      <trkpt lat="45.85571" lon="1.27312">
        <ele>317.5</ele>
        <time>2025-06-16T12:39:01Z</time>
      </trkpt>
      <trkpt lat="45.85565" lon="1.27318">
        <ele>317.3</ele>
        <time>2025-06-16T12:39:02Z</time>
      </trkpt>
      <trkpt lat="45.8556" lon="1.27323">
        <ele>317.1</ele>
        <time>2025-06-16T12:39:03Z</time>
      </trkpt>
      <trkpt lat="45.85554" lon="1.27328">
        <ele>317</ele>
        <time>2025-06-16T12:39:04Z</time>
      </trkpt>
      <trkpt lat="45.85547" lon="1.27335">
        <ele>316.9</ele>
        <time>2025-06-16T12:39:05Z</time>
      </trkpt>
      <trkpt lat="45.85542" lon="1.2734">
        <ele>316.8</ele>
        <time>2025-06-16T12:39:06Z</time>
      </trkpt>
      <trkpt lat="45.85537" lon="1.27345">
        <ele>316.8</ele>
        <time>2025-06-16T12:39:07Z</time>
      </trkpt>
      <trkpt lat="45.85531" lon="1.27349">
        <ele>316.7</ele>
        <time>2025-06-16T12:39:08Z</time>
      </trkpt>
      <trkpt lat="45.85526" lon="1.27354">
        <ele>316.6</ele>
        <time>2025-06-16T12:39:09Z</time>
      </trkpt>
      <trkpt lat="45.8552" lon="1.27359">
        <ele>316.5</ele>
        <time>2025-06-16T12:39:10Z</time>
      </trkpt>
      <trkpt lat="45.85515" lon="1.27365">
        <ele>316.4</ele>
        <time>2025-06-16T12:39:11Z</time>
      </trkpt>
      <trkpt lat="45.85511" lon="1.27371">
        <ele>316.3</ele>
        <time>2025-06-16T12:39:12Z</time>
      </trkpt>
      <trkpt lat="45.85506" lon="1.27375">
        <ele>316.1</ele>
        <time>2025-06-16T12:39:13Z</time>
      </trkpt>
      <trkpt lat="45.85502" lon="1.27379">
        <ele>316</ele>
        <time>2025-06-16T12:39:14Z</time>
      </trkpt>
      <trkpt lat="45.85497" lon="1.27385">
        <ele>315.9</ele>
        <time>2025-06-16T12:39:15Z</time>
      </trkpt>
      <trkpt lat="45.85493" lon="1.2739">
        <ele>315.9</ele>
        <time>2025-06-16T12:39:16Z</time>
      </trkpt>
      <trkpt lat="45.8549" lon="1.27394">
        <ele>315.8</ele>
        <time>2025-06-16T12:39:17Z</time>
      </trkpt>
      <trkpt lat="45.85486" lon="1.27399">
        <ele>315.8</ele>
        <time>2025-06-16T12:39:18Z</time>
      </trkpt>
      <trkpt lat="45.85482" lon="1.27405">
        <ele>315.7</ele>
        <time>2025-06-16T12:39:19Z</time>
      </trkpt>
      <trkpt lat="45.85479" lon="1.2741">
        <ele>315.7</ele>
        <time>2025-06-16T12:39:20Z</time>
      </trkpt>
      <trkpt lat="45.85476" lon="1.27414">
        <ele>315.6</ele>
        <time>2025-06-16T12:39:21Z</time>
      </trkpt>
      <trkpt lat="45.85473" lon="1.27418">
        <ele>315.6</ele>
        <time>2025-06-16T12:39:22Z</time>
      </trkpt>
      <trkpt lat="45.8547" lon="1.27422">
        <ele>315.5</ele>
        <time>2025-06-16T12:39:23Z</time>
      </trkpt>
      <trkpt lat="45.85467" lon="1.27426">
        <ele>315.5</ele>
        <time>2025-06-16T12:39:24Z</time>
      </trkpt>
      <trkpt lat="45.85464" lon="1.2743">
        <ele>315.5</ele>
        <time>2025-06-16T12:39:25Z</time>
      </trkpt>
      <trkpt lat="45.85461" lon="1.27434">
        <ele>315.5</ele>
        <time>2025-06-16T12:39:26Z</time>
      </trkpt>
      <trkpt lat="45.85457" lon="1.27438">
        <ele>315.5</ele>
        <time>2025-06-16T12:39:27Z</time>
      </trkpt>
      <trkpt lat="45.85454" lon="1.27442">
        <ele>315.4</ele>
        <time>2025-06-16T12:39:28Z</time>
      </trkpt>
      <trkpt lat="45.85451" lon="1.27447">
        <ele>315.4</ele>
        <time>2025-06-16T12:39:29Z</time>
      </trkpt>
      <trkpt lat="45.85448" lon="1.27453">
        <ele>315.4</ele>
        <time>2025-06-16T12:39:30Z</time>
      </trkpt>
      <trkpt lat="45.85445" lon="1.27457">
        <ele>315.4</ele>
        <time>2025-06-16T12:39:31Z</time>
      </trkpt>
      <trkpt lat="45.85442" lon="1.27462">
        <ele>315.4</ele>
        <time>2025-06-16T12:39:32Z</time>
      </trkpt>
      <trkpt lat="45.8544" lon="1.27466">
        <ele>315.3</ele>
        <time>2025-06-16T12:39:33Z</time>
      </trkpt>
      <trkpt lat="45.85438" lon="1.27471">
        <ele>315.3</ele>
        <time>2025-06-16T12:39:34Z</time>
      </trkpt>
      <trkpt lat="45.85437" lon="1.27475">
        <ele>315.3</ele>
        <time>2025-06-16T12:39:35Z</time>
      </trkpt>
      <trkpt lat="45.85435" lon="1.2748">
        <ele>315.3</ele>
        <time>2025-06-16T12:39:36Z</time>
      </trkpt>
      <trkpt lat="45.85432" lon="1.27484">
        <ele>315.3</ele>
        <time>2025-06-16T12:39:37Z</time>
      </trkpt>
      <trkpt lat="45.85429" lon="1.27488">
        <ele>315.3</ele>
        <time>2025-06-16T12:39:38Z</time>
      </trkpt>
      <trkpt lat="45.85426" lon="1.27492">
        <ele>315.3</ele>
        <time>2025-06-16T12:39:39Z</time>
      </trkpt>
      <trkpt lat="45.85423" lon="1.27496">
        <ele>315.4</ele>
        <time>2025-06-16T12:39:40Z</time>
      </trkpt>
      <trkpt lat="45.8542" lon="1.27501">
        <ele>315.4</ele>
        <time>2025-06-16T12:39:41Z</time>
      </trkpt>
      <trkpt lat="45.85418" lon="1.27505">
        <ele>315.4</ele>
        <time>2025-06-16T12:39:42Z</time>
      </trkpt>
      <trkpt lat="45.85415" lon="1.2751">
        <ele>315.4</ele>
        <time>2025-06-16T12:39:43Z</time>
      </trkpt>
      <trkpt lat="45.85412" lon="1.27514">
        <ele>315.4</ele>
        <time>2025-06-16T12:39:44Z</time>
      </trkpt>
      <trkpt lat="45.85409" lon="1.27518">
        <ele>315.5</ele>
        <time>2025-06-16T12:39:45Z</time>
      </trkpt>
      <trkpt lat="45.85406" lon="1.27523">
        <ele>315.5</ele>
        <time>2025-06-16T12:39:46Z</time>
      </trkpt>
      <trkpt lat="45.85403" lon="1.27528">
        <ele>315.5</ele>
        <time>2025-06-16T12:39:47Z</time>
      </trkpt>
      <trkpt lat="45.854" lon="1.27532">
        <ele>315.5</ele>
        <time>2025-06-16T12:39:48Z</time>
      </trkpt>
      <trkpt lat="45.85398" lon="1.27537">
        <ele>315.5</ele>
        <time>2025-06-16T12:39:49Z</time>
      </trkpt>
      <trkpt lat="45.85395" lon="1.27542">
        <ele>315.5</ele>
        <time>2025-06-16T12:39:50Z</time>
      </trkpt>
      <trkpt lat="45.85393" lon="1.27547">
        <ele>315.5</ele>
        <time>2025-06-16T12:39:51Z</time>
      </trkpt>
      <trkpt lat="45.85391" lon="1.27551">
        <ele>315.4</ele>
        <time>2025-06-16T12:39:52Z</time>
      </trkpt>
      <trkpt lat="45.85388" lon="1.27554">
        <ele>315.3</ele>
        <time>2025-06-16T12:39:53Z</time>
      </trkpt>
      <trkpt lat="45.85386" lon="1.27557">
        <ele>315.3</ele>
        <time>2025-06-16T12:39:54Z</time>
      </trkpt>
      <trkpt lat="45.85384" lon="1.27561">
        <ele>315.2</ele>
        <time>2025-06-16T12:39:55Z</time>
      </trkpt>
      <trkpt lat="45.85382" lon="1.27564">
        <ele>315.2</ele>
        <time>2025-06-16T12:39:56Z</time>
      </trkpt>
      <trkpt lat="45.85379" lon="1.27568">
        <ele>315.1</ele>
        <time>2025-06-16T12:39:57Z</time>
      </trkpt>
      <trkpt lat="45.85377" lon="1.27571">
        <ele>315</ele>
        <time>2025-06-16T12:39:58Z</time>
      </trkpt>
      <trkpt lat="45.85375" lon="1.27575">
        <ele>314.9</ele>
        <time>2025-06-16T12:39:59Z</time>
      </trkpt>
      <trkpt lat="45.85373" lon="1.27578">
        <ele>314.8</ele>
        <time>2025-06-16T12:40:00Z</time>
      </trkpt>
      <trkpt lat="45.8537" lon="1.27582">
        <ele>314.7</ele>
        <time>2025-06-16T12:40:01Z</time>
      </trkpt>
      <trkpt lat="45.85368" lon="1.27585">
        <ele>314.7</ele>
        <time>2025-06-16T12:40:02Z</time>
      </trkpt>
      <trkpt lat="45.85366" lon="1.27589">
        <ele>314.6</ele>
        <time>2025-06-16T12:40:03Z</time>
      </trkpt>
      <trkpt lat="45.85363" lon="1.27592">
        <ele>314.5</ele>
        <time>2025-06-16T12:40:04Z</time>
      </trkpt>
      <trkpt lat="45.85361" lon="1.27596">
        <ele>314.4</ele>
        <time>2025-06-16T12:40:05Z</time>
      </trkpt>
      <trkpt lat="45.85359" lon="1.27599">
        <ele>314.3</ele>
        <time>2025-06-16T12:40:06Z</time>
      </trkpt>
      <trkpt lat="45.85356" lon="1.27603">
        <ele>314.2</ele>
        <time>2025-06-16T12:40:07Z</time>
      </trkpt>
      <trkpt lat="45.85354" lon="1.27606">
        <ele>314.1</ele>
        <time>2025-06-16T12:40:08Z</time>
      </trkpt>
      <trkpt lat="45.85352" lon="1.27609">
        <ele>314</ele>
        <time>2025-06-16T12:40:09Z</time>
      </trkpt>
      <trkpt lat="45.85349" lon="1.27612">
        <ele>313.9</ele>
        <time>2025-06-16T12:40:10Z</time>
      </trkpt>
      <trkpt lat="45.85348" lon="1.27613">
        <ele>313.9</ele>
        <time>2025-06-16T12:40:11Z</time>
      </trkpt>
      <trkpt lat="45.85347" lon="1.27615">
        <ele>313.9</ele>
        <time>2025-06-16T12:40:12Z</time>
      </trkpt>
      <trkpt lat="45.85346" lon="1.27616">
        <ele>313.8</ele>
        <time>2025-06-16T12:40:13Z</time>
      </trkpt>
      <trkpt lat="45.85345" lon="1.27617">
        <ele>313.8</ele>
        <time>2025-06-16T12:40:14Z</time>
      </trkpt>
      <trkpt lat="45.85345" lon="1.27617">
        <ele>313.8</ele>
        <time>2025-06-16T12:40:15Z</time>
      </trkpt>
      <trkpt lat="45.85346" lon="1.27617">
        <ele>313.8</ele>
        <time>2025-06-16T12:40:16Z</time>
      </trkpt>
      <trkpt lat="45.85346" lon="1.27617">
        <ele>313.8</ele>
        <time>2025-06-16T12:40:17Z</time>
      </trkpt>
      <trkpt lat="45.85346" lon="1.27617">
        <ele>313.8</ele>
        <time>2025-06-16T12:40:18Z</time>
      </trkpt>
      <trkpt lat="45.85346" lon="1.27617">
        <ele>313.8</ele>
        <time>2025-06-16T12:40:19Z</time>
      </trkpt>
      <trkpt lat="45.85346" lon="1.27618">
        <ele>313.8</ele>
        <time>2025-06-16T12:40:20Z</time>
      </trkpt>
      <trkpt lat="45.85345" lon="1.27618">
        <ele>313.8</ele>
        <time>2025-06-16T12:40:21Z</time>
      </trkpt>
      <trkpt lat="45.85345" lon="1.27618">
        <ele>313.8</ele>
        <time>2025-06-16T12:40:22Z</time>
      </trkpt>
      <trkpt lat="45.85345" lon="1.27618">
        <ele>313.8</ele>
        <time>2025-06-16T12:40:23Z</time>
      </trkpt>
      <trkpt lat="45.85345" lon="1.27618">
        <ele>313.7</ele>
        <time>2025-06-16T12:40:24Z</time>
      </trkpt>
      <trkpt lat="45.85345" lon="1.27619">
        <ele>313.7</ele>
        <time>2025-06-16T12:40:25Z</time>
      </trkpt>
      <trkpt lat="45.85345" lon="1.27619">
        <ele>313.7</ele>
        <time>2025-06-16T12:40:26Z</time>
      </trkpt>
      <trkpt lat="45.85345" lon="1.27618">
        <ele>313.7</ele>
        <time>2025-06-16T12:40:27Z</time>
      </trkpt>
      <trkpt lat="45.85345" lon="1.27618">
        <ele>313.7</ele>
        <time>2025-06-16T12:40:28Z</time>
      </trkpt>
      <trkpt lat="45.85345" lon="1.27618">
        <ele>313.7</ele>
        <time>2025-06-16T12:40:29Z</time>
      </trkpt>
      <trkpt lat="45.85345" lon="1.27618">
        <ele>313.7</ele>
        <time>2025-06-16T12:40:30Z</time>
      </trkpt>
      <trkpt lat="45.85345" lon="1.27618">
        <ele>313.7</ele>
        <time>2025-06-16T12:40:31Z</time>
      </trkpt>
      <trkpt lat="45.85346" lon="1.27618">
        <ele>313.7</ele>
        <time>2025-06-16T12:40:32Z</time>
      </trkpt>
      <trkpt lat="45.85346" lon="1.27618">
        <ele>313.7</ele>
        <time>2025-06-16T12:40:33Z</time>
      </trkpt>
      <trkpt lat="45.85346" lon="1.27618">
        <ele>313.7</ele>
        <time>2025-06-16T12:40:34Z</time>
      </trkpt>
      <trkpt lat="45.85346" lon="1.27618">
        <ele>313.7</ele>
        <time>2025-06-16T12:40:35Z</time>
      </trkpt>
      <trkpt lat="45.85346" lon="1.27618">
        <ele>313.7</ele>
        <time>2025-06-16T12:40:36Z</time>
      </trkpt>
      <trkpt lat="45.85346" lon="1.27618">
        <ele>313.7</ele>
        <time>2025-06-16T12:40:37Z</time>
      </trkpt>
      <trkpt lat="45.85345" lon="1.27618">
        <ele>313.7</ele>
        <time>2025-06-16T12:40:38Z</time>
      </trkpt>
      <trkpt lat="45.85345" lon="1.27618">
        <ele>313.7</ele>
        <time>2025-06-16T12:40:39Z</time>
      </trkpt>
      <trkpt lat="45.85345" lon="1.27618">
        <ele>313.7</ele>
        <time>2025-06-16T12:40:40Z</time>
      </trkpt>
      <trkpt lat="45.85344" lon="1.27619">
        <ele>313.7</ele>
        <time>2025-06-16T12:40:41Z</time>
      </trkpt>
      <trkpt lat="45.85342" lon="1.27622">
        <ele>313.6</ele>
        <time>2025-06-16T12:40:42Z</time>
      </trkpt>
      <trkpt lat="45.85341" lon="1.27623">
        <ele>313.6</ele>
        <time>2025-06-16T12:40:43Z</time>
      </trkpt>
      <trkpt lat="45.85339" lon="1.27627">
        <ele>313.5</ele>
        <time>2025-06-16T12:40:44Z</time>
      </trkpt>
      <trkpt lat="45.85338" lon="1.27629">
        <ele>313.5</ele>
        <time>2025-06-16T12:40:45Z</time>
      </trkpt>
      <trkpt lat="45.85336" lon="1.27632">
        <ele>313.4</ele>
        <time>2025-06-16T12:40:46Z</time>
      </trkpt>
      <trkpt lat="45.85334" lon="1.27635">
        <ele>313.3</ele>
        <time>2025-06-16T12:40:47Z</time>
      </trkpt>
      <trkpt lat="45.85331" lon="1.27638">
        <ele>313.3</ele>
        <time>2025-06-16T12:40:48Z</time>
      </trkpt>
      <trkpt lat="45.85329" lon="1.27641">
        <ele>313.2</ele>
        <time>2025-06-16T12:40:49Z</time>
      </trkpt>
      <trkpt lat="45.85327" lon="1.27644">
        <ele>313.1</ele>
        <time>2025-06-16T12:40:50Z</time>
      </trkpt>
      <trkpt lat="45.85324" lon="1.27648">
        <ele>313</ele>
        <time>2025-06-16T12:40:51Z</time>
      </trkpt>
      <trkpt lat="45.85321" lon="1.27652">
        <ele>312.9</ele>
        <time>2025-06-16T12:40:52Z</time>
      </trkpt>
      <trkpt lat="45.85318" lon="1.27655">
        <ele>312.8</ele>
        <time>2025-06-16T12:40:53Z</time>
      </trkpt>
      <trkpt lat="45.85315" lon="1.27659">
        <ele>312.8</ele>
        <time>2025-06-16T12:40:54Z</time>
      </trkpt>
      <trkpt lat="45.85313" lon="1.27663">
        <ele>312.7</ele>
        <time>2025-06-16T12:40:55Z</time>
      </trkpt>
      <trkpt lat="45.8531" lon="1.27667">
        <ele>312.6</ele>
        <time>2025-06-16T12:40:56Z</time>
      </trkpt>
      <trkpt lat="45.85307" lon="1.27672">
        <ele>312.5</ele>
        <time>2025-06-16T12:40:57Z</time>
      </trkpt>
      <trkpt lat="45.85304" lon="1.27677">
        <ele>312.3</ele>
        <time>2025-06-16T12:40:58Z</time>
      </trkpt>
      <trkpt lat="45.85301" lon="1.27682">
        <ele>312.2</ele>
        <time>2025-06-16T12:40:59Z</time>
      </trkpt>
      <trkpt lat="45.85297" lon="1.27688">
        <ele>312.2</ele>
        <time>2025-06-16T12:41:00Z</time>
      </trkpt>
      <trkpt lat="45.85294" lon="1.27692">
        <ele>312.2</ele>
        <time>2025-06-16T12:41:01Z</time>
      </trkpt>
      <trkpt lat="45.8529" lon="1.27695">
        <ele>312.1</ele>
        <time>2025-06-16T12:41:02Z</time>
      </trkpt>
      <trkpt lat="45.85286" lon="1.27698">
        <ele>312.1</ele>
        <time>2025-06-16T12:41:03Z</time>
      </trkpt>
      <trkpt lat="45.85283" lon="1.277">
        <ele>312</ele>
        <time>2025-06-16T12:41:04Z</time>
      </trkpt>
      <trkpt lat="45.8528" lon="1.27703">
        <ele>312</ele>
        <time>2025-06-16T12:41:05Z</time>
      </trkpt>
      <trkpt lat="45.85278" lon="1.27706">
        <ele>312</ele>
        <time>2025-06-16T12:41:06Z</time>
      </trkpt>
      <trkpt lat="45.85276" lon="1.27709">
        <ele>312</ele>
        <time>2025-06-16T12:41:07Z</time>
      </trkpt>
      <trkpt lat="45.85274" lon="1.27712">
        <ele>312</ele>
        <time>2025-06-16T12:41:08Z</time>
      </trkpt>
      <trkpt lat="45.85272" lon="1.27715">
        <ele>312</ele>
        <time>2025-06-16T12:41:09Z</time>
      </trkpt>
      <trkpt lat="45.8527" lon="1.27719">
        <ele>312</ele>
        <time>2025-06-16T12:41:10Z</time>
      </trkpt>
      <trkpt lat="45.85269" lon="1.2772">
        <ele>312</ele>
        <time>2025-06-16T12:41:11Z</time>
      </trkpt>
      <trkpt lat="45.85267" lon="1.27724">
        <ele>312</ele>
        <time>2025-06-16T12:41:12Z</time>
      </trkpt>
      <trkpt lat="45.85266" lon="1.27725">
        <ele>312</ele>
        <time>2025-06-16T12:41:13Z</time>
      </trkpt>
      <trkpt lat="45.85264" lon="1.27728">
        <ele>312</ele>
        <time>2025-06-16T12:41:14Z</time>
      </trkpt>
      <trkpt lat="45.85263" lon="1.27729">
        <ele>312</ele>
        <time>2025-06-16T12:41:15Z</time>
      </trkpt>
      <trkpt lat="45.8526" lon="1.27733">
        <ele>312</ele>
        <time>2025-06-16T12:41:16Z</time>
      </trkpt>
      <trkpt lat="45.85259" lon="1.27735">
        <ele>312.1</ele>
        <time>2025-06-16T12:41:17Z</time>
      </trkpt>
      <trkpt lat="45.85256" lon="1.27738">
        <ele>312.1</ele>
        <time>2025-06-16T12:41:18Z</time>
      </trkpt>
      <trkpt lat="45.85254" lon="1.27741">
        <ele>312.2</ele>
        <time>2025-06-16T12:41:19Z</time>
      </trkpt>
      <trkpt lat="45.85252" lon="1.27745">
        <ele>312.2</ele>
        <time>2025-06-16T12:41:20Z</time>
      </trkpt>
      <trkpt lat="45.8525" lon="1.27749">
        <ele>312.3</ele>
        <time>2025-06-16T12:41:21Z</time>
      </trkpt>
      <trkpt lat="45.85248" lon="1.27753">
        <ele>312.4</ele>
        <time>2025-06-16T12:41:22Z</time>
      </trkpt>
      <trkpt lat="45.85245" lon="1.27756">
        <ele>312.4</ele>
        <time>2025-06-16T12:41:23Z</time>
      </trkpt>
      <trkpt lat="45.85243" lon="1.2776">
        <ele>312.5</ele>
        <time>2025-06-16T12:41:24Z</time>
      </trkpt>
      <trkpt lat="45.8524" lon="1.27763">
        <ele>312.5</ele>
        <time>2025-06-16T12:41:25Z</time>
      </trkpt>
      <trkpt lat="45.85238" lon="1.27767">
        <ele>312.6</ele>
        <time>2025-06-16T12:41:26Z</time>
      </trkpt>
      <trkpt lat="45.85236" lon="1.27771">
        <ele>312.7</ele>
        <time>2025-06-16T12:41:27Z</time>
      </trkpt>
      <trkpt lat="45.85234" lon="1.27775">
        <ele>312.7</ele>
        <time>2025-06-16T12:41:28Z</time>
      </trkpt>
      <trkpt lat="45.85233" lon="1.2778">
        <ele>312.8</ele>
        <time>2025-06-16T12:41:29Z</time>
      </trkpt>
      <trkpt lat="45.85231" lon="1.27785">
        <ele>312.8</ele>
        <time>2025-06-16T12:41:30Z</time>
      </trkpt>
      <trkpt lat="45.85229" lon="1.2779">
        <ele>312.9</ele>
        <time>2025-06-16T12:41:31Z</time>
      </trkpt>
      <trkpt lat="45.85229" lon="1.27795">
        <ele>313</ele>
        <time>2025-06-16T12:41:32Z</time>
      </trkpt>
      <trkpt lat="45.85227" lon="1.278">
        <ele>313</ele>
        <time>2025-06-16T12:41:33Z</time>
      </trkpt>
      <trkpt lat="45.85226" lon="1.27805">
        <ele>313.1</ele>
        <time>2025-06-16T12:41:34Z</time>
      </trkpt>
      <trkpt lat="45.85226" lon="1.27811">
        <ele>313.1</ele>
        <time>2025-06-16T12:41:35Z</time>
      </trkpt>
      <trkpt lat="45.85226" lon="1.27816">
        <ele>313.1</ele>
        <time>2025-06-16T12:41:36Z</time>
      </trkpt>
      <trkpt lat="45.85225" lon="1.27821">
        <ele>313.2</ele>
        <time>2025-06-16T12:41:37Z</time>
      </trkpt>
      <trkpt lat="45.85226" lon="1.27826">
        <ele>313.2</ele>
        <time>2025-06-16T12:41:38Z</time>
      </trkpt>
      <trkpt lat="45.85226" lon="1.27832">
        <ele>313.2</ele>
        <time>2025-06-16T12:41:39Z</time>
      </trkpt>
      <trkpt lat="45.85226" lon="1.27837">
        <ele>313.2</ele>
        <time>2025-06-16T12:41:40Z</time>
      </trkpt>
      <trkpt lat="45.85227" lon="1.27842">
        <ele>313.2</ele>
        <time>2025-06-16T12:41:41Z</time>
      </trkpt>
      <trkpt lat="45.85228" lon="1.27848">
        <ele>313.2</ele>
        <time>2025-06-16T12:41:42Z</time>
      </trkpt>
      <trkpt lat="45.85229" lon="1.27854">
        <ele>313.2</ele>
        <time>2025-06-16T12:41:43Z</time>
      </trkpt>
      <trkpt lat="45.8523" lon="1.27859">
        <ele>313.2</ele>
        <time>2025-06-16T12:41:44Z</time>
      </trkpt>
      <trkpt lat="45.85232" lon="1.27865">
        <ele>313.1</ele>
        <time>2025-06-16T12:41:45Z</time>
      </trkpt>
      <trkpt lat="45.85233" lon="1.2787">
        <ele>313.1</ele>
        <time>2025-06-16T12:41:46Z</time>
      </trkpt>
      <trkpt lat="45.85235" lon="1.27875">
        <ele>313.1</ele>
        <time>2025-06-16T12:41:47Z</time>
      </trkpt>
      <trkpt lat="45.85237" lon="1.2788">
        <ele>313</ele>
        <time>2025-06-16T12:41:48Z</time>
      </trkpt>
      <trkpt lat="45.85239" lon="1.27885">
        <ele>313</ele>
        <time>2025-06-16T12:41:49Z</time>
      </trkpt>
      <trkpt lat="45.85242" lon="1.27889">
        <ele>312.9</ele>
        <time>2025-06-16T12:41:50Z</time>
      </trkpt>
      <trkpt lat="45.85245" lon="1.27893">
        <ele>312.8</ele>
        <time>2025-06-16T12:41:51Z</time>
      </trkpt>
      <trkpt lat="45.85248" lon="1.27898">
        <ele>312.7</ele>
        <time>2025-06-16T12:41:52Z</time>
      </trkpt>
      <trkpt lat="45.85251" lon="1.27902">
        <ele>312.6</ele>
        <time>2025-06-16T12:41:53Z</time>
      </trkpt>
      <trkpt lat="45.85255" lon="1.27905">
        <ele>312.5</ele>
        <time>2025-06-16T12:41:54Z</time>
      </trkpt>
      <trkpt lat="45.85259" lon="1.27908">
        <ele>312.4</ele>
        <time>2025-06-16T12:41:55Z</time>
      </trkpt>
      <trkpt lat="45.85263" lon="1.27909">
        <ele>312.3</ele>
        <time>2025-06-16T12:41:56Z</time>
      </trkpt>
      <trkpt lat="45.85268" lon="1.27908">
        <ele>312.1</ele>
        <time>2025-06-16T12:41:57Z</time>
      </trkpt>
      <trkpt lat="45.85273" lon="1.27906">
        <ele>312</ele>
        <time>2025-06-16T12:41:58Z</time>
      </trkpt>
      <trkpt lat="45.85277" lon="1.27907">
        <ele>311.8</ele>
        <time>2025-06-16T12:41:59Z</time>
      </trkpt>
      <trkpt lat="45.85281" lon="1.27911">
        <ele>311.6</ele>
        <time>2025-06-16T12:42:00Z</time>
      </trkpt>
      <trkpt lat="45.85285" lon="1.27916">
        <ele>311.4</ele>
        <time>2025-06-16T12:42:01Z</time>
      </trkpt>
      <trkpt lat="45.85289" lon="1.27921">
        <ele>311.1</ele>
        <time>2025-06-16T12:42:02Z</time>
      </trkpt>
      <trkpt lat="45.85294" lon="1.27925">
        <ele>310.9</ele>
        <time>2025-06-16T12:42:03Z</time>
      </trkpt>
      <trkpt lat="45.85298" lon="1.27931">
        <ele>310.6</ele>
        <time>2025-06-16T12:42:04Z</time>
      </trkpt>
      <trkpt lat="45.85303" lon="1.27937">
        <ele>310.4</ele>
        <time>2025-06-16T12:42:05Z</time>
      </trkpt>
      <trkpt lat="45.85307" lon="1.27944">
        <ele>310.1</ele>
        <time>2025-06-16T12:42:06Z</time>
      </trkpt>
      <trkpt lat="45.85311" lon="1.27951">
        <ele>309.9</ele>
        <time>2025-06-16T12:42:07Z</time>
      </trkpt>
      <trkpt lat="45.85315" lon="1.27958">
        <ele>309.6</ele>
        <time>2025-06-16T12:42:08Z</time>
      </trkpt>
      <trkpt lat="45.85319" lon="1.27965">
        <ele>309.4</ele>
        <time>2025-06-16T12:42:09Z</time>
      </trkpt>
      <trkpt lat="45.85323" lon="1.27972">
        <ele>309.3</ele>
        <time>2025-06-16T12:42:10Z</time>
      </trkpt>
      <trkpt lat="45.85327" lon="1.2798">
        <ele>309.1</ele>
        <time>2025-06-16T12:42:11Z</time>
      </trkpt>
      <trkpt lat="45.8533" lon="1.27988">
        <ele>309</ele>
        <time>2025-06-16T12:42:12Z</time>
      </trkpt>
      <trkpt lat="45.85333" lon="1.27996">
        <ele>308.9</ele>
        <time>2025-06-16T12:42:13Z</time>
      </trkpt>
      <trkpt lat="45.85336" lon="1.28004">
        <ele>308.8</ele>
        <time>2025-06-16T12:42:14Z</time>
      </trkpt>
      <trkpt lat="45.85339" lon="1.28012">
        <ele>308.8</ele>
        <time>2025-06-16T12:42:15Z</time>
      </trkpt>
      <trkpt lat="45.85342" lon="1.28019">
        <ele>308.7</ele>
        <time>2025-06-16T12:42:16Z</time>
      </trkpt>
      <trkpt lat="45.85344" lon="1.28027">
        <ele>308.8</ele>
        <time>2025-06-16T12:42:17Z</time>
      </trkpt>
      <trkpt lat="45.85347" lon="1.28034">
        <ele>308.8</ele>
        <time>2025-06-16T12:42:18Z</time>
      </trkpt>
      <trkpt lat="45.85349" lon="1.28041">
        <ele>308.8</ele>
        <time>2025-06-16T12:42:19Z</time>
      </trkpt>
      <trkpt lat="45.85351" lon="1.28047">
        <ele>308.9</ele>
        <time>2025-06-16T12:42:20Z</time>
      </trkpt>
      <trkpt lat="45.85352" lon="1.28053">
        <ele>309</ele>
        <time>2025-06-16T12:42:21Z</time>
      </trkpt>
      <trkpt lat="45.85354" lon="1.28059">
        <ele>309.1</ele>
        <time>2025-06-16T12:42:22Z</time>
      </trkpt>
      <trkpt lat="45.85357" lon="1.28064">
        <ele>309.2</ele>
        <time>2025-06-16T12:42:23Z</time>
      </trkpt>
      <trkpt lat="45.85358" lon="1.28069">
        <ele>309.2</ele>
        <time>2025-06-16T12:42:24Z</time>
      </trkpt>
      <trkpt lat="45.85359" lon="1.28074">
        <ele>309.3</ele>
        <time>2025-06-16T12:42:25Z</time>
      </trkpt>
      <trkpt lat="45.8536" lon="1.28078">
        <ele>309.4</ele>
        <time>2025-06-16T12:42:26Z</time>
      </trkpt>
      <trkpt lat="45.85361" lon="1.28082">
        <ele>309.4</ele>
        <time>2025-06-16T12:42:27Z</time>
      </trkpt>
      <trkpt lat="45.85363" lon="1.28087">
        <ele>309.5</ele>
        <time>2025-06-16T12:42:28Z</time>
      </trkpt>
      <trkpt lat="45.85364" lon="1.28093">
        <ele>309.6</ele>
        <time>2025-06-16T12:42:29Z</time>
      </trkpt>
      <trkpt lat="45.85366" lon="1.28099">
        <ele>309.7</ele>
        <time>2025-06-16T12:42:30Z</time>
      </trkpt>
      <trkpt lat="45.85368" lon="1.28104">
        <ele>309.8</ele>
        <time>2025-06-16T12:42:31Z</time>
      </trkpt>
      <trkpt lat="45.8537" lon="1.2811">
        <ele>309.8</ele>
        <time>2025-06-16T12:42:32Z</time>
      </trkpt>
      <trkpt lat="45.85371" lon="1.28116">
        <ele>309.9</ele>
        <time>2025-06-16T12:42:33Z</time>
      </trkpt>
      <trkpt lat="45.85373" lon="1.28122">
        <ele>310</ele>
        <time>2025-06-16T12:42:34Z</time>
      </trkpt>
      <trkpt lat="45.85375" lon="1.28127">
        <ele>310.1</ele>
        <time>2025-06-16T12:42:35Z</time>
      </trkpt>
      <trkpt lat="45.85376" lon="1.28133">
        <ele>310.2</ele>
        <time>2025-06-16T12:42:36Z</time>
      </trkpt>
      <trkpt lat="45.85378" lon="1.28139">
        <ele>310.3</ele>
        <time>2025-06-16T12:42:37Z</time>
      </trkpt>
      <trkpt lat="45.8538" lon="1.28145">
        <ele>310.5</ele>
        <time>2025-06-16T12:42:38Z</time>
      </trkpt>
      <trkpt lat="45.85381" lon="1.2815">
        <ele>310.6</ele>
        <time>2025-06-16T12:42:39Z</time>
      </trkpt>
      <trkpt lat="45.85382" lon="1.28155">
        <ele>310.7</ele>
        <time>2025-06-16T12:42:40Z</time>
      </trkpt>
      <trkpt lat="45.85384" lon="1.28159">
        <ele>310.8</ele>
        <time>2025-06-16T12:42:41Z</time>
      </trkpt>
      <trkpt lat="45.85386" lon="1.28164">
        <ele>310.9</ele>
        <time>2025-06-16T12:42:42Z</time>
      </trkpt>
      <trkpt lat="45.85387" lon="1.28169">
        <ele>311.1</ele>
        <time>2025-06-16T12:42:43Z</time>
      </trkpt>
      <trkpt lat="45.85389" lon="1.28173">
        <ele>311.2</ele>
        <time>2025-06-16T12:42:44Z</time>
      </trkpt>
      <trkpt lat="45.8539" lon="1.28178">
        <ele>311.3</ele>
        <time>2025-06-16T12:42:45Z</time>
      </trkpt>
      <trkpt lat="45.85391" lon="1.28181">
        <ele>311.4</ele>
        <time>2025-06-16T12:42:46Z</time>
      </trkpt>
      <trkpt lat="45.85393" lon="1.28185">
        <ele>311.5</ele>
        <time>2025-06-16T12:42:47Z</time>
      </trkpt>
      <trkpt lat="45.85394" lon="1.28188">
        <ele>311.6</ele>
        <time>2025-06-16T12:42:48Z</time>
      </trkpt>
      <trkpt lat="45.85396" lon="1.28192">
        <ele>311.8</ele>
        <time>2025-06-16T12:42:49Z</time>
      </trkpt>
      <trkpt lat="45.85397" lon="1.28196">
        <ele>311.9</ele>
        <time>2025-06-16T12:42:50Z</time>
      </trkpt>
      <trkpt lat="45.85399" lon="1.282">
        <ele>312</ele>
        <time>2025-06-16T12:42:51Z</time>
      </trkpt>
      <trkpt lat="45.85401" lon="1.28204">
        <ele>312.2</ele>
        <time>2025-06-16T12:42:52Z</time>
      </trkpt>
      <trkpt lat="45.85403" lon="1.28207">
        <ele>312.3</ele>
        <time>2025-06-16T12:42:53Z</time>
      </trkpt>
      <trkpt lat="45.85405" lon="1.28211">
        <ele>312.5</ele>
        <time>2025-06-16T12:42:54Z</time>
      </trkpt>
      <trkpt lat="45.85407" lon="1.28214">
        <ele>312.6</ele>
        <time>2025-06-16T12:42:55Z</time>
      </trkpt>
      <trkpt lat="45.8541" lon="1.28217">
        <ele>312.7</ele>
        <time>2025-06-16T12:42:56Z</time>
      </trkpt>
      <trkpt lat="45.85411" lon="1.2822">
        <ele>312.9</ele>
        <time>2025-06-16T12:42:57Z</time>
      </trkpt>
      <trkpt lat="45.85413" lon="1.28224">
        <ele>312.9</ele>
        <time>2025-06-16T12:42:58Z</time>
      </trkpt>
      <trkpt lat="45.85415" lon="1.28227">
        <ele>312.9</ele>
        <time>2025-06-16T12:42:59Z</time>
      </trkpt>
      <trkpt lat="45.85417" lon="1.28229">
        <ele>313</ele>
        <time>2025-06-16T12:43:00Z</time>
      </trkpt>
      <trkpt lat="45.85419" lon="1.28232">
        <ele>313.1</ele>
        <time>2025-06-16T12:43:01Z</time>
      </trkpt>
      <trkpt lat="45.85421" lon="1.28235">
        <ele>313.2</ele>
        <time>2025-06-16T12:43:02Z</time>
      </trkpt>
      <trkpt lat="45.85424" lon="1.28237">
        <ele>313.3</ele>
        <time>2025-06-16T12:43:03Z</time>
      </trkpt>
      <trkpt lat="45.85427" lon="1.2824">
        <ele>313.4</ele>
        <time>2025-06-16T12:43:04Z</time>
      </trkpt>
      <trkpt lat="45.85428" lon="1.28241">
        <ele>313.4</ele>
        <time>2025-06-16T12:43:05Z</time>
      </trkpt>
      <trkpt lat="45.85431" lon="1.28244">
        <ele>313.5</ele>
        <time>2025-06-16T12:43:06Z</time>
      </trkpt>
      <trkpt lat="45.85432" lon="1.28245">
        <ele>313.6</ele>
        <time>2025-06-16T12:43:07Z</time>
      </trkpt>
      <trkpt lat="45.85432" lon="1.2825">
        <ele>313.7</ele>
        <time>2025-06-16T12:43:08Z</time>
      </trkpt>
      <trkpt lat="45.85431" lon="1.28251">
        <ele>313.7</ele>
        <time>2025-06-16T12:43:09Z</time>
      </trkpt>
      <trkpt lat="45.85429" lon="1.28254">
        <ele>313.8</ele>
        <time>2025-06-16T12:43:10Z</time>
      </trkpt>
      <trkpt lat="45.85426" lon="1.28255">
        <ele>313.8</ele>
        <time>2025-06-16T12:43:11Z</time>
      </trkpt>
      <trkpt lat="45.85423" lon="1.28254">
        <ele>313.6</ele>
        <time>2025-06-16T12:43:12Z</time>
      </trkpt>
      <trkpt lat="45.85419" lon="1.28251">
        <ele>313.5</ele>
        <time>2025-06-16T12:43:13Z</time>
      </trkpt>
      <trkpt lat="45.85415" lon="1.28247">
        <ele>313.3</ele>
        <time>2025-06-16T12:43:14Z</time>
      </trkpt>
      <trkpt lat="45.85412" lon="1.28244">
        <ele>313.2</ele>
        <time>2025-06-16T12:43:15Z</time>
      </trkpt>
      <trkpt lat="45.85408" lon="1.28242">
        <ele>313.1</ele>
        <time>2025-06-16T12:43:16Z</time>
      </trkpt>
      <trkpt lat="45.85404" lon="1.28242">
        <ele>312.9</ele>
        <time>2025-06-16T12:43:17Z</time>
      </trkpt>
      <trkpt lat="45.854" lon="1.28242">
        <ele>313</ele>
        <time>2025-06-16T12:43:18Z</time>
      </trkpt>
      <trkpt lat="45.85396" lon="1.28241">
        <ele>313.1</ele>
        <time>2025-06-16T12:43:19Z</time>
      </trkpt>
      <trkpt lat="45.85393" lon="1.2824">
        <ele>313.1</ele>
        <time>2025-06-16T12:43:20Z</time>
      </trkpt>
      <trkpt lat="45.8539" lon="1.28237">
        <ele>313.1</ele>
        <time>2025-06-16T12:43:21Z</time>
      </trkpt>
      <trkpt lat="45.85387" lon="1.28234">
        <ele>313.1</ele>
        <time>2025-06-16T12:43:22Z</time>
      </trkpt>
      <trkpt lat="45.85384" lon="1.28231">
        <ele>313</ele>
        <time>2025-06-16T12:43:23Z</time>
      </trkpt>
      <trkpt lat="45.85381" lon="1.28227">
        <ele>313</ele>
        <time>2025-06-16T12:43:24Z</time>
      </trkpt>
      <trkpt lat="45.85378" lon="1.28223">
        <ele>312.9</ele>
        <time>2025-06-16T12:43:25Z</time>
      </trkpt>
      <trkpt lat="45.85375" lon="1.28218">
        <ele>312.9</ele>
        <time>2025-06-16T12:43:26Z</time>
      </trkpt>
      <trkpt lat="45.85372" lon="1.28214">
        <ele>312.8</ele>
        <time>2025-06-16T12:43:27Z</time>
      </trkpt>
      <trkpt lat="45.85369" lon="1.2821">
        <ele>312.8</ele>
        <time>2025-06-16T12:43:28Z</time>
      </trkpt>
      <trkpt lat="45.85365" lon="1.28206">
        <ele>312.7</ele>
        <time>2025-06-16T12:43:29Z</time>
      </trkpt>
      <trkpt lat="45.85362" lon="1.28202">
        <ele>312.7</ele>
        <time>2025-06-16T12:43:30Z</time>
      </trkpt>
      <trkpt lat="45.85358" lon="1.28199">
        <ele>312.6</ele>
        <time>2025-06-16T12:43:31Z</time>
      </trkpt>
      <trkpt lat="45.85354" lon="1.28195">
        <ele>312.5</ele>
        <time>2025-06-16T12:43:32Z</time>
      </trkpt>
      <trkpt lat="45.85351" lon="1.28191">
        <ele>312.5</ele>
        <time>2025-06-16T12:43:33Z</time>
      </trkpt>
      <trkpt lat="45.85347" lon="1.28187">
        <ele>312.4</ele>
        <time>2025-06-16T12:43:34Z</time>
      </trkpt>
      <trkpt lat="45.85343" lon="1.28183">
        <ele>312.4</ele>
        <time>2025-06-16T12:43:35Z</time>
      </trkpt>
      <trkpt lat="45.85339" lon="1.2818">
        <ele>312.3</ele>
        <time>2025-06-16T12:43:36Z</time>
      </trkpt>
      <trkpt lat="45.85336" lon="1.28176">
        <ele>312.3</ele>
        <time>2025-06-16T12:43:37Z</time>
      </trkpt>
      <trkpt lat="45.85333" lon="1.28172">
        <ele>312.2</ele>
        <time>2025-06-16T12:43:38Z</time>
      </trkpt>
      <trkpt lat="45.8533" lon="1.28168">
        <ele>312.2</ele>
        <time>2025-06-16T12:43:39Z</time>
      </trkpt>
      <trkpt lat="45.85327" lon="1.28163">
        <ele>312.1</ele>
        <time>2025-06-16T12:43:40Z</time>
      </trkpt>
      <trkpt lat="45.85324" lon="1.28158">
        <ele>312.1</ele>
        <time>2025-06-16T12:43:41Z</time>
      </trkpt>
      <trkpt lat="45.85321" lon="1.28153">
        <ele>312.1</ele>
        <time>2025-06-16T12:43:42Z</time>
      </trkpt>
      <trkpt lat="45.85318" lon="1.28148">
        <ele>311.9</ele>
        <time>2025-06-16T12:43:43Z</time>
      </trkpt>
      <trkpt lat="45.85315" lon="1.28143">
        <ele>311.7</ele>
        <time>2025-06-16T12:43:44Z</time>
      </trkpt>
      <trkpt lat="45.85312" lon="1.28138">
        <ele>311.5</ele>
        <time>2025-06-16T12:43:45Z</time>
      </trkpt>
      <trkpt lat="45.8531" lon="1.28133">
        <ele>311.3</ele>
        <time>2025-06-16T12:43:46Z</time>
      </trkpt>
      <trkpt lat="45.85307" lon="1.28128">
        <ele>311.1</ele>
        <time>2025-06-16T12:43:47Z</time>
      </trkpt>
      <trkpt lat="45.85304" lon="1.28122">
        <ele>310.9</ele>
        <time>2025-06-16T12:43:48Z</time>
      </trkpt>
      <trkpt lat="45.85301" lon="1.28117">
        <ele>310.8</ele>
        <time>2025-06-16T12:43:49Z</time>
      </trkpt>
      <trkpt lat="45.85298" lon="1.28112">
        <ele>310.7</ele>
        <time>2025-06-16T12:43:50Z</time>
      </trkpt>
      <trkpt lat="45.85295" lon="1.28107">
        <ele>310.6</ele>
        <time>2025-06-16T12:43:51Z</time>
      </trkpt>
      <trkpt lat="45.85292" lon="1.28103">
        <ele>310.5</ele>
        <time>2025-06-16T12:43:52Z</time>
      </trkpt>
      <trkpt lat="45.85289" lon="1.28099">
        <ele>310.4</ele>
        <time>2025-06-16T12:43:53Z</time>
      </trkpt>
      <trkpt lat="45.85287" lon="1.28095">
        <ele>310.3</ele>
        <time>2025-06-16T12:43:54Z</time>
      </trkpt>
      <trkpt lat="45.85285" lon="1.28091">
        <ele>310.1</ele>
        <time>2025-06-16T12:43:55Z</time>
      </trkpt>
      <trkpt lat="45.85283" lon="1.28088">
        <ele>310</ele>
        <time>2025-06-16T12:43:56Z</time>
      </trkpt>
      <trkpt lat="45.8528" lon="1.28084">
        <ele>309.8</ele>
        <time>2025-06-16T12:43:57Z</time>
      </trkpt>
      <trkpt lat="45.85278" lon="1.2808">
        <ele>309.6</ele>
        <time>2025-06-16T12:43:58Z</time>
      </trkpt>
      <trkpt lat="45.85276" lon="1.28076">
        <ele>309.4</ele>
        <time>2025-06-16T12:43:59Z</time>
      </trkpt>
      <trkpt lat="45.85274" lon="1.28072">
        <ele>309.3</ele>
        <time>2025-06-16T12:44:00Z</time>
      </trkpt>
      <trkpt lat="45.85271" lon="1.28067">
        <ele>309</ele>
        <time>2025-06-16T12:44:01Z</time>
      </trkpt>
      <trkpt lat="45.85268" lon="1.2806">
        <ele>308.8</ele>
        <time>2025-06-16T12:44:02Z</time>
      </trkpt>
      <trkpt lat="45.85265" lon="1.28053">
        <ele>308.5</ele>
        <time>2025-06-16T12:44:03Z</time>
      </trkpt>
      <trkpt lat="45.85263" lon="1.28048">
        <ele>308.4</ele>
        <time>2025-06-16T12:44:04Z</time>
      </trkpt>
      <trkpt lat="45.85259" lon="1.2804">
        <ele>308.1</ele>
        <time>2025-06-16T12:44:05Z</time>
      </trkpt>
      <trkpt lat="45.85256" lon="1.28032">
        <ele>307.8</ele>
        <time>2025-06-16T12:44:06Z</time>
      </trkpt>
      <trkpt lat="45.85252" lon="1.28026">
        <ele>307.6</ele>
        <time>2025-06-16T12:44:07Z</time>
      </trkpt>
      <trkpt lat="45.85249" lon="1.28021">
        <ele>307.3</ele>
        <time>2025-06-16T12:44:08Z</time>
      </trkpt>
      <trkpt lat="45.85246" lon="1.28016">
        <ele>307.1</ele>
        <time>2025-06-16T12:44:09Z</time>
      </trkpt>
      <trkpt lat="45.85242" lon="1.2801">
        <ele>306.7</ele>
        <time>2025-06-16T12:44:10Z</time>
      </trkpt>
      <trkpt lat="45.85239" lon="1.28005">
        <ele>306.5</ele>
        <time>2025-06-16T12:44:11Z</time>
      </trkpt>
      <trkpt lat="45.85236" lon="1.28">
        <ele>306.1</ele>
        <time>2025-06-16T12:44:12Z</time>
      </trkpt>
      <trkpt lat="45.8523" lon="1.27996">
        <ele>305.7</ele>
        <time>2025-06-16T12:44:13Z</time>
      </trkpt>
      <trkpt lat="45.85225" lon="1.2799">
        <ele>305.2</ele>
        <time>2025-06-16T12:44:14Z</time>
      </trkpt>
      <trkpt lat="45.8522" lon="1.27985">
        <ele>304.8</ele>
        <time>2025-06-16T12:44:15Z</time>
      </trkpt>
      <trkpt lat="45.85215" lon="1.27979">
        <ele>304.4</ele>
        <time>2025-06-16T12:44:16Z</time>
      </trkpt>
      <trkpt lat="45.85212" lon="1.27974">
        <ele>304.1</ele>
        <time>2025-06-16T12:44:17Z</time>
      </trkpt>
      <trkpt lat="45.85206" lon="1.27969">
        <ele>303.7</ele>
        <time>2025-06-16T12:44:18Z</time>
      </trkpt>
      <trkpt lat="45.85201" lon="1.27962">
        <ele>303.3</ele>
        <time>2025-06-16T12:44:19Z</time>
      </trkpt>
      <trkpt lat="45.85196" lon="1.27958">
        <ele>303</ele>
        <time>2025-06-16T12:44:20Z</time>
      </trkpt>
      <trkpt lat="45.85192" lon="1.27952">
        <ele>302.7</ele>
        <time>2025-06-16T12:44:21Z</time>
      </trkpt>
      <trkpt lat="45.85188" lon="1.27946">
        <ele>302.3</ele>
        <time>2025-06-16T12:44:22Z</time>
      </trkpt>
      <trkpt lat="45.85183" lon="1.2794">
        <ele>302.1</ele>
        <time>2025-06-16T12:44:23Z</time>
      </trkpt>
      <trkpt lat="45.8518" lon="1.27935">
        <ele>301.9</ele>
        <time>2025-06-16T12:44:24Z</time>
      </trkpt>
      <trkpt lat="45.85177" lon="1.2793">
        <ele>301.7</ele>
        <time>2025-06-16T12:44:25Z</time>
      </trkpt>
      <trkpt lat="45.85174" lon="1.27925">
        <ele>301.5</ele>
        <time>2025-06-16T12:44:26Z</time>
      </trkpt>
      <trkpt lat="45.8517" lon="1.2792">
        <ele>301.4</ele>
        <time>2025-06-16T12:44:27Z</time>
      </trkpt>
      <trkpt lat="45.85166" lon="1.27914">
        <ele>301.2</ele>
        <time>2025-06-16T12:44:28Z</time>
      </trkpt>
      <trkpt lat="45.85164" lon="1.27908">
        <ele>301.1</ele>
        <time>2025-06-16T12:44:29Z</time>
      </trkpt>
      <trkpt lat="45.85162" lon="1.27904">
        <ele>301</ele>
        <time>2025-06-16T12:44:30Z</time>
      </trkpt>
      <trkpt lat="45.85159" lon="1.27901">
        <ele>300.9</ele>
        <time>2025-06-16T12:44:31Z</time>
      </trkpt>
      <trkpt lat="45.85157" lon="1.27898">
        <ele>300.9</ele>
        <time>2025-06-16T12:44:32Z</time>
      </trkpt>
      <trkpt lat="45.85154" lon="1.27895">
        <ele>300.8</ele>
        <time>2025-06-16T12:44:33Z</time>
      </trkpt>
      <trkpt lat="45.85151" lon="1.27892">
        <ele>300.7</ele>
        <time>2025-06-16T12:44:34Z</time>
      </trkpt>
      <trkpt lat="45.85147" lon="1.27889">
        <ele>300.7</ele>
        <time>2025-06-16T12:44:35Z</time>
      </trkpt>
      <trkpt lat="45.85144" lon="1.27889">
        <ele>300.6</ele>
        <time>2025-06-16T12:44:36Z</time>
      </trkpt>
      <trkpt lat="45.85141" lon="1.27889">
        <ele>300.6</ele>
        <time>2025-06-16T12:44:37Z</time>
      </trkpt>
      <trkpt lat="45.85138" lon="1.27889">
        <ele>300.5</ele>
        <time>2025-06-16T12:44:38Z</time>
      </trkpt>
      <trkpt lat="45.85135" lon="1.27889">
        <ele>300.5</ele>
        <time>2025-06-16T12:44:39Z</time>
      </trkpt>
      <trkpt lat="45.85131" lon="1.27888">
        <ele>300.3</ele>
        <time>2025-06-16T12:44:40Z</time>
      </trkpt>
      <trkpt lat="45.85127" lon="1.27886">
        <ele>300.1</ele>
        <time>2025-06-16T12:44:41Z</time>
      </trkpt>
      <trkpt lat="45.85123" lon="1.27884">
        <ele>299.9</ele>
        <time>2025-06-16T12:44:42Z</time>
      </trkpt>
      <trkpt lat="45.85119" lon="1.2788">
        <ele>299.6</ele>
        <time>2025-06-16T12:44:43Z</time>
      </trkpt>
      <trkpt lat="45.85114" lon="1.27876">
        <ele>299.3</ele>
        <time>2025-06-16T12:44:44Z</time>
      </trkpt>
      <trkpt lat="45.85109" lon="1.27873">
        <ele>299</ele>
        <time>2025-06-16T12:44:45Z</time>
      </trkpt>
      <trkpt lat="45.85104" lon="1.2787">
        <ele>298.7</ele>
        <time>2025-06-16T12:44:46Z</time>
      </trkpt>
      <trkpt lat="45.851" lon="1.27868">
        <ele>298.4</ele>
        <time>2025-06-16T12:44:47Z</time>
      </trkpt>
      <trkpt lat="45.85095" lon="1.27866">
        <ele>298.1</ele>
        <time>2025-06-16T12:44:48Z</time>
      </trkpt>
      <trkpt lat="45.85091" lon="1.27864">
        <ele>297.8</ele>
        <time>2025-06-16T12:44:49Z</time>
      </trkpt>
      <trkpt lat="45.85086" lon="1.27862">
        <ele>297.4</ele>
        <time>2025-06-16T12:44:50Z</time>
      </trkpt>
      <trkpt lat="45.85081" lon="1.27859">
        <ele>297</ele>
        <time>2025-06-16T12:44:51Z</time>
      </trkpt>
      <trkpt lat="45.85075" lon="1.27856">
        <ele>296.6</ele>
        <time>2025-06-16T12:44:52Z</time>
      </trkpt>
      <trkpt lat="45.8507" lon="1.27852">
        <ele>296.1</ele>
        <time>2025-06-16T12:44:53Z</time>
      </trkpt>
      <trkpt lat="45.85065" lon="1.27849">
        <ele>295.7</ele>
        <time>2025-06-16T12:44:54Z</time>
      </trkpt>
      <trkpt lat="45.8506" lon="1.27846">
        <ele>295.3</ele>
        <time>2025-06-16T12:44:55Z</time>
      </trkpt>
      <trkpt lat="45.85055" lon="1.27844">
        <ele>294.9</ele>
        <time>2025-06-16T12:44:56Z</time>
      </trkpt>
      <trkpt lat="45.8505" lon="1.27842">
        <ele>294.5</ele>
        <time>2025-06-16T12:44:57Z</time>
      </trkpt>
      <trkpt lat="45.85044" lon="1.2784">
        <ele>294.1</ele>
        <time>2025-06-16T12:44:58Z</time>
      </trkpt>
      <trkpt lat="45.85039" lon="1.27836">
        <ele>293.7</ele>
        <time>2025-06-16T12:44:59Z</time>
      </trkpt>
      <trkpt lat="45.85035" lon="1.2783">
        <ele>293.3</ele>
        <time>2025-06-16T12:45:00Z</time>
      </trkpt>
      <trkpt lat="45.85031" lon="1.27823">
        <ele>292.9</ele>
        <time>2025-06-16T12:45:01Z</time>
      </trkpt>
      <trkpt lat="45.85028" lon="1.27817">
        <ele>292.5</ele>
        <time>2025-06-16T12:45:02Z</time>
      </trkpt>
      <trkpt lat="45.85023" lon="1.27812">
        <ele>292.1</ele>
        <time>2025-06-16T12:45:03Z</time>
      </trkpt>
      <trkpt lat="45.85019" lon="1.27808">
        <ele>291.8</ele>
        <time>2025-06-16T12:45:04Z</time>
      </trkpt>
      <trkpt lat="45.85013" lon="1.27806">
        <ele>291.6</ele>
        <time>2025-06-16T12:45:05Z</time>
      </trkpt>
      <trkpt lat="45.85008" lon="1.27804">
        <ele>291.4</ele>
        <time>2025-06-16T12:45:06Z</time>
      </trkpt>
      <trkpt lat="45.85003" lon="1.27803">
        <ele>291.3</ele>
        <time>2025-06-16T12:45:07Z</time>
      </trkpt>
      <trkpt lat="45.84997" lon="1.27801">
        <ele>291.1</ele>
        <time>2025-06-16T12:45:08Z</time>
      </trkpt>
      <trkpt lat="45.84991" lon="1.27799">
        <ele>291</ele>
        <time>2025-06-16T12:45:09Z</time>
      </trkpt>
      <trkpt lat="45.84987" lon="1.27798">
        <ele>290.8</ele>
        <time>2025-06-16T12:45:10Z</time>
      </trkpt>
      <trkpt lat="45.84983" lon="1.27796">
        <ele>290.7</ele>
        <time>2025-06-16T12:45:11Z</time>
      </trkpt>
      <trkpt lat="45.84978" lon="1.27793">
        <ele>290.6</ele>
        <time>2025-06-16T12:45:12Z</time>
      </trkpt>
      <trkpt lat="45.84973" lon="1.27791">
        <ele>290.5</ele>
        <time>2025-06-16T12:45:13Z</time>
      </trkpt>
      <trkpt lat="45.84968" lon="1.27789">
        <ele>290.3</ele>
        <time>2025-06-16T12:45:14Z</time>
      </trkpt>
      <trkpt lat="45.84963" lon="1.27788">
        <ele>290.2</ele>
        <time>2025-06-16T12:45:15Z</time>
      </trkpt>
      <trkpt lat="45.84958" lon="1.27788">
        <ele>290.1</ele>
        <time>2025-06-16T12:45:16Z</time>
      </trkpt>
      <trkpt lat="45.84953" lon="1.27789">
        <ele>290</ele>
        <time>2025-06-16T12:45:17Z</time>
      </trkpt>
      <trkpt lat="45.84948" lon="1.2779">
        <ele>289.9</ele>
        <time>2025-06-16T12:45:18Z</time>
      </trkpt>
      <trkpt lat="45.84943" lon="1.27791">
        <ele>289.8</ele>
        <time>2025-06-16T12:45:19Z</time>
      </trkpt>
      <trkpt lat="45.84938" lon="1.27794">
        <ele>289.7</ele>
        <time>2025-06-16T12:45:20Z</time>
      </trkpt>
      <trkpt lat="45.84934" lon="1.27798">
        <ele>289.6</ele>
        <time>2025-06-16T12:45:21Z</time>
      </trkpt>
      <trkpt lat="45.84929" lon="1.27802">
        <ele>289.5</ele>
        <time>2025-06-16T12:45:22Z</time>
      </trkpt>
      <trkpt lat="45.84924" lon="1.27804">
        <ele>289.4</ele>
        <time>2025-06-16T12:45:23Z</time>
      </trkpt>
      <trkpt lat="45.8492" lon="1.27807">
        <ele>289.2</ele>
        <time>2025-06-16T12:45:24Z</time>
      </trkpt>
      <trkpt lat="45.84915" lon="1.2781">
        <ele>289</ele>
        <time>2025-06-16T12:45:25Z</time>
      </trkpt>
      <trkpt lat="45.84912" lon="1.27813">
        <ele>288.9</ele>
        <time>2025-06-16T12:45:26Z</time>
      </trkpt>
      <trkpt lat="45.84909" lon="1.27819">
        <ele>288.6</ele>
        <time>2025-06-16T12:45:27Z</time>
      </trkpt>
      <trkpt lat="45.84905" lon="1.27825">
        <ele>288.3</ele>
        <time>2025-06-16T12:45:28Z</time>
      </trkpt>
      <trkpt lat="45.84901" lon="1.27832">
        <ele>287.9</ele>
        <time>2025-06-16T12:45:29Z</time>
      </trkpt>
      <trkpt lat="45.84897" lon="1.27839">
        <ele>287.5</ele>
        <time>2025-06-16T12:45:30Z</time>
      </trkpt>
      <trkpt lat="45.84895" lon="1.27844">
        <ele>287.1</ele>
        <time>2025-06-16T12:45:31Z</time>
      </trkpt>
      <trkpt lat="45.84891" lon="1.27849">
        <ele>286.7</ele>
        <time>2025-06-16T12:45:32Z</time>
      </trkpt>
      <trkpt lat="45.84887" lon="1.27856">
        <ele>286.2</ele>
        <time>2025-06-16T12:45:33Z</time>
      </trkpt>
      <trkpt lat="45.84883" lon="1.27862">
        <ele>285.7</ele>
        <time>2025-06-16T12:45:34Z</time>
      </trkpt>
      <trkpt lat="45.84879" lon="1.27867">
        <ele>285.3</ele>
        <time>2025-06-16T12:45:35Z</time>
      </trkpt>
      <trkpt lat="45.84875" lon="1.27872">
        <ele>284.7</ele>
        <time>2025-06-16T12:45:36Z</time>
      </trkpt>
      <trkpt lat="45.84873" lon="1.27876">
        <ele>284.4</ele>
        <time>2025-06-16T12:45:37Z</time>
      </trkpt>
      <trkpt lat="45.84868" lon="1.27877">
        <ele>283.7</ele>
        <time>2025-06-16T12:45:38Z</time>
      </trkpt>
      <trkpt lat="45.84863" lon="1.27878">
        <ele>283.1</ele>
        <time>2025-06-16T12:45:39Z</time>
      </trkpt>
      <trkpt lat="45.84858" lon="1.27878">
        <ele>282.5</ele>
        <time>2025-06-16T12:45:40Z</time>
      </trkpt>
      <trkpt lat="45.84853" lon="1.27879">
        <ele>282</ele>
        <time>2025-06-16T12:45:41Z</time>
      </trkpt>
      <trkpt lat="45.84847" lon="1.27882">
        <ele>281.4</ele>
        <time>2025-06-16T12:45:42Z</time>
      </trkpt>
      <trkpt lat="45.84842" lon="1.27885">
        <ele>280.9</ele>
        <time>2025-06-16T12:45:43Z</time>
      </trkpt>
      <trkpt lat="45.84838" lon="1.2789">
        <ele>280.6</ele>
        <time>2025-06-16T12:45:44Z</time>
      </trkpt>
      <trkpt lat="45.84834" lon="1.27897">
        <ele>280.3</ele>
        <time>2025-06-16T12:45:45Z</time>
      </trkpt>
      <trkpt lat="45.84831" lon="1.27903">
        <ele>280.3</ele>
        <time>2025-06-16T12:45:46Z</time>
      </trkpt>
      <trkpt lat="45.8483" lon="1.27911">
        <ele>280.3</ele>
        <time>2025-06-16T12:45:47Z</time>
      </trkpt>
      <trkpt lat="45.84828" lon="1.27918">
        <ele>280.3</ele>
        <time>2025-06-16T12:45:48Z</time>
      </trkpt>
      <trkpt lat="45.84827" lon="1.27923">
        <ele>280.3</ele>
        <time>2025-06-16T12:45:49Z</time>
      </trkpt>
      <trkpt lat="45.84825" lon="1.27929">
        <ele>280.3</ele>
        <time>2025-06-16T12:45:50Z</time>
      </trkpt>
      <trkpt lat="45.84822" lon="1.27935">
        <ele>280.3</ele>
        <time>2025-06-16T12:45:51Z</time>
      </trkpt>
      <trkpt lat="45.8482" lon="1.27941">
        <ele>280.3</ele>
        <time>2025-06-16T12:45:52Z</time>
      </trkpt>
      <trkpt lat="45.84818" lon="1.27946">
        <ele>280.3</ele>
        <time>2025-06-16T12:45:53Z</time>
      </trkpt>
      <trkpt lat="45.84815" lon="1.27951">
        <ele>280.3</ele>
        <time>2025-06-16T12:45:54Z</time>
      </trkpt>
      <trkpt lat="45.84814" lon="1.27956">
        <ele>280.3</ele>
        <time>2025-06-16T12:45:55Z</time>
      </trkpt>
      <trkpt lat="45.84812" lon="1.2796">
        <ele>280.3</ele>
        <time>2025-06-16T12:45:56Z</time>
      </trkpt>
      <trkpt lat="45.8481" lon="1.27964">
        <ele>280.3</ele>
        <time>2025-06-16T12:45:57Z</time>
      </trkpt>
      <trkpt lat="45.84808" lon="1.27969">
        <ele>280.3</ele>
        <time>2025-06-16T12:45:58Z</time>
      </trkpt>
      <trkpt lat="45.84806" lon="1.27974">
        <ele>280.4</ele>
        <time>2025-06-16T12:45:59Z</time>
      </trkpt>
      <trkpt lat="45.84804" lon="1.27979">
        <ele>280.4</ele>
        <time>2025-06-16T12:46:00Z</time>
      </trkpt>
      <trkpt lat="45.84801" lon="1.27985">
        <ele>280.4</ele>
        <time>2025-06-16T12:46:01Z</time>
      </trkpt>
      <trkpt lat="45.84799" lon="1.27989">
        <ele>280.4</ele>
        <time>2025-06-16T12:46:02Z</time>
      </trkpt>
      <trkpt lat="45.84797" lon="1.27994">
        <ele>280.4</ele>
        <time>2025-06-16T12:46:03Z</time>
      </trkpt>
      <trkpt lat="45.84795" lon="1.27999">
        <ele>280.5</ele>
        <time>2025-06-16T12:46:04Z</time>
      </trkpt>
      <trkpt lat="45.84793" lon="1.28004">
        <ele>280.5</ele>
        <time>2025-06-16T12:46:05Z</time>
      </trkpt>
      <trkpt lat="45.84791" lon="1.28008">
        <ele>280.5</ele>
        <time>2025-06-16T12:46:06Z</time>
      </trkpt>
      <trkpt lat="45.8479" lon="1.28013">
        <ele>280.4</ele>
        <time>2025-06-16T12:46:07Z</time>
      </trkpt>
      <trkpt lat="45.84788" lon="1.28016">
        <ele>280.4</ele>
        <time>2025-06-16T12:46:08Z</time>
      </trkpt>
      <trkpt lat="45.84787" lon="1.2802">
        <ele>280.4</ele>
        <time>2025-06-16T12:46:09Z</time>
      </trkpt>
      <trkpt lat="45.84785" lon="1.28026">
        <ele>280.5</ele>
        <time>2025-06-16T12:46:10Z</time>
      </trkpt>
      <trkpt lat="45.84785" lon="1.28028">
        <ele>280.5</ele>
        <time>2025-06-16T12:46:11Z</time>
      </trkpt>
      <trkpt lat="45.84783" lon="1.28033">
        <ele>280.5</ele>
        <time>2025-06-16T12:46:12Z</time>
      </trkpt>
      <trkpt lat="45.84781" lon="1.28037">
        <ele>280.5</ele>
        <time>2025-06-16T12:46:13Z</time>
      </trkpt>
      <trkpt lat="45.8478" lon="1.28041">
        <ele>280.5</ele>
        <time>2025-06-16T12:46:14Z</time>
      </trkpt>
      <trkpt lat="45.84779" lon="1.28045">
        <ele>280.6</ele>
        <time>2025-06-16T12:46:15Z</time>
      </trkpt>
      <trkpt lat="45.84778" lon="1.2805">
        <ele>280.6</ele>
        <time>2025-06-16T12:46:16Z</time>
      </trkpt>
      <trkpt lat="45.84776" lon="1.28054">
        <ele>280.6</ele>
        <time>2025-06-16T12:46:17Z</time>
      </trkpt>
      <trkpt lat="45.84774" lon="1.28058">
        <ele>280.6</ele>
        <time>2025-06-16T12:46:18Z</time>
      </trkpt>
      <trkpt lat="45.84773" lon="1.28062">
        <ele>280.6</ele>
        <time>2025-06-16T12:46:19Z</time>
      </trkpt>
      <trkpt lat="45.84772" lon="1.28064">
        <ele>280.6</ele>
        <time>2025-06-16T12:46:20Z</time>
      </trkpt>
      <trkpt lat="45.84771" lon="1.28066">
        <ele>280.5</ele>
        <time>2025-06-16T12:46:21Z</time>
      </trkpt>
      <trkpt lat="45.84771" lon="1.28067">
        <ele>280.5</ele>
        <time>2025-06-16T12:46:22Z</time>
      </trkpt>
      <trkpt lat="45.8477" lon="1.28067">
        <ele>280.5</ele>
        <time>2025-06-16T12:46:23Z</time>
      </trkpt>
      <trkpt lat="45.8477" lon="1.28067">
        <ele>280.5</ele>
        <time>2025-06-16T12:46:24Z</time>
      </trkpt>
      <trkpt lat="45.8477" lon="1.28067">
        <ele>280.5</ele>
        <time>2025-06-16T12:46:25Z</time>
      </trkpt>
      <trkpt lat="45.84771" lon="1.28068">
        <ele>280.5</ele>
        <time>2025-06-16T12:46:26Z</time>
      </trkpt>
      <trkpt lat="45.84771" lon="1.28068">
        <ele>280.5</ele>
        <time>2025-06-16T12:46:27Z</time>
      </trkpt>
      <trkpt lat="45.84771" lon="1.28068">
        <ele>280.5</ele>
        <time>2025-06-16T12:46:28Z</time>
      </trkpt>
      <trkpt lat="45.84771" lon="1.28068">
        <ele>280.5</ele>
        <time>2025-06-16T12:46:29Z</time>
      </trkpt>
      <trkpt lat="45.84771" lon="1.28068">
        <ele>280.5</ele>
        <time>2025-06-16T12:46:30Z</time>
      </trkpt>
      <trkpt lat="45.84771" lon="1.28068">
        <ele>280.5</ele>
        <time>2025-06-16T12:46:31Z</time>
      </trkpt>
      <trkpt lat="45.84771" lon="1.28068">
        <ele>280.5</ele>
        <time>2025-06-16T12:46:32Z</time>
      </trkpt>
      <trkpt lat="45.84771" lon="1.28068">
        <ele>280.5</ele>
        <time>2025-06-16T12:46:33Z</time>
      </trkpt>
      <trkpt lat="45.84771" lon="1.28068">
        <ele>280.5</ele>
        <time>2025-06-16T12:46:34Z</time>
      </trkpt>
      <trkpt lat="45.84771" lon="1.28068">
        <ele>280.5</ele>
        <time>2025-06-16T12:46:35Z</time>
      </trkpt>
      <trkpt lat="45.84771" lon="1.28068">
        <ele>280.5</ele>
        <time>2025-06-16T12:46:36Z</time>
      </trkpt>
      <trkpt lat="45.84771" lon="1.28068">
        <ele>280.5</ele>
        <time>2025-06-16T12:46:37Z</time>
      </trkpt>
      <trkpt lat="45.84771" lon="1.28068">
        <ele>280.5</ele>
        <time>2025-06-16T12:46:38Z</time>
      </trkpt>
      <trkpt lat="45.84771" lon="1.28068">
        <ele>280.5</ele>
        <time>2025-06-16T12:46:39Z</time>
      </trkpt>
      <trkpt lat="45.8477" lon="1.28068">
        <ele>280.5</ele>
        <time>2025-06-16T12:46:40Z</time>
      </trkpt>
      <trkpt lat="45.8477" lon="1.28068">
        <ele>280.5</ele>
        <time>2025-06-16T12:46:41Z</time>
      </trkpt>
      <trkpt lat="45.84769" lon="1.28068">
        <ele>280.5</ele>
        <time>2025-06-16T12:46:42Z</time>
      </trkpt>
      <trkpt lat="45.84767" lon="1.2807">
        <ele>280.4</ele>
        <time>2025-06-16T12:46:43Z</time>
      </trkpt>
      <trkpt lat="45.84766" lon="1.2807">
        <ele>280.4</ele>
        <time>2025-06-16T12:46:44Z</time>
      </trkpt>
      <trkpt lat="45.84763" lon="1.2807">
        <ele>280.3</ele>
        <time>2025-06-16T12:46:45Z</time>
      </trkpt>
      <trkpt lat="45.84759" lon="1.28071">
        <ele>280.2</ele>
        <time>2025-06-16T12:46:46Z</time>
      </trkpt>
      <trkpt lat="45.84756" lon="1.28073">
        <ele>280.2</ele>
        <time>2025-06-16T12:46:47Z</time>
      </trkpt>
      <trkpt lat="45.84754" lon="1.28077">
        <ele>280.3</ele>
        <time>2025-06-16T12:46:48Z</time>
      </trkpt>
      <trkpt lat="45.84751" lon="1.28083">
        <ele>280.3</ele>
        <time>2025-06-16T12:46:49Z</time>
      </trkpt>
      <trkpt lat="45.8475" lon="1.28088">
        <ele>280.3</ele>
        <time>2025-06-16T12:46:50Z</time>
      </trkpt>
      <trkpt lat="45.84748" lon="1.28094">
        <ele>280.3</ele>
        <time>2025-06-16T12:46:51Z</time>
      </trkpt>
      <trkpt lat="45.84746" lon="1.281">
        <ele>280.3</ele>
        <time>2025-06-16T12:46:52Z</time>
      </trkpt>
      <trkpt lat="45.84744" lon="1.28106">
        <ele>280.3</ele>
        <time>2025-06-16T12:46:53Z</time>
      </trkpt>
      <trkpt lat="45.84741" lon="1.28112">
        <ele>280.3</ele>
        <time>2025-06-16T12:46:54Z</time>
      </trkpt>
      <trkpt lat="45.84739" lon="1.28118">
        <ele>280.3</ele>
        <time>2025-06-16T12:46:55Z</time>
      </trkpt>
      <trkpt lat="45.84737" lon="1.28124">
        <ele>280.3</ele>
        <time>2025-06-16T12:46:56Z</time>
      </trkpt>
      <trkpt lat="45.84735" lon="1.28131">
        <ele>280.4</ele>
        <time>2025-06-16T12:46:57Z</time>
      </trkpt>
      <trkpt lat="45.84733" lon="1.28137">
        <ele>280.4</ele>
        <time>2025-06-16T12:46:58Z</time>
      </trkpt>
      <trkpt lat="45.84731" lon="1.28143">
        <ele>280.4</ele>
        <time>2025-06-16T12:46:59Z</time>
      </trkpt>
      <trkpt lat="45.84729" lon="1.28149">
        <ele>280.5</ele>
        <time>2025-06-16T12:47:00Z</time>
      </trkpt>
      <trkpt lat="45.84728" lon="1.28155">
        <ele>280.5</ele>
        <time>2025-06-16T12:47:01Z</time>
      </trkpt>
      <trkpt lat="45.84726" lon="1.28161">
        <ele>280.5</ele>
        <time>2025-06-16T12:47:02Z</time>
      </trkpt>
      <trkpt lat="45.84725" lon="1.28167">
        <ele>280.5</ele>
        <time>2025-06-16T12:47:03Z</time>
      </trkpt>
      <trkpt lat="45.84724" lon="1.28173">
        <ele>280.5</ele>
        <time>2025-06-16T12:47:04Z</time>
      </trkpt>
      <trkpt lat="45.84722" lon="1.2818">
        <ele>280.4</ele>
        <time>2025-06-16T12:47:05Z</time>
      </trkpt>
      <trkpt lat="45.84721" lon="1.28186">
        <ele>280.3</ele>
        <time>2025-06-16T12:47:06Z</time>
      </trkpt>
      <trkpt lat="45.84719" lon="1.28192">
        <ele>280.2</ele>
        <time>2025-06-16T12:47:07Z</time>
      </trkpt>
      <trkpt lat="45.84717" lon="1.28198">
        <ele>280.1</ele>
        <time>2025-06-16T12:47:08Z</time>
      </trkpt>
      <trkpt lat="45.84715" lon="1.28203">
        <ele>279.9</ele>
        <time>2025-06-16T12:47:09Z</time>
      </trkpt>
      <trkpt lat="45.84713" lon="1.28209">
        <ele>279.7</ele>
        <time>2025-06-16T12:47:10Z</time>
      </trkpt>
      <trkpt lat="45.84711" lon="1.28215">
        <ele>279.5</ele>
        <time>2025-06-16T12:47:11Z</time>
      </trkpt>
      <trkpt lat="45.84709" lon="1.28221">
        <ele>279.3</ele>
        <time>2025-06-16T12:47:12Z</time>
      </trkpt>
      <trkpt lat="45.84707" lon="1.28227">
        <ele>279.1</ele>
        <time>2025-06-16T12:47:13Z</time>
      </trkpt>
      <trkpt lat="45.84705" lon="1.28234">
        <ele>278.8</ele>
        <time>2025-06-16T12:47:14Z</time>
      </trkpt>
      <trkpt lat="45.84703" lon="1.2824">
        <ele>278.5</ele>
        <time>2025-06-16T12:47:15Z</time>
      </trkpt>
      <trkpt lat="45.847" lon="1.28246">
        <ele>278.2</ele>
        <time>2025-06-16T12:47:16Z</time>
      </trkpt>
      <trkpt lat="45.84699" lon="1.28252">
        <ele>277.8</ele>
        <time>2025-06-16T12:47:17Z</time>
      </trkpt>
      <trkpt lat="45.84699" lon="1.28259">
        <ele>277.5</ele>
        <time>2025-06-16T12:47:18Z</time>
      </trkpt>
      <trkpt lat="45.84697" lon="1.28266">
        <ele>277.1</ele>
        <time>2025-06-16T12:47:19Z</time>
      </trkpt>
      <trkpt lat="45.84695" lon="1.28273">
        <ele>276.7</ele>
        <time>2025-06-16T12:47:20Z</time>
      </trkpt>
      <trkpt lat="45.84693" lon="1.28281">
        <ele>276.3</ele>
        <time>2025-06-16T12:47:21Z</time>
      </trkpt>
      <trkpt lat="45.84691" lon="1.28289">
        <ele>275.9</ele>
        <time>2025-06-16T12:47:22Z</time>
      </trkpt>
      <trkpt lat="45.84688" lon="1.28298">
        <ele>275.4</ele>
        <time>2025-06-16T12:47:23Z</time>
      </trkpt>
      <trkpt lat="45.84686" lon="1.28303">
        <ele>275.2</ele>
        <time>2025-06-16T12:47:24Z</time>
      </trkpt>
      <trkpt lat="45.84683" lon="1.28304">
        <ele>275</ele>
        <time>2025-06-16T12:47:25Z</time>
      </trkpt>
      <trkpt lat="45.8468" lon="1.28308">
        <ele>274.7</ele>
        <time>2025-06-16T12:47:26Z</time>
      </trkpt>
      <trkpt lat="45.84679" lon="1.28309">
        <ele>274.6</ele>
        <time>2025-06-16T12:47:27Z</time>
      </trkpt>
      <trkpt lat="45.84677" lon="1.28313">
        <ele>274.4</ele>
        <time>2025-06-16T12:47:28Z</time>
      </trkpt>
      <trkpt lat="45.84676" lon="1.28317">
        <ele>274.2</ele>
        <time>2025-06-16T12:47:29Z</time>
      </trkpt>
      <trkpt lat="45.84676" lon="1.28322">
        <ele>274.1</ele>
        <time>2025-06-16T12:47:30Z</time>
      </trkpt>
      <trkpt lat="45.84676" lon="1.28326">
        <ele>273.9</ele>
        <time>2025-06-16T12:47:31Z</time>
      </trkpt>
      <trkpt lat="45.84676" lon="1.28331">
        <ele>273.8</ele>
        <time>2025-06-16T12:47:32Z</time>
      </trkpt>
      <trkpt lat="45.84676" lon="1.28336">
        <ele>273.6</ele>
        <time>2025-06-16T12:47:33Z</time>
      </trkpt>
      <trkpt lat="45.84677" lon="1.2834">
        <ele>273.5</ele>
        <time>2025-06-16T12:47:34Z</time>
      </trkpt>
      <trkpt lat="45.84677" lon="1.28344">
        <ele>273.4</ele>
        <time>2025-06-16T12:47:35Z</time>
      </trkpt>
      <trkpt lat="45.84678" lon="1.28346">
        <ele>273.3</ele>
        <time>2025-06-16T12:47:36Z</time>
      </trkpt>
      <trkpt lat="45.84678" lon="1.28349">
        <ele>273.2</ele>
        <time>2025-06-16T12:47:37Z</time>
      </trkpt>
      <trkpt lat="45.84679" lon="1.28351">
        <ele>273.1</ele>
        <time>2025-06-16T12:47:38Z</time>
      </trkpt>
      <trkpt lat="45.84678" lon="1.28355">
        <ele>273</ele>
        <time>2025-06-16T12:47:39Z</time>
      </trkpt>
      <trkpt lat="45.84678" lon="1.28357">
        <ele>273</ele>
        <time>2025-06-16T12:47:40Z</time>
      </trkpt>
      <trkpt lat="45.84679" lon="1.28361">
        <ele>272.8</ele>
        <time>2025-06-16T12:47:41Z</time>
      </trkpt>
      <trkpt lat="45.8468" lon="1.28362">
        <ele>272.7</ele>
        <time>2025-06-16T12:47:42Z</time>
      </trkpt>
      <trkpt lat="45.84683" lon="1.28363">
        <ele>272.5</ele>
        <time>2025-06-16T12:47:43Z</time>
      </trkpt>
      <trkpt lat="45.84684" lon="1.28363">
        <ele>272.4</ele>
        <time>2025-06-16T12:47:44Z</time>
      </trkpt>
      <trkpt lat="45.84685" lon="1.28358">
        <ele>272.7</ele>
        <time>2025-06-16T12:47:45Z</time>
      </trkpt>
      <trkpt lat="45.84684" lon="1.28356">
        <ele>272.9</ele>
        <time>2025-06-16T12:47:46Z</time>
      </trkpt>
      <trkpt lat="45.84683" lon="1.28352">
        <ele>273.1</ele>
        <time>2025-06-16T12:47:47Z</time>
      </trkpt>
      <trkpt lat="45.84681" lon="1.28347">
        <ele>273.3</ele>
        <time>2025-06-16T12:47:48Z</time>
      </trkpt>
      <trkpt lat="45.84681" lon="1.28342">
        <ele>273.4</ele>
        <time>2025-06-16T12:47:49Z</time>
      </trkpt>
      <trkpt lat="45.8468" lon="1.28337">
        <ele>273.6</ele>
        <time>2025-06-16T12:47:50Z</time>
      </trkpt>
      <trkpt lat="45.84679" lon="1.28333">
        <ele>273.8</ele>
        <time>2025-06-16T12:47:51Z</time>
      </trkpt>
      <trkpt lat="45.84678" lon="1.28328">
        <ele>273.9</ele>
        <time>2025-06-16T12:47:52Z</time>
      </trkpt>
      <trkpt lat="45.84677" lon="1.28323">
        <ele>274.1</ele>
        <time>2025-06-16T12:47:53Z</time>
      </trkpt>
      <trkpt lat="45.84676" lon="1.28319">
        <ele>274</ele>
        <time>2025-06-16T12:47:54Z</time>
      </trkpt>
      <trkpt lat="45.84674" lon="1.28315">
        <ele>274</ele>
        <time>2025-06-16T12:47:55Z</time>
      </trkpt>
      <trkpt lat="45.84673" lon="1.2831">
        <ele>273.9</ele>
        <time>2025-06-16T12:47:56Z</time>
      </trkpt>
      <trkpt lat="45.84672" lon="1.28305">
        <ele>273.9</ele>
        <time>2025-06-16T12:47:57Z</time>
      </trkpt>
      <trkpt lat="45.84668" lon="1.28294">
        <ele>273.7</ele>
        <time>2025-06-16T12:47:58Z</time>
      </trkpt>
      <trkpt lat="45.84665" lon="1.28289">
        <ele>273.6</ele>
        <time>2025-06-16T12:48:00Z</time>
      </trkpt>
      <trkpt lat="45.84663" lon="1.28283">
        <ele>273.5</ele>
        <time>2025-06-16T12:48:01Z</time>
      </trkpt>
      <trkpt lat="45.8466" lon="1.28276">
        <ele>273.4</ele>
        <time>2025-06-16T12:48:02Z</time>
      </trkpt>
      <trkpt lat="45.84657" lon="1.28269">
        <ele>273.2</ele>
        <time>2025-06-16T12:48:03Z</time>
      </trkpt>
      <trkpt lat="45.84654" lon="1.28262">
        <ele>273.1</ele>
        <time>2025-06-16T12:48:04Z</time>
      </trkpt>
      <trkpt lat="45.84651" lon="1.28254">
        <ele>272.9</ele>
        <time>2025-06-16T12:48:05Z</time>
      </trkpt>
      <trkpt lat="45.84648" lon="1.28246">
        <ele>272.6</ele>
        <time>2025-06-16T12:48:06Z</time>
      </trkpt>
      <trkpt lat="45.84646" lon="1.28238">
        <ele>272.3</ele>
        <time>2025-06-16T12:48:07Z</time>
      </trkpt>
      <trkpt lat="45.84642" lon="1.2823">
        <ele>272.1</ele>
        <time>2025-06-16T12:48:08Z</time>
      </trkpt>
      <trkpt lat="45.84639" lon="1.28221">
        <ele>271.8</ele>
        <time>2025-06-16T12:48:09Z</time>
      </trkpt>
      <trkpt lat="45.84636" lon="1.28213">
        <ele>271.6</ele>
        <time>2025-06-16T12:48:10Z</time>
      </trkpt>
      <trkpt lat="45.84633" lon="1.28205">
        <ele>271.3</ele>
        <time>2025-06-16T12:48:11Z</time>
      </trkpt>
      <trkpt lat="45.8463" lon="1.28197">
        <ele>271.1</ele>
        <time>2025-06-16T12:48:12Z</time>
      </trkpt>
      <trkpt lat="45.84627" lon="1.28188">
        <ele>270.8</ele>
        <time>2025-06-16T12:48:13Z</time>
      </trkpt>
      <trkpt lat="45.84623" lon="1.2818">
        <ele>270.5</ele>
        <time>2025-06-16T12:48:14Z</time>
      </trkpt>
      <trkpt lat="45.84619" lon="1.28173">
        <ele>270.3</ele>
        <time>2025-06-16T12:48:15Z</time>
      </trkpt>
      <trkpt lat="45.84613" lon="1.28168">
        <ele>270.1</ele>
        <time>2025-06-16T12:48:16Z</time>
      </trkpt>
      <trkpt lat="45.84608" lon="1.28166">
        <ele>269.9</ele>
        <time>2025-06-16T12:48:17Z</time>
      </trkpt>
      <trkpt lat="45.84601" lon="1.28164">
        <ele>269.7</ele>
        <time>2025-06-16T12:48:18Z</time>
      </trkpt>
      <trkpt lat="45.84594" lon="1.28161">
        <ele>269.4</ele>
        <time>2025-06-16T12:48:19Z</time>
      </trkpt>
      <trkpt lat="45.84586" lon="1.2816">
        <ele>269.1</ele>
        <time>2025-06-16T12:48:20Z</time>
      </trkpt>
      <trkpt lat="45.84579" lon="1.2816">
        <ele>268.7</ele>
        <time>2025-06-16T12:48:21Z</time>
      </trkpt>
      <trkpt lat="45.84571" lon="1.28159">
        <ele>268.3</ele>
        <time>2025-06-16T12:48:22Z</time>
      </trkpt>
      <trkpt lat="45.84564" lon="1.28157">
        <ele>268</ele>
        <time>2025-06-16T12:48:23Z</time>
      </trkpt>
      <trkpt lat="45.84556" lon="1.28156">
        <ele>267.7</ele>
        <time>2025-06-16T12:48:24Z</time>
      </trkpt>
      <trkpt lat="45.84549" lon="1.28154">
        <ele>267.3</ele>
        <time>2025-06-16T12:48:25Z</time>
      </trkpt>
      <trkpt lat="45.84541" lon="1.28152">
        <ele>267</ele>
        <time>2025-06-16T12:48:26Z</time>
      </trkpt>
      <trkpt lat="45.84533" lon="1.28148">
        <ele>266.6</ele>
        <time>2025-06-16T12:48:27Z</time>
      </trkpt>
      <trkpt lat="45.84526" lon="1.28146">
        <ele>266.3</ele>
        <time>2025-06-16T12:48:28Z</time>
      </trkpt>
      <trkpt lat="45.84518" lon="1.28143">
        <ele>266</ele>
        <time>2025-06-16T12:48:29Z</time>
      </trkpt>
      <trkpt lat="45.84511" lon="1.28138">
        <ele>265.8</ele>
        <time>2025-06-16T12:48:30Z</time>
      </trkpt>
      <trkpt lat="45.84505" lon="1.28131">
        <ele>265.5</ele>
        <time>2025-06-16T12:48:31Z</time>
      </trkpt>
      <trkpt lat="45.84501" lon="1.28121">
        <ele>265.2</ele>
        <time>2025-06-16T12:48:32Z</time>
      </trkpt>
      <trkpt lat="45.84497" lon="1.28113">
        <ele>265</ele>
        <time>2025-06-16T12:48:33Z</time>
      </trkpt>
      <trkpt lat="45.84492" lon="1.28104">
        <ele>264.7</ele>
        <time>2025-06-16T12:48:34Z</time>
      </trkpt>
      <trkpt lat="45.84487" lon="1.28096">
        <ele>264.3</ele>
        <time>2025-06-16T12:48:35Z</time>
      </trkpt>
      <trkpt lat="45.84482" lon="1.28088">
        <ele>264</ele>
        <time>2025-06-16T12:48:36Z</time>
      </trkpt>
      <trkpt lat="45.84476" lon="1.2808">
        <ele>263.6</ele>
        <time>2025-06-16T12:48:37Z</time>
      </trkpt>
      <trkpt lat="45.84471" lon="1.28071">
        <ele>263.1</ele>
        <time>2025-06-16T12:48:38Z</time>
      </trkpt>
      <trkpt lat="45.84465" lon="1.28061">
        <ele>262.6</ele>
        <time>2025-06-16T12:48:39Z</time>
      </trkpt>
      <trkpt lat="45.8446" lon="1.28053">
        <ele>262.2</ele>
        <time>2025-06-16T12:48:40Z</time>
      </trkpt>
      <trkpt lat="45.84455" lon="1.28044">
        <ele>261.9</ele>
        <time>2025-06-16T12:48:41Z</time>
      </trkpt>
      <trkpt lat="45.84451" lon="1.28036">
        <ele>261.5</ele>
        <time>2025-06-16T12:48:42Z</time>
      </trkpt>
      <trkpt lat="45.84446" lon="1.28027">
        <ele>261.2</ele>
        <time>2025-06-16T12:48:43Z</time>
      </trkpt>
      <trkpt lat="45.84441" lon="1.28018">
        <ele>260.7</ele>
        <time>2025-06-16T12:48:44Z</time>
      </trkpt>
      <trkpt lat="45.84437" lon="1.28008">
        <ele>260.1</ele>
        <time>2025-06-16T12:48:45Z</time>
      </trkpt>
      <trkpt lat="45.84433" lon="1.27996">
        <ele>259.4</ele>
        <time>2025-06-16T12:48:46Z</time>
      </trkpt>
      <trkpt lat="45.8443" lon="1.27985">
        <ele>258.7</ele>
        <time>2025-06-16T12:48:47Z</time>
      </trkpt>
      <trkpt lat="45.84426" lon="1.27972">
        <ele>258</ele>
        <time>2025-06-16T12:48:48Z</time>
      </trkpt>
      <trkpt lat="45.84424" lon="1.2796">
        <ele>257.3</ele>
        <time>2025-06-16T12:48:49Z</time>
      </trkpt>
      <trkpt lat="45.84421" lon="1.27947">
        <ele>256.8</ele>
        <time>2025-06-16T12:48:50Z</time>
      </trkpt>
      <trkpt lat="45.84419" lon="1.27936">
        <ele>256.7</ele>
        <time>2025-06-16T12:48:51Z</time>
      </trkpt>
      <trkpt lat="45.84417" lon="1.27925">
        <ele>256.5</ele>
        <time>2025-06-16T12:48:52Z</time>
      </trkpt>
      <trkpt lat="45.84415" lon="1.27913">
        <ele>256.2</ele>
        <time>2025-06-16T12:48:53Z</time>
      </trkpt>
      <trkpt lat="45.84412" lon="1.27903">
        <ele>255.9</ele>
        <time>2025-06-16T12:48:54Z</time>
      </trkpt>
      <trkpt lat="45.8441" lon="1.27894">
        <ele>255.6</ele>
        <time>2025-06-16T12:48:55Z</time>
      </trkpt>
      <trkpt lat="45.84409" lon="1.27887">
        <ele>255.4</ele>
        <time>2025-06-16T12:48:56Z</time>
      </trkpt>
      <trkpt lat="45.84407" lon="1.27879">
        <ele>255.2</ele>
        <time>2025-06-16T12:48:57Z</time>
      </trkpt>
      <trkpt lat="45.84405" lon="1.27875">
        <ele>255.1</ele>
        <time>2025-06-16T12:48:58Z</time>
      </trkpt>
      <trkpt lat="45.84405" lon="1.27872">
        <ele>255</ele>
        <time>2025-06-16T12:48:59Z</time>
      </trkpt>
      <trkpt lat="45.84406" lon="1.27871">
        <ele>255</ele>
        <time>2025-06-16T12:49:00Z</time>
      </trkpt>
      <trkpt lat="45.84406" lon="1.2787">
        <ele>254.9</ele>
        <time>2025-06-16T12:49:01Z</time>
      </trkpt>
      <trkpt lat="45.84405" lon="1.27868">
        <ele>254.9</ele>
        <time>2025-06-16T12:49:02Z</time>
      </trkpt>
      <trkpt lat="45.84405" lon="1.27867">
        <ele>254.8</ele>
        <time>2025-06-16T12:49:03Z</time>
      </trkpt>
      <trkpt lat="45.84403" lon="1.27867">
        <ele>254.8</ele>
        <time>2025-06-16T12:49:04Z</time>
      </trkpt>
      <trkpt lat="45.84402" lon="1.27868">
        <ele>254.8</ele>
        <time>2025-06-16T12:49:05Z</time>
      </trkpt>
      <trkpt lat="45.84402" lon="1.27868">
        <ele>254.8</ele>
        <time>2025-06-16T12:49:06Z</time>
      </trkpt>
      <trkpt lat="45.84402" lon="1.27869">
        <ele>254.8</ele>
        <time>2025-06-16T12:49:07Z</time>
      </trkpt>
      <trkpt lat="45.84403" lon="1.27869">
        <ele>254.8</ele>
        <time>2025-06-16T12:49:08Z</time>
      </trkpt>
      <trkpt lat="45.84403" lon="1.27869">
        <ele>254.8</ele>
        <time>2025-06-16T12:49:09Z</time>
      </trkpt>
      <trkpt lat="45.84403" lon="1.27869">
        <ele>254.8</ele>
        <time>2025-06-16T12:49:10Z</time>
      </trkpt>
      <trkpt lat="45.84403" lon="1.27869">
        <ele>254.8</ele>
        <time>2025-06-16T12:49:11Z</time>
      </trkpt>
      <trkpt lat="45.84403" lon="1.27869">
        <ele>254.8</ele>
        <time>2025-06-16T12:49:12Z</time>
      </trkpt>
      <trkpt lat="45.84403" lon="1.27869">
        <ele>254.8</ele>
        <time>2025-06-16T12:49:13Z</time>
      </trkpt>
      <trkpt lat="45.84403" lon="1.27869">
        <ele>254.8</ele>
        <time>2025-06-16T12:49:14Z</time>
      </trkpt>
      <trkpt lat="45.84403" lon="1.27869">
        <ele>254.8</ele>
        <time>2025-06-16T12:49:15Z</time>
      </trkpt>
      <trkpt lat="45.84403" lon="1.27869">
        <ele>254.8</ele>
        <time>2025-06-16T12:49:16Z</time>
      </trkpt>
      <trkpt lat="45.84403" lon="1.27869">
        <ele>254.8</ele>
        <time>2025-06-16T12:49:17Z</time>
      </trkpt>
      <trkpt lat="45.84403" lon="1.27869">
        <ele>254.8</ele>
        <time>2025-06-16T12:49:18Z</time>
      </trkpt>
      <trkpt lat="45.84403" lon="1.27869">
        <ele>254.8</ele>
        <time>2025-06-16T12:49:19Z</time>
      </trkpt>
      <trkpt lat="45.84403" lon="1.27869">
        <ele>254.8</ele>
        <time>2025-06-16T12:49:20Z</time>
      </trkpt>
      <trkpt lat="45.84403" lon="1.27869">
        <ele>254.8</ele>
        <time>2025-06-16T12:49:21Z</time>
      </trkpt>
      <trkpt lat="45.84403" lon="1.27869">
        <ele>254.8</ele>
        <time>2025-06-16T12:49:22Z</time>
      </trkpt>
      <trkpt lat="45.84403" lon="1.27869">
        <ele>254.7</ele>
        <time>2025-06-16T12:49:23Z</time>
      </trkpt>
      <trkpt lat="45.84403" lon="1.27869">
        <ele>254.7</ele>
        <time>2025-06-16T12:49:24Z</time>
      </trkpt>
      <trkpt lat="45.84403" lon="1.27869">
        <ele>254.7</ele>
        <time>2025-06-16T12:49:25Z</time>
      </trkpt>
      <trkpt lat="45.84403" lon="1.27869">
        <ele>254.7</ele>
        <time>2025-06-16T12:49:26Z</time>
      </trkpt>
      <trkpt lat="45.84403" lon="1.27869">
        <ele>254.7</ele>
        <time>2025-06-16T12:49:27Z</time>
      </trkpt>
      <trkpt lat="45.84403" lon="1.27869">
        <ele>254.7</ele>
        <time>2025-06-16T12:49:28Z</time>
      </trkpt>
      <trkpt lat="45.84403" lon="1.27869">
        <ele>254.7</ele>
        <time>2025-06-16T12:49:29Z</time>
      </trkpt>
      <trkpt lat="45.84403" lon="1.27868">
        <ele>254.7</ele>
        <time>2025-06-16T12:49:30Z</time>
      </trkpt>
      <trkpt lat="45.84403" lon="1.27868">
        <ele>254.7</ele>
        <time>2025-06-16T12:49:31Z</time>
      </trkpt>
      <trkpt lat="45.84403" lon="1.27868">
        <ele>254.7</ele>
        <time>2025-06-16T12:49:32Z</time>
      </trkpt>
      <trkpt lat="45.84404" lon="1.27868">
        <ele>254.7</ele>
        <time>2025-06-16T12:49:33Z</time>
      </trkpt>
      <trkpt lat="45.84403" lon="1.27868">
        <ele>254.7</ele>
        <time>2025-06-16T12:49:34Z</time>
      </trkpt>
      <trkpt lat="45.84403" lon="1.27869">
        <ele>254.7</ele>
        <time>2025-06-16T12:49:35Z</time>
      </trkpt>
      <trkpt lat="45.84404" lon="1.27868">
        <ele>254.7</ele>
        <time>2025-06-16T12:49:36Z</time>
      </trkpt>
      <trkpt lat="45.84403" lon="1.27868">
        <ele>254.7</ele>
        <time>2025-06-16T12:49:37Z</time>
      </trkpt>
      <trkpt lat="45.84401" lon="1.2787">
        <ele>254.7</ele>
        <time>2025-06-16T12:49:38Z</time>
      </trkpt>
      <trkpt lat="45.84398" lon="1.27871">
        <ele>254.6</ele>
        <time>2025-06-16T12:49:39Z</time>
      </trkpt>
      <trkpt lat="45.84395" lon="1.27872">
        <ele>254.6</ele>
        <time>2025-06-16T12:49:40Z</time>
      </trkpt>
      <trkpt lat="45.84394" lon="1.27872">
        <ele>254.6</ele>
        <time>2025-06-16T12:49:41Z</time>
      </trkpt>
      <trkpt lat="45.84375" lon="1.27876">
        <ele>254.3</ele>
        <time>2025-06-16T12:49:42Z</time>
      </trkpt>
      <trkpt lat="45.84358" lon="1.2788">
        <ele>254.1</ele>
        <time>2025-06-16T12:49:46Z</time>
      </trkpt>
      <trkpt lat="45.8434" lon="1.27884">
        <ele>253.7</ele>
        <time>2025-06-16T12:49:51Z</time>
      </trkpt>
      <trkpt lat="45.84323" lon="1.27889">
        <ele>253.4</ele>
        <time>2025-06-16T12:49:54Z</time>
      </trkpt>
      <trkpt lat="45.84323" lon="1.27896">
        <ele>253.4</ele>
        <time>2025-06-16T12:49:55Z</time>
      </trkpt>
      <trkpt lat="45.8432" lon="1.279">
        <ele>253.4</ele>
        <time>2025-06-16T12:49:56Z</time>
      </trkpt>
      <trkpt lat="45.84318" lon="1.27902">
        <ele>253.4</ele>
        <time>2025-06-16T12:49:57Z</time>
      </trkpt>
      <trkpt lat="45.84316" lon="1.27905">
        <ele>253.4</ele>
        <time>2025-06-16T12:49:58Z</time>
      </trkpt>
      <trkpt lat="45.84316" lon="1.27907">
        <ele>253.4</ele>
        <time>2025-06-16T12:49:59Z</time>
      </trkpt>
      <trkpt lat="45.84317" lon="1.27906">
        <ele>253.5</ele>
        <time>2025-06-16T12:50:00Z</time>
      </trkpt>
      <trkpt lat="45.84319" lon="1.27906">
        <ele>253.5</ele>
        <time>2025-06-16T12:50:01Z</time>
      </trkpt>
      <trkpt lat="45.8432" lon="1.27906">
        <ele>253.5</ele>
        <time>2025-06-16T12:50:02Z</time>
      </trkpt>
      <trkpt lat="45.84321" lon="1.27909">
        <ele>253.5</ele>
        <time>2025-06-16T12:50:03Z</time>
      </trkpt>
      <trkpt lat="45.8432" lon="1.27911">
        <ele>253.4</ele>
        <time>2025-06-16T12:50:04Z</time>
      </trkpt>
      <trkpt lat="45.84317" lon="1.27916">
        <ele>253.2</ele>
        <time>2025-06-16T12:50:05Z</time>
      </trkpt>
      <trkpt lat="45.84313" lon="1.2792">
        <ele>253</ele>
        <time>2025-06-16T12:50:06Z</time>
      </trkpt>
      <trkpt lat="45.84309" lon="1.27923">
        <ele>252.8</ele>
        <time>2025-06-16T12:50:07Z</time>
      </trkpt>
      <trkpt lat="45.84302" lon="1.27925">
        <ele>252.5</ele>
        <time>2025-06-16T12:50:08Z</time>
      </trkpt>
      <trkpt lat="45.84298" lon="1.27928">
        <ele>252.3</ele>
        <time>2025-06-16T12:50:09Z</time>
      </trkpt>
      <trkpt lat="45.84292" lon="1.27932">
        <ele>252</ele>
        <time>2025-06-16T12:50:10Z</time>
      </trkpt>
      <trkpt lat="45.84288" lon="1.27935">
        <ele>251.7</ele>
        <time>2025-06-16T12:50:11Z</time>
      </trkpt>
      <trkpt lat="45.84283" lon="1.2794">
        <ele>251.4</ele>
        <time>2025-06-16T12:50:12Z</time>
      </trkpt>
      <trkpt lat="45.84278" lon="1.27943">
        <ele>251.1</ele>
        <time>2025-06-16T12:50:13Z</time>
      </trkpt>
      <trkpt lat="45.84273" lon="1.27946">
        <ele>250.7</ele>
        <time>2025-06-16T12:50:14Z</time>
      </trkpt>
      <trkpt lat="45.84268" lon="1.27949">
        <ele>250.5</ele>
        <time>2025-06-16T12:50:15Z</time>
      </trkpt>
      <trkpt lat="45.84265" lon="1.27954">
        <ele>250.2</ele>
        <time>2025-06-16T12:50:16Z</time>
      </trkpt>
      <trkpt lat="45.84263" lon="1.27962">
        <ele>249.9</ele>
        <time>2025-06-16T12:50:17Z</time>
      </trkpt>
      <trkpt lat="45.84263" lon="1.2797">
        <ele>249.7</ele>
        <time>2025-06-16T12:50:18Z</time>
      </trkpt>
      <trkpt lat="45.84265" lon="1.27976">
        <ele>249.7</ele>
        <time>2025-06-16T12:50:19Z</time>
      </trkpt>
      <trkpt lat="45.84267" lon="1.27983">
        <ele>249.7</ele>
        <time>2025-06-16T12:50:20Z</time>
      </trkpt>
      <trkpt lat="45.84268" lon="1.27989">
        <ele>249.7</ele>
        <time>2025-06-16T12:50:21Z</time>
      </trkpt>
      <trkpt lat="45.8427" lon="1.27996">
        <ele>249.7</ele>
        <time>2025-06-16T12:50:22Z</time>
      </trkpt>
      <trkpt lat="45.84271" lon="1.28002">
        <ele>249.8</ele>
        <time>2025-06-16T12:50:23Z</time>
      </trkpt>
      <trkpt lat="45.84273" lon="1.28008">
        <ele>249.9</ele>
        <time>2025-06-16T12:50:24Z</time>
      </trkpt>
      <trkpt lat="45.84274" lon="1.28014">
        <ele>249.9</ele>
        <time>2025-06-16T12:50:25Z</time>
      </trkpt>
      <trkpt lat="45.84275" lon="1.2802">
        <ele>250</ele>
        <time>2025-06-16T12:50:26Z</time>
      </trkpt>
      <trkpt lat="45.84277" lon="1.28026">
        <ele>250.1</ele>
        <time>2025-06-16T12:50:27Z</time>
      </trkpt>
      <trkpt lat="45.84278" lon="1.28032">
        <ele>250.2</ele>
        <time>2025-06-16T12:50:28Z</time>
      </trkpt>
      <trkpt lat="45.84279" lon="1.28038">
        <ele>250.3</ele>
        <time>2025-06-16T12:50:29Z</time>
      </trkpt>
      <trkpt lat="45.8428" lon="1.28044">
        <ele>250.4</ele>
        <time>2025-06-16T12:50:30Z</time>
      </trkpt>
      <trkpt lat="45.84282" lon="1.2805">
        <ele>250.4</ele>
        <time>2025-06-16T12:50:31Z</time>
      </trkpt>
      <trkpt lat="45.84283" lon="1.28056">
        <ele>250.5</ele>
        <time>2025-06-16T12:50:32Z</time>
      </trkpt>
      <trkpt lat="45.84284" lon="1.28062">
        <ele>250.5</ele>
        <time>2025-06-16T12:50:33Z</time>
      </trkpt>
      <trkpt lat="45.84286" lon="1.28069">
        <ele>250.6</ele>
        <time>2025-06-16T12:50:34Z</time>
      </trkpt>
      <trkpt lat="45.84288" lon="1.28075">
        <ele>250.6</ele>
        <time>2025-06-16T12:50:35Z</time>
      </trkpt>
      <trkpt lat="45.8429" lon="1.28082">
        <ele>250.6</ele>
        <time>2025-06-16T12:50:36Z</time>
      </trkpt>
      <trkpt lat="45.84291" lon="1.28089">
        <ele>250.7</ele>
        <time>2025-06-16T12:50:37Z</time>
      </trkpt>
      <trkpt lat="45.84293" lon="1.28095">
        <ele>250.7</ele>
        <time>2025-06-16T12:50:38Z</time>
      </trkpt>
      <trkpt lat="45.84294" lon="1.28102">
        <ele>250.7</ele>
        <time>2025-06-16T12:50:39Z</time>
      </trkpt>
      <trkpt lat="45.84296" lon="1.28108">
        <ele>250.7</ele>
        <time>2025-06-16T12:50:40Z</time>
      </trkpt>
      <trkpt lat="45.84298" lon="1.28115">
        <ele>250.8</ele>
        <time>2025-06-16T12:50:41Z</time>
      </trkpt>
      <trkpt lat="45.84299" lon="1.28121">
        <ele>250.8</ele>
        <time>2025-06-16T12:50:42Z</time>
      </trkpt>
      <trkpt lat="45.84301" lon="1.28128">
        <ele>250.8</ele>
        <time>2025-06-16T12:50:43Z</time>
      </trkpt>
      <trkpt lat="45.84303" lon="1.28134">
        <ele>250.9</ele>
        <time>2025-06-16T12:50:44Z</time>
      </trkpt>
      <trkpt lat="45.84305" lon="1.2814">
        <ele>250.9</ele>
        <time>2025-06-16T12:50:45Z</time>
      </trkpt>
      <trkpt lat="45.84306" lon="1.28147">
        <ele>251</ele>
        <time>2025-06-16T12:50:46Z</time>
      </trkpt>
      <trkpt lat="45.84307" lon="1.28153">
        <ele>251</ele>
        <time>2025-06-16T12:50:47Z</time>
      </trkpt>
      <trkpt lat="45.84308" lon="1.28159">
        <ele>251</ele>
        <time>2025-06-16T12:50:48Z</time>
      </trkpt>
      <trkpt lat="45.8431" lon="1.28165">
        <ele>251.1</ele>
        <time>2025-06-16T12:50:49Z</time>
      </trkpt>
      <trkpt lat="45.8431" lon="1.28169">
        <ele>251.1</ele>
        <time>2025-06-16T12:50:50Z</time>
      </trkpt>
      <trkpt lat="45.8431" lon="1.28175">
        <ele>251</ele>
        <time>2025-06-16T12:50:51Z</time>
      </trkpt>
      <trkpt lat="45.84308" lon="1.28178">
        <ele>250.8</ele>
        <time>2025-06-16T12:50:52Z</time>
      </trkpt>
      <trkpt lat="45.84305" lon="1.28182">
        <ele>250.4</ele>
        <time>2025-06-16T12:50:53Z</time>
      </trkpt>
      <trkpt lat="45.843" lon="1.28185">
        <ele>250</ele>
        <time>2025-06-16T12:50:54Z</time>
      </trkpt>
      <trkpt lat="45.84295" lon="1.28189">
        <ele>249.5</ele>
        <time>2025-06-16T12:50:55Z</time>
      </trkpt>
      <trkpt lat="45.8429" lon="1.28192">
        <ele>249.1</ele>
        <time>2025-06-16T12:50:56Z</time>
      </trkpt>
      <trkpt lat="45.84283" lon="1.28196">
        <ele>248.5</ele>
        <time>2025-06-16T12:50:57Z</time>
      </trkpt>
      <trkpt lat="45.84276" lon="1.28201">
        <ele>247.8</ele>
        <time>2025-06-16T12:50:58Z</time>
      </trkpt>
      <trkpt lat="45.84268" lon="1.28204">
        <ele>247</ele>
        <time>2025-06-16T12:50:59Z</time>
      </trkpt>
      <trkpt lat="45.8426" lon="1.28208">
        <ele>246.7</ele>
        <time>2025-06-16T12:51:00Z</time>
      </trkpt>
      <trkpt lat="45.84252" lon="1.28211">
        <ele>246.5</ele>
        <time>2025-06-16T12:51:01Z</time>
      </trkpt>
      <trkpt lat="45.84244" lon="1.28215">
        <ele>246.4</ele>
        <time>2025-06-16T12:51:02Z</time>
      </trkpt>
      <trkpt lat="45.84236" lon="1.28219">
        <ele>246.3</ele>
        <time>2025-06-16T12:51:03Z</time>
      </trkpt>
      <trkpt lat="45.84229" lon="1.28223">
        <ele>246.2</ele>
        <time>2025-06-16T12:51:04Z</time>
      </trkpt>
      <trkpt lat="45.84223" lon="1.28227">
        <ele>246.2</ele>
        <time>2025-06-16T12:51:05Z</time>
      </trkpt>
      <trkpt lat="45.84217" lon="1.28233">
        <ele>246.5</ele>
        <time>2025-06-16T12:51:06Z</time>
      </trkpt>
      <trkpt lat="45.84213" lon="1.28239">
        <ele>246.8</ele>
        <time>2025-06-16T12:51:07Z</time>
      </trkpt>
      <trkpt lat="45.8421" lon="1.28246">
        <ele>247.1</ele>
        <time>2025-06-16T12:51:08Z</time>
      </trkpt>
      <trkpt lat="45.84207" lon="1.28252">
        <ele>247.3</ele>
        <time>2025-06-16T12:51:09Z</time>
      </trkpt>
      <trkpt lat="45.84205" lon="1.28257">
        <ele>247.6</ele>
        <time>2025-06-16T12:51:10Z</time>
      </trkpt>
      <trkpt lat="45.84201" lon="1.28262">
        <ele>247.8</ele>
        <time>2025-06-16T12:51:11Z</time>
      </trkpt>
      <trkpt lat="45.84198" lon="1.28266">
        <ele>248.1</ele>
        <time>2025-06-16T12:51:12Z</time>
      </trkpt>
      <trkpt lat="45.84195" lon="1.2827">
        <ele>248.1</ele>
        <time>2025-06-16T12:51:13Z</time>
      </trkpt>
      <trkpt lat="45.84192" lon="1.28274">
        <ele>248.2</ele>
        <time>2025-06-16T12:51:14Z</time>
      </trkpt>
      <trkpt lat="45.84188" lon="1.28277">
        <ele>248.2</ele>
        <time>2025-06-16T12:51:15Z</time>
      </trkpt>
      <trkpt lat="45.84184" lon="1.28279">
        <ele>248.3</ele>
        <time>2025-06-16T12:51:16Z</time>
      </trkpt>
      <trkpt lat="45.8418" lon="1.28283">
        <ele>248.3</ele>
        <time>2025-06-16T12:51:17Z</time>
      </trkpt>
      <trkpt lat="45.84175" lon="1.28287">
        <ele>248.3</ele>
        <time>2025-06-16T12:51:18Z</time>
      </trkpt>
      <trkpt lat="45.84171" lon="1.2829">
        <ele>248.4</ele>
        <time>2025-06-16T12:51:19Z</time>
      </trkpt>
      <trkpt lat="45.84166" lon="1.28293">
        <ele>248.4</ele>
        <time>2025-06-16T12:51:20Z</time>
      </trkpt>
      <trkpt lat="45.84161" lon="1.28297">
        <ele>248.4</ele>
        <time>2025-06-16T12:51:21Z</time>
      </trkpt>
      <trkpt lat="45.84157" lon="1.283">
        <ele>248.5</ele>
        <time>2025-06-16T12:51:22Z</time>
      </trkpt>
      <trkpt lat="45.84152" lon="1.28303">
        <ele>248.5</ele>
        <time>2025-06-16T12:51:23Z</time>
      </trkpt>
      <trkpt lat="45.84148" lon="1.28305">
        <ele>248.5</ele>
        <time>2025-06-16T12:51:24Z</time>
      </trkpt>
      <trkpt lat="45.84143" lon="1.28308">
        <ele>248.6</ele>
        <time>2025-06-16T12:51:25Z</time>
      </trkpt>
      <trkpt lat="45.84139" lon="1.28312">
        <ele>248.6</ele>
        <time>2025-06-16T12:51:26Z</time>
      </trkpt>
      <trkpt lat="45.84136" lon="1.28316">
        <ele>248.7</ele>
        <time>2025-06-16T12:51:27Z</time>
      </trkpt>
      <trkpt lat="45.84135" lon="1.28319">
        <ele>248.7</ele>
        <time>2025-06-16T12:51:28Z</time>
      </trkpt>
      <trkpt lat="45.84135" lon="1.28325">
        <ele>248.7</ele>
        <time>2025-06-16T12:51:29Z</time>
      </trkpt>
      <trkpt lat="45.84137" lon="1.28329">
        <ele>248.7</ele>
        <time>2025-06-16T12:51:30Z</time>
      </trkpt>
      <trkpt lat="45.84139" lon="1.28334">
        <ele>248.7</ele>
        <time>2025-06-16T12:51:31Z</time>
      </trkpt>
      <trkpt lat="45.84141" lon="1.2834">
        <ele>248.6</ele>
        <time>2025-06-16T12:51:32Z</time>
      </trkpt>
      <trkpt lat="45.84143" lon="1.28345">
        <ele>248.6</ele>
        <time>2025-06-16T12:51:33Z</time>
      </trkpt>
      <trkpt lat="45.84145" lon="1.28351">
        <ele>248.6</ele>
        <time>2025-06-16T12:51:34Z</time>
      </trkpt>
      <trkpt lat="45.84146" lon="1.28357">
        <ele>248.6</ele>
        <time>2025-06-16T12:51:35Z</time>
      </trkpt>
      <trkpt lat="45.84148" lon="1.28363">
        <ele>248.6</ele>
        <time>2025-06-16T12:51:36Z</time>
      </trkpt>
      <trkpt lat="45.84151" lon="1.28369">
        <ele>248.7</ele>
        <time>2025-06-16T12:51:37Z</time>
      </trkpt>
      <trkpt lat="45.84155" lon="1.28375">
        <ele>248.7</ele>
        <time>2025-06-16T12:51:38Z</time>
      </trkpt>
      <trkpt lat="45.84157" lon="1.28381">
        <ele>248.7</ele>
        <time>2025-06-16T12:51:39Z</time>
      </trkpt>
      <trkpt lat="45.8416" lon="1.28387">
        <ele>248.8</ele>
        <time>2025-06-16T12:51:40Z</time>
      </trkpt>
      <trkpt lat="45.84163" lon="1.28393">
        <ele>248.8</ele>
        <time>2025-06-16T12:51:41Z</time>
      </trkpt>
      <trkpt lat="45.84165" lon="1.28398">
        <ele>248.9</ele>
        <time>2025-06-16T12:51:42Z</time>
      </trkpt>
      <trkpt lat="45.84167" lon="1.28403">
        <ele>248.9</ele>
        <time>2025-06-16T12:51:43Z</time>
      </trkpt>
      <trkpt lat="45.84169" lon="1.28409">
        <ele>249</ele>
        <time>2025-06-16T12:51:44Z</time>
      </trkpt>
      <trkpt lat="45.84171" lon="1.28414">
        <ele>249</ele>
        <time>2025-06-16T12:51:45Z</time>
      </trkpt>
      <trkpt lat="45.84173" lon="1.2842">
        <ele>249</ele>
        <time>2025-06-16T12:51:46Z</time>
      </trkpt>
      <trkpt lat="45.84175" lon="1.28425">
        <ele>249.1</ele>
        <time>2025-06-16T12:51:47Z</time>
      </trkpt>
      <trkpt lat="45.84176" lon="1.2843">
        <ele>249.1</ele>
        <time>2025-06-16T12:51:48Z</time>
      </trkpt>
      <trkpt lat="45.84178" lon="1.28435">
        <ele>249.2</ele>
        <time>2025-06-16T12:51:49Z</time>
      </trkpt>
      <trkpt lat="45.8418" lon="1.28441">
        <ele>249.2</ele>
        <time>2025-06-16T12:51:50Z</time>
      </trkpt>
      <trkpt lat="45.84181" lon="1.28446">
        <ele>249.2</ele>
        <time>2025-06-16T12:51:51Z</time>
      </trkpt>
      <trkpt lat="45.84183" lon="1.28451">
        <ele>249.3</ele>
        <time>2025-06-16T12:51:52Z</time>
      </trkpt>
      <trkpt lat="45.84185" lon="1.28456">
        <ele>249.3</ele>
        <time>2025-06-16T12:51:53Z</time>
      </trkpt>
      <trkpt lat="45.84187" lon="1.28461">
        <ele>249.4</ele>
        <time>2025-06-16T12:51:54Z</time>
      </trkpt>
      <trkpt lat="45.84189" lon="1.28466">
        <ele>249.4</ele>
        <time>2025-06-16T12:51:55Z</time>
      </trkpt>
      <trkpt lat="45.84191" lon="1.28471">
        <ele>249.5</ele>
        <time>2025-06-16T12:51:56Z</time>
      </trkpt>
      <trkpt lat="45.84193" lon="1.28477">
        <ele>249.5</ele>
        <time>2025-06-16T12:51:57Z</time>
      </trkpt>
      <trkpt lat="45.84195" lon="1.28483">
        <ele>249.5</ele>
        <time>2025-06-16T12:51:58Z</time>
      </trkpt>
      <trkpt lat="45.84197" lon="1.28488">
        <ele>249.6</ele>
        <time>2025-06-16T12:51:59Z</time>
      </trkpt>
      <trkpt lat="45.842" lon="1.28494">
        <ele>249.6</ele>
        <time>2025-06-16T12:52:00Z</time>
      </trkpt>
      <trkpt lat="45.84202" lon="1.285">
        <ele>249.6</ele>
        <time>2025-06-16T12:52:01Z</time>
      </trkpt>
      <trkpt lat="45.84205" lon="1.28506">
        <ele>249.5</ele>
        <time>2025-06-16T12:52:02Z</time>
      </trkpt>
      <trkpt lat="45.84207" lon="1.28513">
        <ele>249.5</ele>
        <time>2025-06-16T12:52:03Z</time>
      </trkpt>
      <trkpt lat="45.84209" lon="1.28518">
        <ele>249.5</ele>
        <time>2025-06-16T12:52:04Z</time>
      </trkpt>
      <trkpt lat="45.84211" lon="1.28524">
        <ele>249.4</ele>
        <time>2025-06-16T12:52:05Z</time>
      </trkpt>
      <trkpt lat="45.84214" lon="1.2853">
        <ele>249.4</ele>
        <time>2025-06-16T12:52:06Z</time>
      </trkpt>
      <trkpt lat="45.84216" lon="1.28537">
        <ele>249.4</ele>
        <time>2025-06-16T12:52:07Z</time>
      </trkpt>
      <trkpt lat="45.84219" lon="1.28543">
        <ele>249.3</ele>
        <time>2025-06-16T12:52:08Z</time>
      </trkpt>
      <trkpt lat="45.84221" lon="1.28549">
        <ele>249.3</ele>
        <time>2025-06-16T12:52:09Z</time>
      </trkpt>
      <trkpt lat="45.84223" lon="1.28555">
        <ele>249.2</ele>
        <time>2025-06-16T12:52:10Z</time>
      </trkpt>
      <trkpt lat="45.84225" lon="1.28561">
        <ele>249.2</ele>
        <time>2025-06-16T12:52:11Z</time>
      </trkpt>
      <trkpt lat="45.84227" lon="1.28568">
        <ele>249.1</ele>
        <time>2025-06-16T12:52:12Z</time>
      </trkpt>
      <trkpt lat="45.84229" lon="1.28574">
        <ele>249</ele>
        <time>2025-06-16T12:52:13Z</time>
      </trkpt>
      <trkpt lat="45.84232" lon="1.28579">
        <ele>249</ele>
        <time>2025-06-16T12:52:14Z</time>
      </trkpt>
      <trkpt lat="45.84234" lon="1.28585">
        <ele>248.9</ele>
        <time>2025-06-16T12:52:15Z</time>
      </trkpt>
      <trkpt lat="45.84235" lon="1.2859">
        <ele>248.8</ele>
        <time>2025-06-16T12:52:16Z</time>
      </trkpt>
      <trkpt lat="45.84236" lon="1.28594">
        <ele>248.7</ele>
        <time>2025-06-16T12:52:17Z</time>
      </trkpt>
      <trkpt lat="45.84236" lon="1.286">
        <ele>248.6</ele>
        <time>2025-06-16T12:52:18Z</time>
      </trkpt>
      <trkpt lat="45.84235" lon="1.28602">
        <ele>248.5</ele>
        <time>2025-06-16T12:52:19Z</time>
      </trkpt>
      <trkpt lat="45.84234" lon="1.28606">
        <ele>248.2</ele>
        <time>2025-06-16T12:52:20Z</time>
      </trkpt>
      <trkpt lat="45.84231" lon="1.2861">
        <ele>247.9</ele>
        <time>2025-06-16T12:52:21Z</time>
      </trkpt>
      <trkpt lat="45.84228" lon="1.28615">
        <ele>247.5</ele>
        <time>2025-06-16T12:52:22Z</time>
      </trkpt>
      <trkpt lat="45.84223" lon="1.28619">
        <ele>247.1</ele>
        <time>2025-06-16T12:52:23Z</time>
      </trkpt>
      <trkpt lat="45.84218" lon="1.28625">
        <ele>246.5</ele>
        <time>2025-06-16T12:52:24Z</time>
      </trkpt>
      <trkpt lat="45.84213" lon="1.28631">
        <ele>245.9</ele>
        <time>2025-06-16T12:52:25Z</time>
      </trkpt>
      <trkpt lat="45.84208" lon="1.28637">
        <ele>245.3</ele>
        <time>2025-06-16T12:52:26Z</time>
      </trkpt>
      <trkpt lat="45.84203" lon="1.28644">
        <ele>244.8</ele>
        <time>2025-06-16T12:52:27Z</time>
      </trkpt>
      <trkpt lat="45.84199" lon="1.2865">
        <ele>244.4</ele>
        <time>2025-06-16T12:52:28Z</time>
      </trkpt>
      <trkpt lat="45.84194" lon="1.28656">
        <ele>244</ele>
        <time>2025-06-16T12:52:29Z</time>
      </trkpt>
      <trkpt lat="45.8419" lon="1.28661">
        <ele>243.7</ele>
        <time>2025-06-16T12:52:30Z</time>
      </trkpt>
      <trkpt lat="45.84187" lon="1.28665">
        <ele>243.6</ele>
        <time>2025-06-16T12:52:31Z</time>
      </trkpt>
      <trkpt lat="45.84184" lon="1.28669">
        <ele>243.4</ele>
        <time>2025-06-16T12:52:32Z</time>
      </trkpt>
      <trkpt lat="45.84183" lon="1.28675">
        <ele>243.3</ele>
        <time>2025-06-16T12:52:33Z</time>
      </trkpt>
      <trkpt lat="45.84183" lon="1.28677">
        <ele>243.3</ele>
        <time>2025-06-16T12:52:34Z</time>
      </trkpt>
      <trkpt lat="45.84185" lon="1.28682">
        <ele>243.4</ele>
        <time>2025-06-16T12:52:35Z</time>
      </trkpt>
      <trkpt lat="45.84188" lon="1.28686">
        <ele>243.6</ele>
        <time>2025-06-16T12:52:36Z</time>
      </trkpt>
      <trkpt lat="45.84191" lon="1.28691">
        <ele>243.7</ele>
        <time>2025-06-16T12:52:37Z</time>
      </trkpt>
      <trkpt lat="45.84195" lon="1.28695">
        <ele>243.9</ele>
        <time>2025-06-16T12:52:38Z</time>
      </trkpt>
      <trkpt lat="45.842" lon="1.287">
        <ele>244</ele>
        <time>2025-06-16T12:52:39Z</time>
      </trkpt>
      <trkpt lat="45.84204" lon="1.28704">
        <ele>244.1</ele>
        <time>2025-06-16T12:52:40Z</time>
      </trkpt>
      <trkpt lat="45.84207" lon="1.28706">
        <ele>244.2</ele>
        <time>2025-06-16T12:52:41Z</time>
      </trkpt>
      <trkpt lat="45.8421" lon="1.2871">
        <ele>244.3</ele>
        <time>2025-06-16T12:52:42Z</time>
      </trkpt>
      <trkpt lat="45.84214" lon="1.28713">
        <ele>244.4</ele>
        <time>2025-06-16T12:52:43Z</time>
      </trkpt>
      <trkpt lat="45.84217" lon="1.28716">
        <ele>244.4</ele>
        <time>2025-06-16T12:52:44Z</time>
      </trkpt>
      <trkpt lat="45.8422" lon="1.28719">
        <ele>244.5</ele>
        <time>2025-06-16T12:52:45Z</time>
      </trkpt>
      <trkpt lat="45.84224" lon="1.28723">
        <ele>244.5</ele>
        <time>2025-06-16T12:52:46Z</time>
      </trkpt>
      <trkpt lat="45.84227" lon="1.28726">
        <ele>244.5</ele>
        <time>2025-06-16T12:52:47Z</time>
      </trkpt>
      <trkpt lat="45.8423" lon="1.28729">
        <ele>244.5</ele>
        <time>2025-06-16T12:52:48Z</time>
      </trkpt>
      <trkpt lat="45.84234" lon="1.28732">
        <ele>244.5</ele>
        <time>2025-06-16T12:52:49Z</time>
      </trkpt>
      <trkpt lat="45.84238" lon="1.28735">
        <ele>244.5</ele>
        <time>2025-06-16T12:52:50Z</time>
      </trkpt>
      <trkpt lat="45.84241" lon="1.28739">
        <ele>244.5</ele>
        <time>2025-06-16T12:52:51Z</time>
      </trkpt>
      <trkpt lat="45.84245" lon="1.28742">
        <ele>244.5</ele>
        <time>2025-06-16T12:52:52Z</time>
      </trkpt>
      <trkpt lat="45.84249" lon="1.28745">
        <ele>244.4</ele>
        <time>2025-06-16T12:52:53Z</time>
      </trkpt>
      <trkpt lat="45.84252" lon="1.28749">
        <ele>244.4</ele>
        <time>2025-06-16T12:52:54Z</time>
      </trkpt>
      <trkpt lat="45.84257" lon="1.28753">
        <ele>244.4</ele>
        <time>2025-06-16T12:52:55Z</time>
      </trkpt>
      <trkpt lat="45.84261" lon="1.28757">
        <ele>244.3</ele>
        <time>2025-06-16T12:52:56Z</time>
      </trkpt>
      <trkpt lat="45.84264" lon="1.2876">
        <ele>244.3</ele>
        <time>2025-06-16T12:52:57Z</time>
      </trkpt>
      <trkpt lat="45.84268" lon="1.28764">
        <ele>244.3</ele>
        <time>2025-06-16T12:52:58Z</time>
      </trkpt>
      <trkpt lat="45.84271" lon="1.28768">
        <ele>244.2</ele>
        <time>2025-06-16T12:52:59Z</time>
      </trkpt>
      <trkpt lat="45.84275" lon="1.28772">
        <ele>244.2</ele>
        <time>2025-06-16T12:53:00Z</time>
      </trkpt>
      <trkpt lat="45.84279" lon="1.28777">
        <ele>244.2</ele>
        <time>2025-06-16T12:53:01Z</time>
      </trkpt>
      <trkpt lat="45.84282" lon="1.28781">
        <ele>244.1</ele>
        <time>2025-06-16T12:53:02Z</time>
      </trkpt>
      <trkpt lat="45.84286" lon="1.28786">
        <ele>244</ele>
        <time>2025-06-16T12:53:03Z</time>
      </trkpt>
      <trkpt lat="45.84289" lon="1.2879">
        <ele>244</ele>
        <time>2025-06-16T12:53:04Z</time>
      </trkpt>
      <trkpt lat="45.84293" lon="1.28794">
        <ele>243.9</ele>
        <time>2025-06-16T12:53:05Z</time>
      </trkpt>
      <trkpt lat="45.84297" lon="1.28798">
        <ele>243.9</ele>
        <time>2025-06-16T12:53:06Z</time>
      </trkpt>
      <trkpt lat="45.84301" lon="1.28802">
        <ele>243.8</ele>
        <time>2025-06-16T12:53:07Z</time>
      </trkpt>
      <trkpt lat="45.84305" lon="1.28806">
        <ele>243.7</ele>
        <time>2025-06-16T12:53:08Z</time>
      </trkpt>
      <trkpt lat="45.84309" lon="1.2881">
        <ele>243.6</ele>
        <time>2025-06-16T12:53:09Z</time>
      </trkpt>
      <trkpt lat="45.84312" lon="1.28815">
        <ele>243.5</ele>
        <time>2025-06-16T12:53:10Z</time>
      </trkpt>
      <trkpt lat="45.84316" lon="1.28819">
        <ele>243.4</ele>
        <time>2025-06-16T12:53:11Z</time>
      </trkpt>
      <trkpt lat="45.8432" lon="1.28824">
        <ele>243.3</ele>
        <time>2025-06-16T12:53:12Z</time>
      </trkpt>
      <trkpt lat="45.84324" lon="1.28829">
        <ele>243.2</ele>
        <time>2025-06-16T12:53:13Z</time>
      </trkpt>
      <trkpt lat="45.84328" lon="1.28834">
        <ele>243.2</ele>
        <time>2025-06-16T12:53:14Z</time>
      </trkpt>
      <trkpt lat="45.84332" lon="1.28839">
        <ele>243.1</ele>
        <time>2025-06-16T12:53:15Z</time>
      </trkpt>
      <trkpt lat="45.84337" lon="1.28843">
        <ele>243</ele>
        <time>2025-06-16T12:53:16Z</time>
      </trkpt>
      <trkpt lat="45.84342" lon="1.28846">
        <ele>243</ele>
        <time>2025-06-16T12:53:17Z</time>
      </trkpt>
      <trkpt lat="45.84346" lon="1.28848">
        <ele>243</ele>
        <time>2025-06-16T12:53:18Z</time>
      </trkpt>
      <trkpt lat="45.8435" lon="1.2885">
        <ele>243</ele>
        <time>2025-06-16T12:53:19Z</time>
      </trkpt>
      <trkpt lat="45.84353" lon="1.28851">
        <ele>243</ele>
        <time>2025-06-16T12:53:20Z</time>
      </trkpt>
      <trkpt lat="45.84357" lon="1.28854">
        <ele>242.9</ele>
        <time>2025-06-16T12:53:21Z</time>
      </trkpt>
      <trkpt lat="45.84359" lon="1.28859">
        <ele>242.9</ele>
        <time>2025-06-16T12:53:22Z</time>
      </trkpt>
      <trkpt lat="45.84361" lon="1.28864">
        <ele>242.8</ele>
        <time>2025-06-16T12:53:23Z</time>
      </trkpt>
      <trkpt lat="45.84364" lon="1.2887">
        <ele>242.8</ele>
        <time>2025-06-16T12:53:24Z</time>
      </trkpt>
      <trkpt lat="45.84367" lon="1.28875">
        <ele>242.7</ele>
        <time>2025-06-16T12:53:25Z</time>
      </trkpt>
      <trkpt lat="45.8437" lon="1.28881">
        <ele>242.7</ele>
        <time>2025-06-16T12:53:26Z</time>
      </trkpt>
      <trkpt lat="45.84374" lon="1.28884">
        <ele>242.7</ele>
        <time>2025-06-16T12:53:27Z</time>
      </trkpt>
      <trkpt lat="45.84378" lon="1.28888">
        <ele>242.8</ele>
        <time>2025-06-16T12:53:28Z</time>
      </trkpt>
      <trkpt lat="45.84382" lon="1.28892">
        <ele>242.8</ele>
        <time>2025-06-16T12:53:29Z</time>
      </trkpt>
      <trkpt lat="45.84385" lon="1.28896">
        <ele>242.9</ele>
        <time>2025-06-16T12:53:30Z</time>
      </trkpt>
      <trkpt lat="45.8439" lon="1.289">
        <ele>243</ele>
        <time>2025-06-16T12:53:31Z</time>
      </trkpt>
      <trkpt lat="45.84393" lon="1.28903">
        <ele>243.1</ele>
        <time>2025-06-16T12:53:32Z</time>
      </trkpt>
      <trkpt lat="45.84397" lon="1.28907">
        <ele>243.2</ele>
        <time>2025-06-16T12:53:33Z</time>
      </trkpt>
      <trkpt lat="45.84401" lon="1.28911">
        <ele>243.4</ele>
        <time>2025-06-16T12:53:34Z</time>
      </trkpt>
      <trkpt lat="45.84404" lon="1.28914">
        <ele>243.5</ele>
        <time>2025-06-16T12:53:35Z</time>
      </trkpt>
      <trkpt lat="45.84408" lon="1.28918">
        <ele>243.7</ele>
        <time>2025-06-16T12:53:36Z</time>
      </trkpt>
      <trkpt lat="45.84412" lon="1.28922">
        <ele>243.8</ele>
        <time>2025-06-16T12:53:37Z</time>
      </trkpt>
      <trkpt lat="45.84415" lon="1.28925">
        <ele>244</ele>
        <time>2025-06-16T12:53:38Z</time>
      </trkpt>
      <trkpt lat="45.84418" lon="1.28929">
        <ele>244.2</ele>
        <time>2025-06-16T12:53:39Z</time>
      </trkpt>
      <trkpt lat="45.84422" lon="1.28932">
        <ele>244.3</ele>
        <time>2025-06-16T12:53:40Z</time>
      </trkpt>
      <trkpt lat="45.84425" lon="1.28935">
        <ele>244.5</ele>
        <time>2025-06-16T12:53:41Z</time>
      </trkpt>
      <trkpt lat="45.84428" lon="1.28939">
        <ele>244.6</ele>
        <time>2025-06-16T12:53:42Z</time>
      </trkpt>
      <trkpt lat="45.84431" lon="1.28942">
        <ele>244.8</ele>
        <time>2025-06-16T12:53:43Z</time>
      </trkpt>
      <trkpt lat="45.84434" lon="1.28945">
        <ele>244.9</ele>
        <time>2025-06-16T12:53:44Z</time>
      </trkpt>
      <trkpt lat="45.84436" lon="1.28948">
        <ele>245</ele>
        <time>2025-06-16T12:53:45Z</time>
      </trkpt>
      <trkpt lat="45.84439" lon="1.28951">
        <ele>245.2</ele>
        <time>2025-06-16T12:53:46Z</time>
      </trkpt>
      <trkpt lat="45.84443" lon="1.28955">
        <ele>245.3</ele>
        <time>2025-06-16T12:53:47Z</time>
      </trkpt>
      <trkpt lat="45.84446" lon="1.28958">
        <ele>245.4</ele>
        <time>2025-06-16T12:53:48Z</time>
      </trkpt>
      <trkpt lat="45.84449" lon="1.28962">
        <ele>245.5</ele>
        <time>2025-06-16T12:53:49Z</time>
      </trkpt>
      <trkpt lat="45.84452" lon="1.28965">
        <ele>245.7</ele>
        <time>2025-06-16T12:53:50Z</time>
      </trkpt>
      <trkpt lat="45.84455" lon="1.28968">
        <ele>245.8</ele>
        <time>2025-06-16T12:53:51Z</time>
      </trkpt>
      <trkpt lat="45.84458" lon="1.28972">
        <ele>245.9</ele>
        <time>2025-06-16T12:53:52Z</time>
      </trkpt>
      <trkpt lat="45.84461" lon="1.28975">
        <ele>246</ele>
        <time>2025-06-16T12:53:53Z</time>
      </trkpt>
      <trkpt lat="45.84464" lon="1.28978">
        <ele>246.1</ele>
        <time>2025-06-16T12:53:54Z</time>
      </trkpt>
      <trkpt lat="45.84467" lon="1.28982">
        <ele>246.2</ele>
        <time>2025-06-16T12:53:55Z</time>
      </trkpt>
      <trkpt lat="45.8447" lon="1.28985">
        <ele>246.3</ele>
        <time>2025-06-16T12:53:56Z</time>
      </trkpt>
      <trkpt lat="45.84473" lon="1.28988">
        <ele>246.3</ele>
        <time>2025-06-16T12:53:57Z</time>
      </trkpt>
      <trkpt lat="45.84476" lon="1.28991">
        <ele>246.4</ele>
        <time>2025-06-16T12:53:58Z</time>
      </trkpt>
      <trkpt lat="45.84479" lon="1.28994">
        <ele>246.5</ele>
        <time>2025-06-16T12:53:59Z</time>
      </trkpt>
      <trkpt lat="45.84482" lon="1.28997">
        <ele>246.6</ele>
        <time>2025-06-16T12:54:00Z</time>
      </trkpt>
      <trkpt lat="45.84485" lon="1.29">
        <ele>246.6</ele>
        <time>2025-06-16T12:54:01Z</time>
      </trkpt>
      <trkpt lat="45.84488" lon="1.29004">
        <ele>246.7</ele>
        <time>2025-06-16T12:54:02Z</time>
      </trkpt>
      <trkpt lat="45.84491" lon="1.29007">
        <ele>246.7</ele>
        <time>2025-06-16T12:54:03Z</time>
      </trkpt>
      <trkpt lat="45.84494" lon="1.29011">
        <ele>246.7</ele>
        <time>2025-06-16T12:54:04Z</time>
      </trkpt>
      <trkpt lat="45.84497" lon="1.29015">
        <ele>246.8</ele>
        <time>2025-06-16T12:54:05Z</time>
      </trkpt>
      <trkpt lat="45.845" lon="1.29018">
        <ele>246.8</ele>
        <time>2025-06-16T12:54:06Z</time>
      </trkpt>
      <trkpt lat="45.84503" lon="1.29022">
        <ele>246.8</ele>
        <time>2025-06-16T12:54:07Z</time>
      </trkpt>
      <trkpt lat="45.84507" lon="1.29026">
        <ele>246.9</ele>
        <time>2025-06-16T12:54:08Z</time>
      </trkpt>
      <trkpt lat="45.8451" lon="1.29029">
        <ele>246.9</ele>
        <time>2025-06-16T12:54:09Z</time>
      </trkpt>
      <trkpt lat="45.84514" lon="1.29033">
        <ele>246.9</ele>
        <time>2025-06-16T12:54:10Z</time>
      </trkpt>
      <trkpt lat="45.84517" lon="1.29036">
        <ele>247</ele>
        <time>2025-06-16T12:54:11Z</time>
      </trkpt>
      <trkpt lat="45.8452" lon="1.29039">
        <ele>247</ele>
        <time>2025-06-16T12:54:12Z</time>
      </trkpt>
      <trkpt lat="45.84523" lon="1.29043">
        <ele>247.1</ele>
        <time>2025-06-16T12:54:13Z</time>
      </trkpt>
      <trkpt lat="45.84526" lon="1.29046">
        <ele>247.1</ele>
        <time>2025-06-16T12:54:14Z</time>
      </trkpt>
      <trkpt lat="45.84529" lon="1.29049">
        <ele>247.2</ele>
        <time>2025-06-16T12:54:15Z</time>
      </trkpt>
      <trkpt lat="45.84532" lon="1.29052">
        <ele>247.2</ele>
        <time>2025-06-16T12:54:16Z</time>
      </trkpt>
      <trkpt lat="45.84535" lon="1.29056">
        <ele>247.3</ele>
        <time>2025-06-16T12:54:17Z</time>
      </trkpt>
      <trkpt lat="45.84538" lon="1.29059">
        <ele>247.3</ele>
        <time>2025-06-16T12:54:18Z</time>
      </trkpt>
      <trkpt lat="45.84541" lon="1.29062">
        <ele>247.3</ele>
        <time>2025-06-16T12:54:19Z</time>
      </trkpt>
      <trkpt lat="45.84544" lon="1.29065">
        <ele>247.3</ele>
        <time>2025-06-16T12:54:20Z</time>
      </trkpt>
      <trkpt lat="45.84546" lon="1.29068">
        <ele>247.3</ele>
        <time>2025-06-16T12:54:21Z</time>
      </trkpt>
      <trkpt lat="45.84549" lon="1.29071">
        <ele>247.3</ele>
        <time>2025-06-16T12:54:22Z</time>
      </trkpt>
      <trkpt lat="45.84552" lon="1.29074">
        <ele>247.3</ele>
        <time>2025-06-16T12:54:23Z</time>
      </trkpt>
      <trkpt lat="45.84555" lon="1.29077">
        <ele>247.3</ele>
        <time>2025-06-16T12:54:24Z</time>
      </trkpt>
      <trkpt lat="45.84558" lon="1.2908">
        <ele>247.3</ele>
        <time>2025-06-16T12:54:25Z</time>
      </trkpt>
      <trkpt lat="45.84561" lon="1.29083">
        <ele>247.3</ele>
        <time>2025-06-16T12:54:26Z</time>
      </trkpt>
      <trkpt lat="45.84564" lon="1.29086">
        <ele>247.3</ele>
        <time>2025-06-16T12:54:27Z</time>
      </trkpt>
      <trkpt lat="45.84568" lon="1.29089">
        <ele>247.4</ele>
        <time>2025-06-16T12:54:28Z</time>
      </trkpt>
      <trkpt lat="45.84571" lon="1.29093">
        <ele>247.4</ele>
        <time>2025-06-16T12:54:29Z</time>
      </trkpt>
      <trkpt lat="45.84574" lon="1.29096">
        <ele>247.4</ele>
        <time>2025-06-16T12:54:30Z</time>
      </trkpt>
      <trkpt lat="45.84577" lon="1.29099">
        <ele>247.4</ele>
        <time>2025-06-16T12:54:31Z</time>
      </trkpt>
      <trkpt lat="45.8458" lon="1.29102">
        <ele>247.5</ele>
        <time>2025-06-16T12:54:32Z</time>
      </trkpt>
      <trkpt lat="45.84583" lon="1.29106">
        <ele>247.5</ele>
        <time>2025-06-16T12:54:33Z</time>
      </trkpt>
      <trkpt lat="45.84586" lon="1.29109">
        <ele>247.5</ele>
        <time>2025-06-16T12:54:34Z</time>
      </trkpt>
      <trkpt lat="45.84589" lon="1.29112">
        <ele>247.6</ele>
        <time>2025-06-16T12:54:35Z</time>
      </trkpt>
      <trkpt lat="45.84592" lon="1.29116">
        <ele>247.6</ele>
        <time>2025-06-16T12:54:36Z</time>
      </trkpt>
      <trkpt lat="45.84595" lon="1.29119">
        <ele>247.7</ele>
        <time>2025-06-16T12:54:37Z</time>
      </trkpt>
      <trkpt lat="45.84598" lon="1.29122">
        <ele>247.7</ele>
        <time>2025-06-16T12:54:38Z</time>
      </trkpt>
      <trkpt lat="45.84601" lon="1.29125">
        <ele>247.8</ele>
        <time>2025-06-16T12:54:39Z</time>
      </trkpt>
      <trkpt lat="45.84604" lon="1.29129">
        <ele>247.9</ele>
        <time>2025-06-16T12:54:40Z</time>
      </trkpt>
      <trkpt lat="45.84607" lon="1.29132">
        <ele>247.9</ele>
        <time>2025-06-16T12:54:41Z</time>
      </trkpt>
      <trkpt lat="45.8461" lon="1.29135">
        <ele>248</ele>
        <time>2025-06-16T12:54:42Z</time>
      </trkpt>
      <trkpt lat="45.84612" lon="1.29139">
        <ele>248.1</ele>
        <time>2025-06-16T12:54:43Z</time>
      </trkpt>
      <trkpt lat="45.84615" lon="1.29142">
        <ele>248.1</ele>
        <time>2025-06-16T12:54:44Z</time>
      </trkpt>
      <trkpt lat="45.84618" lon="1.29145">
        <ele>248.2</ele>
        <time>2025-06-16T12:54:45Z</time>
      </trkpt>
      <trkpt lat="45.84621" lon="1.29149">
        <ele>248.3</ele>
        <time>2025-06-16T12:54:46Z</time>
      </trkpt>
      <trkpt lat="45.84623" lon="1.29152">
        <ele>248.4</ele>
        <time>2025-06-16T12:54:47Z</time>
      </trkpt>
      <trkpt lat="45.84626" lon="1.29156">
        <ele>248.4</ele>
        <time>2025-06-16T12:54:48Z</time>
      </trkpt>
      <trkpt lat="45.84629" lon="1.29159">
        <ele>248.5</ele>
        <time>2025-06-16T12:54:49Z</time>
      </trkpt>
      <trkpt lat="45.84632" lon="1.29162">
        <ele>248.6</ele>
        <time>2025-06-16T12:54:50Z</time>
      </trkpt>
      <trkpt lat="45.84634" lon="1.29166">
        <ele>248.7</ele>
        <time>2025-06-16T12:54:51Z</time>
      </trkpt>
      <trkpt lat="45.84637" lon="1.29169">
        <ele>248.7</ele>
        <time>2025-06-16T12:54:52Z</time>
      </trkpt>
      <trkpt lat="45.8464" lon="1.29172">
        <ele>248.8</ele>
        <time>2025-06-16T12:54:53Z</time>
      </trkpt>
      <trkpt lat="45.84643" lon="1.29176">
        <ele>248.9</ele>
        <time>2025-06-16T12:54:54Z</time>
      </trkpt>
      <trkpt lat="45.84646" lon="1.29179">
        <ele>249</ele>
        <time>2025-06-16T12:54:55Z</time>
      </trkpt>
      <trkpt lat="45.84649" lon="1.29182">
        <ele>249.1</ele>
        <time>2025-06-16T12:54:56Z</time>
      </trkpt>
      <trkpt lat="45.84652" lon="1.29185">
        <ele>249.2</ele>
        <time>2025-06-16T12:54:57Z</time>
      </trkpt>
      <trkpt lat="45.84655" lon="1.29188">
        <ele>249.2</ele>
        <time>2025-06-16T12:54:58Z</time>
      </trkpt>
      <trkpt lat="45.84657" lon="1.29192">
        <ele>249.3</ele>
        <time>2025-06-16T12:54:59Z</time>
      </trkpt>
      <trkpt lat="45.8466" lon="1.29195">
        <ele>249.4</ele>
        <time>2025-06-16T12:55:00Z</time>
      </trkpt>
      <trkpt lat="45.84663" lon="1.29198">
        <ele>249.5</ele>
        <time>2025-06-16T12:55:01Z</time>
      </trkpt>
      <trkpt lat="45.84666" lon="1.29201">
        <ele>249.6</ele>
        <time>2025-06-16T12:55:02Z</time>
      </trkpt>
      <trkpt lat="45.84668" lon="1.29204">
        <ele>249.7</ele>
        <time>2025-06-16T12:55:03Z</time>
      </trkpt>
      <trkpt lat="45.84671" lon="1.29207">
        <ele>249.8</ele>
        <time>2025-06-16T12:55:04Z</time>
      </trkpt>
      <trkpt lat="45.84674" lon="1.2921">
        <ele>249.9</ele>
        <time>2025-06-16T12:55:05Z</time>
      </trkpt>
      <trkpt lat="45.84677" lon="1.29213">
        <ele>250</ele>
        <time>2025-06-16T12:55:06Z</time>
      </trkpt>
      <trkpt lat="45.8468" lon="1.29216">
        <ele>250.1</ele>
        <time>2025-06-16T12:55:07Z</time>
      </trkpt>
      <trkpt lat="45.84683" lon="1.29219">
        <ele>250.1</ele>
        <time>2025-06-16T12:55:08Z</time>
      </trkpt>
      <trkpt lat="45.84686" lon="1.29222">
        <ele>250.2</ele>
        <time>2025-06-16T12:55:09Z</time>
      </trkpt>
      <trkpt lat="45.84689" lon="1.29225">
        <ele>250.3</ele>
        <time>2025-06-16T12:55:10Z</time>
      </trkpt>
      <trkpt lat="45.84692" lon="1.29228">
        <ele>250.4</ele>
        <time>2025-06-16T12:55:11Z</time>
      </trkpt>
      <trkpt lat="45.84695" lon="1.29231">
        <ele>250.5</ele>
        <time>2025-06-16T12:55:12Z</time>
      </trkpt>
      <trkpt lat="45.84698" lon="1.29234">
        <ele>250.6</ele>
        <time>2025-06-16T12:55:13Z</time>
      </trkpt>
      <trkpt lat="45.84701" lon="1.29237">
        <ele>250.6</ele>
        <time>2025-06-16T12:55:14Z</time>
      </trkpt>
      <trkpt lat="45.84704" lon="1.29241">
        <ele>250.7</ele>
        <time>2025-06-16T12:55:15Z</time>
      </trkpt>
      <trkpt lat="45.84706" lon="1.29244">
        <ele>250.8</ele>
        <time>2025-06-16T12:55:16Z</time>
      </trkpt>
      <trkpt lat="45.84709" lon="1.29247">
        <ele>250.9</ele>
        <time>2025-06-16T12:55:17Z</time>
      </trkpt>
      <trkpt lat="45.84712" lon="1.2925">
        <ele>250.9</ele>
        <time>2025-06-16T12:55:18Z</time>
      </trkpt>
      <trkpt lat="45.84714" lon="1.29253">
        <ele>251</ele>
        <time>2025-06-16T12:55:19Z</time>
      </trkpt>
      <trkpt lat="45.84717" lon="1.29255">
        <ele>251</ele>
        <time>2025-06-16T12:55:20Z</time>
      </trkpt>
      <trkpt lat="45.8472" lon="1.29258">
        <ele>251.1</ele>
        <time>2025-06-16T12:55:21Z</time>
      </trkpt>
      <trkpt lat="45.84723" lon="1.29262">
        <ele>251.2</ele>
        <time>2025-06-16T12:55:22Z</time>
      </trkpt>
      <trkpt lat="45.84726" lon="1.29265">
        <ele>251.3</ele>
        <time>2025-06-16T12:55:23Z</time>
      </trkpt>
      <trkpt lat="45.84729" lon="1.29268">
        <ele>251.3</ele>
        <time>2025-06-16T12:55:24Z</time>
      </trkpt>
      <trkpt lat="45.84732" lon="1.29271">
        <ele>251.4</ele>
        <time>2025-06-16T12:55:25Z</time>
      </trkpt>
      <trkpt lat="45.84736" lon="1.29274">
        <ele>251.4</ele>
        <time>2025-06-16T12:55:26Z</time>
      </trkpt>
      <trkpt lat="45.84739" lon="1.29277">
        <ele>251.5</ele>
        <time>2025-06-16T12:55:27Z</time>
      </trkpt>
      <trkpt lat="45.84742" lon="1.2928">
        <ele>251.5</ele>
        <time>2025-06-16T12:55:28Z</time>
      </trkpt>
      <trkpt lat="45.84746" lon="1.29283">
        <ele>251.5</ele>
        <time>2025-06-16T12:55:29Z</time>
      </trkpt>
      <trkpt lat="45.84749" lon="1.29287">
        <ele>251.6</ele>
        <time>2025-06-16T12:55:30Z</time>
      </trkpt>
      <trkpt lat="45.84752" lon="1.2929">
        <ele>251.6</ele>
        <time>2025-06-16T12:55:31Z</time>
      </trkpt>
      <trkpt lat="45.84755" lon="1.29294">
        <ele>251.7</ele>
        <time>2025-06-16T12:55:32Z</time>
      </trkpt>
      <trkpt lat="45.84758" lon="1.29297">
        <ele>251.7</ele>
        <time>2025-06-16T12:55:33Z</time>
      </trkpt>
      <trkpt lat="45.84761" lon="1.29301">
        <ele>251.7</ele>
        <time>2025-06-16T12:55:34Z</time>
      </trkpt>
      <trkpt lat="45.84765" lon="1.29304">
        <ele>251.8</ele>
        <time>2025-06-16T12:55:35Z</time>
      </trkpt>
      <trkpt lat="45.84768" lon="1.29307">
        <ele>251.8</ele>
        <time>2025-06-16T12:55:36Z</time>
      </trkpt>
      <trkpt lat="45.8477" lon="1.2931">
        <ele>251.8</ele>
        <time>2025-06-16T12:55:37Z</time>
      </trkpt>
      <trkpt lat="45.84773" lon="1.29314">
        <ele>251.9</ele>
        <time>2025-06-16T12:55:38Z</time>
      </trkpt>
      <trkpt lat="45.84777" lon="1.29318">
        <ele>251.9</ele>
        <time>2025-06-16T12:55:39Z</time>
      </trkpt>
      <trkpt lat="45.8478" lon="1.29321">
        <ele>252</ele>
        <time>2025-06-16T12:55:40Z</time>
      </trkpt>
      <trkpt lat="45.84783" lon="1.29325">
        <ele>252</ele>
        <time>2025-06-16T12:55:41Z</time>
      </trkpt>
      <trkpt lat="45.84787" lon="1.29328">
        <ele>252</ele>
        <time>2025-06-16T12:55:42Z</time>
      </trkpt>
      <trkpt lat="45.84789" lon="1.29331">
        <ele>252.1</ele>
        <time>2025-06-16T12:55:43Z</time>
      </trkpt>
      <trkpt lat="45.84792" lon="1.29334">
        <ele>252.1</ele>
        <time>2025-06-16T12:55:44Z</time>
      </trkpt>
      <trkpt lat="45.84795" lon="1.29337">
        <ele>252.1</ele>
        <time>2025-06-16T12:55:45Z</time>
      </trkpt>
      <trkpt lat="45.84798" lon="1.2934">
        <ele>252.2</ele>
        <time>2025-06-16T12:55:46Z</time>
      </trkpt>
      <trkpt lat="45.84801" lon="1.29343">
        <ele>252.2</ele>
        <time>2025-06-16T12:55:47Z</time>
      </trkpt>
      <trkpt lat="45.84804" lon="1.29346">
        <ele>252.2</ele>
        <time>2025-06-16T12:55:48Z</time>
      </trkpt>
      <trkpt lat="45.84806" lon="1.29349">
        <ele>252.3</ele>
        <time>2025-06-16T12:55:49Z</time>
      </trkpt>
      <trkpt lat="45.8481" lon="1.29353">
        <ele>252.3</ele>
        <time>2025-06-16T12:55:50Z</time>
      </trkpt>
      <trkpt lat="45.84813" lon="1.29356">
        <ele>252.3</ele>
        <time>2025-06-16T12:55:51Z</time>
      </trkpt>
      <trkpt lat="45.84815" lon="1.29359">
        <ele>252.4</ele>
        <time>2025-06-16T12:55:52Z</time>
      </trkpt>
      <trkpt lat="45.84817" lon="1.29363">
        <ele>252.4</ele>
        <time>2025-06-16T12:55:53Z</time>
      </trkpt>
      <trkpt lat="45.84819" lon="1.29367">
        <ele>252.4</ele>
        <time>2025-06-16T12:55:54Z</time>
      </trkpt>
      <trkpt lat="45.84822" lon="1.29371">
        <ele>252.4</ele>
        <time>2025-06-16T12:55:55Z</time>
      </trkpt>
      <trkpt lat="45.84825" lon="1.29374">
        <ele>252.4</ele>
        <time>2025-06-16T12:55:56Z</time>
      </trkpt>
      <trkpt lat="45.84827" lon="1.29378">
        <ele>252.4</ele>
        <time>2025-06-16T12:55:57Z</time>
      </trkpt>
      <trkpt lat="45.8483" lon="1.29382">
        <ele>252.4</ele>
        <time>2025-06-16T12:55:58Z</time>
      </trkpt>
      <trkpt lat="45.84833" lon="1.29386">
        <ele>252.4</ele>
        <time>2025-06-16T12:55:59Z</time>
      </trkpt>
      <trkpt lat="45.84836" lon="1.2939">
        <ele>252.4</ele>
        <time>2025-06-16T12:56:00Z</time>
      </trkpt>
      <trkpt lat="45.84839" lon="1.29394">
        <ele>252.5</ele>
        <time>2025-06-16T12:56:01Z</time>
      </trkpt>
      <trkpt lat="45.84841" lon="1.29399">
        <ele>252.5</ele>
        <time>2025-06-16T12:56:02Z</time>
      </trkpt>
      <trkpt lat="45.84844" lon="1.29403">
        <ele>252.5</ele>
        <time>2025-06-16T12:56:03Z</time>
      </trkpt>
      <trkpt lat="45.84847" lon="1.29408">
        <ele>252.5</ele>
        <time>2025-06-16T12:56:04Z</time>
      </trkpt>
      <trkpt lat="45.84849" lon="1.29413">
        <ele>252.6</ele>
        <time>2025-06-16T12:56:05Z</time>
      </trkpt>
      <trkpt lat="45.84852" lon="1.29417">
        <ele>252.6</ele>
        <time>2025-06-16T12:56:06Z</time>
      </trkpt>
      <trkpt lat="45.84854" lon="1.29422">
        <ele>252.6</ele>
        <time>2025-06-16T12:56:07Z</time>
      </trkpt>
      <trkpt lat="45.84856" lon="1.29426">
        <ele>252.6</ele>
        <time>2025-06-16T12:56:08Z</time>
      </trkpt>
      <trkpt lat="45.84858" lon="1.2943">
        <ele>252.7</ele>
        <time>2025-06-16T12:56:09Z</time>
      </trkpt>
      <trkpt lat="45.8486" lon="1.29435">
        <ele>252.7</ele>
        <time>2025-06-16T12:56:10Z</time>
      </trkpt>
      <trkpt lat="45.84862" lon="1.29439">
        <ele>252.7</ele>
        <time>2025-06-16T12:56:11Z</time>
      </trkpt>
      <trkpt lat="45.84864" lon="1.29444">
        <ele>252.8</ele>
        <time>2025-06-16T12:56:12Z</time>
      </trkpt>
      <trkpt lat="45.84866" lon="1.29448">
        <ele>252.8</ele>
        <time>2025-06-16T12:56:13Z</time>
      </trkpt>
      <trkpt lat="45.84868" lon="1.29452">
        <ele>252.8</ele>
        <time>2025-06-16T12:56:14Z</time>
      </trkpt>
      <trkpt lat="45.84869" lon="1.29457">
        <ele>252.9</ele>
        <time>2025-06-16T12:56:15Z</time>
      </trkpt>
      <trkpt lat="45.84871" lon="1.29461">
        <ele>252.9</ele>
        <time>2025-06-16T12:56:16Z</time>
      </trkpt>
      <trkpt lat="45.84872" lon="1.29466">
        <ele>252.9</ele>
        <time>2025-06-16T12:56:17Z</time>
      </trkpt>
      <trkpt lat="45.84874" lon="1.2947">
        <ele>253</ele>
        <time>2025-06-16T12:56:18Z</time>
      </trkpt>
      <trkpt lat="45.84876" lon="1.29475">
        <ele>253</ele>
        <time>2025-06-16T12:56:19Z</time>
      </trkpt>
      <trkpt lat="45.84878" lon="1.29479">
        <ele>253.1</ele>
        <time>2025-06-16T12:56:20Z</time>
      </trkpt>
      <trkpt lat="45.8488" lon="1.29485">
        <ele>253.1</ele>
        <time>2025-06-16T12:56:21Z</time>
      </trkpt>
      <trkpt lat="45.84882" lon="1.2949">
        <ele>253.2</ele>
        <time>2025-06-16T12:56:22Z</time>
      </trkpt>
      <trkpt lat="45.84884" lon="1.29495">
        <ele>253.2</ele>
        <time>2025-06-16T12:56:23Z</time>
      </trkpt>
      <trkpt lat="45.84886" lon="1.29499">
        <ele>253.3</ele>
        <time>2025-06-16T12:56:24Z</time>
      </trkpt>
      <trkpt lat="45.84888" lon="1.29504">
        <ele>253.4</ele>
        <time>2025-06-16T12:56:25Z</time>
      </trkpt>
      <trkpt lat="45.8489" lon="1.29509">
        <ele>253.5</ele>
        <time>2025-06-16T12:56:26Z</time>
      </trkpt>
      <trkpt lat="45.84892" lon="1.29513">
        <ele>253.6</ele>
        <time>2025-06-16T12:56:27Z</time>
      </trkpt>
      <trkpt lat="45.84894" lon="1.29518">
        <ele>253.7</ele>
        <time>2025-06-16T12:56:28Z</time>
      </trkpt>
      <trkpt lat="45.84896" lon="1.29523">
        <ele>253.8</ele>
        <time>2025-06-16T12:56:29Z</time>
      </trkpt>
      <trkpt lat="45.84898" lon="1.29528">
        <ele>253.9</ele>
        <time>2025-06-16T12:56:30Z</time>
      </trkpt>
      <trkpt lat="45.849" lon="1.29532">
        <ele>254</ele>
        <time>2025-06-16T12:56:31Z</time>
      </trkpt>
      <trkpt lat="45.84902" lon="1.29537">
        <ele>254.2</ele>
        <time>2025-06-16T12:56:32Z</time>
      </trkpt>
      <trkpt lat="45.84904" lon="1.29541">
        <ele>254.3</ele>
        <time>2025-06-16T12:56:33Z</time>
      </trkpt>
      <trkpt lat="45.84905" lon="1.29545">
        <ele>254.4</ele>
        <time>2025-06-16T12:56:34Z</time>
      </trkpt>
      <trkpt lat="45.84907" lon="1.29549">
        <ele>254.6</ele>
        <time>2025-06-16T12:56:35Z</time>
      </trkpt>
      <trkpt lat="45.84908" lon="1.29553">
        <ele>254.7</ele>
        <time>2025-06-16T12:56:36Z</time>
      </trkpt>
      <trkpt lat="45.8491" lon="1.29556">
        <ele>254.8</ele>
        <time>2025-06-16T12:56:37Z</time>
      </trkpt>
      <trkpt lat="45.84911" lon="1.2956">
        <ele>255</ele>
        <time>2025-06-16T12:56:38Z</time>
      </trkpt>
      <trkpt lat="45.84913" lon="1.29564">
        <ele>255.1</ele>
        <time>2025-06-16T12:56:39Z</time>
      </trkpt>
      <trkpt lat="45.84914" lon="1.29568">
        <ele>255.3</ele>
        <time>2025-06-16T12:56:40Z</time>
      </trkpt>
      <trkpt lat="45.84916" lon="1.29572">
        <ele>255.4</ele>
        <time>2025-06-16T12:56:41Z</time>
      </trkpt>
      <trkpt lat="45.84917" lon="1.29576">
        <ele>255.6</ele>
        <time>2025-06-16T12:56:42Z</time>
      </trkpt>
      <trkpt lat="45.84919" lon="1.2958">
        <ele>255.7</ele>
        <time>2025-06-16T12:56:43Z</time>
      </trkpt>
      <trkpt lat="45.84921" lon="1.29583">
        <ele>255.9</ele>
        <time>2025-06-16T12:56:44Z</time>
      </trkpt>
      <trkpt lat="45.84923" lon="1.29588">
        <ele>256.1</ele>
        <time>2025-06-16T12:56:45Z</time>
      </trkpt>
      <trkpt lat="45.84923" lon="1.2959">
        <ele>256.1</ele>
        <time>2025-06-16T12:56:46Z</time>
      </trkpt>
      <trkpt lat="45.84925" lon="1.29593">
        <ele>256.3</ele>
        <time>2025-06-16T12:56:47Z</time>
      </trkpt>
      <trkpt lat="45.84926" lon="1.29596">
        <ele>256.4</ele>
        <time>2025-06-16T12:56:48Z</time>
      </trkpt>
      <trkpt lat="45.84928" lon="1.296">
        <ele>256.6</ele>
        <time>2025-06-16T12:56:49Z</time>
      </trkpt>
      <trkpt lat="45.8493" lon="1.29605">
        <ele>256.8</ele>
        <time>2025-06-16T12:56:50Z</time>
      </trkpt>
      <trkpt lat="45.84931" lon="1.29607">
        <ele>256.9</ele>
        <time>2025-06-16T12:56:51Z</time>
      </trkpt>
      <trkpt lat="45.84932" lon="1.29611">
        <ele>257</ele>
        <time>2025-06-16T12:56:52Z</time>
      </trkpt>
      <trkpt lat="45.84934" lon="1.29615">
        <ele>257.2</ele>
        <time>2025-06-16T12:56:53Z</time>
      </trkpt>
      <trkpt lat="45.84935" lon="1.29618">
        <ele>257.4</ele>
        <time>2025-06-16T12:56:54Z</time>
      </trkpt>
      <trkpt lat="45.84937" lon="1.29622">
        <ele>257.5</ele>
        <time>2025-06-16T12:56:55Z</time>
      </trkpt>
      <trkpt lat="45.84938" lon="1.29626">
        <ele>257.7</ele>
        <time>2025-06-16T12:56:56Z</time>
      </trkpt>
      <trkpt lat="45.8494" lon="1.29629">
        <ele>257.8</ele>
        <time>2025-06-16T12:56:57Z</time>
      </trkpt>
      <trkpt lat="45.84942" lon="1.29633">
        <ele>258</ele>
        <time>2025-06-16T12:56:58Z</time>
      </trkpt>
      <trkpt lat="45.84943" lon="1.29637">
        <ele>258.2</ele>
        <time>2025-06-16T12:56:59Z</time>
      </trkpt>
      <trkpt lat="45.84945" lon="1.29642">
        <ele>258.4</ele>
        <time>2025-06-16T12:57:00Z</time>
      </trkpt>
      <trkpt lat="45.84947" lon="1.29646">
        <ele>258.5</ele>
        <time>2025-06-16T12:57:01Z</time>
      </trkpt>
      <trkpt lat="45.84949" lon="1.2965">
        <ele>258.7</ele>
        <time>2025-06-16T12:57:02Z</time>
      </trkpt>
      <trkpt lat="45.84951" lon="1.29654">
        <ele>258.9</ele>
        <time>2025-06-16T12:57:03Z</time>
      </trkpt>
      <trkpt lat="45.84953" lon="1.29658">
        <ele>259.1</ele>
        <time>2025-06-16T12:57:04Z</time>
      </trkpt>
      <trkpt lat="45.84954" lon="1.29662">
        <ele>259.2</ele>
        <time>2025-06-16T12:57:05Z</time>
      </trkpt>
      <trkpt lat="45.84956" lon="1.29666">
        <ele>259.4</ele>
        <time>2025-06-16T12:57:06Z</time>
      </trkpt>
      <trkpt lat="45.84957" lon="1.2967">
        <ele>259.6</ele>
        <time>2025-06-16T12:57:07Z</time>
      </trkpt>
      <trkpt lat="45.84959" lon="1.29674">
        <ele>259.7</ele>
        <time>2025-06-16T12:57:08Z</time>
      </trkpt>
      <trkpt lat="45.8496" lon="1.29678">
        <ele>259.9</ele>
        <time>2025-06-16T12:57:09Z</time>
      </trkpt>
      <trkpt lat="45.84962" lon="1.29682">
        <ele>260.1</ele>
        <time>2025-06-16T12:57:10Z</time>
      </trkpt>
      <trkpt lat="45.84963" lon="1.29685">
        <ele>260.2</ele>
        <time>2025-06-16T12:57:11Z</time>
      </trkpt>
      <trkpt lat="45.84965" lon="1.29689">
        <ele>260.4</ele>
        <time>2025-06-16T12:57:12Z</time>
      </trkpt>
      <trkpt lat="45.84967" lon="1.29693">
        <ele>260.6</ele>
        <time>2025-06-16T12:57:13Z</time>
      </trkpt>
      <trkpt lat="45.84968" lon="1.29697">
        <ele>260.7</ele>
        <time>2025-06-16T12:57:14Z</time>
      </trkpt>
      <trkpt lat="45.8497" lon="1.297">
        <ele>260.9</ele>
        <time>2025-06-16T12:57:15Z</time>
      </trkpt>
      <trkpt lat="45.84971" lon="1.29704">
        <ele>261.1</ele>
        <time>2025-06-16T12:57:16Z</time>
      </trkpt>
      <trkpt lat="45.84973" lon="1.29708">
        <ele>261.2</ele>
        <time>2025-06-16T12:57:17Z</time>
      </trkpt>
      <trkpt lat="45.84975" lon="1.29711">
        <ele>261.4</ele>
        <time>2025-06-16T12:57:18Z</time>
      </trkpt>
      <trkpt lat="45.84976" lon="1.29715">
        <ele>261.6</ele>
        <time>2025-06-16T12:57:19Z</time>
      </trkpt>
      <trkpt lat="45.84978" lon="1.29718">
        <ele>261.7</ele>
        <time>2025-06-16T12:57:20Z</time>
      </trkpt>
      <trkpt lat="45.84979" lon="1.29722">
        <ele>261.9</ele>
        <time>2025-06-16T12:57:21Z</time>
      </trkpt>
      <trkpt lat="45.84981" lon="1.29725">
        <ele>262.1</ele>
        <time>2025-06-16T12:57:22Z</time>
      </trkpt>
      <trkpt lat="45.84983" lon="1.29729">
        <ele>262.2</ele>
        <time>2025-06-16T12:57:23Z</time>
      </trkpt>
      <trkpt lat="45.84984" lon="1.29732">
        <ele>262.4</ele>
        <time>2025-06-16T12:57:24Z</time>
      </trkpt>
      <trkpt lat="45.84986" lon="1.29735">
        <ele>262.5</ele>
        <time>2025-06-16T12:57:25Z</time>
      </trkpt>
      <trkpt lat="45.84987" lon="1.29739">
        <ele>262.7</ele>
        <time>2025-06-16T12:57:26Z</time>
      </trkpt>
      <trkpt lat="45.84988" lon="1.29743">
        <ele>262.8</ele>
        <time>2025-06-16T12:57:27Z</time>
      </trkpt>
      <trkpt lat="45.8499" lon="1.29746">
        <ele>263</ele>
        <time>2025-06-16T12:57:28Z</time>
      </trkpt>
      <trkpt lat="45.84991" lon="1.29749">
        <ele>263.2</ele>
        <time>2025-06-16T12:57:29Z</time>
      </trkpt>
      <trkpt lat="45.84993" lon="1.29753">
        <ele>263.3</ele>
        <time>2025-06-16T12:57:30Z</time>
      </trkpt>
      <trkpt lat="45.84994" lon="1.29757">
        <ele>263.5</ele>
        <time>2025-06-16T12:57:31Z</time>
      </trkpt>
      <trkpt lat="45.84995" lon="1.2976">
        <ele>263.6</ele>
        <time>2025-06-16T12:57:32Z</time>
      </trkpt>
      <trkpt lat="45.84997" lon="1.29765">
        <ele>263.9</ele>
        <time>2025-06-16T12:57:33Z</time>
      </trkpt>
      <trkpt lat="45.84998" lon="1.29766">
        <ele>263.9</ele>
        <time>2025-06-16T12:57:34Z</time>
      </trkpt>
      <trkpt lat="45.85" lon="1.29771">
        <ele>264.1</ele>
        <time>2025-06-16T12:57:35Z</time>
      </trkpt>
      <trkpt lat="45.85001" lon="1.29773">
        <ele>264.2</ele>
        <time>2025-06-16T12:57:36Z</time>
      </trkpt>
      <trkpt lat="45.85003" lon="1.29777">
        <ele>264.4</ele>
        <time>2025-06-16T12:57:37Z</time>
      </trkpt>
      <trkpt lat="45.85004" lon="1.29779">
        <ele>264.5</ele>
        <time>2025-06-16T12:57:38Z</time>
      </trkpt>
      <trkpt lat="45.85006" lon="1.29784">
        <ele>264.7</ele>
        <time>2025-06-16T12:57:39Z</time>
      </trkpt>
      <trkpt lat="45.85006" lon="1.29786">
        <ele>264.8</ele>
        <time>2025-06-16T12:57:40Z</time>
      </trkpt>
      <trkpt lat="45.85008" lon="1.2979">
        <ele>265</ele>
        <time>2025-06-16T12:57:41Z</time>
      </trkpt>
      <trkpt lat="45.85009" lon="1.29792">
        <ele>265.1</ele>
        <time>2025-06-16T12:57:42Z</time>
      </trkpt>
      <trkpt lat="45.85011" lon="1.29797">
        <ele>265.3</ele>
        <time>2025-06-16T12:57:43Z</time>
      </trkpt>
      <trkpt lat="45.85012" lon="1.29798">
        <ele>265.4</ele>
        <time>2025-06-16T12:57:44Z</time>
      </trkpt>
      <trkpt lat="45.85013" lon="1.29802">
        <ele>265.6</ele>
        <time>2025-06-16T12:57:45Z</time>
      </trkpt>
      <trkpt lat="45.85015" lon="1.29805">
        <ele>265.7</ele>
        <time>2025-06-16T12:57:46Z</time>
      </trkpt>
      <trkpt lat="45.85017" lon="1.29808">
        <ele>265.9</ele>
        <time>2025-06-16T12:57:47Z</time>
      </trkpt>
      <trkpt lat="45.85018" lon="1.29812">
        <ele>266.1</ele>
        <time>2025-06-16T12:57:48Z</time>
      </trkpt>
      <trkpt lat="45.8502" lon="1.29817">
        <ele>266.3</ele>
        <time>2025-06-16T12:57:49Z</time>
      </trkpt>
      <trkpt lat="45.85021" lon="1.29818">
        <ele>266.3</ele>
        <time>2025-06-16T12:57:50Z</time>
      </trkpt>
      <trkpt lat="45.85024" lon="1.29822">
        <ele>266.5</ele>
        <time>2025-06-16T12:57:51Z</time>
      </trkpt>
      <trkpt lat="45.85024" lon="1.29824">
        <ele>266.6</ele>
        <time>2025-06-16T12:57:52Z</time>
      </trkpt>
      <trkpt lat="45.85026" lon="1.29827">
        <ele>266.7</ele>
        <time>2025-06-16T12:57:53Z</time>
      </trkpt>
      <trkpt lat="45.85028" lon="1.29829">
        <ele>266.9</ele>
        <time>2025-06-16T12:57:54Z</time>
      </trkpt>
      <trkpt lat="45.85031" lon="1.29831">
        <ele>267</ele>
        <time>2025-06-16T12:57:55Z</time>
      </trkpt>
      <trkpt lat="45.85034" lon="1.29834">
        <ele>267.2</ele>
        <time>2025-06-16T12:57:56Z</time>
      </trkpt>
      <trkpt lat="45.85035" lon="1.29834">
        <ele>267.2</ele>
        <time>2025-06-16T12:57:57Z</time>
      </trkpt>
      <trkpt lat="45.85036" lon="1.29836">
        <ele>267.3</ele>
        <time>2025-06-16T12:57:58Z</time>
      </trkpt>
      <trkpt lat="45.85037" lon="1.29836">
        <ele>267.3</ele>
        <time>2025-06-16T12:57:59Z</time>
      </trkpt>
      <trkpt lat="45.85037" lon="1.29836">
        <ele>267.3</ele>
        <time>2025-06-16T12:58:00Z</time>
      </trkpt>
      <trkpt lat="45.85037" lon="1.29836">
        <ele>267.3</ele>
        <time>2025-06-16T12:58:01Z</time>
      </trkpt>
      <trkpt lat="45.85037" lon="1.29836">
        <ele>267.5</ele>
        <time>2025-06-16T12:58:02Z</time>
      </trkpt>
      <trkpt lat="45.85037" lon="1.29836">
        <ele>267.8</ele>
        <time>2025-06-16T12:58:03Z</time>
      </trkpt>
      <trkpt lat="45.85036" lon="1.29836">
        <ele>268</ele>
        <time>2025-06-16T12:58:04Z</time>
      </trkpt>
      <trkpt lat="45.85036" lon="1.29835">
        <ele>268.2</ele>
        <time>2025-06-16T12:58:05Z</time>
      </trkpt>
      <trkpt lat="45.85036" lon="1.29835">
        <ele>268.4</ele>
        <time>2025-06-16T12:58:06Z</time>
      </trkpt>
      <trkpt lat="45.85036" lon="1.29835">
        <ele>268.6</ele>
        <time>2025-06-16T12:58:07Z</time>
      </trkpt>
      <trkpt lat="45.85036" lon="1.29835">
        <ele>268.8</ele>
        <time>2025-06-16T12:58:08Z</time>
      </trkpt>
      <trkpt lat="45.85036" lon="1.29835">
        <ele>269</ele>
        <time>2025-06-16T12:58:09Z</time>
      </trkpt>
      <trkpt lat="45.85036" lon="1.29835">
        <ele>269.3</ele>
        <time>2025-06-16T12:58:10Z</time>
      </trkpt>
      <trkpt lat="45.85036" lon="1.29835">
        <ele>269.5</ele>
        <time>2025-06-16T12:58:11Z</time>
      </trkpt>
      <trkpt lat="45.85036" lon="1.29835">
        <ele>269.7</ele>
        <time>2025-06-16T12:58:12Z</time>
      </trkpt>
      <trkpt lat="45.85036" lon="1.29835">
        <ele>269.9</ele>
        <time>2025-06-16T12:58:13Z</time>
      </trkpt>
      <trkpt lat="45.85036" lon="1.29835">
        <ele>270.1</ele>
        <time>2025-06-16T12:58:14Z</time>
      </trkpt>
      <trkpt lat="45.85036" lon="1.29835">
        <ele>270.3</ele>
        <time>2025-06-16T12:58:15Z</time>
      </trkpt>
      <trkpt lat="45.85036" lon="1.29836">
        <ele>270.5</ele>
        <time>2025-06-16T12:58:16Z</time>
      </trkpt>
      <trkpt lat="45.85037" lon="1.29838">
        <ele>270.9</ele>
        <time>2025-06-16T12:58:17Z</time>
      </trkpt>
      <trkpt lat="45.85039" lon="1.29844">
        <ele>271.4</ele>
        <time>2025-06-16T12:58:18Z</time>
      </trkpt>
      <trkpt lat="45.8504" lon="1.29845">
        <ele>271.8</ele>
        <time>2025-06-16T12:58:19Z</time>
      </trkpt>
      <trkpt lat="45.85042" lon="1.2985">
        <ele>272.3</ele>
        <time>2025-06-16T12:58:20Z</time>
      </trkpt>
      <trkpt lat="45.85044" lon="1.29855">
        <ele>272.7</ele>
        <time>2025-06-16T12:58:21Z</time>
      </trkpt>
      <trkpt lat="45.85046" lon="1.29859">
        <ele>273.2</ele>
        <time>2025-06-16T12:58:22Z</time>
      </trkpt>
      <trkpt lat="45.85049" lon="1.29863">
        <ele>273.7</ele>
        <time>2025-06-16T12:58:23Z</time>
      </trkpt>
      <trkpt lat="45.85051" lon="1.29865">
        <ele>273.8</ele>
        <time>2025-06-16T12:58:24Z</time>
      </trkpt>
      <trkpt lat="45.85054" lon="1.29864">
        <ele>273.9</ele>
        <time>2025-06-16T12:58:25Z</time>
      </trkpt>
      <trkpt lat="45.85056" lon="1.29859">
        <ele>274</ele>
        <time>2025-06-16T12:58:26Z</time>
      </trkpt>
      <trkpt lat="45.85057" lon="1.29857">
        <ele>274.1</ele>
        <time>2025-06-16T12:58:27Z</time>
      </trkpt>
      <trkpt lat="45.85057" lon="1.29853">
        <ele>274.1</ele>
        <time>2025-06-16T12:58:28Z</time>
      </trkpt>
      <trkpt lat="45.85059" lon="1.2985">
        <ele>274.2</ele>
        <time>2025-06-16T12:58:29Z</time>
      </trkpt>
      <trkpt lat="45.8506" lon="1.29846">
        <ele>274.3</ele>
        <time>2025-06-16T12:58:30Z</time>
      </trkpt>
      <trkpt lat="45.85062" lon="1.29844">
        <ele>274.4</ele>
        <time>2025-06-16T12:58:31Z</time>
      </trkpt>
      <trkpt lat="45.85066" lon="1.29841">
        <ele>274.5</ele>
        <time>2025-06-16T12:58:32Z</time>
      </trkpt>
      <trkpt lat="45.85067" lon="1.2984">
        <ele>274.6</ele>
        <time>2025-06-16T12:58:33Z</time>
      </trkpt>
      <trkpt lat="45.8507" lon="1.29837">
        <ele>274.7</ele>
        <time>2025-06-16T12:58:34Z</time>
      </trkpt>
      <trkpt lat="45.85071" lon="1.29836">
        <ele>274.7</ele>
        <time>2025-06-16T12:58:35Z</time>
      </trkpt>
      <trkpt lat="45.85074" lon="1.29835">
        <ele>274.8</ele>
        <time>2025-06-16T12:58:36Z</time>
      </trkpt>
      <trkpt lat="45.85076" lon="1.29833">
        <ele>274.9</ele>
        <time>2025-06-16T12:58:37Z</time>
      </trkpt>
      <trkpt lat="45.85079" lon="1.2983">
        <ele>275</ele>
        <time>2025-06-16T12:58:38Z</time>
      </trkpt>
      <trkpt lat="45.85081" lon="1.29828">
        <ele>275.1</ele>
        <time>2025-06-16T12:58:39Z</time>
      </trkpt>
      <trkpt lat="45.85083" lon="1.29826">
        <ele>275.2</ele>
        <time>2025-06-16T12:58:40Z</time>
      </trkpt>
      <trkpt lat="45.85086" lon="1.29824">
        <ele>275.4</ele>
        <time>2025-06-16T12:58:41Z</time>
      </trkpt>
      <trkpt lat="45.85088" lon="1.29822">
        <ele>275.5</ele>
        <time>2025-06-16T12:58:42Z</time>
      </trkpt>
      <trkpt lat="45.85091" lon="1.2982">
        <ele>275.6</ele>
        <time>2025-06-16T12:58:43Z</time>
      </trkpt>
      <trkpt lat="45.85093" lon="1.29817">
        <ele>275.7</ele>
        <time>2025-06-16T12:58:44Z</time>
      </trkpt>
      <trkpt lat="45.85096" lon="1.29815">
        <ele>275.9</ele>
        <time>2025-06-16T12:58:45Z</time>
      </trkpt>
      <trkpt lat="45.85098" lon="1.29813">
        <ele>276</ele>
        <time>2025-06-16T12:58:46Z</time>
      </trkpt>
      <trkpt lat="45.85101" lon="1.29811">
        <ele>276.1</ele>
        <time>2025-06-16T12:58:47Z</time>
      </trkpt>
      <trkpt lat="45.85103" lon="1.29809">
        <ele>276.2</ele>
        <time>2025-06-16T12:58:48Z</time>
      </trkpt>
      <trkpt lat="45.85106" lon="1.29807">
        <ele>276.5</ele>
        <time>2025-06-16T12:58:49Z</time>
      </trkpt>
      <trkpt lat="45.85109" lon="1.29805">
        <ele>276.6</ele>
        <time>2025-06-16T12:58:50Z</time>
      </trkpt>
      <trkpt lat="45.85112" lon="1.29803">
        <ele>276.7</ele>
        <time>2025-06-16T12:58:51Z</time>
      </trkpt>
      <trkpt lat="45.85114" lon="1.298">
        <ele>276.7</ele>
        <time>2025-06-16T12:58:52Z</time>
      </trkpt>
      <trkpt lat="45.85117" lon="1.29798">
        <ele>276.8</ele>
        <time>2025-06-16T12:58:53Z</time>
      </trkpt>
      <trkpt lat="45.85121" lon="1.29796">
        <ele>276.9</ele>
        <time>2025-06-16T12:58:54Z</time>
      </trkpt>
      <trkpt lat="45.85124" lon="1.29795">
        <ele>277</ele>
        <time>2025-06-16T12:58:55Z</time>
      </trkpt>
      <trkpt lat="45.85127" lon="1.29793">
        <ele>277.1</ele>
        <time>2025-06-16T12:58:56Z</time>
      </trkpt>
      <trkpt lat="45.8513" lon="1.2979">
        <ele>277.2</ele>
        <time>2025-06-16T12:58:57Z</time>
      </trkpt>
      <trkpt lat="45.85132" lon="1.29787">
        <ele>277.3</ele>
        <time>2025-06-16T12:58:58Z</time>
      </trkpt>
      <trkpt lat="45.85134" lon="1.29783">
        <ele>277.4</ele>
        <time>2025-06-16T12:58:59Z</time>
      </trkpt>
      <trkpt lat="45.85137" lon="1.29781">
        <ele>277.5</ele>
        <time>2025-06-16T12:59:00Z</time>
      </trkpt>
      <trkpt lat="45.8514" lon="1.29778">
        <ele>277.6</ele>
        <time>2025-06-16T12:59:01Z</time>
      </trkpt>
      <trkpt lat="45.85143" lon="1.29776">
        <ele>277.8</ele>
        <time>2025-06-16T12:59:02Z</time>
      </trkpt>
      <trkpt lat="45.85145" lon="1.29774">
        <ele>277.9</ele>
        <time>2025-06-16T12:59:03Z</time>
      </trkpt>
      <trkpt lat="45.85148" lon="1.29771">
        <ele>278</ele>
        <time>2025-06-16T12:59:04Z</time>
      </trkpt>
      <trkpt lat="45.8515" lon="1.29769">
        <ele>278.1</ele>
        <time>2025-06-16T12:59:05Z</time>
      </trkpt>
      <trkpt lat="45.85153" lon="1.29767">
        <ele>278.2</ele>
        <time>2025-06-16T12:59:06Z</time>
      </trkpt>
      <trkpt lat="45.85156" lon="1.29766">
        <ele>278.3</ele>
        <time>2025-06-16T12:59:07Z</time>
      </trkpt>
      <trkpt lat="45.85158" lon="1.29764">
        <ele>278.5</ele>
        <time>2025-06-16T12:59:08Z</time>
      </trkpt>
      <trkpt lat="45.85161" lon="1.29761">
        <ele>278.6</ele>
        <time>2025-06-16T12:59:09Z</time>
      </trkpt>
      <trkpt lat="45.85163" lon="1.29759">
        <ele>278.7</ele>
        <time>2025-06-16T12:59:10Z</time>
      </trkpt>
      <trkpt lat="45.85166" lon="1.29758">
        <ele>278.9</ele>
        <time>2025-06-16T12:59:11Z</time>
      </trkpt>
      <trkpt lat="45.85169" lon="1.29755">
        <ele>279</ele>
        <time>2025-06-16T12:59:12Z</time>
      </trkpt>
      <trkpt lat="45.85171" lon="1.29753">
        <ele>279.2</ele>
        <time>2025-06-16T12:59:13Z</time>
      </trkpt>
      <trkpt lat="45.85174" lon="1.2975">
        <ele>279.4</ele>
        <time>2025-06-16T12:59:14Z</time>
      </trkpt>
      <trkpt lat="45.85177" lon="1.29748">
        <ele>279.5</ele>
        <time>2025-06-16T12:59:15Z</time>
      </trkpt>
      <trkpt lat="45.8518" lon="1.29745">
        <ele>279.7</ele>
        <time>2025-06-16T12:59:16Z</time>
      </trkpt>
      <trkpt lat="45.85183" lon="1.29743">
        <ele>279.9</ele>
        <time>2025-06-16T12:59:17Z</time>
      </trkpt>
      <trkpt lat="45.85186" lon="1.2974">
        <ele>280.1</ele>
        <time>2025-06-16T12:59:18Z</time>
      </trkpt>
      <trkpt lat="45.85188" lon="1.29738">
        <ele>280.3</ele>
        <time>2025-06-16T12:59:19Z</time>
      </trkpt>
      <trkpt lat="45.85191" lon="1.29736">
        <ele>280.5</ele>
        <time>2025-06-16T12:59:20Z</time>
      </trkpt>
      <trkpt lat="45.85194" lon="1.29733">
        <ele>280.6</ele>
        <time>2025-06-16T12:59:21Z</time>
      </trkpt>
      <trkpt lat="45.85196" lon="1.29731">
        <ele>280.8</ele>
        <time>2025-06-16T12:59:22Z</time>
      </trkpt>
      <trkpt lat="45.85199" lon="1.29728">
        <ele>281</ele>
        <time>2025-06-16T12:59:23Z</time>
      </trkpt>
      <trkpt lat="45.85201" lon="1.29726">
        <ele>281.2</ele>
        <time>2025-06-16T12:59:24Z</time>
      </trkpt>
      <trkpt lat="45.85203" lon="1.29725">
        <ele>281.3</ele>
        <time>2025-06-16T12:59:25Z</time>
      </trkpt>
      <trkpt lat="45.85206" lon="1.29723">
        <ele>281.5</ele>
        <time>2025-06-16T12:59:26Z</time>
      </trkpt>
      <trkpt lat="45.85208" lon="1.2972">
        <ele>281.7</ele>
        <time>2025-06-16T12:59:27Z</time>
      </trkpt>
      <trkpt lat="45.85211" lon="1.29718">
        <ele>281.9</ele>
        <time>2025-06-16T12:59:28Z</time>
      </trkpt>
      <trkpt lat="45.85213" lon="1.29715">
        <ele>282</ele>
        <time>2025-06-16T12:59:29Z</time>
      </trkpt>
      <trkpt lat="45.85216" lon="1.29713">
        <ele>282.2</ele>
        <time>2025-06-16T12:59:30Z</time>
      </trkpt>
      <trkpt lat="45.85218" lon="1.2971">
        <ele>282.4</ele>
        <time>2025-06-16T12:59:31Z</time>
      </trkpt>
      <trkpt lat="45.8522" lon="1.29707">
        <ele>282.6</ele>
        <time>2025-06-16T12:59:32Z</time>
      </trkpt>
      <trkpt lat="45.85223" lon="1.29704">
        <ele>282.7</ele>
        <time>2025-06-16T12:59:33Z</time>
      </trkpt>
      <trkpt lat="45.85226" lon="1.29701">
        <ele>283</ele>
        <time>2025-06-16T12:59:34Z</time>
      </trkpt>
      <trkpt lat="45.85227" lon="1.297">
        <ele>283</ele>
        <time>2025-06-16T12:59:35Z</time>
      </trkpt>
      <trkpt lat="45.8523" lon="1.29698">
        <ele>283.2</ele>
        <time>2025-06-16T12:59:36Z</time>
      </trkpt>
      <trkpt lat="45.85232" lon="1.29695">
        <ele>283.4</ele>
        <time>2025-06-16T12:59:37Z</time>
      </trkpt>
      <trkpt lat="45.85235" lon="1.29693">
        <ele>283.6</ele>
        <time>2025-06-16T12:59:38Z</time>
      </trkpt>
      <trkpt lat="45.85238" lon="1.29691">
        <ele>283.8</ele>
        <time>2025-06-16T12:59:39Z</time>
      </trkpt>
      <trkpt lat="45.8524" lon="1.29689">
        <ele>283.9</ele>
        <time>2025-06-16T12:59:40Z</time>
      </trkpt>
      <trkpt lat="45.85243" lon="1.29686">
        <ele>284.1</ele>
        <time>2025-06-16T12:59:41Z</time>
      </trkpt>
      <trkpt lat="45.85245" lon="1.29683">
        <ele>284.3</ele>
        <time>2025-06-16T12:59:42Z</time>
      </trkpt>
      <trkpt lat="45.85248" lon="1.29681">
        <ele>284.5</ele>
        <time>2025-06-16T12:59:43Z</time>
      </trkpt>
      <trkpt lat="45.8525" lon="1.29678">
        <ele>284.6</ele>
        <time>2025-06-16T12:59:44Z</time>
      </trkpt>
      <trkpt lat="45.85253" lon="1.29676">
        <ele>284.8</ele>
        <time>2025-06-16T12:59:45Z</time>
      </trkpt>
      <trkpt lat="45.85256" lon="1.29673">
        <ele>285</ele>
        <time>2025-06-16T12:59:46Z</time>
      </trkpt>
      <trkpt lat="45.85257" lon="1.29672">
        <ele>285.1</ele>
        <time>2025-06-16T12:59:47Z</time>
      </trkpt>
      <trkpt lat="45.85261" lon="1.29669">
        <ele>285.3</ele>
        <time>2025-06-16T12:59:48Z</time>
      </trkpt>
      <trkpt lat="45.85262" lon="1.29668">
        <ele>285.4</ele>
        <time>2025-06-16T12:59:49Z</time>
      </trkpt>
      <trkpt lat="45.85264" lon="1.29665">
        <ele>285.5</ele>
        <time>2025-06-16T12:59:50Z</time>
      </trkpt>
      <trkpt lat="45.85266" lon="1.29663">
        <ele>285.6</ele>
        <time>2025-06-16T12:59:51Z</time>
      </trkpt>
      <trkpt lat="45.85269" lon="1.2966">
        <ele>285.8</ele>
        <time>2025-06-16T12:59:52Z</time>
      </trkpt>
      <trkpt lat="45.85271" lon="1.29658">
        <ele>285.9</ele>
        <time>2025-06-16T12:59:53Z</time>
      </trkpt>
      <trkpt lat="45.85273" lon="1.29655">
        <ele>286.1</ele>
        <time>2025-06-16T12:59:54Z</time>
      </trkpt>
      <trkpt lat="45.85276" lon="1.29652">
        <ele>286.2</ele>
        <time>2025-06-16T12:59:55Z</time>
      </trkpt>
      <trkpt lat="45.85278" lon="1.2965">
        <ele>286.4</ele>
        <time>2025-06-16T12:59:56Z</time>
      </trkpt>
      <trkpt lat="45.8528" lon="1.29647">
        <ele>286.5</ele>
        <time>2025-06-16T12:59:57Z</time>
      </trkpt>
      <trkpt lat="45.85282" lon="1.29645">
        <ele>286.7</ele>
        <time>2025-06-16T12:59:58Z</time>
      </trkpt>
      <trkpt lat="45.85285" lon="1.29643">
        <ele>286.8</ele>
        <time>2025-06-16T12:59:59Z</time>
      </trkpt>
      <trkpt lat="45.85287" lon="1.2964">
        <ele>287</ele>
        <time>2025-06-16T13:00:00Z</time>
      </trkpt>
      <trkpt lat="45.8529" lon="1.29638">
        <ele>287.1</ele>
        <time>2025-06-16T13:00:01Z</time>
      </trkpt>
      <trkpt lat="45.85292" lon="1.29636">
        <ele>287.2</ele>
        <time>2025-06-16T13:00:02Z</time>
      </trkpt>
      <trkpt lat="45.85295" lon="1.29633">
        <ele>287.4</ele>
        <time>2025-06-16T13:00:03Z</time>
      </trkpt>
      <trkpt lat="45.85297" lon="1.29631">
        <ele>287.5</ele>
        <time>2025-06-16T13:00:04Z</time>
      </trkpt>
      <trkpt lat="45.85299" lon="1.29629">
        <ele>287.7</ele>
        <time>2025-06-16T13:00:05Z</time>
      </trkpt>
      <trkpt lat="45.85302" lon="1.29626">
        <ele>287.8</ele>
        <time>2025-06-16T13:00:06Z</time>
      </trkpt>
      <trkpt lat="45.85304" lon="1.29624">
        <ele>288</ele>
        <time>2025-06-16T13:00:07Z</time>
      </trkpt>
      <trkpt lat="45.85306" lon="1.29621">
        <ele>288.1</ele>
        <time>2025-06-16T13:00:08Z</time>
      </trkpt>
      <trkpt lat="45.85308" lon="1.29618">
        <ele>288.3</ele>
        <time>2025-06-16T13:00:09Z</time>
      </trkpt>
      <trkpt lat="45.85311" lon="1.29616">
        <ele>288.4</ele>
        <time>2025-06-16T13:00:10Z</time>
      </trkpt>
      <trkpt lat="45.85313" lon="1.29613">
        <ele>288.5</ele>
        <time>2025-06-16T13:00:11Z</time>
      </trkpt>
      <trkpt lat="45.85316" lon="1.2961">
        <ele>288.8</ele>
        <time>2025-06-16T13:00:12Z</time>
      </trkpt>
      <trkpt lat="45.85317" lon="1.29609">
        <ele>288.8</ele>
        <time>2025-06-16T13:00:13Z</time>
      </trkpt>
      <trkpt lat="45.85319" lon="1.29607">
        <ele>289</ele>
        <time>2025-06-16T13:00:14Z</time>
      </trkpt>
      <trkpt lat="45.85322" lon="1.29604">
        <ele>289.1</ele>
        <time>2025-06-16T13:00:15Z</time>
      </trkpt>
      <trkpt lat="45.85324" lon="1.29602">
        <ele>289.3</ele>
        <time>2025-06-16T13:00:16Z</time>
      </trkpt>
      <trkpt lat="45.85326" lon="1.29599">
        <ele>289.4</ele>
        <time>2025-06-16T13:00:17Z</time>
      </trkpt>
      <trkpt lat="45.85328" lon="1.29596">
        <ele>289.6</ele>
        <time>2025-06-16T13:00:18Z</time>
      </trkpt>
      <trkpt lat="45.85332" lon="1.29593">
        <ele>289.8</ele>
        <time>2025-06-16T13:00:19Z</time>
      </trkpt>
      <trkpt lat="45.85333" lon="1.29592">
        <ele>289.8</ele>
        <time>2025-06-16T13:00:20Z</time>
      </trkpt>
      <trkpt lat="45.85337" lon="1.29589">
        <ele>290.1</ele>
        <time>2025-06-16T13:00:21Z</time>
      </trkpt>
      <trkpt lat="45.85338" lon="1.29588">
        <ele>290.1</ele>
        <time>2025-06-16T13:00:22Z</time>
      </trkpt>
      <trkpt lat="45.8534" lon="1.29586">
        <ele>290.3</ele>
        <time>2025-06-16T13:00:23Z</time>
      </trkpt>
      <trkpt lat="45.85342" lon="1.29584">
        <ele>290.4</ele>
        <time>2025-06-16T13:00:24Z</time>
      </trkpt>
      <trkpt lat="45.85345" lon="1.2958">
        <ele>290.6</ele>
        <time>2025-06-16T13:00:25Z</time>
      </trkpt>
      <trkpt lat="45.85346" lon="1.29579">
        <ele>290.7</ele>
        <time>2025-06-16T13:00:26Z</time>
      </trkpt>
      <trkpt lat="45.8535" lon="1.29577">
        <ele>290.9</ele>
        <time>2025-06-16T13:00:27Z</time>
      </trkpt>
      <trkpt lat="45.85351" lon="1.29576">
        <ele>291</ele>
        <time>2025-06-16T13:00:28Z</time>
      </trkpt>
      <trkpt lat="45.85354" lon="1.29573">
        <ele>291.2</ele>
        <time>2025-06-16T13:00:29Z</time>
      </trkpt>
      <trkpt lat="45.85355" lon="1.29572">
        <ele>291.3</ele>
        <time>2025-06-16T13:00:30Z</time>
      </trkpt>
      <trkpt lat="45.85357" lon="1.2957">
        <ele>291.5</ele>
        <time>2025-06-16T13:00:31Z</time>
      </trkpt>
      <trkpt lat="45.85361" lon="1.29566">
        <ele>291.7</ele>
        <time>2025-06-16T13:00:32Z</time>
      </trkpt>
      <trkpt lat="45.85362" lon="1.29565">
        <ele>291.8</ele>
        <time>2025-06-16T13:00:33Z</time>
      </trkpt>
      <trkpt lat="45.85365" lon="1.29564">
        <ele>291.9</ele>
        <time>2025-06-16T13:00:34Z</time>
      </trkpt>
      <trkpt lat="45.85367" lon="1.29562">
        <ele>292.1</ele>
        <time>2025-06-16T13:00:35Z</time>
      </trkpt>
      <trkpt lat="45.85369" lon="1.29559">
        <ele>292.2</ele>
        <time>2025-06-16T13:00:36Z</time>
      </trkpt>
      <trkpt lat="45.85372" lon="1.29557">
        <ele>292.4</ele>
        <time>2025-06-16T13:00:37Z</time>
      </trkpt>
      <trkpt lat="45.85374" lon="1.29554">
        <ele>292.6</ele>
        <time>2025-06-16T13:00:38Z</time>
      </trkpt>
      <trkpt lat="45.85376" lon="1.29552">
        <ele>292.7</ele>
        <time>2025-06-16T13:00:39Z</time>
      </trkpt>
      <trkpt lat="45.85379" lon="1.2955">
        <ele>292.9</ele>
        <time>2025-06-16T13:00:40Z</time>
      </trkpt>
      <trkpt lat="45.85381" lon="1.29548">
        <ele>293</ele>
        <time>2025-06-16T13:00:41Z</time>
      </trkpt>
      <trkpt lat="45.85383" lon="1.29545">
        <ele>293.2</ele>
        <time>2025-06-16T13:00:42Z</time>
      </trkpt>
      <trkpt lat="45.85386" lon="1.29543">
        <ele>293.4</ele>
        <time>2025-06-16T13:00:43Z</time>
      </trkpt>
      <trkpt lat="45.85389" lon="1.2954">
        <ele>293.5</ele>
        <time>2025-06-16T13:00:44Z</time>
      </trkpt>
      <trkpt lat="45.85391" lon="1.29538">
        <ele>293.7</ele>
        <time>2025-06-16T13:00:45Z</time>
      </trkpt>
      <trkpt lat="45.85394" lon="1.29536">
        <ele>293.9</ele>
        <time>2025-06-16T13:00:46Z</time>
      </trkpt>
      <trkpt lat="45.85396" lon="1.29533">
        <ele>294.1</ele>
        <time>2025-06-16T13:00:47Z</time>
      </trkpt>
      <trkpt lat="45.85399" lon="1.29531">
        <ele>294.2</ele>
        <time>2025-06-16T13:00:48Z</time>
      </trkpt>
      <trkpt lat="45.85401" lon="1.29529">
        <ele>294.4</ele>
        <time>2025-06-16T13:00:49Z</time>
      </trkpt>
      <trkpt lat="45.85403" lon="1.29526">
        <ele>294.6</ele>
        <time>2025-06-16T13:00:50Z</time>
      </trkpt>
      <trkpt lat="45.85406" lon="1.29524">
        <ele>294.7</ele>
        <time>2025-06-16T13:00:51Z</time>
      </trkpt>
      <trkpt lat="45.85408" lon="1.29522">
        <ele>294.9</ele>
        <time>2025-06-16T13:00:52Z</time>
      </trkpt>
      <trkpt lat="45.85411" lon="1.29519">
        <ele>295.1</ele>
        <time>2025-06-16T13:00:53Z</time>
      </trkpt>
      <trkpt lat="45.85413" lon="1.29517">
        <ele>295.2</ele>
        <time>2025-06-16T13:00:54Z</time>
      </trkpt>
      <trkpt lat="45.85416" lon="1.29514">
        <ele>295.5</ele>
        <time>2025-06-16T13:00:55Z</time>
      </trkpt>
      <trkpt lat="45.85417" lon="1.29513">
        <ele>295.5</ele>
        <time>2025-06-16T13:00:56Z</time>
      </trkpt>
      <trkpt lat="45.8542" lon="1.29509">
        <ele>295.8</ele>
        <time>2025-06-16T13:00:57Z</time>
      </trkpt>
      <trkpt lat="45.85421" lon="1.29508">
        <ele>295.9</ele>
        <time>2025-06-16T13:00:58Z</time>
      </trkpt>
      <trkpt lat="45.85424" lon="1.29505">
        <ele>296.1</ele>
        <time>2025-06-16T13:00:59Z</time>
      </trkpt>
      <trkpt lat="45.85425" lon="1.29503">
        <ele>296.1</ele>
        <time>2025-06-16T13:01:00Z</time>
      </trkpt>
      <trkpt lat="45.85429" lon="1.295">
        <ele>296.3</ele>
        <time>2025-06-16T13:01:01Z</time>
      </trkpt>
      <trkpt lat="45.8543" lon="1.29499">
        <ele>296.4</ele>
        <time>2025-06-16T13:01:02Z</time>
      </trkpt>
      <trkpt lat="45.85432" lon="1.29497">
        <ele>296.6</ele>
        <time>2025-06-16T13:01:03Z</time>
      </trkpt>
      <trkpt lat="45.85434" lon="1.29494">
        <ele>296.7</ele>
        <time>2025-06-16T13:01:04Z</time>
      </trkpt>
      <trkpt lat="45.85436" lon="1.29492">
        <ele>296.9</ele>
        <time>2025-06-16T13:01:05Z</time>
      </trkpt>
      <trkpt lat="45.85439" lon="1.29489">
        <ele>297</ele>
        <time>2025-06-16T13:01:06Z</time>
      </trkpt>
      <trkpt lat="45.85441" lon="1.29487">
        <ele>297.2</ele>
        <time>2025-06-16T13:01:07Z</time>
      </trkpt>
      <trkpt lat="45.85444" lon="1.29484">
        <ele>297.4</ele>
        <time>2025-06-16T13:01:08Z</time>
      </trkpt>
      <trkpt lat="45.85445" lon="1.29482">
        <ele>297.4</ele>
        <time>2025-06-16T13:01:09Z</time>
      </trkpt>
      <trkpt lat="45.85448" lon="1.29479">
        <ele>297.6</ele>
        <time>2025-06-16T13:01:10Z</time>
      </trkpt>
      <trkpt lat="45.85449" lon="1.29478">
        <ele>297.7</ele>
        <time>2025-06-16T13:01:11Z</time>
      </trkpt>
      <trkpt lat="45.85452" lon="1.29475">
        <ele>297.9</ele>
        <time>2025-06-16T13:01:12Z</time>
      </trkpt>
      <trkpt lat="45.85453" lon="1.29474">
        <ele>298</ele>
        <time>2025-06-16T13:01:13Z</time>
      </trkpt>
      <trkpt lat="45.85454" lon="1.29471">
        <ele>298.1</ele>
        <time>2025-06-16T13:01:14Z</time>
      </trkpt>
      <trkpt lat="45.85456" lon="1.29467">
        <ele>298.2</ele>
        <time>2025-06-16T13:01:15Z</time>
      </trkpt>
      <trkpt lat="45.85458" lon="1.29464">
        <ele>298.4</ele>
        <time>2025-06-16T13:01:16Z</time>
      </trkpt>
      <trkpt lat="45.8546" lon="1.29461">
        <ele>298.5</ele>
        <time>2025-06-16T13:01:17Z</time>
      </trkpt>
      <trkpt lat="45.85461" lon="1.29458">
        <ele>298.7</ele>
        <time>2025-06-16T13:01:18Z</time>
      </trkpt>
      <trkpt lat="45.85463" lon="1.29454">
        <ele>298.8</ele>
        <time>2025-06-16T13:01:19Z</time>
      </trkpt>
      <trkpt lat="45.85465" lon="1.29451">
        <ele>299</ele>
        <time>2025-06-16T13:01:20Z</time>
      </trkpt>
      <trkpt lat="45.85467" lon="1.29448">
        <ele>299.1</ele>
        <time>2025-06-16T13:01:21Z</time>
      </trkpt>
      <trkpt lat="45.8547" lon="1.29444">
        <ele>299.3</ele>
        <time>2025-06-16T13:01:22Z</time>
      </trkpt>
      <trkpt lat="45.85471" lon="1.29443">
        <ele>299.4</ele>
        <time>2025-06-16T13:01:23Z</time>
      </trkpt>
      <trkpt lat="45.85473" lon="1.29441">
        <ele>299.5</ele>
        <time>2025-06-16T13:01:24Z</time>
      </trkpt>
      <trkpt lat="45.85475" lon="1.29438">
        <ele>299.7</ele>
        <time>2025-06-16T13:01:25Z</time>
      </trkpt>
      <trkpt lat="45.85477" lon="1.29435">
        <ele>299.8</ele>
        <time>2025-06-16T13:01:26Z</time>
      </trkpt>
      <trkpt lat="45.85479" lon="1.29433">
        <ele>300</ele>
        <time>2025-06-16T13:01:27Z</time>
      </trkpt>
      <trkpt lat="45.85481" lon="1.2943">
        <ele>300.1</ele>
        <time>2025-06-16T13:01:28Z</time>
      </trkpt>
      <trkpt lat="45.85483" lon="1.29427">
        <ele>300.2</ele>
        <time>2025-06-16T13:01:29Z</time>
      </trkpt>
      <trkpt lat="45.85485" lon="1.29423">
        <ele>300.4</ele>
        <time>2025-06-16T13:01:30Z</time>
      </trkpt>
      <trkpt lat="45.85487" lon="1.2942">
        <ele>300.5</ele>
        <time>2025-06-16T13:01:31Z</time>
      </trkpt>
      <trkpt lat="45.85489" lon="1.29416">
        <ele>300.7</ele>
        <time>2025-06-16T13:01:32Z</time>
      </trkpt>
      <trkpt lat="45.8549" lon="1.29414">
        <ele>300.8</ele>
        <time>2025-06-16T13:01:33Z</time>
      </trkpt>
      <trkpt lat="45.85492" lon="1.29411">
        <ele>300.9</ele>
        <time>2025-06-16T13:01:34Z</time>
      </trkpt>
      <trkpt lat="45.85494" lon="1.29408">
        <ele>301.1</ele>
        <time>2025-06-16T13:01:35Z</time>
      </trkpt>
      <trkpt lat="45.85496" lon="1.29405">
        <ele>301.2</ele>
        <time>2025-06-16T13:01:36Z</time>
      </trkpt>
      <trkpt lat="45.85497" lon="1.29402">
        <ele>301.3</ele>
        <time>2025-06-16T13:01:37Z</time>
      </trkpt>
      <trkpt lat="45.85499" lon="1.29399">
        <ele>301.5</ele>
        <time>2025-06-16T13:01:38Z</time>
      </trkpt>
      <trkpt lat="45.85501" lon="1.29395">
        <ele>301.6</ele>
        <time>2025-06-16T13:01:39Z</time>
      </trkpt>
      <trkpt lat="45.85503" lon="1.29392">
        <ele>301.8</ele>
        <time>2025-06-16T13:01:40Z</time>
      </trkpt>
      <trkpt lat="45.85505" lon="1.29388">
        <ele>302</ele>
        <time>2025-06-16T13:01:41Z</time>
      </trkpt>
      <trkpt lat="45.85506" lon="1.29386">
        <ele>302</ele>
        <time>2025-06-16T13:01:42Z</time>
      </trkpt>
      <trkpt lat="45.85508" lon="1.29383">
        <ele>302.2</ele>
        <time>2025-06-16T13:01:43Z</time>
      </trkpt>
      <trkpt lat="45.85509" lon="1.2938">
        <ele>302.3</ele>
        <time>2025-06-16T13:01:44Z</time>
      </trkpt>
      <trkpt lat="45.85511" lon="1.29377">
        <ele>302.4</ele>
        <time>2025-06-16T13:01:45Z</time>
      </trkpt>
      <trkpt lat="45.85512" lon="1.29373">
        <ele>302.6</ele>
        <time>2025-06-16T13:01:46Z</time>
      </trkpt>
      <trkpt lat="45.85514" lon="1.2937">
        <ele>302.7</ele>
        <time>2025-06-16T13:01:47Z</time>
      </trkpt>
      <trkpt lat="45.85516" lon="1.29367">
        <ele>302.8</ele>
        <time>2025-06-16T13:01:48Z</time>
      </trkpt>
      <trkpt lat="45.85519" lon="1.29363">
        <ele>303</ele>
        <time>2025-06-16T13:01:49Z</time>
      </trkpt>
      <trkpt lat="45.85519" lon="1.29361">
        <ele>303.1</ele>
        <time>2025-06-16T13:01:50Z</time>
      </trkpt>
      <trkpt lat="45.85522" lon="1.29357">
        <ele>303.3</ele>
        <time>2025-06-16T13:01:51Z</time>
      </trkpt>
      <trkpt lat="45.85522" lon="1.29355">
        <ele>303.3</ele>
        <time>2025-06-16T13:01:52Z</time>
      </trkpt>
      <trkpt lat="45.85524" lon="1.29351">
        <ele>303.5</ele>
        <time>2025-06-16T13:01:53Z</time>
      </trkpt>
      <trkpt lat="45.85525" lon="1.2935">
        <ele>303.5</ele>
        <time>2025-06-16T13:01:54Z</time>
      </trkpt>
      <trkpt lat="45.85526" lon="1.29348">
        <ele>303.6</ele>
        <time>2025-06-16T13:01:55Z</time>
      </trkpt>
      <trkpt lat="45.85528" lon="1.29347">
        <ele>303.7</ele>
        <time>2025-06-16T13:01:56Z</time>
      </trkpt>
      <trkpt lat="45.85529" lon="1.29346">
        <ele>303.8</ele>
        <time>2025-06-16T13:01:57Z</time>
      </trkpt>
      <trkpt lat="45.8553" lon="1.29346">
        <ele>303.8</ele>
        <time>2025-06-16T13:01:58Z</time>
      </trkpt>
      <trkpt lat="45.85531" lon="1.29346">
        <ele>303.9</ele>
        <time>2025-06-16T13:01:59Z</time>
      </trkpt>
      <trkpt lat="45.85532" lon="1.29346">
        <ele>303.9</ele>
        <time>2025-06-16T13:02:00Z</time>
      </trkpt>
      <trkpt lat="45.85532" lon="1.29346">
        <ele>303.9</ele>
        <time>2025-06-16T13:02:01Z</time>
      </trkpt>
      <trkpt lat="45.85532" lon="1.29345">
        <ele>303.9</ele>
        <time>2025-06-16T13:02:02Z</time>
      </trkpt>
      <trkpt lat="45.85531" lon="1.29345">
        <ele>303.9</ele>
        <time>2025-06-16T13:02:03Z</time>
      </trkpt>
      <trkpt lat="45.85531" lon="1.29346">
        <ele>303.9</ele>
        <time>2025-06-16T13:02:04Z</time>
      </trkpt>
      <trkpt lat="45.85531" lon="1.29346">
        <ele>303.9</ele>
        <time>2025-06-16T13:02:05Z</time>
      </trkpt>
      <trkpt lat="45.85531" lon="1.29346">
        <ele>304</ele>
        <time>2025-06-16T13:02:06Z</time>
      </trkpt>
      <trkpt lat="45.85531" lon="1.29346">
        <ele>304</ele>
        <time>2025-06-16T13:02:07Z</time>
      </trkpt>
      <trkpt lat="45.85531" lon="1.29346">
        <ele>304</ele>
        <time>2025-06-16T13:02:08Z</time>
      </trkpt>
      <trkpt lat="45.85532" lon="1.29346">
        <ele>304</ele>
        <time>2025-06-16T13:02:09Z</time>
      </trkpt>
      <trkpt lat="45.85532" lon="1.29346">
        <ele>304</ele>
        <time>2025-06-16T13:02:10Z</time>
      </trkpt>
      <trkpt lat="45.85532" lon="1.29346">
        <ele>304</ele>
        <time>2025-06-16T13:02:11Z</time>
      </trkpt>
      <trkpt lat="45.85532" lon="1.29346">
        <ele>304</ele>
        <time>2025-06-16T13:02:12Z</time>
      </trkpt>
      <trkpt lat="45.85532" lon="1.29346">
        <ele>304</ele>
        <time>2025-06-16T13:02:13Z</time>
      </trkpt>
      <trkpt lat="45.85532" lon="1.29346">
        <ele>304</ele>
        <time>2025-06-16T13:02:14Z</time>
      </trkpt>
      <trkpt lat="45.85532" lon="1.29346">
        <ele>304</ele>
        <time>2025-06-16T13:02:15Z</time>
      </trkpt>
      <trkpt lat="45.85532" lon="1.29346">
        <ele>304</ele>
        <time>2025-06-16T13:02:16Z</time>
      </trkpt>
      <trkpt lat="45.85533" lon="1.29345">
        <ele>304</ele>
        <time>2025-06-16T13:02:17Z</time>
      </trkpt>
      <trkpt lat="45.85533" lon="1.29344">
        <ele>304.1</ele>
        <time>2025-06-16T13:02:18Z</time>
      </trkpt>
      <trkpt lat="45.85535" lon="1.29342">
        <ele>304.2</ele>
        <time>2025-06-16T13:02:19Z</time>
      </trkpt>
      <trkpt lat="45.85535" lon="1.29341">
        <ele>304.2</ele>
        <time>2025-06-16T13:02:20Z</time>
      </trkpt>
      <trkpt lat="45.85536" lon="1.29339">
        <ele>304.3</ele>
        <time>2025-06-16T13:02:21Z</time>
      </trkpt>
      <trkpt lat="45.85537" lon="1.29337">
        <ele>304.3</ele>
        <time>2025-06-16T13:02:22Z</time>
      </trkpt>
      <trkpt lat="45.85537" lon="1.29336">
        <ele>304.4</ele>
        <time>2025-06-16T13:02:23Z</time>
      </trkpt>
      <trkpt lat="45.85537" lon="1.29336">
        <ele>304.4</ele>
        <time>2025-06-16T13:02:24Z</time>
      </trkpt>
      <trkpt lat="45.85536" lon="1.29336">
        <ele>304.4</ele>
        <time>2025-06-16T13:02:25Z</time>
      </trkpt>
      <trkpt lat="45.85536" lon="1.29336">
        <ele>304.4</ele>
        <time>2025-06-16T13:02:26Z</time>
      </trkpt>
      <trkpt lat="45.85536" lon="1.29336">
        <ele>304.4</ele>
        <time>2025-06-16T13:02:27Z</time>
      </trkpt>
      <trkpt lat="45.85536" lon="1.29336">
        <ele>304.4</ele>
        <time>2025-06-16T13:02:28Z</time>
      </trkpt>
      <trkpt lat="45.85536" lon="1.29336">
        <ele>304.4</ele>
        <time>2025-06-16T13:02:29Z</time>
      </trkpt>
      <trkpt lat="45.85535" lon="1.29335">
        <ele>304.5</ele>
        <time>2025-06-16T13:02:30Z</time>
      </trkpt>
      <trkpt lat="45.85535" lon="1.29335">
        <ele>304.5</ele>
        <time>2025-06-16T13:02:31Z</time>
      </trkpt>
      <trkpt lat="45.85534" lon="1.29335">
        <ele>304.6</ele>
        <time>2025-06-16T13:02:32Z</time>
      </trkpt>
      <trkpt lat="45.85533" lon="1.29337">
        <ele>304.6</ele>
        <time>2025-06-16T13:02:33Z</time>
      </trkpt>
      <trkpt lat="45.85532" lon="1.29338">
        <ele>304.7</ele>
        <time>2025-06-16T13:02:34Z</time>
      </trkpt>
      <trkpt lat="45.85531" lon="1.2934">
        <ele>304.7</ele>
        <time>2025-06-16T13:02:35Z</time>
      </trkpt>
      <trkpt lat="45.8553" lon="1.29341">
        <ele>304.8</ele>
        <time>2025-06-16T13:02:36Z</time>
      </trkpt>
      <trkpt lat="45.85531" lon="1.2934">
        <ele>304.8</ele>
        <time>2025-06-16T13:02:37Z</time>
      </trkpt>
      <trkpt lat="45.85532" lon="1.29339">
        <ele>304.9</ele>
        <time>2025-06-16T13:02:38Z</time>
      </trkpt>
      <trkpt lat="45.85532" lon="1.29339">
        <ele>304.9</ele>
        <time>2025-06-16T13:02:39Z</time>
      </trkpt>
      <trkpt lat="45.85533" lon="1.29338">
        <ele>304.9</ele>
        <time>2025-06-16T13:02:40Z</time>
      </trkpt>
      <trkpt lat="45.85534" lon="1.29337">
        <ele>305</ele>
        <time>2025-06-16T13:02:41Z</time>
      </trkpt>
      <trkpt lat="45.85535" lon="1.29337">
        <ele>305</ele>
        <time>2025-06-16T13:02:42Z</time>
      </trkpt>
      <trkpt lat="45.85536" lon="1.29333">
        <ele>305.1</ele>
        <time>2025-06-16T13:02:43Z</time>
      </trkpt>
      <trkpt lat="45.85538" lon="1.2933">
        <ele>305.3</ele>
        <time>2025-06-16T13:02:44Z</time>
      </trkpt>
      <trkpt lat="45.8554" lon="1.29326">
        <ele>305.4</ele>
        <time>2025-06-16T13:02:45Z</time>
      </trkpt>
      <trkpt lat="45.85542" lon="1.29322">
        <ele>305.6</ele>
        <time>2025-06-16T13:02:46Z</time>
      </trkpt>
      <trkpt lat="45.85544" lon="1.29319">
        <ele>305.7</ele>
        <time>2025-06-16T13:02:47Z</time>
      </trkpt>
      <trkpt lat="45.85545" lon="1.29316">
        <ele>305.8</ele>
        <time>2025-06-16T13:02:48Z</time>
      </trkpt>
      <trkpt lat="45.85547" lon="1.29313">
        <ele>306</ele>
        <time>2025-06-16T13:02:49Z</time>
      </trkpt>
      <trkpt lat="45.85549" lon="1.29307">
        <ele>306.1</ele>
        <time>2025-06-16T13:02:50Z</time>
      </trkpt>
      <trkpt lat="45.8555" lon="1.29306">
        <ele>306.2</ele>
        <time>2025-06-16T13:02:51Z</time>
      </trkpt>
      <trkpt lat="45.85551" lon="1.29302">
        <ele>306.3</ele>
        <time>2025-06-16T13:02:52Z</time>
      </trkpt>
      <trkpt lat="45.85553" lon="1.29299">
        <ele>306.5</ele>
        <time>2025-06-16T13:02:53Z</time>
      </trkpt>
      <trkpt lat="45.85555" lon="1.29296">
        <ele>306.6</ele>
        <time>2025-06-16T13:02:54Z</time>
      </trkpt>
      <trkpt lat="45.85557" lon="1.29292">
        <ele>306.8</ele>
        <time>2025-06-16T13:02:55Z</time>
      </trkpt>
      <trkpt lat="45.85558" lon="1.2929">
        <ele>306.8</ele>
        <time>2025-06-16T13:02:56Z</time>
      </trkpt>
      <trkpt lat="45.8556" lon="1.29287">
        <ele>307</ele>
        <time>2025-06-16T13:02:57Z</time>
      </trkpt>
      <trkpt lat="45.85562" lon="1.29284">
        <ele>307.1</ele>
        <time>2025-06-16T13:02:58Z</time>
      </trkpt>
      <trkpt lat="45.85564" lon="1.29281">
        <ele>307.2</ele>
        <time>2025-06-16T13:02:59Z</time>
      </trkpt>
      <trkpt lat="45.85566" lon="1.29278">
        <ele>307.4</ele>
        <time>2025-06-16T13:03:00Z</time>
      </trkpt>
      <trkpt lat="45.85568" lon="1.29274">
        <ele>307.5</ele>
        <time>2025-06-16T13:03:01Z</time>
      </trkpt>
      <trkpt lat="45.85569" lon="1.29271">
        <ele>307.6</ele>
        <time>2025-06-16T13:03:02Z</time>
      </trkpt>
      <trkpt lat="45.85571" lon="1.29268">
        <ele>307.8</ele>
        <time>2025-06-16T13:03:03Z</time>
      </trkpt>
      <trkpt lat="45.85573" lon="1.29265">
        <ele>307.9</ele>
        <time>2025-06-16T13:03:04Z</time>
      </trkpt>
      <trkpt lat="45.85575" lon="1.29261">
        <ele>308.1</ele>
        <time>2025-06-16T13:03:05Z</time>
      </trkpt>
      <trkpt lat="45.85577" lon="1.29258">
        <ele>308.2</ele>
        <time>2025-06-16T13:03:06Z</time>
      </trkpt>
      <trkpt lat="45.85579" lon="1.29255">
        <ele>308.4</ele>
        <time>2025-06-16T13:03:07Z</time>
      </trkpt>
      <trkpt lat="45.85581" lon="1.29251">
        <ele>308.5</ele>
        <time>2025-06-16T13:03:08Z</time>
      </trkpt>
      <trkpt lat="45.85583" lon="1.29248">
        <ele>308.7</ele>
        <time>2025-06-16T13:03:09Z</time>
      </trkpt>
      <trkpt lat="45.85585" lon="1.29244">
        <ele>308.8</ele>
        <time>2025-06-16T13:03:10Z</time>
      </trkpt>
      <trkpt lat="45.85587" lon="1.29241">
        <ele>309</ele>
        <time>2025-06-16T13:03:11Z</time>
      </trkpt>
      <trkpt lat="45.85589" lon="1.29238">
        <ele>309.1</ele>
        <time>2025-06-16T13:03:12Z</time>
      </trkpt>
      <trkpt lat="45.85591" lon="1.29235">
        <ele>309.2</ele>
        <time>2025-06-16T13:03:13Z</time>
      </trkpt>
      <trkpt lat="45.85593" lon="1.29232">
        <ele>309.4</ele>
        <time>2025-06-16T13:03:14Z</time>
      </trkpt>
      <trkpt lat="45.85595" lon="1.29228">
        <ele>309.5</ele>
        <time>2025-06-16T13:03:15Z</time>
      </trkpt>
      <trkpt lat="45.85597" lon="1.29225">
        <ele>309.6</ele>
        <time>2025-06-16T13:03:16Z</time>
      </trkpt>
      <trkpt lat="45.85599" lon="1.29222">
        <ele>309.8</ele>
        <time>2025-06-16T13:03:17Z</time>
      </trkpt>
      <trkpt lat="45.85602" lon="1.29219">
        <ele>309.9</ele>
        <time>2025-06-16T13:03:18Z</time>
      </trkpt>
      <trkpt lat="45.85604" lon="1.29217">
        <ele>310</ele>
        <time>2025-06-16T13:03:19Z</time>
      </trkpt>
      <trkpt lat="45.85607" lon="1.29215">
        <ele>310.2</ele>
        <time>2025-06-16T13:03:20Z</time>
      </trkpt>
      <trkpt lat="45.8561" lon="1.29213">
        <ele>310.4</ele>
        <time>2025-06-16T13:03:21Z</time>
      </trkpt>
      <trkpt lat="45.85613" lon="1.29213">
        <ele>310.6</ele>
        <time>2025-06-16T13:03:22Z</time>
      </trkpt>
      <trkpt lat="45.85616" lon="1.29212">
        <ele>310.8</ele>
        <time>2025-06-16T13:03:23Z</time>
      </trkpt>
      <trkpt lat="45.85619" lon="1.29213">
        <ele>311.1</ele>
        <time>2025-06-16T13:03:24Z</time>
      </trkpt>
      <trkpt lat="45.85622" lon="1.29213">
        <ele>311.3</ele>
        <time>2025-06-16T13:03:25Z</time>
      </trkpt>
      <trkpt lat="45.85626" lon="1.29214">
        <ele>311.5</ele>
        <time>2025-06-16T13:03:26Z</time>
      </trkpt>
      <trkpt lat="45.85629" lon="1.29216">
        <ele>311.7</ele>
        <time>2025-06-16T13:03:27Z</time>
      </trkpt>
      <trkpt lat="45.85631" lon="1.29217">
        <ele>312</ele>
        <time>2025-06-16T13:03:28Z</time>
      </trkpt>
      <trkpt lat="45.85634" lon="1.29219">
        <ele>312.2</ele>
        <time>2025-06-16T13:03:29Z</time>
      </trkpt>
      <trkpt lat="45.85637" lon="1.29222">
        <ele>312.4</ele>
        <time>2025-06-16T13:03:30Z</time>
      </trkpt>
      <trkpt lat="45.85638" lon="1.29222">
        <ele>312.5</ele>
        <time>2025-06-16T13:03:31Z</time>
      </trkpt>
      <trkpt lat="45.8564" lon="1.29223">
        <ele>312.6</ele>
        <time>2025-06-16T13:03:32Z</time>
      </trkpt>
      <trkpt lat="45.85641" lon="1.29224">
        <ele>312.7</ele>
        <time>2025-06-16T13:03:33Z</time>
      </trkpt>
      <trkpt lat="45.85641" lon="1.29225">
        <ele>312.7</ele>
        <time>2025-06-16T13:03:34Z</time>
      </trkpt>
      <trkpt lat="45.85643" lon="1.29226">
        <ele>312.8</ele>
        <time>2025-06-16T13:03:35Z</time>
      </trkpt>
      <trkpt lat="45.85644" lon="1.29226">
        <ele>312.9</ele>
        <time>2025-06-16T13:03:36Z</time>
      </trkpt>
      <trkpt lat="45.85644" lon="1.29223">
        <ele>312.8</ele>
        <time>2025-06-16T13:03:37Z</time>
      </trkpt>
      <trkpt lat="45.85642" lon="1.2922">
        <ele>312.6</ele>
        <time>2025-06-16T13:03:38Z</time>
      </trkpt>
      <trkpt lat="45.85639" lon="1.29216">
        <ele>312.4</ele>
        <time>2025-06-16T13:03:39Z</time>
      </trkpt>
      <trkpt lat="45.85636" lon="1.29212">
        <ele>312.2</ele>
        <time>2025-06-16T13:03:40Z</time>
      </trkpt>
      <trkpt lat="45.85633" lon="1.29208">
        <ele>312</ele>
        <time>2025-06-16T13:03:41Z</time>
      </trkpt>
      <trkpt lat="45.8563" lon="1.29204">
        <ele>311.8</ele>
        <time>2025-06-16T13:03:42Z</time>
      </trkpt>
      <trkpt lat="45.85629" lon="1.29199">
        <ele>311.7</ele>
        <time>2025-06-16T13:03:43Z</time>
      </trkpt>
      <trkpt lat="45.85628" lon="1.29193">
        <ele>311.5</ele>
        <time>2025-06-16T13:03:44Z</time>
      </trkpt>
      <trkpt lat="45.85628" lon="1.29188">
        <ele>311.4</ele>
        <time>2025-06-16T13:03:45Z</time>
      </trkpt>
      <trkpt lat="45.85628" lon="1.29183">
        <ele>311.3</ele>
        <time>2025-06-16T13:03:46Z</time>
      </trkpt>
      <trkpt lat="45.85629" lon="1.29178">
        <ele>311.5</ele>
        <time>2025-06-16T13:03:47Z</time>
      </trkpt>
      <trkpt lat="45.8563" lon="1.29173">
        <ele>311.6</ele>
        <time>2025-06-16T13:03:48Z</time>
      </trkpt>
      <trkpt lat="45.85631" lon="1.29169">
        <ele>311.8</ele>
        <time>2025-06-16T13:03:49Z</time>
      </trkpt>
      <trkpt lat="45.85633" lon="1.29164">
        <ele>312</ele>
        <time>2025-06-16T13:03:50Z</time>
      </trkpt>
      <trkpt lat="45.85636" lon="1.29161">
        <ele>312.2</ele>
        <time>2025-06-16T13:03:51Z</time>
      </trkpt>
      <trkpt lat="45.85638" lon="1.29157">
        <ele>312.4</ele>
        <time>2025-06-16T13:03:52Z</time>
      </trkpt>
      <trkpt lat="45.8564" lon="1.29154">
        <ele>312.5</ele>
        <time>2025-06-16T13:03:53Z</time>
      </trkpt>
      <trkpt lat="45.85642" lon="1.2915">
        <ele>312.7</ele>
        <time>2025-06-16T13:03:54Z</time>
      </trkpt>
      <trkpt lat="45.85644" lon="1.29146">
        <ele>312.9</ele>
        <time>2025-06-16T13:03:55Z</time>
      </trkpt>
      <trkpt lat="45.85647" lon="1.29142">
        <ele>313</ele>
        <time>2025-06-16T13:03:56Z</time>
      </trkpt>
      <trkpt lat="45.85649" lon="1.29137">
        <ele>313.2</ele>
        <time>2025-06-16T13:03:57Z</time>
      </trkpt>
      <trkpt lat="45.85651" lon="1.29133">
        <ele>313.3</ele>
        <time>2025-06-16T13:03:58Z</time>
      </trkpt>
      <trkpt lat="45.85653" lon="1.29128">
        <ele>313.4</ele>
        <time>2025-06-16T13:03:59Z</time>
      </trkpt>
      <trkpt lat="45.85655" lon="1.29124">
        <ele>313.6</ele>
        <time>2025-06-16T13:04:00Z</time>
      </trkpt>
      <trkpt lat="45.85657" lon="1.2912">
        <ele>313.7</ele>
        <time>2025-06-16T13:04:01Z</time>
      </trkpt>
      <trkpt lat="45.8566" lon="1.29116">
        <ele>313.8</ele>
        <time>2025-06-16T13:04:02Z</time>
      </trkpt>
      <trkpt lat="45.85662" lon="1.29112">
        <ele>314</ele>
        <time>2025-06-16T13:04:03Z</time>
      </trkpt>
      <trkpt lat="45.85665" lon="1.29109">
        <ele>314.1</ele>
        <time>2025-06-16T13:04:04Z</time>
      </trkpt>
      <trkpt lat="45.85667" lon="1.29106">
        <ele>314.2</ele>
        <time>2025-06-16T13:04:05Z</time>
      </trkpt>
      <trkpt lat="45.85669" lon="1.29102">
        <ele>314.3</ele>
        <time>2025-06-16T13:04:06Z</time>
      </trkpt>
      <trkpt lat="45.85672" lon="1.29098">
        <ele>314.4</ele>
        <time>2025-06-16T13:04:07Z</time>
      </trkpt>
      <trkpt lat="45.85675" lon="1.29094">
        <ele>314.6</ele>
        <time>2025-06-16T13:04:08Z</time>
      </trkpt>
      <trkpt lat="45.85678" lon="1.2909">
        <ele>314.7</ele>
        <time>2025-06-16T13:04:09Z</time>
      </trkpt>
      <trkpt lat="45.8568" lon="1.29087">
        <ele>314.8</ele>
        <time>2025-06-16T13:04:10Z</time>
      </trkpt>
      <trkpt lat="45.85683" lon="1.29084">
        <ele>314.9</ele>
        <time>2025-06-16T13:04:11Z</time>
      </trkpt>
      <trkpt lat="45.85686" lon="1.29081">
        <ele>315.1</ele>
        <time>2025-06-16T13:04:12Z</time>
      </trkpt>
      <trkpt lat="45.85689" lon="1.29078">
        <ele>315.2</ele>
        <time>2025-06-16T13:04:13Z</time>
      </trkpt>
      <trkpt lat="45.85692" lon="1.29074">
        <ele>315.3</ele>
        <time>2025-06-16T13:04:14Z</time>
      </trkpt>
      <trkpt lat="45.85694" lon="1.29071">
        <ele>315.5</ele>
        <time>2025-06-16T13:04:15Z</time>
      </trkpt>
      <trkpt lat="45.85697" lon="1.29068">
        <ele>315.6</ele>
        <time>2025-06-16T13:04:16Z</time>
      </trkpt>
      <trkpt lat="45.857" lon="1.29065">
        <ele>315.8</ele>
        <time>2025-06-16T13:04:17Z</time>
      </trkpt>
      <trkpt lat="45.85703" lon="1.29062">
        <ele>315.9</ele>
        <time>2025-06-16T13:04:18Z</time>
      </trkpt>
      <trkpt lat="45.85706" lon="1.29059">
        <ele>316</ele>
        <time>2025-06-16T13:04:19Z</time>
      </trkpt>
      <trkpt lat="45.85709" lon="1.29056">
        <ele>316.2</ele>
        <time>2025-06-16T13:04:20Z</time>
      </trkpt>
      <trkpt lat="45.85712" lon="1.29054">
        <ele>316.3</ele>
        <time>2025-06-16T13:04:21Z</time>
      </trkpt>
      <trkpt lat="45.85715" lon="1.29051">
        <ele>316.4</ele>
        <time>2025-06-16T13:04:22Z</time>
      </trkpt>
      <trkpt lat="45.85718" lon="1.29049">
        <ele>316.6</ele>
        <time>2025-06-16T13:04:23Z</time>
      </trkpt>
      <trkpt lat="45.85721" lon="1.29046">
        <ele>316.7</ele>
        <time>2025-06-16T13:04:24Z</time>
      </trkpt>
      <trkpt lat="45.85723" lon="1.29044">
        <ele>316.8</ele>
        <time>2025-06-16T13:04:25Z</time>
      </trkpt>
      <trkpt lat="45.85726" lon="1.29042">
        <ele>316.9</ele>
        <time>2025-06-16T13:04:26Z</time>
      </trkpt>
      <trkpt lat="45.8573" lon="1.2904">
        <ele>317.1</ele>
        <time>2025-06-16T13:04:27Z</time>
      </trkpt>
      <trkpt lat="45.85732" lon="1.29039">
        <ele>317.2</ele>
        <time>2025-06-16T13:04:28Z</time>
      </trkpt>
      <trkpt lat="45.85735" lon="1.29037">
        <ele>317.3</ele>
        <time>2025-06-16T13:04:29Z</time>
      </trkpt>
      <trkpt lat="45.85739" lon="1.29035">
        <ele>317.4</ele>
        <time>2025-06-16T13:04:30Z</time>
      </trkpt>
      <trkpt lat="45.85742" lon="1.29033">
        <ele>317.5</ele>
        <time>2025-06-16T13:04:31Z</time>
      </trkpt>
      <trkpt lat="45.85746" lon="1.29031">
        <ele>317.7</ele>
        <time>2025-06-16T13:04:32Z</time>
      </trkpt>
      <trkpt lat="45.85749" lon="1.29029">
        <ele>317.8</ele>
        <time>2025-06-16T13:04:33Z</time>
      </trkpt>
      <trkpt lat="45.85752" lon="1.29027">
        <ele>317.9</ele>
        <time>2025-06-16T13:04:34Z</time>
      </trkpt>
      <trkpt lat="45.85755" lon="1.29025">
        <ele>318</ele>
        <time>2025-06-16T13:04:35Z</time>
      </trkpt>
      <trkpt lat="45.85758" lon="1.29023">
        <ele>318.1</ele>
        <time>2025-06-16T13:04:36Z</time>
      </trkpt>
      <trkpt lat="45.85761" lon="1.29022">
        <ele>318.3</ele>
        <time>2025-06-16T13:04:37Z</time>
      </trkpt>
      <trkpt lat="45.85764" lon="1.29021">
        <ele>318.4</ele>
        <time>2025-06-16T13:04:38Z</time>
      </trkpt>
      <trkpt lat="45.85768" lon="1.2902">
        <ele>318.5</ele>
        <time>2025-06-16T13:04:39Z</time>
      </trkpt>
      <trkpt lat="45.85771" lon="1.29018">
        <ele>318.6</ele>
        <time>2025-06-16T13:04:40Z</time>
      </trkpt>
      <trkpt lat="45.85774" lon="1.29017">
        <ele>318.7</ele>
        <time>2025-06-16T13:04:41Z</time>
      </trkpt>
      <trkpt lat="45.85777" lon="1.29016">
        <ele>318.9</ele>
        <time>2025-06-16T13:04:42Z</time>
      </trkpt>
      <trkpt lat="45.85781" lon="1.29014">
        <ele>319</ele>
        <time>2025-06-16T13:04:43Z</time>
      </trkpt>
      <trkpt lat="45.85784" lon="1.29013">
        <ele>319.1</ele>
        <time>2025-06-16T13:04:44Z</time>
      </trkpt>
      <trkpt lat="45.85788" lon="1.29012">
        <ele>319.2</ele>
        <time>2025-06-16T13:04:45Z</time>
      </trkpt>
      <trkpt lat="45.85791" lon="1.2901">
        <ele>319.4</ele>
        <time>2025-06-16T13:04:46Z</time>
      </trkpt>
      <trkpt lat="45.85795" lon="1.29009">
        <ele>319.5</ele>
        <time>2025-06-16T13:04:47Z</time>
      </trkpt>
      <trkpt lat="45.85799" lon="1.29008">
        <ele>319.7</ele>
        <time>2025-06-16T13:04:48Z</time>
      </trkpt>
      <trkpt lat="45.85803" lon="1.29007">
        <ele>319.8</ele>
        <time>2025-06-16T13:04:49Z</time>
      </trkpt>
      <trkpt lat="45.85807" lon="1.29006">
        <ele>320</ele>
        <time>2025-06-16T13:04:50Z</time>
      </trkpt>
      <trkpt lat="45.85811" lon="1.29004">
        <ele>320.2</ele>
        <time>2025-06-16T13:04:51Z</time>
      </trkpt>
      <trkpt lat="45.85816" lon="1.29003">
        <ele>320.3</ele>
        <time>2025-06-16T13:04:52Z</time>
      </trkpt>
      <trkpt lat="45.8582" lon="1.29001">
        <ele>320.5</ele>
        <time>2025-06-16T13:04:53Z</time>
      </trkpt>
      <trkpt lat="45.85824" lon="1.28999">
        <ele>320.7</ele>
        <time>2025-06-16T13:04:54Z</time>
      </trkpt>
      <trkpt lat="45.85828" lon="1.28997">
        <ele>320.9</ele>
        <time>2025-06-16T13:04:55Z</time>
      </trkpt>
      <trkpt lat="45.85832" lon="1.28996">
        <ele>321.1</ele>
        <time>2025-06-16T13:04:56Z</time>
      </trkpt>
      <trkpt lat="45.85835" lon="1.28994">
        <ele>321.2</ele>
        <time>2025-06-16T13:04:57Z</time>
      </trkpt>
      <trkpt lat="45.85839" lon="1.28993">
        <ele>321.4</ele>
        <time>2025-06-16T13:04:58Z</time>
      </trkpt>
      <trkpt lat="45.85842" lon="1.28991">
        <ele>321.5</ele>
        <time>2025-06-16T13:04:59Z</time>
      </trkpt>
      <trkpt lat="45.85846" lon="1.2899">
        <ele>321.7</ele>
        <time>2025-06-16T13:05:00Z</time>
      </trkpt>
      <trkpt lat="45.85849" lon="1.28989">
        <ele>321.8</ele>
        <time>2025-06-16T13:05:01Z</time>
      </trkpt>
      <trkpt lat="45.85852" lon="1.28988">
        <ele>321.9</ele>
        <time>2025-06-16T13:05:02Z</time>
      </trkpt>
      <trkpt lat="45.85855" lon="1.28986">
        <ele>322.1</ele>
        <time>2025-06-16T13:05:03Z</time>
      </trkpt>
      <trkpt lat="45.85858" lon="1.28984">
        <ele>322.2</ele>
        <time>2025-06-16T13:05:04Z</time>
      </trkpt>
      <trkpt lat="45.85861" lon="1.28983">
        <ele>322.3</ele>
        <time>2025-06-16T13:05:05Z</time>
      </trkpt>
      <trkpt lat="45.85864" lon="1.28981">
        <ele>322.4</ele>
        <time>2025-06-16T13:05:06Z</time>
      </trkpt>
      <trkpt lat="45.85867" lon="1.28978">
        <ele>322.5</ele>
        <time>2025-06-16T13:05:07Z</time>
      </trkpt>
      <trkpt lat="45.8587" lon="1.28976">
        <ele>322.7</ele>
        <time>2025-06-16T13:05:08Z</time>
      </trkpt>
      <trkpt lat="45.85873" lon="1.28974">
        <ele>322.8</ele>
        <time>2025-06-16T13:05:09Z</time>
      </trkpt>
      <trkpt lat="45.85876" lon="1.28971">
        <ele>322.9</ele>
        <time>2025-06-16T13:05:10Z</time>
      </trkpt>
      <trkpt lat="45.85879" lon="1.28969">
        <ele>323</ele>
        <time>2025-06-16T13:05:11Z</time>
      </trkpt>
      <trkpt lat="45.85882" lon="1.28966">
        <ele>323.1</ele>
        <time>2025-06-16T13:05:12Z</time>
      </trkpt>
      <trkpt lat="45.85885" lon="1.28964">
        <ele>323.2</ele>
        <time>2025-06-16T13:05:13Z</time>
      </trkpt>
      <trkpt lat="45.85887" lon="1.28962">
        <ele>323.3</ele>
        <time>2025-06-16T13:05:14Z</time>
      </trkpt>
      <trkpt lat="45.8589" lon="1.28959">
        <ele>323.4</ele>
        <time>2025-06-16T13:05:15Z</time>
      </trkpt>
      <trkpt lat="45.85891" lon="1.28958">
        <ele>323.5</ele>
        <time>2025-06-16T13:05:16Z</time>
      </trkpt>
      <trkpt lat="45.85895" lon="1.28955">
        <ele>323.6</ele>
        <time>2025-06-16T13:05:17Z</time>
      </trkpt>
      <trkpt lat="45.85896" lon="1.28954">
        <ele>323.7</ele>
        <time>2025-06-16T13:05:18Z</time>
      </trkpt>
      <trkpt lat="45.85899" lon="1.28953">
        <ele>323.8</ele>
        <time>2025-06-16T13:05:19Z</time>
      </trkpt>
      <trkpt lat="45.85902" lon="1.28952">
        <ele>324</ele>
        <time>2025-06-16T13:05:20Z</time>
      </trkpt>
      <trkpt lat="45.85905" lon="1.28951">
        <ele>324.1</ele>
        <time>2025-06-16T13:05:21Z</time>
      </trkpt>
      <trkpt lat="45.85908" lon="1.28951">
        <ele>324.2</ele>
        <time>2025-06-16T13:05:22Z</time>
      </trkpt>
      <trkpt lat="45.85911" lon="1.28951">
        <ele>324.4</ele>
        <time>2025-06-16T13:05:23Z</time>
      </trkpt>
      <trkpt lat="45.85915" lon="1.28951">
        <ele>324.5</ele>
        <time>2025-06-16T13:05:24Z</time>
      </trkpt>
      <trkpt lat="45.85918" lon="1.28951">
        <ele>324.6</ele>
        <time>2025-06-16T13:05:25Z</time>
      </trkpt>
      <trkpt lat="45.85921" lon="1.28952">
        <ele>324.8</ele>
        <time>2025-06-16T13:05:26Z</time>
      </trkpt>
      <trkpt lat="45.85924" lon="1.28952">
        <ele>324.8</ele>
        <time>2025-06-16T13:05:27Z</time>
      </trkpt>
      <trkpt lat="45.85928" lon="1.28952">
        <ele>324.9</ele>
        <time>2025-06-16T13:05:28Z</time>
      </trkpt>
      <trkpt lat="45.85931" lon="1.28952">
        <ele>325</ele>
        <time>2025-06-16T13:05:29Z</time>
      </trkpt>
      <trkpt lat="45.85934" lon="1.28952">
        <ele>325.1</ele>
        <time>2025-06-16T13:05:30Z</time>
      </trkpt>
      <trkpt lat="45.85937" lon="1.28953">
        <ele>325.1</ele>
        <time>2025-06-16T13:05:31Z</time>
      </trkpt>
      <trkpt lat="45.85941" lon="1.28953">
        <ele>325.2</ele>
        <time>2025-06-16T13:05:32Z</time>
      </trkpt>
      <trkpt lat="45.85944" lon="1.28954">
        <ele>325.3</ele>
        <time>2025-06-16T13:05:33Z</time>
      </trkpt>
      <trkpt lat="45.85948" lon="1.28955">
        <ele>325.4</ele>
        <time>2025-06-16T13:05:34Z</time>
      </trkpt>
      <trkpt lat="45.85951" lon="1.28956">
        <ele>325.5</ele>
        <time>2025-06-16T13:05:35Z</time>
      </trkpt>
      <trkpt lat="45.85954" lon="1.28958">
        <ele>325.6</ele>
        <time>2025-06-16T13:05:36Z</time>
      </trkpt>
      <trkpt lat="45.85957" lon="1.2896">
        <ele>325.7</ele>
        <time>2025-06-16T13:05:37Z</time>
      </trkpt>
      <trkpt lat="45.8596" lon="1.28962">
        <ele>325.8</ele>
        <time>2025-06-16T13:05:38Z</time>
      </trkpt>
      <trkpt lat="45.85963" lon="1.28964">
        <ele>325.9</ele>
        <time>2025-06-16T13:05:39Z</time>
      </trkpt>
      <trkpt lat="45.85966" lon="1.28966">
        <ele>326</ele>
        <time>2025-06-16T13:05:40Z</time>
      </trkpt>
      <trkpt lat="45.85969" lon="1.28968">
        <ele>326.1</ele>
        <time>2025-06-16T13:05:41Z</time>
      </trkpt>
      <trkpt lat="45.85972" lon="1.2897">
        <ele>326.2</ele>
        <time>2025-06-16T13:05:42Z</time>
      </trkpt>
      <trkpt lat="45.85974" lon="1.28972">
        <ele>326.3</ele>
        <time>2025-06-16T13:05:43Z</time>
      </trkpt>
      <trkpt lat="45.85977" lon="1.28974">
        <ele>326.4</ele>
        <time>2025-06-16T13:05:44Z</time>
      </trkpt>
      <trkpt lat="45.8598" lon="1.28976">
        <ele>326.6</ele>
        <time>2025-06-16T13:05:45Z</time>
      </trkpt>
      <trkpt lat="45.85982" lon="1.28978">
        <ele>326.7</ele>
        <time>2025-06-16T13:05:46Z</time>
      </trkpt>
      <trkpt lat="45.85985" lon="1.2898">
        <ele>326.8</ele>
        <time>2025-06-16T13:05:47Z</time>
      </trkpt>
      <trkpt lat="45.85987" lon="1.28982">
        <ele>327</ele>
        <time>2025-06-16T13:05:48Z</time>
      </trkpt>
      <trkpt lat="45.8599" lon="1.28985">
        <ele>327.2</ele>
        <time>2025-06-16T13:05:49Z</time>
      </trkpt>
      <trkpt lat="45.85991" lon="1.28986">
        <ele>327.2</ele>
        <time>2025-06-16T13:05:50Z</time>
      </trkpt>
      <trkpt lat="45.85994" lon="1.2899">
        <ele>327.6</ele>
        <time>2025-06-16T13:05:51Z</time>
      </trkpt>
      <trkpt lat="45.85995" lon="1.28992">
        <ele>327.7</ele>
        <time>2025-06-16T13:05:52Z</time>
      </trkpt>
      <trkpt lat="45.85996" lon="1.28996">
        <ele>328</ele>
        <time>2025-06-16T13:05:53Z</time>
      </trkpt>
      <trkpt lat="45.85998" lon="1.29">
        <ele>328.4</ele>
        <time>2025-06-16T13:05:54Z</time>
      </trkpt>
      <trkpt lat="45.86" lon="1.29003">
        <ele>328.7</ele>
        <time>2025-06-16T13:05:55Z</time>
      </trkpt>
      <trkpt lat="45.86001" lon="1.29006">
        <ele>329</ele>
        <time>2025-06-16T13:05:56Z</time>
      </trkpt>
      <trkpt lat="45.86003" lon="1.2901">
        <ele>329.3</ele>
        <time>2025-06-16T13:05:57Z</time>
      </trkpt>
      <trkpt lat="45.86005" lon="1.29013">
        <ele>329.6</ele>
        <time>2025-06-16T13:05:58Z</time>
      </trkpt>
      <trkpt lat="45.86008" lon="1.29016">
        <ele>329.9</ele>
        <time>2025-06-16T13:05:59Z</time>
      </trkpt>
      <trkpt lat="45.86009" lon="1.29016">
        <ele>330</ele>
        <time>2025-06-16T13:06:00Z</time>
      </trkpt>
      <trkpt lat="45.86012" lon="1.29019">
        <ele>330.3</ele>
        <time>2025-06-16T13:06:01Z</time>
      </trkpt>
      <trkpt lat="45.86014" lon="1.2902">
        <ele>330.4</ele>
        <time>2025-06-16T13:06:02Z</time>
      </trkpt>
      <trkpt lat="45.86018" lon="1.29021">
        <ele>330.8</ele>
        <time>2025-06-16T13:06:03Z</time>
      </trkpt>
      <trkpt lat="45.86019" lon="1.29021">
        <ele>330.9</ele>
        <time>2025-06-16T13:06:04Z</time>
      </trkpt>
      <trkpt lat="45.86022" lon="1.29021">
        <ele>331.1</ele>
        <time>2025-06-16T13:06:05Z</time>
      </trkpt>
      <trkpt lat="45.86023" lon="1.29021">
        <ele>331.2</ele>
        <time>2025-06-16T13:06:06Z</time>
      </trkpt>
      <trkpt lat="45.86026" lon="1.29023">
        <ele>331.5</ele>
        <time>2025-06-16T13:06:07Z</time>
      </trkpt>
      <trkpt lat="45.86028" lon="1.29024">
        <ele>331.6</ele>
        <time>2025-06-16T13:06:08Z</time>
      </trkpt>
      <trkpt lat="45.86031" lon="1.29026">
        <ele>331.9</ele>
        <time>2025-06-16T13:06:09Z</time>
      </trkpt>
      <trkpt lat="45.86032" lon="1.29027">
        <ele>332</ele>
        <time>2025-06-16T13:06:10Z</time>
      </trkpt>
      <trkpt lat="45.86036" lon="1.2903">
        <ele>332.3</ele>
        <time>2025-06-16T13:06:11Z</time>
      </trkpt>
      <trkpt lat="45.86037" lon="1.29031">
        <ele>332.4</ele>
        <time>2025-06-16T13:06:12Z</time>
      </trkpt>
      <trkpt lat="45.8604" lon="1.29033">
        <ele>332.7</ele>
        <time>2025-06-16T13:06:13Z</time>
      </trkpt>
      <trkpt lat="45.86041" lon="1.29034">
        <ele>332.8</ele>
        <time>2025-06-16T13:06:14Z</time>
      </trkpt>
      <trkpt lat="45.86044" lon="1.29035">
        <ele>333</ele>
        <time>2025-06-16T13:06:15Z</time>
      </trkpt>
      <trkpt lat="45.86047" lon="1.29037">
        <ele>333.2</ele>
        <time>2025-06-16T13:06:16Z</time>
      </trkpt>
      <trkpt lat="45.86048" lon="1.29038">
        <ele>333.3</ele>
        <time>2025-06-16T13:06:17Z</time>
      </trkpt>
      <trkpt lat="45.86052" lon="1.29041">
        <ele>333.5</ele>
        <time>2025-06-16T13:06:18Z</time>
      </trkpt>
      <trkpt lat="45.86053" lon="1.29041">
        <ele>333.6</ele>
        <time>2025-06-16T13:06:19Z</time>
      </trkpt>
      <trkpt lat="45.86056" lon="1.29043">
        <ele>333.8</ele>
        <time>2025-06-16T13:06:20Z</time>
      </trkpt>
      <trkpt lat="45.86057" lon="1.29044">
        <ele>333.9</ele>
        <time>2025-06-16T13:06:21Z</time>
      </trkpt>
      <trkpt lat="45.8606" lon="1.29047">
        <ele>334.1</ele>
        <time>2025-06-16T13:06:22Z</time>
      </trkpt>
      <trkpt lat="45.8606" lon="1.29047">
        <ele>334.1</ele>
        <time>2025-06-16T13:06:23Z</time>
      </trkpt>
      <trkpt lat="45.86062" lon="1.29048">
        <ele>334.1</ele>
        <time>2025-06-16T13:06:24Z</time>
      </trkpt>
      <trkpt lat="45.86064" lon="1.29049">
        <ele>334.1</ele>
        <time>2025-06-16T13:06:25Z</time>
      </trkpt>
      <trkpt lat="45.86065" lon="1.2905">
        <ele>334.1</ele>
        <time>2025-06-16T13:06:26Z</time>
      </trkpt>
      <trkpt lat="45.86066" lon="1.29051">
        <ele>334.1</ele>
        <time>2025-06-16T13:06:27Z</time>
      </trkpt>
      <trkpt lat="45.86067" lon="1.29052">
        <ele>334.2</ele>
        <time>2025-06-16T13:06:28Z</time>
      </trkpt>
      <trkpt lat="45.86069" lon="1.29055">
        <ele>334.2</ele>
        <time>2025-06-16T13:06:29Z</time>
      </trkpt>
      <trkpt lat="45.8607" lon="1.29057">
        <ele>334.3</ele>
        <time>2025-06-16T13:06:30Z</time>
      </trkpt>
      <trkpt lat="45.86071" lon="1.29061">
        <ele>334.3</ele>
        <time>2025-06-16T13:06:31Z</time>
      </trkpt>
      <trkpt lat="45.86072" lon="1.29065">
        <ele>334.4</ele>
        <time>2025-06-16T13:06:32Z</time>
      </trkpt>
      <trkpt lat="45.86072" lon="1.2907">
        <ele>334.5</ele>
        <time>2025-06-16T13:06:33Z</time>
      </trkpt>
      <trkpt lat="45.86073" lon="1.29074">
        <ele>334.6</ele>
        <time>2025-06-16T13:06:34Z</time>
      </trkpt>
      <trkpt lat="45.86074" lon="1.29078">
        <ele>334.6</ele>
        <time>2025-06-16T13:06:35Z</time>
      </trkpt>
      <trkpt lat="45.86075" lon="1.29082">
        <ele>334.7</ele>
        <time>2025-06-16T13:06:36Z</time>
      </trkpt>
      <trkpt lat="45.86077" lon="1.29087">
        <ele>334.8</ele>
        <time>2025-06-16T13:06:37Z</time>
      </trkpt>
      <trkpt lat="45.86078" lon="1.29091">
        <ele>334.9</ele>
        <time>2025-06-16T13:06:38Z</time>
      </trkpt>
      <trkpt lat="45.86081" lon="1.29094">
        <ele>334.9</ele>
        <time>2025-06-16T13:06:39Z</time>
      </trkpt>
      <trkpt lat="45.86083" lon="1.29097">
        <ele>335</ele>
        <time>2025-06-16T13:06:40Z</time>
      </trkpt>
      <trkpt lat="45.86085" lon="1.291">
        <ele>335.1</ele>
        <time>2025-06-16T13:06:41Z</time>
      </trkpt>
      <trkpt lat="45.86088" lon="1.29103">
        <ele>335.1</ele>
        <time>2025-06-16T13:06:42Z</time>
      </trkpt>
      <trkpt lat="45.8609" lon="1.29106">
        <ele>335.2</ele>
        <time>2025-06-16T13:06:43Z</time>
      </trkpt>
      <trkpt lat="45.86092" lon="1.29109">
        <ele>335.4</ele>
        <time>2025-06-16T13:06:44Z</time>
      </trkpt>
      <trkpt lat="45.86093" lon="1.29113">
        <ele>335.5</ele>
        <time>2025-06-16T13:06:45Z</time>
      </trkpt>
      <trkpt lat="45.86094" lon="1.29117">
        <ele>335.6</ele>
        <time>2025-06-16T13:06:46Z</time>
      </trkpt>
      <trkpt lat="45.86096" lon="1.2912">
        <ele>335.7</ele>
        <time>2025-06-16T13:06:47Z</time>
      </trkpt>
      <trkpt lat="45.86097" lon="1.2912">
        <ele>335.7</ele>
        <time>2025-06-16T13:06:48Z</time>
      </trkpt>
      <trkpt lat="45.86101" lon="1.29122">
        <ele>335.7</ele>
        <time>2025-06-16T13:06:49Z</time>
      </trkpt>
      <trkpt lat="45.86103" lon="1.29122">
        <ele>335.7</ele>
        <time>2025-06-16T13:06:50Z</time>
      </trkpt>
      <trkpt lat="45.86106" lon="1.29122">
        <ele>335.7</ele>
        <time>2025-06-16T13:06:51Z</time>
      </trkpt>
      <trkpt lat="45.86109" lon="1.29122">
        <ele>335.7</ele>
        <time>2025-06-16T13:06:52Z</time>
      </trkpt>
      <trkpt lat="45.86112" lon="1.29122">
        <ele>335.8</ele>
        <time>2025-06-16T13:06:53Z</time>
      </trkpt>
      <trkpt lat="45.86116" lon="1.29121">
        <ele>335.9</ele>
        <time>2025-06-16T13:06:54Z</time>
      </trkpt>
      <trkpt lat="45.86119" lon="1.29119">
        <ele>335.9</ele>
        <time>2025-06-16T13:06:55Z</time>
      </trkpt>
      <trkpt lat="45.86122" lon="1.29117">
        <ele>335.9</ele>
        <time>2025-06-16T13:06:56Z</time>
      </trkpt>
      <trkpt lat="45.86125" lon="1.29114">
        <ele>335.9</ele>
        <time>2025-06-16T13:06:57Z</time>
      </trkpt>
      <trkpt lat="45.86128" lon="1.29112">
        <ele>335.9</ele>
        <time>2025-06-16T13:06:58Z</time>
      </trkpt>
      <trkpt lat="45.86132" lon="1.2911">
        <ele>335.9</ele>
        <time>2025-06-16T13:06:59Z</time>
      </trkpt>
      <trkpt lat="45.86133" lon="1.2911">
        <ele>335.9</ele>
        <time>2025-06-16T13:07:00Z</time>
      </trkpt>
      <trkpt lat="45.86136" lon="1.29111">
        <ele>336</ele>
        <time>2025-06-16T13:07:01Z</time>
      </trkpt>
      <trkpt lat="45.86139" lon="1.29112">
        <ele>336</ele>
        <time>2025-06-16T13:07:02Z</time>
      </trkpt>
      <trkpt lat="45.86142" lon="1.29115">
        <ele>336.1</ele>
        <time>2025-06-16T13:07:03Z</time>
      </trkpt>
      <trkpt lat="45.86145" lon="1.29117">
        <ele>336.2</ele>
        <time>2025-06-16T13:07:04Z</time>
      </trkpt>
      <trkpt lat="45.86148" lon="1.2912">
        <ele>336.2</ele>
        <time>2025-06-16T13:07:05Z</time>
      </trkpt>
      <trkpt lat="45.86151" lon="1.29122">
        <ele>336.3</ele>
        <time>2025-06-16T13:07:06Z</time>
      </trkpt>
      <trkpt lat="45.86153" lon="1.29124">
        <ele>336.4</ele>
        <time>2025-06-16T13:07:07Z</time>
      </trkpt>
      <trkpt lat="45.86156" lon="1.29126">
        <ele>336.4</ele>
        <time>2025-06-16T13:07:08Z</time>
      </trkpt>
      <trkpt lat="45.86159" lon="1.29128">
        <ele>336.5</ele>
        <time>2025-06-16T13:07:09Z</time>
      </trkpt>
      <trkpt lat="45.86162" lon="1.2913">
        <ele>336.6</ele>
        <time>2025-06-16T13:07:10Z</time>
      </trkpt>
      <trkpt lat="45.86165" lon="1.29132">
        <ele>336.7</ele>
        <time>2025-06-16T13:07:11Z</time>
      </trkpt>
      <trkpt lat="45.86168" lon="1.29134">
        <ele>336.7</ele>
        <time>2025-06-16T13:07:12Z</time>
      </trkpt>
      <trkpt lat="45.8617" lon="1.29136">
        <ele>336.8</ele>
        <time>2025-06-16T13:07:13Z</time>
      </trkpt>
      <trkpt lat="45.86173" lon="1.29139">
        <ele>336.8</ele>
        <time>2025-06-16T13:07:14Z</time>
      </trkpt>
      <trkpt lat="45.86176" lon="1.29141">
        <ele>336.9</ele>
        <time>2025-06-16T13:07:15Z</time>
      </trkpt>
      <trkpt lat="45.8618" lon="1.29143">
        <ele>337</ele>
        <time>2025-06-16T13:07:16Z</time>
      </trkpt>
      <trkpt lat="45.86182" lon="1.29144">
        <ele>336.9</ele>
        <time>2025-06-16T13:07:17Z</time>
      </trkpt>
      <trkpt lat="45.86185" lon="1.29147">
        <ele>336.7</ele>
        <time>2025-06-16T13:07:18Z</time>
      </trkpt>
      <trkpt lat="45.86188" lon="1.29149">
        <ele>336.7</ele>
        <time>2025-06-16T13:07:19Z</time>
      </trkpt>
      <trkpt lat="45.86191" lon="1.29152">
        <ele>336.8</ele>
        <time>2025-06-16T13:07:20Z</time>
      </trkpt>
      <trkpt lat="45.86193" lon="1.29155">
        <ele>336.8</ele>
        <time>2025-06-16T13:07:21Z</time>
      </trkpt>
      <trkpt lat="45.86194" lon="1.29158">
        <ele>336.9</ele>
        <time>2025-06-16T13:07:22Z</time>
      </trkpt>
      <trkpt lat="45.86196" lon="1.29162">
        <ele>336.9</ele>
        <time>2025-06-16T13:07:23Z</time>
      </trkpt>
      <trkpt lat="45.86198" lon="1.29165">
        <ele>336.9</ele>
        <time>2025-06-16T13:07:24Z</time>
      </trkpt>
      <trkpt lat="45.86202" lon="1.29167">
        <ele>337</ele>
        <time>2025-06-16T13:07:25Z</time>
      </trkpt>
      <trkpt lat="45.86205" lon="1.29169">
        <ele>337.1</ele>
        <time>2025-06-16T13:07:26Z</time>
      </trkpt>
      <trkpt lat="45.86208" lon="1.29172">
        <ele>337.1</ele>
        <time>2025-06-16T13:07:27Z</time>
      </trkpt>
      <trkpt lat="45.86211" lon="1.29175">
        <ele>337.2</ele>
        <time>2025-06-16T13:07:28Z</time>
      </trkpt>
      <trkpt lat="45.86214" lon="1.29176">
        <ele>337.3</ele>
        <time>2025-06-16T13:07:29Z</time>
      </trkpt>
      <trkpt lat="45.86215" lon="1.29176">
        <ele>337.3</ele>
        <time>2025-06-16T13:07:30Z</time>
      </trkpt>
      <trkpt lat="45.86218" lon="1.29176">
        <ele>337.3</ele>
        <time>2025-06-16T13:07:31Z</time>
      </trkpt>
      <trkpt lat="45.86219" lon="1.29176">
        <ele>337.3</ele>
        <time>2025-06-16T13:07:32Z</time>
      </trkpt>
      <trkpt lat="45.86222" lon="1.29179">
        <ele>337.4</ele>
        <time>2025-06-16T13:07:33Z</time>
      </trkpt>
      <trkpt lat="45.86223" lon="1.2918">
        <ele>337.4</ele>
        <time>2025-06-16T13:07:34Z</time>
      </trkpt>
      <trkpt lat="45.86224" lon="1.29184">
        <ele>337.5</ele>
        <time>2025-06-16T13:07:35Z</time>
      </trkpt>
      <trkpt lat="45.86228" lon="1.29186">
        <ele>337.6</ele>
        <time>2025-06-16T13:07:36Z</time>
      </trkpt>
      <trkpt lat="45.8623" lon="1.29185">
        <ele>337.6</ele>
        <time>2025-06-16T13:07:37Z</time>
      </trkpt>
      <trkpt lat="45.86235" lon="1.29184">
        <ele>337.8</ele>
        <time>2025-06-16T13:07:38Z</time>
      </trkpt>
      <trkpt lat="45.86238" lon="1.29185">
        <ele>337.9</ele>
        <time>2025-06-16T13:07:39Z</time>
      </trkpt>
      <trkpt lat="45.86241" lon="1.29187">
        <ele>338</ele>
        <time>2025-06-16T13:07:40Z</time>
      </trkpt>
      <trkpt lat="45.86244" lon="1.29189">
        <ele>338.1</ele>
        <time>2025-06-16T13:07:41Z</time>
      </trkpt>
      <trkpt lat="45.86247" lon="1.29191">
        <ele>338.2</ele>
        <time>2025-06-16T13:07:42Z</time>
      </trkpt>
      <trkpt lat="45.8625" lon="1.29192">
        <ele>338.3</ele>
        <time>2025-06-16T13:07:43Z</time>
      </trkpt>
      <trkpt lat="45.86253" lon="1.29195">
        <ele>338.5</ele>
        <time>2025-06-16T13:07:44Z</time>
      </trkpt>
      <trkpt lat="45.86255" lon="1.29196">
        <ele>338.5</ele>
        <time>2025-06-16T13:07:45Z</time>
      </trkpt>
      <trkpt lat="45.86257" lon="1.29198">
        <ele>338.6</ele>
        <time>2025-06-16T13:07:46Z</time>
      </trkpt>
      <trkpt lat="45.8626" lon="1.29201">
        <ele>338.8</ele>
        <time>2025-06-16T13:07:47Z</time>
      </trkpt>
      <trkpt lat="45.86263" lon="1.29202">
        <ele>338.9</ele>
        <time>2025-06-16T13:07:48Z</time>
      </trkpt>
      <trkpt lat="45.86265" lon="1.29204">
        <ele>339</ele>
        <time>2025-06-16T13:07:49Z</time>
      </trkpt>
      <trkpt lat="45.86268" lon="1.29205">
        <ele>339.1</ele>
        <time>2025-06-16T13:07:50Z</time>
      </trkpt>
      <trkpt lat="45.86271" lon="1.29207">
        <ele>339.3</ele>
        <time>2025-06-16T13:07:51Z</time>
      </trkpt>
      <trkpt lat="45.86274" lon="1.29208">
        <ele>339.4</ele>
        <time>2025-06-16T13:07:52Z</time>
      </trkpt>
      <trkpt lat="45.86277" lon="1.2921">
        <ele>339.5</ele>
        <time>2025-06-16T13:07:53Z</time>
      </trkpt>
      <trkpt lat="45.86278" lon="1.29211">
        <ele>339.6</ele>
        <time>2025-06-16T13:07:54Z</time>
      </trkpt>
      <trkpt lat="45.86282" lon="1.29213">
        <ele>339.8</ele>
        <time>2025-06-16T13:07:55Z</time>
      </trkpt>
      <trkpt lat="45.86283" lon="1.29213">
        <ele>339.9</ele>
        <time>2025-06-16T13:07:56Z</time>
      </trkpt>
      <trkpt lat="45.86286" lon="1.29215">
        <ele>340</ele>
        <time>2025-06-16T13:07:57Z</time>
      </trkpt>
      <trkpt lat="45.86287" lon="1.29216">
        <ele>340.1</ele>
        <time>2025-06-16T13:07:58Z</time>
      </trkpt>
      <trkpt lat="45.8629" lon="1.29218">
        <ele>340.2</ele>
        <time>2025-06-16T13:07:59Z</time>
      </trkpt>
      <trkpt lat="45.86292" lon="1.2922">
        <ele>340.4</ele>
        <time>2025-06-16T13:08:00Z</time>
      </trkpt>
      <trkpt lat="45.86295" lon="1.29223">
        <ele>340.5</ele>
        <time>2025-06-16T13:08:01Z</time>
      </trkpt>
      <trkpt lat="45.86296" lon="1.29224">
        <ele>340.6</ele>
        <time>2025-06-16T13:08:02Z</time>
      </trkpt>
      <trkpt lat="45.863" lon="1.29226">
        <ele>340.8</ele>
        <time>2025-06-16T13:08:03Z</time>
      </trkpt>
      <trkpt lat="45.86301" lon="1.29228">
        <ele>340.9</ele>
        <time>2025-06-16T13:08:04Z</time>
      </trkpt>
      <trkpt lat="45.86304" lon="1.2923">
        <ele>341</ele>
        <time>2025-06-16T13:08:05Z</time>
      </trkpt>
      <trkpt lat="45.86306" lon="1.29232">
        <ele>341.2</ele>
        <time>2025-06-16T13:08:06Z</time>
      </trkpt>
      <trkpt lat="45.86309" lon="1.29234">
        <ele>341.3</ele>
        <time>2025-06-16T13:08:07Z</time>
      </trkpt>
      <trkpt lat="45.86311" lon="1.29236">
        <ele>341.5</ele>
        <time>2025-06-16T13:08:08Z</time>
      </trkpt>
      <trkpt lat="45.86314" lon="1.29239">
        <ele>341.6</ele>
        <time>2025-06-16T13:08:09Z</time>
      </trkpt>
      <trkpt lat="45.86315" lon="1.2924">
        <ele>341.7</ele>
        <time>2025-06-16T13:08:10Z</time>
      </trkpt>
      <trkpt lat="45.86319" lon="1.29243">
        <ele>341.9</ele>
        <time>2025-06-16T13:08:11Z</time>
      </trkpt>
      <trkpt lat="45.8632" lon="1.29243">
        <ele>341.9</ele>
        <time>2025-06-16T13:08:12Z</time>
      </trkpt>
      <trkpt lat="45.86323" lon="1.29246">
        <ele>342.2</ele>
        <time>2025-06-16T13:08:13Z</time>
      </trkpt>
      <trkpt lat="45.86325" lon="1.29247">
        <ele>342.2</ele>
        <time>2025-06-16T13:08:14Z</time>
      </trkpt>
      <trkpt lat="45.86328" lon="1.2925">
        <ele>342.4</ele>
        <time>2025-06-16T13:08:15Z</time>
      </trkpt>
      <trkpt lat="45.86329" lon="1.29251">
        <ele>342.5</ele>
        <time>2025-06-16T13:08:16Z</time>
      </trkpt>
      <trkpt lat="45.86332" lon="1.29252">
        <ele>342.6</ele>
        <time>2025-06-16T13:08:17Z</time>
      </trkpt>
      <trkpt lat="45.86335" lon="1.29255">
        <ele>342.8</ele>
        <time>2025-06-16T13:08:18Z</time>
      </trkpt>
      <trkpt lat="45.86336" lon="1.29256">
        <ele>342.9</ele>
        <time>2025-06-16T13:08:19Z</time>
      </trkpt>
      <trkpt lat="45.8634" lon="1.29259">
        <ele>343.1</ele>
        <time>2025-06-16T13:08:20Z</time>
      </trkpt>
      <trkpt lat="45.86341" lon="1.2926">
        <ele>343.1</ele>
        <time>2025-06-16T13:08:21Z</time>
      </trkpt>
      <trkpt lat="45.86344" lon="1.29262">
        <ele>343.3</ele>
        <time>2025-06-16T13:08:22Z</time>
      </trkpt>
      <trkpt lat="45.86345" lon="1.29263">
        <ele>343.3</ele>
        <time>2025-06-16T13:08:23Z</time>
      </trkpt>
      <trkpt lat="45.86348" lon="1.29266">
        <ele>343.5</ele>
        <time>2025-06-16T13:08:24Z</time>
      </trkpt>
      <trkpt lat="45.86349" lon="1.29267">
        <ele>343.6</ele>
        <time>2025-06-16T13:08:25Z</time>
      </trkpt>
      <trkpt lat="45.86351" lon="1.29269">
        <ele>343.7</ele>
        <time>2025-06-16T13:08:26Z</time>
      </trkpt>
      <trkpt lat="45.86354" lon="1.29271">
        <ele>343.7</ele>
        <time>2025-06-16T13:08:27Z</time>
      </trkpt>
      <trkpt lat="45.86357" lon="1.29274">
        <ele>343.9</ele>
        <time>2025-06-16T13:08:28Z</time>
      </trkpt>
      <trkpt lat="45.86358" lon="1.29275">
        <ele>343.9</ele>
        <time>2025-06-16T13:08:29Z</time>
      </trkpt>
      <trkpt lat="45.86362" lon="1.29278">
        <ele>344</ele>
        <time>2025-06-16T13:08:30Z</time>
      </trkpt>
      <trkpt lat="45.86363" lon="1.29279">
        <ele>344.1</ele>
        <time>2025-06-16T13:08:31Z</time>
      </trkpt>
      <trkpt lat="45.86365" lon="1.29281">
        <ele>344.2</ele>
        <time>2025-06-16T13:08:32Z</time>
      </trkpt>
      <trkpt lat="45.86368" lon="1.29283">
        <ele>344.3</ele>
        <time>2025-06-16T13:08:33Z</time>
      </trkpt>
      <trkpt lat="45.86369" lon="1.29284">
        <ele>344.3</ele>
        <time>2025-06-16T13:08:34Z</time>
      </trkpt>
      <trkpt lat="45.86372" lon="1.29287">
        <ele>344.4</ele>
        <time>2025-06-16T13:08:35Z</time>
      </trkpt>
      <trkpt lat="45.86373" lon="1.29288">
        <ele>344.5</ele>
        <time>2025-06-16T13:08:36Z</time>
      </trkpt>
      <trkpt lat="45.86376" lon="1.2929">
        <ele>344.6</ele>
        <time>2025-06-16T13:08:37Z</time>
      </trkpt>
      <trkpt lat="45.86377" lon="1.29291">
        <ele>344.6</ele>
        <time>2025-06-16T13:08:38Z</time>
      </trkpt>
      <trkpt lat="45.8638" lon="1.29294">
        <ele>344.8</ele>
        <time>2025-06-16T13:08:39Z</time>
      </trkpt>
      <trkpt lat="45.86381" lon="1.29296">
        <ele>344.8</ele>
        <time>2025-06-16T13:08:40Z</time>
      </trkpt>
      <trkpt lat="45.86384" lon="1.29298">
        <ele>345</ele>
        <time>2025-06-16T13:08:41Z</time>
      </trkpt>
      <trkpt lat="45.86387" lon="1.293">
        <ele>345.2</ele>
        <time>2025-06-16T13:08:42Z</time>
      </trkpt>
      <trkpt lat="45.86389" lon="1.29301">
        <ele>345.3</ele>
        <time>2025-06-16T13:08:43Z</time>
      </trkpt>
      <trkpt lat="45.86391" lon="1.29303">
        <ele>345.4</ele>
        <time>2025-06-16T13:08:44Z</time>
      </trkpt>
      <trkpt lat="45.86394" lon="1.29305">
        <ele>345.6</ele>
        <time>2025-06-16T13:08:45Z</time>
      </trkpt>
      <trkpt lat="45.86397" lon="1.29307">
        <ele>345.8</ele>
        <time>2025-06-16T13:08:46Z</time>
      </trkpt>
      <trkpt lat="45.86399" lon="1.29309">
        <ele>345.9</ele>
        <time>2025-06-16T13:08:47Z</time>
      </trkpt>
      <trkpt lat="45.86403" lon="1.29311">
        <ele>346.1</ele>
        <time>2025-06-16T13:08:48Z</time>
      </trkpt>
      <trkpt lat="45.86404" lon="1.29311">
        <ele>346.2</ele>
        <time>2025-06-16T13:08:49Z</time>
      </trkpt>
      <trkpt lat="45.86408" lon="1.29313">
        <ele>346.4</ele>
        <time>2025-06-16T13:08:50Z</time>
      </trkpt>
      <trkpt lat="45.86412" lon="1.29315">
        <ele>346.8</ele>
        <time>2025-06-16T13:08:51Z</time>
      </trkpt>
      <trkpt lat="45.86415" lon="1.29317">
        <ele>347</ele>
        <time>2025-06-16T13:08:52Z</time>
      </trkpt>
      <trkpt lat="45.86417" lon="1.29319">
        <ele>347.3</ele>
        <time>2025-06-16T13:08:53Z</time>
      </trkpt>
      <trkpt lat="45.86421" lon="1.29322">
        <ele>347.6</ele>
        <time>2025-06-16T13:08:54Z</time>
      </trkpt>
      <trkpt lat="45.86421" lon="1.29323">
        <ele>347.7</ele>
        <time>2025-06-16T13:08:55Z</time>
      </trkpt>
      <trkpt lat="45.86425" lon="1.29325">
        <ele>348</ele>
        <time>2025-06-16T13:08:56Z</time>
      </trkpt>
      <trkpt lat="45.86426" lon="1.29326">
        <ele>348.1</ele>
        <time>2025-06-16T13:08:57Z</time>
      </trkpt>
      <trkpt lat="45.86429" lon="1.29328">
        <ele>348.3</ele>
        <time>2025-06-16T13:08:58Z</time>
      </trkpt>
      <trkpt lat="45.8643" lon="1.29328">
        <ele>348.4</ele>
        <time>2025-06-16T13:08:59Z</time>
      </trkpt>
      <trkpt lat="45.86434" lon="1.29328">
        <ele>348.6</ele>
        <time>2025-06-16T13:09:00Z</time>
      </trkpt>
      <trkpt lat="45.86435" lon="1.29328">
        <ele>348.7</ele>
        <time>2025-06-16T13:09:01Z</time>
      </trkpt>
      <trkpt lat="45.86439" lon="1.29327">
        <ele>348.7</ele>
        <time>2025-06-16T13:09:02Z</time>
      </trkpt>
      <trkpt lat="45.8644" lon="1.29326">
        <ele>348.8</ele>
        <time>2025-06-16T13:09:03Z</time>
      </trkpt>
      <trkpt lat="45.86443" lon="1.29324">
        <ele>348.8</ele>
        <time>2025-06-16T13:09:04Z</time>
      </trkpt>
      <trkpt lat="45.86446" lon="1.29321">
        <ele>348.9</ele>
        <time>2025-06-16T13:09:05Z</time>
      </trkpt>
      <trkpt lat="45.86448" lon="1.29318">
        <ele>348.9</ele>
        <time>2025-06-16T13:09:06Z</time>
      </trkpt>
      <trkpt lat="45.86451" lon="1.29314">
        <ele>349</ele>
        <time>2025-06-16T13:09:07Z</time>
      </trkpt>
      <trkpt lat="45.86453" lon="1.29311">
        <ele>349</ele>
        <time>2025-06-16T13:09:08Z</time>
      </trkpt>
      <trkpt lat="45.86456" lon="1.29307">
        <ele>349.1</ele>
        <time>2025-06-16T13:09:09Z</time>
      </trkpt>
      <trkpt lat="45.86458" lon="1.29303">
        <ele>349.1</ele>
        <time>2025-06-16T13:09:10Z</time>
      </trkpt>
      <trkpt lat="45.8646" lon="1.29299">
        <ele>349.2</ele>
        <time>2025-06-16T13:09:11Z</time>
      </trkpt>
      <trkpt lat="45.86462" lon="1.29295">
        <ele>349.2</ele>
        <time>2025-06-16T13:09:12Z</time>
      </trkpt>
      <trkpt lat="45.86464" lon="1.29291">
        <ele>349.3</ele>
        <time>2025-06-16T13:09:13Z</time>
      </trkpt>
      <trkpt lat="45.86466" lon="1.29288">
        <ele>349.3</ele>
        <time>2025-06-16T13:09:14Z</time>
      </trkpt>
      <trkpt lat="45.86468" lon="1.29284">
        <ele>349.4</ele>
        <time>2025-06-16T13:09:15Z</time>
      </trkpt>
      <trkpt lat="45.8647" lon="1.2928">
        <ele>349.5</ele>
        <time>2025-06-16T13:09:16Z</time>
      </trkpt>
      <trkpt lat="45.86472" lon="1.29276">
        <ele>349.5</ele>
        <time>2025-06-16T13:09:17Z</time>
      </trkpt>
      <trkpt lat="45.86475" lon="1.29273">
        <ele>349.6</ele>
        <time>2025-06-16T13:09:18Z</time>
      </trkpt>
      <trkpt lat="45.86477" lon="1.29269">
        <ele>349.6</ele>
        <time>2025-06-16T13:09:19Z</time>
      </trkpt>
      <trkpt lat="45.86479" lon="1.29265">
        <ele>349.7</ele>
        <time>2025-06-16T13:09:20Z</time>
      </trkpt>
      <trkpt lat="45.86482" lon="1.29262">
        <ele>349.8</ele>
        <time>2025-06-16T13:09:21Z</time>
      </trkpt>
      <trkpt lat="45.86484" lon="1.29259">
        <ele>349.8</ele>
        <time>2025-06-16T13:09:22Z</time>
      </trkpt>
      <trkpt lat="45.86486" lon="1.29255">
        <ele>349.9</ele>
        <time>2025-06-16T13:09:23Z</time>
      </trkpt>
      <trkpt lat="45.86489" lon="1.29252">
        <ele>350</ele>
        <time>2025-06-16T13:09:24Z</time>
      </trkpt>
      <trkpt lat="45.86491" lon="1.29248">
        <ele>350</ele>
        <time>2025-06-16T13:09:25Z</time>
      </trkpt>
      <trkpt lat="45.86493" lon="1.29245">
        <ele>350.1</ele>
        <time>2025-06-16T13:09:26Z</time>
      </trkpt>
      <trkpt lat="45.86496" lon="1.29241">
        <ele>350.2</ele>
        <time>2025-06-16T13:09:27Z</time>
      </trkpt>
      <trkpt lat="45.86498" lon="1.29237">
        <ele>350.3</ele>
        <time>2025-06-16T13:09:28Z</time>
      </trkpt>
      <trkpt lat="45.865" lon="1.29234">
        <ele>350.4</ele>
        <time>2025-06-16T13:09:29Z</time>
      </trkpt>
      <trkpt lat="45.86503" lon="1.2923">
        <ele>350.5</ele>
        <time>2025-06-16T13:09:30Z</time>
      </trkpt>
      <trkpt lat="45.86505" lon="1.29226">
        <ele>350.5</ele>
        <time>2025-06-16T13:09:31Z</time>
      </trkpt>
      <trkpt lat="45.86507" lon="1.29222">
        <ele>350.6</ele>
        <time>2025-06-16T13:09:32Z</time>
      </trkpt>
      <trkpt lat="45.86509" lon="1.29219">
        <ele>350.7</ele>
        <time>2025-06-16T13:09:33Z</time>
      </trkpt>
      <trkpt lat="45.86512" lon="1.29215">
        <ele>350.8</ele>
        <time>2025-06-16T13:09:34Z</time>
      </trkpt>
      <trkpt lat="45.86514" lon="1.29212">
        <ele>350.9</ele>
        <time>2025-06-16T13:09:35Z</time>
      </trkpt>
      <trkpt lat="45.86516" lon="1.29208">
        <ele>351</ele>
        <time>2025-06-16T13:09:36Z</time>
      </trkpt>
      <trkpt lat="45.86519" lon="1.29204">
        <ele>351.2</ele>
        <time>2025-06-16T13:09:37Z</time>
      </trkpt>
      <trkpt lat="45.86521" lon="1.292">
        <ele>351.3</ele>
        <time>2025-06-16T13:09:38Z</time>
      </trkpt>
      <trkpt lat="45.86524" lon="1.29197">
        <ele>351.4</ele>
        <time>2025-06-16T13:09:39Z</time>
      </trkpt>
      <trkpt lat="45.86526" lon="1.29194">
        <ele>351.5</ele>
        <time>2025-06-16T13:09:40Z</time>
      </trkpt>
      <trkpt lat="45.86526" lon="1.29193">
        <ele>351.5</ele>
        <time>2025-06-16T13:09:41Z</time>
      </trkpt>
      <trkpt lat="45.86527" lon="1.29192">
        <ele>351.5</ele>
        <time>2025-06-16T13:09:42Z</time>
      </trkpt>
      <trkpt lat="45.86527" lon="1.29191">
        <ele>351.5</ele>
        <time>2025-06-16T13:09:43Z</time>
      </trkpt>
      <trkpt lat="45.86527" lon="1.29191">
        <ele>351.5</ele>
        <time>2025-06-16T13:09:44Z</time>
      </trkpt>
      <trkpt lat="45.86527" lon="1.29191">
        <ele>351.5</ele>
        <time>2025-06-16T13:09:45Z</time>
      </trkpt>
      <trkpt lat="45.86527" lon="1.2919">
        <ele>351.5</ele>
        <time>2025-06-16T13:09:46Z</time>
      </trkpt>
      <trkpt lat="45.86527" lon="1.2919">
        <ele>351.6</ele>
        <time>2025-06-16T13:09:47Z</time>
      </trkpt>
      <trkpt lat="45.86527" lon="1.2919">
        <ele>351.6</ele>
        <time>2025-06-16T13:09:48Z</time>
      </trkpt>
      <trkpt lat="45.86527" lon="1.29189">
        <ele>351.6</ele>
        <time>2025-06-16T13:09:49Z</time>
      </trkpt>
      <trkpt lat="45.86527" lon="1.29189">
        <ele>351.6</ele>
        <time>2025-06-16T13:09:50Z</time>
      </trkpt>
      <trkpt lat="45.86527" lon="1.29189">
        <ele>351.6</ele>
        <time>2025-06-16T13:09:51Z</time>
      </trkpt>
      <trkpt lat="45.86527" lon="1.29188">
        <ele>351.6</ele>
        <time>2025-06-16T13:09:52Z</time>
      </trkpt>
      <trkpt lat="45.86527" lon="1.29188">
        <ele>351.6</ele>
        <time>2025-06-16T13:09:53Z</time>
      </trkpt>
      <trkpt lat="45.86527" lon="1.29188">
        <ele>351.6</ele>
        <time>2025-06-16T13:09:54Z</time>
      </trkpt>
      <trkpt lat="45.86527" lon="1.29187">
        <ele>351.6</ele>
        <time>2025-06-16T13:09:55Z</time>
      </trkpt>
      <trkpt lat="45.86528" lon="1.29185">
        <ele>351.7</ele>
        <time>2025-06-16T13:09:56Z</time>
      </trkpt>
      <trkpt lat="45.8653" lon="1.29184">
        <ele>351.7</ele>
        <time>2025-06-16T13:09:57Z</time>
      </trkpt>
      <trkpt lat="45.86531" lon="1.29184">
        <ele>351.8</ele>
        <time>2025-06-16T13:09:58Z</time>
      </trkpt>
      <trkpt lat="45.86533" lon="1.29184">
        <ele>351.8</ele>
        <time>2025-06-16T13:09:59Z</time>
      </trkpt>
      <trkpt lat="45.86537" lon="1.29184">
        <ele>351.9</ele>
        <time>2025-06-16T13:10:00Z</time>
      </trkpt>
      <trkpt lat="45.86538" lon="1.29183">
        <ele>351.9</ele>
        <time>2025-06-16T13:10:01Z</time>
      </trkpt>
      <trkpt lat="45.86542" lon="1.29184">
        <ele>351.9</ele>
        <time>2025-06-16T13:10:02Z</time>
      </trkpt>
      <trkpt lat="45.86544" lon="1.29185">
        <ele>352</ele>
        <time>2025-06-16T13:10:03Z</time>
      </trkpt>
      <trkpt lat="45.86546" lon="1.29189">
        <ele>352</ele>
        <time>2025-06-16T13:10:04Z</time>
      </trkpt>
      <trkpt lat="45.86548" lon="1.29192">
        <ele>352</ele>
        <time>2025-06-16T13:10:05Z</time>
      </trkpt>
      <trkpt lat="45.86551" lon="1.29195">
        <ele>352.1</ele>
        <time>2025-06-16T13:10:06Z</time>
      </trkpt>
      <trkpt lat="45.86553" lon="1.29199">
        <ele>352.1</ele>
        <time>2025-06-16T13:10:07Z</time>
      </trkpt>
      <trkpt lat="45.86556" lon="1.29202">
        <ele>352.2</ele>
        <time>2025-06-16T13:10:08Z</time>
      </trkpt>
      <trkpt lat="45.86558" lon="1.29205">
        <ele>352.2</ele>
        <time>2025-06-16T13:10:09Z</time>
      </trkpt>
      <trkpt lat="45.86561" lon="1.29208">
        <ele>352.3</ele>
        <time>2025-06-16T13:10:10Z</time>
      </trkpt>
      <trkpt lat="45.86564" lon="1.29212">
        <ele>352.3</ele>
        <time>2025-06-16T13:10:11Z</time>
      </trkpt>
      <trkpt lat="45.86566" lon="1.29215">
        <ele>352.4</ele>
        <time>2025-06-16T13:10:12Z</time>
      </trkpt>
      <trkpt lat="45.86569" lon="1.29218">
        <ele>352.4</ele>
        <time>2025-06-16T13:10:13Z</time>
      </trkpt>
      <trkpt lat="45.86571" lon="1.29221">
        <ele>352.4</ele>
        <time>2025-06-16T13:10:14Z</time>
      </trkpt>
      <trkpt lat="45.86574" lon="1.29224">
        <ele>352.5</ele>
        <time>2025-06-16T13:10:15Z</time>
      </trkpt>
      <trkpt lat="45.86577" lon="1.29227">
        <ele>352.5</ele>
        <time>2025-06-16T13:10:16Z</time>
      </trkpt>
      <trkpt lat="45.86579" lon="1.2923">
        <ele>352.6</ele>
        <time>2025-06-16T13:10:17Z</time>
      </trkpt>
      <trkpt lat="45.86583" lon="1.29233">
        <ele>352.6</ele>
        <time>2025-06-16T13:10:18Z</time>
      </trkpt>
      <trkpt lat="45.86585" lon="1.29236">
        <ele>352.7</ele>
        <time>2025-06-16T13:10:19Z</time>
      </trkpt>
      <trkpt lat="45.86588" lon="1.29239">
        <ele>352.7</ele>
        <time>2025-06-16T13:10:20Z</time>
      </trkpt>
      <trkpt lat="45.8659" lon="1.29241">
        <ele>352.8</ele>
        <time>2025-06-16T13:10:21Z</time>
      </trkpt>
      <trkpt lat="45.86592" lon="1.29244">
        <ele>352.8</ele>
        <time>2025-06-16T13:10:22Z</time>
      </trkpt>
      <trkpt lat="45.86595" lon="1.29248">
        <ele>352.9</ele>
        <time>2025-06-16T13:10:23Z</time>
      </trkpt>
      <trkpt lat="45.86597" lon="1.29251">
        <ele>352.9</ele>
        <time>2025-06-16T13:10:24Z</time>
      </trkpt>
      <trkpt lat="45.866" lon="1.29253">
        <ele>353</ele>
        <time>2025-06-16T13:10:25Z</time>
      </trkpt>
      <trkpt lat="45.86602" lon="1.29255">
        <ele>353.1</ele>
        <time>2025-06-16T13:10:26Z</time>
      </trkpt>
      <trkpt lat="45.86606" lon="1.29258">
        <ele>353.1</ele>
        <time>2025-06-16T13:10:27Z</time>
      </trkpt>
      <trkpt lat="45.86609" lon="1.2926">
        <ele>353.2</ele>
        <time>2025-06-16T13:10:28Z</time>
      </trkpt>
      <trkpt lat="45.86611" lon="1.29263">
        <ele>353.3</ele>
        <time>2025-06-16T13:10:29Z</time>
      </trkpt>
      <trkpt lat="45.86614" lon="1.29265">
        <ele>353.3</ele>
        <time>2025-06-16T13:10:30Z</time>
      </trkpt>
      <trkpt lat="45.86617" lon="1.29268">
        <ele>353.4</ele>
        <time>2025-06-16T13:10:31Z</time>
      </trkpt>
      <trkpt lat="45.8662" lon="1.29271">
        <ele>353.5</ele>
        <time>2025-06-16T13:10:32Z</time>
      </trkpt>
      <trkpt lat="45.86622" lon="1.29274">
        <ele>353.6</ele>
        <time>2025-06-16T13:10:33Z</time>
      </trkpt>
      <trkpt lat="45.86625" lon="1.29277">
        <ele>353.7</ele>
        <time>2025-06-16T13:10:34Z</time>
      </trkpt>
      <trkpt lat="45.86627" lon="1.2928">
        <ele>353.8</ele>
        <time>2025-06-16T13:10:35Z</time>
      </trkpt>
      <trkpt lat="45.86629" lon="1.29283">
        <ele>353.9</ele>
        <time>2025-06-16T13:10:36Z</time>
      </trkpt>
      <trkpt lat="45.86631" lon="1.29287">
        <ele>354</ele>
        <time>2025-06-16T13:10:37Z</time>
      </trkpt>
      <trkpt lat="45.86633" lon="1.2929">
        <ele>354.1</ele>
        <time>2025-06-16T13:10:38Z</time>
      </trkpt>
      <trkpt lat="45.86636" lon="1.29293">
        <ele>354.2</ele>
        <time>2025-06-16T13:10:39Z</time>
      </trkpt>
      <trkpt lat="45.86638" lon="1.29296">
        <ele>354.3</ele>
        <time>2025-06-16T13:10:40Z</time>
      </trkpt>
      <trkpt lat="45.8664" lon="1.29299">
        <ele>354.4</ele>
        <time>2025-06-16T13:10:41Z</time>
      </trkpt>
      <trkpt lat="45.86642" lon="1.29302">
        <ele>354.5</ele>
        <time>2025-06-16T13:10:42Z</time>
      </trkpt>
      <trkpt lat="45.86644" lon="1.29305">
        <ele>354.6</ele>
        <time>2025-06-16T13:10:43Z</time>
      </trkpt>
      <trkpt lat="45.86646" lon="1.29308">
        <ele>354.8</ele>
        <time>2025-06-16T13:10:44Z</time>
      </trkpt>
      <trkpt lat="45.86649" lon="1.29312">
        <ele>354.9</ele>
        <time>2025-06-16T13:10:45Z</time>
      </trkpt>
      <trkpt lat="45.86651" lon="1.29315">
        <ele>355.4</ele>
        <time>2025-06-16T13:10:46Z</time>
      </trkpt>
      <trkpt lat="45.86655" lon="1.29317">
        <ele>356</ele>
        <time>2025-06-16T13:10:47Z</time>
      </trkpt>
      <trkpt lat="45.86658" lon="1.29318">
        <ele>356.5</ele>
        <time>2025-06-16T13:10:48Z</time>
      </trkpt>
      <trkpt lat="45.86661" lon="1.29318">
        <ele>356.7</ele>
        <time>2025-06-16T13:10:49Z</time>
      </trkpt>
      <trkpt lat="45.86665" lon="1.29318">
        <ele>356.9</ele>
        <time>2025-06-16T13:10:50Z</time>
      </trkpt>
      <trkpt lat="45.86668" lon="1.29317">
        <ele>357.2</ele>
        <time>2025-06-16T13:10:51Z</time>
      </trkpt>
      <trkpt lat="45.86671" lon="1.29316">
        <ele>357.4</ele>
        <time>2025-06-16T13:10:52Z</time>
      </trkpt>
      <trkpt lat="45.86675" lon="1.29313">
        <ele>357.5</ele>
        <time>2025-06-16T13:10:53Z</time>
      </trkpt>
      <trkpt lat="45.86677" lon="1.29311">
        <ele>357.5</ele>
        <time>2025-06-16T13:10:54Z</time>
      </trkpt>
      <trkpt lat="45.8668" lon="1.29309">
        <ele>357.5</ele>
        <time>2025-06-16T13:10:55Z</time>
      </trkpt>
      <trkpt lat="45.86684" lon="1.29307">
        <ele>357.6</ele>
        <time>2025-06-16T13:10:56Z</time>
      </trkpt>
      <trkpt lat="45.86687" lon="1.29306">
        <ele>357.7</ele>
        <time>2025-06-16T13:10:57Z</time>
      </trkpt>
      <trkpt lat="45.8669" lon="1.29305">
        <ele>357.7</ele>
        <time>2025-06-16T13:10:58Z</time>
      </trkpt>
      <trkpt lat="45.86693" lon="1.29305">
        <ele>357.8</ele>
        <time>2025-06-16T13:10:59Z</time>
      </trkpt>
      <trkpt lat="45.86697" lon="1.29304">
        <ele>357.9</ele>
        <time>2025-06-16T13:11:00Z</time>
      </trkpt>
      <trkpt lat="45.867" lon="1.29304">
        <ele>358</ele>
        <time>2025-06-16T13:11:01Z</time>
      </trkpt>
      <trkpt lat="45.86703" lon="1.29303">
        <ele>358</ele>
        <time>2025-06-16T13:11:02Z</time>
      </trkpt>
      <trkpt lat="45.86706" lon="1.29303">
        <ele>358.1</ele>
        <time>2025-06-16T13:11:03Z</time>
      </trkpt>
      <trkpt lat="45.86709" lon="1.29303">
        <ele>358.2</ele>
        <time>2025-06-16T13:11:04Z</time>
      </trkpt>
      <trkpt lat="45.86712" lon="1.29301">
        <ele>358.2</ele>
        <time>2025-06-16T13:11:05Z</time>
      </trkpt>
      <trkpt lat="45.86715" lon="1.293">
        <ele>358.2</ele>
        <time>2025-06-16T13:11:06Z</time>
      </trkpt>
      <trkpt lat="45.86719" lon="1.293">
        <ele>358.3</ele>
        <time>2025-06-16T13:11:07Z</time>
      </trkpt>
      <trkpt lat="45.86722" lon="1.29299">
        <ele>358.3</ele>
        <time>2025-06-16T13:11:08Z</time>
      </trkpt>
      <trkpt lat="45.86726" lon="1.29299">
        <ele>358.3</ele>
        <time>2025-06-16T13:11:09Z</time>
      </trkpt>
      <trkpt lat="45.86729" lon="1.29298">
        <ele>358.3</ele>
        <time>2025-06-16T13:11:10Z</time>
      </trkpt>
      <trkpt lat="45.86731" lon="1.29297">
        <ele>358.3</ele>
        <time>2025-06-16T13:11:11Z</time>
      </trkpt>
      <trkpt lat="45.86734" lon="1.29296">
        <ele>358.3</ele>
        <time>2025-06-16T13:11:12Z</time>
      </trkpt>
      <trkpt lat="45.86737" lon="1.29295">
        <ele>358.2</ele>
        <time>2025-06-16T13:11:13Z</time>
      </trkpt>
      <trkpt lat="45.8674" lon="1.29294">
        <ele>358.2</ele>
        <time>2025-06-16T13:11:14Z</time>
      </trkpt>
      <trkpt lat="45.86742" lon="1.29292">
        <ele>358.2</ele>
        <time>2025-06-16T13:11:15Z</time>
      </trkpt>
      <trkpt lat="45.86745" lon="1.29292">
        <ele>358.2</ele>
        <time>2025-06-16T13:11:16Z</time>
      </trkpt>
      <trkpt lat="45.86748" lon="1.29291">
        <ele>358.1</ele>
        <time>2025-06-16T13:11:17Z</time>
      </trkpt>
      <trkpt lat="45.86751" lon="1.29289">
        <ele>358</ele>
        <time>2025-06-16T13:11:18Z</time>
      </trkpt>
      <trkpt lat="45.86754" lon="1.29288">
        <ele>358</ele>
        <time>2025-06-16T13:11:19Z</time>
      </trkpt>
      <trkpt lat="45.86757" lon="1.29287">
        <ele>357.9</ele>
        <time>2025-06-16T13:11:20Z</time>
      </trkpt>
      <trkpt lat="45.8676" lon="1.29286">
        <ele>357.8</ele>
        <time>2025-06-16T13:11:21Z</time>
      </trkpt>
      <trkpt lat="45.86763" lon="1.29284">
        <ele>357.7</ele>
        <time>2025-06-16T13:11:22Z</time>
      </trkpt>
      <trkpt lat="45.86764" lon="1.29284">
        <ele>357.7</ele>
        <time>2025-06-16T13:11:23Z</time>
      </trkpt>
      <trkpt lat="45.86767" lon="1.29281">
        <ele>357.6</ele>
        <time>2025-06-16T13:11:24Z</time>
      </trkpt>
      <trkpt lat="45.86768" lon="1.29279">
        <ele>357.6</ele>
        <time>2025-06-16T13:11:25Z</time>
      </trkpt>
      <trkpt lat="45.86768" lon="1.29274">
        <ele>357.5</ele>
        <time>2025-06-16T13:11:26Z</time>
      </trkpt>
      <trkpt lat="45.86768" lon="1.29272">
        <ele>357.5</ele>
        <time>2025-06-16T13:11:27Z</time>
      </trkpt>
      <trkpt lat="45.86767" lon="1.29267">
        <ele>357.4</ele>
        <time>2025-06-16T13:11:28Z</time>
      </trkpt>
      <trkpt lat="45.86767" lon="1.29265">
        <ele>357.4</ele>
        <time>2025-06-16T13:11:29Z</time>
      </trkpt>
      <trkpt lat="45.86767" lon="1.29261">
        <ele>357.3</ele>
        <time>2025-06-16T13:11:30Z</time>
      </trkpt>
      <trkpt lat="45.86766" lon="1.29257">
        <ele>357.3</ele>
        <time>2025-06-16T13:11:31Z</time>
      </trkpt>
      <trkpt lat="45.86765" lon="1.29251">
        <ele>357.2</ele>
        <time>2025-06-16T13:11:32Z</time>
      </trkpt>
      <trkpt lat="45.86765" lon="1.2925">
        <ele>357.1</ele>
        <time>2025-06-16T13:11:33Z</time>
      </trkpt>
      <trkpt lat="45.86765" lon="1.29244">
        <ele>357.1</ele>
        <time>2025-06-16T13:11:34Z</time>
      </trkpt>
      <trkpt lat="45.86765" lon="1.29242">
        <ele>357</ele>
        <time>2025-06-16T13:11:35Z</time>
      </trkpt>
      <trkpt lat="45.86765" lon="1.29238">
        <ele>357</ele>
        <time>2025-06-16T13:11:36Z</time>
      </trkpt>
      <trkpt lat="45.86765" lon="1.29233">
        <ele>356.9</ele>
        <time>2025-06-16T13:11:37Z</time>
      </trkpt>
      <trkpt lat="45.86764" lon="1.2923">
        <ele>356.9</ele>
        <time>2025-06-16T13:11:38Z</time>
      </trkpt>
      <trkpt lat="45.86763" lon="1.29226">
        <ele>356.9</ele>
        <time>2025-06-16T13:11:39Z</time>
      </trkpt>
      <trkpt lat="45.86761" lon="1.29221">
        <ele>356.8</ele>
        <time>2025-06-16T13:11:40Z</time>
      </trkpt>
      <trkpt lat="45.8676" lon="1.2922">
        <ele>356.8</ele>
        <time>2025-06-16T13:11:41Z</time>
      </trkpt>
      <trkpt lat="45.86759" lon="1.29219">
        <ele>356.8</ele>
        <time>2025-06-16T13:11:42Z</time>
      </trkpt>
      <trkpt lat="45.86757" lon="1.2922">
        <ele>356.8</ele>
        <time>2025-06-16T13:11:43Z</time>
      </trkpt>
      <trkpt lat="45.86756" lon="1.29225">
        <ele>356.7</ele>
        <time>2025-06-16T13:11:44Z</time>
      </trkpt>
      <trkpt lat="45.86756" lon="1.29226">
        <ele>356.7</ele>
        <time>2025-06-16T13:11:45Z</time>
      </trkpt>
      <trkpt lat="45.86758" lon="1.2923">
        <ele>356.7</ele>
        <time>2025-06-16T13:11:46Z</time>
      </trkpt>
      <trkpt lat="45.86759" lon="1.2923">
        <ele>356.6</ele>
        <time>2025-06-16T13:11:47Z</time>
      </trkpt>
      <trkpt lat="45.86761" lon="1.29231">
        <ele>356.6</ele>
        <time>2025-06-16T13:11:48Z</time>
      </trkpt>
      <trkpt lat="45.86763" lon="1.2923">
        <ele>356.6</ele>
        <time>2025-06-16T13:11:49Z</time>
      </trkpt>
      <trkpt lat="45.86764" lon="1.29225">
        <ele>356.6</ele>
        <time>2025-06-16T13:11:50Z</time>
      </trkpt>
      <trkpt lat="45.86764" lon="1.29222">
        <ele>356.5</ele>
        <time>2025-06-16T13:11:51Z</time>
      </trkpt>
      <trkpt lat="45.86763" lon="1.29217">
        <ele>356.5</ele>
        <time>2025-06-16T13:11:52Z</time>
      </trkpt>
      <trkpt lat="45.86761" lon="1.29212">
        <ele>356.5</ele>
        <time>2025-06-16T13:11:53Z</time>
      </trkpt>
      <trkpt lat="45.86759" lon="1.29207">
        <ele>356.4</ele>
        <time>2025-06-16T13:11:54Z</time>
      </trkpt>
      <trkpt lat="45.86757" lon="1.29203">
        <ele>356.4</ele>
        <time>2025-06-16T13:11:55Z</time>
      </trkpt>
      <trkpt lat="45.86755" lon="1.29198">
        <ele>356.3</ele>
        <time>2025-06-16T13:11:56Z</time>
      </trkpt>
      <trkpt lat="45.86752" lon="1.29193">
        <ele>356.3</ele>
        <time>2025-06-16T13:11:57Z</time>
      </trkpt>
      <trkpt lat="45.8675" lon="1.29188">
        <ele>356.2</ele>
        <time>2025-06-16T13:11:58Z</time>
      </trkpt>
      <trkpt lat="45.86748" lon="1.29183">
        <ele>356.2</ele>
        <time>2025-06-16T13:11:59Z</time>
      </trkpt>
      <trkpt lat="45.86746" lon="1.29178">
        <ele>356.1</ele>
        <time>2025-06-16T13:12:00Z</time>
      </trkpt>
      <trkpt lat="45.86744" lon="1.29172">
        <ele>356</ele>
        <time>2025-06-16T13:12:01Z</time>
      </trkpt>
      <trkpt lat="45.86742" lon="1.29167">
        <ele>355.9</ele>
        <time>2025-06-16T13:12:02Z</time>
      </trkpt>
      <trkpt lat="45.86741" lon="1.29161">
        <ele>355.9</ele>
        <time>2025-06-16T13:12:03Z</time>
      </trkpt>
      <trkpt lat="45.86739" lon="1.29156">
        <ele>355.8</ele>
        <time>2025-06-16T13:12:04Z</time>
      </trkpt>
      <trkpt lat="45.86738" lon="1.2915">
        <ele>355.7</ele>
        <time>2025-06-16T13:12:05Z</time>
      </trkpt>
      <trkpt lat="45.86738" lon="1.29145">
        <ele>355.6</ele>
        <time>2025-06-16T13:12:06Z</time>
      </trkpt>
      <trkpt lat="45.86737" lon="1.29139">
        <ele>355.6</ele>
        <time>2025-06-16T13:12:07Z</time>
      </trkpt>
      <trkpt lat="45.86737" lon="1.29133">
        <ele>355.5</ele>
        <time>2025-06-16T13:12:08Z</time>
      </trkpt>
      <trkpt lat="45.86737" lon="1.29127">
        <ele>355.4</ele>
        <time>2025-06-16T13:12:09Z</time>
      </trkpt>
      <trkpt lat="45.86737" lon="1.29121">
        <ele>355.2</ele>
        <time>2025-06-16T13:12:10Z</time>
      </trkpt>
      <trkpt lat="45.86738" lon="1.29115">
        <ele>355.1</ele>
        <time>2025-06-16T13:12:11Z</time>
      </trkpt>
      <trkpt lat="45.86739" lon="1.29109">
        <ele>355</ele>
        <time>2025-06-16T13:12:12Z</time>
      </trkpt>
      <trkpt lat="45.8674" lon="1.29102">
        <ele>354.8</ele>
        <time>2025-06-16T13:12:13Z</time>
      </trkpt>
      <trkpt lat="45.86742" lon="1.29096">
        <ele>354.6</ele>
        <time>2025-06-16T13:12:14Z</time>
      </trkpt>
      <trkpt lat="45.86744" lon="1.2909">
        <ele>354.5</ele>
        <time>2025-06-16T13:12:15Z</time>
      </trkpt>
      <trkpt lat="45.86747" lon="1.29084">
        <ele>354.3</ele>
        <time>2025-06-16T13:12:16Z</time>
      </trkpt>
      <trkpt lat="45.86751" lon="1.29079">
        <ele>354.1</ele>
        <time>2025-06-16T13:12:17Z</time>
      </trkpt>
      <trkpt lat="45.86755" lon="1.29073">
        <ele>353.9</ele>
        <time>2025-06-16T13:12:18Z</time>
      </trkpt>
      <trkpt lat="45.8676" lon="1.29069">
        <ele>353.7</ele>
        <time>2025-06-16T13:12:19Z</time>
      </trkpt>
      <trkpt lat="45.86766" lon="1.29065">
        <ele>353.5</ele>
        <time>2025-06-16T13:12:20Z</time>
      </trkpt>
      <trkpt lat="45.86771" lon="1.29062">
        <ele>353.3</ele>
        <time>2025-06-16T13:12:21Z</time>
      </trkpt>
      <trkpt lat="45.86777" lon="1.29058">
        <ele>353.1</ele>
        <time>2025-06-16T13:12:22Z</time>
      </trkpt>
      <trkpt lat="45.86782" lon="1.29055">
        <ele>352.9</ele>
        <time>2025-06-16T13:12:23Z</time>
      </trkpt>
      <trkpt lat="45.86786" lon="1.29052">
        <ele>352.8</ele>
        <time>2025-06-16T13:12:24Z</time>
      </trkpt>
      <trkpt lat="45.86789" lon="1.29049">
        <ele>352.8</ele>
        <time>2025-06-16T13:12:25Z</time>
      </trkpt>
      <trkpt lat="45.86792" lon="1.29047">
        <ele>352.7</ele>
        <time>2025-06-16T13:12:26Z</time>
      </trkpt>
      <trkpt lat="45.86796" lon="1.29043">
        <ele>352.7</ele>
        <time>2025-06-16T13:12:27Z</time>
      </trkpt>
      <trkpt lat="45.86798" lon="1.2904">
        <ele>352.6</ele>
        <time>2025-06-16T13:12:28Z</time>
      </trkpt>
      <trkpt lat="45.86797" lon="1.29036">
        <ele>352.7</ele>
        <time>2025-06-16T13:12:29Z</time>
      </trkpt>
      <trkpt lat="45.86795" lon="1.29031">
        <ele>352.7</ele>
        <time>2025-06-16T13:12:30Z</time>
      </trkpt>
      <trkpt lat="45.86794" lon="1.29026">
        <ele>352.8</ele>
        <time>2025-06-16T13:12:31Z</time>
      </trkpt>
      <trkpt lat="45.86792" lon="1.2902">
        <ele>352.9</ele>
        <time>2025-06-16T13:12:32Z</time>
      </trkpt>
      <trkpt lat="45.86789" lon="1.29014">
        <ele>352.9</ele>
        <time>2025-06-16T13:12:33Z</time>
      </trkpt>
      <trkpt lat="45.86786" lon="1.29008">
        <ele>353</ele>
        <time>2025-06-16T13:12:34Z</time>
      </trkpt>
      <trkpt lat="45.86784" lon="1.29002">
        <ele>353</ele>
        <time>2025-06-16T13:12:35Z</time>
      </trkpt>
      <trkpt lat="45.86782" lon="1.28997">
        <ele>353.1</ele>
        <time>2025-06-16T13:12:36Z</time>
      </trkpt>
      <trkpt lat="45.8678" lon="1.28992">
        <ele>353.1</ele>
        <time>2025-06-16T13:12:37Z</time>
      </trkpt>
      <trkpt lat="45.8678" lon="1.28991">
        <ele>353</ele>
        <time>2025-06-16T13:12:38Z</time>
      </trkpt>
      <trkpt lat="45.86782" lon="1.28988">
        <ele>353</ele>
        <time>2025-06-16T13:12:39Z</time>
      </trkpt>
      <trkpt lat="45.86783" lon="1.28988">
        <ele>353</ele>
        <time>2025-06-16T13:12:40Z</time>
      </trkpt>
      <trkpt lat="45.86784" lon="1.28987">
        <ele>352.9</ele>
        <time>2025-06-16T13:12:41Z</time>
      </trkpt>
      <trkpt lat="45.86786" lon="1.28986">
        <ele>352.9</ele>
        <time>2025-06-16T13:12:42Z</time>
      </trkpt>
      <trkpt lat="45.86789" lon="1.28984">
        <ele>352.8</ele>
        <time>2025-06-16T13:12:43Z</time>
      </trkpt>
      <trkpt lat="45.86792" lon="1.28981">
        <ele>352.6</ele>
        <time>2025-06-16T13:12:44Z</time>
      </trkpt>
      <trkpt lat="45.86793" lon="1.2898">
        <ele>352.6</ele>
        <time>2025-06-16T13:12:45Z</time>
      </trkpt>
      <trkpt lat="45.86796" lon="1.28978">
        <ele>352.4</ele>
        <time>2025-06-16T13:12:46Z</time>
      </trkpt>
      <trkpt lat="45.86797" lon="1.28977">
        <ele>352.4</ele>
        <time>2025-06-16T13:12:47Z</time>
      </trkpt>
      <trkpt lat="45.868" lon="1.28975">
        <ele>352.2</ele>
        <time>2025-06-16T13:12:48Z</time>
      </trkpt>
      <trkpt lat="45.868" lon="1.28974">
        <ele>352.2</ele>
        <time>2025-06-16T13:12:49Z</time>
      </trkpt>
      <trkpt lat="45.86803" lon="1.28972">
        <ele>352</ele>
        <time>2025-06-16T13:12:50Z</time>
      </trkpt>
      <trkpt lat="45.86806" lon="1.28969">
        <ele>351.8</ele>
        <time>2025-06-16T13:12:51Z</time>
      </trkpt>
      <trkpt lat="45.8681" lon="1.28966">
        <ele>351.5</ele>
        <time>2025-06-16T13:12:52Z</time>
      </trkpt>
      <trkpt lat="45.86814" lon="1.28963">
        <ele>351.2</ele>
        <time>2025-06-16T13:12:53Z</time>
      </trkpt>
      <trkpt lat="45.86817" lon="1.28961">
        <ele>351</ele>
        <time>2025-06-16T13:12:54Z</time>
      </trkpt>
      <trkpt lat="45.86821" lon="1.28957">
        <ele>350.7</ele>
        <time>2025-06-16T13:12:55Z</time>
      </trkpt>
      <trkpt lat="45.86825" lon="1.28954">
        <ele>350.4</ele>
        <time>2025-06-16T13:12:56Z</time>
      </trkpt>
      <trkpt lat="45.86831" lon="1.2895">
        <ele>350</ele>
        <time>2025-06-16T13:12:57Z</time>
      </trkpt>
      <trkpt lat="45.86837" lon="1.28947">
        <ele>349.6</ele>
        <time>2025-06-16T13:12:58Z</time>
      </trkpt>
      <trkpt lat="45.86842" lon="1.28944">
        <ele>349.3</ele>
        <time>2025-06-16T13:12:59Z</time>
      </trkpt>
      <trkpt lat="45.86846" lon="1.28944">
        <ele>349.1</ele>
        <time>2025-06-16T13:13:00Z</time>
      </trkpt>
      <trkpt lat="45.86859" lon="1.28944">
        <ele>348.4</ele>
        <time>2025-06-16T13:13:01Z</time>
      </trkpt>
      <trkpt lat="45.86867" lon="1.28946">
        <ele>348.1</ele>
        <time>2025-06-16T13:13:02Z</time>
      </trkpt>
      <trkpt lat="45.86875" lon="1.28949">
        <ele>347.9</ele>
        <time>2025-06-16T13:13:03Z</time>
      </trkpt>
      <trkpt lat="45.86883" lon="1.28951">
        <ele>347.7</ele>
        <time>2025-06-16T13:13:04Z</time>
      </trkpt>
      <trkpt lat="45.86888" lon="1.28953">
        <ele>347.4</ele>
        <time>2025-06-16T13:13:05Z</time>
      </trkpt>
      <trkpt lat="45.86893" lon="1.28952">
        <ele>347.1</ele>
        <time>2025-06-16T13:13:06Z</time>
      </trkpt>
      <trkpt lat="45.86897" lon="1.28951">
        <ele>346.9</ele>
        <time>2025-06-16T13:13:07Z</time>
      </trkpt>
      <trkpt lat="45.86902" lon="1.28948">
        <ele>346.6</ele>
        <time>2025-06-16T13:13:08Z</time>
      </trkpt>
      <trkpt lat="45.86906" lon="1.28947">
        <ele>346.3</ele>
        <time>2025-06-16T13:13:09Z</time>
      </trkpt>
      <trkpt lat="45.8691" lon="1.28947">
        <ele>346.1</ele>
        <time>2025-06-16T13:13:10Z</time>
      </trkpt>
      <trkpt lat="45.86914" lon="1.28947">
        <ele>345.8</ele>
        <time>2025-06-16T13:13:11Z</time>
      </trkpt>
      <trkpt lat="45.86919" lon="1.28948">
        <ele>345.6</ele>
        <time>2025-06-16T13:13:12Z</time>
      </trkpt>
      <trkpt lat="45.86923" lon="1.28948">
        <ele>345.4</ele>
        <time>2025-06-16T13:13:13Z</time>
      </trkpt>
      <trkpt lat="45.8693" lon="1.28946">
        <ele>345</ele>
        <time>2025-06-16T13:13:14Z</time>
      </trkpt>
      <trkpt lat="45.86937" lon="1.28944">
        <ele>344.7</ele>
        <time>2025-06-16T13:13:15Z</time>
      </trkpt>
      <trkpt lat="45.86944" lon="1.28942">
        <ele>344.5</ele>
        <time>2025-06-16T13:13:16Z</time>
      </trkpt>
      <trkpt lat="45.86951" lon="1.2894">
        <ele>344.3</ele>
        <time>2025-06-16T13:13:17Z</time>
      </trkpt>
      <trkpt lat="45.86958" lon="1.28938">
        <ele>344.2</ele>
        <time>2025-06-16T13:13:18Z</time>
      </trkpt>
      <trkpt lat="45.86961" lon="1.28938">
        <ele>344.2</ele>
        <time>2025-06-16T13:13:19Z</time>
      </trkpt>
      <trkpt lat="45.86967" lon="1.28938">
        <ele>344.1</ele>
        <time>2025-06-16T13:13:20Z</time>
      </trkpt>
      <trkpt lat="45.86972" lon="1.28938">
        <ele>344.2</ele>
        <time>2025-06-16T13:13:21Z</time>
      </trkpt>
      <trkpt lat="45.86977" lon="1.28937">
        <ele>344.2</ele>
        <time>2025-06-16T13:13:22Z</time>
      </trkpt>
      <trkpt lat="45.86982" lon="1.28937">
        <ele>344.3</ele>
        <time>2025-06-16T13:13:23Z</time>
      </trkpt>
      <trkpt lat="45.86988" lon="1.28938">
        <ele>344.3</ele>
        <time>2025-06-16T13:13:24Z</time>
      </trkpt>
      <trkpt lat="45.86992" lon="1.28937">
        <ele>344.4</ele>
        <time>2025-06-16T13:13:25Z</time>
      </trkpt>
      <trkpt lat="45.86996" lon="1.28935">
        <ele>344.5</ele>
        <time>2025-06-16T13:13:26Z</time>
      </trkpt>
      <trkpt lat="45.87001" lon="1.28933">
        <ele>344.5</ele>
        <time>2025-06-16T13:13:27Z</time>
      </trkpt>
      <trkpt lat="45.87005" lon="1.28931">
        <ele>344.6</ele>
        <time>2025-06-16T13:13:28Z</time>
      </trkpt>
      <trkpt lat="45.87008" lon="1.28931">
        <ele>344.6</ele>
        <time>2025-06-16T13:13:29Z</time>
      </trkpt>
      <trkpt lat="45.87012" lon="1.28932">
        <ele>344.6</ele>
        <time>2025-06-16T13:13:30Z</time>
      </trkpt>
      <trkpt lat="45.87013" lon="1.28932">
        <ele>344.6</ele>
        <time>2025-06-16T13:13:31Z</time>
      </trkpt>
      <trkpt lat="45.87017" lon="1.28932">
        <ele>344.6</ele>
        <time>2025-06-16T13:13:32Z</time>
      </trkpt>
      <trkpt lat="45.87021" lon="1.28931">
        <ele>344.6</ele>
        <time>2025-06-16T13:13:33Z</time>
      </trkpt>
      <trkpt lat="45.87026" lon="1.28931">
        <ele>344.6</ele>
        <time>2025-06-16T13:13:34Z</time>
      </trkpt>
      <trkpt lat="45.87032" lon="1.28931">
        <ele>344.6</ele>
        <time>2025-06-16T13:13:35Z</time>
      </trkpt>
      <trkpt lat="45.87037" lon="1.2893">
        <ele>344.6</ele>
        <time>2025-06-16T13:13:36Z</time>
      </trkpt>
      <trkpt lat="45.87042" lon="1.28929">
        <ele>344.6</ele>
        <time>2025-06-16T13:13:37Z</time>
      </trkpt>
      <trkpt lat="45.87046" lon="1.28928">
        <ele>344.5</ele>
        <time>2025-06-16T13:13:38Z</time>
      </trkpt>
      <trkpt lat="45.8705" lon="1.28927">
        <ele>344.5</ele>
        <time>2025-06-16T13:13:39Z</time>
      </trkpt>
      <trkpt lat="45.87054" lon="1.28925">
        <ele>344.4</ele>
        <time>2025-06-16T13:13:40Z</time>
      </trkpt>
      <trkpt lat="45.8706" lon="1.28921">
        <ele>344.2</ele>
        <time>2025-06-16T13:13:41Z</time>
      </trkpt>
      <trkpt lat="45.87066" lon="1.28918">
        <ele>343.9</ele>
        <time>2025-06-16T13:13:42Z</time>
      </trkpt>
      <trkpt lat="45.87068" lon="1.28914">
        <ele>343.8</ele>
        <time>2025-06-16T13:13:43Z</time>
      </trkpt>
      <trkpt lat="45.87068" lon="1.28914">
        <ele>343.7</ele>
        <time>2025-06-16T13:13:44Z</time>
      </trkpt>
      <trkpt lat="45.87071" lon="1.28907">
        <ele>343.5</ele>
        <time>2025-06-16T13:13:45Z</time>
      </trkpt>
      <trkpt lat="45.87073" lon="1.28904">
        <ele>343.4</ele>
        <time>2025-06-16T13:13:46Z</time>
      </trkpt>
      <trkpt lat="45.87076" lon="1.28897">
        <ele>343.1</ele>
        <time>2025-06-16T13:13:47Z</time>
      </trkpt>
      <trkpt lat="45.87079" lon="1.2889">
        <ele>342.9</ele>
        <time>2025-06-16T13:13:48Z</time>
      </trkpt>
      <trkpt lat="45.87084" lon="1.28886">
        <ele>342.6</ele>
        <time>2025-06-16T13:13:49Z</time>
      </trkpt>
      <trkpt lat="45.87089" lon="1.28881">
        <ele>342.3</ele>
        <time>2025-06-16T13:13:50Z</time>
      </trkpt>
      <trkpt lat="45.87096" lon="1.28875">
        <ele>341.9</ele>
        <time>2025-06-16T13:13:51Z</time>
      </trkpt>
      <trkpt lat="45.87103" lon="1.28869">
        <ele>341.5</ele>
        <time>2025-06-16T13:13:52Z</time>
      </trkpt>
      <trkpt lat="45.8711" lon="1.28864">
        <ele>341.1</ele>
        <time>2025-06-16T13:13:53Z</time>
      </trkpt>
      <trkpt lat="45.87118" lon="1.28858">
        <ele>340.5</ele>
        <time>2025-06-16T13:13:54Z</time>
      </trkpt>
      <trkpt lat="45.87127" lon="1.28849">
        <ele>339.9</ele>
        <time>2025-06-16T13:13:55Z</time>
      </trkpt>
      <trkpt lat="45.87134" lon="1.28839">
        <ele>339.4</ele>
        <time>2025-06-16T13:13:56Z</time>
      </trkpt>
      <trkpt lat="45.87141" lon="1.28829">
        <ele>339.1</ele>
        <time>2025-06-16T13:13:57Z</time>
      </trkpt>
      <trkpt lat="45.87147" lon="1.28821">
        <ele>339</ele>
        <time>2025-06-16T13:13:58Z</time>
      </trkpt>
      <trkpt lat="45.87153" lon="1.28814">
        <ele>338.9</ele>
        <time>2025-06-16T13:13:59Z</time>
      </trkpt>
      <trkpt lat="45.87155" lon="1.28806">
        <ele>338.8</ele>
        <time>2025-06-16T13:14:00Z</time>
      </trkpt>
      <trkpt lat="45.87156" lon="1.28798">
        <ele>338.7</ele>
        <time>2025-06-16T13:14:01Z</time>
      </trkpt>
      <trkpt lat="45.87157" lon="1.2879">
        <ele>338.7</ele>
        <time>2025-06-16T13:14:02Z</time>
      </trkpt>
      <trkpt lat="45.87158" lon="1.28782">
        <ele>338.7</ele>
        <time>2025-06-16T13:14:03Z</time>
      </trkpt>
      <trkpt lat="45.87154" lon="1.2874">
        <ele>338.6</ele>
        <time>2025-06-16T13:14:07Z</time>
      </trkpt>
      <trkpt lat="45.87156" lon="1.28734">
        <ele>338.6</ele>
        <time>2025-06-16T13:14:08Z</time>
      </trkpt>
      <trkpt lat="45.87158" lon="1.28723">
        <ele>338.6</ele>
        <time>2025-06-16T13:14:09Z</time>
      </trkpt>
      <trkpt lat="45.87159" lon="1.28715">
        <ele>338.6</ele>
        <time>2025-06-16T13:14:10Z</time>
      </trkpt>
      <trkpt lat="45.8716" lon="1.28707">
        <ele>338.6</ele>
        <time>2025-06-16T13:14:11Z</time>
      </trkpt>
      <trkpt lat="45.87165" lon="1.287">
        <ele>338.6</ele>
        <time>2025-06-16T13:14:12Z</time>
      </trkpt>
      <trkpt lat="45.87168" lon="1.28699">
        <ele>338.4</ele>
        <time>2025-06-16T13:14:13Z</time>
      </trkpt>
      <trkpt lat="45.87173" lon="1.28699">
        <ele>338.1</ele>
        <time>2025-06-16T13:14:14Z</time>
      </trkpt>
      <trkpt lat="45.87178" lon="1.28704">
        <ele>337.5</ele>
        <time>2025-06-16T13:14:15Z</time>
      </trkpt>
      <trkpt lat="45.87183" lon="1.28711">
        <ele>336.8</ele>
        <time>2025-06-16T13:14:16Z</time>
      </trkpt>
      <trkpt lat="45.87187" lon="1.28716">
        <ele>336.1</ele>
        <time>2025-06-16T13:14:17Z</time>
      </trkpt>
      <trkpt lat="45.87191" lon="1.2872">
        <ele>335.5</ele>
        <time>2025-06-16T13:14:18Z</time>
      </trkpt>
      <trkpt lat="45.87195" lon="1.28721">
        <ele>335</ele>
        <time>2025-06-16T13:14:19Z</time>
      </trkpt>
      <trkpt lat="45.87198" lon="1.2872">
        <ele>334.5</ele>
        <time>2025-06-16T13:14:20Z</time>
      </trkpt>
      <trkpt lat="45.87201" lon="1.28718">
        <ele>334</ele>
        <time>2025-06-16T13:14:21Z</time>
      </trkpt>
      <trkpt lat="45.87207" lon="1.28715">
        <ele>333.1</ele>
        <time>2025-06-16T13:14:22Z</time>
      </trkpt>
      <trkpt lat="45.87213" lon="1.28713">
        <ele>332.3</ele>
        <time>2025-06-16T13:14:23Z</time>
      </trkpt>
      <trkpt lat="45.87215" lon="1.28709">
        <ele>331.9</ele>
        <time>2025-06-16T13:14:24Z</time>
      </trkpt>
      <trkpt lat="45.87217" lon="1.28701">
        <ele>331.4</ele>
        <time>2025-06-16T13:14:25Z</time>
      </trkpt>
      <trkpt lat="45.87219" lon="1.28693">
        <ele>330.9</ele>
        <time>2025-06-16T13:14:26Z</time>
      </trkpt>
      <trkpt lat="45.87221" lon="1.28685">
        <ele>330.6</ele>
        <time>2025-06-16T13:14:27Z</time>
      </trkpt>
      <trkpt lat="45.87222" lon="1.28679">
        <ele>330.4</ele>
        <time>2025-06-16T13:14:28Z</time>
      </trkpt>
      <trkpt lat="45.87224" lon="1.28671">
        <ele>330.2</ele>
        <time>2025-06-16T13:14:29Z</time>
      </trkpt>
      <trkpt lat="45.87228" lon="1.28663">
        <ele>329.9</ele>
        <time>2025-06-16T13:14:30Z</time>
      </trkpt>
      <trkpt lat="45.8723" lon="1.28657">
        <ele>329.8</ele>
        <time>2025-06-16T13:14:31Z</time>
      </trkpt>
      <trkpt lat="45.87231" lon="1.2865">
        <ele>329.8</ele>
        <time>2025-06-16T13:14:32Z</time>
      </trkpt>
      <trkpt lat="45.87233" lon="1.28646">
        <ele>329.9</ele>
        <time>2025-06-16T13:14:33Z</time>
      </trkpt>
      <trkpt lat="45.87236" lon="1.28643">
        <ele>330</ele>
        <time>2025-06-16T13:14:34Z</time>
      </trkpt>
      <trkpt lat="45.87238" lon="1.28639">
        <ele>330.1</ele>
        <time>2025-06-16T13:14:35Z</time>
      </trkpt>
      <trkpt lat="45.8724" lon="1.28635">
        <ele>330.2</ele>
        <time>2025-06-16T13:14:36Z</time>
      </trkpt>
      <trkpt lat="45.87242" lon="1.28632">
        <ele>330.3</ele>
        <time>2025-06-16T13:14:37Z</time>
      </trkpt>
      <trkpt lat="45.87243" lon="1.28628">
        <ele>330.4</ele>
        <time>2025-06-16T13:14:38Z</time>
      </trkpt>
      <trkpt lat="45.87245" lon="1.28621">
        <ele>330.6</ele>
        <time>2025-06-16T13:14:39Z</time>
      </trkpt>
      <trkpt lat="45.87245" lon="1.28615">
        <ele>330.8</ele>
        <time>2025-06-16T13:14:40Z</time>
      </trkpt>
      <trkpt lat="45.87246" lon="1.28609">
        <ele>330.9</ele>
        <time>2025-06-16T13:14:41Z</time>
      </trkpt>
      <trkpt lat="45.87246" lon="1.28602">
        <ele>331</ele>
        <time>2025-06-16T13:14:42Z</time>
      </trkpt>
      <trkpt lat="45.87246" lon="1.28595">
        <ele>331.1</ele>
        <time>2025-06-16T13:14:43Z</time>
      </trkpt>
      <trkpt lat="45.87246" lon="1.28588">
        <ele>331.2</ele>
        <time>2025-06-16T13:14:44Z</time>
      </trkpt>
      <trkpt lat="45.87245" lon="1.28583">
        <ele>331.3</ele>
        <time>2025-06-16T13:14:45Z</time>
      </trkpt>
      <trkpt lat="45.87245" lon="1.28577">
        <ele>331.4</ele>
        <time>2025-06-16T13:14:46Z</time>
      </trkpt>
      <trkpt lat="45.87244" lon="1.28572">
        <ele>331.6</ele>
        <time>2025-06-16T13:14:47Z</time>
      </trkpt>
      <trkpt lat="45.87243" lon="1.28567">
        <ele>331.7</ele>
        <time>2025-06-16T13:14:48Z</time>
      </trkpt>
      <trkpt lat="45.87242" lon="1.28563">
        <ele>331.9</ele>
        <time>2025-06-16T13:14:49Z</time>
      </trkpt>
      <trkpt lat="45.87241" lon="1.28562">
        <ele>332</ele>
        <time>2025-06-16T13:14:50Z</time>
      </trkpt>
      <trkpt lat="45.87238" lon="1.28559">
        <ele>332.2</ele>
        <time>2025-06-16T13:14:51Z</time>
      </trkpt>
      <trkpt lat="45.87236" lon="1.28556">
        <ele>332.5</ele>
        <time>2025-06-16T13:14:52Z</time>
      </trkpt>
      <trkpt lat="45.87232" lon="1.28556">
        <ele>332.8</ele>
        <time>2025-06-16T13:14:53Z</time>
      </trkpt>
      <trkpt lat="45.87231" lon="1.28556">
        <ele>332.9</ele>
        <time>2025-06-16T13:14:54Z</time>
      </trkpt>
      <trkpt lat="45.87227" lon="1.28557">
        <ele>333.3</ele>
        <time>2025-06-16T13:14:55Z</time>
      </trkpt>
      <trkpt lat="45.87226" lon="1.28557">
        <ele>333.5</ele>
        <time>2025-06-16T13:14:56Z</time>
      </trkpt>
      <trkpt lat="45.87223" lon="1.28557">
        <ele>333.8</ele>
        <time>2025-06-16T13:14:57Z</time>
      </trkpt>
      <trkpt lat="45.8722" lon="1.28556">
        <ele>334.2</ele>
        <time>2025-06-16T13:14:58Z</time>
      </trkpt>
      <trkpt lat="45.87216" lon="1.28556">
        <ele>334.6</ele>
        <time>2025-06-16T13:14:59Z</time>
      </trkpt>
      <trkpt lat="45.87212" lon="1.28556">
        <ele>335.1</ele>
        <time>2025-06-16T13:15:00Z</time>
      </trkpt>
      <trkpt lat="45.87208" lon="1.28558">
        <ele>335.5</ele>
        <time>2025-06-16T13:15:01Z</time>
      </trkpt>
      <trkpt lat="45.87205" lon="1.28559">
        <ele>335.8</ele>
        <time>2025-06-16T13:15:02Z</time>
      </trkpt>
      <trkpt lat="45.87203" lon="1.28559">
        <ele>335.9</ele>
        <time>2025-06-16T13:15:03Z</time>
      </trkpt>
      <trkpt lat="45.87201" lon="1.28559">
        <ele>336.2</ele>
        <time>2025-06-16T13:15:04Z</time>
      </trkpt>
      <trkpt lat="45.87197" lon="1.28559">
        <ele>336.4</ele>
        <time>2025-06-16T13:15:05Z</time>
      </trkpt>
      <trkpt lat="45.87194" lon="1.28559">
        <ele>336.6</ele>
        <time>2025-06-16T13:15:06Z</time>
      </trkpt>
      <trkpt lat="45.87191" lon="1.28559">
        <ele>336.8</ele>
        <time>2025-06-16T13:15:07Z</time>
      </trkpt>
      <trkpt lat="45.87188" lon="1.28559">
        <ele>337</ele>
        <time>2025-06-16T13:15:08Z</time>
      </trkpt>
      <trkpt lat="45.87185" lon="1.28559">
        <ele>337.2</ele>
        <time>2025-06-16T13:15:09Z</time>
      </trkpt>
      <trkpt lat="45.87181" lon="1.2856">
        <ele>337.3</ele>
        <time>2025-06-16T13:15:10Z</time>
      </trkpt>
      <trkpt lat="45.87177" lon="1.28559">
        <ele>337.5</ele>
        <time>2025-06-16T13:15:11Z</time>
      </trkpt>
      <trkpt lat="45.87176" lon="1.28558">
        <ele>337.5</ele>
        <time>2025-06-16T13:15:12Z</time>
      </trkpt>
      <trkpt lat="45.87173" lon="1.28557">
        <ele>337.6</ele>
        <time>2025-06-16T13:15:13Z</time>
      </trkpt>
      <trkpt lat="45.8717" lon="1.28557">
        <ele>337.7</ele>
        <time>2025-06-16T13:15:14Z</time>
      </trkpt>
      <trkpt lat="45.87166" lon="1.28557">
        <ele>337.8</ele>
        <time>2025-06-16T13:15:16Z</time>
      </trkpt>
      <trkpt lat="45.8716" lon="1.28557">
        <ele>337.9</ele>
        <time>2025-06-16T13:15:17Z</time>
      </trkpt>
      <trkpt lat="45.87158" lon="1.28557">
        <ele>337.9</ele>
        <time>2025-06-16T13:15:18Z</time>
      </trkpt>
      <trkpt lat="45.8715" lon="1.28559">
        <ele>338</ele>
        <time>2025-06-16T13:15:20Z</time>
      </trkpt>
      <trkpt lat="45.87146" lon="1.28559">
        <ele>338</ele>
        <time>2025-06-16T13:15:21Z</time>
      </trkpt>
      <trkpt lat="45.87142" lon="1.28559">
        <ele>337.9</ele>
        <time>2025-06-16T13:15:23Z</time>
      </trkpt>
      <trkpt lat="45.87133" lon="1.28558">
        <ele>337.7</ele>
        <time>2025-06-16T13:15:24Z</time>
      </trkpt>
      <trkpt lat="45.87128" lon="1.28558">
        <ele>337.6</ele>
        <time>2025-06-16T13:15:26Z</time>
      </trkpt>
      <trkpt lat="45.87123" lon="1.28559">
        <ele>337.4</ele>
        <time>2025-06-16T13:15:27Z</time>
      </trkpt>
      <trkpt lat="45.87119" lon="1.2856">
        <ele>337.2</ele>
        <time>2025-06-16T13:15:28Z</time>
      </trkpt>
      <trkpt lat="45.87115" lon="1.28561">
        <ele>337</ele>
        <time>2025-06-16T13:15:29Z</time>
      </trkpt>
      <trkpt lat="45.8711" lon="1.28562">
        <ele>336.7</ele>
        <time>2025-06-16T13:15:30Z</time>
      </trkpt>
      <trkpt lat="45.87105" lon="1.28562">
        <ele>336.4</ele>
        <time>2025-06-16T13:15:31Z</time>
      </trkpt>
      <trkpt lat="45.87098" lon="1.28562">
        <ele>336</ele>
        <time>2025-06-16T13:15:32Z</time>
      </trkpt>
      <trkpt lat="45.8709" lon="1.28561">
        <ele>335.5</ele>
        <time>2025-06-16T13:15:33Z</time>
      </trkpt>
      <trkpt lat="45.87081" lon="1.2856">
        <ele>334.9</ele>
        <time>2025-06-16T13:15:34Z</time>
      </trkpt>
      <trkpt lat="45.87074" lon="1.2856">
        <ele>334.3</ele>
        <time>2025-06-16T13:15:35Z</time>
      </trkpt>
      <trkpt lat="45.87067" lon="1.2856">
        <ele>333.7</ele>
        <time>2025-06-16T13:15:36Z</time>
      </trkpt>
      <trkpt lat="45.8706" lon="1.28559">
        <ele>333.2</ele>
        <time>2025-06-16T13:15:37Z</time>
      </trkpt>
      <trkpt lat="45.87052" lon="1.28558">
        <ele>332.5</ele>
        <time>2025-06-16T13:15:38Z</time>
      </trkpt>
      <trkpt lat="45.87044" lon="1.28554">
        <ele>332</ele>
        <time>2025-06-16T13:15:39Z</time>
      </trkpt>
      <trkpt lat="45.87036" lon="1.28548">
        <ele>331.7</ele>
        <time>2025-06-16T13:15:40Z</time>
      </trkpt>
      <trkpt lat="45.87029" lon="1.28542">
        <ele>331.7</ele>
        <time>2025-06-16T13:15:41Z</time>
      </trkpt>
      <trkpt lat="45.87024" lon="1.28538">
        <ele>331.8</ele>
        <time>2025-06-16T13:15:42Z</time>
      </trkpt>
      <trkpt lat="45.8702" lon="1.28536">
        <ele>332</ele>
        <time>2025-06-16T13:15:43Z</time>
      </trkpt>
      <trkpt lat="45.87016" lon="1.28534">
        <ele>332.3</ele>
        <time>2025-06-16T13:15:44Z</time>
      </trkpt>
      <trkpt lat="45.8701" lon="1.28532">
        <ele>332.6</ele>
        <time>2025-06-16T13:15:45Z</time>
      </trkpt>
      <trkpt lat="45.87007" lon="1.28532">
        <ele>332.9</ele>
        <time>2025-06-16T13:15:46Z</time>
      </trkpt>
      <trkpt lat="45.87003" lon="1.28532">
        <ele>333.1</ele>
        <time>2025-06-16T13:15:47Z</time>
      </trkpt>
      <trkpt lat="45.86998" lon="1.28531">
        <ele>333.4</ele>
        <time>2025-06-16T13:15:48Z</time>
      </trkpt>
      <trkpt lat="45.86995" lon="1.28531">
        <ele>333.6</ele>
        <time>2025-06-16T13:15:49Z</time>
      </trkpt>
      <trkpt lat="45.8699" lon="1.2853">
        <ele>333.8</ele>
        <time>2025-06-16T13:15:50Z</time>
      </trkpt>
      <trkpt lat="45.86985" lon="1.28526">
        <ele>333.7</ele>
        <time>2025-06-16T13:15:51Z</time>
      </trkpt>
      <trkpt lat="45.86979" lon="1.2852">
        <ele>333.6</ele>
        <time>2025-06-16T13:15:52Z</time>
      </trkpt>
      <trkpt lat="45.86975" lon="1.28515">
        <ele>333.5</ele>
        <time>2025-06-16T13:15:53Z</time>
      </trkpt>
      <trkpt lat="45.86972" lon="1.2851">
        <ele>333.6</ele>
        <time>2025-06-16T13:15:54Z</time>
      </trkpt>
      <trkpt lat="45.86969" lon="1.28504">
        <ele>333.7</ele>
        <time>2025-06-16T13:15:55Z</time>
      </trkpt>
      <trkpt lat="45.86967" lon="1.28499">
        <ele>333.8</ele>
        <time>2025-06-16T13:15:56Z</time>
      </trkpt>
      <trkpt lat="45.8697" lon="1.28495">
        <ele>333.9</ele>
        <time>2025-06-16T13:15:57Z</time>
      </trkpt>
      <trkpt lat="45.86971" lon="1.28492">
        <ele>334.1</ele>
        <time>2025-06-16T13:15:58Z</time>
      </trkpt>
      <trkpt lat="45.86972" lon="1.28487">
        <ele>334.3</ele>
        <time>2025-06-16T13:15:59Z</time>
      </trkpt>
      <trkpt lat="45.86973" lon="1.28485">
        <ele>334.3</ele>
        <time>2025-06-16T13:16:00Z</time>
      </trkpt>
      <trkpt lat="45.86974" lon="1.28481">
        <ele>334.5</ele>
        <time>2025-06-16T13:16:01Z</time>
      </trkpt>
      <trkpt lat="45.86974" lon="1.28479">
        <ele>334.6</ele>
        <time>2025-06-16T13:16:02Z</time>
      </trkpt>
      <trkpt lat="45.86974" lon="1.28475">
        <ele>334.8</ele>
        <time>2025-06-16T13:16:03Z</time>
      </trkpt>
      <trkpt lat="45.86974" lon="1.28473">
        <ele>334.9</ele>
        <time>2025-06-16T13:16:04Z</time>
      </trkpt>
      <trkpt lat="45.86974" lon="1.28469">
        <ele>335</ele>
        <time>2025-06-16T13:16:05Z</time>
      </trkpt>
      <trkpt lat="45.86974" lon="1.28468">
        <ele>335.1</ele>
        <time>2025-06-16T13:16:06Z</time>
      </trkpt>
      <trkpt lat="45.86974" lon="1.28463">
        <ele>335.3</ele>
        <time>2025-06-16T13:16:07Z</time>
      </trkpt>
      <trkpt lat="45.86974" lon="1.28461">
        <ele>335.4</ele>
        <time>2025-06-16T13:16:08Z</time>
      </trkpt>
      <trkpt lat="45.86974" lon="1.28456">
        <ele>335.6</ele>
        <time>2025-06-16T13:16:09Z</time>
      </trkpt>
      <trkpt lat="45.86974" lon="1.28451">
        <ele>335.8</ele>
        <time>2025-06-16T13:16:10Z</time>
      </trkpt>
      <trkpt lat="45.86973" lon="1.28447">
        <ele>335.9</ele>
        <time>2025-06-16T13:16:11Z</time>
      </trkpt>
      <trkpt lat="45.86972" lon="1.28443">
        <ele>336</ele>
        <time>2025-06-16T13:16:12Z</time>
      </trkpt>
      <trkpt lat="45.86973" lon="1.28439">
        <ele>336.2</ele>
        <time>2025-06-16T13:16:13Z</time>
      </trkpt>
      <trkpt lat="45.86974" lon="1.28433">
        <ele>336.4</ele>
        <time>2025-06-16T13:16:14Z</time>
      </trkpt>
      <trkpt lat="45.86973" lon="1.28427">
        <ele>336.5</ele>
        <time>2025-06-16T13:16:15Z</time>
      </trkpt>
      <trkpt lat="45.86973" lon="1.28421">
        <ele>336.7</ele>
        <time>2025-06-16T13:16:16Z</time>
      </trkpt>
      <trkpt lat="45.86972" lon="1.28416">
        <ele>336.8</ele>
        <time>2025-06-16T13:16:17Z</time>
      </trkpt>
      <trkpt lat="45.86971" lon="1.28411">
        <ele>337</ele>
        <time>2025-06-16T13:16:18Z</time>
      </trkpt>
      <trkpt lat="45.86969" lon="1.28406">
        <ele>337.1</ele>
        <time>2025-06-16T13:16:19Z</time>
      </trkpt>
      <trkpt lat="45.86968" lon="1.28402">
        <ele>337.3</ele>
        <time>2025-06-16T13:16:20Z</time>
      </trkpt>
      <trkpt lat="45.86967" lon="1.28398">
        <ele>337.4</ele>
        <time>2025-06-16T13:16:21Z</time>
      </trkpt>
      <trkpt lat="45.86965" lon="1.28394">
        <ele>337.5</ele>
        <time>2025-06-16T13:16:22Z</time>
      </trkpt>
      <trkpt lat="45.86964" lon="1.28389">
        <ele>337.6</ele>
        <time>2025-06-16T13:16:23Z</time>
      </trkpt>
      <trkpt lat="45.86963" lon="1.28385">
        <ele>337.7</ele>
        <time>2025-06-16T13:16:24Z</time>
      </trkpt>
      <trkpt lat="45.86961" lon="1.28381">
        <ele>337.8</ele>
        <time>2025-06-16T13:16:25Z</time>
      </trkpt>
      <trkpt lat="45.86958" lon="1.28376">
        <ele>338</ele>
        <time>2025-06-16T13:16:26Z</time>
      </trkpt>
      <trkpt lat="45.86955" lon="1.28371">
        <ele>338.1</ele>
        <time>2025-06-16T13:16:27Z</time>
      </trkpt>
      <trkpt lat="45.86952" lon="1.28366">
        <ele>338.3</ele>
        <time>2025-06-16T13:16:28Z</time>
      </trkpt>
      <trkpt lat="45.8695" lon="1.28363">
        <ele>338.4</ele>
        <time>2025-06-16T13:16:29Z</time>
      </trkpt>
      <trkpt lat="45.86947" lon="1.28359">
        <ele>338.6</ele>
        <time>2025-06-16T13:16:30Z</time>
      </trkpt>
      <trkpt lat="45.86945" lon="1.28357">
        <ele>338.7</ele>
        <time>2025-06-16T13:16:31Z</time>
      </trkpt>
      <trkpt lat="45.86944" lon="1.28355">
        <ele>338.8</ele>
        <time>2025-06-16T13:16:32Z</time>
      </trkpt>
      <trkpt lat="45.86941" lon="1.28351">
        <ele>339</ele>
        <time>2025-06-16T13:16:33Z</time>
      </trkpt>
      <trkpt lat="45.8694" lon="1.28348">
        <ele>339.1</ele>
        <time>2025-06-16T13:16:35Z</time>
      </trkpt>
      <trkpt lat="45.86939" lon="1.28344">
        <ele>339.2</ele>
        <time>2025-06-16T13:16:36Z</time>
      </trkpt>
      <trkpt lat="45.86938" lon="1.28343">
        <ele>339.2</ele>
        <time>2025-06-16T13:16:37Z</time>
      </trkpt>
      <trkpt lat="45.86936" lon="1.28338">
        <ele>339.3</ele>
        <time>2025-06-16T13:16:38Z</time>
      </trkpt>
      <trkpt lat="45.86936" lon="1.28337">
        <ele>339.3</ele>
        <time>2025-06-16T13:16:39Z</time>
      </trkpt>
      <trkpt lat="45.86934" lon="1.28332">
        <ele>339.3</ele>
        <time>2025-06-16T13:16:40Z</time>
      </trkpt>
      <trkpt lat="45.86931" lon="1.28324">
        <ele>339.2</ele>
        <time>2025-06-16T13:16:41Z</time>
      </trkpt>
      <trkpt lat="45.86929" lon="1.28319">
        <ele>339.1</ele>
        <time>2025-06-16T13:16:43Z</time>
      </trkpt>
      <trkpt lat="45.86926" lon="1.28309">
        <ele>338.7</ele>
        <time>2025-06-16T13:16:44Z</time>
      </trkpt>
      <trkpt lat="45.86926" lon="1.28305">
        <ele>338.5</ele>
        <time>2025-06-16T13:16:45Z</time>
      </trkpt>
      <trkpt lat="45.86924" lon="1.283">
        <ele>338.2</ele>
        <time>2025-06-16T13:16:47Z</time>
      </trkpt>
      <trkpt lat="45.86922" lon="1.28295">
        <ele>337.8</ele>
        <time>2025-06-16T13:16:48Z</time>
      </trkpt>
      <trkpt lat="45.86922" lon="1.28289">
        <ele>337.3</ele>
        <time>2025-06-16T13:16:49Z</time>
      </trkpt>
      <trkpt lat="45.86921" lon="1.28284">
        <ele>336.8</ele>
        <time>2025-06-16T13:16:50Z</time>
      </trkpt>
      <trkpt lat="45.8692" lon="1.28278">
        <ele>336.2</ele>
        <time>2025-06-16T13:16:51Z</time>
      </trkpt>
      <trkpt lat="45.86918" lon="1.28269">
        <ele>335.2</ele>
        <time>2025-06-16T13:16:52Z</time>
      </trkpt>
      <trkpt lat="45.86916" lon="1.28261">
        <ele>334.3</ele>
        <time>2025-06-16T13:16:53Z</time>
      </trkpt>
      <trkpt lat="45.86914" lon="1.28255">
        <ele>333.6</ele>
        <time>2025-06-16T13:16:54Z</time>
      </trkpt>
      <trkpt lat="45.86912" lon="1.2825">
        <ele>332.9</ele>
        <time>2025-06-16T13:16:55Z</time>
      </trkpt>
      <trkpt lat="45.8691" lon="1.28244">
        <ele>332.2</ele>
        <time>2025-06-16T13:16:56Z</time>
      </trkpt>
      <trkpt lat="45.86907" lon="1.28239">
        <ele>331.5</ele>
        <time>2025-06-16T13:16:57Z</time>
      </trkpt>
      <trkpt lat="45.86904" lon="1.28233">
        <ele>330.8</ele>
        <time>2025-06-16T13:16:58Z</time>
      </trkpt>
      <trkpt lat="45.869" lon="1.28228">
        <ele>330.1</ele>
        <time>2025-06-16T13:16:59Z</time>
      </trkpt>
      <trkpt lat="45.86894" lon="1.28222">
        <ele>329.3</ele>
        <time>2025-06-16T13:17:00Z</time>
      </trkpt>
      <trkpt lat="45.86887" lon="1.28218">
        <ele>328.5</ele>
        <time>2025-06-16T13:17:01Z</time>
      </trkpt>
      <trkpt lat="45.86881" lon="1.28214">
        <ele>328</ele>
        <time>2025-06-16T13:17:02Z</time>
      </trkpt>
      <trkpt lat="45.86876" lon="1.28209">
        <ele>327.7</ele>
        <time>2025-06-16T13:17:03Z</time>
      </trkpt>
      <trkpt lat="45.86871" lon="1.28201">
        <ele>327.5</ele>
        <time>2025-06-16T13:17:04Z</time>
      </trkpt>
      <trkpt lat="45.8687" lon="1.28192">
        <ele>327.4</ele>
        <time>2025-06-16T13:17:05Z</time>
      </trkpt>
      <trkpt lat="45.86868" lon="1.28184">
        <ele>327.5</ele>
        <time>2025-06-16T13:17:06Z</time>
      </trkpt>
      <trkpt lat="45.86868" lon="1.2818">
        <ele>327.6</ele>
        <time>2025-06-16T13:17:07Z</time>
      </trkpt>
      <trkpt lat="45.86869" lon="1.28176">
        <ele>327.7</ele>
        <time>2025-06-16T13:17:08Z</time>
      </trkpt>
      <trkpt lat="45.86869" lon="1.28174">
        <ele>327.8</ele>
        <time>2025-06-16T13:17:09Z</time>
      </trkpt>
      <trkpt lat="45.86868" lon="1.28169">
        <ele>328</ele>
        <time>2025-06-16T13:17:10Z</time>
      </trkpt>
      <trkpt lat="45.86868" lon="1.28164">
        <ele>328.2</ele>
        <time>2025-06-16T13:17:11Z</time>
      </trkpt>
      <trkpt lat="45.8687" lon="1.28159">
        <ele>328.5</ele>
        <time>2025-06-16T13:17:12Z</time>
      </trkpt>
      <trkpt lat="45.86872" lon="1.28153">
        <ele>328.9</ele>
        <time>2025-06-16T13:17:13Z</time>
      </trkpt>
      <trkpt lat="45.86873" lon="1.28148">
        <ele>329.4</ele>
        <time>2025-06-16T13:17:14Z</time>
      </trkpt>
      <trkpt lat="45.86875" lon="1.28142">
        <ele>330</ele>
        <time>2025-06-16T13:17:15Z</time>
      </trkpt>
      <trkpt lat="45.86875" lon="1.28137">
        <ele>330.4</ele>
        <time>2025-06-16T13:17:16Z</time>
      </trkpt>
      <trkpt lat="45.86875" lon="1.28133">
        <ele>330.9</ele>
        <time>2025-06-16T13:17:17Z</time>
      </trkpt>
      <trkpt lat="45.86874" lon="1.28131">
        <ele>331.1</ele>
        <time>2025-06-16T13:17:18Z</time>
      </trkpt>
      <trkpt lat="45.86873" lon="1.2813">
        <ele>331.3</ele>
        <time>2025-06-16T13:17:19Z</time>
      </trkpt>
      <trkpt lat="45.86873" lon="1.28128">
        <ele>331.5</ele>
        <time>2025-06-16T13:17:20Z</time>
      </trkpt>
      <trkpt lat="45.86872" lon="1.28126">
        <ele>331.7</ele>
        <time>2025-06-16T13:17:21Z</time>
      </trkpt>
      <trkpt lat="45.86872" lon="1.28124">
        <ele>331.9</ele>
        <time>2025-06-16T13:17:22Z</time>
      </trkpt>
      <trkpt lat="45.86871" lon="1.28122">
        <ele>332.1</ele>
        <time>2025-06-16T13:17:23Z</time>
      </trkpt>
      <trkpt lat="45.86869" lon="1.2812">
        <ele>332.4</ele>
        <time>2025-06-16T13:17:24Z</time>
      </trkpt>
      <trkpt lat="45.86866" lon="1.28118">
        <ele>333</ele>
        <time>2025-06-16T13:17:25Z</time>
      </trkpt>
      <trkpt lat="45.86863" lon="1.28114">
        <ele>333.5</ele>
        <time>2025-06-16T13:17:26Z</time>
      </trkpt>
      <trkpt lat="45.86861" lon="1.28108">
        <ele>334.5</ele>
        <time>2025-06-16T13:17:27Z</time>
      </trkpt>
      <trkpt lat="45.86858" lon="1.28105">
        <ele>334.6</ele>
        <time>2025-06-16T13:17:28Z</time>
      </trkpt>
      <trkpt lat="45.86855" lon="1.28103">
        <ele>334.6</ele>
        <time>2025-06-16T13:17:29Z</time>
      </trkpt>
      <trkpt lat="45.86852" lon="1.28101">
        <ele>334.7</ele>
        <time>2025-06-16T13:17:30Z</time>
      </trkpt>
      <trkpt lat="45.86848" lon="1.28097">
        <ele>334.8</ele>
        <time>2025-06-16T13:17:31Z</time>
      </trkpt>
      <trkpt lat="45.86845" lon="1.28095">
        <ele>334.9</ele>
        <time>2025-06-16T13:17:32Z</time>
      </trkpt>
      <trkpt lat="45.86841" lon="1.28093">
        <ele>334.9</ele>
        <time>2025-06-16T13:17:33Z</time>
      </trkpt>
      <trkpt lat="45.86838" lon="1.28091">
        <ele>334.9</ele>
        <time>2025-06-16T13:17:34Z</time>
      </trkpt>
      <trkpt lat="45.86835" lon="1.28088">
        <ele>335</ele>
        <time>2025-06-16T13:17:35Z</time>
      </trkpt>
      <trkpt lat="45.86831" lon="1.28086">
        <ele>335</ele>
        <time>2025-06-16T13:17:36Z</time>
      </trkpt>
      <trkpt lat="45.86828" lon="1.28084">
        <ele>335.1</ele>
        <time>2025-06-16T13:17:37Z</time>
      </trkpt>
      <trkpt lat="45.86825" lon="1.28082">
        <ele>335.1</ele>
        <time>2025-06-16T13:17:38Z</time>
      </trkpt>
      <trkpt lat="45.86821" lon="1.2808">
        <ele>335.2</ele>
        <time>2025-06-16T13:17:39Z</time>
      </trkpt>
      <trkpt lat="45.86818" lon="1.28078">
        <ele>335.2</ele>
        <time>2025-06-16T13:17:40Z</time>
      </trkpt>
      <trkpt lat="45.86815" lon="1.28077">
        <ele>335.2</ele>
        <time>2025-06-16T13:17:41Z</time>
      </trkpt>
      <trkpt lat="45.86811" lon="1.28075">
        <ele>335.2</ele>
        <time>2025-06-16T13:17:42Z</time>
      </trkpt>
      <trkpt lat="45.86809" lon="1.28074">
        <ele>335.3</ele>
        <time>2025-06-16T13:17:43Z</time>
      </trkpt>
      <trkpt lat="45.86807" lon="1.28072">
        <ele>335.3</ele>
        <time>2025-06-16T13:17:44Z</time>
      </trkpt>
      <trkpt lat="45.86805" lon="1.2807">
        <ele>335.3</ele>
        <time>2025-06-16T13:17:45Z</time>
      </trkpt>
      <trkpt lat="45.86798" lon="1.28065">
        <ele>335.3</ele>
        <time>2025-06-16T13:17:46Z</time>
      </trkpt>
      <trkpt lat="45.86793" lon="1.28063">
        <ele>335.3</ele>
        <time>2025-06-16T13:17:47Z</time>
      </trkpt>
      <trkpt lat="45.86789" lon="1.28061">
        <ele>335.3</ele>
        <time>2025-06-16T13:17:48Z</time>
      </trkpt>
      <trkpt lat="45.86784" lon="1.28059">
        <ele>335.2</ele>
        <time>2025-06-16T13:17:49Z</time>
      </trkpt>
      <trkpt lat="45.86779" lon="1.28057">
        <ele>335.2</ele>
        <time>2025-06-16T13:17:51Z</time>
      </trkpt>
      <trkpt lat="45.86775" lon="1.28055">
        <ele>335.2</ele>
        <time>2025-06-16T13:17:52Z</time>
      </trkpt>
      <trkpt lat="45.86766" lon="1.28052">
        <ele>335.2</ele>
        <time>2025-06-16T13:17:53Z</time>
      </trkpt>
      <trkpt lat="45.86761" lon="1.28051">
        <ele>335.1</ele>
        <time>2025-06-16T13:17:55Z</time>
      </trkpt>
      <trkpt lat="45.86757" lon="1.2805">
        <ele>335.1</ele>
        <time>2025-06-16T13:17:56Z</time>
      </trkpt>
      <trkpt lat="45.86753" lon="1.28049">
        <ele>335.1</ele>
        <time>2025-06-16T13:17:57Z</time>
      </trkpt>
      <trkpt lat="45.86745" lon="1.28049">
        <ele>335.1</ele>
        <time>2025-06-16T13:17:58Z</time>
      </trkpt>
      <trkpt lat="45.86739" lon="1.28052">
        <ele>335.1</ele>
        <time>2025-06-16T13:18:00Z</time>
      </trkpt>
      <trkpt lat="45.86732" lon="1.28056">
        <ele>335.1</ele>
        <time>2025-06-16T13:18:02Z</time>
      </trkpt>
      <trkpt lat="45.8673" lon="1.28058">
        <ele>335.1</ele>
        <time>2025-06-16T13:18:04Z</time>
      </trkpt>
      <trkpt lat="45.86727" lon="1.28059">
        <ele>335.1</ele>
        <time>2025-06-16T13:18:05Z</time>
      </trkpt>
      <trkpt lat="45.86724" lon="1.28061">
        <ele>335.1</ele>
        <time>2025-06-16T13:18:06Z</time>
      </trkpt>
      <trkpt lat="45.86719" lon="1.28063">
        <ele>335.1</ele>
        <time>2025-06-16T13:18:07Z</time>
      </trkpt>
      <trkpt lat="45.86715" lon="1.28064">
        <ele>335.1</ele>
        <time>2025-06-16T13:18:09Z</time>
      </trkpt>
      <trkpt lat="45.86712" lon="1.28065">
        <ele>335.1</ele>
        <time>2025-06-16T13:18:10Z</time>
      </trkpt>
      <trkpt lat="45.86708" lon="1.28064">
        <ele>335.1</ele>
        <time>2025-06-16T13:18:11Z</time>
      </trkpt>
      <trkpt lat="45.86702" lon="1.28059">
        <ele>335</ele>
        <time>2025-06-16T13:18:12Z</time>
      </trkpt>
      <trkpt lat="45.86699" lon="1.28054">
        <ele>334.9</ele>
        <time>2025-06-16T13:18:14Z</time>
      </trkpt>
      <trkpt lat="45.86698" lon="1.28048">
        <ele>334</ele>
        <time>2025-06-16T13:18:15Z</time>
      </trkpt>
      <trkpt lat="45.86697" lon="1.28042">
        <ele>333.7</ele>
        <time>2025-06-16T13:18:16Z</time>
      </trkpt>
      <trkpt lat="45.86697" lon="1.28031">
        <ele>333.1</ele>
        <time>2025-06-16T13:18:17Z</time>
      </trkpt>
      <trkpt lat="45.86695" lon="1.2802">
        <ele>332.3</ele>
        <time>2025-06-16T13:18:19Z</time>
      </trkpt>
      <trkpt lat="45.86695" lon="1.2801">
        <ele>331.7</ele>
        <time>2025-06-16T13:18:20Z</time>
      </trkpt>
      <trkpt lat="45.86693" lon="1.27999">
        <ele>331</ele>
        <time>2025-06-16T13:18:21Z</time>
      </trkpt>
      <trkpt lat="45.8669" lon="1.2799">
        <ele>330.4</ele>
        <time>2025-06-16T13:18:22Z</time>
      </trkpt>
      <trkpt lat="45.86686" lon="1.27983">
        <ele>330.1</ele>
        <time>2025-06-16T13:18:23Z</time>
      </trkpt>
      <trkpt lat="45.86681" lon="1.27979">
        <ele>329.7</ele>
        <time>2025-06-16T13:18:24Z</time>
      </trkpt>
      <trkpt lat="45.86676" lon="1.27977">
        <ele>329.4</ele>
        <time>2025-06-16T13:18:25Z</time>
      </trkpt>
      <trkpt lat="45.86673" lon="1.27974">
        <ele>329.1</ele>
        <time>2025-06-16T13:18:26Z</time>
      </trkpt>
      <trkpt lat="45.8667" lon="1.27971">
        <ele>328.8</ele>
        <time>2025-06-16T13:18:27Z</time>
      </trkpt>
      <trkpt lat="45.86668" lon="1.27967">
        <ele>328.6</ele>
        <time>2025-06-16T13:18:28Z</time>
      </trkpt>
      <trkpt lat="45.86664" lon="1.27963">
        <ele>328.2</ele>
        <time>2025-06-16T13:18:29Z</time>
      </trkpt>
      <trkpt lat="45.8666" lon="1.27959">
        <ele>327.8</ele>
        <time>2025-06-16T13:18:30Z</time>
      </trkpt>
      <trkpt lat="45.86655" lon="1.27954">
        <ele>327.4</ele>
        <time>2025-06-16T13:18:31Z</time>
      </trkpt>
      <trkpt lat="45.86651" lon="1.27948">
        <ele>326.9</ele>
        <time>2025-06-16T13:18:32Z</time>
      </trkpt>
      <trkpt lat="45.86647" lon="1.27941">
        <ele>326.3</ele>
        <time>2025-06-16T13:18:33Z</time>
      </trkpt>
      <trkpt lat="45.86645" lon="1.27934">
        <ele>325.8</ele>
        <time>2025-06-16T13:18:34Z</time>
      </trkpt>
      <trkpt lat="45.86644" lon="1.27924">
        <ele>325.2</ele>
        <time>2025-06-16T13:18:35Z</time>
      </trkpt>
      <trkpt lat="45.86645" lon="1.27913">
        <ele>324.5</ele>
        <time>2025-06-16T13:18:36Z</time>
      </trkpt>
      <trkpt lat="45.86647" lon="1.27903">
        <ele>323.8</ele>
        <time>2025-06-16T13:18:37Z</time>
      </trkpt>
      <trkpt lat="45.8665" lon="1.27893">
        <ele>323.1</ele>
        <time>2025-06-16T13:18:38Z</time>
      </trkpt>
      <trkpt lat="45.86652" lon="1.27881">
        <ele>322.5</ele>
        <time>2025-06-16T13:18:39Z</time>
      </trkpt>
      <trkpt lat="45.86654" lon="1.27873">
        <ele>322</ele>
        <time>2025-06-16T13:18:40Z</time>
      </trkpt>
      <trkpt lat="45.86654" lon="1.27867">
        <ele>321.7</ele>
        <time>2025-06-16T13:18:41Z</time>
      </trkpt>
      <trkpt lat="45.86654" lon="1.27861">
        <ele>321.5</ele>
        <time>2025-06-16T13:18:42Z</time>
      </trkpt>
      <trkpt lat="45.86652" lon="1.27852">
        <ele>321.1</ele>
        <time>2025-06-16T13:18:43Z</time>
      </trkpt>
      <trkpt lat="45.86649" lon="1.27841">
        <ele>320.7</ele>
        <time>2025-06-16T13:18:44Z</time>
      </trkpt>
      <trkpt lat="45.86646" lon="1.27831">
        <ele>320.4</ele>
        <time>2025-06-16T13:18:45Z</time>
      </trkpt>
      <trkpt lat="45.86643" lon="1.27822">
        <ele>320.3</ele>
        <time>2025-06-16T13:18:46Z</time>
      </trkpt>
      <trkpt lat="45.86641" lon="1.27815">
        <ele>320.2</ele>
        <time>2025-06-16T13:18:47Z</time>
      </trkpt>
      <trkpt lat="45.86637" lon="1.27807">
        <ele>320.1</ele>
        <time>2025-06-16T13:18:48Z</time>
      </trkpt>
      <trkpt lat="45.86636" lon="1.27799">
        <ele>320</ele>
        <time>2025-06-16T13:18:49Z</time>
      </trkpt>
      <trkpt lat="45.86637" lon="1.27789">
        <ele>319.8</ele>
        <time>2025-06-16T13:18:50Z</time>
      </trkpt>
      <trkpt lat="45.86639" lon="1.27779">
        <ele>319.5</ele>
        <time>2025-06-16T13:18:51Z</time>
      </trkpt>
      <trkpt lat="45.86643" lon="1.2777">
        <ele>319.3</ele>
        <time>2025-06-16T13:18:52Z</time>
      </trkpt>
      <trkpt lat="45.86646" lon="1.27762">
        <ele>319.2</ele>
        <time>2025-06-16T13:18:53Z</time>
      </trkpt>
      <trkpt lat="45.8665" lon="1.27755">
        <ele>319.1</ele>
        <time>2025-06-16T13:18:54Z</time>
      </trkpt>
      <trkpt lat="45.86652" lon="1.27747">
        <ele>319</ele>
        <time>2025-06-16T13:18:55Z</time>
      </trkpt>
      <trkpt lat="45.86652" lon="1.27739">
        <ele>318.9</ele>
        <time>2025-06-16T13:18:56Z</time>
      </trkpt>
      <trkpt lat="45.8665" lon="1.27729">
        <ele>318.8</ele>
        <time>2025-06-16T13:18:57Z</time>
      </trkpt>
      <trkpt lat="45.8665" lon="1.2772">
        <ele>318.8</ele>
        <time>2025-06-16T13:18:58Z</time>
      </trkpt>
      <trkpt lat="45.8665" lon="1.2771">
        <ele>318.8</ele>
        <time>2025-06-16T13:18:59Z</time>
      </trkpt>
      <trkpt lat="45.86652" lon="1.27701">
        <ele>318.8</ele>
        <time>2025-06-16T13:19:00Z</time>
      </trkpt>
      <trkpt lat="45.86655" lon="1.27694">
        <ele>318.8</ele>
        <time>2025-06-16T13:19:01Z</time>
      </trkpt>
      <trkpt lat="45.86656" lon="1.27687">
        <ele>318.8</ele>
        <time>2025-06-16T13:19:02Z</time>
      </trkpt>
      <trkpt lat="45.86658" lon="1.27682">
        <ele>318.8</ele>
        <time>2025-06-16T13:19:03Z</time>
      </trkpt>
      <trkpt lat="45.8666" lon="1.27677">
        <ele>318.8</ele>
        <time>2025-06-16T13:19:04Z</time>
      </trkpt>
      <trkpt lat="45.86662" lon="1.27672">
        <ele>318.7</ele>
        <time>2025-06-16T13:19:05Z</time>
      </trkpt>
      <trkpt lat="45.86664" lon="1.27667">
        <ele>318.6</ele>
        <time>2025-06-16T13:19:06Z</time>
      </trkpt>
      <trkpt lat="45.86667" lon="1.27662">
        <ele>318.5</ele>
        <time>2025-06-16T13:19:07Z</time>
      </trkpt>
      <trkpt lat="45.86669" lon="1.27657">
        <ele>318.4</ele>
        <time>2025-06-16T13:19:08Z</time>
      </trkpt>
      <trkpt lat="45.86671" lon="1.27652">
        <ele>318.3</ele>
        <time>2025-06-16T13:19:09Z</time>
      </trkpt>
      <trkpt lat="45.86674" lon="1.2765">
        <ele>318.2</ele>
        <time>2025-06-16T13:19:10Z</time>
      </trkpt>
      <trkpt lat="45.86677" lon="1.27651">
        <ele>318</ele>
        <time>2025-06-16T13:19:11Z</time>
      </trkpt>
      <trkpt lat="45.86681" lon="1.27654">
        <ele>317.9</ele>
        <time>2025-06-16T13:19:12Z</time>
      </trkpt>
      <trkpt lat="45.86685" lon="1.27657">
        <ele>317.7</ele>
        <time>2025-06-16T13:19:13Z</time>
      </trkpt>
      <trkpt lat="45.86689" lon="1.2766">
        <ele>317.5</ele>
        <time>2025-06-16T13:19:14Z</time>
      </trkpt>
      <trkpt lat="45.86693" lon="1.27662">
        <ele>317.4</ele>
        <time>2025-06-16T13:19:15Z</time>
      </trkpt>
      <trkpt lat="45.86698" lon="1.27667">
        <ele>317.2</ele>
        <time>2025-06-16T13:19:16Z</time>
      </trkpt>
      <trkpt lat="45.86702" lon="1.27671">
        <ele>317</ele>
        <time>2025-06-16T13:19:17Z</time>
      </trkpt>
      <trkpt lat="45.86706" lon="1.27674">
        <ele>316.8</ele>
        <time>2025-06-16T13:19:18Z</time>
      </trkpt>
      <trkpt lat="45.86711" lon="1.27678">
        <ele>316.5</ele>
        <time>2025-06-16T13:19:19Z</time>
      </trkpt>
      <trkpt lat="45.86716" lon="1.27682">
        <ele>316.3</ele>
        <time>2025-06-16T13:19:20Z</time>
      </trkpt>
      <trkpt lat="45.86721" lon="1.27687">
        <ele>316.1</ele>
        <time>2025-06-16T13:19:21Z</time>
      </trkpt>
      <trkpt lat="45.86726" lon="1.2769">
        <ele>315.8</ele>
        <time>2025-06-16T13:19:22Z</time>
      </trkpt>
      <trkpt lat="45.86731" lon="1.27694">
        <ele>315.6</ele>
        <time>2025-06-16T13:19:23Z</time>
      </trkpt>
      <trkpt lat="45.86736" lon="1.27698">
        <ele>315.3</ele>
        <time>2025-06-16T13:19:24Z</time>
      </trkpt>
      <trkpt lat="45.86741" lon="1.27702">
        <ele>315.1</ele>
        <time>2025-06-16T13:19:25Z</time>
      </trkpt>
      <trkpt lat="45.86746" lon="1.27706">
        <ele>314.8</ele>
        <time>2025-06-16T13:19:26Z</time>
      </trkpt>
      <trkpt lat="45.86752" lon="1.2771">
        <ele>314.5</ele>
        <time>2025-06-16T13:19:27Z</time>
      </trkpt>
      <trkpt lat="45.86758" lon="1.27714">
        <ele>314.3</ele>
        <time>2025-06-16T13:19:28Z</time>
      </trkpt>
      <trkpt lat="45.86763" lon="1.27718">
        <ele>314</ele>
        <time>2025-06-16T13:19:29Z</time>
      </trkpt>
      <trkpt lat="45.86769" lon="1.27723">
        <ele>313.7</ele>
        <time>2025-06-16T13:19:30Z</time>
      </trkpt>
      <trkpt lat="45.86774" lon="1.27728">
        <ele>313.5</ele>
        <time>2025-06-16T13:19:31Z</time>
      </trkpt>
      <trkpt lat="45.86779" lon="1.27732">
        <ele>313.2</ele>
        <time>2025-06-16T13:19:32Z</time>
      </trkpt>
      <trkpt lat="45.86784" lon="1.27735">
        <ele>313</ele>
        <time>2025-06-16T13:19:33Z</time>
      </trkpt>
      <trkpt lat="45.86789" lon="1.27739">
        <ele>312.8</ele>
        <time>2025-06-16T13:19:34Z</time>
      </trkpt>
      <trkpt lat="45.86794" lon="1.27742">
        <ele>312.5</ele>
        <time>2025-06-16T13:19:35Z</time>
      </trkpt>
      <trkpt lat="45.86799" lon="1.27745">
        <ele>312.3</ele>
        <time>2025-06-16T13:19:36Z</time>
      </trkpt>
      <trkpt lat="45.86804" lon="1.27748">
        <ele>312</ele>
        <time>2025-06-16T13:19:37Z</time>
      </trkpt>
      <trkpt lat="45.8681" lon="1.27749">
        <ele>311.8</ele>
        <time>2025-06-16T13:19:38Z</time>
      </trkpt>
      <trkpt lat="45.86816" lon="1.2775">
        <ele>311.5</ele>
        <time>2025-06-16T13:19:39Z</time>
      </trkpt>
      <trkpt lat="45.86822" lon="1.2775">
        <ele>311.2</ele>
        <time>2025-06-16T13:19:40Z</time>
      </trkpt>
      <trkpt lat="45.86828" lon="1.27751">
        <ele>311</ele>
        <time>2025-06-16T13:19:41Z</time>
      </trkpt>
      <trkpt lat="45.86834" lon="1.27751">
        <ele>310.7</ele>
        <time>2025-06-16T13:19:42Z</time>
      </trkpt>
      <trkpt lat="45.86839" lon="1.27751">
        <ele>310.4</ele>
        <time>2025-06-16T13:19:43Z</time>
      </trkpt>
      <trkpt lat="45.86845" lon="1.27751">
        <ele>310.2</ele>
        <time>2025-06-16T13:19:44Z</time>
      </trkpt>
      <trkpt lat="45.8685" lon="1.2775">
        <ele>309.9</ele>
        <time>2025-06-16T13:19:45Z</time>
      </trkpt>
      <trkpt lat="45.86855" lon="1.2775">
        <ele>309.7</ele>
        <time>2025-06-16T13:19:46Z</time>
      </trkpt>
      <trkpt lat="45.86861" lon="1.2775">
        <ele>309.4</ele>
        <time>2025-06-16T13:19:47Z</time>
      </trkpt>
      <trkpt lat="45.86867" lon="1.27749">
        <ele>309.1</ele>
        <time>2025-06-16T13:19:48Z</time>
      </trkpt>
      <trkpt lat="45.86874" lon="1.27749">
        <ele>308.8</ele>
        <time>2025-06-16T13:19:49Z</time>
      </trkpt>
      <trkpt lat="45.86881" lon="1.27749">
        <ele>308.5</ele>
        <time>2025-06-16T13:19:50Z</time>
      </trkpt>
      <trkpt lat="45.86887" lon="1.27751">
        <ele>308.2</ele>
        <time>2025-06-16T13:19:51Z</time>
      </trkpt>
      <trkpt lat="45.86892" lon="1.27752">
        <ele>308</ele>
        <time>2025-06-16T13:19:52Z</time>
      </trkpt>
      <trkpt lat="45.86899" lon="1.27752">
        <ele>307.7</ele>
        <time>2025-06-16T13:19:53Z</time>
      </trkpt>
      <trkpt lat="45.86903" lon="1.27752">
        <ele>307.5</ele>
        <time>2025-06-16T13:19:54Z</time>
      </trkpt>
      <trkpt lat="45.86908" lon="1.27752">
        <ele>307.3</ele>
        <time>2025-06-16T13:19:55Z</time>
      </trkpt>
      <trkpt lat="45.86912" lon="1.27752">
        <ele>307.2</ele>
        <time>2025-06-16T13:19:56Z</time>
      </trkpt>
      <trkpt lat="45.86915" lon="1.27751">
        <ele>307</ele>
        <time>2025-06-16T13:19:57Z</time>
      </trkpt>
      <trkpt lat="45.86918" lon="1.27748">
        <ele>306.9</ele>
        <time>2025-06-16T13:19:58Z</time>
      </trkpt>
      <trkpt lat="45.86919" lon="1.27746">
        <ele>306.8</ele>
        <time>2025-06-16T13:19:59Z</time>
      </trkpt>
      <trkpt lat="45.86922" lon="1.27745">
        <ele>306.7</ele>
        <time>2025-06-16T13:20:00Z</time>
      </trkpt>
      <trkpt lat="45.86924" lon="1.27745">
        <ele>306.6</ele>
        <time>2025-06-16T13:20:01Z</time>
      </trkpt>
      <trkpt lat="45.86927" lon="1.27746">
        <ele>306.5</ele>
        <time>2025-06-16T13:20:02Z</time>
      </trkpt>
      <trkpt lat="45.86931" lon="1.27747">
        <ele>306.4</ele>
        <time>2025-06-16T13:20:03Z</time>
      </trkpt>
      <trkpt lat="45.86933" lon="1.27747">
        <ele>306.4</ele>
        <time>2025-06-16T13:20:04Z</time>
      </trkpt>
      <trkpt lat="45.86936" lon="1.27748">
        <ele>306.3</ele>
        <time>2025-06-16T13:20:05Z</time>
      </trkpt>
      <trkpt lat="45.8694" lon="1.2775">
        <ele>306.5</ele>
        <time>2025-06-16T13:20:06Z</time>
      </trkpt>
      <trkpt lat="45.86943" lon="1.27752">
        <ele>306.6</ele>
        <time>2025-06-16T13:20:07Z</time>
      </trkpt>
      <trkpt lat="45.86947" lon="1.27755">
        <ele>306.8</ele>
        <time>2025-06-16T13:20:08Z</time>
      </trkpt>
      <trkpt lat="45.8695" lon="1.27757">
        <ele>307</ele>
        <time>2025-06-16T13:20:09Z</time>
      </trkpt>
      <trkpt lat="45.86953" lon="1.27758">
        <ele>307.1</ele>
        <time>2025-06-16T13:20:10Z</time>
      </trkpt>
      <trkpt lat="45.86956" lon="1.2776">
        <ele>307.2</ele>
        <time>2025-06-16T13:20:11Z</time>
      </trkpt>
      <trkpt lat="45.86959" lon="1.27761">
        <ele>307.4</ele>
        <time>2025-06-16T13:20:12Z</time>
      </trkpt>
      <trkpt lat="45.86962" lon="1.27763">
        <ele>307.5</ele>
        <time>2025-06-16T13:20:13Z</time>
      </trkpt>
      <trkpt lat="45.86965" lon="1.27764">
        <ele>307.6</ele>
        <time>2025-06-16T13:20:14Z</time>
      </trkpt>
      <trkpt lat="45.86968" lon="1.27765">
        <ele>307.7</ele>
        <time>2025-06-16T13:20:15Z</time>
      </trkpt>
      <trkpt lat="45.86971" lon="1.27766">
        <ele>307.8</ele>
        <time>2025-06-16T13:20:16Z</time>
      </trkpt>
      <trkpt lat="45.86975" lon="1.27767">
        <ele>307.9</ele>
        <time>2025-06-16T13:20:17Z</time>
      </trkpt>
      <trkpt lat="45.86978" lon="1.27769">
        <ele>308</ele>
        <time>2025-06-16T13:20:18Z</time>
      </trkpt>
      <trkpt lat="45.86981" lon="1.2777">
        <ele>308.1</ele>
        <time>2025-06-16T13:20:19Z</time>
      </trkpt>
      <trkpt lat="45.86984" lon="1.27771">
        <ele>308.2</ele>
        <time>2025-06-16T13:20:20Z</time>
      </trkpt>
      <trkpt lat="45.86987" lon="1.27772">
        <ele>308.2</ele>
        <time>2025-06-16T13:20:21Z</time>
      </trkpt>
      <trkpt lat="45.86991" lon="1.27773">
        <ele>308.3</ele>
        <time>2025-06-16T13:20:22Z</time>
      </trkpt>
      <trkpt lat="45.86994" lon="1.27774">
        <ele>308.4</ele>
        <time>2025-06-16T13:20:23Z</time>
      </trkpt>
      <trkpt lat="45.86998" lon="1.27776">
        <ele>308.4</ele>
        <time>2025-06-16T13:20:24Z</time>
      </trkpt>
      <trkpt lat="45.87001" lon="1.27777">
        <ele>308.5</ele>
        <time>2025-06-16T13:20:25Z</time>
      </trkpt>
      <trkpt lat="45.87004" lon="1.27778">
        <ele>308.5</ele>
        <time>2025-06-16T13:20:26Z</time>
      </trkpt>
      <trkpt lat="45.87007" lon="1.27778">
        <ele>308.6</ele>
        <time>2025-06-16T13:20:27Z</time>
      </trkpt>
      <trkpt lat="45.87011" lon="1.27779">
        <ele>308.6</ele>
        <time>2025-06-16T13:20:28Z</time>
      </trkpt>
      <trkpt lat="45.87014" lon="1.27779">
        <ele>308.7</ele>
        <time>2025-06-16T13:20:29Z</time>
      </trkpt>
      <trkpt lat="45.87017" lon="1.2778">
        <ele>308.8</ele>
        <time>2025-06-16T13:20:30Z</time>
      </trkpt>
      <trkpt lat="45.8702" lon="1.2778">
        <ele>308.9</ele>
        <time>2025-06-16T13:20:31Z</time>
      </trkpt>
      <trkpt lat="45.87023" lon="1.2778">
        <ele>309</ele>
        <time>2025-06-16T13:20:32Z</time>
      </trkpt>
      <trkpt lat="45.87026" lon="1.27779">
        <ele>309.1</ele>
        <time>2025-06-16T13:20:33Z</time>
      </trkpt>
      <trkpt lat="45.87029" lon="1.27779">
        <ele>309.3</ele>
        <time>2025-06-16T13:20:34Z</time>
      </trkpt>
      <trkpt lat="45.8703" lon="1.27779">
        <ele>309.3</ele>
        <time>2025-06-16T13:20:35Z</time>
      </trkpt>
      <trkpt lat="45.87033" lon="1.27778">
        <ele>309.5</ele>
        <time>2025-06-16T13:20:36Z</time>
      </trkpt>
      <trkpt lat="45.87034" lon="1.27778">
        <ele>309.5</ele>
        <time>2025-06-16T13:20:37Z</time>
      </trkpt>
      <trkpt lat="45.87035" lon="1.27777">
        <ele>309.6</ele>
        <time>2025-06-16T13:20:38Z</time>
      </trkpt>
      <trkpt lat="45.87038" lon="1.27776">
        <ele>309.7</ele>
        <time>2025-06-16T13:20:39Z</time>
      </trkpt>
      <trkpt lat="45.87039" lon="1.27776">
        <ele>309.8</ele>
        <time>2025-06-16T13:20:40Z</time>
      </trkpt>
      <trkpt lat="45.87042" lon="1.27776">
        <ele>310</ele>
        <time>2025-06-16T13:20:41Z</time>
      </trkpt>
      <trkpt lat="45.87043" lon="1.27776">
        <ele>310</ele>
        <time>2025-06-16T13:20:42Z</time>
      </trkpt>
      <trkpt lat="45.87045" lon="1.27776">
        <ele>310.1</ele>
        <time>2025-06-16T13:20:43Z</time>
      </trkpt>
      <trkpt lat="45.87048" lon="1.27776">
        <ele>310.2</ele>
        <time>2025-06-16T13:20:44Z</time>
      </trkpt>
      <trkpt lat="45.87052" lon="1.27775">
        <ele>310.4</ele>
        <time>2025-06-16T13:20:45Z</time>
      </trkpt>
      <trkpt lat="45.87055" lon="1.27773">
        <ele>310.5</ele>
        <time>2025-06-16T13:20:46Z</time>
      </trkpt>
      <trkpt lat="45.87056" lon="1.27769">
        <ele>310.5</ele>
        <time>2025-06-16T13:20:47Z</time>
      </trkpt>
      <trkpt lat="45.87057" lon="1.27765">
        <ele>310.6</ele>
        <time>2025-06-16T13:20:48Z</time>
      </trkpt>
      <trkpt lat="45.87058" lon="1.27761">
        <ele>310.6</ele>
        <time>2025-06-16T13:20:49Z</time>
      </trkpt>
      <trkpt lat="45.87059" lon="1.27759">
        <ele>310.6</ele>
        <time>2025-06-16T13:20:50Z</time>
      </trkpt>
      <trkpt lat="45.87059" lon="1.27754">
        <ele>310.6</ele>
        <time>2025-06-16T13:20:51Z</time>
      </trkpt>
      <trkpt lat="45.8706" lon="1.27752">
        <ele>310.6</ele>
        <time>2025-06-16T13:20:52Z</time>
      </trkpt>
      <trkpt lat="45.8706" lon="1.27748">
        <ele>310.6</ele>
        <time>2025-06-16T13:20:53Z</time>
      </trkpt>
      <trkpt lat="45.8706" lon="1.27744">
        <ele>310.6</ele>
        <time>2025-06-16T13:20:54Z</time>
      </trkpt>
      <trkpt lat="45.8706" lon="1.27739">
        <ele>310.6</ele>
        <time>2025-06-16T13:20:55Z</time>
      </trkpt>
      <trkpt lat="45.87059" lon="1.27734">
        <ele>310.5</ele>
        <time>2025-06-16T13:20:56Z</time>
      </trkpt>
      <trkpt lat="45.87059" lon="1.27729">
        <ele>310.5</ele>
        <time>2025-06-16T13:20:57Z</time>
      </trkpt>
      <trkpt lat="45.87059" lon="1.27727">
        <ele>310.5</ele>
        <time>2025-06-16T13:20:58Z</time>
      </trkpt>
      <trkpt lat="45.87059" lon="1.27725">
        <ele>310.5</ele>
        <time>2025-06-16T13:20:59Z</time>
      </trkpt>
      <trkpt lat="45.87059" lon="1.27723">
        <ele>310.4</ele>
        <time>2025-06-16T13:21:00Z</time>
      </trkpt>
      <trkpt lat="45.87058" lon="1.27719">
        <ele>310.4</ele>
        <time>2025-06-16T13:21:01Z</time>
      </trkpt>
      <trkpt lat="45.87058" lon="1.27718">
        <ele>310.4</ele>
        <time>2025-06-16T13:21:02Z</time>
      </trkpt>
      <trkpt lat="45.87057" lon="1.27714">
        <ele>310.3</ele>
        <time>2025-06-16T13:21:03Z</time>
      </trkpt>
      <trkpt lat="45.87056" lon="1.27709">
        <ele>310.2</ele>
        <time>2025-06-16T13:21:04Z</time>
      </trkpt>
      <trkpt lat="45.87055" lon="1.27705">
        <ele>310.1</ele>
        <time>2025-06-16T13:21:05Z</time>
      </trkpt>
      <trkpt lat="45.87055" lon="1.27701">
        <ele>310</ele>
        <time>2025-06-16T13:21:06Z</time>
      </trkpt>
      <trkpt lat="45.87055" lon="1.27698">
        <ele>310</ele>
        <time>2025-06-16T13:21:07Z</time>
      </trkpt>
      <trkpt lat="45.87054" lon="1.27695">
        <ele>309.9</ele>
        <time>2025-06-16T13:21:08Z</time>
      </trkpt>
      <trkpt lat="45.87054" lon="1.2769">
        <ele>309.8</ele>
        <time>2025-06-16T13:21:09Z</time>
      </trkpt>
      <trkpt lat="45.87053" lon="1.27688">
        <ele>309.8</ele>
        <time>2025-06-16T13:21:10Z</time>
      </trkpt>
      <trkpt lat="45.87053" lon="1.27683">
        <ele>309.7</ele>
        <time>2025-06-16T13:21:11Z</time>
      </trkpt>
      <trkpt lat="45.87052" lon="1.27678">
        <ele>309.6</ele>
        <time>2025-06-16T13:21:12Z</time>
      </trkpt>
      <trkpt lat="45.87052" lon="1.27672">
        <ele>309.4</ele>
        <time>2025-06-16T13:21:13Z</time>
      </trkpt>
      <trkpt lat="45.87052" lon="1.27666">
        <ele>309.3</ele>
        <time>2025-06-16T13:21:14Z</time>
      </trkpt>
      <trkpt lat="45.87052" lon="1.27659">
        <ele>309.1</ele>
        <time>2025-06-16T13:21:15Z</time>
      </trkpt>
      <trkpt lat="45.87052" lon="1.2765">
        <ele>308.8</ele>
        <time>2025-06-16T13:21:16Z</time>
      </trkpt>
      <trkpt lat="45.87052" lon="1.27642">
        <ele>308.6</ele>
        <time>2025-06-16T13:21:17Z</time>
      </trkpt>
      <trkpt lat="45.87053" lon="1.27634">
        <ele>308.3</ele>
        <time>2025-06-16T13:21:18Z</time>
      </trkpt>
      <trkpt lat="45.87053" lon="1.27626">
        <ele>308.1</ele>
        <time>2025-06-16T13:21:19Z</time>
      </trkpt>
      <trkpt lat="45.87053" lon="1.27618">
        <ele>307.9</ele>
        <time>2025-06-16T13:21:20Z</time>
      </trkpt>
      <trkpt lat="45.87054" lon="1.2761">
        <ele>307.6</ele>
        <time>2025-06-16T13:21:21Z</time>
      </trkpt>
      <trkpt lat="45.87056" lon="1.27604">
        <ele>307.4</ele>
        <time>2025-06-16T13:21:22Z</time>
      </trkpt>
      <trkpt lat="45.87058" lon="1.27598">
        <ele>307.2</ele>
        <time>2025-06-16T13:21:23Z</time>
      </trkpt>
      <trkpt lat="45.8706" lon="1.27593">
        <ele>307</ele>
        <time>2025-06-16T13:21:24Z</time>
      </trkpt>
      <trkpt lat="45.87062" lon="1.27588">
        <ele>306.9</ele>
        <time>2025-06-16T13:21:25Z</time>
      </trkpt>
      <trkpt lat="45.87063" lon="1.27584">
        <ele>306.7</ele>
        <time>2025-06-16T13:21:26Z</time>
      </trkpt>
      <trkpt lat="45.87065" lon="1.2758">
        <ele>306.6</ele>
        <time>2025-06-16T13:21:27Z</time>
      </trkpt>
      <trkpt lat="45.87065" lon="1.27578">
        <ele>306.6</ele>
        <time>2025-06-16T13:21:28Z</time>
      </trkpt>
      <trkpt lat="45.87066" lon="1.27574">
        <ele>306.4</ele>
        <time>2025-06-16T13:21:29Z</time>
      </trkpt>
      <trkpt lat="45.87068" lon="1.27569">
        <ele>306.2</ele>
        <time>2025-06-16T13:21:30Z</time>
      </trkpt>
      <trkpt lat="45.8707" lon="1.27564">
        <ele>306.1</ele>
        <time>2025-06-16T13:21:31Z</time>
      </trkpt>
      <trkpt lat="45.87072" lon="1.2756">
        <ele>306</ele>
        <time>2025-06-16T13:21:32Z</time>
      </trkpt>
      <trkpt lat="45.87074" lon="1.27556">
        <ele>305.8</ele>
        <time>2025-06-16T13:21:33Z</time>
      </trkpt>
      <trkpt lat="45.87075" lon="1.27552">
        <ele>305.8</ele>
        <time>2025-06-16T13:21:34Z</time>
      </trkpt>
      <trkpt lat="45.87076" lon="1.27547">
        <ele>305.7</ele>
        <time>2025-06-16T13:21:35Z</time>
      </trkpt>
      <trkpt lat="45.87076" lon="1.27545">
        <ele>305.7</ele>
        <time>2025-06-16T13:21:36Z</time>
      </trkpt>
      <trkpt lat="45.87078" lon="1.2754">
        <ele>305.9</ele>
        <time>2025-06-16T13:21:37Z</time>
      </trkpt>
      <trkpt lat="45.87078" lon="1.27538">
        <ele>305.9</ele>
        <time>2025-06-16T13:21:38Z</time>
      </trkpt>
      <trkpt lat="45.87079" lon="1.27533">
        <ele>306.1</ele>
        <time>2025-06-16T13:21:39Z</time>
      </trkpt>
      <trkpt lat="45.87079" lon="1.27528">
        <ele>306.3</ele>
        <time>2025-06-16T13:21:40Z</time>
      </trkpt>
      <trkpt lat="45.87079" lon="1.27522">
        <ele>306.4</ele>
        <time>2025-06-16T13:21:41Z</time>
      </trkpt>
      <trkpt lat="45.87079" lon="1.27516">
        <ele>306.4</ele>
        <time>2025-06-16T13:21:42Z</time>
      </trkpt>
      <trkpt lat="45.87078" lon="1.2751">
        <ele>306.5</ele>
        <time>2025-06-16T13:21:43Z</time>
      </trkpt>
      <trkpt lat="45.87077" lon="1.27504">
        <ele>306.5</ele>
        <time>2025-06-16T13:21:44Z</time>
      </trkpt>
      <trkpt lat="45.87076" lon="1.275">
        <ele>306.5</ele>
        <time>2025-06-16T13:21:45Z</time>
      </trkpt>
      <trkpt lat="45.87073" lon="1.27497">
        <ele>306.5</ele>
        <time>2025-06-16T13:21:46Z</time>
      </trkpt>
      <trkpt lat="45.87072" lon="1.27496">
        <ele>306.5</ele>
        <time>2025-06-16T13:21:47Z</time>
      </trkpt>
      <trkpt lat="45.87069" lon="1.27496">
        <ele>306.5</ele>
        <time>2025-06-16T13:21:48Z</time>
      </trkpt>
      <trkpt lat="45.87068" lon="1.27496">
        <ele>306.4</ele>
        <time>2025-06-16T13:21:49Z</time>
      </trkpt>
      <trkpt lat="45.87065" lon="1.27497">
        <ele>306.4</ele>
        <time>2025-06-16T13:21:50Z</time>
      </trkpt>
      <trkpt lat="45.87062" lon="1.27498">
        <ele>306.3</ele>
        <time>2025-06-16T13:21:51Z</time>
      </trkpt>
      <trkpt lat="45.87059" lon="1.27498">
        <ele>306.2</ele>
        <time>2025-06-16T13:21:52Z</time>
      </trkpt>
      <trkpt lat="45.87056" lon="1.27497">
        <ele>306.1</ele>
        <time>2025-06-16T13:21:53Z</time>
      </trkpt>
      <trkpt lat="45.87053" lon="1.27495">
        <ele>306.1</ele>
        <time>2025-06-16T13:21:54Z</time>
      </trkpt>
      <trkpt lat="45.87051" lon="1.2749">
        <ele>306.3</ele>
        <time>2025-06-16T13:21:55Z</time>
      </trkpt>
      <trkpt lat="45.8705" lon="1.27488">
        <ele>306.3</ele>
        <time>2025-06-16T13:21:56Z</time>
      </trkpt>
      <trkpt lat="45.8705" lon="1.27483">
        <ele>306.5</ele>
        <time>2025-06-16T13:21:57Z</time>
      </trkpt>
      <trkpt lat="45.87049" lon="1.27478">
        <ele>306.6</ele>
        <time>2025-06-16T13:21:58Z</time>
      </trkpt>
      <trkpt lat="45.87047" lon="1.27474">
        <ele>306.8</ele>
        <time>2025-06-16T13:21:59Z</time>
      </trkpt>
      <trkpt lat="45.87046" lon="1.27471">
        <ele>307</ele>
        <time>2025-06-16T13:22:00Z</time>
      </trkpt>
      <trkpt lat="45.87044" lon="1.27467">
        <ele>307.1</ele>
        <time>2025-06-16T13:22:01Z</time>
      </trkpt>
      <trkpt lat="45.87041" lon="1.27464">
        <ele>307.3</ele>
        <time>2025-06-16T13:22:02Z</time>
      </trkpt>
      <trkpt lat="45.87038" lon="1.27462">
        <ele>307.5</ele>
        <time>2025-06-16T13:22:03Z</time>
      </trkpt>
      <trkpt lat="45.87034" lon="1.2746">
        <ele>307.7</ele>
        <time>2025-06-16T13:22:04Z</time>
      </trkpt>
      <trkpt lat="45.87032" lon="1.27459">
        <ele>307.8</ele>
        <time>2025-06-16T13:22:05Z</time>
      </trkpt>
      <trkpt lat="45.87028" lon="1.27458">
        <ele>308</ele>
        <time>2025-06-16T13:22:06Z</time>
      </trkpt>
      <trkpt lat="45.87027" lon="1.27458">
        <ele>308.1</ele>
        <time>2025-06-16T13:22:07Z</time>
      </trkpt>
      <trkpt lat="45.87024" lon="1.27458">
        <ele>308.2</ele>
        <time>2025-06-16T13:22:08Z</time>
      </trkpt>
      <trkpt lat="45.87023" lon="1.27458">
        <ele>308.3</ele>
        <time>2025-06-16T13:22:09Z</time>
      </trkpt>
      <trkpt lat="45.8702" lon="1.27459">
        <ele>308.4</ele>
        <time>2025-06-16T13:22:10Z</time>
      </trkpt>
      <trkpt lat="45.87016" lon="1.27461">
        <ele>308.6</ele>
        <time>2025-06-16T13:22:11Z</time>
      </trkpt>
      <trkpt lat="45.87013" lon="1.27462">
        <ele>308.7</ele>
        <time>2025-06-16T13:22:12Z</time>
      </trkpt>
      <trkpt lat="45.8701" lon="1.27462">
        <ele>308.8</ele>
        <time>2025-06-16T13:22:13Z</time>
      </trkpt>
      <trkpt lat="45.87006" lon="1.27461">
        <ele>308.8</ele>
        <time>2025-06-16T13:22:14Z</time>
      </trkpt>
      <trkpt lat="45.87005" lon="1.27461">
        <ele>308.9</ele>
        <time>2025-06-16T13:22:15Z</time>
      </trkpt>
      <trkpt lat="45.87003" lon="1.27459">
        <ele>308.9</ele>
        <time>2025-06-16T13:22:16Z</time>
      </trkpt>
      <trkpt lat="45.87001" lon="1.27458">
        <ele>309</ele>
        <time>2025-06-16T13:22:17Z</time>
      </trkpt>
      <trkpt lat="45.86999" lon="1.27456">
        <ele>309</ele>
        <time>2025-06-16T13:22:18Z</time>
      </trkpt>
      <trkpt lat="45.86996" lon="1.27454">
        <ele>309.1</ele>
        <time>2025-06-16T13:22:19Z</time>
      </trkpt>
      <trkpt lat="45.86993" lon="1.27452">
        <ele>309.1</ele>
        <time>2025-06-16T13:22:20Z</time>
      </trkpt>
      <trkpt lat="45.86989" lon="1.27448">
        <ele>309.1</ele>
        <time>2025-06-16T13:22:21Z</time>
      </trkpt>
      <trkpt lat="45.86986" lon="1.27444">
        <ele>309.2</ele>
        <time>2025-06-16T13:22:22Z</time>
      </trkpt>
      <trkpt lat="45.86983" lon="1.2744">
        <ele>309.2</ele>
        <time>2025-06-16T13:22:23Z</time>
      </trkpt>
      <trkpt lat="45.8698" lon="1.27436">
        <ele>309.2</ele>
        <time>2025-06-16T13:22:24Z</time>
      </trkpt>
      <trkpt lat="45.86977" lon="1.27431">
        <ele>309.2</ele>
        <time>2025-06-16T13:22:25Z</time>
      </trkpt>
      <trkpt lat="45.86974" lon="1.27426">
        <ele>309.2</ele>
        <time>2025-06-16T13:22:26Z</time>
      </trkpt>
      <trkpt lat="45.86972" lon="1.2742">
        <ele>309.2</ele>
        <time>2025-06-16T13:22:27Z</time>
      </trkpt>
      <trkpt lat="45.86969" lon="1.27414">
        <ele>309.2</ele>
        <time>2025-06-16T13:22:28Z</time>
      </trkpt>
      <trkpt lat="45.86968" lon="1.27407">
        <ele>309.1</ele>
        <time>2025-06-16T13:22:29Z</time>
      </trkpt>
      <trkpt lat="45.86965" lon="1.27401">
        <ele>309.1</ele>
        <time>2025-06-16T13:22:30Z</time>
      </trkpt>
      <trkpt lat="45.86963" lon="1.27395">
        <ele>309</ele>
        <time>2025-06-16T13:22:31Z</time>
      </trkpt>
      <trkpt lat="45.86962" lon="1.27391">
        <ele>309</ele>
        <time>2025-06-16T13:22:32Z</time>
      </trkpt>
      <trkpt lat="45.86961" lon="1.27386">
        <ele>309</ele>
        <time>2025-06-16T13:22:33Z</time>
      </trkpt>
      <trkpt lat="45.86959" lon="1.2738">
        <ele>308.9</ele>
        <time>2025-06-16T13:22:34Z</time>
      </trkpt>
      <trkpt lat="45.86958" lon="1.27375">
        <ele>308.8</ele>
        <time>2025-06-16T13:22:35Z</time>
      </trkpt>
      <trkpt lat="45.86956" lon="1.27369">
        <ele>308.8</ele>
        <time>2025-06-16T13:22:36Z</time>
      </trkpt>
      <trkpt lat="45.86954" lon="1.27364">
        <ele>308.8</ele>
        <time>2025-06-16T13:22:37Z</time>
      </trkpt>
      <trkpt lat="45.86953" lon="1.27358">
        <ele>308.7</ele>
        <time>2025-06-16T13:22:38Z</time>
      </trkpt>
      <trkpt lat="45.86951" lon="1.27352">
        <ele>308.7</ele>
        <time>2025-06-16T13:22:39Z</time>
      </trkpt>
      <trkpt lat="45.86949" lon="1.27347">
        <ele>308.7</ele>
        <time>2025-06-16T13:22:40Z</time>
      </trkpt>
      <trkpt lat="45.86947" lon="1.27342">
        <ele>308.6</ele>
        <time>2025-06-16T13:22:41Z</time>
      </trkpt>
      <trkpt lat="45.86945" lon="1.27336">
        <ele>309</ele>
        <time>2025-06-16T13:22:42Z</time>
      </trkpt>
      <trkpt lat="45.86944" lon="1.2733">
        <ele>309.5</ele>
        <time>2025-06-16T13:22:43Z</time>
      </trkpt>
      <trkpt lat="45.86945" lon="1.27324">
        <ele>309.9</ele>
        <time>2025-06-16T13:22:44Z</time>
      </trkpt>
      <trkpt lat="45.86946" lon="1.27319">
        <ele>310.3</ele>
        <time>2025-06-16T13:22:45Z</time>
      </trkpt>
      <trkpt lat="45.86946" lon="1.27314">
        <ele>310.7</ele>
        <time>2025-06-16T13:22:46Z</time>
      </trkpt>
      <trkpt lat="45.86947" lon="1.2731">
        <ele>311</ele>
        <time>2025-06-16T13:22:47Z</time>
      </trkpt>
      <trkpt lat="45.86947" lon="1.27305">
        <ele>311.7</ele>
        <time>2025-06-16T13:22:48Z</time>
      </trkpt>
      <trkpt lat="45.86948" lon="1.273">
        <ele>312.3</ele>
        <time>2025-06-16T13:22:49Z</time>
      </trkpt>
      <trkpt lat="45.8695" lon="1.27295">
        <ele>313</ele>
        <time>2025-06-16T13:22:50Z</time>
      </trkpt>
      <trkpt lat="45.86952" lon="1.27291">
        <ele>313.5</ele>
        <time>2025-06-16T13:22:51Z</time>
      </trkpt>
      <trkpt lat="45.86953" lon="1.27289">
        <ele>313.9</ele>
        <time>2025-06-16T13:22:52Z</time>
      </trkpt>
      <trkpt lat="45.86954" lon="1.27288">
        <ele>314.2</ele>
        <time>2025-06-16T13:22:53Z</time>
      </trkpt>
      <trkpt lat="45.86955" lon="1.27288">
        <ele>314.1</ele>
        <time>2025-06-16T13:22:54Z</time>
      </trkpt>
      <trkpt lat="45.86957" lon="1.27287">
        <ele>314.1</ele>
        <time>2025-06-16T13:22:55Z</time>
      </trkpt>
      <trkpt lat="45.86961" lon="1.27288">
        <ele>314</ele>
        <time>2025-06-16T13:22:56Z</time>
      </trkpt>
      <trkpt lat="45.86962" lon="1.27288">
        <ele>314</ele>
        <time>2025-06-16T13:22:57Z</time>
      </trkpt>
      <trkpt lat="45.86965" lon="1.27287">
        <ele>314</ele>
        <time>2025-06-16T13:22:58Z</time>
      </trkpt>
      <trkpt lat="45.86966" lon="1.27286">
        <ele>314</ele>
        <time>2025-06-16T13:22:59Z</time>
      </trkpt>
      <trkpt lat="45.8697" lon="1.27284">
        <ele>314</ele>
        <time>2025-06-16T13:23:00Z</time>
      </trkpt>
      <trkpt lat="45.86971" lon="1.27284">
        <ele>314</ele>
        <time>2025-06-16T13:23:01Z</time>
      </trkpt>
      <trkpt lat="45.86974" lon="1.27282">
        <ele>314</ele>
        <time>2025-06-16T13:23:02Z</time>
      </trkpt>
      <trkpt lat="45.86975" lon="1.27281">
        <ele>314</ele>
        <time>2025-06-16T13:23:03Z</time>
      </trkpt>
      <trkpt lat="45.86979" lon="1.27279">
        <ele>314</ele>
        <time>2025-06-16T13:23:04Z</time>
      </trkpt>
      <trkpt lat="45.8698" lon="1.27279">
        <ele>314</ele>
        <time>2025-06-16T13:23:05Z</time>
      </trkpt>
      <trkpt lat="45.86984" lon="1.27278">
        <ele>314.1</ele>
        <time>2025-06-16T13:23:06Z</time>
      </trkpt>
      <trkpt lat="45.86985" lon="1.27278">
        <ele>314.1</ele>
        <time>2025-06-16T13:23:07Z</time>
      </trkpt>
      <trkpt lat="45.86988" lon="1.27278">
        <ele>314.3</ele>
        <time>2025-06-16T13:23:08Z</time>
      </trkpt>
      <trkpt lat="45.86992" lon="1.27278">
        <ele>314.6</ele>
        <time>2025-06-16T13:23:09Z</time>
      </trkpt>
      <trkpt lat="45.86993" lon="1.27278">
        <ele>314.7</ele>
        <time>2025-06-16T13:23:10Z</time>
      </trkpt>
      <trkpt lat="45.86996" lon="1.27277">
        <ele>314.9</ele>
        <time>2025-06-16T13:23:11Z</time>
      </trkpt>
      <trkpt lat="45.87" lon="1.27276">
        <ele>315.1</ele>
        <time>2025-06-16T13:23:12Z</time>
      </trkpt>
      <trkpt lat="45.87003" lon="1.27275">
        <ele>315.3</ele>
        <time>2025-06-16T13:23:13Z</time>
      </trkpt>
      <trkpt lat="45.87006" lon="1.27274">
        <ele>315.5</ele>
        <time>2025-06-16T13:23:14Z</time>
      </trkpt>
      <trkpt lat="45.87007" lon="1.27274">
        <ele>315.6</ele>
        <time>2025-06-16T13:23:15Z</time>
      </trkpt>
      <trkpt lat="45.87009" lon="1.27272">
        <ele>315.9</ele>
        <time>2025-06-16T13:23:16Z</time>
      </trkpt>
      <trkpt lat="45.8701" lon="1.27271">
        <ele>316.1</ele>
        <time>2025-06-16T13:23:17Z</time>
      </trkpt>
      <trkpt lat="45.87014" lon="1.27269">
        <ele>316.5</ele>
        <time>2025-06-16T13:23:18Z</time>
      </trkpt>
      <trkpt lat="45.87015" lon="1.27268">
        <ele>316.6</ele>
        <time>2025-06-16T13:23:19Z</time>
      </trkpt>
      <trkpt lat="45.87017" lon="1.27266">
        <ele>316.9</ele>
        <time>2025-06-16T13:23:20Z</time>
      </trkpt>
      <trkpt lat="45.8702" lon="1.27265">
        <ele>317.2</ele>
        <time>2025-06-16T13:23:21Z</time>
      </trkpt>
      <trkpt lat="45.87023" lon="1.27264">
        <ele>317.5</ele>
        <time>2025-06-16T13:23:22Z</time>
      </trkpt>
      <trkpt lat="45.87026" lon="1.27263">
        <ele>317.8</ele>
        <time>2025-06-16T13:23:23Z</time>
      </trkpt>
      <trkpt lat="45.87028" lon="1.27262">
        <ele>318</ele>
        <time>2025-06-16T13:23:24Z</time>
      </trkpt>
      <trkpt lat="45.87031" lon="1.27264">
        <ele>318.3</ele>
        <time>2025-06-16T13:23:25Z</time>
      </trkpt>
      <trkpt lat="45.87032" lon="1.27264">
        <ele>318.4</ele>
        <time>2025-06-16T13:23:26Z</time>
      </trkpt>
      <trkpt lat="45.87035" lon="1.27264">
        <ele>318.6</ele>
        <time>2025-06-16T13:23:27Z</time>
      </trkpt>
      <trkpt lat="45.87038" lon="1.27265">
        <ele>318.8</ele>
        <time>2025-06-16T13:23:28Z</time>
      </trkpt>
      <trkpt lat="45.87042" lon="1.27265">
        <ele>319.1</ele>
        <time>2025-06-16T13:23:29Z</time>
      </trkpt>
      <trkpt lat="45.87043" lon="1.27265">
        <ele>319.2</ele>
        <time>2025-06-16T13:23:30Z</time>
      </trkpt>
      <trkpt lat="45.87046" lon="1.27266">
        <ele>319.5</ele>
        <time>2025-06-16T13:23:31Z</time>
      </trkpt>
      <trkpt lat="45.87047" lon="1.27266">
        <ele>319.5</ele>
        <time>2025-06-16T13:23:32Z</time>
      </trkpt>
      <trkpt lat="45.87051" lon="1.27266">
        <ele>319.9</ele>
        <time>2025-06-16T13:23:33Z</time>
      </trkpt>
      <trkpt lat="45.87053" lon="1.27266">
        <ele>320.1</ele>
        <time>2025-06-16T13:23:34Z</time>
      </trkpt>
      <trkpt lat="45.87055" lon="1.27267">
        <ele>320.3</ele>
        <time>2025-06-16T13:23:36Z</time>
      </trkpt>
      <trkpt lat="45.87059" lon="1.27267">
        <ele>320.6</ele>
        <time>2025-06-16T13:23:37Z</time>
      </trkpt>
      <trkpt lat="45.8706" lon="1.27268">
        <ele>320.8</ele>
        <time>2025-06-16T13:23:38Z</time>
      </trkpt>
      <trkpt lat="45.87064" lon="1.27269">
        <ele>321.2</ele>
        <time>2025-06-16T13:23:39Z</time>
      </trkpt>
      <trkpt lat="45.87065" lon="1.2727">
        <ele>321.4</ele>
        <time>2025-06-16T13:23:40Z</time>
      </trkpt>
      <trkpt lat="45.87068" lon="1.27272">
        <ele>321.7</ele>
        <time>2025-06-16T13:23:41Z</time>
      </trkpt>
      <trkpt lat="45.87071" lon="1.27274">
        <ele>322.1</ele>
        <time>2025-06-16T13:23:42Z</time>
      </trkpt>
      <trkpt lat="45.87072" lon="1.27275">
        <ele>322.3</ele>
        <time>2025-06-16T13:23:43Z</time>
      </trkpt>
      <trkpt lat="45.87073" lon="1.27277">
        <ele>322.5</ele>
        <time>2025-06-16T13:23:44Z</time>
      </trkpt>
      <trkpt lat="45.87074" lon="1.27279">
        <ele>322.7</ele>
        <time>2025-06-16T13:23:45Z</time>
      </trkpt>
      <trkpt lat="45.87075" lon="1.27281">
        <ele>322.8</ele>
        <time>2025-06-16T13:23:46Z</time>
      </trkpt>
      <trkpt lat="45.87076" lon="1.27283">
        <ele>323</ele>
        <time>2025-06-16T13:23:47Z</time>
      </trkpt>
      <trkpt lat="45.87077" lon="1.27285">
        <ele>323.2</ele>
        <time>2025-06-16T13:23:48Z</time>
      </trkpt>
      <trkpt lat="45.87078" lon="1.27287">
        <ele>323.4</ele>
        <time>2025-06-16T13:23:49Z</time>
      </trkpt>
      <trkpt lat="45.87079" lon="1.2729">
        <ele>323.4</ele>
        <time>2025-06-16T13:23:50Z</time>
      </trkpt>
      <trkpt lat="45.8708" lon="1.27292">
        <ele>323.4</ele>
        <time>2025-06-16T13:23:51Z</time>
      </trkpt>
      <trkpt lat="45.87081" lon="1.27296">
        <ele>323.4</ele>
        <time>2025-06-16T13:23:53Z</time>
      </trkpt>
      <trkpt lat="45.87081" lon="1.27298">
        <ele>323.4</ele>
        <time>2025-06-16T13:23:55Z</time>
      </trkpt>
      <trkpt lat="45.8708" lon="1.27301">
        <ele>323.4</ele>
        <time>2025-06-16T13:23:56Z</time>
      </trkpt>
      <trkpt lat="45.8708" lon="1.27303">
        <ele>323.4</ele>
        <time>2025-06-16T13:23:58Z</time>
      </trkpt>
      <trkpt lat="45.8708" lon="1.27304">
        <ele>323.4</ele>
        <time>2025-06-16T13:23:59Z</time>
      </trkpt>
      <trkpt lat="45.8708" lon="1.27306">
        <ele>323.4</ele>
        <time>2025-06-16T13:24:00Z</time>
      </trkpt>
      <trkpt lat="45.8708" lon="1.27306">
        <ele>323.4</ele>
        <time>2025-06-16T13:24:01Z</time>
      </trkpt>
      <trkpt lat="45.87081" lon="1.27306">
        <ele>323.4</ele>
        <time>2025-06-16T13:24:02Z</time>
      </trkpt>
      <trkpt lat="45.87081" lon="1.27305">
        <ele>323.4</ele>
        <time>2025-06-16T13:24:03Z</time>
      </trkpt>
      <trkpt lat="45.87081" lon="1.27305">
        <ele>323.4</ele>
        <time>2025-06-16T13:24:04Z</time>
      </trkpt>
      <trkpt lat="45.87081" lon="1.27305">
        <ele>323.4</ele>
        <time>2025-06-16T13:24:05Z</time>
      </trkpt>
      <trkpt lat="45.87081" lon="1.27305">
        <ele>323.4</ele>
        <time>2025-06-16T13:24:06Z</time>
      </trkpt>
      <trkpt lat="45.87081" lon="1.27305">
        <ele>323.4</ele>
        <time>2025-06-16T13:24:07Z</time>
      </trkpt>
      <trkpt lat="45.87081" lon="1.27305">
        <ele>323.4</ele>
        <time>2025-06-16T13:24:08Z</time>
      </trkpt>
      <trkpt lat="45.87081" lon="1.27305">
        <ele>323.4</ele>
        <time>2025-06-16T13:24:10Z</time>
      </trkpt>
      <trkpt lat="45.87081" lon="1.27306">
        <ele>323.4</ele>
        <time>2025-06-16T13:24:11Z</time>
      </trkpt>
      <trkpt lat="45.87081" lon="1.27306">
        <ele>323.4</ele>
        <time>2025-06-16T13:24:12Z</time>
      </trkpt>
      <trkpt lat="45.87081" lon="1.27308">
        <ele>323.4</ele>
        <time>2025-06-16T13:24:13Z</time>
      </trkpt>
      <trkpt lat="45.87079" lon="1.27313">
        <ele>323.3</ele>
        <time>2025-06-16T13:24:15Z</time>
      </trkpt>
      <trkpt lat="45.87077" lon="1.27318">
        <ele>323.3</ele>
        <time>2025-06-16T13:24:17Z</time>
      </trkpt>
      <trkpt lat="45.87076" lon="1.27322">
        <ele>323.2</ele>
        <time>2025-06-16T13:24:18Z</time>
      </trkpt>
      <trkpt lat="45.87076" lon="1.27323">
        <ele>323.2</ele>
        <time>2025-06-16T13:24:19Z</time>
      </trkpt>
      <trkpt lat="45.87076" lon="1.27327">
        <ele>323.2</ele>
        <time>2025-06-16T13:24:20Z</time>
      </trkpt>
      <trkpt lat="45.87075" lon="1.27328">
        <ele>323.2</ele>
        <time>2025-06-16T13:24:21Z</time>
      </trkpt>
      <trkpt lat="45.87074" lon="1.27333">
        <ele>323.1</ele>
        <time>2025-06-16T13:24:22Z</time>
      </trkpt>
      <trkpt lat="45.87072" lon="1.27337">
        <ele>323.1</ele>
        <time>2025-06-16T13:24:24Z</time>
      </trkpt>
      <trkpt lat="45.87071" lon="1.27338">
        <ele>323.1</ele>
        <time>2025-06-16T13:24:25Z</time>
      </trkpt>
      <trkpt lat="45.8707" lon="1.27339">
        <ele>323</ele>
        <time>2025-06-16T13:24:26Z</time>
      </trkpt>
      <trkpt lat="45.87069" lon="1.2734">
        <ele>323</ele>
        <time>2025-06-16T13:24:27Z</time>
      </trkpt>
      <trkpt lat="45.87069" lon="1.2734">
        <ele>323</ele>
        <time>2025-06-16T13:24:28Z</time>
      </trkpt>
      <trkpt lat="45.87068" lon="1.2734">
        <ele>323</ele>
        <time>2025-06-16T13:24:29Z</time>
      </trkpt>
      <trkpt lat="45.87068" lon="1.2734">
        <ele>323</ele>
        <time>2025-06-16T13:24:30Z</time>
      </trkpt>
      <trkpt lat="45.87069" lon="1.2734">
        <ele>323</ele>
        <time>2025-06-16T13:24:31Z</time>
      </trkpt>
      <trkpt lat="45.87068" lon="1.2734">
        <ele>323</ele>
        <time>2025-06-16T13:24:32Z</time>
      </trkpt>
      <trkpt lat="45.87068" lon="1.27341">
        <ele>323</ele>
        <time>2025-06-16T13:24:33Z</time>
      </trkpt>
      <trkpt lat="45.87068" lon="1.27342">
        <ele>323</ele>
        <time>2025-06-16T13:24:34Z</time>
      </trkpt>
      <trkpt lat="45.87068" lon="1.27343">
        <ele>323</ele>
        <time>2025-06-16T13:24:35Z</time>
      </trkpt>
      <trkpt lat="45.87068" lon="1.27344">
        <ele>322.9</ele>
        <time>2025-06-16T13:24:36Z</time>
      </trkpt>
      <trkpt lat="45.87068" lon="1.27345">
        <ele>322.9</ele>
        <time>2025-06-16T13:24:37Z</time>
      </trkpt>
      <trkpt lat="45.87068" lon="1.27346">
        <ele>322.9</ele>
        <time>2025-06-16T13:24:38Z</time>
      </trkpt>
      <trkpt lat="45.87068" lon="1.27347">
        <ele>322.9</ele>
        <time>2025-06-16T13:24:39Z</time>
      </trkpt>
      <trkpt lat="45.87068" lon="1.27348">
        <ele>322.9</ele>
        <time>2025-06-16T13:24:40Z</time>
      </trkpt>
      <trkpt lat="45.87068" lon="1.27349">
        <ele>322.9</ele>
        <time>2025-06-16T13:24:41Z</time>
      </trkpt>
      <trkpt lat="45.87068" lon="1.2735">
        <ele>322.9</ele>
        <time>2025-06-16T13:24:42Z</time>
      </trkpt>
      <trkpt lat="45.87068" lon="1.27351">
        <ele>322.9</ele>
        <time>2025-06-16T13:24:43Z</time>
      </trkpt>
      <trkpt lat="45.87068" lon="1.27352">
        <ele>322.8</ele>
        <time>2025-06-16T13:24:44Z</time>
      </trkpt>
      <trkpt lat="45.87068" lon="1.27355">
        <ele>322.8</ele>
        <time>2025-06-16T13:24:45Z</time>
      </trkpt>
      <trkpt lat="45.87068" lon="1.27357">
        <ele>322.8</ele>
        <time>2025-06-16T13:24:46Z</time>
      </trkpt>
      <trkpt lat="45.87069" lon="1.27357">
        <ele>322.8</ele>
        <time>2025-06-16T13:24:47Z</time>
      </trkpt>
      <trkpt lat="45.87068" lon="1.27357">
        <ele>322.8</ele>
        <time>2025-06-16T13:24:48Z</time>
      </trkpt>
      <trkpt lat="45.87068" lon="1.27357">
        <ele>322.8</ele>
        <time>2025-06-16T13:24:49Z</time>
      </trkpt>
      <trkpt lat="45.87069" lon="1.27357">
        <ele>322.8</ele>
        <time>2025-06-16T13:24:50Z</time>
      </trkpt>
      <trkpt lat="45.87069" lon="1.27357">
        <ele>322.8</ele>
        <time>2025-06-16T13:24:51Z</time>
      </trkpt>
      <trkpt lat="45.87069" lon="1.27357">
        <ele>322.8</ele>
        <time>2025-06-16T13:24:52Z</time>
      </trkpt>
      <trkpt lat="45.87069" lon="1.27357">
        <ele>322.8</ele>
        <time>2025-06-16T13:24:53Z</time>
      </trkpt>
      <trkpt lat="45.87069" lon="1.27357">
        <ele>322.8</ele>
        <time>2025-06-16T13:24:54Z</time>
      </trkpt>
      <trkpt lat="45.87068" lon="1.27357">
        <ele>322.8</ele>
        <time>2025-06-16T13:24:55Z</time>
      </trkpt>
      <trkpt lat="45.87068" lon="1.27357">
        <ele>322.7</ele>
        <time>2025-06-16T13:24:56Z</time>
      </trkpt>
      <trkpt lat="45.87068" lon="1.27357">
        <ele>322.7</ele>
        <time>2025-06-16T13:24:57Z</time>
      </trkpt>
      <trkpt lat="45.87067" lon="1.27357">
        <ele>322.7</ele>
        <time>2025-06-16T13:24:58Z</time>
      </trkpt>
      <trkpt lat="45.87067" lon="1.27357">
        <ele>322.7</ele>
        <time>2025-06-16T13:24:59Z</time>
      </trkpt>
      <trkpt lat="45.87067" lon="1.27358">
        <ele>322.7</ele>
        <time>2025-06-16T13:25:00Z</time>
      </trkpt>
      <trkpt lat="45.87066" lon="1.27358">
        <ele>322.6</ele>
        <time>2025-06-16T13:25:01Z</time>
      </trkpt>
      <trkpt lat="45.87065" lon="1.27358">
        <ele>322.6</ele>
        <time>2025-06-16T13:25:02Z</time>
      </trkpt>
      <trkpt lat="45.87064" lon="1.27357">
        <ele>322.6</ele>
        <time>2025-06-16T13:25:03Z</time>
      </trkpt>
      <trkpt lat="45.87063" lon="1.27357">
        <ele>322.5</ele>
        <time>2025-06-16T13:25:04Z</time>
      </trkpt>
      <trkpt lat="45.87061" lon="1.27357">
        <ele>322.4</ele>
        <time>2025-06-16T13:25:05Z</time>
      </trkpt>
      <trkpt lat="45.8706" lon="1.27357">
        <ele>322.3</ele>
        <time>2025-06-16T13:25:06Z</time>
      </trkpt>
      <trkpt lat="45.87059" lon="1.27357">
        <ele>322.3</ele>
        <time>2025-06-16T13:25:07Z</time>
      </trkpt>
      <trkpt lat="45.87057" lon="1.27356">
        <ele>322.2</ele>
        <time>2025-06-16T13:25:08Z</time>
      </trkpt>
      <trkpt lat="45.87057" lon="1.27357">
        <ele>322.1</ele>
        <time>2025-06-16T13:25:09Z</time>
      </trkpt>
      <trkpt lat="45.87056" lon="1.27356">
        <ele>322.1</ele>
        <time>2025-06-16T13:25:10Z</time>
      </trkpt>
      <trkpt lat="45.87055" lon="1.27357">
        <ele>322</ele>
        <time>2025-06-16T13:25:11Z</time>
      </trkpt>
      <trkpt lat="45.87053" lon="1.27356">
        <ele>321.9</ele>
        <time>2025-06-16T13:25:12Z</time>
      </trkpt>
      <trkpt lat="45.8705" lon="1.27356">
        <ele>321.7</ele>
        <time>2025-06-16T13:25:13Z</time>
      </trkpt>
      <trkpt lat="45.87049" lon="1.27356">
        <ele>321.6</ele>
        <time>2025-06-16T13:25:14Z</time>
      </trkpt>
      <trkpt lat="45.87046" lon="1.27355">
        <ele>321.4</ele>
        <time>2025-06-16T13:25:15Z</time>
      </trkpt>
      <trkpt lat="45.87045" lon="1.27355">
        <ele>321.3</ele>
        <time>2025-06-16T13:25:16Z</time>
      </trkpt>
      <trkpt lat="45.87044" lon="1.27353">
        <ele>321.2</ele>
        <time>2025-06-16T13:25:17Z</time>
      </trkpt>
      <trkpt lat="45.87043" lon="1.27352">
        <ele>321.1</ele>
        <time>2025-06-16T13:25:18Z</time>
      </trkpt>
      <trkpt lat="45.87042" lon="1.27349">
        <ele>321.1</ele>
        <time>2025-06-16T13:25:19Z</time>
      </trkpt>
      <trkpt lat="45.87042" lon="1.27348">
        <ele>321.1</ele>
        <time>2025-06-16T13:25:20Z</time>
      </trkpt>
      <trkpt lat="45.87041" lon="1.27346">
        <ele>321.1</ele>
        <time>2025-06-16T13:25:21Z</time>
      </trkpt>
      <trkpt lat="45.87041" lon="1.27345">
        <ele>321</ele>
        <time>2025-06-16T13:25:22Z</time>
      </trkpt>
      <trkpt lat="45.8704" lon="1.27341">
        <ele>321</ele>
        <time>2025-06-16T13:25:23Z</time>
      </trkpt>
      <trkpt lat="45.8704" lon="1.27339">
        <ele>320.9</ele>
        <time>2025-06-16T13:25:25Z</time>
      </trkpt>
      <trkpt lat="45.8704" lon="1.27337">
        <ele>320.9</ele>
        <time>2025-06-16T13:25:26Z</time>
      </trkpt>
      <trkpt lat="45.8704" lon="1.27336">
        <ele>320.9</ele>
        <time>2025-06-16T13:25:27Z</time>
      </trkpt>
      <trkpt lat="45.8704" lon="1.27335">
        <ele>320.9</ele>
        <time>2025-06-16T13:25:28Z</time>
      </trkpt>
      <trkpt lat="45.8704" lon="1.27334">
        <ele>320.8</ele>
        <time>2025-06-16T13:25:29Z</time>
      </trkpt>
      <trkpt lat="45.8704" lon="1.27334">
        <ele>320.8</ele>
        <time>2025-06-16T13:25:30Z</time>
      </trkpt>
      <trkpt lat="45.8704" lon="1.27336">
        <ele>320.8</ele>
        <time>2025-06-16T13:25:31Z</time>
      </trkpt>
      <trkpt lat="45.8704" lon="1.27335">
        <ele>320.8</ele>
        <time>2025-06-16T13:25:32Z</time>
      </trkpt>
      <trkpt lat="45.8704" lon="1.27335">
        <ele>320.8</ele>
        <time>2025-06-16T13:25:33Z</time>
      </trkpt>
      <trkpt lat="45.8704" lon="1.27335">
        <ele>320.8</ele>
        <time>2025-06-16T13:25:34Z</time>
      </trkpt>
      <trkpt lat="45.8704" lon="1.27334">
        <ele>320.8</ele>
        <time>2025-06-16T13:25:35Z</time>
      </trkpt>
      <trkpt lat="45.8704" lon="1.27334">
        <ele>320.8</ele>
        <time>2025-06-16T13:25:36Z</time>
      </trkpt>
      <trkpt lat="45.8704" lon="1.27334">
        <ele>320.8</ele>
        <time>2025-06-16T13:25:37Z</time>
      </trkpt>
      <trkpt lat="45.8704" lon="1.27333">
        <ele>320.8</ele>
        <time>2025-06-16T13:25:38Z</time>
      </trkpt>
      <trkpt lat="45.8704" lon="1.27333">
        <ele>320.8</ele>
        <time>2025-06-16T13:25:39Z</time>
      </trkpt>
      <trkpt lat="45.8704" lon="1.27333">
        <ele>320.8</ele>
        <time>2025-06-16T13:25:40Z</time>
      </trkpt>
      <trkpt lat="45.8704" lon="1.27332">
        <ele>320.7</ele>
        <time>2025-06-16T13:25:41Z</time>
      </trkpt>
      <trkpt lat="45.8704" lon="1.27332">
        <ele>320.7</ele>
        <time>2025-06-16T13:25:42Z</time>
      </trkpt>
      <trkpt lat="45.8704" lon="1.27331">
        <ele>320.7</ele>
        <time>2025-06-16T13:25:43Z</time>
      </trkpt>
      <trkpt lat="45.87039" lon="1.27329">
        <ele>320.7</ele>
        <time>2025-06-16T13:25:44Z</time>
      </trkpt>
      <trkpt lat="45.87039" lon="1.27328">
        <ele>320.7</ele>
        <time>2025-06-16T13:25:45Z</time>
      </trkpt>
      <trkpt lat="45.87039" lon="1.27328">
        <ele>320.7</ele>
        <time>2025-06-16T13:25:46Z</time>
      </trkpt>
      <trkpt lat="45.87039" lon="1.27328">
        <ele>320.7</ele>
        <time>2025-06-16T13:25:47Z</time>
      </trkpt>
      <trkpt lat="45.87039" lon="1.27328">
        <ele>320.7</ele>
        <time>2025-06-16T13:25:48Z</time>
      </trkpt>
      <trkpt lat="45.87039" lon="1.27327">
        <ele>320.7</ele>
        <time>2025-06-16T13:25:49Z</time>
      </trkpt>
      <trkpt lat="45.87039" lon="1.27327">
        <ele>320.7</ele>
        <time>2025-06-16T13:25:50Z</time>
      </trkpt>
      <trkpt lat="45.87039" lon="1.27327">
        <ele>320.7</ele>
        <time>2025-06-16T13:25:51Z</time>
      </trkpt>
      <trkpt lat="45.87039" lon="1.27327">
        <ele>320.7</ele>
        <time>2025-06-16T13:25:52Z</time>
      </trkpt>
      <trkpt lat="45.87039" lon="1.27327">
        <ele>320.7</ele>
        <time>2025-06-16T13:25:53Z</time>
      </trkpt>
      <trkpt lat="45.87039" lon="1.27327">
        <ele>320.7</ele>
        <time>2025-06-16T13:25:54Z</time>
      </trkpt>
      <trkpt lat="45.87039" lon="1.27327">
        <ele>320.6</ele>
        <time>2025-06-16T13:25:55Z</time>
      </trkpt>
      <trkpt lat="45.87039" lon="1.27327">
        <ele>320.6</ele>
        <time>2025-06-16T13:25:56Z</time>
      </trkpt>
      <trkpt lat="45.87039" lon="1.27327">
        <ele>320.6</ele>
        <time>2025-06-16T13:25:57Z</time>
      </trkpt>
      <trkpt lat="45.87039" lon="1.27327">
        <ele>320.6</ele>
        <time>2025-06-16T13:25:58Z</time>
      </trkpt>
      <trkpt lat="45.87039" lon="1.27327">
        <ele>320.6</ele>
        <time>2025-06-16T13:25:59Z</time>
      </trkpt>
      <trkpt lat="45.87039" lon="1.27327">
        <ele>320.6</ele>
        <time>2025-06-16T13:26:00Z</time>
      </trkpt>
      <trkpt lat="45.87039" lon="1.27327">
        <ele>320.6</ele>
        <time>2025-06-16T13:26:01Z</time>
      </trkpt>
      <trkpt lat="45.87039" lon="1.27327">
        <ele>320.6</ele>
        <time>2025-06-16T13:26:02Z</time>
      </trkpt>
      <trkpt lat="45.87039" lon="1.27327">
        <ele>320.6</ele>
        <time>2025-06-16T13:26:03Z</time>
      </trkpt>
      <trkpt lat="45.87039" lon="1.27327">
        <ele>320.6</ele>
        <time>2025-06-16T13:26:04Z</time>
      </trkpt>
      <trkpt lat="45.87039" lon="1.27327">
        <ele>320.6</ele>
        <time>2025-06-16T13:26:05Z</time>
      </trkpt>
      <trkpt lat="45.87039" lon="1.27327">
        <ele>320.6</ele>
        <time>2025-06-16T13:26:06Z</time>
      </trkpt>
      <trkpt lat="45.87039" lon="1.27327">
        <ele>320.6</ele>
        <time>2025-06-16T13:26:07Z</time>
      </trkpt>
      <trkpt lat="45.87039" lon="1.27327">
        <ele>320.6</ele>
        <time>2025-06-16T13:26:08Z</time>
      </trkpt>
      <trkpt lat="45.87039" lon="1.27327">
        <ele>320.6</ele>
        <time>2025-06-16T13:26:09Z</time>
      </trkpt>
      <trkpt lat="45.87039" lon="1.27327">
        <ele>320.6</ele>
        <time>2025-06-16T13:26:10Z</time>
      </trkpt>
      <trkpt lat="45.87039" lon="1.27327">
        <ele>320.6</ele>
        <time>2025-06-16T13:26:11Z</time>
      </trkpt>
      <trkpt lat="45.87039" lon="1.27327">
        <ele>320.6</ele>
        <time>2025-06-16T13:26:12Z</time>
      </trkpt>
      <trkpt lat="45.87039" lon="1.27327">
        <ele>320.6</ele>
        <time>2025-06-16T13:26:13Z</time>
      </trkpt>
      <trkpt lat="45.87039" lon="1.27327">
        <ele>320.6</ele>
        <time>2025-06-16T13:26:14Z</time>
      </trkpt>
      <trkpt lat="45.87039" lon="1.27327">
        <ele>320.6</ele>
        <time>2025-06-16T13:26:15Z</time>
      </trkpt>
      <trkpt lat="45.87039" lon="1.27327">
        <ele>320.6</ele>
        <time>2025-06-16T13:26:16Z</time>
      </trkpt>
      <trkpt lat="45.87039" lon="1.27327">
        <ele>320.6</ele>
        <time>2025-06-16T13:26:17Z</time>
      </trkpt>
      <trkpt lat="45.87039" lon="1.27327">
        <ele>320.6</ele>
        <time>2025-06-16T13:26:18Z</time>
      </trkpt>
      <trkpt lat="45.87039" lon="1.27327">
        <ele>320.6</ele>
        <time>2025-06-16T13:26:19Z</time>
      </trkpt>
      <trkpt lat="45.87039" lon="1.27327">
        <ele>320.6</ele>
        <time>2025-06-16T13:26:20Z</time>
      </trkpt>
      <trkpt lat="45.87039" lon="1.27327">
        <ele>320.6</ele>
        <time>2025-06-16T13:26:21Z</time>
      </trkpt>
      <trkpt lat="45.87039" lon="1.27327">
        <ele>320.6</ele>
        <time>2025-06-16T13:26:22Z</time>
      </trkpt>
      <trkpt lat="45.87039" lon="1.27327">
        <ele>320.6</ele>
        <time>2025-06-16T13:26:23Z</time>
      </trkpt>
      <trkpt lat="45.87039" lon="1.27327">
        <ele>320.6</ele>
        <time>2025-06-16T13:26:24Z</time>
      </trkpt>
      <trkpt lat="45.87039" lon="1.27327">
        <ele>320.6</ele>
        <time>2025-06-16T13:26:25Z</time>
      </trkpt>
      <trkpt lat="45.87039" lon="1.27327">
        <ele>320.6</ele>
        <time>2025-06-16T13:26:26Z</time>
      </trkpt>
      <trkpt lat="45.87039" lon="1.27327">
        <ele>320.6</ele>
        <time>2025-06-16T13:26:27Z</time>
      </trkpt>
      <trkpt lat="45.87039" lon="1.27327">
        <ele>320.6</ele>
        <time>2025-06-16T13:26:28Z</time>
      </trkpt>
      <trkpt lat="45.87039" lon="1.27327">
        <ele>320.6</ele>
        <time>2025-06-16T13:26:29Z</time>
      </trkpt>
      <trkpt lat="45.87039" lon="1.27327">
        <ele>320.6</ele>
        <time>2025-06-16T13:26:30Z</time>
      </trkpt>
      <trkpt lat="45.8704" lon="1.27326">
        <ele>320.6</ele>
        <time>2025-06-16T13:26:31Z</time>
      </trkpt>
      <trkpt lat="45.8704" lon="1.27326">
        <ele>320.6</ele>
        <time>2025-06-16T13:26:32Z</time>
      </trkpt>
      <trkpt lat="45.87041" lon="1.27324">
        <ele>320.6</ele>
        <time>2025-06-16T13:26:33Z</time>
      </trkpt>
      <trkpt lat="45.87042" lon="1.27322">
        <ele>320.5</ele>
        <time>2025-06-16T13:26:34Z</time>
      </trkpt>
      <trkpt lat="45.87045" lon="1.27319">
        <ele>320.4</ele>
        <time>2025-06-16T13:26:35Z</time>
      </trkpt>
      <trkpt lat="45.87046" lon="1.27317">
        <ele>320.4</ele>
        <time>2025-06-16T13:26:36Z</time>
      </trkpt>
      <trkpt lat="45.87048" lon="1.27315">
        <ele>320.5</ele>
        <time>2025-06-16T13:26:37Z</time>
      </trkpt>
      <trkpt lat="45.87049" lon="1.27314">
        <ele>320.6</ele>
        <time>2025-06-16T13:26:38Z</time>
      </trkpt>
      <trkpt lat="45.87052" lon="1.2731">
        <ele>320.8</ele>
        <time>2025-06-16T13:26:39Z</time>
      </trkpt>
      <trkpt lat="45.87052" lon="1.27308">
        <ele>320.9</ele>
        <time>2025-06-16T13:26:40Z</time>
      </trkpt>
      <trkpt lat="45.87056" lon="1.27304">
        <ele>321.2</ele>
        <time>2025-06-16T13:26:41Z</time>
      </trkpt>
      <trkpt lat="45.87057" lon="1.27302">
        <ele>321.4</ele>
        <time>2025-06-16T13:26:42Z</time>
      </trkpt>
      <trkpt lat="45.8706" lon="1.27299">
        <ele>321.6</ele>
        <time>2025-06-16T13:26:44Z</time>
      </trkpt>
      <trkpt lat="45.87064" lon="1.27296">
        <ele>321.9</ele>
        <time>2025-06-16T13:26:45Z</time>
      </trkpt>
      <trkpt lat="45.87068" lon="1.27295">
        <ele>322.2</ele>
        <time>2025-06-16T13:26:47Z</time>
      </trkpt>
      <trkpt lat="45.87073" lon="1.27295">
        <ele>322.5</ele>
        <time>2025-06-16T13:26:48Z</time>
      </trkpt>
      <trkpt lat="45.87076" lon="1.27295">
        <ele>322.7</ele>
        <time>2025-06-16T13:26:50Z</time>
      </trkpt>
      <trkpt lat="45.8708" lon="1.27291">
        <ele>322.9</ele>
        <time>2025-06-16T13:26:51Z</time>
      </trkpt>
      <trkpt lat="45.87081" lon="1.27289">
        <ele>323</ele>
        <time>2025-06-16T13:26:52Z</time>
      </trkpt>
      <trkpt lat="45.87087" lon="1.27285">
        <ele>323.3</ele>
        <time>2025-06-16T13:26:54Z</time>
      </trkpt>
      <trkpt lat="45.87092" lon="1.27284">
        <ele>323.4</ele>
        <time>2025-06-16T13:26:55Z</time>
      </trkpt>
      <trkpt lat="45.87097" lon="1.27283">
        <ele>323.5</ele>
        <time>2025-06-16T13:26:57Z</time>
      </trkpt>
      <trkpt lat="45.871" lon="1.27282">
        <ele>323.5</ele>
        <time>2025-06-16T13:26:59Z</time>
      </trkpt>
      <trkpt lat="45.87104" lon="1.27282">
        <ele>323.5</ele>
        <time>2025-06-16T13:27:00Z</time>
      </trkpt>
      <trkpt lat="45.87104" lon="1.27282">
        <ele>323.6</ele>
        <time>2025-06-16T13:27:01Z</time>
      </trkpt>
      <trkpt lat="45.87109" lon="1.27279">
        <ele>323.6</ele>
        <time>2025-06-16T13:27:03Z</time>
      </trkpt>
      <trkpt lat="45.87114" lon="1.27279">
        <ele>323.7</ele>
        <time>2025-06-16T13:27:04Z</time>
      </trkpt>
      <trkpt lat="45.87118" lon="1.2728">
        <ele>323.8</ele>
        <time>2025-06-16T13:27:05Z</time>
      </trkpt>
      <trkpt lat="45.87122" lon="1.2728">
        <ele>323.9</ele>
        <time>2025-06-16T13:27:06Z</time>
      </trkpt>
      <trkpt lat="45.87127" lon="1.27281">
        <ele>324</ele>
        <time>2025-06-16T13:27:07Z</time>
      </trkpt>
      <trkpt lat="45.87131" lon="1.27281">
        <ele>324</ele>
        <time>2025-06-16T13:27:08Z</time>
      </trkpt>
      <trkpt lat="45.87134" lon="1.27283">
        <ele>324.1</ele>
        <time>2025-06-16T13:27:09Z</time>
      </trkpt>
      <trkpt lat="45.87137" lon="1.27285">
        <ele>324.1</ele>
        <time>2025-06-16T13:27:10Z</time>
      </trkpt>
      <trkpt lat="45.8714" lon="1.27288">
        <ele>324.1</ele>
        <time>2025-06-16T13:27:11Z</time>
      </trkpt>
      <trkpt lat="45.87143" lon="1.27289">
        <ele>324</ele>
        <time>2025-06-16T13:27:12Z</time>
      </trkpt>
      <trkpt lat="45.87147" lon="1.2729">
        <ele>324</ele>
        <time>2025-06-16T13:27:13Z</time>
      </trkpt>
      <trkpt lat="45.8715" lon="1.27289">
        <ele>323.9</ele>
        <time>2025-06-16T13:27:14Z</time>
      </trkpt>
      <trkpt lat="45.87154" lon="1.27289">
        <ele>323.8</ele>
        <time>2025-06-16T13:27:15Z</time>
      </trkpt>
      <trkpt lat="45.87159" lon="1.27289">
        <ele>323.7</ele>
        <time>2025-06-16T13:27:16Z</time>
      </trkpt>
      <trkpt lat="45.87165" lon="1.2729">
        <ele>323.5</ele>
        <time>2025-06-16T13:27:17Z</time>
      </trkpt>
      <trkpt lat="45.87172" lon="1.2729">
        <ele>323.4</ele>
        <time>2025-06-16T13:27:18Z</time>
      </trkpt>
      <trkpt lat="45.87177" lon="1.2729">
        <ele>323.2</ele>
        <time>2025-06-16T13:27:19Z</time>
      </trkpt>
      <trkpt lat="45.87181" lon="1.2729">
        <ele>323.2</ele>
        <time>2025-06-16T13:27:20Z</time>
      </trkpt>
      <trkpt lat="45.87185" lon="1.2729">
        <ele>323.1</ele>
        <time>2025-06-16T13:27:21Z</time>
      </trkpt>
      <trkpt lat="45.8719" lon="1.27289">
        <ele>323</ele>
        <time>2025-06-16T13:27:22Z</time>
      </trkpt>
      <trkpt lat="45.87193" lon="1.27288">
        <ele>323</ele>
        <time>2025-06-16T13:27:23Z</time>
      </trkpt>
      <trkpt lat="45.87197" lon="1.27287">
        <ele>323</ele>
        <time>2025-06-16T13:27:24Z</time>
      </trkpt>
      <trkpt lat="45.872" lon="1.27285">
        <ele>323</ele>
        <time>2025-06-16T13:27:25Z</time>
      </trkpt>
      <trkpt lat="45.87205" lon="1.27283">
        <ele>323</ele>
        <time>2025-06-16T13:27:26Z</time>
      </trkpt>
      <trkpt lat="45.87209" lon="1.27281">
        <ele>323.1</ele>
        <time>2025-06-16T13:27:27Z</time>
      </trkpt>
      <trkpt lat="45.87213" lon="1.27279">
        <ele>323.2</ele>
        <time>2025-06-16T13:27:28Z</time>
      </trkpt>
      <trkpt lat="45.87216" lon="1.27277">
        <ele>323.3</ele>
        <time>2025-06-16T13:27:29Z</time>
      </trkpt>
      <trkpt lat="45.87219" lon="1.27276">
        <ele>323.4</ele>
        <time>2025-06-16T13:27:30Z</time>
      </trkpt>
      <trkpt lat="45.87222" lon="1.27274">
        <ele>323.4</ele>
        <time>2025-06-16T13:27:31Z</time>
      </trkpt>
      <trkpt lat="45.87225" lon="1.27272">
        <ele>323.5</ele>
        <time>2025-06-16T13:27:32Z</time>
      </trkpt>
      <trkpt lat="45.87228" lon="1.2727">
        <ele>323.6</ele>
        <time>2025-06-16T13:27:33Z</time>
      </trkpt>
      <trkpt lat="45.8723" lon="1.2727">
        <ele>323.7</ele>
        <time>2025-06-16T13:27:34Z</time>
      </trkpt>
      <trkpt lat="45.87233" lon="1.27269">
        <ele>323.8</ele>
        <time>2025-06-16T13:27:35Z</time>
      </trkpt>
      <trkpt lat="45.87235" lon="1.27268">
        <ele>323.8</ele>
        <time>2025-06-16T13:27:36Z</time>
      </trkpt>
      <trkpt lat="45.87238" lon="1.27268">
        <ele>323.9</ele>
        <time>2025-06-16T13:27:37Z</time>
      </trkpt>
      <trkpt lat="45.87242" lon="1.27268">
        <ele>324.1</ele>
        <time>2025-06-16T13:27:38Z</time>
      </trkpt>
      <trkpt lat="45.87245" lon="1.27268">
        <ele>324.2</ele>
        <time>2025-06-16T13:27:39Z</time>
      </trkpt>
      <trkpt lat="45.87248" lon="1.27268">
        <ele>324.3</ele>
        <time>2025-06-16T13:27:40Z</time>
      </trkpt>
      <trkpt lat="45.87251" lon="1.27268">
        <ele>324.4</ele>
        <time>2025-06-16T13:27:41Z</time>
      </trkpt>
      <trkpt lat="45.87252" lon="1.27268">
        <ele>324.4</ele>
        <time>2025-06-16T13:27:42Z</time>
      </trkpt>
      <trkpt lat="45.87256" lon="1.27267">
        <ele>324.6</ele>
        <time>2025-06-16T13:27:43Z</time>
      </trkpt>
      <trkpt lat="45.87257" lon="1.27266">
        <ele>324.6</ele>
        <time>2025-06-16T13:27:44Z</time>
      </trkpt>
      <trkpt lat="45.8726" lon="1.27266">
        <ele>324.8</ele>
        <time>2025-06-16T13:27:45Z</time>
      </trkpt>
      <trkpt lat="45.87264" lon="1.27265">
        <ele>325</ele>
        <time>2025-06-16T13:27:46Z</time>
      </trkpt>
      <trkpt lat="45.87267" lon="1.27264">
        <ele>325.2</ele>
        <time>2025-06-16T13:27:47Z</time>
      </trkpt>
      <trkpt lat="45.87271" lon="1.27264">
        <ele>325.4</ele>
        <time>2025-06-16T13:27:48Z</time>
      </trkpt>
      <trkpt lat="45.87274" lon="1.27265">
        <ele>325.6</ele>
        <time>2025-06-16T13:27:49Z</time>
      </trkpt>
      <trkpt lat="45.87277" lon="1.27264">
        <ele>325.9</ele>
        <time>2025-06-16T13:27:50Z</time>
      </trkpt>
      <trkpt lat="45.8728" lon="1.27264">
        <ele>326.2</ele>
        <time>2025-06-16T13:27:51Z</time>
      </trkpt>
      <trkpt lat="45.87283" lon="1.27264">
        <ele>326.6</ele>
        <time>2025-06-16T13:27:52Z</time>
      </trkpt>
      <trkpt lat="45.87286" lon="1.27264">
        <ele>326.9</ele>
        <time>2025-06-16T13:27:53Z</time>
      </trkpt>
      <trkpt lat="45.8729" lon="1.27263">
        <ele>327.3</ele>
        <time>2025-06-16T13:27:54Z</time>
      </trkpt>
      <trkpt lat="45.87293" lon="1.27262">
        <ele>327.6</ele>
        <time>2025-06-16T13:27:55Z</time>
      </trkpt>
      <trkpt lat="45.87294" lon="1.27261">
        <ele>327.6</ele>
        <time>2025-06-16T13:27:56Z</time>
      </trkpt>
      <trkpt lat="45.87296" lon="1.27259">
        <ele>327.9</ele>
        <time>2025-06-16T13:27:57Z</time>
      </trkpt>
      <trkpt lat="45.87297" lon="1.27258">
        <ele>328</ele>
        <time>2025-06-16T13:27:58Z</time>
      </trkpt>
      <trkpt lat="45.873" lon="1.27258">
        <ele>328.2</ele>
        <time>2025-06-16T13:27:59Z</time>
      </trkpt>
      <trkpt lat="45.87304" lon="1.27258">
        <ele>328.5</ele>
        <time>2025-06-16T13:28:00Z</time>
      </trkpt>
      <trkpt lat="45.87308" lon="1.27258">
        <ele>328.8</ele>
        <time>2025-06-16T13:28:01Z</time>
      </trkpt>
      <trkpt lat="45.87312" lon="1.27259">
        <ele>329.1</ele>
        <time>2025-06-16T13:28:02Z</time>
      </trkpt>
      <trkpt lat="45.87317" lon="1.27259">
        <ele>329.5</ele>
        <time>2025-06-16T13:28:03Z</time>
      </trkpt>
      <trkpt lat="45.87321" lon="1.27259">
        <ele>329.7</ele>
        <time>2025-06-16T13:28:04Z</time>
      </trkpt>
      <trkpt lat="45.87326" lon="1.27259">
        <ele>329.9</ele>
        <time>2025-06-16T13:28:05Z</time>
      </trkpt>
      <trkpt lat="45.8733" lon="1.2726">
        <ele>330.1</ele>
        <time>2025-06-16T13:28:06Z</time>
      </trkpt>
      <trkpt lat="45.87335" lon="1.2726">
        <ele>330.2</ele>
        <time>2025-06-16T13:28:07Z</time>
      </trkpt>
      <trkpt lat="45.87338" lon="1.27261">
        <ele>330.3</ele>
        <time>2025-06-16T13:28:08Z</time>
      </trkpt>
      <trkpt lat="45.87342" lon="1.27261">
        <ele>330.4</ele>
        <time>2025-06-16T13:28:09Z</time>
      </trkpt>
      <trkpt lat="45.87343" lon="1.27261">
        <ele>330.4</ele>
        <time>2025-06-16T13:28:10Z</time>
      </trkpt>
      <trkpt lat="45.87344" lon="1.2726">
        <ele>330.4</ele>
        <time>2025-06-16T13:28:11Z</time>
      </trkpt>
      <trkpt lat="45.87346" lon="1.27259">
        <ele>330.5</ele>
        <time>2025-06-16T13:28:12Z</time>
      </trkpt>
      <trkpt lat="45.87347" lon="1.27259">
        <ele>330.5</ele>
        <time>2025-06-16T13:28:13Z</time>
      </trkpt>
      <trkpt lat="45.87349" lon="1.27258">
        <ele>330.5</ele>
        <time>2025-06-16T13:28:14Z</time>
      </trkpt>
      <trkpt lat="45.8735" lon="1.27257">
        <ele>330.5</ele>
        <time>2025-06-16T13:28:15Z</time>
      </trkpt>
      <trkpt lat="45.87352" lon="1.27257">
        <ele>330.5</ele>
        <time>2025-06-16T13:28:16Z</time>
      </trkpt>
      <trkpt lat="45.87356" lon="1.27256">
        <ele>330.4</ele>
        <time>2025-06-16T13:28:17Z</time>
      </trkpt>
      <trkpt lat="45.87358" lon="1.27256">
        <ele>330.4</ele>
        <time>2025-06-16T13:28:18Z</time>
      </trkpt>
      <trkpt lat="45.87361" lon="1.27256">
        <ele>330.3</ele>
        <time>2025-06-16T13:28:19Z</time>
      </trkpt>
      <trkpt lat="45.87365" lon="1.27257">
        <ele>330.2</ele>
        <time>2025-06-16T13:28:20Z</time>
      </trkpt>
      <trkpt lat="45.87368" lon="1.27257">
        <ele>330.1</ele>
        <time>2025-06-16T13:28:21Z</time>
      </trkpt>
      <trkpt lat="45.87371" lon="1.27257">
        <ele>330</ele>
        <time>2025-06-16T13:28:22Z</time>
      </trkpt>
      <trkpt lat="45.87374" lon="1.27258">
        <ele>329.9</ele>
        <time>2025-06-16T13:28:23Z</time>
      </trkpt>
      <trkpt lat="45.87375" lon="1.27258">
        <ele>329.9</ele>
        <time>2025-06-16T13:28:24Z</time>
      </trkpt>
      <trkpt lat="45.87378" lon="1.27259">
        <ele>329.7</ele>
        <time>2025-06-16T13:28:25Z</time>
      </trkpt>
      <trkpt lat="45.87379" lon="1.2726">
        <ele>329.7</ele>
        <time>2025-06-16T13:28:26Z</time>
      </trkpt>
      <trkpt lat="45.87381" lon="1.27261">
        <ele>329.6</ele>
        <time>2025-06-16T13:28:27Z</time>
      </trkpt>
      <trkpt lat="45.87382" lon="1.27261">
        <ele>329.5</ele>
        <time>2025-06-16T13:28:28Z</time>
      </trkpt>
      <trkpt lat="45.87385" lon="1.27263">
        <ele>329.4</ele>
        <time>2025-06-16T13:28:29Z</time>
      </trkpt>
      <trkpt lat="45.87386" lon="1.27264">
        <ele>329.3</ele>
        <time>2025-06-16T13:28:30Z</time>
      </trkpt>
      <trkpt lat="45.8739" lon="1.27266">
        <ele>329.1</ele>
        <time>2025-06-16T13:28:31Z</time>
      </trkpt>
      <trkpt lat="45.87391" lon="1.27267">
        <ele>329</ele>
        <time>2025-06-16T13:28:32Z</time>
      </trkpt>
      <trkpt lat="45.87393" lon="1.27269">
        <ele>328.9</ele>
        <time>2025-06-16T13:28:33Z</time>
      </trkpt>
      <trkpt lat="45.87396" lon="1.27269">
        <ele>328.7</ele>
        <time>2025-06-16T13:28:34Z</time>
      </trkpt>
      <trkpt lat="45.874" lon="1.2727">
        <ele>328.5</ele>
        <time>2025-06-16T13:28:35Z</time>
      </trkpt>
      <trkpt lat="45.87405" lon="1.27273">
        <ele>328.2</ele>
        <time>2025-06-16T13:28:36Z</time>
      </trkpt>
      <trkpt lat="45.87405" lon="1.27274">
        <ele>328.2</ele>
        <time>2025-06-16T13:28:37Z</time>
      </trkpt>
      <trkpt lat="45.87406" lon="1.27276">
        <ele>328</ele>
        <time>2025-06-16T13:28:38Z</time>
      </trkpt>
      <trkpt lat="45.87408" lon="1.27278">
        <ele>327.9</ele>
        <time>2025-06-16T13:28:39Z</time>
      </trkpt>
      <trkpt lat="45.87411" lon="1.27283">
        <ele>327.7</ele>
        <time>2025-06-16T13:28:40Z</time>
      </trkpt>
      <trkpt lat="45.87413" lon="1.27288">
        <ele>327.5</ele>
        <time>2025-06-16T13:28:41Z</time>
      </trkpt>
      <trkpt lat="45.8742" lon="1.27296">
        <ele>327</ele>
        <time>2025-06-16T13:28:42Z</time>
      </trkpt>
      <trkpt lat="45.87427" lon="1.27303">
        <ele>326.6</ele>
        <time>2025-06-16T13:28:43Z</time>
      </trkpt>
      <trkpt lat="45.87436" lon="1.27306">
        <ele>326.1</ele>
        <time>2025-06-16T13:28:44Z</time>
      </trkpt>
      <trkpt lat="45.87441" lon="1.27309">
        <ele>325.8</ele>
        <time>2025-06-16T13:28:45Z</time>
      </trkpt>
      <trkpt lat="45.87445" lon="1.27312">
        <ele>325.6</ele>
        <time>2025-06-16T13:28:46Z</time>
      </trkpt>
      <trkpt lat="45.8745" lon="1.27316">
        <ele>325.4</ele>
        <time>2025-06-16T13:28:47Z</time>
      </trkpt>
      <trkpt lat="45.87454" lon="1.2732">
        <ele>325.1</ele>
        <time>2025-06-16T13:28:48Z</time>
      </trkpt>
      <trkpt lat="45.8746" lon="1.27328">
        <ele>324.7</ele>
        <time>2025-06-16T13:28:49Z</time>
      </trkpt>
      <trkpt lat="45.87465" lon="1.27339">
        <ele>324.2</ele>
        <time>2025-06-16T13:28:50Z</time>
      </trkpt>
      <trkpt lat="45.87469" lon="1.2735">
        <ele>323.7</ele>
        <time>2025-06-16T13:28:51Z</time>
      </trkpt>
      <trkpt lat="45.87472" lon="1.2736">
        <ele>323.2</ele>
        <time>2025-06-16T13:28:52Z</time>
      </trkpt>
      <trkpt lat="45.87475" lon="1.2737">
        <ele>322.6</ele>
        <time>2025-06-16T13:28:53Z</time>
      </trkpt>
      <trkpt lat="45.87477" lon="1.27377">
        <ele>322.1</ele>
        <time>2025-06-16T13:28:54Z</time>
      </trkpt>
      <trkpt lat="45.87481" lon="1.27386">
        <ele>321.5</ele>
        <time>2025-06-16T13:28:55Z</time>
      </trkpt>
      <trkpt lat="45.87484" lon="1.27394">
        <ele>321</ele>
        <time>2025-06-16T13:28:56Z</time>
      </trkpt>
      <trkpt lat="45.87487" lon="1.274">
        <ele>320.7</ele>
        <time>2025-06-16T13:28:57Z</time>
      </trkpt>
      <trkpt lat="45.87486" lon="1.27405">
        <ele>320.6</ele>
        <time>2025-06-16T13:28:58Z</time>
      </trkpt>
      <trkpt lat="45.87484" lon="1.2741">
        <ele>320.4</ele>
        <time>2025-06-16T13:28:59Z</time>
      </trkpt>
      <trkpt lat="45.87483" lon="1.27415">
        <ele>320.4</ele>
        <time>2025-06-16T13:29:00Z</time>
      </trkpt>
      <trkpt lat="45.87481" lon="1.27419">
        <ele>320.3</ele>
        <time>2025-06-16T13:29:01Z</time>
      </trkpt>
      <trkpt lat="45.8748" lon="1.27422">
        <ele>320.3</ele>
        <time>2025-06-16T13:29:02Z</time>
      </trkpt>
      <trkpt lat="45.87479" lon="1.27424">
        <ele>320.3</ele>
        <time>2025-06-16T13:29:03Z</time>
      </trkpt>
      <trkpt lat="45.87479" lon="1.27427">
        <ele>320.2</ele>
        <time>2025-06-16T13:29:04Z</time>
      </trkpt>
      <trkpt lat="45.8748" lon="1.27428">
        <ele>320.2</ele>
        <time>2025-06-16T13:29:05Z</time>
      </trkpt>
      <trkpt lat="45.87483" lon="1.27431">
        <ele>320.2</ele>
        <time>2025-06-16T13:29:06Z</time>
      </trkpt>
      <trkpt lat="45.87484" lon="1.27432">
        <ele>320.1</ele>
        <time>2025-06-16T13:29:07Z</time>
      </trkpt>
      <trkpt lat="45.87487" lon="1.27434">
        <ele>320</ele>
        <time>2025-06-16T13:29:08Z</time>
      </trkpt>
      <trkpt lat="45.8749" lon="1.27436">
        <ele>320</ele>
        <time>2025-06-16T13:29:09Z</time>
      </trkpt>
      <trkpt lat="45.87492" lon="1.27439">
        <ele>319.9</ele>
        <time>2025-06-16T13:29:10Z</time>
      </trkpt>
      <trkpt lat="45.87494" lon="1.27443">
        <ele>318.6</ele>
        <time>2025-06-16T13:29:11Z</time>
      </trkpt>
      <trkpt lat="45.87495" lon="1.27447">
        <ele>317.2</ele>
        <time>2025-06-16T13:29:12Z</time>
      </trkpt>
      <trkpt lat="45.87496" lon="1.27452">
        <ele>315.3</ele>
        <time>2025-06-16T13:29:13Z</time>
      </trkpt>
      <trkpt lat="45.87498" lon="1.27457">
        <ele>313.1</ele>
        <time>2025-06-16T13:29:14Z</time>
      </trkpt>
      <trkpt lat="45.87498" lon="1.27462">
        <ele>312.9</ele>
        <time>2025-06-16T13:29:15Z</time>
      </trkpt>
      <trkpt lat="45.87497" lon="1.27466">
        <ele>312.8</ele>
        <time>2025-06-16T13:29:16Z</time>
      </trkpt>
      <trkpt lat="45.87495" lon="1.27471">
        <ele>312.6</ele>
        <time>2025-06-16T13:29:17Z</time>
      </trkpt>
      <trkpt lat="45.87494" lon="1.27476">
        <ele>312.4</ele>
        <time>2025-06-16T13:29:18Z</time>
      </trkpt>
      <trkpt lat="45.87492" lon="1.27481">
        <ele>312.2</ele>
        <time>2025-06-16T13:29:19Z</time>
      </trkpt>
      <trkpt lat="45.8749" lon="1.27485">
        <ele>312.1</ele>
        <time>2025-06-16T13:29:20Z</time>
      </trkpt>
      <trkpt lat="45.87488" lon="1.2749">
        <ele>311.9</ele>
        <time>2025-06-16T13:29:21Z</time>
      </trkpt>
      <trkpt lat="45.87485" lon="1.27494">
        <ele>311.7</ele>
        <time>2025-06-16T13:29:22Z</time>
      </trkpt>
      <trkpt lat="45.87482" lon="1.27494">
        <ele>311.6</ele>
        <time>2025-06-16T13:29:23Z</time>
      </trkpt>
      <trkpt lat="45.87481" lon="1.27494">
        <ele>311.6</ele>
        <time>2025-06-16T13:29:24Z</time>
      </trkpt>
      <trkpt lat="45.8748" lon="1.27495">
        <ele>311.5</ele>
        <time>2025-06-16T13:29:25Z</time>
      </trkpt>
      <trkpt lat="45.87479" lon="1.27495">
        <ele>311.4</ele>
        <time>2025-06-16T13:29:26Z</time>
      </trkpt>
      <trkpt lat="45.87478" lon="1.27496">
        <ele>311.4</ele>
        <time>2025-06-16T13:29:27Z</time>
      </trkpt>
      <trkpt lat="45.87477" lon="1.27497">
        <ele>311.3</ele>
        <time>2025-06-16T13:29:28Z</time>
      </trkpt>
      <trkpt lat="45.87473" lon="1.27496">
        <ele>311.1</ele>
        <time>2025-06-16T13:29:29Z</time>
      </trkpt>
      <trkpt lat="45.8747" lon="1.27496">
        <ele>310.9</ele>
        <time>2025-06-16T13:29:30Z</time>
      </trkpt>
      <trkpt lat="45.87467" lon="1.27498">
        <ele>310.8</ele>
        <time>2025-06-16T13:29:31Z</time>
      </trkpt>
      <trkpt lat="45.87466" lon="1.27499">
        <ele>310.7</ele>
        <time>2025-06-16T13:29:32Z</time>
      </trkpt>
      <trkpt lat="45.87465" lon="1.27499">
        <ele>310.7</ele>
        <time>2025-06-16T13:29:33Z</time>
      </trkpt>
      <trkpt lat="45.87463" lon="1.27501">
        <ele>310.7</ele>
        <time>2025-06-16T13:29:34Z</time>
      </trkpt>
      <trkpt lat="45.87463" lon="1.27507">
        <ele>310.7</ele>
        <time>2025-06-16T13:29:35Z</time>
      </trkpt>
      <trkpt lat="45.87463" lon="1.27509">
        <ele>310.7</ele>
        <time>2025-06-16T13:29:36Z</time>
      </trkpt>
      <trkpt lat="45.87464" lon="1.27513">
        <ele>310.7</ele>
        <time>2025-06-16T13:29:37Z</time>
      </trkpt>
      <trkpt lat="45.87465" lon="1.27517">
        <ele>310.7</ele>
        <time>2025-06-16T13:29:38Z</time>
      </trkpt>
      <trkpt lat="45.87467" lon="1.27521">
        <ele>310.7</ele>
        <time>2025-06-16T13:29:39Z</time>
      </trkpt>
      <trkpt lat="45.87469" lon="1.27527">
        <ele>310.8</ele>
        <time>2025-06-16T13:29:40Z</time>
      </trkpt>
      <trkpt lat="45.87471" lon="1.27532">
        <ele>310.8</ele>
        <time>2025-06-16T13:29:41Z</time>
      </trkpt>
      <trkpt lat="45.87474" lon="1.27538">
        <ele>310.9</ele>
        <time>2025-06-16T13:29:42Z</time>
      </trkpt>
      <trkpt lat="45.87475" lon="1.27542">
        <ele>310.9</ele>
        <time>2025-06-16T13:29:43Z</time>
      </trkpt>
      <trkpt lat="45.87476" lon="1.27546">
        <ele>310.9</ele>
        <time>2025-06-16T13:29:44Z</time>
      </trkpt>
      <trkpt lat="45.87478" lon="1.2755">
        <ele>310.9</ele>
        <time>2025-06-16T13:29:45Z</time>
      </trkpt>
      <trkpt lat="45.87481" lon="1.27554">
        <ele>311</ele>
        <time>2025-06-16T13:29:46Z</time>
      </trkpt>
      <trkpt lat="45.87488" lon="1.27559">
        <ele>311</ele>
        <time>2025-06-16T13:29:47Z</time>
      </trkpt>
      <trkpt lat="45.87494" lon="1.27561">
        <ele>311.1</ele>
        <time>2025-06-16T13:29:48Z</time>
      </trkpt>
      <trkpt lat="45.875" lon="1.27562">
        <ele>311.1</ele>
        <time>2025-06-16T13:29:49Z</time>
      </trkpt>
      <trkpt lat="45.87506" lon="1.27562">
        <ele>311.2</ele>
        <time>2025-06-16T13:29:50Z</time>
      </trkpt>
      <trkpt lat="45.87512" lon="1.2756">
        <ele>311.3</ele>
        <time>2025-06-16T13:29:51Z</time>
      </trkpt>
      <trkpt lat="45.87515" lon="1.27557">
        <ele>311.3</ele>
        <time>2025-06-16T13:29:52Z</time>
      </trkpt>
      <trkpt lat="45.87515" lon="1.27554">
        <ele>311.3</ele>
        <time>2025-06-16T13:29:53Z</time>
      </trkpt>
      <trkpt lat="45.87517" lon="1.27552">
        <ele>311.4</ele>
        <time>2025-06-16T13:29:54Z</time>
      </trkpt>
      <trkpt lat="45.87519" lon="1.27549">
        <ele>311.4</ele>
        <time>2025-06-16T13:29:55Z</time>
      </trkpt>
      <trkpt lat="45.8752" lon="1.27547">
        <ele>311.5</ele>
        <time>2025-06-16T13:29:56Z</time>
      </trkpt>
      <trkpt lat="45.87523" lon="1.27544">
        <ele>311.5</ele>
        <time>2025-06-16T13:29:57Z</time>
      </trkpt>
      <trkpt lat="45.87523" lon="1.27543">
        <ele>311.5</ele>
        <time>2025-06-16T13:29:58Z</time>
      </trkpt>
      <trkpt lat="45.87526" lon="1.2754">
        <ele>311.6</ele>
        <time>2025-06-16T13:29:59Z</time>
      </trkpt>
      <trkpt lat="45.87527" lon="1.27539">
        <ele>311.6</ele>
        <time>2025-06-16T13:30:00Z</time>
      </trkpt>
      <trkpt lat="45.8753" lon="1.27536">
        <ele>311.7</ele>
        <time>2025-06-16T13:30:01Z</time>
      </trkpt>
      <trkpt lat="45.87533" lon="1.27532">
        <ele>311.7</ele>
        <time>2025-06-16T13:30:02Z</time>
      </trkpt>
      <trkpt lat="45.87537" lon="1.27529">
        <ele>311.7</ele>
        <time>2025-06-16T13:30:03Z</time>
      </trkpt>
      <trkpt lat="45.8754" lon="1.27526">
        <ele>311.8</ele>
        <time>2025-06-16T13:30:04Z</time>
      </trkpt>
      <trkpt lat="45.87544" lon="1.27523">
        <ele>311.8</ele>
        <time>2025-06-16T13:30:05Z</time>
      </trkpt>
      <trkpt lat="45.87547" lon="1.2752">
        <ele>311.8</ele>
        <time>2025-06-16T13:30:06Z</time>
      </trkpt>
      <trkpt lat="45.87551" lon="1.27516">
        <ele>311.9</ele>
        <time>2025-06-16T13:30:07Z</time>
      </trkpt>
      <trkpt lat="45.87555" lon="1.27513">
        <ele>312</ele>
        <time>2025-06-16T13:30:08Z</time>
      </trkpt>
      <trkpt lat="45.87559" lon="1.27509">
        <ele>312.1</ele>
        <time>2025-06-16T13:30:09Z</time>
      </trkpt>
      <trkpt lat="45.87563" lon="1.27505">
        <ele>312.2</ele>
        <time>2025-06-16T13:30:10Z</time>
      </trkpt>
      <trkpt lat="45.87567" lon="1.27502">
        <ele>312.3</ele>
        <time>2025-06-16T13:30:11Z</time>
      </trkpt>
      <trkpt lat="45.87571" lon="1.27498">
        <ele>312.4</ele>
        <time>2025-06-16T13:30:12Z</time>
      </trkpt>
      <trkpt lat="45.87575" lon="1.27495">
        <ele>312.5</ele>
        <time>2025-06-16T13:30:13Z</time>
      </trkpt>
      <trkpt lat="45.87578" lon="1.27492">
        <ele>312.6</ele>
        <time>2025-06-16T13:30:14Z</time>
      </trkpt>
      <trkpt lat="45.87582" lon="1.27488">
        <ele>312.7</ele>
        <time>2025-06-16T13:30:15Z</time>
      </trkpt>
      <trkpt lat="45.87585" lon="1.27485">
        <ele>312.9</ele>
        <time>2025-06-16T13:30:16Z</time>
      </trkpt>
      <trkpt lat="45.87589" lon="1.27481">
        <ele>313</ele>
        <time>2025-06-16T13:30:17Z</time>
      </trkpt>
      <trkpt lat="45.87592" lon="1.27478">
        <ele>313.2</ele>
        <time>2025-06-16T13:30:18Z</time>
      </trkpt>
      <trkpt lat="45.87595" lon="1.27474">
        <ele>313.3</ele>
        <time>2025-06-16T13:30:19Z</time>
      </trkpt>
      <trkpt lat="45.87597" lon="1.27471">
        <ele>313.5</ele>
        <time>2025-06-16T13:30:20Z</time>
      </trkpt>
      <trkpt lat="45.876" lon="1.27467">
        <ele>313.6</ele>
        <time>2025-06-16T13:30:21Z</time>
      </trkpt>
      <trkpt lat="45.87601" lon="1.27467">
        <ele>313.7</ele>
        <time>2025-06-16T13:30:22Z</time>
      </trkpt>
      <trkpt lat="45.87604" lon="1.27465">
        <ele>313.9</ele>
        <time>2025-06-16T13:30:23Z</time>
      </trkpt>
      <trkpt lat="45.87606" lon="1.27465">
        <ele>313.9</ele>
        <time>2025-06-16T13:30:24Z</time>
      </trkpt>
      <trkpt lat="45.87609" lon="1.27464">
        <ele>314.1</ele>
        <time>2025-06-16T13:30:25Z</time>
      </trkpt>
      <trkpt lat="45.87611" lon="1.27463">
        <ele>314.2</ele>
        <time>2025-06-16T13:30:26Z</time>
      </trkpt>
      <trkpt lat="45.87614" lon="1.27462">
        <ele>314.3</ele>
        <time>2025-06-16T13:30:27Z</time>
      </trkpt>
      <trkpt lat="45.87616" lon="1.27461">
        <ele>314.4</ele>
        <time>2025-06-16T13:30:28Z</time>
      </trkpt>
      <trkpt lat="45.87619" lon="1.27461">
        <ele>314.5</ele>
        <time>2025-06-16T13:30:29Z</time>
      </trkpt>
      <trkpt lat="45.87624" lon="1.27461">
        <ele>314.7</ele>
        <time>2025-06-16T13:30:30Z</time>
      </trkpt>
      <trkpt lat="45.87628" lon="1.27462">
        <ele>314.7</ele>
        <time>2025-06-16T13:30:31Z</time>
      </trkpt>
      <trkpt lat="45.87633" lon="1.27463">
        <ele>314.8</ele>
        <time>2025-06-16T13:30:32Z</time>
      </trkpt>
      <trkpt lat="45.87637" lon="1.27463">
        <ele>314.8</ele>
        <time>2025-06-16T13:30:33Z</time>
      </trkpt>
      <trkpt lat="45.87641" lon="1.27464">
        <ele>314.7</ele>
        <time>2025-06-16T13:30:34Z</time>
      </trkpt>
      <trkpt lat="45.87644" lon="1.27464">
        <ele>314.7</ele>
        <time>2025-06-16T13:30:35Z</time>
      </trkpt>
      <trkpt lat="45.87648" lon="1.27465">
        <ele>314.6</ele>
        <time>2025-06-16T13:30:36Z</time>
      </trkpt>
      <trkpt lat="45.87652" lon="1.27466">
        <ele>314.5</ele>
        <time>2025-06-16T13:30:37Z</time>
      </trkpt>
      <trkpt lat="45.87656" lon="1.2747">
        <ele>314.3</ele>
        <time>2025-06-16T13:30:38Z</time>
      </trkpt>
      <trkpt lat="45.8766" lon="1.27474">
        <ele>314.1</ele>
        <time>2025-06-16T13:30:39Z</time>
      </trkpt>
      <trkpt lat="45.87665" lon="1.27478">
        <ele>313.9</ele>
        <time>2025-06-16T13:30:40Z</time>
      </trkpt>
      <trkpt lat="45.87669" lon="1.27481">
        <ele>313.8</ele>
        <time>2025-06-16T13:30:41Z</time>
      </trkpt>
      <trkpt lat="45.87673" lon="1.2748">
        <ele>313.6</ele>
        <time>2025-06-16T13:30:42Z</time>
      </trkpt>
      <trkpt lat="45.87676" lon="1.27478">
        <ele>313.5</ele>
        <time>2025-06-16T13:30:43Z</time>
      </trkpt>
      <trkpt lat="45.8768" lon="1.27478">
        <ele>313.4</ele>
        <time>2025-06-16T13:30:44Z</time>
      </trkpt>
      <trkpt lat="45.87684" lon="1.27479">
        <ele>313.4</ele>
        <time>2025-06-16T13:30:45Z</time>
      </trkpt>
      <trkpt lat="45.87689" lon="1.2748">
        <ele>313.3</ele>
        <time>2025-06-16T13:30:46Z</time>
      </trkpt>
      <trkpt lat="45.87692" lon="1.27482">
        <ele>313.3</ele>
        <time>2025-06-16T13:30:47Z</time>
      </trkpt>
      <trkpt lat="45.87696" lon="1.27484">
        <ele>313.3</ele>
        <time>2025-06-16T13:30:48Z</time>
      </trkpt>
      <trkpt lat="45.877" lon="1.27486">
        <ele>313.3</ele>
        <time>2025-06-16T13:30:49Z</time>
      </trkpt>
      <trkpt lat="45.87705" lon="1.27489">
        <ele>313.3</ele>
        <time>2025-06-16T13:30:50Z</time>
      </trkpt>
      <trkpt lat="45.87708" lon="1.27491">
        <ele>313.4</ele>
        <time>2025-06-16T13:30:51Z</time>
      </trkpt>
      <trkpt lat="45.87712" lon="1.27493">
        <ele>313.5</ele>
        <time>2025-06-16T13:30:52Z</time>
      </trkpt>
      <trkpt lat="45.87715" lon="1.27496">
        <ele>313.5</ele>
        <time>2025-06-16T13:30:53Z</time>
      </trkpt>
      <trkpt lat="45.87719" lon="1.27498">
        <ele>313.6</ele>
        <time>2025-06-16T13:30:54Z</time>
      </trkpt>
      <trkpt lat="45.87722" lon="1.275">
        <ele>313.6</ele>
        <time>2025-06-16T13:30:55Z</time>
      </trkpt>
      <trkpt lat="45.87725" lon="1.27503">
        <ele>313.7</ele>
        <time>2025-06-16T13:30:56Z</time>
      </trkpt>
      <trkpt lat="45.87728" lon="1.27505">
        <ele>313.7</ele>
        <time>2025-06-16T13:30:57Z</time>
      </trkpt>
      <trkpt lat="45.87731" lon="1.27509">
        <ele>313.8</ele>
        <time>2025-06-16T13:30:58Z</time>
      </trkpt>
      <trkpt lat="45.87734" lon="1.27512">
        <ele>313.8</ele>
        <time>2025-06-16T13:30:59Z</time>
      </trkpt>
      <trkpt lat="45.87736" lon="1.27516">
        <ele>313.9</ele>
        <time>2025-06-16T13:31:00Z</time>
      </trkpt>
      <trkpt lat="45.87739" lon="1.2752">
        <ele>313.9</ele>
        <time>2025-06-16T13:31:01Z</time>
      </trkpt>
      <trkpt lat="45.87742" lon="1.27525">
        <ele>314</ele>
        <time>2025-06-16T13:31:02Z</time>
      </trkpt>
      <trkpt lat="45.87745" lon="1.27529">
        <ele>314.1</ele>
        <time>2025-06-16T13:31:03Z</time>
      </trkpt>
      <trkpt lat="45.87746" lon="1.27533">
        <ele>314.2</ele>
        <time>2025-06-16T13:31:04Z</time>
      </trkpt>
      <trkpt lat="45.87749" lon="1.27537">
        <ele>314.3</ele>
        <time>2025-06-16T13:31:05Z</time>
      </trkpt>
      <trkpt lat="45.87751" lon="1.27541">
        <ele>314.5</ele>
        <time>2025-06-16T13:31:06Z</time>
      </trkpt>
      <trkpt lat="45.87754" lon="1.27546">
        <ele>314.6</ele>
        <time>2025-06-16T13:31:07Z</time>
      </trkpt>
      <trkpt lat="45.87756" lon="1.27549">
        <ele>314.7</ele>
        <time>2025-06-16T13:31:08Z</time>
      </trkpt>
      <trkpt lat="45.87758" lon="1.27554">
        <ele>314.8</ele>
        <time>2025-06-16T13:31:09Z</time>
      </trkpt>
      <trkpt lat="45.87759" lon="1.27555">
        <ele>314.8</ele>
        <time>2025-06-16T13:31:10Z</time>
      </trkpt>
      <trkpt lat="45.87761" lon="1.27559">
        <ele>314.9</ele>
        <time>2025-06-16T13:31:11Z</time>
      </trkpt>
      <trkpt lat="45.87761" lon="1.27561">
        <ele>314.9</ele>
        <time>2025-06-16T13:31:12Z</time>
      </trkpt>
      <trkpt lat="45.87763" lon="1.27565">
        <ele>315</ele>
        <time>2025-06-16T13:31:13Z</time>
      </trkpt>
      <trkpt lat="45.87765" lon="1.27569">
        <ele>315.1</ele>
        <time>2025-06-16T13:31:14Z</time>
      </trkpt>
      <trkpt lat="45.87767" lon="1.27574">
        <ele>315.2</ele>
        <time>2025-06-16T13:31:15Z</time>
      </trkpt>
      <trkpt lat="45.8777" lon="1.2758">
        <ele>315.3</ele>
        <time>2025-06-16T13:31:16Z</time>
      </trkpt>
      <trkpt lat="45.87773" lon="1.27587">
        <ele>315.3</ele>
        <time>2025-06-16T13:31:17Z</time>
      </trkpt>
      <trkpt lat="45.87777" lon="1.27596">
        <ele>315.4</ele>
        <time>2025-06-16T13:31:18Z</time>
      </trkpt>
      <trkpt lat="45.87782" lon="1.27605">
        <ele>315.6</ele>
        <time>2025-06-16T13:31:19Z</time>
      </trkpt>
      <trkpt lat="45.87785" lon="1.27612">
        <ele>315.9</ele>
        <time>2025-06-16T13:31:20Z</time>
      </trkpt>
      <trkpt lat="45.87788" lon="1.27616">
        <ele>316.2</ele>
        <time>2025-06-16T13:31:21Z</time>
      </trkpt>
      <trkpt lat="45.8779" lon="1.27621">
        <ele>316.4</ele>
        <time>2025-06-16T13:31:22Z</time>
      </trkpt>
      <trkpt lat="45.87791" lon="1.27625">
        <ele>316.7</ele>
        <time>2025-06-16T13:31:23Z</time>
      </trkpt>
      <trkpt lat="45.87793" lon="1.27629">
        <ele>317</ele>
        <time>2025-06-16T13:31:24Z</time>
      </trkpt>
      <trkpt lat="45.87794" lon="1.27632">
        <ele>317.2</ele>
        <time>2025-06-16T13:31:25Z</time>
      </trkpt>
      <trkpt lat="45.87797" lon="1.27638">
        <ele>317.6</ele>
        <time>2025-06-16T13:31:26Z</time>
      </trkpt>
      <trkpt lat="45.87798" lon="1.2764">
        <ele>317.7</ele>
        <time>2025-06-16T13:31:27Z</time>
      </trkpt>
      <trkpt lat="45.878" lon="1.27642">
        <ele>317.9</ele>
        <time>2025-06-16T13:31:28Z</time>
      </trkpt>
      <trkpt lat="45.87806" lon="1.27644">
        <ele>318</ele>
        <time>2025-06-16T13:31:30Z</time>
      </trkpt>
      <trkpt lat="45.87809" lon="1.27646">
        <ele>318</ele>
        <time>2025-06-16T13:31:31Z</time>
      </trkpt>
      <trkpt lat="45.8781" lon="1.2765">
        <ele>318</ele>
        <time>2025-06-16T13:31:32Z</time>
      </trkpt>
      <trkpt lat="45.8781" lon="1.27655">
        <ele>318</ele>
        <time>2025-06-16T13:31:33Z</time>
      </trkpt>
      <trkpt lat="45.87808" lon="1.2766">
        <ele>317.9</ele>
        <time>2025-06-16T13:31:34Z</time>
      </trkpt>
      <trkpt lat="45.87809" lon="1.27664">
        <ele>317.9</ele>
        <time>2025-06-16T13:31:35Z</time>
      </trkpt>
      <trkpt lat="45.87811" lon="1.27669">
        <ele>317.8</ele>
        <time>2025-06-16T13:31:36Z</time>
      </trkpt>
      <trkpt lat="45.87814" lon="1.27671">
        <ele>317.6</ele>
        <time>2025-06-16T13:31:37Z</time>
      </trkpt>
      <trkpt lat="45.87817" lon="1.27673">
        <ele>317.4</ele>
        <time>2025-06-16T13:31:38Z</time>
      </trkpt>
      <trkpt lat="45.8782" lon="1.27675">
        <ele>317.2</ele>
        <time>2025-06-16T13:31:39Z</time>
      </trkpt>
      <trkpt lat="45.87824" lon="1.27678">
        <ele>316.9</ele>
        <time>2025-06-16T13:31:40Z</time>
      </trkpt>
      <trkpt lat="45.87827" lon="1.27679">
        <ele>316.6</ele>
        <time>2025-06-16T13:31:41Z</time>
      </trkpt>
      <trkpt lat="45.8783" lon="1.27681">
        <ele>316.2</ele>
        <time>2025-06-16T13:31:42Z</time>
      </trkpt>
      <trkpt lat="45.87832" lon="1.27684">
        <ele>315.9</ele>
        <time>2025-06-16T13:31:43Z</time>
      </trkpt>
      <trkpt lat="45.87837" lon="1.27694">
        <ele>315.1</ele>
        <time>2025-06-16T13:31:44Z</time>
      </trkpt>
      <trkpt lat="45.87841" lon="1.27702">
        <ele>314.6</ele>
        <time>2025-06-16T13:31:45Z</time>
      </trkpt>
      <trkpt lat="45.87847" lon="1.2771">
        <ele>314.4</ele>
        <time>2025-06-16T13:31:46Z</time>
      </trkpt>
      <trkpt lat="45.87852" lon="1.27719">
        <ele>314.3</ele>
        <time>2025-06-16T13:31:47Z</time>
      </trkpt>
      <trkpt lat="45.87854" lon="1.27725">
        <ele>314.3</ele>
        <time>2025-06-16T13:31:48Z</time>
      </trkpt>
      <trkpt lat="45.87855" lon="1.27732">
        <ele>314.4</ele>
        <time>2025-06-16T13:31:49Z</time>
      </trkpt>
      <trkpt lat="45.87857" lon="1.2774">
        <ele>314.5</ele>
        <time>2025-06-16T13:31:50Z</time>
      </trkpt>
      <trkpt lat="45.8786" lon="1.27748">
        <ele>314.6</ele>
        <time>2025-06-16T13:31:51Z</time>
      </trkpt>
      <trkpt lat="45.87861" lon="1.27755">
        <ele>314.7</ele>
        <time>2025-06-16T13:31:52Z</time>
      </trkpt>
      <trkpt lat="45.87863" lon="1.27761">
        <ele>314.8</ele>
        <time>2025-06-16T13:31:53Z</time>
      </trkpt>
      <trkpt lat="45.87867" lon="1.27766">
        <ele>314.9</ele>
        <time>2025-06-16T13:31:54Z</time>
      </trkpt>
      <trkpt lat="45.87869" lon="1.27769">
        <ele>314.9</ele>
        <time>2025-06-16T13:31:55Z</time>
      </trkpt>
      <trkpt lat="45.87872" lon="1.27773">
        <ele>314.9</ele>
        <time>2025-06-16T13:31:56Z</time>
      </trkpt>
      <trkpt lat="45.87877" lon="1.27775">
        <ele>314.9</ele>
        <time>2025-06-16T13:31:57Z</time>
      </trkpt>
      <trkpt lat="45.87878" lon="1.27776">
        <ele>314.9</ele>
        <time>2025-06-16T13:31:58Z</time>
      </trkpt>
      <trkpt lat="45.87882" lon="1.27778">
        <ele>314.8</ele>
        <time>2025-06-16T13:31:59Z</time>
      </trkpt>
      <trkpt lat="45.87886" lon="1.27781">
        <ele>314.8</ele>
        <time>2025-06-16T13:32:00Z</time>
      </trkpt>
      <trkpt lat="45.8789" lon="1.27783">
        <ele>314.8</ele>
        <time>2025-06-16T13:32:01Z</time>
      </trkpt>
      <trkpt lat="45.87895" lon="1.27784">
        <ele>314.8</ele>
        <time>2025-06-16T13:32:02Z</time>
      </trkpt>
      <trkpt lat="45.879" lon="1.27785">
        <ele>314.9</ele>
        <time>2025-06-16T13:32:03Z</time>
      </trkpt>
      <trkpt lat="45.87905" lon="1.27787">
        <ele>314.9</ele>
        <time>2025-06-16T13:32:04Z</time>
      </trkpt>
      <trkpt lat="45.87912" lon="1.2779">
        <ele>315</ele>
        <time>2025-06-16T13:32:05Z</time>
      </trkpt>
      <trkpt lat="45.87918" lon="1.27792">
        <ele>315</ele>
        <time>2025-06-16T13:32:06Z</time>
      </trkpt>
      <trkpt lat="45.87924" lon="1.27795">
        <ele>315</ele>
        <time>2025-06-16T13:32:07Z</time>
      </trkpt>
      <trkpt lat="45.87929" lon="1.27798">
        <ele>315.1</ele>
        <time>2025-06-16T13:32:08Z</time>
      </trkpt>
      <trkpt lat="45.87934" lon="1.27802">
        <ele>315.1</ele>
        <time>2025-06-16T13:32:09Z</time>
      </trkpt>
      <trkpt lat="45.87938" lon="1.27804">
        <ele>315.1</ele>
        <time>2025-06-16T13:32:10Z</time>
      </trkpt>
      <trkpt lat="45.87941" lon="1.27806">
        <ele>315.1</ele>
        <time>2025-06-16T13:32:11Z</time>
      </trkpt>
      <trkpt lat="45.87944" lon="1.27806">
        <ele>315.1</ele>
        <time>2025-06-16T13:32:12Z</time>
      </trkpt>
      <trkpt lat="45.87949" lon="1.27807">
        <ele>315.2</ele>
        <time>2025-06-16T13:32:13Z</time>
      </trkpt>
      <trkpt lat="45.87953" lon="1.27807">
        <ele>315.2</ele>
        <time>2025-06-16T13:32:14Z</time>
      </trkpt>
      <trkpt lat="45.87958" lon="1.27808">
        <ele>315.3</ele>
        <time>2025-06-16T13:32:15Z</time>
      </trkpt>
      <trkpt lat="45.87962" lon="1.27808">
        <ele>315.3</ele>
        <time>2025-06-16T13:32:16Z</time>
      </trkpt>
      <trkpt lat="45.87966" lon="1.27809">
        <ele>315.4</ele>
        <time>2025-06-16T13:32:17Z</time>
      </trkpt>
      <trkpt lat="45.8797" lon="1.27811">
        <ele>315.5</ele>
        <time>2025-06-16T13:32:18Z</time>
      </trkpt>
      <trkpt lat="45.87974" lon="1.27813">
        <ele>315.5</ele>
        <time>2025-06-16T13:32:19Z</time>
      </trkpt>
      <trkpt lat="45.87978" lon="1.27815">
        <ele>315.6</ele>
        <time>2025-06-16T13:32:20Z</time>
      </trkpt>
      <trkpt lat="45.87983" lon="1.27817">
        <ele>315.7</ele>
        <time>2025-06-16T13:32:21Z</time>
      </trkpt>
      <trkpt lat="45.87988" lon="1.2782">
        <ele>315.7</ele>
        <time>2025-06-16T13:32:22Z</time>
      </trkpt>
      <trkpt lat="45.87995" lon="1.27824">
        <ele>315.7</ele>
        <time>2025-06-16T13:32:23Z</time>
      </trkpt>
      <trkpt lat="45.88001" lon="1.27827">
        <ele>315.7</ele>
        <time>2025-06-16T13:32:24Z</time>
      </trkpt>
      <trkpt lat="45.88006" lon="1.2783">
        <ele>315.6</ele>
        <time>2025-06-16T13:32:25Z</time>
      </trkpt>
      <trkpt lat="45.8801" lon="1.27833">
        <ele>315.6</ele>
        <time>2025-06-16T13:32:26Z</time>
      </trkpt>
      <trkpt lat="45.88015" lon="1.27837">
        <ele>315.6</ele>
        <time>2025-06-16T13:32:27Z</time>
      </trkpt>
      <trkpt lat="45.88019" lon="1.27841">
        <ele>315.6</ele>
        <time>2025-06-16T13:32:28Z</time>
      </trkpt>
      <trkpt lat="45.88023" lon="1.27845">
        <ele>315.6</ele>
        <time>2025-06-16T13:32:29Z</time>
      </trkpt>
      <trkpt lat="45.88027" lon="1.27848">
        <ele>315.6</ele>
        <time>2025-06-16T13:32:30Z</time>
      </trkpt>
      <trkpt lat="45.8803" lon="1.27852">
        <ele>315.6</ele>
        <time>2025-06-16T13:32:31Z</time>
      </trkpt>
      <trkpt lat="45.88033" lon="1.27856">
        <ele>315.7</ele>
        <time>2025-06-16T13:32:32Z</time>
      </trkpt>
      <trkpt lat="45.88037" lon="1.2786">
        <ele>315.7</ele>
        <time>2025-06-16T13:32:33Z</time>
      </trkpt>
      <trkpt lat="45.88041" lon="1.27865">
        <ele>315.8</ele>
        <time>2025-06-16T13:32:34Z</time>
      </trkpt>
      <trkpt lat="45.88045" lon="1.27869">
        <ele>315.8</ele>
        <time>2025-06-16T13:32:35Z</time>
      </trkpt>
      <trkpt lat="45.88049" lon="1.27873">
        <ele>315.9</ele>
        <time>2025-06-16T13:32:36Z</time>
      </trkpt>
      <trkpt lat="45.88053" lon="1.27877">
        <ele>316</ele>
        <time>2025-06-16T13:32:37Z</time>
      </trkpt>
      <trkpt lat="45.88056" lon="1.27883">
        <ele>316</ele>
        <time>2025-06-16T13:32:38Z</time>
      </trkpt>
      <trkpt lat="45.88057" lon="1.2789">
        <ele>316</ele>
        <time>2025-06-16T13:32:39Z</time>
      </trkpt>
      <trkpt lat="45.88058" lon="1.27897">
        <ele>316</ele>
        <time>2025-06-16T13:32:40Z</time>
      </trkpt>
      <trkpt lat="45.88061" lon="1.27903">
        <ele>316</ele>
        <time>2025-06-16T13:32:41Z</time>
      </trkpt>
      <trkpt lat="45.88063" lon="1.27908">
        <ele>316</ele>
        <time>2025-06-16T13:32:42Z</time>
      </trkpt>
      <trkpt lat="45.88067" lon="1.2791">
        <ele>316</ele>
        <time>2025-06-16T13:32:43Z</time>
      </trkpt>
      <trkpt lat="45.88071" lon="1.27912">
        <ele>316</ele>
        <time>2025-06-16T13:32:44Z</time>
      </trkpt>
      <trkpt lat="45.88074" lon="1.27913">
        <ele>316</ele>
        <time>2025-06-16T13:32:45Z</time>
      </trkpt>
      <trkpt lat="45.88079" lon="1.27914">
        <ele>316</ele>
        <time>2025-06-16T13:32:46Z</time>
      </trkpt>
      <trkpt lat="45.88082" lon="1.27917">
        <ele>316.1</ele>
        <time>2025-06-16T13:32:47Z</time>
      </trkpt>
      <trkpt lat="45.88085" lon="1.27921">
        <ele>316</ele>
        <time>2025-06-16T13:32:48Z</time>
      </trkpt>
      <trkpt lat="45.88088" lon="1.27926">
        <ele>316</ele>
        <time>2025-06-16T13:32:49Z</time>
      </trkpt>
      <trkpt lat="45.8809" lon="1.27929">
        <ele>316</ele>
        <time>2025-06-16T13:32:50Z</time>
      </trkpt>
      <trkpt lat="45.88093" lon="1.27933">
        <ele>316</ele>
        <time>2025-06-16T13:32:51Z</time>
      </trkpt>
      <trkpt lat="45.88096" lon="1.27938">
        <ele>316</ele>
        <time>2025-06-16T13:32:52Z</time>
      </trkpt>
      <trkpt lat="45.88099" lon="1.27943">
        <ele>316.1</ele>
        <time>2025-06-16T13:32:53Z</time>
      </trkpt>
      <trkpt lat="45.88101" lon="1.27949">
        <ele>316.1</ele>
        <time>2025-06-16T13:32:54Z</time>
      </trkpt>
      <trkpt lat="45.88103" lon="1.27954">
        <ele>316.1</ele>
        <time>2025-06-16T13:32:55Z</time>
      </trkpt>
      <trkpt lat="45.88105" lon="1.27959">
        <ele>316.1</ele>
        <time>2025-06-16T13:32:56Z</time>
      </trkpt>
      <trkpt lat="45.88106" lon="1.27964">
        <ele>316.1</ele>
        <time>2025-06-16T13:32:57Z</time>
      </trkpt>
      <trkpt lat="45.88107" lon="1.27968">
        <ele>316.2</ele>
        <time>2025-06-16T13:32:58Z</time>
      </trkpt>
      <trkpt lat="45.88108" lon="1.27973">
        <ele>316.2</ele>
        <time>2025-06-16T13:32:59Z</time>
      </trkpt>
      <trkpt lat="45.88109" lon="1.27977">
        <ele>316.2</ele>
        <time>2025-06-16T13:33:00Z</time>
      </trkpt>
      <trkpt lat="45.8811" lon="1.27982">
        <ele>316.2</ele>
        <time>2025-06-16T13:33:01Z</time>
      </trkpt>
      <trkpt lat="45.88112" lon="1.27987">
        <ele>316.2</ele>
        <time>2025-06-16T13:33:02Z</time>
      </trkpt>
      <trkpt lat="45.88113" lon="1.27993">
        <ele>316.2</ele>
        <time>2025-06-16T13:33:03Z</time>
      </trkpt>
      <trkpt lat="45.88114" lon="1.27998">
        <ele>316.2</ele>
        <time>2025-06-16T13:33:04Z</time>
      </trkpt>
      <trkpt lat="45.88115" lon="1.28003">
        <ele>316.2</ele>
        <time>2025-06-16T13:33:05Z</time>
      </trkpt>
      <trkpt lat="45.88116" lon="1.28009">
        <ele>316.2</ele>
        <time>2025-06-16T13:33:06Z</time>
      </trkpt>
      <trkpt lat="45.88117" lon="1.28015">
        <ele>316.2</ele>
        <time>2025-06-16T13:33:07Z</time>
      </trkpt>
      <trkpt lat="45.88119" lon="1.2802">
        <ele>316.2</ele>
        <time>2025-06-16T13:33:08Z</time>
      </trkpt>
      <trkpt lat="45.88121" lon="1.28025">
        <ele>316.2</ele>
        <time>2025-06-16T13:33:09Z</time>
      </trkpt>
      <trkpt lat="45.88124" lon="1.2803">
        <ele>316.2</ele>
        <time>2025-06-16T13:33:10Z</time>
      </trkpt>
      <trkpt lat="45.88127" lon="1.28035">
        <ele>316.2</ele>
        <time>2025-06-16T13:33:11Z</time>
      </trkpt>
      <trkpt lat="45.88129" lon="1.28039">
        <ele>316.2</ele>
        <time>2025-06-16T13:33:12Z</time>
      </trkpt>
      <trkpt lat="45.88132" lon="1.28043">
        <ele>316.2</ele>
        <time>2025-06-16T13:33:13Z</time>
      </trkpt>
      <trkpt lat="45.88134" lon="1.28048">
        <ele>316.2</ele>
        <time>2025-06-16T13:33:14Z</time>
      </trkpt>
      <trkpt lat="45.88136" lon="1.28053">
        <ele>316.2</ele>
        <time>2025-06-16T13:33:15Z</time>
      </trkpt>
      <trkpt lat="45.88137" lon="1.28057">
        <ele>316.2</ele>
        <time>2025-06-16T13:33:16Z</time>
      </trkpt>
      <trkpt lat="45.88139" lon="1.28061">
        <ele>316.2</ele>
        <time>2025-06-16T13:33:17Z</time>
      </trkpt>
      <trkpt lat="45.8814" lon="1.28066">
        <ele>316.2</ele>
        <time>2025-06-16T13:33:18Z</time>
      </trkpt>
      <trkpt lat="45.88142" lon="1.28071">
        <ele>316.2</ele>
        <time>2025-06-16T13:33:19Z</time>
      </trkpt>
      <trkpt lat="45.88144" lon="1.28075">
        <ele>316.2</ele>
        <time>2025-06-16T13:33:20Z</time>
      </trkpt>
      <trkpt lat="45.88146" lon="1.28079">
        <ele>316.2</ele>
        <time>2025-06-16T13:33:21Z</time>
      </trkpt>
      <trkpt lat="45.88149" lon="1.28083">
        <ele>316.2</ele>
        <time>2025-06-16T13:33:22Z</time>
      </trkpt>
      <trkpt lat="45.88153" lon="1.28087">
        <ele>316.2</ele>
        <time>2025-06-16T13:33:23Z</time>
      </trkpt>
      <trkpt lat="45.88157" lon="1.28092">
        <ele>316.2</ele>
        <time>2025-06-16T13:33:24Z</time>
      </trkpt>
      <trkpt lat="45.8816" lon="1.28096">
        <ele>316.2</ele>
        <time>2025-06-16T13:33:25Z</time>
      </trkpt>
      <trkpt lat="45.88164" lon="1.28101">
        <ele>316.2</ele>
        <time>2025-06-16T13:33:26Z</time>
      </trkpt>
      <trkpt lat="45.88167" lon="1.28106">
        <ele>316.2</ele>
        <time>2025-06-16T13:33:27Z</time>
      </trkpt>
      <trkpt lat="45.8817" lon="1.28111">
        <ele>316.2</ele>
        <time>2025-06-16T13:33:28Z</time>
      </trkpt>
      <trkpt lat="45.88173" lon="1.28116">
        <ele>316.2</ele>
        <time>2025-06-16T13:33:29Z</time>
      </trkpt>
      <trkpt lat="45.88176" lon="1.2812">
        <ele>316.3</ele>
        <time>2025-06-16T13:33:30Z</time>
      </trkpt>
      <trkpt lat="45.88178" lon="1.28124">
        <ele>316.3</ele>
        <time>2025-06-16T13:33:31Z</time>
      </trkpt>
      <trkpt lat="45.8818" lon="1.28128">
        <ele>316.3</ele>
        <time>2025-06-16T13:33:32Z</time>
      </trkpt>
      <trkpt lat="45.88181" lon="1.28131">
        <ele>316.3</ele>
        <time>2025-06-16T13:33:33Z</time>
      </trkpt>
      <trkpt lat="45.88183" lon="1.28135">
        <ele>316.4</ele>
        <time>2025-06-16T13:33:34Z</time>
      </trkpt>
      <trkpt lat="45.88185" lon="1.28139">
        <ele>316.4</ele>
        <time>2025-06-16T13:33:35Z</time>
      </trkpt>
      <trkpt lat="45.88188" lon="1.28143">
        <ele>316.4</ele>
        <time>2025-06-16T13:33:36Z</time>
      </trkpt>
      <trkpt lat="45.88191" lon="1.28147">
        <ele>316.4</ele>
        <time>2025-06-16T13:33:37Z</time>
      </trkpt>
      <trkpt lat="45.88193" lon="1.28149">
        <ele>316.5</ele>
        <time>2025-06-16T13:33:38Z</time>
      </trkpt>
      <trkpt lat="45.88196" lon="1.2815">
        <ele>316.5</ele>
        <time>2025-06-16T13:33:39Z</time>
      </trkpt>
      <trkpt lat="45.882" lon="1.28151">
        <ele>316.5</ele>
        <time>2025-06-16T13:33:40Z</time>
      </trkpt>
      <trkpt lat="45.88204" lon="1.28153">
        <ele>316.5</ele>
        <time>2025-06-16T13:33:41Z</time>
      </trkpt>
      <trkpt lat="45.88208" lon="1.28154">
        <ele>316.5</ele>
        <time>2025-06-16T13:33:42Z</time>
      </trkpt>
      <trkpt lat="45.88212" lon="1.28155">
        <ele>316.6</ele>
        <time>2025-06-16T13:33:43Z</time>
      </trkpt>
      <trkpt lat="45.88216" lon="1.28157">
        <ele>316.6</ele>
        <time>2025-06-16T13:33:44Z</time>
      </trkpt>
      <trkpt lat="45.8822" lon="1.28159">
        <ele>316.6</ele>
        <time>2025-06-16T13:33:45Z</time>
      </trkpt>
      <trkpt lat="45.88224" lon="1.28162">
        <ele>316.6</ele>
        <time>2025-06-16T13:33:46Z</time>
      </trkpt>
      <trkpt lat="45.88229" lon="1.28166">
        <ele>316.6</ele>
        <time>2025-06-16T13:33:47Z</time>
      </trkpt>
      <trkpt lat="45.88233" lon="1.28169">
        <ele>316.6</ele>
        <time>2025-06-16T13:33:48Z</time>
      </trkpt>
      <trkpt lat="45.88236" lon="1.28171">
        <ele>316.6</ele>
        <time>2025-06-16T13:33:49Z</time>
      </trkpt>
      <trkpt lat="45.88239" lon="1.28173">
        <ele>316.6</ele>
        <time>2025-06-16T13:33:50Z</time>
      </trkpt>
      <trkpt lat="45.88242" lon="1.28174">
        <ele>316.6</ele>
        <time>2025-06-16T13:33:51Z</time>
      </trkpt>
      <trkpt lat="45.88245" lon="1.28174">
        <ele>316.6</ele>
        <time>2025-06-16T13:33:52Z</time>
      </trkpt>
      <trkpt lat="45.88248" lon="1.28174">
        <ele>316.6</ele>
        <time>2025-06-16T13:33:53Z</time>
      </trkpt>
      <trkpt lat="45.88252" lon="1.28173">
        <ele>316.6</ele>
        <time>2025-06-16T13:33:54Z</time>
      </trkpt>
      <trkpt lat="45.88256" lon="1.28174">
        <ele>316.6</ele>
        <time>2025-06-16T13:33:55Z</time>
      </trkpt>
      <trkpt lat="45.8826" lon="1.28174">
        <ele>316.6</ele>
        <time>2025-06-16T13:33:56Z</time>
      </trkpt>
      <trkpt lat="45.88265" lon="1.28176">
        <ele>316.6</ele>
        <time>2025-06-16T13:33:57Z</time>
      </trkpt>
      <trkpt lat="45.8827" lon="1.28179">
        <ele>316.7</ele>
        <time>2025-06-16T13:33:58Z</time>
      </trkpt>
      <trkpt lat="45.88274" lon="1.28184">
        <ele>316.7</ele>
        <time>2025-06-16T13:33:59Z</time>
      </trkpt>
      <trkpt lat="45.88279" lon="1.28189">
        <ele>316.7</ele>
        <time>2025-06-16T13:34:00Z</time>
      </trkpt>
      <trkpt lat="45.88282" lon="1.28194">
        <ele>316.7</ele>
        <time>2025-06-16T13:34:01Z</time>
      </trkpt>
      <trkpt lat="45.88284" lon="1.28198">
        <ele>316.7</ele>
        <time>2025-06-16T13:34:02Z</time>
      </trkpt>
      <trkpt lat="45.88286" lon="1.28203">
        <ele>316.7</ele>
        <time>2025-06-16T13:34:03Z</time>
      </trkpt>
      <trkpt lat="45.88288" lon="1.28208">
        <ele>316.7</ele>
        <time>2025-06-16T13:34:04Z</time>
      </trkpt>
      <trkpt lat="45.88289" lon="1.28214">
        <ele>316.8</ele>
        <time>2025-06-16T13:34:05Z</time>
      </trkpt>
      <trkpt lat="45.88291" lon="1.28219">
        <ele>316.8</ele>
        <time>2025-06-16T13:34:06Z</time>
      </trkpt>
      <trkpt lat="45.88293" lon="1.28222">
        <ele>316.8</ele>
        <time>2025-06-16T13:34:07Z</time>
      </trkpt>
      <trkpt lat="45.88296" lon="1.28225">
        <ele>316.8</ele>
        <time>2025-06-16T13:34:08Z</time>
      </trkpt>
      <trkpt lat="45.883" lon="1.28229">
        <ele>316.8</ele>
        <time>2025-06-16T13:34:09Z</time>
      </trkpt>
      <trkpt lat="45.88304" lon="1.28232">
        <ele>316.9</ele>
        <time>2025-06-16T13:34:10Z</time>
      </trkpt>
      <trkpt lat="45.88308" lon="1.28236">
        <ele>316.9</ele>
        <time>2025-06-16T13:34:11Z</time>
      </trkpt>
      <trkpt lat="45.88313" lon="1.2824">
        <ele>316.9</ele>
        <time>2025-06-16T13:34:12Z</time>
      </trkpt>
      <trkpt lat="45.88317" lon="1.28245">
        <ele>317</ele>
        <time>2025-06-16T13:34:13Z</time>
      </trkpt>
      <trkpt lat="45.8832" lon="1.2825">
        <ele>317</ele>
        <time>2025-06-16T13:34:14Z</time>
      </trkpt>
      <trkpt lat="45.88323" lon="1.28256">
        <ele>317</ele>
        <time>2025-06-16T13:34:15Z</time>
      </trkpt>
      <trkpt lat="45.88326" lon="1.28261">
        <ele>317</ele>
        <time>2025-06-16T13:34:16Z</time>
      </trkpt>
      <trkpt lat="45.88329" lon="1.28266">
        <ele>317</ele>
        <time>2025-06-16T13:34:17Z</time>
      </trkpt>
      <trkpt lat="45.88332" lon="1.28272">
        <ele>317.1</ele>
        <time>2025-06-16T13:34:18Z</time>
      </trkpt>
      <trkpt lat="45.88335" lon="1.28277">
        <ele>317.1</ele>
        <time>2025-06-16T13:34:19Z</time>
      </trkpt>
      <trkpt lat="45.88339" lon="1.28281">
        <ele>317.1</ele>
        <time>2025-06-16T13:34:20Z</time>
      </trkpt>
      <trkpt lat="45.88342" lon="1.28286">
        <ele>317.2</ele>
        <time>2025-06-16T13:34:21Z</time>
      </trkpt>
      <trkpt lat="45.88344" lon="1.28291">
        <ele>317.2</ele>
        <time>2025-06-16T13:34:22Z</time>
      </trkpt>
      <trkpt lat="45.88347" lon="1.28295">
        <ele>317.2</ele>
        <time>2025-06-16T13:34:23Z</time>
      </trkpt>
      <trkpt lat="45.88349" lon="1.28297">
        <ele>317.3</ele>
        <time>2025-06-16T13:34:24Z</time>
      </trkpt>
      <trkpt lat="45.88353" lon="1.28296">
        <ele>317.3</ele>
        <time>2025-06-16T13:34:25Z</time>
      </trkpt>
      <trkpt lat="45.88354" lon="1.28295">
        <ele>317.3</ele>
        <time>2025-06-16T13:34:26Z</time>
      </trkpt>
      <trkpt lat="45.88356" lon="1.28292">
        <ele>317.3</ele>
        <time>2025-06-16T13:34:27Z</time>
      </trkpt>
      <trkpt lat="45.88359" lon="1.28287">
        <ele>317.3</ele>
        <time>2025-06-16T13:34:28Z</time>
      </trkpt>
      <trkpt lat="45.88362" lon="1.28284">
        <ele>317.3</ele>
        <time>2025-06-16T13:34:29Z</time>
      </trkpt>
      <trkpt lat="45.88364" lon="1.2828">
        <ele>317.3</ele>
        <time>2025-06-16T13:34:30Z</time>
      </trkpt>
      <trkpt lat="45.88366" lon="1.28277">
        <ele>317.3</ele>
        <time>2025-06-16T13:34:31Z</time>
      </trkpt>
      <trkpt lat="45.88369" lon="1.28275">
        <ele>317.3</ele>
        <time>2025-06-16T13:34:32Z</time>
      </trkpt>
      <trkpt lat="45.88372" lon="1.28273">
        <ele>317.3</ele>
        <time>2025-06-16T13:34:33Z</time>
      </trkpt>
      <trkpt lat="45.88374" lon="1.2827">
        <ele>317.3</ele>
        <time>2025-06-16T13:34:34Z</time>
      </trkpt>
      <trkpt lat="45.88377" lon="1.28267">
        <ele>317.3</ele>
        <time>2025-06-16T13:34:35Z</time>
      </trkpt>
      <trkpt lat="45.88381" lon="1.28263">
        <ele>317.3</ele>
        <time>2025-06-16T13:34:36Z</time>
      </trkpt>
      <trkpt lat="45.88384" lon="1.28259">
        <ele>317.4</ele>
        <time>2025-06-16T13:34:37Z</time>
      </trkpt>
      <trkpt lat="45.88388" lon="1.28256">
        <ele>317.4</ele>
        <time>2025-06-16T13:34:38Z</time>
      </trkpt>
      <trkpt lat="45.8839" lon="1.28252">
        <ele>317.4</ele>
        <time>2025-06-16T13:34:39Z</time>
      </trkpt>
      <trkpt lat="45.88392" lon="1.28249">
        <ele>317.5</ele>
        <time>2025-06-16T13:34:40Z</time>
      </trkpt>
      <trkpt lat="45.88395" lon="1.28245">
        <ele>317.5</ele>
        <time>2025-06-16T13:34:41Z</time>
      </trkpt>
      <trkpt lat="45.88395" lon="1.28244">
        <ele>317.5</ele>
        <time>2025-06-16T13:34:42Z</time>
      </trkpt>
      <trkpt lat="45.88398" lon="1.28242">
        <ele>317.6</ele>
        <time>2025-06-16T13:34:43Z</time>
      </trkpt>
      <trkpt lat="45.88399" lon="1.28241">
        <ele>317.6</ele>
        <time>2025-06-16T13:34:44Z</time>
      </trkpt>
      <trkpt lat="45.88401" lon="1.2824">
        <ele>317.6</ele>
        <time>2025-06-16T13:34:45Z</time>
      </trkpt>
      <trkpt lat="45.88402" lon="1.28239">
        <ele>317.6</ele>
        <time>2025-06-16T13:34:46Z</time>
      </trkpt>
      <trkpt lat="45.88404" lon="1.28238">
        <ele>317.7</ele>
        <time>2025-06-16T13:34:47Z</time>
      </trkpt>
      <trkpt lat="45.88406" lon="1.28237">
        <ele>317.7</ele>
        <time>2025-06-16T13:34:48Z</time>
      </trkpt>
      <trkpt lat="45.88407" lon="1.28237">
        <ele>317.8</ele>
        <time>2025-06-16T13:34:49Z</time>
      </trkpt>
      <trkpt lat="45.8841" lon="1.28235">
        <ele>317.8</ele>
        <time>2025-06-16T13:34:50Z</time>
      </trkpt>
      <trkpt lat="45.88413" lon="1.28232">
        <ele>317.9</ele>
        <time>2025-06-16T13:34:51Z</time>
      </trkpt>
      <trkpt lat="45.88416" lon="1.28228">
        <ele>318.1</ele>
        <time>2025-06-16T13:34:52Z</time>
      </trkpt>
      <trkpt lat="45.8842" lon="1.28227">
        <ele>318.2</ele>
        <time>2025-06-16T13:34:53Z</time>
      </trkpt>
      <trkpt lat="45.88423" lon="1.28229">
        <ele>318.3</ele>
        <time>2025-06-16T13:34:54Z</time>
      </trkpt>
      <trkpt lat="45.88426" lon="1.28231">
        <ele>318.5</ele>
        <time>2025-06-16T13:34:55Z</time>
      </trkpt>
      <trkpt lat="45.88429" lon="1.28234">
        <ele>318.6</ele>
        <time>2025-06-16T13:34:56Z</time>
      </trkpt>
      <trkpt lat="45.88433" lon="1.28237">
        <ele>318.8</ele>
        <time>2025-06-16T13:34:57Z</time>
      </trkpt>
      <trkpt lat="45.88435" lon="1.28239">
        <ele>318.8</ele>
        <time>2025-06-16T13:34:58Z</time>
      </trkpt>
      <trkpt lat="45.88437" lon="1.28239">
        <ele>318.9</ele>
        <time>2025-06-16T13:34:59Z</time>
      </trkpt>
      <trkpt lat="45.88438" lon="1.2824">
        <ele>318.9</ele>
        <time>2025-06-16T13:35:00Z</time>
      </trkpt>
      <trkpt lat="45.88441" lon="1.28241">
        <ele>319</ele>
        <time>2025-06-16T13:35:01Z</time>
      </trkpt>
      <trkpt lat="45.88445" lon="1.28243">
        <ele>318.9</ele>
        <time>2025-06-16T13:35:02Z</time>
      </trkpt>
      <trkpt lat="45.88447" lon="1.28246">
        <ele>318.9</ele>
        <time>2025-06-16T13:35:03Z</time>
      </trkpt>
      <trkpt lat="45.88449" lon="1.28249">
        <ele>318.9</ele>
        <time>2025-06-16T13:35:04Z</time>
      </trkpt>
      <trkpt lat="45.88451" lon="1.28252">
        <ele>318.8</ele>
        <time>2025-06-16T13:35:05Z</time>
      </trkpt>
      <trkpt lat="45.88453" lon="1.28256">
        <ele>318.8</ele>
        <time>2025-06-16T13:35:06Z</time>
      </trkpt>
      <trkpt lat="45.88456" lon="1.28261">
        <ele>318.7</ele>
        <time>2025-06-16T13:35:07Z</time>
      </trkpt>
      <trkpt lat="45.88458" lon="1.28266">
        <ele>318.7</ele>
        <time>2025-06-16T13:35:08Z</time>
      </trkpt>
      <trkpt lat="45.88461" lon="1.2827">
        <ele>318.6</ele>
        <time>2025-06-16T13:35:09Z</time>
      </trkpt>
      <trkpt lat="45.88463" lon="1.28275">
        <ele>318.6</ele>
        <time>2025-06-16T13:35:10Z</time>
      </trkpt>
      <trkpt lat="45.88466" lon="1.28279">
        <ele>318.6</ele>
        <time>2025-06-16T13:35:11Z</time>
      </trkpt>
      <trkpt lat="45.88469" lon="1.28283">
        <ele>318.6</ele>
        <time>2025-06-16T13:35:12Z</time>
      </trkpt>
      <trkpt lat="45.88471" lon="1.28287">
        <ele>318.6</ele>
        <time>2025-06-16T13:35:13Z</time>
      </trkpt>
      <trkpt lat="45.88473" lon="1.2829">
        <ele>318.6</ele>
        <time>2025-06-16T13:35:14Z</time>
      </trkpt>
      <trkpt lat="45.88476" lon="1.28294">
        <ele>318.6</ele>
        <time>2025-06-16T13:35:15Z</time>
      </trkpt>
      <trkpt lat="45.88478" lon="1.28298">
        <ele>318.6</ele>
        <time>2025-06-16T13:35:16Z</time>
      </trkpt>
      <trkpt lat="45.88481" lon="1.28301">
        <ele>318.6</ele>
        <time>2025-06-16T13:35:17Z</time>
      </trkpt>
      <trkpt lat="45.88484" lon="1.28305">
        <ele>318.6</ele>
        <time>2025-06-16T13:35:18Z</time>
      </trkpt>
      <trkpt lat="45.88487" lon="1.28308">
        <ele>318.6</ele>
        <time>2025-06-16T13:35:19Z</time>
      </trkpt>
      <trkpt lat="45.88489" lon="1.28311">
        <ele>318.6</ele>
        <time>2025-06-16T13:35:20Z</time>
      </trkpt>
      <trkpt lat="45.88491" lon="1.28313">
        <ele>318.6</ele>
        <time>2025-06-16T13:35:21Z</time>
      </trkpt>
      <trkpt lat="45.88493" lon="1.28317">
        <ele>318.6</ele>
        <time>2025-06-16T13:35:22Z</time>
      </trkpt>
      <trkpt lat="45.88495" lon="1.2832">
        <ele>318.6</ele>
        <time>2025-06-16T13:35:23Z</time>
      </trkpt>
      <trkpt lat="45.88497" lon="1.28323">
        <ele>318.6</ele>
        <time>2025-06-16T13:35:24Z</time>
      </trkpt>
      <trkpt lat="45.88499" lon="1.28326">
        <ele>318.6</ele>
        <time>2025-06-16T13:35:25Z</time>
      </trkpt>
      <trkpt lat="45.88502" lon="1.28328">
        <ele>318.6</ele>
        <time>2025-06-16T13:35:26Z</time>
      </trkpt>
      <trkpt lat="45.88505" lon="1.28331">
        <ele>318.6</ele>
        <time>2025-06-16T13:35:27Z</time>
      </trkpt>
      <trkpt lat="45.88507" lon="1.28334">
        <ele>318.6</ele>
        <time>2025-06-16T13:35:28Z</time>
      </trkpt>
      <trkpt lat="45.88509" lon="1.28336">
        <ele>318.6</ele>
        <time>2025-06-16T13:35:29Z</time>
      </trkpt>
      <trkpt lat="45.88511" lon="1.28339">
        <ele>318.6</ele>
        <time>2025-06-16T13:35:30Z</time>
      </trkpt>
      <trkpt lat="45.88513" lon="1.28342">
        <ele>318.6</ele>
        <time>2025-06-16T13:35:31Z</time>
      </trkpt>
      <trkpt lat="45.88516" lon="1.28345">
        <ele>318.6</ele>
        <time>2025-06-16T13:35:32Z</time>
      </trkpt>
      <trkpt lat="45.88518" lon="1.28347">
        <ele>318.6</ele>
        <time>2025-06-16T13:35:33Z</time>
      </trkpt>
      <trkpt lat="45.88521" lon="1.28351">
        <ele>318.5</ele>
        <time>2025-06-16T13:35:34Z</time>
      </trkpt>
      <trkpt lat="45.88521" lon="1.28352">
        <ele>318.5</ele>
        <time>2025-06-16T13:35:35Z</time>
      </trkpt>
      <trkpt lat="45.88523" lon="1.28353">
        <ele>318.5</ele>
        <time>2025-06-16T13:35:36Z</time>
      </trkpt>
      <trkpt lat="45.88524" lon="1.28354">
        <ele>318.5</ele>
        <time>2025-06-16T13:35:37Z</time>
      </trkpt>
      <trkpt lat="45.88526" lon="1.28357">
        <ele>318.5</ele>
        <time>2025-06-16T13:35:38Z</time>
      </trkpt>
      <trkpt lat="45.88527" lon="1.28358">
        <ele>318.5</ele>
        <time>2025-06-16T13:35:39Z</time>
      </trkpt>
      <trkpt lat="45.8853" lon="1.28362">
        <ele>318.5</ele>
        <time>2025-06-16T13:35:40Z</time>
      </trkpt>
      <trkpt lat="45.88532" lon="1.28363">
        <ele>318.5</ele>
        <time>2025-06-16T13:35:41Z</time>
      </trkpt>
      <trkpt lat="45.88534" lon="1.28366">
        <ele>318.4</ele>
        <time>2025-06-16T13:35:42Z</time>
      </trkpt>
      <trkpt lat="45.88537" lon="1.2837">
        <ele>318.4</ele>
        <time>2025-06-16T13:35:43Z</time>
      </trkpt>
      <trkpt lat="45.8854" lon="1.28374">
        <ele>318.3</ele>
        <time>2025-06-16T13:35:44Z</time>
      </trkpt>
      <trkpt lat="45.88543" lon="1.28377">
        <ele>318.3</ele>
        <time>2025-06-16T13:35:45Z</time>
      </trkpt>
      <trkpt lat="45.88546" lon="1.2838">
        <ele>318.3</ele>
        <time>2025-06-16T13:35:46Z</time>
      </trkpt>
      <trkpt lat="45.88549" lon="1.28383">
        <ele>318.2</ele>
        <time>2025-06-16T13:35:47Z</time>
      </trkpt>
      <trkpt lat="45.88553" lon="1.28387">
        <ele>318.2</ele>
        <time>2025-06-16T13:35:48Z</time>
      </trkpt>
      <trkpt lat="45.88557" lon="1.28391">
        <ele>318.2</ele>
        <time>2025-06-16T13:35:49Z</time>
      </trkpt>
      <trkpt lat="45.88561" lon="1.28395">
        <ele>318.1</ele>
        <time>2025-06-16T13:35:50Z</time>
      </trkpt>
      <trkpt lat="45.88566" lon="1.28401">
        <ele>318.1</ele>
        <time>2025-06-16T13:35:51Z</time>
      </trkpt>
      <trkpt lat="45.8857" lon="1.28405">
        <ele>318</ele>
        <time>2025-06-16T13:35:52Z</time>
      </trkpt>
      <trkpt lat="45.88574" lon="1.28409">
        <ele>317.9</ele>
        <time>2025-06-16T13:35:53Z</time>
      </trkpt>
      <trkpt lat="45.88576" lon="1.28413">
        <ele>317.9</ele>
        <time>2025-06-16T13:35:54Z</time>
      </trkpt>
      <trkpt lat="45.8858" lon="1.28418">
        <ele>317.8</ele>
        <time>2025-06-16T13:35:55Z</time>
      </trkpt>
      <trkpt lat="45.88585" lon="1.28422">
        <ele>317.8</ele>
        <time>2025-06-16T13:35:56Z</time>
      </trkpt>
      <trkpt lat="45.88589" lon="1.28426">
        <ele>317.8</ele>
        <time>2025-06-16T13:35:57Z</time>
      </trkpt>
      <trkpt lat="45.88594" lon="1.28429">
        <ele>317.7</ele>
        <time>2025-06-16T13:35:58Z</time>
      </trkpt>
      <trkpt lat="45.886" lon="1.28435">
        <ele>317.7</ele>
        <time>2025-06-16T13:35:59Z</time>
      </trkpt>
      <trkpt lat="45.88604" lon="1.28439">
        <ele>317.7</ele>
        <time>2025-06-16T13:36:00Z</time>
      </trkpt>
      <trkpt lat="45.88606" lon="1.28443">
        <ele>317.7</ele>
        <time>2025-06-16T13:36:01Z</time>
      </trkpt>
      <trkpt lat="45.8861" lon="1.28447">
        <ele>317.7</ele>
        <time>2025-06-16T13:36:02Z</time>
      </trkpt>
      <trkpt lat="45.88614" lon="1.28451">
        <ele>317.8</ele>
        <time>2025-06-16T13:36:03Z</time>
      </trkpt>
      <trkpt lat="45.88619" lon="1.28456">
        <ele>317.8</ele>
        <time>2025-06-16T13:36:04Z</time>
      </trkpt>
      <trkpt lat="45.88623" lon="1.2846">
        <ele>317.8</ele>
        <time>2025-06-16T13:36:05Z</time>
      </trkpt>
      <trkpt lat="45.88627" lon="1.28464">
        <ele>317.8</ele>
        <time>2025-06-16T13:36:06Z</time>
      </trkpt>
      <trkpt lat="45.88632" lon="1.28468">
        <ele>317.8</ele>
        <time>2025-06-16T13:36:07Z</time>
      </trkpt>
      <trkpt lat="45.88637" lon="1.28472">
        <ele>317.8</ele>
        <time>2025-06-16T13:36:08Z</time>
      </trkpt>
      <trkpt lat="45.88641" lon="1.28475">
        <ele>317.8</ele>
        <time>2025-06-16T13:36:09Z</time>
      </trkpt>
      <trkpt lat="45.88646" lon="1.28477">
        <ele>317.7</ele>
        <time>2025-06-16T13:36:10Z</time>
      </trkpt>
      <trkpt lat="45.88651" lon="1.2848">
        <ele>317.7</ele>
        <time>2025-06-16T13:36:11Z</time>
      </trkpt>
      <trkpt lat="45.88656" lon="1.28484">
        <ele>317.7</ele>
        <time>2025-06-16T13:36:12Z</time>
      </trkpt>
      <trkpt lat="45.8866" lon="1.28488">
        <ele>317.7</ele>
        <time>2025-06-16T13:36:13Z</time>
      </trkpt>
      <trkpt lat="45.88664" lon="1.28492">
        <ele>317.7</ele>
        <time>2025-06-16T13:36:14Z</time>
      </trkpt>
      <trkpt lat="45.8867" lon="1.28497">
        <ele>317.7</ele>
        <time>2025-06-16T13:36:15Z</time>
      </trkpt>
      <trkpt lat="45.88674" lon="1.28501">
        <ele>317.7</ele>
        <time>2025-06-16T13:36:16Z</time>
      </trkpt>
      <trkpt lat="45.8868" lon="1.28505">
        <ele>317.7</ele>
        <time>2025-06-16T13:36:17Z</time>
      </trkpt>
      <trkpt lat="45.88684" lon="1.28508">
        <ele>317.7</ele>
        <time>2025-06-16T13:36:18Z</time>
      </trkpt>
      <trkpt lat="45.88689" lon="1.28511">
        <ele>317.7</ele>
        <time>2025-06-16T13:36:19Z</time>
      </trkpt>
      <trkpt lat="45.88693" lon="1.28514">
        <ele>317.7</ele>
        <time>2025-06-16T13:36:20Z</time>
      </trkpt>
      <trkpt lat="45.88697" lon="1.28517">
        <ele>317.7</ele>
        <time>2025-06-16T13:36:21Z</time>
      </trkpt>
      <trkpt lat="45.88701" lon="1.28519">
        <ele>317.8</ele>
        <time>2025-06-16T13:36:22Z</time>
      </trkpt>
      <trkpt lat="45.88706" lon="1.28521">
        <ele>317.8</ele>
        <time>2025-06-16T13:36:23Z</time>
      </trkpt>
      <trkpt lat="45.8871" lon="1.28524">
        <ele>317.8</ele>
        <time>2025-06-16T13:36:24Z</time>
      </trkpt>
      <trkpt lat="45.88714" lon="1.28526">
        <ele>317.8</ele>
        <time>2025-06-16T13:36:25Z</time>
      </trkpt>
      <trkpt lat="45.88719" lon="1.28527">
        <ele>317.8</ele>
        <time>2025-06-16T13:36:26Z</time>
      </trkpt>
      <trkpt lat="45.88724" lon="1.28529">
        <ele>317.8</ele>
        <time>2025-06-16T13:36:27Z</time>
      </trkpt>
      <trkpt lat="45.88729" lon="1.28532">
        <ele>317.8</ele>
        <time>2025-06-16T13:36:28Z</time>
      </trkpt>
      <trkpt lat="45.88734" lon="1.28534">
        <ele>317.8</ele>
        <time>2025-06-16T13:36:29Z</time>
      </trkpt>
      <trkpt lat="45.88739" lon="1.28536">
        <ele>317.8</ele>
        <time>2025-06-16T13:36:30Z</time>
      </trkpt>
      <trkpt lat="45.88745" lon="1.28537">
        <ele>317.9</ele>
        <time>2025-06-16T13:36:31Z</time>
      </trkpt>
      <trkpt lat="45.8875" lon="1.28538">
        <ele>317.9</ele>
        <time>2025-06-16T13:36:32Z</time>
      </trkpt>
      <trkpt lat="45.88755" lon="1.2854">
        <ele>317.9</ele>
        <time>2025-06-16T13:36:33Z</time>
      </trkpt>
      <trkpt lat="45.8876" lon="1.28542">
        <ele>317.9</ele>
        <time>2025-06-16T13:36:34Z</time>
      </trkpt>
      <trkpt lat="45.88766" lon="1.28544">
        <ele>317.9</ele>
        <time>2025-06-16T13:36:35Z</time>
      </trkpt>
      <trkpt lat="45.88772" lon="1.28546">
        <ele>317.9</ele>
        <time>2025-06-16T13:36:36Z</time>
      </trkpt>
      <trkpt lat="45.88778" lon="1.28548">
        <ele>318</ele>
        <time>2025-06-16T13:36:37Z</time>
      </trkpt>
      <trkpt lat="45.88784" lon="1.2855">
        <ele>318</ele>
        <time>2025-06-16T13:36:38Z</time>
      </trkpt>
      <trkpt lat="45.8879" lon="1.28553">
        <ele>318</ele>
        <time>2025-06-16T13:36:39Z</time>
      </trkpt>
      <trkpt lat="45.88794" lon="1.28555">
        <ele>318</ele>
        <time>2025-06-16T13:36:40Z</time>
      </trkpt>
      <trkpt lat="45.88799" lon="1.28557">
        <ele>318</ele>
        <time>2025-06-16T13:36:41Z</time>
      </trkpt>
      <trkpt lat="45.88804" lon="1.28558">
        <ele>318.1</ele>
        <time>2025-06-16T13:36:42Z</time>
      </trkpt>
      <trkpt lat="45.88809" lon="1.28559">
        <ele>318.1</ele>
        <time>2025-06-16T13:36:43Z</time>
      </trkpt>
      <trkpt lat="45.88814" lon="1.28561">
        <ele>318.1</ele>
        <time>2025-06-16T13:36:44Z</time>
      </trkpt>
      <trkpt lat="45.88818" lon="1.28562">
        <ele>318.1</ele>
        <time>2025-06-16T13:36:45Z</time>
      </trkpt>
      <trkpt lat="45.88822" lon="1.28562">
        <ele>318.1</ele>
        <time>2025-06-16T13:36:46Z</time>
      </trkpt>
      <trkpt lat="45.88826" lon="1.28562">
        <ele>318.2</ele>
        <time>2025-06-16T13:36:47Z</time>
      </trkpt>
      <trkpt lat="45.8883" lon="1.28563">
        <ele>318.2</ele>
        <time>2025-06-16T13:36:48Z</time>
      </trkpt>
      <trkpt lat="45.88833" lon="1.28563">
        <ele>318.2</ele>
        <time>2025-06-16T13:36:49Z</time>
      </trkpt>
      <trkpt lat="45.88837" lon="1.28564">
        <ele>318.3</ele>
        <time>2025-06-16T13:36:50Z</time>
      </trkpt>
      <trkpt lat="45.88841" lon="1.28565">
        <ele>318.3</ele>
        <time>2025-06-16T13:36:51Z</time>
      </trkpt>
      <trkpt lat="45.88844" lon="1.28567">
        <ele>318.4</ele>
        <time>2025-06-16T13:36:52Z</time>
      </trkpt>
      <trkpt lat="45.88846" lon="1.28571">
        <ele>318.4</ele>
        <time>2025-06-16T13:36:53Z</time>
      </trkpt>
      <trkpt lat="45.88848" lon="1.28576">
        <ele>318.5</ele>
        <time>2025-06-16T13:36:54Z</time>
      </trkpt>
      <trkpt lat="45.88849" lon="1.2858">
        <ele>318.5</ele>
        <time>2025-06-16T13:36:55Z</time>
      </trkpt>
      <trkpt lat="45.88851" lon="1.28585">
        <ele>318.5</ele>
        <time>2025-06-16T13:36:56Z</time>
      </trkpt>
      <trkpt lat="45.88851" lon="1.28587">
        <ele>318.5</ele>
        <time>2025-06-16T13:36:57Z</time>
      </trkpt>
      <trkpt lat="45.88855" lon="1.28587">
        <ele>318.6</ele>
        <time>2025-06-16T13:36:58Z</time>
      </trkpt>
      <trkpt lat="45.88857" lon="1.28586">
        <ele>318.6</ele>
        <time>2025-06-16T13:36:59Z</time>
      </trkpt>
      <trkpt lat="45.8886" lon="1.28585">
        <ele>318.6</ele>
        <time>2025-06-16T13:37:00Z</time>
      </trkpt>
      <trkpt lat="45.88863" lon="1.28583">
        <ele>318.6</ele>
        <time>2025-06-16T13:37:01Z</time>
      </trkpt>
      <trkpt lat="45.88866" lon="1.28581">
        <ele>318.6</ele>
        <time>2025-06-16T13:37:02Z</time>
      </trkpt>
      <trkpt lat="45.88867" lon="1.2858">
        <ele>318.6</ele>
        <time>2025-06-16T13:37:03Z</time>
      </trkpt>
      <trkpt lat="45.88868" lon="1.28579">
        <ele>318.6</ele>
        <time>2025-06-16T13:37:04Z</time>
      </trkpt>
      <trkpt lat="45.88868" lon="1.28579">
        <ele>318.6</ele>
        <time>2025-06-16T13:37:05Z</time>
      </trkpt>
      <trkpt lat="45.88871" lon="1.28578">
        <ele>318.6</ele>
        <time>2025-06-16T13:37:06Z</time>
      </trkpt>
      <trkpt lat="45.88872" lon="1.28578">
        <ele>318.6</ele>
        <time>2025-06-16T13:37:07Z</time>
      </trkpt>
      <trkpt lat="45.88873" lon="1.28577">
        <ele>318.6</ele>
        <time>2025-06-16T13:37:08Z</time>
      </trkpt>
      <trkpt lat="45.88879" lon="1.28575">
        <ele>318.6</ele>
        <time>2025-06-16T13:37:09Z</time>
      </trkpt>
      <trkpt lat="45.88883" lon="1.28574">
        <ele>318.6</ele>
        <time>2025-06-16T13:37:14Z</time>
      </trkpt>
      <trkpt lat="45.88887" lon="1.28572">
        <ele>318.6</ele>
        <time>2025-06-16T13:37:15Z</time>
      </trkpt>
      <trkpt lat="45.88891" lon="1.28571">
        <ele>318.6</ele>
        <time>2025-06-16T13:37:16Z</time>
      </trkpt>
      <trkpt lat="45.88893" lon="1.28571">
        <ele>318.6</ele>
        <time>2025-06-16T13:37:17Z</time>
      </trkpt>
      <trkpt lat="45.88894" lon="1.28572">
        <ele>318.6</ele>
        <time>2025-06-16T13:37:18Z</time>
      </trkpt>
      <trkpt lat="45.88894" lon="1.28572">
        <ele>318.6</ele>
        <time>2025-06-16T13:37:19Z</time>
      </trkpt>
      <trkpt lat="45.88897" lon="1.28575">
        <ele>318.6</ele>
        <time>2025-06-16T13:37:20Z</time>
      </trkpt>
      <trkpt lat="45.88901" lon="1.28579">
        <ele>318.5</ele>
        <time>2025-06-16T13:37:21Z</time>
      </trkpt>
      <trkpt lat="45.88903" lon="1.28583">
        <ele>318.5</ele>
        <time>2025-06-16T13:37:22Z</time>
      </trkpt>
      <trkpt lat="45.88906" lon="1.28588">
        <ele>318.5</ele>
        <time>2025-06-16T13:37:23Z</time>
      </trkpt>
      <trkpt lat="45.8891" lon="1.28594">
        <ele>318.4</ele>
        <time>2025-06-16T13:37:24Z</time>
      </trkpt>
      <trkpt lat="45.88914" lon="1.28599">
        <ele>318.4</ele>
        <time>2025-06-16T13:37:25Z</time>
      </trkpt>
      <trkpt lat="45.88917" lon="1.28603">
        <ele>318.3</ele>
        <time>2025-06-16T13:37:26Z</time>
      </trkpt>
      <trkpt lat="45.8892" lon="1.28607">
        <ele>318.3</ele>
        <time>2025-06-16T13:37:27Z</time>
      </trkpt>
      <trkpt lat="45.88922" lon="1.28611">
        <ele>318.3</ele>
        <time>2025-06-16T13:37:28Z</time>
      </trkpt>
      <trkpt lat="45.88925" lon="1.28614">
        <ele>318.2</ele>
        <time>2025-06-16T13:37:29Z</time>
      </trkpt>
      <trkpt lat="45.88927" lon="1.28617">
        <ele>318.2</ele>
        <time>2025-06-16T13:37:30Z</time>
      </trkpt>
      <trkpt lat="45.8893" lon="1.28621">
        <ele>318.2</ele>
        <time>2025-06-16T13:37:31Z</time>
      </trkpt>
      <trkpt lat="45.88932" lon="1.28624">
        <ele>318.2</ele>
        <time>2025-06-16T13:37:32Z</time>
      </trkpt>
      <trkpt lat="45.88935" lon="1.28628">
        <ele>318.2</ele>
        <time>2025-06-16T13:37:33Z</time>
      </trkpt>
      <trkpt lat="45.88936" lon="1.28629">
        <ele>318.2</ele>
        <time>2025-06-16T13:37:34Z</time>
      </trkpt>
      <trkpt lat="45.88939" lon="1.28632">
        <ele>318.2</ele>
        <time>2025-06-16T13:37:35Z</time>
      </trkpt>
      <trkpt lat="45.8894" lon="1.28633">
        <ele>318.2</ele>
        <time>2025-06-16T13:37:36Z</time>
      </trkpt>
      <trkpt lat="45.88943" lon="1.28636">
        <ele>318.2</ele>
        <time>2025-06-16T13:37:37Z</time>
      </trkpt>
      <trkpt lat="45.88945" lon="1.28638">
        <ele>318.2</ele>
        <time>2025-06-16T13:37:38Z</time>
      </trkpt>
      <trkpt lat="45.88948" lon="1.2864">
        <ele>318.2</ele>
        <time>2025-06-16T13:37:39Z</time>
      </trkpt>
      <trkpt lat="45.88951" lon="1.28642">
        <ele>318.2</ele>
        <time>2025-06-16T13:37:40Z</time>
      </trkpt>
      <trkpt lat="45.88955" lon="1.28645">
        <ele>318.3</ele>
        <time>2025-06-16T13:37:41Z</time>
      </trkpt>
      <trkpt lat="45.88958" lon="1.28648">
        <ele>318.3</ele>
        <time>2025-06-16T13:37:42Z</time>
      </trkpt>
      <trkpt lat="45.88961" lon="1.28651">
        <ele>318.3</ele>
        <time>2025-06-16T13:37:43Z</time>
      </trkpt>
      <trkpt lat="45.88964" lon="1.28654">
        <ele>318.3</ele>
        <time>2025-06-16T13:37:44Z</time>
      </trkpt>
      <trkpt lat="45.88966" lon="1.28658">
        <ele>318.4</ele>
        <time>2025-06-16T13:37:45Z</time>
      </trkpt>
      <trkpt lat="45.88968" lon="1.28661">
        <ele>318.4</ele>
        <time>2025-06-16T13:37:46Z</time>
      </trkpt>
      <trkpt lat="45.88971" lon="1.28665">
        <ele>318.4</ele>
        <time>2025-06-16T13:37:47Z</time>
      </trkpt>
      <trkpt lat="45.88972" lon="1.28667">
        <ele>318.4</ele>
        <time>2025-06-16T13:37:48Z</time>
      </trkpt>
      <trkpt lat="45.88974" lon="1.2867">
        <ele>318.5</ele>
        <time>2025-06-16T13:37:49Z</time>
      </trkpt>
      <trkpt lat="45.88977" lon="1.28673">
        <ele>318.5</ele>
        <time>2025-06-16T13:37:50Z</time>
      </trkpt>
      <trkpt lat="45.88979" lon="1.28676">
        <ele>318.5</ele>
        <time>2025-06-16T13:37:51Z</time>
      </trkpt>
      <trkpt lat="45.88983" lon="1.28678">
        <ele>318.6</ele>
        <time>2025-06-16T13:37:52Z</time>
      </trkpt>
      <trkpt lat="45.88986" lon="1.28681">
        <ele>318.6</ele>
        <time>2025-06-16T13:37:53Z</time>
      </trkpt>
      <trkpt lat="45.8899" lon="1.28683">
        <ele>318.6</ele>
        <time>2025-06-16T13:37:54Z</time>
      </trkpt>
      <trkpt lat="45.88993" lon="1.28684">
        <ele>318.6</ele>
        <time>2025-06-16T13:37:55Z</time>
      </trkpt>
      <trkpt lat="45.88996" lon="1.28685">
        <ele>318.7</ele>
        <time>2025-06-16T13:37:56Z</time>
      </trkpt>
      <trkpt lat="45.89" lon="1.28685">
        <ele>318.7</ele>
        <time>2025-06-16T13:37:57Z</time>
      </trkpt>
      <trkpt lat="45.89001" lon="1.28685">
        <ele>318.7</ele>
        <time>2025-06-16T13:37:58Z</time>
      </trkpt>
      <trkpt lat="45.89005" lon="1.28685">
        <ele>318.7</ele>
        <time>2025-06-16T13:37:59Z</time>
      </trkpt>
      <trkpt lat="45.89007" lon="1.28685">
        <ele>318.7</ele>
        <time>2025-06-16T13:38:00Z</time>
      </trkpt>
      <trkpt lat="45.89011" lon="1.28686">
        <ele>318.7</ele>
        <time>2025-06-16T13:38:01Z</time>
      </trkpt>
      <trkpt lat="45.89015" lon="1.28686">
        <ele>318.7</ele>
        <time>2025-06-16T13:38:02Z</time>
      </trkpt>
      <trkpt lat="45.8902" lon="1.28685">
        <ele>318.7</ele>
        <time>2025-06-16T13:38:03Z</time>
      </trkpt>
      <trkpt lat="45.89025" lon="1.28685">
        <ele>318.7</ele>
        <time>2025-06-16T13:38:04Z</time>
      </trkpt>
      <trkpt lat="45.89031" lon="1.28684">
        <ele>318.7</ele>
        <time>2025-06-16T13:38:05Z</time>
      </trkpt>
      <trkpt lat="45.89035" lon="1.28684">
        <ele>318.7</ele>
        <time>2025-06-16T13:38:06Z</time>
      </trkpt>
      <trkpt lat="45.8904" lon="1.28685">
        <ele>318.7</ele>
        <time>2025-06-16T13:38:07Z</time>
      </trkpt>
      <trkpt lat="45.89044" lon="1.28686">
        <ele>318.8</ele>
        <time>2025-06-16T13:38:08Z</time>
      </trkpt>
      <trkpt lat="45.89049" lon="1.28687">
        <ele>318.8</ele>
        <time>2025-06-16T13:38:09Z</time>
      </trkpt>
      <trkpt lat="45.89052" lon="1.28689">
        <ele>318.8</ele>
        <time>2025-06-16T13:38:10Z</time>
      </trkpt>
      <trkpt lat="45.89055" lon="1.28691">
        <ele>318.8</ele>
        <time>2025-06-16T13:38:11Z</time>
      </trkpt>
      <trkpt lat="45.89059" lon="1.28693">
        <ele>318.8</ele>
        <time>2025-06-16T13:38:12Z</time>
      </trkpt>
      <trkpt lat="45.89064" lon="1.28696">
        <ele>318.8</ele>
        <time>2025-06-16T13:38:13Z</time>
      </trkpt>
      <trkpt lat="45.89068" lon="1.28698">
        <ele>318.9</ele>
        <time>2025-06-16T13:38:14Z</time>
      </trkpt>
      <trkpt lat="45.89073" lon="1.287">
        <ele>318.9</ele>
        <time>2025-06-16T13:38:15Z</time>
      </trkpt>
      <trkpt lat="45.89079" lon="1.287">
        <ele>318.9</ele>
        <time>2025-06-16T13:38:16Z</time>
      </trkpt>
      <trkpt lat="45.89084" lon="1.287">
        <ele>318.9</ele>
        <time>2025-06-16T13:38:17Z</time>
      </trkpt>
      <trkpt lat="45.89088" lon="1.28699">
        <ele>318.9</ele>
        <time>2025-06-16T13:38:18Z</time>
      </trkpt>
      <trkpt lat="45.89092" lon="1.28698">
        <ele>318.9</ele>
        <time>2025-06-16T13:38:19Z</time>
      </trkpt>
      <trkpt lat="45.89097" lon="1.28696">
        <ele>318.9</ele>
        <time>2025-06-16T13:38:20Z</time>
      </trkpt>
      <trkpt lat="45.89102" lon="1.28695">
        <ele>319</ele>
        <time>2025-06-16T13:38:21Z</time>
      </trkpt>
      <trkpt lat="45.89107" lon="1.28695">
        <ele>319</ele>
        <time>2025-06-16T13:38:22Z</time>
      </trkpt>
      <trkpt lat="45.89112" lon="1.28696">
        <ele>319</ele>
        <time>2025-06-16T13:38:23Z</time>
      </trkpt>
      <trkpt lat="45.89117" lon="1.28696">
        <ele>319</ele>
        <time>2025-06-16T13:38:24Z</time>
      </trkpt>
      <trkpt lat="45.89122" lon="1.28697">
        <ele>319.1</ele>
        <time>2025-06-16T13:38:25Z</time>
      </trkpt>
      <trkpt lat="45.89127" lon="1.28697">
        <ele>319.2</ele>
        <time>2025-06-16T13:38:26Z</time>
      </trkpt>
      <trkpt lat="45.89132" lon="1.28697">
        <ele>319.3</ele>
        <time>2025-06-16T13:38:27Z</time>
      </trkpt>
      <trkpt lat="45.89135" lon="1.28696">
        <ele>319.4</ele>
        <time>2025-06-16T13:38:28Z</time>
      </trkpt>
      <trkpt lat="45.89139" lon="1.28696">
        <ele>319.4</ele>
        <time>2025-06-16T13:38:29Z</time>
      </trkpt>
      <trkpt lat="45.89142" lon="1.28696">
        <ele>319.5</ele>
        <time>2025-06-16T13:38:30Z</time>
      </trkpt>
      <trkpt lat="45.89145" lon="1.28695">
        <ele>319.6</ele>
        <time>2025-06-16T13:38:31Z</time>
      </trkpt>
      <trkpt lat="45.89146" lon="1.28695">
        <ele>319.6</ele>
        <time>2025-06-16T13:38:32Z</time>
      </trkpt>
      <trkpt lat="45.89147" lon="1.28694">
        <ele>319.6</ele>
        <time>2025-06-16T13:38:33Z</time>
      </trkpt>
      <trkpt lat="45.89148" lon="1.28693">
        <ele>319.6</ele>
        <time>2025-06-16T13:38:34Z</time>
      </trkpt>
      <trkpt lat="45.8915" lon="1.28692">
        <ele>319.6</ele>
        <time>2025-06-16T13:38:35Z</time>
      </trkpt>
      <trkpt lat="45.89152" lon="1.28692">
        <ele>319.6</ele>
        <time>2025-06-16T13:38:36Z</time>
      </trkpt>
      <trkpt lat="45.89154" lon="1.28692">
        <ele>319.7</ele>
        <time>2025-06-16T13:38:37Z</time>
      </trkpt>
      <trkpt lat="45.89158" lon="1.28693">
        <ele>319.7</ele>
        <time>2025-06-16T13:38:39Z</time>
      </trkpt>
      <trkpt lat="45.89166" lon="1.28695">
        <ele>319.7</ele>
        <time>2025-06-16T13:38:43Z</time>
      </trkpt>
      <trkpt lat="45.89168" lon="1.28696">
        <ele>319.6</ele>
        <time>2025-06-16T13:38:44Z</time>
      </trkpt>
      <trkpt lat="45.8917" lon="1.28696">
        <ele>319.6</ele>
        <time>2025-06-16T13:38:45Z</time>
      </trkpt>
      <trkpt lat="45.89173" lon="1.28697">
        <ele>319.6</ele>
        <time>2025-06-16T13:38:46Z</time>
      </trkpt>
      <trkpt lat="45.89175" lon="1.28698">
        <ele>319.6</ele>
        <time>2025-06-16T13:38:47Z</time>
      </trkpt>
      <trkpt lat="45.8918" lon="1.28699">
        <ele>319.5</ele>
        <time>2025-06-16T13:38:48Z</time>
      </trkpt>
      <trkpt lat="45.89183" lon="1.287">
        <ele>319.4</ele>
        <time>2025-06-16T13:38:49Z</time>
      </trkpt>
      <trkpt lat="45.89187" lon="1.28701">
        <ele>319.4</ele>
        <time>2025-06-16T13:38:50Z</time>
      </trkpt>
      <trkpt lat="45.89191" lon="1.28704">
        <ele>319.3</ele>
        <time>2025-06-16T13:38:51Z</time>
      </trkpt>
      <trkpt lat="45.89193" lon="1.28711">
        <ele>319.2</ele>
        <time>2025-06-16T13:38:52Z</time>
      </trkpt>
      <trkpt lat="45.89194" lon="1.28717">
        <ele>319.1</ele>
        <time>2025-06-16T13:38:53Z</time>
      </trkpt>
      <trkpt lat="45.89195" lon="1.28724">
        <ele>319.1</ele>
        <time>2025-06-16T13:38:54Z</time>
      </trkpt>
      <trkpt lat="45.89196" lon="1.28731">
        <ele>319</ele>
        <time>2025-06-16T13:38:55Z</time>
      </trkpt>
      <trkpt lat="45.89198" lon="1.28738">
        <ele>319</ele>
        <time>2025-06-16T13:38:56Z</time>
      </trkpt>
      <trkpt lat="45.89199" lon="1.28745">
        <ele>319</ele>
        <time>2025-06-16T13:38:57Z</time>
      </trkpt>
      <trkpt lat="45.892" lon="1.28752">
        <ele>319</ele>
        <time>2025-06-16T13:38:58Z</time>
      </trkpt>
      <trkpt lat="45.89201" lon="1.28759">
        <ele>319</ele>
        <time>2025-06-16T13:38:59Z</time>
      </trkpt>
      <trkpt lat="45.89203" lon="1.28766">
        <ele>319</ele>
        <time>2025-06-16T13:39:00Z</time>
      </trkpt>
      <trkpt lat="45.89205" lon="1.28772">
        <ele>319</ele>
        <time>2025-06-16T13:39:01Z</time>
      </trkpt>
      <trkpt lat="45.89208" lon="1.28777">
        <ele>319</ele>
        <time>2025-06-16T13:39:02Z</time>
      </trkpt>
      <trkpt lat="45.8921" lon="1.28783">
        <ele>319.1</ele>
        <time>2025-06-16T13:39:03Z</time>
      </trkpt>
      <trkpt lat="45.89213" lon="1.28787">
        <ele>319.1</ele>
        <time>2025-06-16T13:39:04Z</time>
      </trkpt>
      <trkpt lat="45.89217" lon="1.28792">
        <ele>319.1</ele>
        <time>2025-06-16T13:39:05Z</time>
      </trkpt>
      <trkpt lat="45.8922" lon="1.28796">
        <ele>319.2</ele>
        <time>2025-06-16T13:39:06Z</time>
      </trkpt>
      <trkpt lat="45.89224" lon="1.288">
        <ele>319.3</ele>
        <time>2025-06-16T13:39:07Z</time>
      </trkpt>
      <trkpt lat="45.89227" lon="1.28804">
        <ele>319.3</ele>
        <time>2025-06-16T13:39:08Z</time>
      </trkpt>
      <trkpt lat="45.89231" lon="1.28808">
        <ele>319.4</ele>
        <time>2025-06-16T13:39:09Z</time>
      </trkpt>
      <trkpt lat="45.89235" lon="1.28812">
        <ele>319.4</ele>
        <time>2025-06-16T13:39:10Z</time>
      </trkpt>
      <trkpt lat="45.89238" lon="1.28815">
        <ele>319.5</ele>
        <time>2025-06-16T13:39:11Z</time>
      </trkpt>
      <trkpt lat="45.89242" lon="1.2882">
        <ele>319.6</ele>
        <time>2025-06-16T13:39:12Z</time>
      </trkpt>
      <trkpt lat="45.89246" lon="1.28824">
        <ele>319.7</ele>
        <time>2025-06-16T13:39:13Z</time>
      </trkpt>
      <trkpt lat="45.8925" lon="1.28827">
        <ele>319.8</ele>
        <time>2025-06-16T13:39:14Z</time>
      </trkpt>
      <trkpt lat="45.89254" lon="1.28829">
        <ele>319.9</ele>
        <time>2025-06-16T13:39:15Z</time>
      </trkpt>
      <trkpt lat="45.89257" lon="1.28831">
        <ele>320</ele>
        <time>2025-06-16T13:39:16Z</time>
      </trkpt>
      <trkpt lat="45.89261" lon="1.28833">
        <ele>320.1</ele>
        <time>2025-06-16T13:39:17Z</time>
      </trkpt>
      <trkpt lat="45.89265" lon="1.28834">
        <ele>320.2</ele>
        <time>2025-06-16T13:39:18Z</time>
      </trkpt>
      <trkpt lat="45.89269" lon="1.28836">
        <ele>320.3</ele>
        <time>2025-06-16T13:39:19Z</time>
      </trkpt>
      <trkpt lat="45.89273" lon="1.28838">
        <ele>320.5</ele>
        <time>2025-06-16T13:39:20Z</time>
      </trkpt>
      <trkpt lat="45.89276" lon="1.28839">
        <ele>320.6</ele>
        <time>2025-06-16T13:39:21Z</time>
      </trkpt>
      <trkpt lat="45.8928" lon="1.2884">
        <ele>320.8</ele>
        <time>2025-06-16T13:39:22Z</time>
      </trkpt>
      <trkpt lat="45.89284" lon="1.2884">
        <ele>320.9</ele>
        <time>2025-06-16T13:39:23Z</time>
      </trkpt>
      <trkpt lat="45.89288" lon="1.28841">
        <ele>321.1</ele>
        <time>2025-06-16T13:39:24Z</time>
      </trkpt>
      <trkpt lat="45.89292" lon="1.28842">
        <ele>321.2</ele>
        <time>2025-06-16T13:39:25Z</time>
      </trkpt>
      <trkpt lat="45.89295" lon="1.28842">
        <ele>321.4</ele>
        <time>2025-06-16T13:39:26Z</time>
      </trkpt>
      <trkpt lat="45.89299" lon="1.28843">
        <ele>321.5</ele>
        <time>2025-06-16T13:39:27Z</time>
      </trkpt>
      <trkpt lat="45.89302" lon="1.28843">
        <ele>321.6</ele>
        <time>2025-06-16T13:39:28Z</time>
      </trkpt>
      <trkpt lat="45.89306" lon="1.28845">
        <ele>321.8</ele>
        <time>2025-06-16T13:39:29Z</time>
      </trkpt>
      <trkpt lat="45.89307" lon="1.28845">
        <ele>321.8</ele>
        <time>2025-06-16T13:39:30Z</time>
      </trkpt>
      <trkpt lat="45.89309" lon="1.28846">
        <ele>321.9</ele>
        <time>2025-06-16T13:39:31Z</time>
      </trkpt>
      <trkpt lat="45.89312" lon="1.28848">
        <ele>322</ele>
        <time>2025-06-16T13:39:32Z</time>
      </trkpt>
      <trkpt lat="45.89316" lon="1.28849">
        <ele>322.2</ele>
        <time>2025-06-16T13:39:33Z</time>
      </trkpt>
      <trkpt lat="45.89319" lon="1.2885">
        <ele>322.3</ele>
        <time>2025-06-16T13:39:34Z</time>
      </trkpt>
      <trkpt lat="45.89322" lon="1.28852">
        <ele>322.5</ele>
        <time>2025-06-16T13:39:35Z</time>
      </trkpt>
      <trkpt lat="45.89325" lon="1.28853">
        <ele>322.6</ele>
        <time>2025-06-16T13:39:36Z</time>
      </trkpt>
      <trkpt lat="45.89328" lon="1.28855">
        <ele>322.8</ele>
        <time>2025-06-16T13:39:37Z</time>
      </trkpt>
      <trkpt lat="45.89331" lon="1.28856">
        <ele>322.9</ele>
        <time>2025-06-16T13:39:38Z</time>
      </trkpt>
      <trkpt lat="45.89335" lon="1.28857">
        <ele>323.1</ele>
        <time>2025-06-16T13:39:39Z</time>
      </trkpt>
      <trkpt lat="45.89336" lon="1.28857">
        <ele>323.2</ele>
        <time>2025-06-16T13:39:40Z</time>
      </trkpt>
      <trkpt lat="45.89339" lon="1.28858">
        <ele>323.3</ele>
        <time>2025-06-16T13:39:41Z</time>
      </trkpt>
      <trkpt lat="45.89342" lon="1.28859">
        <ele>323.5</ele>
        <time>2025-06-16T13:39:42Z</time>
      </trkpt>
      <trkpt lat="45.89345" lon="1.28859">
        <ele>323.7</ele>
        <time>2025-06-16T13:39:43Z</time>
      </trkpt>
      <trkpt lat="45.89346" lon="1.28859">
        <ele>323.8</ele>
        <time>2025-06-16T13:39:44Z</time>
      </trkpt>
      <trkpt lat="45.8935" lon="1.2886">
        <ele>324</ele>
        <time>2025-06-16T13:39:45Z</time>
      </trkpt>
      <trkpt lat="45.89351" lon="1.2886">
        <ele>324.1</ele>
        <time>2025-06-16T13:39:46Z</time>
      </trkpt>
      <trkpt lat="45.89354" lon="1.28861">
        <ele>324.3</ele>
        <time>2025-06-16T13:39:47Z</time>
      </trkpt>
      <trkpt lat="45.89355" lon="1.28861">
        <ele>324.4</ele>
        <time>2025-06-16T13:39:48Z</time>
      </trkpt>
      <trkpt lat="45.89359" lon="1.28862">
        <ele>324.7</ele>
        <time>2025-06-16T13:39:49Z</time>
      </trkpt>
      <trkpt lat="45.89361" lon="1.28862">
        <ele>324.8</ele>
        <time>2025-06-16T13:39:50Z</time>
      </trkpt>
      <trkpt lat="45.89364" lon="1.28863">
        <ele>325</ele>
        <time>2025-06-16T13:39:51Z</time>
      </trkpt>
      <trkpt lat="45.89368" lon="1.28864">
        <ele>325.2</ele>
        <time>2025-06-16T13:39:52Z</time>
      </trkpt>
      <trkpt lat="45.89369" lon="1.28864">
        <ele>325.3</ele>
        <time>2025-06-16T13:39:53Z</time>
      </trkpt>
      <trkpt lat="45.89372" lon="1.28865">
        <ele>325.4</ele>
        <time>2025-06-16T13:39:54Z</time>
      </trkpt>
      <trkpt lat="45.89376" lon="1.28866">
        <ele>325.6</ele>
        <time>2025-06-16T13:39:55Z</time>
      </trkpt>
      <trkpt lat="45.89377" lon="1.28866">
        <ele>325.7</ele>
        <time>2025-06-16T13:39:56Z</time>
      </trkpt>
      <trkpt lat="45.89381" lon="1.28867">
        <ele>325.8</ele>
        <time>2025-06-16T13:39:57Z</time>
      </trkpt>
      <trkpt lat="45.89382" lon="1.28867">
        <ele>325.9</ele>
        <time>2025-06-16T13:39:58Z</time>
      </trkpt>
      <trkpt lat="45.89385" lon="1.28867">
        <ele>325.9</ele>
        <time>2025-06-16T13:39:59Z</time>
      </trkpt>
      <trkpt lat="45.89388" lon="1.28868">
        <ele>326</ele>
        <time>2025-06-16T13:40:00Z</time>
      </trkpt>
      <trkpt lat="45.89391" lon="1.28869">
        <ele>326.1</ele>
        <time>2025-06-16T13:40:01Z</time>
      </trkpt>
      <trkpt lat="45.89394" lon="1.28869">
        <ele>326.1</ele>
        <time>2025-06-16T13:40:02Z</time>
      </trkpt>
      <trkpt lat="45.89398" lon="1.2887">
        <ele>326.2</ele>
        <time>2025-06-16T13:40:03Z</time>
      </trkpt>
      <trkpt lat="45.894" lon="1.28869">
        <ele>326.2</ele>
        <time>2025-06-16T13:40:04Z</time>
      </trkpt>
      <trkpt lat="45.89403" lon="1.28869">
        <ele>326.2</ele>
        <time>2025-06-16T13:40:05Z</time>
      </trkpt>
      <trkpt lat="45.89406" lon="1.28869">
        <ele>326.3</ele>
        <time>2025-06-16T13:40:06Z</time>
      </trkpt>
      <trkpt lat="45.89409" lon="1.28868">
        <ele>326.2</ele>
        <time>2025-06-16T13:40:07Z</time>
      </trkpt>
      <trkpt lat="45.89412" lon="1.28866">
        <ele>326</ele>
        <time>2025-06-16T13:40:08Z</time>
      </trkpt>
      <trkpt lat="45.89415" lon="1.28864">
        <ele>325.9</ele>
        <time>2025-06-16T13:40:09Z</time>
      </trkpt>
      <trkpt lat="45.89418" lon="1.28862">
        <ele>325.7</ele>
        <time>2025-06-16T13:40:10Z</time>
      </trkpt>
      <trkpt lat="45.89421" lon="1.28861">
        <ele>325.6</ele>
        <time>2025-06-16T13:40:11Z</time>
      </trkpt>
      <trkpt lat="45.89424" lon="1.28861">
        <ele>325.4</ele>
        <time>2025-06-16T13:40:12Z</time>
      </trkpt>
      <trkpt lat="45.89427" lon="1.28863">
        <ele>325.3</ele>
        <time>2025-06-16T13:40:13Z</time>
      </trkpt>
      <trkpt lat="45.8943" lon="1.28866">
        <ele>325.5</ele>
        <time>2025-06-16T13:40:14Z</time>
      </trkpt>
      <trkpt lat="45.89433" lon="1.28869">
        <ele>325.7</ele>
        <time>2025-06-16T13:40:15Z</time>
      </trkpt>
      <trkpt lat="45.89434" lon="1.28873">
        <ele>325.9</ele>
        <time>2025-06-16T13:40:16Z</time>
      </trkpt>
      <trkpt lat="45.89435" lon="1.28877">
        <ele>326</ele>
        <time>2025-06-16T13:40:17Z</time>
      </trkpt>
      <trkpt lat="45.89435" lon="1.28881">
        <ele>326.2</ele>
        <time>2025-06-16T13:40:18Z</time>
      </trkpt>
      <trkpt lat="45.89436" lon="1.28886">
        <ele>326.4</ele>
        <time>2025-06-16T13:40:19Z</time>
      </trkpt>
      <trkpt lat="45.89436" lon="1.2889">
        <ele>326.6</ele>
        <time>2025-06-16T13:40:20Z</time>
      </trkpt>
      <trkpt lat="45.89436" lon="1.28894">
        <ele>326.8</ele>
        <time>2025-06-16T13:40:21Z</time>
      </trkpt>
      <trkpt lat="45.89436" lon="1.28898">
        <ele>327.1</ele>
        <time>2025-06-16T13:40:22Z</time>
      </trkpt>
      <trkpt lat="45.89436" lon="1.28902">
        <ele>327.3</ele>
        <time>2025-06-16T13:40:23Z</time>
      </trkpt>
      <trkpt lat="45.89437" lon="1.28906">
        <ele>327.5</ele>
        <time>2025-06-16T13:40:24Z</time>
      </trkpt>
      <trkpt lat="45.89437" lon="1.2891">
        <ele>327.8</ele>
        <time>2025-06-16T13:40:25Z</time>
      </trkpt>
      <trkpt lat="45.89437" lon="1.28914">
        <ele>328</ele>
        <time>2025-06-16T13:40:26Z</time>
      </trkpt>
      <trkpt lat="45.89437" lon="1.28918">
        <ele>328.3</ele>
        <time>2025-06-16T13:40:27Z</time>
      </trkpt>
      <trkpt lat="45.89437" lon="1.28922">
        <ele>328.5</ele>
        <time>2025-06-16T13:40:28Z</time>
      </trkpt>
      <trkpt lat="45.89436" lon="1.28926">
        <ele>328.8</ele>
        <time>2025-06-16T13:40:29Z</time>
      </trkpt>
      <trkpt lat="45.89436" lon="1.2893">
        <ele>329.1</ele>
        <time>2025-06-16T13:40:30Z</time>
      </trkpt>
      <trkpt lat="45.89437" lon="1.28934">
        <ele>329.3</ele>
        <time>2025-06-16T13:40:31Z</time>
      </trkpt>
      <trkpt lat="45.89437" lon="1.2894">
        <ele>329.7</ele>
        <time>2025-06-16T13:40:32Z</time>
      </trkpt>
      <trkpt lat="45.89437" lon="1.28941">
        <ele>329.8</ele>
        <time>2025-06-16T13:40:33Z</time>
      </trkpt>
      <trkpt lat="45.89439" lon="1.28947">
        <ele>330.1</ele>
        <time>2025-06-16T13:40:34Z</time>
      </trkpt>
      <trkpt lat="45.89439" lon="1.28948">
        <ele>330.2</ele>
        <time>2025-06-16T13:40:35Z</time>
      </trkpt>
      <trkpt lat="45.89441" lon="1.28953">
        <ele>330.6</ele>
        <time>2025-06-16T13:40:36Z</time>
      </trkpt>
      <trkpt lat="45.89442" lon="1.28954">
        <ele>330.7</ele>
        <time>2025-06-16T13:40:37Z</time>
      </trkpt>
      <trkpt lat="45.89444" lon="1.28958">
        <ele>331</ele>
        <time>2025-06-16T13:40:38Z</time>
      </trkpt>
      <trkpt lat="45.89444" lon="1.2896">
        <ele>331.1</ele>
        <time>2025-06-16T13:40:39Z</time>
      </trkpt>
      <trkpt lat="45.89447" lon="1.28963">
        <ele>331.4</ele>
        <time>2025-06-16T13:40:40Z</time>
      </trkpt>
      <trkpt lat="45.89448" lon="1.28964">
        <ele>331.5</ele>
        <time>2025-06-16T13:40:41Z</time>
      </trkpt>
      <trkpt lat="45.8945" lon="1.28966">
        <ele>331.8</ele>
        <time>2025-06-16T13:40:42Z</time>
      </trkpt>
      <trkpt lat="45.89451" lon="1.28967">
        <ele>331.9</ele>
        <time>2025-06-16T13:40:43Z</time>
      </trkpt>
      <trkpt lat="45.89454" lon="1.2897">
        <ele>332.3</ele>
        <time>2025-06-16T13:40:44Z</time>
      </trkpt>
      <trkpt lat="45.89455" lon="1.28971">
        <ele>332.4</ele>
        <time>2025-06-16T13:40:45Z</time>
      </trkpt>
      <trkpt lat="45.89458" lon="1.28975">
        <ele>332.7</ele>
        <time>2025-06-16T13:40:46Z</time>
      </trkpt>
      <trkpt lat="45.89459" lon="1.28977">
        <ele>332.8</ele>
        <time>2025-06-16T13:40:47Z</time>
      </trkpt>
      <trkpt lat="45.89461" lon="1.28981">
        <ele>333.2</ele>
        <time>2025-06-16T13:40:48Z</time>
      </trkpt>
      <trkpt lat="45.89461" lon="1.28983">
        <ele>333.3</ele>
        <time>2025-06-16T13:40:49Z</time>
      </trkpt>
      <trkpt lat="45.89463" lon="1.28988">
        <ele>333.6</ele>
        <time>2025-06-16T13:40:50Z</time>
      </trkpt>
      <trkpt lat="45.89464" lon="1.28989">
        <ele>333.7</ele>
        <time>2025-06-16T13:40:51Z</time>
      </trkpt>
      <trkpt lat="45.89465" lon="1.28994">
        <ele>334</ele>
        <time>2025-06-16T13:40:52Z</time>
      </trkpt>
      <trkpt lat="45.89465" lon="1.28995">
        <ele>334</ele>
        <time>2025-06-16T13:40:53Z</time>
      </trkpt>
      <trkpt lat="45.89465" lon="1.29001">
        <ele>334.3</ele>
        <time>2025-06-16T13:40:54Z</time>
      </trkpt>
      <trkpt lat="45.89466" lon="1.29002">
        <ele>334.4</ele>
        <time>2025-06-16T13:40:55Z</time>
      </trkpt>
      <trkpt lat="45.89466" lon="1.29008">
        <ele>334.7</ele>
        <time>2025-06-16T13:40:56Z</time>
      </trkpt>
      <trkpt lat="45.89466" lon="1.29009">
        <ele>334.7</ele>
        <time>2025-06-16T13:40:57Z</time>
      </trkpt>
      <trkpt lat="45.89465" lon="1.29014">
        <ele>335</ele>
        <time>2025-06-16T13:40:58Z</time>
      </trkpt>
      <trkpt lat="45.89465" lon="1.29015">
        <ele>335.1</ele>
        <time>2025-06-16T13:40:59Z</time>
      </trkpt>
      <trkpt lat="45.89465" lon="1.2902">
        <ele>335.3</ele>
        <time>2025-06-16T13:41:00Z</time>
      </trkpt>
      <trkpt lat="45.89465" lon="1.29022">
        <ele>335.4</ele>
        <time>2025-06-16T13:41:01Z</time>
      </trkpt>
      <trkpt lat="45.89464" lon="1.29027">
        <ele>335.6</ele>
        <time>2025-06-16T13:41:02Z</time>
      </trkpt>
      <trkpt lat="45.89464" lon="1.29029">
        <ele>335.6</ele>
        <time>2025-06-16T13:41:03Z</time>
      </trkpt>
      <trkpt lat="45.89463" lon="1.29033">
        <ele>335.8</ele>
        <time>2025-06-16T13:41:04Z</time>
      </trkpt>
      <trkpt lat="45.89463" lon="1.29035">
        <ele>335.9</ele>
        <time>2025-06-16T13:41:05Z</time>
      </trkpt>
      <trkpt lat="45.89463" lon="1.2904">
        <ele>336</ele>
        <time>2025-06-16T13:41:06Z</time>
      </trkpt>
      <trkpt lat="45.89463" lon="1.29042">
        <ele>336.1</ele>
        <time>2025-06-16T13:41:07Z</time>
      </trkpt>
      <trkpt lat="45.89463" lon="1.29048">
        <ele>336.2</ele>
        <time>2025-06-16T13:41:08Z</time>
      </trkpt>
      <trkpt lat="45.89462" lon="1.29049">
        <ele>336.2</ele>
        <time>2025-06-16T13:41:09Z</time>
      </trkpt>
      <trkpt lat="45.89462" lon="1.29053">
        <ele>336.3</ele>
        <time>2025-06-16T13:41:10Z</time>
      </trkpt>
      <trkpt lat="45.89462" lon="1.29058">
        <ele>336.3</ele>
        <time>2025-06-16T13:41:11Z</time>
      </trkpt>
      <trkpt lat="45.89462" lon="1.29062">
        <ele>336.3</ele>
        <time>2025-06-16T13:41:12Z</time>
      </trkpt>
      <trkpt lat="45.89462" lon="1.29066">
        <ele>336.3</ele>
        <time>2025-06-16T13:41:13Z</time>
      </trkpt>
      <trkpt lat="45.89461" lon="1.29071">
        <ele>336.3</ele>
        <time>2025-06-16T13:41:14Z</time>
      </trkpt>
      <trkpt lat="45.8946" lon="1.29075">
        <ele>336.3</ele>
        <time>2025-06-16T13:41:15Z</time>
      </trkpt>
      <trkpt lat="45.89459" lon="1.29079">
        <ele>336.2</ele>
        <time>2025-06-16T13:41:16Z</time>
      </trkpt>
      <trkpt lat="45.89457" lon="1.29083">
        <ele>336.2</ele>
        <time>2025-06-16T13:41:17Z</time>
      </trkpt>
      <trkpt lat="45.89455" lon="1.29087">
        <ele>336</ele>
        <time>2025-06-16T13:41:18Z</time>
      </trkpt>
      <trkpt lat="45.89453" lon="1.29089">
        <ele>335.9</ele>
        <time>2025-06-16T13:41:19Z</time>
      </trkpt>
      <trkpt lat="45.8945" lon="1.29091">
        <ele>335.8</ele>
        <time>2025-06-16T13:41:20Z</time>
      </trkpt>
      <trkpt lat="45.89448" lon="1.29092">
        <ele>335.7</ele>
        <time>2025-06-16T13:41:21Z</time>
      </trkpt>
      <trkpt lat="45.89445" lon="1.29093">
        <ele>335.6</ele>
        <time>2025-06-16T13:41:22Z</time>
      </trkpt>
      <trkpt lat="45.89442" lon="1.29094">
        <ele>335.4</ele>
        <time>2025-06-16T13:41:23Z</time>
      </trkpt>
      <trkpt lat="45.89438" lon="1.29095">
        <ele>335.3</ele>
        <time>2025-06-16T13:41:24Z</time>
      </trkpt>
      <trkpt lat="45.89437" lon="1.29095">
        <ele>335.2</ele>
        <time>2025-06-16T13:41:25Z</time>
      </trkpt>
      <trkpt lat="45.89434" lon="1.29096">
        <ele>335.1</ele>
        <time>2025-06-16T13:41:26Z</time>
      </trkpt>
      <trkpt lat="45.89431" lon="1.29097">
        <ele>334.9</ele>
        <time>2025-06-16T13:41:27Z</time>
      </trkpt>
      <trkpt lat="45.89428" lon="1.29098">
        <ele>334.8</ele>
        <time>2025-06-16T13:41:28Z</time>
      </trkpt>
      <trkpt lat="45.89425" lon="1.291">
        <ele>334.6</ele>
        <time>2025-06-16T13:41:29Z</time>
      </trkpt>
      <trkpt lat="45.89421" lon="1.29101">
        <ele>334.4</ele>
        <time>2025-06-16T13:41:30Z</time>
      </trkpt>
      <trkpt lat="45.89417" lon="1.29103">
        <ele>334.2</ele>
        <time>2025-06-16T13:41:31Z</time>
      </trkpt>
      <trkpt lat="45.89413" lon="1.29104">
        <ele>334.1</ele>
        <time>2025-06-16T13:41:32Z</time>
      </trkpt>
      <trkpt lat="45.8941" lon="1.29106">
        <ele>333.9</ele>
        <time>2025-06-16T13:41:33Z</time>
      </trkpt>
      <trkpt lat="45.89406" lon="1.29108">
        <ele>333.8</ele>
        <time>2025-06-16T13:41:34Z</time>
      </trkpt>
      <trkpt lat="45.89402" lon="1.2911">
        <ele>333.7</ele>
        <time>2025-06-16T13:41:35Z</time>
      </trkpt>
      <trkpt lat="45.89398" lon="1.29111">
        <ele>333.6</ele>
        <time>2025-06-16T13:41:36Z</time>
      </trkpt>
      <trkpt lat="45.89394" lon="1.29114">
        <ele>333.5</ele>
        <time>2025-06-16T13:41:37Z</time>
      </trkpt>
      <trkpt lat="45.8939" lon="1.29117">
        <ele>333.5</ele>
        <time>2025-06-16T13:41:38Z</time>
      </trkpt>
      <trkpt lat="45.89387" lon="1.2912">
        <ele>333.5</ele>
        <time>2025-06-16T13:41:39Z</time>
      </trkpt>
      <trkpt lat="45.89384" lon="1.29122">
        <ele>333.4</ele>
        <time>2025-06-16T13:41:40Z</time>
      </trkpt>
      <trkpt lat="45.89382" lon="1.29126">
        <ele>333.4</ele>
        <time>2025-06-16T13:41:41Z</time>
      </trkpt>
      <trkpt lat="45.89381" lon="1.29127">
        <ele>333.4</ele>
        <time>2025-06-16T13:41:42Z</time>
      </trkpt>
      <trkpt lat="45.8938" lon="1.29128">
        <ele>333.4</ele>
        <time>2025-06-16T13:41:43Z</time>
      </trkpt>
      <trkpt lat="45.8938" lon="1.2913">
        <ele>333.4</ele>
        <time>2025-06-16T13:41:44Z</time>
      </trkpt>
      <trkpt lat="45.89379" lon="1.2913">
        <ele>333.4</ele>
        <time>2025-06-16T13:41:45Z</time>
      </trkpt>
      <trkpt lat="45.89378" lon="1.29131">
        <ele>333.4</ele>
        <time>2025-06-16T13:41:46Z</time>
      </trkpt>
      <trkpt lat="45.89379" lon="1.29131">
        <ele>333.4</ele>
        <time>2025-06-16T13:41:47Z</time>
      </trkpt>
      <trkpt lat="45.89379" lon="1.29131">
        <ele>333.4</ele>
        <time>2025-06-16T13:41:48Z</time>
      </trkpt>
      <trkpt lat="45.89379" lon="1.29131">
        <ele>333.4</ele>
        <time>2025-06-16T13:41:49Z</time>
      </trkpt>
      <trkpt lat="45.89379" lon="1.29131">
        <ele>333.4</ele>
        <time>2025-06-16T13:41:50Z</time>
      </trkpt>
      <trkpt lat="45.89379" lon="1.29131">
        <ele>333.4</ele>
        <time>2025-06-16T13:41:51Z</time>
      </trkpt>
      <trkpt lat="45.89379" lon="1.29131">
        <ele>333.4</ele>
        <time>2025-06-16T13:41:52Z</time>
      </trkpt>
      <trkpt lat="45.89379" lon="1.29131">
        <ele>333.4</ele>
        <time>2025-06-16T13:41:53Z</time>
      </trkpt>
      <trkpt lat="45.89379" lon="1.29131">
        <ele>333.4</ele>
        <time>2025-06-16T13:41:54Z</time>
      </trkpt>
      <trkpt lat="45.89379" lon="1.29131">
        <ele>333.4</ele>
        <time>2025-06-16T13:41:55Z</time>
      </trkpt>
      <trkpt lat="45.89379" lon="1.29131">
        <ele>333.4</ele>
        <time>2025-06-16T13:41:56Z</time>
      </trkpt>
      <trkpt lat="45.89379" lon="1.29131">
        <ele>333.4</ele>
        <time>2025-06-16T13:41:57Z</time>
      </trkpt>
      <trkpt lat="45.89379" lon="1.29131">
        <ele>333.4</ele>
        <time>2025-06-16T13:41:58Z</time>
      </trkpt>
      <trkpt lat="45.89379" lon="1.29131">
        <ele>333.4</ele>
        <time>2025-06-16T13:41:59Z</time>
      </trkpt>
      <trkpt lat="45.89379" lon="1.29131">
        <ele>333.4</ele>
        <time>2025-06-16T13:42:00Z</time>
      </trkpt>
      <trkpt lat="45.89379" lon="1.29132">
        <ele>333.4</ele>
        <time>2025-06-16T13:42:01Z</time>
      </trkpt>
      <trkpt lat="45.89378" lon="1.29132">
        <ele>333.3</ele>
        <time>2025-06-16T13:42:02Z</time>
      </trkpt>
      <trkpt lat="45.89377" lon="1.29132">
        <ele>333.3</ele>
        <time>2025-06-16T13:42:03Z</time>
      </trkpt>
      <trkpt lat="45.89377" lon="1.29132">
        <ele>333.3</ele>
        <time>2025-06-16T13:42:04Z</time>
      </trkpt>
      <trkpt lat="45.89376" lon="1.29133">
        <ele>333.3</ele>
        <time>2025-06-16T13:42:05Z</time>
      </trkpt>
      <trkpt lat="45.89375" lon="1.29133">
        <ele>333.3</ele>
        <time>2025-06-16T13:42:06Z</time>
      </trkpt>
      <trkpt lat="45.89375" lon="1.29133">
        <ele>333.3</ele>
        <time>2025-06-16T13:42:07Z</time>
      </trkpt>
      <trkpt lat="45.89375" lon="1.29133">
        <ele>333.3</ele>
        <time>2025-06-16T13:42:08Z</time>
      </trkpt>
      <trkpt lat="45.89375" lon="1.29133">
        <ele>333.3</ele>
        <time>2025-06-16T13:42:09Z</time>
      </trkpt>
      <trkpt lat="45.89374" lon="1.29134">
        <ele>333.3</ele>
        <time>2025-06-16T13:42:10Z</time>
      </trkpt>
      <trkpt lat="45.89374" lon="1.29134">
        <ele>333.3</ele>
        <time>2025-06-16T13:42:11Z</time>
      </trkpt>
      <trkpt lat="45.89374" lon="1.29134">
        <ele>333.3</ele>
        <time>2025-06-16T13:42:12Z</time>
      </trkpt>
      <trkpt lat="45.89373" lon="1.29134">
        <ele>333.3</ele>
        <time>2025-06-16T13:42:13Z</time>
      </trkpt>
      <trkpt lat="45.89373" lon="1.29134">
        <ele>333.3</ele>
        <time>2025-06-16T13:42:14Z</time>
      </trkpt>
      <trkpt lat="45.89373" lon="1.29135">
        <ele>333.3</ele>
        <time>2025-06-16T13:42:15Z</time>
      </trkpt>
      <trkpt lat="45.89373" lon="1.29135">
        <ele>333.2</ele>
        <time>2025-06-16T13:42:16Z</time>
      </trkpt>
      <trkpt lat="45.89372" lon="1.29135">
        <ele>333.2</ele>
        <time>2025-06-16T13:42:17Z</time>
      </trkpt>
      <trkpt lat="45.89369" lon="1.29135">
        <ele>333.2</ele>
        <time>2025-06-16T13:42:18Z</time>
      </trkpt>
      <trkpt lat="45.89366" lon="1.29134">
        <ele>333.1</ele>
        <time>2025-06-16T13:42:19Z</time>
      </trkpt>
      <trkpt lat="45.89362" lon="1.29133">
        <ele>333</ele>
        <time>2025-06-16T13:42:20Z</time>
      </trkpt>
      <trkpt lat="45.89358" lon="1.29132">
        <ele>332.9</ele>
        <time>2025-06-16T13:42:21Z</time>
      </trkpt>
      <trkpt lat="45.89353" lon="1.29132">
        <ele>332.8</ele>
        <time>2025-06-16T13:42:22Z</time>
      </trkpt>
      <trkpt lat="45.89348" lon="1.29133">
        <ele>332.6</ele>
        <time>2025-06-16T13:42:23Z</time>
      </trkpt>
      <trkpt lat="45.89342" lon="1.29136">
        <ele>332.5</ele>
        <time>2025-06-16T13:42:24Z</time>
      </trkpt>
      <trkpt lat="45.89338" lon="1.2914">
        <ele>332.5</ele>
        <time>2025-06-16T13:42:25Z</time>
      </trkpt>
      <trkpt lat="45.89334" lon="1.29147">
        <ele>332.5</ele>
        <time>2025-06-16T13:42:26Z</time>
      </trkpt>
      <trkpt lat="45.89331" lon="1.29156">
        <ele>332.5</ele>
        <time>2025-06-16T13:42:27Z</time>
      </trkpt>
      <trkpt lat="45.8933" lon="1.29164">
        <ele>332.5</ele>
        <time>2025-06-16T13:42:28Z</time>
      </trkpt>
      <trkpt lat="45.89331" lon="1.29173">
        <ele>332.6</ele>
        <time>2025-06-16T13:42:29Z</time>
      </trkpt>
      <trkpt lat="45.89334" lon="1.29182">
        <ele>332.6</ele>
        <time>2025-06-16T13:42:30Z</time>
      </trkpt>
      <trkpt lat="45.89337" lon="1.29189">
        <ele>332.7</ele>
        <time>2025-06-16T13:42:31Z</time>
      </trkpt>
      <trkpt lat="45.89342" lon="1.29196">
        <ele>332.8</ele>
        <time>2025-06-16T13:42:32Z</time>
      </trkpt>
      <trkpt lat="45.89347" lon="1.29201">
        <ele>332.9</ele>
        <time>2025-06-16T13:42:33Z</time>
      </trkpt>
      <trkpt lat="45.89353" lon="1.29206">
        <ele>333</ele>
        <time>2025-06-16T13:42:34Z</time>
      </trkpt>
      <trkpt lat="45.89358" lon="1.29211">
        <ele>333.1</ele>
        <time>2025-06-16T13:42:35Z</time>
      </trkpt>
      <trkpt lat="45.89363" lon="1.29218">
        <ele>333.2</ele>
        <time>2025-06-16T13:42:36Z</time>
      </trkpt>
      <trkpt lat="45.89365" lon="1.29227">
        <ele>333.3</ele>
        <time>2025-06-16T13:42:37Z</time>
      </trkpt>
      <trkpt lat="45.89368" lon="1.29235">
        <ele>333.4</ele>
        <time>2025-06-16T13:42:38Z</time>
      </trkpt>
      <trkpt lat="45.8937" lon="1.29245">
        <ele>333.5</ele>
        <time>2025-06-16T13:42:39Z</time>
      </trkpt>
      <trkpt lat="45.89372" lon="1.29254">
        <ele>333.7</ele>
        <time>2025-06-16T13:42:40Z</time>
      </trkpt>
      <trkpt lat="45.89373" lon="1.29262">
        <ele>333.8</ele>
        <time>2025-06-16T13:42:41Z</time>
      </trkpt>
      <trkpt lat="45.89375" lon="1.29271">
        <ele>333.9</ele>
        <time>2025-06-16T13:42:42Z</time>
      </trkpt>
      <trkpt lat="45.89377" lon="1.29279">
        <ele>334</ele>
        <time>2025-06-16T13:42:43Z</time>
      </trkpt>
      <trkpt lat="45.89379" lon="1.29288">
        <ele>334.1</ele>
        <time>2025-06-16T13:42:44Z</time>
      </trkpt>
      <trkpt lat="45.89381" lon="1.29296">
        <ele>334.4</ele>
        <time>2025-06-16T13:42:45Z</time>
      </trkpt>
      <trkpt lat="45.89383" lon="1.29305">
        <ele>334.6</ele>
        <time>2025-06-16T13:42:46Z</time>
      </trkpt>
      <trkpt lat="45.89384" lon="1.29314">
        <ele>334.8</ele>
        <time>2025-06-16T13:42:47Z</time>
      </trkpt>
      <trkpt lat="45.89383" lon="1.29323">
        <ele>335.1</ele>
        <time>2025-06-16T13:42:48Z</time>
      </trkpt>
      <trkpt lat="45.8938" lon="1.29332">
        <ele>335.2</ele>
        <time>2025-06-16T13:42:49Z</time>
      </trkpt>
      <trkpt lat="45.89377" lon="1.2934">
        <ele>335.3</ele>
        <time>2025-06-16T13:42:50Z</time>
      </trkpt>
      <trkpt lat="45.89374" lon="1.29347">
        <ele>335.3</ele>
        <time>2025-06-16T13:42:51Z</time>
      </trkpt>
      <trkpt lat="45.89373" lon="1.29356">
        <ele>335.4</ele>
        <time>2025-06-16T13:42:52Z</time>
      </trkpt>
      <trkpt lat="45.89373" lon="1.29364">
        <ele>335.4</ele>
        <time>2025-06-16T13:42:53Z</time>
      </trkpt>
      <trkpt lat="45.89374" lon="1.29371">
        <ele>335.5</ele>
        <time>2025-06-16T13:42:54Z</time>
      </trkpt>
      <trkpt lat="45.89376" lon="1.29377">
        <ele>335.5</ele>
        <time>2025-06-16T13:42:55Z</time>
      </trkpt>
      <trkpt lat="45.89378" lon="1.29382">
        <ele>335.5</ele>
        <time>2025-06-16T13:42:56Z</time>
      </trkpt>
      <trkpt lat="45.89381" lon="1.29388">
        <ele>335.5</ele>
        <time>2025-06-16T13:42:57Z</time>
      </trkpt>
      <trkpt lat="45.89384" lon="1.29393">
        <ele>335.5</ele>
        <time>2025-06-16T13:42:58Z</time>
      </trkpt>
      <trkpt lat="45.89388" lon="1.29395">
        <ele>335.5</ele>
        <time>2025-06-16T13:42:59Z</time>
      </trkpt>
      <trkpt lat="45.89393" lon="1.29398">
        <ele>335.5</ele>
        <time>2025-06-16T13:43:00Z</time>
      </trkpt>
      <trkpt lat="45.89398" lon="1.294">
        <ele>335.5</ele>
        <time>2025-06-16T13:43:01Z</time>
      </trkpt>
      <trkpt lat="45.89403" lon="1.29402">
        <ele>335.4</ele>
        <time>2025-06-16T13:43:02Z</time>
      </trkpt>
      <trkpt lat="45.89408" lon="1.29405">
        <ele>335.3</ele>
        <time>2025-06-16T13:43:03Z</time>
      </trkpt>
      <trkpt lat="45.89412" lon="1.2941">
        <ele>335.2</ele>
        <time>2025-06-16T13:43:04Z</time>
      </trkpt>
      <trkpt lat="45.89416" lon="1.29417">
        <ele>335.1</ele>
        <time>2025-06-16T13:43:05Z</time>
      </trkpt>
      <trkpt lat="45.89419" lon="1.29424">
        <ele>335</ele>
        <time>2025-06-16T13:43:06Z</time>
      </trkpt>
      <trkpt lat="45.89422" lon="1.29432">
        <ele>334.8</ele>
        <time>2025-06-16T13:43:07Z</time>
      </trkpt>
      <trkpt lat="45.89424" lon="1.2944">
        <ele>334.7</ele>
        <time>2025-06-16T13:43:08Z</time>
      </trkpt>
      <trkpt lat="45.89427" lon="1.29448">
        <ele>334.5</ele>
        <time>2025-06-16T13:43:09Z</time>
      </trkpt>
      <trkpt lat="45.89429" lon="1.29455">
        <ele>334.3</ele>
        <time>2025-06-16T13:43:10Z</time>
      </trkpt>
      <trkpt lat="45.89432" lon="1.29462">
        <ele>334.2</ele>
        <time>2025-06-16T13:43:11Z</time>
      </trkpt>
      <trkpt lat="45.89435" lon="1.29469">
        <ele>334</ele>
        <time>2025-06-16T13:43:12Z</time>
      </trkpt>
      <trkpt lat="45.89439" lon="1.29476">
        <ele>333.9</ele>
        <time>2025-06-16T13:43:13Z</time>
      </trkpt>
      <trkpt lat="45.89442" lon="1.29483">
        <ele>333.8</ele>
        <time>2025-06-16T13:43:14Z</time>
      </trkpt>
      <trkpt lat="45.89446" lon="1.29489">
        <ele>333.7</ele>
        <time>2025-06-16T13:43:15Z</time>
      </trkpt>
      <trkpt lat="45.8945" lon="1.29492">
        <ele>333.6</ele>
        <time>2025-06-16T13:43:16Z</time>
      </trkpt>
      <trkpt lat="45.89455" lon="1.29494">
        <ele>333.5</ele>
        <time>2025-06-16T13:43:17Z</time>
      </trkpt>
      <trkpt lat="45.8946" lon="1.29496">
        <ele>333.4</ele>
        <time>2025-06-16T13:43:18Z</time>
      </trkpt>
      <trkpt lat="45.89466" lon="1.29497">
        <ele>333.3</ele>
        <time>2025-06-16T13:43:19Z</time>
      </trkpt>
      <trkpt lat="45.89473" lon="1.29499">
        <ele>333.1</ele>
        <time>2025-06-16T13:43:20Z</time>
      </trkpt>
      <trkpt lat="45.89479" lon="1.295">
        <ele>332.9</ele>
        <time>2025-06-16T13:43:21Z</time>
      </trkpt>
      <trkpt lat="45.89485" lon="1.29501">
        <ele>332.7</ele>
        <time>2025-06-16T13:43:22Z</time>
      </trkpt>
      <trkpt lat="45.89492" lon="1.29502">
        <ele>332.6</ele>
        <time>2025-06-16T13:43:23Z</time>
      </trkpt>
      <trkpt lat="45.89499" lon="1.29503">
        <ele>332.4</ele>
        <time>2025-06-16T13:43:24Z</time>
      </trkpt>
      <trkpt lat="45.89505" lon="1.29503">
        <ele>332.3</ele>
        <time>2025-06-16T13:43:25Z</time>
      </trkpt>
      <trkpt lat="45.8951" lon="1.29503">
        <ele>332.1</ele>
        <time>2025-06-16T13:43:26Z</time>
      </trkpt>
      <trkpt lat="45.89516" lon="1.29505">
        <ele>332</ele>
        <time>2025-06-16T13:43:27Z</time>
      </trkpt>
      <trkpt lat="45.89522" lon="1.29505">
        <ele>331.8</ele>
        <time>2025-06-16T13:43:28Z</time>
      </trkpt>
      <trkpt lat="45.89529" lon="1.29506">
        <ele>331.6</ele>
        <time>2025-06-16T13:43:29Z</time>
      </trkpt>
      <trkpt lat="45.89536" lon="1.29507">
        <ele>331.4</ele>
        <time>2025-06-16T13:43:30Z</time>
      </trkpt>
      <trkpt lat="45.89542" lon="1.29507">
        <ele>331.2</ele>
        <time>2025-06-16T13:43:31Z</time>
      </trkpt>
      <trkpt lat="45.89548" lon="1.29509">
        <ele>331</ele>
        <time>2025-06-16T13:43:32Z</time>
      </trkpt>
      <trkpt lat="45.89555" lon="1.2951">
        <ele>330.9</ele>
        <time>2025-06-16T13:43:33Z</time>
      </trkpt>
      <trkpt lat="45.89561" lon="1.29512">
        <ele>330.7</ele>
        <time>2025-06-16T13:43:34Z</time>
      </trkpt>
      <trkpt lat="45.89566" lon="1.29514">
        <ele>330.6</ele>
        <time>2025-06-16T13:43:35Z</time>
      </trkpt>
      <trkpt lat="45.89572" lon="1.29515">
        <ele>330.5</ele>
        <time>2025-06-16T13:43:36Z</time>
      </trkpt>
      <trkpt lat="45.89578" lon="1.29516">
        <ele>330.3</ele>
        <time>2025-06-16T13:43:37Z</time>
      </trkpt>
      <trkpt lat="45.89584" lon="1.29518">
        <ele>330.2</ele>
        <time>2025-06-16T13:43:38Z</time>
      </trkpt>
      <trkpt lat="45.89591" lon="1.29521">
        <ele>330</ele>
        <time>2025-06-16T13:43:39Z</time>
      </trkpt>
      <trkpt lat="45.89597" lon="1.29523">
        <ele>329.9</ele>
        <time>2025-06-16T13:43:40Z</time>
      </trkpt>
      <trkpt lat="45.89604" lon="1.29525">
        <ele>329.8</ele>
        <time>2025-06-16T13:43:41Z</time>
      </trkpt>
      <trkpt lat="45.89608" lon="1.29528">
        <ele>329.7</ele>
        <time>2025-06-16T13:43:42Z</time>
      </trkpt>
      <trkpt lat="45.89613" lon="1.29529">
        <ele>329.7</ele>
        <time>2025-06-16T13:43:43Z</time>
      </trkpt>
      <trkpt lat="45.89619" lon="1.29531">
        <ele>329.6</ele>
        <time>2025-06-16T13:43:44Z</time>
      </trkpt>
      <trkpt lat="45.89625" lon="1.29531">
        <ele>329.5</ele>
        <time>2025-06-16T13:43:45Z</time>
      </trkpt>
      <trkpt lat="45.89631" lon="1.29533">
        <ele>329.5</ele>
        <time>2025-06-16T13:43:46Z</time>
      </trkpt>
      <trkpt lat="45.89639" lon="1.29535">
        <ele>329.4</ele>
        <time>2025-06-16T13:43:47Z</time>
      </trkpt>
      <trkpt lat="45.89645" lon="1.29537">
        <ele>329.4</ele>
        <time>2025-06-16T13:43:48Z</time>
      </trkpt>
      <trkpt lat="45.89652" lon="1.2954">
        <ele>329.4</ele>
        <time>2025-06-16T13:43:49Z</time>
      </trkpt>
      <trkpt lat="45.89658" lon="1.29542">
        <ele>329.4</ele>
        <time>2025-06-16T13:43:50Z</time>
      </trkpt>
      <trkpt lat="45.89664" lon="1.29544">
        <ele>329.4</ele>
        <time>2025-06-16T13:43:51Z</time>
      </trkpt>
      <trkpt lat="45.8967" lon="1.29547">
        <ele>329.4</ele>
        <time>2025-06-16T13:43:52Z</time>
      </trkpt>
      <trkpt lat="45.89676" lon="1.29549">
        <ele>329.5</ele>
        <time>2025-06-16T13:43:53Z</time>
      </trkpt>
      <trkpt lat="45.89681" lon="1.29551">
        <ele>329.5</ele>
        <time>2025-06-16T13:43:54Z</time>
      </trkpt>
      <trkpt lat="45.89686" lon="1.29553">
        <ele>329.5</ele>
        <time>2025-06-16T13:43:55Z</time>
      </trkpt>
      <trkpt lat="45.89691" lon="1.29556">
        <ele>329.5</ele>
        <time>2025-06-16T13:43:56Z</time>
      </trkpt>
      <trkpt lat="45.89696" lon="1.29558">
        <ele>329.6</ele>
        <time>2025-06-16T13:43:57Z</time>
      </trkpt>
      <trkpt lat="45.89701" lon="1.2956">
        <ele>329.6</ele>
        <time>2025-06-16T13:43:58Z</time>
      </trkpt>
      <trkpt lat="45.89706" lon="1.29561">
        <ele>329.6</ele>
        <time>2025-06-16T13:43:59Z</time>
      </trkpt>
      <trkpt lat="45.89712" lon="1.29564">
        <ele>329.6</ele>
        <time>2025-06-16T13:44:00Z</time>
      </trkpt>
      <trkpt lat="45.89717" lon="1.29566">
        <ele>329.6</ele>
        <time>2025-06-16T13:44:01Z</time>
      </trkpt>
      <trkpt lat="45.89722" lon="1.29567">
        <ele>329.6</ele>
        <time>2025-06-16T13:44:02Z</time>
      </trkpt>
      <trkpt lat="45.89727" lon="1.29569">
        <ele>329.5</ele>
        <time>2025-06-16T13:44:03Z</time>
      </trkpt>
      <trkpt lat="45.89733" lon="1.29572">
        <ele>329.4</ele>
        <time>2025-06-16T13:44:04Z</time>
      </trkpt>
      <trkpt lat="45.89738" lon="1.29576">
        <ele>329.3</ele>
        <time>2025-06-16T13:44:05Z</time>
      </trkpt>
      <trkpt lat="45.89744" lon="1.29579">
        <ele>329.2</ele>
        <time>2025-06-16T13:44:06Z</time>
      </trkpt>
      <trkpt lat="45.89749" lon="1.29582">
        <ele>329.1</ele>
        <time>2025-06-16T13:44:07Z</time>
      </trkpt>
      <trkpt lat="45.89755" lon="1.29585">
        <ele>329.1</ele>
        <time>2025-06-16T13:44:08Z</time>
      </trkpt>
      <trkpt lat="45.8976" lon="1.29587">
        <ele>329</ele>
        <time>2025-06-16T13:44:09Z</time>
      </trkpt>
      <trkpt lat="45.89767" lon="1.29589">
        <ele>329</ele>
        <time>2025-06-16T13:44:10Z</time>
      </trkpt>
      <trkpt lat="45.89773" lon="1.29592">
        <ele>328.9</ele>
        <time>2025-06-16T13:44:11Z</time>
      </trkpt>
      <trkpt lat="45.89778" lon="1.29595">
        <ele>328.9</ele>
        <time>2025-06-16T13:44:12Z</time>
      </trkpt>
      <trkpt lat="45.89783" lon="1.29598">
        <ele>328.8</ele>
        <time>2025-06-16T13:44:13Z</time>
      </trkpt>
      <trkpt lat="45.89787" lon="1.296">
        <ele>328.8</ele>
        <time>2025-06-16T13:44:14Z</time>
      </trkpt>
      <trkpt lat="45.89791" lon="1.29604">
        <ele>328.8</ele>
        <time>2025-06-16T13:44:15Z</time>
      </trkpt>
      <trkpt lat="45.89796" lon="1.29607">
        <ele>328.7</ele>
        <time>2025-06-16T13:44:16Z</time>
      </trkpt>
      <trkpt lat="45.898" lon="1.2961">
        <ele>328.7</ele>
        <time>2025-06-16T13:44:17Z</time>
      </trkpt>
      <trkpt lat="45.89805" lon="1.29613">
        <ele>328.7</ele>
        <time>2025-06-16T13:44:18Z</time>
      </trkpt>
      <trkpt lat="45.89811" lon="1.29616">
        <ele>328.6</ele>
        <time>2025-06-16T13:44:19Z</time>
      </trkpt>
      <trkpt lat="45.89816" lon="1.29618">
        <ele>328.6</ele>
        <time>2025-06-16T13:44:20Z</time>
      </trkpt>
      <trkpt lat="45.89821" lon="1.2962">
        <ele>328.6</ele>
        <time>2025-06-16T13:44:21Z</time>
      </trkpt>
      <trkpt lat="45.89826" lon="1.29623">
        <ele>328.6</ele>
        <time>2025-06-16T13:44:22Z</time>
      </trkpt>
      <trkpt lat="45.89831" lon="1.29627">
        <ele>328.6</ele>
        <time>2025-06-16T13:44:23Z</time>
      </trkpt>
      <trkpt lat="45.89837" lon="1.29629">
        <ele>328.5</ele>
        <time>2025-06-16T13:44:24Z</time>
      </trkpt>
      <trkpt lat="45.8984" lon="1.29632">
        <ele>328.5</ele>
        <time>2025-06-16T13:44:25Z</time>
      </trkpt>
      <trkpt lat="45.89846" lon="1.29635">
        <ele>328.5</ele>
        <time>2025-06-16T13:44:26Z</time>
      </trkpt>
      <trkpt lat="45.89851" lon="1.29638">
        <ele>328.5</ele>
        <time>2025-06-16T13:44:27Z</time>
      </trkpt>
      <trkpt lat="45.89856" lon="1.29641">
        <ele>328.4</ele>
        <time>2025-06-16T13:44:28Z</time>
      </trkpt>
      <trkpt lat="45.89861" lon="1.29643">
        <ele>328.4</ele>
        <time>2025-06-16T13:44:29Z</time>
      </trkpt>
      <trkpt lat="45.89867" lon="1.29646">
        <ele>328.4</ele>
        <time>2025-06-16T13:44:30Z</time>
      </trkpt>
      <trkpt lat="45.89873" lon="1.29649">
        <ele>328.4</ele>
        <time>2025-06-16T13:44:31Z</time>
      </trkpt>
      <trkpt lat="45.89878" lon="1.29651">
        <ele>328.4</ele>
        <time>2025-06-16T13:44:32Z</time>
      </trkpt>
      <trkpt lat="45.89882" lon="1.29653">
        <ele>328.4</ele>
        <time>2025-06-16T13:44:33Z</time>
      </trkpt>
      <trkpt lat="45.89886" lon="1.29655">
        <ele>328.4</ele>
        <time>2025-06-16T13:44:34Z</time>
      </trkpt>
      <trkpt lat="45.89892" lon="1.2966">
        <ele>328.4</ele>
        <time>2025-06-16T13:44:35Z</time>
      </trkpt>
      <trkpt lat="45.89898" lon="1.29664">
        <ele>328.4</ele>
        <time>2025-06-16T13:44:36Z</time>
      </trkpt>
      <trkpt lat="45.89904" lon="1.29666">
        <ele>328.4</ele>
        <time>2025-06-16T13:44:37Z</time>
      </trkpt>
      <trkpt lat="45.89909" lon="1.29669">
        <ele>328.4</ele>
        <time>2025-06-16T13:44:38Z</time>
      </trkpt>
      <trkpt lat="45.89915" lon="1.29672">
        <ele>328.5</ele>
        <time>2025-06-16T13:44:39Z</time>
      </trkpt>
      <trkpt lat="45.8992" lon="1.29673">
        <ele>328.5</ele>
        <time>2025-06-16T13:44:40Z</time>
      </trkpt>
      <trkpt lat="45.89925" lon="1.29675">
        <ele>328.5</ele>
        <time>2025-06-16T13:44:41Z</time>
      </trkpt>
      <trkpt lat="45.8993" lon="1.29676">
        <ele>328.5</ele>
        <time>2025-06-16T13:44:42Z</time>
      </trkpt>
      <trkpt lat="45.89935" lon="1.29678">
        <ele>328.5</ele>
        <time>2025-06-16T13:44:43Z</time>
      </trkpt>
      <trkpt lat="45.8994" lon="1.29681">
        <ele>328.5</ele>
        <time>2025-06-16T13:44:44Z</time>
      </trkpt>
      <trkpt lat="45.89945" lon="1.29683">
        <ele>328.5</ele>
        <time>2025-06-16T13:44:45Z</time>
      </trkpt>
      <trkpt lat="45.89949" lon="1.29684">
        <ele>328.5</ele>
        <time>2025-06-16T13:44:46Z</time>
      </trkpt>
      <trkpt lat="45.89954" lon="1.29686">
        <ele>328.6</ele>
        <time>2025-06-16T13:44:47Z</time>
      </trkpt>
      <trkpt lat="45.89959" lon="1.29688">
        <ele>328.6</ele>
        <time>2025-06-16T13:44:48Z</time>
      </trkpt>
      <trkpt lat="45.89964" lon="1.29691">
        <ele>328.6</ele>
        <time>2025-06-16T13:44:49Z</time>
      </trkpt>
      <trkpt lat="45.89969" lon="1.29693">
        <ele>328.7</ele>
        <time>2025-06-16T13:44:50Z</time>
      </trkpt>
      <trkpt lat="45.89973" lon="1.29695">
        <ele>328.7</ele>
        <time>2025-06-16T13:44:51Z</time>
      </trkpt>
      <trkpt lat="45.89978" lon="1.29697">
        <ele>328.7</ele>
        <time>2025-06-16T13:44:52Z</time>
      </trkpt>
      <trkpt lat="45.89983" lon="1.297">
        <ele>328.8</ele>
        <time>2025-06-16T13:44:53Z</time>
      </trkpt>
      <trkpt lat="45.89988" lon="1.29702">
        <ele>328.8</ele>
        <time>2025-06-16T13:44:54Z</time>
      </trkpt>
      <trkpt lat="45.89992" lon="1.29703">
        <ele>328.8</ele>
        <time>2025-06-16T13:44:55Z</time>
      </trkpt>
      <trkpt lat="45.89996" lon="1.29704">
        <ele>328.8</ele>
        <time>2025-06-16T13:44:56Z</time>
      </trkpt>
      <trkpt lat="45.90001" lon="1.29706">
        <ele>328.8</ele>
        <time>2025-06-16T13:44:57Z</time>
      </trkpt>
      <trkpt lat="45.90006" lon="1.29708">
        <ele>328.8</ele>
        <time>2025-06-16T13:44:58Z</time>
      </trkpt>
      <trkpt lat="45.9001" lon="1.2971">
        <ele>328.8</ele>
        <time>2025-06-16T13:44:59Z</time>
      </trkpt>
      <trkpt lat="45.90016" lon="1.29712">
        <ele>328.9</ele>
        <time>2025-06-16T13:45:00Z</time>
      </trkpt>
      <trkpt lat="45.90021" lon="1.29715">
        <ele>328.9</ele>
        <time>2025-06-16T13:45:01Z</time>
      </trkpt>
      <trkpt lat="45.90025" lon="1.29717">
        <ele>328.9</ele>
        <time>2025-06-16T13:45:02Z</time>
      </trkpt>
      <trkpt lat="45.9003" lon="1.29718">
        <ele>328.9</ele>
        <time>2025-06-16T13:45:03Z</time>
      </trkpt>
      <trkpt lat="45.90034" lon="1.2972">
        <ele>329</ele>
        <time>2025-06-16T13:45:04Z</time>
      </trkpt>
      <trkpt lat="45.90039" lon="1.29722">
        <ele>329</ele>
        <time>2025-06-16T13:45:05Z</time>
      </trkpt>
      <trkpt lat="45.90043" lon="1.29724">
        <ele>329.1</ele>
        <time>2025-06-16T13:45:06Z</time>
      </trkpt>
      <trkpt lat="45.90048" lon="1.29727">
        <ele>329.1</ele>
        <time>2025-06-16T13:45:07Z</time>
      </trkpt>
      <trkpt lat="45.90052" lon="1.29731">
        <ele>329.2</ele>
        <time>2025-06-16T13:45:08Z</time>
      </trkpt>
      <trkpt lat="45.90054" lon="1.29734">
        <ele>329.2</ele>
        <time>2025-06-16T13:45:09Z</time>
      </trkpt>
      <trkpt lat="45.90057" lon="1.29738">
        <ele>329.2</ele>
        <time>2025-06-16T13:45:10Z</time>
      </trkpt>
      <trkpt lat="45.90061" lon="1.29742">
        <ele>329.2</ele>
        <time>2025-06-16T13:45:11Z</time>
      </trkpt>
      <trkpt lat="45.90064" lon="1.29746">
        <ele>329.3</ele>
        <time>2025-06-16T13:45:12Z</time>
      </trkpt>
      <trkpt lat="45.90068" lon="1.29749">
        <ele>329.3</ele>
        <time>2025-06-16T13:45:13Z</time>
      </trkpt>
      <trkpt lat="45.90073" lon="1.29751">
        <ele>329.3</ele>
        <time>2025-06-16T13:45:14Z</time>
      </trkpt>
      <trkpt lat="45.90077" lon="1.29753">
        <ele>329.3</ele>
        <time>2025-06-16T13:45:15Z</time>
      </trkpt>
      <trkpt lat="45.90082" lon="1.29757">
        <ele>329.3</ele>
        <time>2025-06-16T13:45:16Z</time>
      </trkpt>
      <trkpt lat="45.90086" lon="1.29761">
        <ele>329.3</ele>
        <time>2025-06-16T13:45:17Z</time>
      </trkpt>
      <trkpt lat="45.90091" lon="1.29764">
        <ele>329.4</ele>
        <time>2025-06-16T13:45:18Z</time>
      </trkpt>
      <trkpt lat="45.90096" lon="1.29767">
        <ele>329.4</ele>
        <time>2025-06-16T13:45:19Z</time>
      </trkpt>
      <trkpt lat="45.90102" lon="1.2977">
        <ele>329.5</ele>
        <time>2025-06-16T13:45:20Z</time>
      </trkpt>
      <trkpt lat="45.90105" lon="1.29773">
        <ele>329.5</ele>
        <time>2025-06-16T13:45:21Z</time>
      </trkpt>
      <trkpt lat="45.9011" lon="1.29776">
        <ele>329.6</ele>
        <time>2025-06-16T13:45:22Z</time>
      </trkpt>
      <trkpt lat="45.90115" lon="1.29779">
        <ele>329.6</ele>
        <time>2025-06-16T13:45:23Z</time>
      </trkpt>
      <trkpt lat="45.90118" lon="1.29781">
        <ele>329.7</ele>
        <time>2025-06-16T13:45:24Z</time>
      </trkpt>
      <trkpt lat="45.90123" lon="1.29784">
        <ele>329.7</ele>
        <time>2025-06-16T13:45:25Z</time>
      </trkpt>
      <trkpt lat="45.90128" lon="1.29787">
        <ele>329.8</ele>
        <time>2025-06-16T13:45:26Z</time>
      </trkpt>
      <trkpt lat="45.90133" lon="1.29789">
        <ele>329.8</ele>
        <time>2025-06-16T13:45:27Z</time>
      </trkpt>
      <trkpt lat="45.90138" lon="1.29792">
        <ele>329.9</ele>
        <time>2025-06-16T13:45:28Z</time>
      </trkpt>
      <trkpt lat="45.90143" lon="1.29795">
        <ele>330</ele>
        <time>2025-06-16T13:45:29Z</time>
      </trkpt>
      <trkpt lat="45.90147" lon="1.29798">
        <ele>330</ele>
        <time>2025-06-16T13:45:30Z</time>
      </trkpt>
      <trkpt lat="45.90151" lon="1.298">
        <ele>330.1</ele>
        <time>2025-06-16T13:45:31Z</time>
      </trkpt>
      <trkpt lat="45.90155" lon="1.29803">
        <ele>330.2</ele>
        <time>2025-06-16T13:45:32Z</time>
      </trkpt>
      <trkpt lat="45.90158" lon="1.29806">
        <ele>330.2</ele>
        <time>2025-06-16T13:45:33Z</time>
      </trkpt>
      <trkpt lat="45.90161" lon="1.2981">
        <ele>330.3</ele>
        <time>2025-06-16T13:45:34Z</time>
      </trkpt>
      <trkpt lat="45.90165" lon="1.29812">
        <ele>330.3</ele>
        <time>2025-06-16T13:45:35Z</time>
      </trkpt>
      <trkpt lat="45.90168" lon="1.29814">
        <ele>330.4</ele>
        <time>2025-06-16T13:45:36Z</time>
      </trkpt>
      <trkpt lat="45.90172" lon="1.29816">
        <ele>330.4</ele>
        <time>2025-06-16T13:45:37Z</time>
      </trkpt>
      <trkpt lat="45.90175" lon="1.29818">
        <ele>330.4</ele>
        <time>2025-06-16T13:45:38Z</time>
      </trkpt>
      <trkpt lat="45.90179" lon="1.2982">
        <ele>330.5</ele>
        <time>2025-06-16T13:45:39Z</time>
      </trkpt>
      <trkpt lat="45.90182" lon="1.29822">
        <ele>330.5</ele>
        <time>2025-06-16T13:45:40Z</time>
      </trkpt>
      <trkpt lat="45.90186" lon="1.29825">
        <ele>330.6</ele>
        <time>2025-06-16T13:45:41Z</time>
      </trkpt>
      <trkpt lat="45.90191" lon="1.29828">
        <ele>330.7</ele>
        <time>2025-06-16T13:45:42Z</time>
      </trkpt>
      <trkpt lat="45.90195" lon="1.29831">
        <ele>330.8</ele>
        <time>2025-06-16T13:45:43Z</time>
      </trkpt>
      <trkpt lat="45.90199" lon="1.29833">
        <ele>330.9</ele>
        <time>2025-06-16T13:45:44Z</time>
      </trkpt>
      <trkpt lat="45.90203" lon="1.29836">
        <ele>331</ele>
        <time>2025-06-16T13:45:45Z</time>
      </trkpt>
      <trkpt lat="45.90207" lon="1.29838">
        <ele>331.1</ele>
        <time>2025-06-16T13:45:46Z</time>
      </trkpt>
      <trkpt lat="45.90211" lon="1.2984">
        <ele>331.2</ele>
        <time>2025-06-16T13:45:47Z</time>
      </trkpt>
      <trkpt lat="45.90214" lon="1.29843">
        <ele>331.3</ele>
        <time>2025-06-16T13:45:48Z</time>
      </trkpt>
      <trkpt lat="45.90218" lon="1.29846">
        <ele>331.5</ele>
        <time>2025-06-16T13:45:49Z</time>
      </trkpt>
      <trkpt lat="45.90221" lon="1.29848">
        <ele>331.6</ele>
        <time>2025-06-16T13:45:50Z</time>
      </trkpt>
      <trkpt lat="45.90225" lon="1.2985">
        <ele>331.7</ele>
        <time>2025-06-16T13:45:51Z</time>
      </trkpt>
      <trkpt lat="45.90228" lon="1.29852">
        <ele>331.8</ele>
        <time>2025-06-16T13:45:52Z</time>
      </trkpt>
      <trkpt lat="45.90229" lon="1.29852">
        <ele>331.9</ele>
        <time>2025-06-16T13:45:53Z</time>
      </trkpt>
      <trkpt lat="45.90232" lon="1.29854">
        <ele>332</ele>
        <time>2025-06-16T13:45:54Z</time>
      </trkpt>
      <trkpt lat="45.90235" lon="1.29856">
        <ele>332.1</ele>
        <time>2025-06-16T13:45:55Z</time>
      </trkpt>
      <trkpt lat="45.90238" lon="1.29858">
        <ele>332.2</ele>
        <time>2025-06-16T13:45:56Z</time>
      </trkpt>
      <trkpt lat="45.90241" lon="1.29859">
        <ele>332.3</ele>
        <time>2025-06-16T13:45:57Z</time>
      </trkpt>
      <trkpt lat="45.90245" lon="1.29862">
        <ele>332.4</ele>
        <time>2025-06-16T13:45:58Z</time>
      </trkpt>
      <trkpt lat="45.90248" lon="1.29864">
        <ele>332.5</ele>
        <time>2025-06-16T13:45:59Z</time>
      </trkpt>
      <trkpt lat="45.90251" lon="1.29866">
        <ele>332.6</ele>
        <time>2025-06-16T13:46:00Z</time>
      </trkpt>
      <trkpt lat="45.90254" lon="1.29868">
        <ele>332.7</ele>
        <time>2025-06-16T13:46:01Z</time>
      </trkpt>
      <trkpt lat="45.90257" lon="1.2987">
        <ele>332.8</ele>
        <time>2025-06-16T13:46:02Z</time>
      </trkpt>
      <trkpt lat="45.90261" lon="1.29873">
        <ele>332.9</ele>
        <time>2025-06-16T13:46:03Z</time>
      </trkpt>
      <trkpt lat="45.90263" lon="1.29875">
        <ele>333</ele>
        <time>2025-06-16T13:46:04Z</time>
      </trkpt>
      <trkpt lat="45.90266" lon="1.29876">
        <ele>333.1</ele>
        <time>2025-06-16T13:46:05Z</time>
      </trkpt>
      <trkpt lat="45.90269" lon="1.29879">
        <ele>333.3</ele>
        <time>2025-06-16T13:46:06Z</time>
      </trkpt>
      <trkpt lat="45.9027" lon="1.2988">
        <ele>333.3</ele>
        <time>2025-06-16T13:46:07Z</time>
      </trkpt>
      <trkpt lat="45.90272" lon="1.29882">
        <ele>333.4</ele>
        <time>2025-06-16T13:46:08Z</time>
      </trkpt>
      <trkpt lat="45.90273" lon="1.29883">
        <ele>333.5</ele>
        <time>2025-06-16T13:46:09Z</time>
      </trkpt>
      <trkpt lat="45.90276" lon="1.29885">
        <ele>333.6</ele>
        <time>2025-06-16T13:46:10Z</time>
      </trkpt>
      <trkpt lat="45.9028" lon="1.29888">
        <ele>333.7</ele>
        <time>2025-06-16T13:46:11Z</time>
      </trkpt>
      <trkpt lat="45.90283" lon="1.29891">
        <ele>333.9</ele>
        <time>2025-06-16T13:46:12Z</time>
      </trkpt>
      <trkpt lat="45.90287" lon="1.29893">
        <ele>334.1</ele>
        <time>2025-06-16T13:46:13Z</time>
      </trkpt>
      <trkpt lat="45.90291" lon="1.29895">
        <ele>334.2</ele>
        <time>2025-06-16T13:46:14Z</time>
      </trkpt>
      <trkpt lat="45.90294" lon="1.29898">
        <ele>334.4</ele>
        <time>2025-06-16T13:46:15Z</time>
      </trkpt>
      <trkpt lat="45.90297" lon="1.29899">
        <ele>334.5</ele>
        <time>2025-06-16T13:46:16Z</time>
      </trkpt>
      <trkpt lat="45.903" lon="1.29901">
        <ele>334.7</ele>
        <time>2025-06-16T13:46:17Z</time>
      </trkpt>
      <trkpt lat="45.90303" lon="1.29903">
        <ele>334.8</ele>
        <time>2025-06-16T13:46:18Z</time>
      </trkpt>
      <trkpt lat="45.90305" lon="1.29905">
        <ele>334.9</ele>
        <time>2025-06-16T13:46:19Z</time>
      </trkpt>
      <trkpt lat="45.90308" lon="1.29906">
        <ele>335.1</ele>
        <time>2025-06-16T13:46:20Z</time>
      </trkpt>
      <trkpt lat="45.90311" lon="1.29908">
        <ele>335.2</ele>
        <time>2025-06-16T13:46:21Z</time>
      </trkpt>
      <trkpt lat="45.90314" lon="1.2991">
        <ele>335.4</ele>
        <time>2025-06-16T13:46:22Z</time>
      </trkpt>
      <trkpt lat="45.90317" lon="1.29912">
        <ele>335.5</ele>
        <time>2025-06-16T13:46:23Z</time>
      </trkpt>
      <trkpt lat="45.90317" lon="1.2991">
        <ele>335.6</ele>
        <time>2025-06-16T13:46:24Z</time>
      </trkpt>
      <trkpt lat="45.90321" lon="1.29913">
        <ele>335.8</ele>
        <time>2025-06-16T13:46:26Z</time>
      </trkpt>
      <trkpt lat="45.90325" lon="1.29916">
        <ele>336</ele>
        <time>2025-06-16T13:46:27Z</time>
      </trkpt>
      <trkpt lat="45.90331" lon="1.29921">
        <ele>336.4</ele>
        <time>2025-06-16T13:46:28Z</time>
      </trkpt>
      <trkpt lat="45.90335" lon="1.29925">
        <ele>336.6</ele>
        <time>2025-06-16T13:46:30Z</time>
      </trkpt>
      <trkpt lat="45.90339" lon="1.29928">
        <ele>336.8</ele>
        <time>2025-06-16T13:46:31Z</time>
      </trkpt>
      <trkpt lat="45.90342" lon="1.2993">
        <ele>337</ele>
        <time>2025-06-16T13:46:32Z</time>
      </trkpt>
      <trkpt lat="45.90345" lon="1.29932">
        <ele>337.1</ele>
        <time>2025-06-16T13:46:33Z</time>
      </trkpt>
      <trkpt lat="45.90348" lon="1.29933">
        <ele>337.3</ele>
        <time>2025-06-16T13:46:34Z</time>
      </trkpt>
      <trkpt lat="45.90352" lon="1.29935">
        <ele>337.5</ele>
        <time>2025-06-16T13:46:35Z</time>
      </trkpt>
      <trkpt lat="45.90354" lon="1.29937">
        <ele>337.7</ele>
        <time>2025-06-16T13:46:36Z</time>
      </trkpt>
      <trkpt lat="45.90357" lon="1.29939">
        <ele>337.8</ele>
        <time>2025-06-16T13:46:37Z</time>
      </trkpt>
      <trkpt lat="45.90361" lon="1.29941">
        <ele>338.1</ele>
        <time>2025-06-16T13:46:38Z</time>
      </trkpt>
      <trkpt lat="45.90364" lon="1.29943">
        <ele>338.3</ele>
        <time>2025-06-16T13:46:39Z</time>
      </trkpt>
      <trkpt lat="45.90368" lon="1.29945">
        <ele>338.5</ele>
        <time>2025-06-16T13:46:40Z</time>
      </trkpt>
      <trkpt lat="45.90371" lon="1.29948">
        <ele>338.7</ele>
        <time>2025-06-16T13:46:41Z</time>
      </trkpt>
      <trkpt lat="45.90375" lon="1.2995">
        <ele>338.9</ele>
        <time>2025-06-16T13:46:42Z</time>
      </trkpt>
      <trkpt lat="45.90378" lon="1.29953">
        <ele>339.1</ele>
        <time>2025-06-16T13:46:43Z</time>
      </trkpt>
      <trkpt lat="45.90381" lon="1.29955">
        <ele>339.3</ele>
        <time>2025-06-16T13:46:44Z</time>
      </trkpt>
      <trkpt lat="45.90385" lon="1.29958">
        <ele>339.5</ele>
        <time>2025-06-16T13:46:45Z</time>
      </trkpt>
      <trkpt lat="45.90388" lon="1.2996">
        <ele>339.6</ele>
        <time>2025-06-16T13:46:46Z</time>
      </trkpt>
      <trkpt lat="45.90392" lon="1.29962">
        <ele>339.8</ele>
        <time>2025-06-16T13:46:47Z</time>
      </trkpt>
      <trkpt lat="45.90393" lon="1.29962">
        <ele>339.8</ele>
        <time>2025-06-16T13:46:48Z</time>
      </trkpt>
      <trkpt lat="45.90397" lon="1.29964">
        <ele>340</ele>
        <time>2025-06-16T13:46:49Z</time>
      </trkpt>
      <trkpt lat="45.90398" lon="1.29964">
        <ele>340.1</ele>
        <time>2025-06-16T13:46:50Z</time>
      </trkpt>
      <trkpt lat="45.90401" lon="1.29965">
        <ele>340.2</ele>
        <time>2025-06-16T13:46:51Z</time>
      </trkpt>
      <trkpt lat="45.90404" lon="1.29967">
        <ele>340.3</ele>
        <time>2025-06-16T13:46:52Z</time>
      </trkpt>
      <trkpt lat="45.90407" lon="1.2997">
        <ele>340.5</ele>
        <time>2025-06-16T13:46:53Z</time>
      </trkpt>
      <trkpt lat="45.90408" lon="1.29971">
        <ele>340.5</ele>
        <time>2025-06-16T13:46:54Z</time>
      </trkpt>
      <trkpt lat="45.90411" lon="1.29975">
        <ele>340.7</ele>
        <time>2025-06-16T13:46:55Z</time>
      </trkpt>
      <trkpt lat="45.90412" lon="1.29976">
        <ele>340.7</ele>
        <time>2025-06-16T13:46:56Z</time>
      </trkpt>
      <trkpt lat="45.90415" lon="1.29978">
        <ele>340.8</ele>
        <time>2025-06-16T13:46:57Z</time>
      </trkpt>
      <trkpt lat="45.90418" lon="1.2998">
        <ele>340.9</ele>
        <time>2025-06-16T13:46:58Z</time>
      </trkpt>
      <trkpt lat="45.90421" lon="1.29982">
        <ele>341</ele>
        <time>2025-06-16T13:46:59Z</time>
      </trkpt>
      <trkpt lat="45.90422" lon="1.29983">
        <ele>341</ele>
        <time>2025-06-16T13:47:00Z</time>
      </trkpt>
      <trkpt lat="45.90424" lon="1.29985">
        <ele>341</ele>
        <time>2025-06-16T13:47:01Z</time>
      </trkpt>
      <trkpt lat="45.90427" lon="1.29986">
        <ele>341.1</ele>
        <time>2025-06-16T13:47:02Z</time>
      </trkpt>
      <trkpt lat="45.90431" lon="1.29989">
        <ele>341.1</ele>
        <time>2025-06-16T13:47:03Z</time>
      </trkpt>
      <trkpt lat="45.90432" lon="1.29989">
        <ele>341.1</ele>
        <time>2025-06-16T13:47:04Z</time>
      </trkpt>
      <trkpt lat="45.90434" lon="1.29991">
        <ele>341.1</ele>
        <time>2025-06-16T13:47:05Z</time>
      </trkpt>
      <trkpt lat="45.90437" lon="1.29993">
        <ele>341.2</ele>
        <time>2025-06-16T13:47:06Z</time>
      </trkpt>
      <trkpt lat="45.9044" lon="1.29996">
        <ele>341.2</ele>
        <time>2025-06-16T13:47:07Z</time>
      </trkpt>
      <trkpt lat="45.90441" lon="1.29996">
        <ele>341.2</ele>
        <time>2025-06-16T13:47:08Z</time>
      </trkpt>
      <trkpt lat="45.90444" lon="1.29998">
        <ele>341.2</ele>
        <time>2025-06-16T13:47:09Z</time>
      </trkpt>
      <trkpt lat="45.90445" lon="1.29999">
        <ele>341.2</ele>
        <time>2025-06-16T13:47:10Z</time>
      </trkpt>
      <trkpt lat="45.90448" lon="1.30001">
        <ele>341.2</ele>
        <time>2025-06-16T13:47:11Z</time>
      </trkpt>
      <trkpt lat="45.90451" lon="1.30004">
        <ele>341.2</ele>
        <time>2025-06-16T13:47:12Z</time>
      </trkpt>
      <trkpt lat="45.90454" lon="1.30006">
        <ele>341.1</ele>
        <time>2025-06-16T13:47:13Z</time>
      </trkpt>
      <trkpt lat="45.90458" lon="1.30008">
        <ele>341.1</ele>
        <time>2025-06-16T13:47:14Z</time>
      </trkpt>
      <trkpt lat="45.90461" lon="1.3001">
        <ele>341.1</ele>
        <time>2025-06-16T13:47:15Z</time>
      </trkpt>
      <trkpt lat="45.90465" lon="1.30013">
        <ele>341.1</ele>
        <time>2025-06-16T13:47:16Z</time>
      </trkpt>
      <trkpt lat="45.90468" lon="1.30015">
        <ele>341.1</ele>
        <time>2025-06-16T13:47:17Z</time>
      </trkpt>
      <trkpt lat="45.90471" lon="1.30017">
        <ele>341.1</ele>
        <time>2025-06-16T13:47:18Z</time>
      </trkpt>
      <trkpt lat="45.90475" lon="1.3002">
        <ele>341.1</ele>
        <time>2025-06-16T13:47:19Z</time>
      </trkpt>
      <trkpt lat="45.9048" lon="1.30022">
        <ele>341.1</ele>
        <time>2025-06-16T13:47:20Z</time>
      </trkpt>
      <trkpt lat="45.90484" lon="1.30023">
        <ele>341.1</ele>
        <time>2025-06-16T13:47:21Z</time>
      </trkpt>
      <trkpt lat="45.90487" lon="1.30025">
        <ele>341.1</ele>
        <time>2025-06-16T13:47:22Z</time>
      </trkpt>
      <trkpt lat="45.90491" lon="1.30027">
        <ele>341.1</ele>
        <time>2025-06-16T13:47:23Z</time>
      </trkpt>
      <trkpt lat="45.90495" lon="1.3003">
        <ele>341.1</ele>
        <time>2025-06-16T13:47:24Z</time>
      </trkpt>
      <trkpt lat="45.905" lon="1.30032">
        <ele>341.1</ele>
        <time>2025-06-16T13:47:25Z</time>
      </trkpt>
      <trkpt lat="45.90504" lon="1.30035">
        <ele>341.1</ele>
        <time>2025-06-16T13:47:26Z</time>
      </trkpt>
      <trkpt lat="45.90507" lon="1.30036">
        <ele>341</ele>
        <time>2025-06-16T13:47:27Z</time>
      </trkpt>
      <trkpt lat="45.90509" lon="1.3004">
        <ele>341</ele>
        <time>2025-06-16T13:47:28Z</time>
      </trkpt>
      <trkpt lat="45.90513" lon="1.30043">
        <ele>341</ele>
        <time>2025-06-16T13:47:29Z</time>
      </trkpt>
      <trkpt lat="45.90516" lon="1.30045">
        <ele>341</ele>
        <time>2025-06-16T13:47:30Z</time>
      </trkpt>
      <trkpt lat="45.90519" lon="1.30048">
        <ele>341</ele>
        <time>2025-06-16T13:47:31Z</time>
      </trkpt>
      <trkpt lat="45.90523" lon="1.3005">
        <ele>341</ele>
        <time>2025-06-16T13:47:32Z</time>
      </trkpt>
      <trkpt lat="45.90526" lon="1.30053">
        <ele>341</ele>
        <time>2025-06-16T13:47:33Z</time>
      </trkpt>
      <trkpt lat="45.9053" lon="1.30055">
        <ele>341</ele>
        <time>2025-06-16T13:47:34Z</time>
      </trkpt>
      <trkpt lat="45.90535" lon="1.30056">
        <ele>341</ele>
        <time>2025-06-16T13:47:35Z</time>
      </trkpt>
      <trkpt lat="45.90539" lon="1.30056">
        <ele>341</ele>
        <time>2025-06-16T13:47:36Z</time>
      </trkpt>
      <trkpt lat="45.90543" lon="1.30056">
        <ele>341</ele>
        <time>2025-06-16T13:47:37Z</time>
      </trkpt>
      <trkpt lat="45.90546" lon="1.30056">
        <ele>341.1</ele>
        <time>2025-06-16T13:47:38Z</time>
      </trkpt>
      <trkpt lat="45.9055" lon="1.30056">
        <ele>341.1</ele>
        <time>2025-06-16T13:47:39Z</time>
      </trkpt>
      <trkpt lat="45.90553" lon="1.30056">
        <ele>341.1</ele>
        <time>2025-06-16T13:47:40Z</time>
      </trkpt>
      <trkpt lat="45.90557" lon="1.30055">
        <ele>341.1</ele>
        <time>2025-06-16T13:47:41Z</time>
      </trkpt>
      <trkpt lat="45.90561" lon="1.30055">
        <ele>341</ele>
        <time>2025-06-16T13:47:42Z</time>
      </trkpt>
      <trkpt lat="45.90565" lon="1.30055">
        <ele>341</ele>
        <time>2025-06-16T13:47:43Z</time>
      </trkpt>
      <trkpt lat="45.90568" lon="1.30054">
        <ele>341</ele>
        <time>2025-06-16T13:47:44Z</time>
      </trkpt>
      <trkpt lat="45.90572" lon="1.30054">
        <ele>341</ele>
        <time>2025-06-16T13:47:45Z</time>
      </trkpt>
      <trkpt lat="45.90576" lon="1.30054">
        <ele>340.9</ele>
        <time>2025-06-16T13:47:46Z</time>
      </trkpt>
      <trkpt lat="45.90579" lon="1.30054">
        <ele>340.9</ele>
        <time>2025-06-16T13:47:47Z</time>
      </trkpt>
      <trkpt lat="45.90584" lon="1.30053">
        <ele>340.8</ele>
        <time>2025-06-16T13:47:48Z</time>
      </trkpt>
      <trkpt lat="45.90588" lon="1.30052">
        <ele>340.8</ele>
        <time>2025-06-16T13:47:49Z</time>
      </trkpt>
      <trkpt lat="45.90592" lon="1.30051">
        <ele>340.7</ele>
        <time>2025-06-16T13:47:50Z</time>
      </trkpt>
      <trkpt lat="45.90596" lon="1.30051">
        <ele>340.7</ele>
        <time>2025-06-16T13:47:51Z</time>
      </trkpt>
      <trkpt lat="45.906" lon="1.30051">
        <ele>340.6</ele>
        <time>2025-06-16T13:47:52Z</time>
      </trkpt>
      <trkpt lat="45.90603" lon="1.30052">
        <ele>340.6</ele>
        <time>2025-06-16T13:47:53Z</time>
      </trkpt>
      <trkpt lat="45.90607" lon="1.30051">
        <ele>340.6</ele>
        <time>2025-06-16T13:47:54Z</time>
      </trkpt>
      <trkpt lat="45.90611" lon="1.30051">
        <ele>340.6</ele>
        <time>2025-06-16T13:47:55Z</time>
      </trkpt>
      <trkpt lat="45.90612" lon="1.30051">
        <ele>340.6</ele>
        <time>2025-06-16T13:47:56Z</time>
      </trkpt>
      <trkpt lat="45.90616" lon="1.30051">
        <ele>340.6</ele>
        <time>2025-06-16T13:47:57Z</time>
      </trkpt>
      <trkpt lat="45.90617" lon="1.30051">
        <ele>340.6</ele>
        <time>2025-06-16T13:47:58Z</time>
      </trkpt>
      <trkpt lat="45.90621" lon="1.3005">
        <ele>340.7</ele>
        <time>2025-06-16T13:47:59Z</time>
      </trkpt>
      <trkpt lat="45.90624" lon="1.3005">
        <ele>340.7</ele>
        <time>2025-06-16T13:48:00Z</time>
      </trkpt>
      <trkpt lat="45.90628" lon="1.30049">
        <ele>340.7</ele>
        <time>2025-06-16T13:48:01Z</time>
      </trkpt>
      <trkpt lat="45.90632" lon="1.30048">
        <ele>340.7</ele>
        <time>2025-06-16T13:48:02Z</time>
      </trkpt>
      <trkpt lat="45.90635" lon="1.30047">
        <ele>340.7</ele>
        <time>2025-06-16T13:48:03Z</time>
      </trkpt>
      <trkpt lat="45.90639" lon="1.30047">
        <ele>340.8</ele>
        <time>2025-06-16T13:48:04Z</time>
      </trkpt>
      <trkpt lat="45.90642" lon="1.30046">
        <ele>340.8</ele>
        <time>2025-06-16T13:48:05Z</time>
      </trkpt>
      <trkpt lat="45.90646" lon="1.30045">
        <ele>340.8</ele>
        <time>2025-06-16T13:48:06Z</time>
      </trkpt>
      <trkpt lat="45.90649" lon="1.30044">
        <ele>340.9</ele>
        <time>2025-06-16T13:48:07Z</time>
      </trkpt>
      <trkpt lat="45.90651" lon="1.30044">
        <ele>340.9</ele>
        <time>2025-06-16T13:48:08Z</time>
      </trkpt>
      <trkpt lat="45.90654" lon="1.30043">
        <ele>340.9</ele>
        <time>2025-06-16T13:48:09Z</time>
      </trkpt>
      <trkpt lat="45.90658" lon="1.30042">
        <ele>340.9</ele>
        <time>2025-06-16T13:48:10Z</time>
      </trkpt>
      <trkpt lat="45.90659" lon="1.30041">
        <ele>341</ele>
        <time>2025-06-16T13:48:11Z</time>
      </trkpt>
      <trkpt lat="45.90663" lon="1.3004">
        <ele>341</ele>
        <time>2025-06-16T13:48:12Z</time>
      </trkpt>
      <trkpt lat="45.90664" lon="1.30039">
        <ele>341</ele>
        <time>2025-06-16T13:48:13Z</time>
      </trkpt>
      <trkpt lat="45.90668" lon="1.30038">
        <ele>341.1</ele>
        <time>2025-06-16T13:48:14Z</time>
      </trkpt>
      <trkpt lat="45.90672" lon="1.30037">
        <ele>341.1</ele>
        <time>2025-06-16T13:48:15Z</time>
      </trkpt>
      <trkpt lat="45.90676" lon="1.30036">
        <ele>341.2</ele>
        <time>2025-06-16T13:48:16Z</time>
      </trkpt>
      <trkpt lat="45.90679" lon="1.30035">
        <ele>341.2</ele>
        <time>2025-06-16T13:48:17Z</time>
      </trkpt>
      <trkpt lat="45.90683" lon="1.30034">
        <ele>341.3</ele>
        <time>2025-06-16T13:48:18Z</time>
      </trkpt>
      <trkpt lat="45.90686" lon="1.30034">
        <ele>341.3</ele>
        <time>2025-06-16T13:48:19Z</time>
      </trkpt>
      <trkpt lat="45.90689" lon="1.30033">
        <ele>341.4</ele>
        <time>2025-06-16T13:48:20Z</time>
      </trkpt>
      <trkpt lat="45.90692" lon="1.30032">
        <ele>341.4</ele>
        <time>2025-06-16T13:48:21Z</time>
      </trkpt>
      <trkpt lat="45.90696" lon="1.30031">
        <ele>341.5</ele>
        <time>2025-06-16T13:48:22Z</time>
      </trkpt>
      <trkpt lat="45.90699" lon="1.3003">
        <ele>341.5</ele>
        <time>2025-06-16T13:48:23Z</time>
      </trkpt>
      <trkpt lat="45.90703" lon="1.30029">
        <ele>341.6</ele>
        <time>2025-06-16T13:48:24Z</time>
      </trkpt>
      <trkpt lat="45.90707" lon="1.30027">
        <ele>341.7</ele>
        <time>2025-06-16T13:48:25Z</time>
      </trkpt>
      <trkpt lat="45.90712" lon="1.30026">
        <ele>341.7</ele>
        <time>2025-06-16T13:48:26Z</time>
      </trkpt>
      <trkpt lat="45.90716" lon="1.30024">
        <ele>341.8</ele>
        <time>2025-06-16T13:48:27Z</time>
      </trkpt>
      <trkpt lat="45.90721" lon="1.30023">
        <ele>341.8</ele>
        <time>2025-06-16T13:48:28Z</time>
      </trkpt>
      <trkpt lat="45.90725" lon="1.30021">
        <ele>341.9</ele>
        <time>2025-06-16T13:48:29Z</time>
      </trkpt>
      <trkpt lat="45.90729" lon="1.30019">
        <ele>341.9</ele>
        <time>2025-06-16T13:48:30Z</time>
      </trkpt>
      <trkpt lat="45.90732" lon="1.30018">
        <ele>341.8</ele>
        <time>2025-06-16T13:48:31Z</time>
      </trkpt>
      <trkpt lat="45.90736" lon="1.30016">
        <ele>341.7</ele>
        <time>2025-06-16T13:48:32Z</time>
      </trkpt>
      <trkpt lat="45.9074" lon="1.30014">
        <ele>341.6</ele>
        <time>2025-06-16T13:48:33Z</time>
      </trkpt>
      <trkpt lat="45.90745" lon="1.30013">
        <ele>341.5</ele>
        <time>2025-06-16T13:48:34Z</time>
      </trkpt>
      <trkpt lat="45.9075" lon="1.30012">
        <ele>341.3</ele>
        <time>2025-06-16T13:48:35Z</time>
      </trkpt>
      <trkpt lat="45.90755" lon="1.3001">
        <ele>341.1</ele>
        <time>2025-06-16T13:48:36Z</time>
      </trkpt>
      <trkpt lat="45.90761" lon="1.30007">
        <ele>341</ele>
        <time>2025-06-16T13:48:37Z</time>
      </trkpt>
      <trkpt lat="45.90766" lon="1.30005">
        <ele>340.8</ele>
        <time>2025-06-16T13:48:38Z</time>
      </trkpt>
      <trkpt lat="45.90771" lon="1.30002">
        <ele>340.8</ele>
        <time>2025-06-16T13:48:39Z</time>
      </trkpt>
      <trkpt lat="45.90776" lon="1.3">
        <ele>340.7</ele>
        <time>2025-06-16T13:48:40Z</time>
      </trkpt>
      <trkpt lat="45.90781" lon="1.29998">
        <ele>340.7</ele>
        <time>2025-06-16T13:48:41Z</time>
      </trkpt>
      <trkpt lat="45.90786" lon="1.29996">
        <ele>340.8</ele>
        <time>2025-06-16T13:48:42Z</time>
      </trkpt>
      <trkpt lat="45.90791" lon="1.29994">
        <ele>340.8</ele>
        <time>2025-06-16T13:48:43Z</time>
      </trkpt>
      <trkpt lat="45.90795" lon="1.29992">
        <ele>340.9</ele>
        <time>2025-06-16T13:48:44Z</time>
      </trkpt>
      <trkpt lat="45.90799" lon="1.2999">
        <ele>341</ele>
        <time>2025-06-16T13:48:45Z</time>
      </trkpt>
      <trkpt lat="45.90802" lon="1.29989">
        <ele>341</ele>
        <time>2025-06-16T13:48:46Z</time>
      </trkpt>
      <trkpt lat="45.90805" lon="1.29988">
        <ele>341.1</ele>
        <time>2025-06-16T13:48:47Z</time>
      </trkpt>
      <trkpt lat="45.90808" lon="1.29987">
        <ele>341.2</ele>
        <time>2025-06-16T13:48:48Z</time>
      </trkpt>
      <trkpt lat="45.90809" lon="1.29987">
        <ele>341.1</ele>
        <time>2025-06-16T13:48:49Z</time>
      </trkpt>
      <trkpt lat="45.90811" lon="1.29989">
        <ele>341.1</ele>
        <time>2025-06-16T13:48:50Z</time>
      </trkpt>
      <trkpt lat="45.90813" lon="1.29992">
        <ele>341</ele>
        <time>2025-06-16T13:48:51Z</time>
      </trkpt>
      <trkpt lat="45.90815" lon="1.29996">
        <ele>340.9</ele>
        <time>2025-06-16T13:48:52Z</time>
      </trkpt>
      <trkpt lat="45.90817" lon="1.3">
        <ele>340.9</ele>
        <time>2025-06-16T13:48:53Z</time>
      </trkpt>
      <trkpt lat="45.90818" lon="1.30004">
        <ele>340.7</ele>
        <time>2025-06-16T13:48:54Z</time>
      </trkpt>
      <trkpt lat="45.9082" lon="1.30008">
        <ele>340.6</ele>
        <time>2025-06-16T13:48:55Z</time>
      </trkpt>
      <trkpt lat="45.90821" lon="1.30012">
        <ele>340.5</ele>
        <time>2025-06-16T13:48:56Z</time>
      </trkpt>
      <trkpt lat="45.9082" lon="1.30017">
        <ele>340.4</ele>
        <time>2025-06-16T13:48:57Z</time>
      </trkpt>
      <trkpt lat="45.90819" lon="1.30022">
        <ele>340.3</ele>
        <time>2025-06-16T13:48:58Z</time>
      </trkpt>
      <trkpt lat="45.9082" lon="1.30026">
        <ele>340.2</ele>
        <time>2025-06-16T13:48:59Z</time>
      </trkpt>
      <trkpt lat="45.90822" lon="1.3003">
        <ele>340</ele>
        <time>2025-06-16T13:49:00Z</time>
      </trkpt>
      <trkpt lat="45.90823" lon="1.30032">
        <ele>340</ele>
        <time>2025-06-16T13:49:01Z</time>
      </trkpt>
      <trkpt lat="45.90825" lon="1.30035">
        <ele>339.9</ele>
        <time>2025-06-16T13:49:02Z</time>
      </trkpt>
      <trkpt lat="45.90826" lon="1.30036">
        <ele>339.8</ele>
        <time>2025-06-16T13:49:03Z</time>
      </trkpt>
      <trkpt lat="45.90826" lon="1.30036">
        <ele>339.8</ele>
        <time>2025-06-16T13:49:04Z</time>
      </trkpt>
      <trkpt lat="45.90826" lon="1.30036">
        <ele>339.8</ele>
        <time>2025-06-16T13:49:05Z</time>
      </trkpt>
      <trkpt lat="45.90826" lon="1.30036">
        <ele>339.8</ele>
        <time>2025-06-16T13:49:06Z</time>
      </trkpt>
      <trkpt lat="45.90826" lon="1.30036">
        <ele>339.8</ele>
        <time>2025-06-16T13:49:07Z</time>
      </trkpt>
      <trkpt lat="45.90826" lon="1.30036">
        <ele>339.8</ele>
        <time>2025-06-16T13:49:08Z</time>
      </trkpt>
      <trkpt lat="45.90826" lon="1.30036">
        <ele>339.8</ele>
        <time>2025-06-16T13:49:09Z</time>
      </trkpt>
      <trkpt lat="45.90826" lon="1.30036">
        <ele>339.8</ele>
        <time>2025-06-16T13:49:10Z</time>
      </trkpt>
      <trkpt lat="45.90826" lon="1.30036">
        <ele>339.8</ele>
        <time>2025-06-16T13:49:11Z</time>
      </trkpt>
      <trkpt lat="45.90826" lon="1.30035">
        <ele>339.8</ele>
        <time>2025-06-16T13:49:12Z</time>
      </trkpt>
      <trkpt lat="45.90826" lon="1.30035">
        <ele>339.8</ele>
        <time>2025-06-16T13:49:13Z</time>
      </trkpt>
      <trkpt lat="45.90826" lon="1.30035">
        <ele>339.8</ele>
        <time>2025-06-16T13:49:14Z</time>
      </trkpt>
      <trkpt lat="45.90826" lon="1.30035">
        <ele>339.8</ele>
        <time>2025-06-16T13:49:15Z</time>
      </trkpt>
      <trkpt lat="45.90826" lon="1.30035">
        <ele>339.8</ele>
        <time>2025-06-16T13:49:16Z</time>
      </trkpt>
      <trkpt lat="45.90826" lon="1.30035">
        <ele>339.8</ele>
        <time>2025-06-16T13:49:17Z</time>
      </trkpt>
      <trkpt lat="45.90826" lon="1.30035">
        <ele>339.8</ele>
        <time>2025-06-16T13:49:18Z</time>
      </trkpt>
      <trkpt lat="45.90826" lon="1.30035">
        <ele>339.8</ele>
        <time>2025-06-16T13:49:19Z</time>
      </trkpt>
      <trkpt lat="45.90826" lon="1.30035">
        <ele>339.8</ele>
        <time>2025-06-16T13:49:20Z</time>
      </trkpt>
      <trkpt lat="45.90826" lon="1.30035">
        <ele>339.8</ele>
        <time>2025-06-16T13:49:21Z</time>
      </trkpt>
      <trkpt lat="45.90826" lon="1.30035">
        <ele>339.8</ele>
        <time>2025-06-16T13:49:22Z</time>
      </trkpt>
      <trkpt lat="45.90826" lon="1.30034">
        <ele>339.8</ele>
        <time>2025-06-16T13:49:23Z</time>
      </trkpt>
      <trkpt lat="45.90826" lon="1.30034">
        <ele>339.8</ele>
        <time>2025-06-16T13:49:24Z</time>
      </trkpt>
      <trkpt lat="45.90826" lon="1.30034">
        <ele>339.8</ele>
        <time>2025-06-16T13:49:25Z</time>
      </trkpt>
      <trkpt lat="45.90826" lon="1.30034">
        <ele>339.8</ele>
        <time>2025-06-16T13:49:26Z</time>
      </trkpt>
      <trkpt lat="45.90826" lon="1.30034">
        <ele>339.8</ele>
        <time>2025-06-16T13:49:27Z</time>
      </trkpt>
      <trkpt lat="45.90826" lon="1.30034">
        <ele>339.8</ele>
        <time>2025-06-16T13:49:28Z</time>
      </trkpt>
      <trkpt lat="45.90826" lon="1.30034">
        <ele>339.8</ele>
        <time>2025-06-16T13:49:29Z</time>
      </trkpt>
      <trkpt lat="45.90826" lon="1.30034">
        <ele>339.8</ele>
        <time>2025-06-16T13:49:30Z</time>
      </trkpt>
      <trkpt lat="45.90826" lon="1.30034">
        <ele>339.7</ele>
        <time>2025-06-16T13:49:31Z</time>
      </trkpt>
      <trkpt lat="45.90826" lon="1.30034">
        <ele>339.7</ele>
        <time>2025-06-16T13:49:32Z</time>
      </trkpt>
      <trkpt lat="45.90826" lon="1.30034">
        <ele>339.7</ele>
        <time>2025-06-16T13:49:33Z</time>
      </trkpt>
      <trkpt lat="45.90826" lon="1.30033">
        <ele>339.7</ele>
        <time>2025-06-16T13:49:34Z</time>
      </trkpt>
      <trkpt lat="45.90826" lon="1.30033">
        <ele>339.7</ele>
        <time>2025-06-16T13:49:35Z</time>
      </trkpt>
      <trkpt lat="45.90826" lon="1.30033">
        <ele>339.7</ele>
        <time>2025-06-16T13:49:36Z</time>
      </trkpt>
      <trkpt lat="45.90826" lon="1.30033">
        <ele>339.7</ele>
        <time>2025-06-16T13:49:37Z</time>
      </trkpt>
      <trkpt lat="45.90826" lon="1.30033">
        <ele>339.7</ele>
        <time>2025-06-16T13:49:38Z</time>
      </trkpt>
      <trkpt lat="45.90826" lon="1.30033">
        <ele>339.7</ele>
        <time>2025-06-16T13:49:39Z</time>
      </trkpt>
      <trkpt lat="45.90826" lon="1.30033">
        <ele>339.7</ele>
        <time>2025-06-16T13:49:40Z</time>
      </trkpt>
      <trkpt lat="45.90826" lon="1.30033">
        <ele>339.7</ele>
        <time>2025-06-16T13:49:41Z</time>
      </trkpt>
      <trkpt lat="45.90826" lon="1.30033">
        <ele>339.7</ele>
        <time>2025-06-16T13:49:42Z</time>
      </trkpt>
      <trkpt lat="45.90826" lon="1.30033">
        <ele>339.7</ele>
        <time>2025-06-16T13:49:43Z</time>
      </trkpt>
      <trkpt lat="45.90826" lon="1.30033">
        <ele>339.7</ele>
        <time>2025-06-16T13:49:44Z</time>
      </trkpt>
      <trkpt lat="45.90827" lon="1.30032">
        <ele>339.7</ele>
        <time>2025-06-16T13:49:45Z</time>
      </trkpt>
      <trkpt lat="45.90827" lon="1.30032">
        <ele>339.7</ele>
        <time>2025-06-16T13:49:46Z</time>
      </trkpt>
      <trkpt lat="45.90827" lon="1.30032">
        <ele>339.7</ele>
        <time>2025-06-16T13:49:47Z</time>
      </trkpt>
      <trkpt lat="45.90827" lon="1.30032">
        <ele>339.7</ele>
        <time>2025-06-16T13:49:48Z</time>
      </trkpt>
      <trkpt lat="45.90827" lon="1.30032">
        <ele>339.7</ele>
        <time>2025-06-16T13:49:49Z</time>
      </trkpt>
      <trkpt lat="45.90827" lon="1.30032">
        <ele>339.7</ele>
        <time>2025-06-16T13:49:50Z</time>
      </trkpt>
      <trkpt lat="45.90827" lon="1.30032">
        <ele>339.7</ele>
        <time>2025-06-16T13:49:51Z</time>
      </trkpt>
      <trkpt lat="45.90827" lon="1.30032">
        <ele>339.7</ele>
        <time>2025-06-16T13:49:52Z</time>
      </trkpt>
      <trkpt lat="45.90827" lon="1.30032">
        <ele>339.7</ele>
        <time>2025-06-16T13:49:53Z</time>
      </trkpt>
      <trkpt lat="45.90827" lon="1.30032">
        <ele>339.7</ele>
        <time>2025-06-16T13:49:54Z</time>
      </trkpt>
      <trkpt lat="45.90827" lon="1.30032">
        <ele>339.7</ele>
        <time>2025-06-16T13:49:55Z</time>
      </trkpt>
      <trkpt lat="45.90827" lon="1.30031">
        <ele>339.7</ele>
        <time>2025-06-16T13:49:56Z</time>
      </trkpt>
      <trkpt lat="45.90827" lon="1.30031">
        <ele>339.7</ele>
        <time>2025-06-16T13:49:57Z</time>
      </trkpt>
      <trkpt lat="45.90827" lon="1.30031">
        <ele>339.7</ele>
        <time>2025-06-16T13:49:58Z</time>
      </trkpt>
      <trkpt lat="45.90827" lon="1.30031">
        <ele>339.7</ele>
        <time>2025-06-16T13:49:59Z</time>
      </trkpt>
      <trkpt lat="45.90827" lon="1.30031">
        <ele>339.7</ele>
        <time>2025-06-16T13:50:00Z</time>
      </trkpt>
      <trkpt lat="45.90827" lon="1.30031">
        <ele>339.7</ele>
        <time>2025-06-16T13:50:01Z</time>
      </trkpt>
      <trkpt lat="45.90827" lon="1.30031">
        <ele>339.7</ele>
        <time>2025-06-16T13:50:02Z</time>
      </trkpt>
      <trkpt lat="45.90827" lon="1.30031">
        <ele>339.7</ele>
        <time>2025-06-16T13:50:03Z</time>
      </trkpt>
      <trkpt lat="45.90827" lon="1.30031">
        <ele>339.7</ele>
        <time>2025-06-16T13:50:04Z</time>
      </trkpt>
      <trkpt lat="45.90827" lon="1.30031">
        <ele>339.7</ele>
        <time>2025-06-16T13:50:05Z</time>
      </trkpt>
      <trkpt lat="45.90827" lon="1.30031">
        <ele>339.7</ele>
        <time>2025-06-16T13:50:06Z</time>
      </trkpt>
      <trkpt lat="45.90827" lon="1.3003">
        <ele>339.7</ele>
        <time>2025-06-16T13:50:07Z</time>
      </trkpt>
      <trkpt lat="45.90827" lon="1.30029">
        <ele>339.6</ele>
        <time>2025-06-16T13:50:08Z</time>
      </trkpt>
      <trkpt lat="45.90828" lon="1.3003">
        <ele>339.6</ele>
        <time>2025-06-16T13:50:09Z</time>
      </trkpt>
      <trkpt lat="45.90828" lon="1.30031">
        <ele>339.6</ele>
        <time>2025-06-16T13:50:10Z</time>
      </trkpt>
      <trkpt lat="45.90828" lon="1.30031">
        <ele>339.5</ele>
        <time>2025-06-16T13:50:11Z</time>
      </trkpt>
      <trkpt lat="45.90829" lon="1.30031">
        <ele>339.5</ele>
        <time>2025-06-16T13:50:12Z</time>
      </trkpt>
      <trkpt lat="45.90829" lon="1.30031">
        <ele>339.5</ele>
        <time>2025-06-16T13:50:13Z</time>
      </trkpt>
      <trkpt lat="45.90829" lon="1.30031">
        <ele>339.5</ele>
        <time>2025-06-16T13:50:14Z</time>
      </trkpt>
      <trkpt lat="45.90829" lon="1.30031">
        <ele>339.5</ele>
        <time>2025-06-16T13:50:15Z</time>
      </trkpt>
      <trkpt lat="45.90829" lon="1.30031">
        <ele>339.5</ele>
        <time>2025-06-16T13:50:16Z</time>
      </trkpt>
      <trkpt lat="45.90829" lon="1.30031">
        <ele>339.5</ele>
        <time>2025-06-16T13:50:17Z</time>
      </trkpt>
      <trkpt lat="45.90829" lon="1.30031">
        <ele>339.5</ele>
        <time>2025-06-16T13:50:18Z</time>
      </trkpt>
      <trkpt lat="45.90829" lon="1.30031">
        <ele>339.5</ele>
        <time>2025-06-16T13:50:19Z</time>
      </trkpt>
      <trkpt lat="45.90829" lon="1.30031">
        <ele>339.5</ele>
        <time>2025-06-16T13:50:20Z</time>
      </trkpt>
      <trkpt lat="45.90829" lon="1.30031">
        <ele>339.5</ele>
        <time>2025-06-16T13:50:21Z</time>
      </trkpt>
      <trkpt lat="45.90829" lon="1.30031">
        <ele>339.5</ele>
        <time>2025-06-16T13:50:22Z</time>
      </trkpt>
      <trkpt lat="45.9083" lon="1.30031">
        <ele>339.5</ele>
        <time>2025-06-16T13:50:23Z</time>
      </trkpt>
      <trkpt lat="45.9083" lon="1.30031">
        <ele>339.5</ele>
        <time>2025-06-16T13:50:24Z</time>
      </trkpt>
      <trkpt lat="45.9083" lon="1.30031">
        <ele>339.5</ele>
        <time>2025-06-16T13:50:25Z</time>
      </trkpt>
      <trkpt lat="45.9083" lon="1.30031">
        <ele>339.5</ele>
        <time>2025-06-16T13:50:26Z</time>
      </trkpt>
      <trkpt lat="45.9083" lon="1.30031">
        <ele>339.5</ele>
        <time>2025-06-16T13:50:27Z</time>
      </trkpt>
      <trkpt lat="45.9083" lon="1.30031">
        <ele>339.5</ele>
        <time>2025-06-16T13:50:28Z</time>
      </trkpt>
      <trkpt lat="45.9083" lon="1.30031">
        <ele>339.5</ele>
        <time>2025-06-16T13:50:29Z</time>
      </trkpt>
      <trkpt lat="45.9083" lon="1.30031">
        <ele>339.5</ele>
        <time>2025-06-16T13:50:30Z</time>
      </trkpt>
      <trkpt lat="45.9083" lon="1.30031">
        <ele>339.5</ele>
        <time>2025-06-16T13:50:31Z</time>
      </trkpt>
      <trkpt lat="45.9083" lon="1.30031">
        <ele>339.5</ele>
        <time>2025-06-16T13:50:32Z</time>
      </trkpt>
      <trkpt lat="45.9083" lon="1.30031">
        <ele>339.5</ele>
        <time>2025-06-16T13:50:33Z</time>
      </trkpt>
      <trkpt lat="45.9083" lon="1.30031">
        <ele>339.5</ele>
        <time>2025-06-16T13:50:34Z</time>
      </trkpt>
      <trkpt lat="45.9083" lon="1.30031">
        <ele>339.5</ele>
        <time>2025-06-16T13:50:35Z</time>
      </trkpt>
      <trkpt lat="45.9083" lon="1.30031">
        <ele>339.5</ele>
        <time>2025-06-16T13:50:36Z</time>
      </trkpt>
      <trkpt lat="45.9083" lon="1.30031">
        <ele>339.5</ele>
        <time>2025-06-16T13:50:37Z</time>
      </trkpt>
      <trkpt lat="45.9083" lon="1.30031">
        <ele>339.5</ele>
        <time>2025-06-16T13:50:38Z</time>
      </trkpt>
      <trkpt lat="45.9083" lon="1.30031">
        <ele>339.5</ele>
        <time>2025-06-16T13:50:39Z</time>
      </trkpt>
      <trkpt lat="45.9083" lon="1.30031">
        <ele>339.5</ele>
        <time>2025-06-16T13:50:40Z</time>
      </trkpt>
      <trkpt lat="45.9083" lon="1.30031">
        <ele>339.5</ele>
        <time>2025-06-16T13:50:41Z</time>
      </trkpt>
      <trkpt lat="45.9083" lon="1.30031">
        <ele>339.5</ele>
        <time>2025-06-16T13:50:42Z</time>
      </trkpt>
      <trkpt lat="45.9083" lon="1.30031">
        <ele>339.5</ele>
        <time>2025-06-16T13:50:43Z</time>
      </trkpt>
      <trkpt lat="45.9083" lon="1.30031">
        <ele>339.5</ele>
        <time>2025-06-16T13:50:44Z</time>
      </trkpt>
      <trkpt lat="45.9083" lon="1.30031">
        <ele>339.5</ele>
        <time>2025-06-16T13:50:45Z</time>
      </trkpt>
      <trkpt lat="45.9083" lon="1.30032">
        <ele>339.5</ele>
        <time>2025-06-16T13:50:46Z</time>
      </trkpt>
      <trkpt lat="45.9083" lon="1.30032">
        <ele>339.5</ele>
        <time>2025-06-16T13:50:47Z</time>
      </trkpt>
      <trkpt lat="45.9083" lon="1.30032">
        <ele>339.5</ele>
        <time>2025-06-16T13:50:48Z</time>
      </trkpt>
      <trkpt lat="45.9083" lon="1.30032">
        <ele>339.5</ele>
        <time>2025-06-16T13:50:49Z</time>
      </trkpt>
      <trkpt lat="45.9083" lon="1.30032">
        <ele>339.5</ele>
        <time>2025-06-16T13:50:50Z</time>
      </trkpt>
      <trkpt lat="45.9083" lon="1.30032">
        <ele>339.5</ele>
        <time>2025-06-16T13:50:51Z</time>
      </trkpt>
      <trkpt lat="45.9083" lon="1.30032">
        <ele>339.5</ele>
        <time>2025-06-16T13:50:52Z</time>
      </trkpt>
      <trkpt lat="45.9083" lon="1.30032">
        <ele>339.5</ele>
        <time>2025-06-16T13:50:53Z</time>
      </trkpt>
      <trkpt lat="45.9083" lon="1.30032">
        <ele>339.5</ele>
        <time>2025-06-16T13:50:54Z</time>
      </trkpt>
      <trkpt lat="45.9083" lon="1.30032">
        <ele>339.5</ele>
        <time>2025-06-16T13:50:55Z</time>
      </trkpt>
      <trkpt lat="45.9083" lon="1.30032">
        <ele>339.5</ele>
        <time>2025-06-16T13:50:56Z</time>
      </trkpt>
      <trkpt lat="45.9083" lon="1.30032">
        <ele>339.5</ele>
        <time>2025-06-16T13:50:57Z</time>
      </trkpt>
      <trkpt lat="45.9083" lon="1.30032">
        <ele>339.5</ele>
        <time>2025-06-16T13:50:58Z</time>
      </trkpt>
      <trkpt lat="45.9083" lon="1.30032">
        <ele>339.5</ele>
        <time>2025-06-16T13:50:59Z</time>
      </trkpt>
      <trkpt lat="45.9083" lon="1.30032">
        <ele>339.5</ele>
        <time>2025-06-16T13:51:00Z</time>
      </trkpt>
      <trkpt lat="45.9083" lon="1.30032">
        <ele>339.5</ele>
        <time>2025-06-16T13:51:01Z</time>
      </trkpt>
      <trkpt lat="45.9083" lon="1.30032">
        <ele>339.5</ele>
        <time>2025-06-16T13:51:02Z</time>
      </trkpt>
      <trkpt lat="45.9083" lon="1.30032">
        <ele>339.5</ele>
        <time>2025-06-16T13:51:03Z</time>
      </trkpt>
      <trkpt lat="45.9083" lon="1.30032">
        <ele>339.5</ele>
        <time>2025-06-16T13:51:04Z</time>
      </trkpt>
      <trkpt lat="45.9083" lon="1.30032">
        <ele>339.5</ele>
        <time>2025-06-16T13:51:05Z</time>
      </trkpt>
      <trkpt lat="45.9083" lon="1.30032">
        <ele>339.5</ele>
        <time>2025-06-16T13:51:06Z</time>
      </trkpt>
      <trkpt lat="45.9083" lon="1.30032">
        <ele>339.5</ele>
        <time>2025-06-16T13:51:07Z</time>
      </trkpt>
      <trkpt lat="45.9083" lon="1.30032">
        <ele>339.5</ele>
        <time>2025-06-16T13:51:08Z</time>
      </trkpt>
      <trkpt lat="45.9083" lon="1.30032">
        <ele>339.5</ele>
        <time>2025-06-16T13:51:09Z</time>
      </trkpt>
      <trkpt lat="45.9083" lon="1.30032">
        <ele>339.5</ele>
        <time>2025-06-16T13:51:10Z</time>
      </trkpt>
      <trkpt lat="45.9083" lon="1.30032">
        <ele>339.5</ele>
        <time>2025-06-16T13:51:11Z</time>
      </trkpt>
      <trkpt lat="45.9083" lon="1.30032">
        <ele>339.5</ele>
        <time>2025-06-16T13:51:12Z</time>
      </trkpt>
      <trkpt lat="45.9083" lon="1.30032">
        <ele>339.5</ele>
        <time>2025-06-16T13:51:13Z</time>
      </trkpt>
      <trkpt lat="45.9083" lon="1.30032">
        <ele>339.5</ele>
        <time>2025-06-16T13:51:14Z</time>
      </trkpt>
      <trkpt lat="45.9083" lon="1.30032">
        <ele>339.5</ele>
        <time>2025-06-16T13:51:15Z</time>
      </trkpt>
      <trkpt lat="45.9083" lon="1.30032">
        <ele>339.5</ele>
        <time>2025-06-16T13:51:16Z</time>
      </trkpt>
      <trkpt lat="45.9083" lon="1.30032">
        <ele>339.5</ele>
        <time>2025-06-16T13:51:17Z</time>
      </trkpt>
      <trkpt lat="45.9083" lon="1.30032">
        <ele>339.5</ele>
        <time>2025-06-16T13:51:18Z</time>
      </trkpt>
      <trkpt lat="45.9083" lon="1.30032">
        <ele>339.5</ele>
        <time>2025-06-16T13:51:19Z</time>
      </trkpt>
      <trkpt lat="45.9083" lon="1.30032">
        <ele>339.5</ele>
        <time>2025-06-16T13:51:20Z</time>
      </trkpt>
      <trkpt lat="45.9083" lon="1.30032">
        <ele>339.5</ele>
        <time>2025-06-16T13:51:21Z</time>
      </trkpt>
      <trkpt lat="45.9083" lon="1.30032">
        <ele>339.5</ele>
        <time>2025-06-16T13:51:22Z</time>
      </trkpt>
      <trkpt lat="45.9083" lon="1.30032">
        <ele>339.5</ele>
        <time>2025-06-16T13:51:23Z</time>
      </trkpt>
      <trkpt lat="45.9083" lon="1.30032">
        <ele>339.5</ele>
        <time>2025-06-16T13:51:24Z</time>
      </trkpt>
      <trkpt lat="45.9083" lon="1.30032">
        <ele>339.4</ele>
        <time>2025-06-16T13:51:25Z</time>
      </trkpt>
      <trkpt lat="45.9083" lon="1.30032">
        <ele>339.4</ele>
        <time>2025-06-16T13:51:26Z</time>
      </trkpt>
      <trkpt lat="45.9083" lon="1.30032">
        <ele>339.4</ele>
        <time>2025-06-16T13:51:27Z</time>
      </trkpt>
      <trkpt lat="45.9083" lon="1.30032">
        <ele>339.4</ele>
        <time>2025-06-16T13:51:28Z</time>
      </trkpt>
      <trkpt lat="45.9083" lon="1.30032">
        <ele>339.4</ele>
        <time>2025-06-16T13:51:29Z</time>
      </trkpt>
      <trkpt lat="45.9083" lon="1.30032">
        <ele>339.4</ele>
        <time>2025-06-16T13:51:30Z</time>
      </trkpt>
      <trkpt lat="45.9083" lon="1.30032">
        <ele>339.4</ele>
        <time>2025-06-16T13:51:31Z</time>
      </trkpt>
      <trkpt lat="45.9083" lon="1.30032">
        <ele>339.4</ele>
        <time>2025-06-16T13:51:32Z</time>
      </trkpt>
      <trkpt lat="45.9083" lon="1.30032">
        <ele>339.4</ele>
        <time>2025-06-16T13:51:33Z</time>
      </trkpt>
      <trkpt lat="45.9083" lon="1.30032">
        <ele>339.4</ele>
        <time>2025-06-16T13:51:34Z</time>
      </trkpt>
      <trkpt lat="45.9083" lon="1.30032">
        <ele>339.4</ele>
        <time>2025-06-16T13:51:35Z</time>
      </trkpt>
      <trkpt lat="45.9083" lon="1.30032">
        <ele>339.4</ele>
        <time>2025-06-16T13:51:36Z</time>
      </trkpt>
      <trkpt lat="45.9083" lon="1.30032">
        <ele>339.4</ele>
        <time>2025-06-16T13:51:37Z</time>
      </trkpt>
      <trkpt lat="45.9083" lon="1.30032">
        <ele>339.4</ele>
        <time>2025-06-16T13:51:38Z</time>
      </trkpt>
      <trkpt lat="45.9083" lon="1.30032">
        <ele>339.4</ele>
        <time>2025-06-16T13:51:39Z</time>
      </trkpt>
      <trkpt lat="45.9083" lon="1.30032">
        <ele>339.4</ele>
        <time>2025-06-16T13:51:40Z</time>
      </trkpt>
      <trkpt lat="45.9083" lon="1.30032">
        <ele>339.4</ele>
        <time>2025-06-16T13:51:41Z</time>
      </trkpt>
      <trkpt lat="45.9083" lon="1.30032">
        <ele>339.4</ele>
        <time>2025-06-16T13:51:42Z</time>
      </trkpt>
      <trkpt lat="45.9083" lon="1.30032">
        <ele>339.4</ele>
        <time>2025-06-16T13:51:43Z</time>
      </trkpt>
      <trkpt lat="45.9083" lon="1.30032">
        <ele>339.4</ele>
        <time>2025-06-16T13:51:44Z</time>
      </trkpt>
      <trkpt lat="45.9083" lon="1.30032">
        <ele>339.4</ele>
        <time>2025-06-16T13:51:45Z</time>
      </trkpt>
      <trkpt lat="45.9083" lon="1.30032">
        <ele>339.4</ele>
        <time>2025-06-16T13:51:46Z</time>
      </trkpt>
      <trkpt lat="45.9083" lon="1.30032">
        <ele>339.4</ele>
        <time>2025-06-16T13:51:47Z</time>
      </trkpt>
      <trkpt lat="45.9083" lon="1.30032">
        <ele>339.4</ele>
        <time>2025-06-16T13:51:48Z</time>
      </trkpt>
      <trkpt lat="45.9083" lon="1.30032">
        <ele>339.4</ele>
        <time>2025-06-16T13:51:49Z</time>
      </trkpt>
      <trkpt lat="45.9083" lon="1.30032">
        <ele>339.4</ele>
        <time>2025-06-16T13:51:50Z</time>
      </trkpt>
      <trkpt lat="45.9083" lon="1.30032">
        <ele>339.4</ele>
        <time>2025-06-16T13:51:51Z</time>
      </trkpt>
      <trkpt lat="45.9083" lon="1.30033">
        <ele>339.4</ele>
        <time>2025-06-16T13:51:52Z</time>
      </trkpt>
      <trkpt lat="45.9083" lon="1.30033">
        <ele>339.4</ele>
        <time>2025-06-16T13:51:53Z</time>
      </trkpt>
      <trkpt lat="45.9083" lon="1.30033">
        <ele>339.4</ele>
        <time>2025-06-16T13:51:54Z</time>
      </trkpt>
      <trkpt lat="45.9083" lon="1.30033">
        <ele>339.4</ele>
        <time>2025-06-16T13:51:55Z</time>
      </trkpt>
      <trkpt lat="45.9083" lon="1.30033">
        <ele>339.4</ele>
        <time>2025-06-16T13:51:56Z</time>
      </trkpt>
      <trkpt lat="45.9083" lon="1.30033">
        <ele>339.4</ele>
        <time>2025-06-16T13:51:57Z</time>
      </trkpt>
      <trkpt lat="45.9083" lon="1.30033">
        <ele>339.4</ele>
        <time>2025-06-16T13:51:58Z</time>
      </trkpt>
      <trkpt lat="45.9083" lon="1.30033">
        <ele>339.4</ele>
        <time>2025-06-16T13:51:59Z</time>
      </trkpt>
      <trkpt lat="45.9083" lon="1.30033">
        <ele>339.4</ele>
        <time>2025-06-16T13:52:00Z</time>
      </trkpt>
      <trkpt lat="45.9083" lon="1.30033">
        <ele>339.4</ele>
        <time>2025-06-16T13:52:01Z</time>
      </trkpt>
      <trkpt lat="45.9083" lon="1.30033">
        <ele>339.4</ele>
        <time>2025-06-16T13:52:02Z</time>
      </trkpt>
      <trkpt lat="45.9083" lon="1.30033">
        <ele>339.4</ele>
        <time>2025-06-16T13:52:03Z</time>
      </trkpt>
      <trkpt lat="45.9083" lon="1.30033">
        <ele>339.4</ele>
        <time>2025-06-16T13:52:04Z</time>
      </trkpt>
      <trkpt lat="45.9083" lon="1.30033">
        <ele>339.4</ele>
        <time>2025-06-16T13:52:05Z</time>
      </trkpt>
      <trkpt lat="45.9083" lon="1.30033">
        <ele>339.4</ele>
        <time>2025-06-16T13:52:06Z</time>
      </trkpt>
      <trkpt lat="45.9083" lon="1.30033">
        <ele>339.4</ele>
        <time>2025-06-16T13:52:07Z</time>
      </trkpt>
      <trkpt lat="45.9083" lon="1.30033">
        <ele>339.4</ele>
        <time>2025-06-16T13:52:08Z</time>
      </trkpt>
      <trkpt lat="45.9083" lon="1.30033">
        <ele>339.4</ele>
        <time>2025-06-16T13:52:09Z</time>
      </trkpt>
      <trkpt lat="45.9083" lon="1.30033">
        <ele>339.4</ele>
        <time>2025-06-16T13:52:10Z</time>
      </trkpt>
      <trkpt lat="45.9083" lon="1.30033">
        <ele>339.4</ele>
        <time>2025-06-16T13:52:11Z</time>
      </trkpt>
      <trkpt lat="45.9083" lon="1.30033">
        <ele>339.4</ele>
        <time>2025-06-16T13:52:12Z</time>
      </trkpt>
      <trkpt lat="45.9083" lon="1.30033">
        <ele>339.4</ele>
        <time>2025-06-16T13:52:13Z</time>
      </trkpt>
      <trkpt lat="45.9083" lon="1.30033">
        <ele>339.4</ele>
        <time>2025-06-16T13:52:14Z</time>
      </trkpt>
      <trkpt lat="45.9083" lon="1.30033">
        <ele>339.4</ele>
        <time>2025-06-16T13:52:15Z</time>
      </trkpt>
      <trkpt lat="45.9083" lon="1.30033">
        <ele>339.4</ele>
        <time>2025-06-16T13:52:16Z</time>
      </trkpt>
      <trkpt lat="45.9083" lon="1.30033">
        <ele>339.4</ele>
        <time>2025-06-16T13:52:17Z</time>
      </trkpt>
      <trkpt lat="45.9083" lon="1.30033">
        <ele>339.4</ele>
        <time>2025-06-16T13:52:18Z</time>
      </trkpt>
      <trkpt lat="45.9083" lon="1.30033">
        <ele>339.4</ele>
        <time>2025-06-16T13:52:19Z</time>
      </trkpt>
      <trkpt lat="45.9083" lon="1.30033">
        <ele>339.4</ele>
        <time>2025-06-16T13:52:20Z</time>
      </trkpt>
      <trkpt lat="45.9083" lon="1.30033">
        <ele>339.4</ele>
        <time>2025-06-16T13:52:21Z</time>
      </trkpt>
      <trkpt lat="45.9083" lon="1.30033">
        <ele>339.4</ele>
        <time>2025-06-16T13:52:22Z</time>
      </trkpt>
      <trkpt lat="45.9083" lon="1.30033">
        <ele>339.4</ele>
        <time>2025-06-16T13:52:23Z</time>
      </trkpt>
      <trkpt lat="45.9083" lon="1.30033">
        <ele>339.4</ele>
        <time>2025-06-16T13:52:24Z</time>
      </trkpt>
      <trkpt lat="45.9083" lon="1.30033">
        <ele>339.4</ele>
        <time>2025-06-16T13:52:25Z</time>
      </trkpt>
      <trkpt lat="45.9083" lon="1.30033">
        <ele>339.4</ele>
        <time>2025-06-16T13:52:26Z</time>
      </trkpt>
      <trkpt lat="45.9083" lon="1.30033">
        <ele>339.4</ele>
        <time>2025-06-16T13:52:27Z</time>
      </trkpt>
      <trkpt lat="45.9083" lon="1.30033">
        <ele>339.4</ele>
        <time>2025-06-16T13:52:28Z</time>
      </trkpt>
      <trkpt lat="45.9083" lon="1.30033">
        <ele>339.4</ele>
        <time>2025-06-16T13:52:29Z</time>
      </trkpt>
      <trkpt lat="45.9083" lon="1.30033">
        <ele>339.4</ele>
        <time>2025-06-16T13:52:30Z</time>
      </trkpt>
      <trkpt lat="45.9083" lon="1.30033">
        <ele>339.4</ele>
        <time>2025-06-16T13:52:31Z</time>
      </trkpt>
      <trkpt lat="45.9083" lon="1.30033">
        <ele>339.4</ele>
        <time>2025-06-16T13:52:32Z</time>
      </trkpt>
      <trkpt lat="45.9083" lon="1.30033">
        <ele>339.4</ele>
        <time>2025-06-16T13:52:33Z</time>
      </trkpt>
      <trkpt lat="45.9083" lon="1.30033">
        <ele>339.4</ele>
        <time>2025-06-16T13:52:34Z</time>
      </trkpt>
      <trkpt lat="45.9083" lon="1.30033">
        <ele>339.4</ele>
        <time>2025-06-16T13:52:35Z</time>
      </trkpt>
      <trkpt lat="45.9083" lon="1.30033">
        <ele>339.4</ele>
        <time>2025-06-16T13:52:36Z</time>
      </trkpt>
      <trkpt lat="45.9083" lon="1.30033">
        <ele>339.4</ele>
        <time>2025-06-16T13:52:37Z</time>
      </trkpt>
      <trkpt lat="45.9083" lon="1.30033">
        <ele>339.4</ele>
        <time>2025-06-16T13:52:38Z</time>
      </trkpt>
      <trkpt lat="45.9083" lon="1.30033">
        <ele>339.4</ele>
        <time>2025-06-16T13:52:39Z</time>
      </trkpt>
      <trkpt lat="45.9083" lon="1.30033">
        <ele>339.4</ele>
        <time>2025-06-16T13:52:40Z</time>
      </trkpt>
      <trkpt lat="45.9083" lon="1.30033">
        <ele>339.4</ele>
        <time>2025-06-16T13:52:41Z</time>
      </trkpt>
      <trkpt lat="45.9083" lon="1.30033">
        <ele>339.4</ele>
        <time>2025-06-16T13:52:42Z</time>
      </trkpt>
      <trkpt lat="45.9083" lon="1.30033">
        <ele>339.4</ele>
        <time>2025-06-16T13:52:43Z</time>
      </trkpt>
      <trkpt lat="45.9083" lon="1.30033">
        <ele>339.4</ele>
        <time>2025-06-16T13:52:44Z</time>
      </trkpt>
      <trkpt lat="45.9083" lon="1.30033">
        <ele>339.4</ele>
        <time>2025-06-16T13:52:45Z</time>
      </trkpt>
      <trkpt lat="45.9083" lon="1.30033">
        <ele>339.4</ele>
        <time>2025-06-16T13:52:46Z</time>
      </trkpt>
      <trkpt lat="45.9083" lon="1.30033">
        <ele>339.4</ele>
        <time>2025-06-16T13:52:47Z</time>
      </trkpt>
      <trkpt lat="45.9083" lon="1.30033">
        <ele>339.4</ele>
        <time>2025-06-16T13:52:48Z</time>
      </trkpt>
      <trkpt lat="45.9083" lon="1.30033">
        <ele>339.4</ele>
        <time>2025-06-16T13:52:49Z</time>
      </trkpt>
      <trkpt lat="45.9083" lon="1.30033">
        <ele>339.4</ele>
        <time>2025-06-16T13:52:50Z</time>
      </trkpt>
      <trkpt lat="45.9083" lon="1.30033">
        <ele>339.4</ele>
        <time>2025-06-16T13:52:51Z</time>
      </trkpt>
      <trkpt lat="45.9083" lon="1.30033">
        <ele>339.4</ele>
        <time>2025-06-16T13:52:52Z</time>
      </trkpt>
      <trkpt lat="45.9083" lon="1.30033">
        <ele>339.4</ele>
        <time>2025-06-16T13:52:53Z</time>
      </trkpt>
      <trkpt lat="45.9083" lon="1.30033">
        <ele>339.4</ele>
        <time>2025-06-16T13:52:54Z</time>
      </trkpt>
      <trkpt lat="45.9083" lon="1.30033">
        <ele>339.4</ele>
        <time>2025-06-16T13:52:55Z</time>
      </trkpt>
      <trkpt lat="45.9083" lon="1.30033">
        <ele>339.4</ele>
        <time>2025-06-16T13:52:56Z</time>
      </trkpt>
      <trkpt lat="45.9083" lon="1.30033">
        <ele>339.4</ele>
        <time>2025-06-16T13:52:57Z</time>
      </trkpt>
      <trkpt lat="45.90831" lon="1.30033">
        <ele>339.4</ele>
        <time>2025-06-16T13:52:58Z</time>
      </trkpt>
      <trkpt lat="45.90831" lon="1.30034">
        <ele>339.4</ele>
        <time>2025-06-16T13:52:59Z</time>
      </trkpt>
      <trkpt lat="45.90831" lon="1.30034">
        <ele>339.4</ele>
        <time>2025-06-16T13:53:00Z</time>
      </trkpt>
      <trkpt lat="45.90831" lon="1.30034">
        <ele>339.4</ele>
        <time>2025-06-16T13:53:01Z</time>
      </trkpt>
      <trkpt lat="45.90831" lon="1.30034">
        <ele>339.4</ele>
        <time>2025-06-16T13:53:02Z</time>
      </trkpt>
      <trkpt lat="45.90831" lon="1.30034">
        <ele>339.4</ele>
        <time>2025-06-16T13:53:03Z</time>
      </trkpt>
      <trkpt lat="45.90831" lon="1.30034">
        <ele>339.4</ele>
        <time>2025-06-16T13:53:04Z</time>
      </trkpt>
      <trkpt lat="45.90831" lon="1.30034">
        <ele>339.4</ele>
        <time>2025-06-16T13:53:05Z</time>
      </trkpt>
      <trkpt lat="45.90831" lon="1.30034">
        <ele>339.4</ele>
        <time>2025-06-16T13:53:06Z</time>
      </trkpt>
      <trkpt lat="45.90831" lon="1.30034">
        <ele>339.4</ele>
        <time>2025-06-16T13:53:07Z</time>
      </trkpt>
      <trkpt lat="45.90831" lon="1.30034">
        <ele>339.4</ele>
        <time>2025-06-16T13:53:08Z</time>
      </trkpt>
      <trkpt lat="45.90831" lon="1.30034">
        <ele>339.4</ele>
        <time>2025-06-16T13:53:09Z</time>
      </trkpt>
      <trkpt lat="45.90831" lon="1.30034">
        <ele>339.4</ele>
        <time>2025-06-16T13:53:10Z</time>
      </trkpt>
      <trkpt lat="45.90831" lon="1.30034">
        <ele>339.4</ele>
        <time>2025-06-16T13:53:11Z</time>
      </trkpt>
      <trkpt lat="45.90831" lon="1.30034">
        <ele>339.4</ele>
        <time>2025-06-16T13:53:12Z</time>
      </trkpt>
      <trkpt lat="45.90831" lon="1.30034">
        <ele>339.4</ele>
        <time>2025-06-16T13:53:13Z</time>
      </trkpt>
      <trkpt lat="45.90831" lon="1.30034">
        <ele>339.4</ele>
        <time>2025-06-16T13:53:14Z</time>
      </trkpt>
      <trkpt lat="45.90831" lon="1.30034">
        <ele>339.4</ele>
        <time>2025-06-16T13:53:15Z</time>
      </trkpt>
      <trkpt lat="45.90831" lon="1.30034">
        <ele>339.4</ele>
        <time>2025-06-16T13:53:16Z</time>
      </trkpt>
      <trkpt lat="45.90831" lon="1.30034">
        <ele>339.4</ele>
        <time>2025-06-16T13:53:17Z</time>
      </trkpt>
      <trkpt lat="45.90831" lon="1.30034">
        <ele>339.4</ele>
        <time>2025-06-16T13:53:18Z</time>
      </trkpt>
      <trkpt lat="45.90831" lon="1.30034">
        <ele>339.4</ele>
        <time>2025-06-16T13:53:19Z</time>
      </trkpt>
      <trkpt lat="45.90831" lon="1.30034">
        <ele>339.4</ele>
        <time>2025-06-16T13:53:20Z</time>
      </trkpt>
      <trkpt lat="45.90831" lon="1.30034">
        <ele>339.4</ele>
        <time>2025-06-16T13:53:21Z</time>
      </trkpt>
      <trkpt lat="45.90831" lon="1.30034">
        <ele>339.4</ele>
        <time>2025-06-16T13:53:22Z</time>
      </trkpt>
      <trkpt lat="45.90831" lon="1.30034">
        <ele>339.4</ele>
        <time>2025-06-16T13:53:23Z</time>
      </trkpt>
      <trkpt lat="45.90831" lon="1.30034">
        <ele>339.4</ele>
        <time>2025-06-16T13:53:24Z</time>
      </trkpt>
      <trkpt lat="45.90831" lon="1.30034">
        <ele>339.4</ele>
        <time>2025-06-16T13:53:25Z</time>
      </trkpt>
      <trkpt lat="45.90831" lon="1.30034">
        <ele>339.4</ele>
        <time>2025-06-16T13:53:26Z</time>
      </trkpt>
      <trkpt lat="45.90831" lon="1.30034">
        <ele>339.4</ele>
        <time>2025-06-16T13:53:27Z</time>
      </trkpt>
      <trkpt lat="45.90831" lon="1.30034">
        <ele>339.4</ele>
        <time>2025-06-16T13:53:28Z</time>
      </trkpt>
      <trkpt lat="45.90831" lon="1.30034">
        <ele>339.4</ele>
        <time>2025-06-16T13:53:29Z</time>
      </trkpt>
      <trkpt lat="45.90831" lon="1.30034">
        <ele>339.4</ele>
        <time>2025-06-16T13:53:30Z</time>
      </trkpt>
      <trkpt lat="45.90831" lon="1.30034">
        <ele>339.4</ele>
        <time>2025-06-16T13:53:31Z</time>
      </trkpt>
      <trkpt lat="45.90831" lon="1.30034">
        <ele>339.4</ele>
        <time>2025-06-16T13:53:32Z</time>
      </trkpt>
      <trkpt lat="45.90831" lon="1.30034">
        <ele>339.4</ele>
        <time>2025-06-16T13:53:33Z</time>
      </trkpt>
      <trkpt lat="45.90831" lon="1.30034">
        <ele>339.4</ele>
        <time>2025-06-16T13:53:34Z</time>
      </trkpt>
      <trkpt lat="45.90831" lon="1.30034">
        <ele>339.4</ele>
        <time>2025-06-16T13:53:35Z</time>
      </trkpt>
      <trkpt lat="45.90831" lon="1.30034">
        <ele>339.4</ele>
        <time>2025-06-16T13:53:36Z</time>
      </trkpt>
      <trkpt lat="45.90831" lon="1.30034">
        <ele>339.4</ele>
        <time>2025-06-16T13:53:37Z</time>
      </trkpt>
      <trkpt lat="45.90831" lon="1.30034">
        <ele>339.4</ele>
        <time>2025-06-16T13:53:38Z</time>
      </trkpt>
      <trkpt lat="45.90831" lon="1.30034">
        <ele>339.4</ele>
        <time>2025-06-16T13:53:39Z</time>
      </trkpt>
      <trkpt lat="45.90831" lon="1.30034">
        <ele>339.4</ele>
        <time>2025-06-16T13:53:40Z</time>
      </trkpt>
      <trkpt lat="45.90831" lon="1.30034">
        <ele>339.4</ele>
        <time>2025-06-16T13:53:41Z</time>
      </trkpt>
      <trkpt lat="45.90831" lon="1.30034">
        <ele>339.4</ele>
        <time>2025-06-16T13:53:42Z</time>
      </trkpt>
      <trkpt lat="45.90831" lon="1.30034">
        <ele>339.4</ele>
        <time>2025-06-16T13:53:43Z</time>
      </trkpt>
      <trkpt lat="45.90831" lon="1.30034">
        <ele>339.4</ele>
        <time>2025-06-16T13:53:44Z</time>
      </trkpt>
      <trkpt lat="45.90831" lon="1.30034">
        <ele>339.4</ele>
        <time>2025-06-16T13:53:45Z</time>
      </trkpt>
      <trkpt lat="45.90831" lon="1.30034">
        <ele>339.4</ele>
        <time>2025-06-16T13:53:46Z</time>
      </trkpt>
      <trkpt lat="45.90831" lon="1.30034">
        <ele>339.4</ele>
        <time>2025-06-16T13:53:47Z</time>
      </trkpt>
      <trkpt lat="45.90831" lon="1.30034">
        <ele>339.4</ele>
        <time>2025-06-16T13:53:48Z</time>
      </trkpt>
      <trkpt lat="45.90831" lon="1.30034">
        <ele>339.4</ele>
        <time>2025-06-16T13:53:49Z</time>
      </trkpt>
      <trkpt lat="45.90831" lon="1.30034">
        <ele>339.4</ele>
        <time>2025-06-16T13:53:50Z</time>
      </trkpt>
      <trkpt lat="45.90831" lon="1.30034">
        <ele>339.4</ele>
        <time>2025-06-16T13:53:51Z</time>
      </trkpt>
      <trkpt lat="45.90831" lon="1.30034">
        <ele>339.4</ele>
        <time>2025-06-16T13:53:52Z</time>
      </trkpt>
      <trkpt lat="45.90831" lon="1.30034">
        <ele>339.4</ele>
        <time>2025-06-16T13:53:53Z</time>
      </trkpt>
      <trkpt lat="45.90831" lon="1.30034">
        <ele>339.4</ele>
        <time>2025-06-16T13:53:54Z</time>
      </trkpt>
      <trkpt lat="45.90831" lon="1.30034">
        <ele>339.4</ele>
        <time>2025-06-16T13:53:55Z</time>
      </trkpt>
      <trkpt lat="45.90831" lon="1.30034">
        <ele>339.4</ele>
        <time>2025-06-16T13:53:56Z</time>
      </trkpt>
      <trkpt lat="45.90831" lon="1.30034">
        <ele>339.4</ele>
        <time>2025-06-16T13:53:57Z</time>
      </trkpt>
      <trkpt lat="45.90831" lon="1.30034">
        <ele>339.4</ele>
        <time>2025-06-16T13:53:58Z</time>
      </trkpt>
      <trkpt lat="45.90831" lon="1.30034">
        <ele>339.4</ele>
        <time>2025-06-16T13:53:59Z</time>
      </trkpt>
      <trkpt lat="45.90831" lon="1.30034">
        <ele>339.3</ele>
        <time>2025-06-16T13:54:00Z</time>
      </trkpt>
      <trkpt lat="45.90831" lon="1.30034">
        <ele>339.3</ele>
        <time>2025-06-16T13:54:01Z</time>
      </trkpt>
      <trkpt lat="45.90831" lon="1.30034">
        <ele>339.3</ele>
        <time>2025-06-16T13:54:02Z</time>
      </trkpt>
      <trkpt lat="45.90831" lon="1.30034">
        <ele>339.3</ele>
        <time>2025-06-16T13:54:03Z</time>
      </trkpt>
      <trkpt lat="45.90831" lon="1.30034">
        <ele>339.3</ele>
        <time>2025-06-16T13:54:04Z</time>
      </trkpt>
      <trkpt lat="45.90831" lon="1.30034">
        <ele>339.3</ele>
        <time>2025-06-16T13:54:05Z</time>
      </trkpt>
      <trkpt lat="45.90831" lon="1.30035">
        <ele>339.3</ele>
        <time>2025-06-16T13:54:06Z</time>
      </trkpt>
      <trkpt lat="45.90831" lon="1.30035">
        <ele>339.3</ele>
        <time>2025-06-16T13:54:07Z</time>
      </trkpt>
      <trkpt lat="45.90831" lon="1.30035">
        <ele>339.3</ele>
        <time>2025-06-16T13:54:08Z</time>
      </trkpt>
      <trkpt lat="45.90831" lon="1.30035">
        <ele>339.3</ele>
        <time>2025-06-16T13:54:09Z</time>
      </trkpt>
      <trkpt lat="45.90831" lon="1.30035">
        <ele>339.3</ele>
        <time>2025-06-16T13:54:10Z</time>
      </trkpt>
      <trkpt lat="45.90831" lon="1.30035">
        <ele>339.3</ele>
        <time>2025-06-16T13:54:11Z</time>
      </trkpt>
      <trkpt lat="45.90831" lon="1.30035">
        <ele>339.3</ele>
        <time>2025-06-16T13:54:12Z</time>
      </trkpt>
      <trkpt lat="45.90831" lon="1.30035">
        <ele>339.3</ele>
        <time>2025-06-16T13:54:13Z</time>
      </trkpt>
      <trkpt lat="45.90831" lon="1.30035">
        <ele>339.3</ele>
        <time>2025-06-16T13:54:14Z</time>
      </trkpt>
      <trkpt lat="45.90831" lon="1.30035">
        <ele>339.3</ele>
        <time>2025-06-16T13:54:15Z</time>
      </trkpt>
      <trkpt lat="45.90831" lon="1.30035">
        <ele>339.3</ele>
        <time>2025-06-16T13:54:16Z</time>
      </trkpt>
      <trkpt lat="45.90831" lon="1.30035">
        <ele>339.3</ele>
        <time>2025-06-16T13:54:17Z</time>
      </trkpt>
      <trkpt lat="45.90831" lon="1.30035">
        <ele>339.3</ele>
        <time>2025-06-16T13:54:18Z</time>
      </trkpt>
      <trkpt lat="45.90831" lon="1.30035">
        <ele>339.3</ele>
        <time>2025-06-16T13:54:19Z</time>
      </trkpt>
      <trkpt lat="45.90831" lon="1.30035">
        <ele>339.3</ele>
        <time>2025-06-16T13:54:20Z</time>
      </trkpt>
      <trkpt lat="45.90831" lon="1.30035">
        <ele>339.3</ele>
        <time>2025-06-16T13:54:21Z</time>
      </trkpt>
      <trkpt lat="45.90831" lon="1.30035">
        <ele>339.3</ele>
        <time>2025-06-16T13:54:22Z</time>
      </trkpt>
      <trkpt lat="45.90831" lon="1.30035">
        <ele>339.3</ele>
        <time>2025-06-16T13:54:23Z</time>
      </trkpt>
      <trkpt lat="45.90831" lon="1.30035">
        <ele>339.3</ele>
        <time>2025-06-16T13:54:24Z</time>
      </trkpt>
      <trkpt lat="45.90831" lon="1.30035">
        <ele>339.3</ele>
        <time>2025-06-16T13:54:25Z</time>
      </trkpt>
      <trkpt lat="45.90831" lon="1.30035">
        <ele>339.3</ele>
        <time>2025-06-16T13:54:26Z</time>
      </trkpt>
      <trkpt lat="45.90831" lon="1.30035">
        <ele>339.3</ele>
        <time>2025-06-16T13:54:27Z</time>
      </trkpt>
      <trkpt lat="45.90831" lon="1.30035">
        <ele>339.3</ele>
        <time>2025-06-16T13:54:28Z</time>
      </trkpt>
      <trkpt lat="45.90831" lon="1.30035">
        <ele>339.3</ele>
        <time>2025-06-16T13:54:29Z</time>
      </trkpt>
      <trkpt lat="45.90831" lon="1.30035">
        <ele>339.3</ele>
        <time>2025-06-16T13:54:30Z</time>
      </trkpt>
      <trkpt lat="45.90831" lon="1.30035">
        <ele>339.3</ele>
        <time>2025-06-16T13:54:31Z</time>
      </trkpt>
      <trkpt lat="45.90831" lon="1.30035">
        <ele>339.3</ele>
        <time>2025-06-16T13:54:32Z</time>
      </trkpt>
      <trkpt lat="45.90831" lon="1.30035">
        <ele>339.3</ele>
        <time>2025-06-16T13:54:33Z</time>
      </trkpt>
      <trkpt lat="45.90831" lon="1.30035">
        <ele>339.3</ele>
        <time>2025-06-16T13:54:34Z</time>
      </trkpt>
      <trkpt lat="45.90831" lon="1.30035">
        <ele>339.3</ele>
        <time>2025-06-16T13:54:35Z</time>
      </trkpt>
      <trkpt lat="45.90831" lon="1.30035">
        <ele>339.3</ele>
        <time>2025-06-16T13:54:36Z</time>
      </trkpt>
      <trkpt lat="45.90831" lon="1.30035">
        <ele>339.3</ele>
        <time>2025-06-16T13:54:37Z</time>
      </trkpt>
      <trkpt lat="45.90831" lon="1.30035">
        <ele>339.3</ele>
        <time>2025-06-16T13:54:38Z</time>
      </trkpt>
      <trkpt lat="45.90831" lon="1.30035">
        <ele>339.3</ele>
        <time>2025-06-16T13:54:39Z</time>
      </trkpt>
      <trkpt lat="45.90831" lon="1.30035">
        <ele>339.3</ele>
        <time>2025-06-16T13:54:40Z</time>
      </trkpt>
      <trkpt lat="45.90831" lon="1.30035">
        <ele>339.3</ele>
        <time>2025-06-16T13:54:41Z</time>
      </trkpt>
      <trkpt lat="45.90831" lon="1.30035">
        <ele>339.3</ele>
        <time>2025-06-16T13:54:42Z</time>
      </trkpt>
      <trkpt lat="45.90831" lon="1.30035">
        <ele>339.3</ele>
        <time>2025-06-16T13:54:43Z</time>
      </trkpt>
      <trkpt lat="45.90831" lon="1.30035">
        <ele>339.3</ele>
        <time>2025-06-16T13:54:44Z</time>
      </trkpt>
      <trkpt lat="45.90831" lon="1.30035">
        <ele>339.3</ele>
        <time>2025-06-16T13:54:45Z</time>
      </trkpt>
      <trkpt lat="45.90831" lon="1.30035">
        <ele>339.3</ele>
        <time>2025-06-16T13:54:46Z</time>
      </trkpt>
      <trkpt lat="45.90831" lon="1.30035">
        <ele>339.3</ele>
        <time>2025-06-16T13:54:47Z</time>
      </trkpt>
      <trkpt lat="45.90831" lon="1.30035">
        <ele>339.3</ele>
        <time>2025-06-16T13:54:48Z</time>
      </trkpt>
      <trkpt lat="45.90831" lon="1.30035">
        <ele>339.3</ele>
        <time>2025-06-16T13:54:49Z</time>
      </trkpt>
      <trkpt lat="45.90831" lon="1.30035">
        <ele>339.3</ele>
        <time>2025-06-16T13:54:50Z</time>
      </trkpt>
      <trkpt lat="45.90831" lon="1.30035">
        <ele>339.3</ele>
        <time>2025-06-16T13:54:51Z</time>
      </trkpt>
      <trkpt lat="45.90831" lon="1.30035">
        <ele>339.3</ele>
        <time>2025-06-16T13:54:52Z</time>
      </trkpt>
      <trkpt lat="45.90831" lon="1.30035">
        <ele>339.3</ele>
        <time>2025-06-16T13:54:53Z</time>
      </trkpt>
      <trkpt lat="45.90831" lon="1.30035">
        <ele>339.3</ele>
        <time>2025-06-16T13:54:54Z</time>
      </trkpt>
      <trkpt lat="45.90831" lon="1.30035">
        <ele>339.3</ele>
        <time>2025-06-16T13:54:55Z</time>
      </trkpt>
      <trkpt lat="45.90831" lon="1.30035">
        <ele>339.3</ele>
        <time>2025-06-16T13:54:56Z</time>
      </trkpt>
      <trkpt lat="45.90831" lon="1.30035">
        <ele>339.3</ele>
        <time>2025-06-16T13:54:57Z</time>
      </trkpt>
      <trkpt lat="45.90831" lon="1.30035">
        <ele>339.3</ele>
        <time>2025-06-16T13:54:58Z</time>
      </trkpt>
      <trkpt lat="45.90831" lon="1.30035">
        <ele>339.3</ele>
        <time>2025-06-16T13:54:59Z</time>
      </trkpt>
      <trkpt lat="45.90831" lon="1.30035">
        <ele>339.3</ele>
        <time>2025-06-16T13:55:00Z</time>
      </trkpt>
      <trkpt lat="45.90831" lon="1.30035">
        <ele>339.3</ele>
        <time>2025-06-16T13:55:01Z</time>
      </trkpt>
      <trkpt lat="45.90831" lon="1.30035">
        <ele>339.3</ele>
        <time>2025-06-16T13:55:02Z</time>
      </trkpt>
      <trkpt lat="45.90831" lon="1.30035">
        <ele>339.3</ele>
        <time>2025-06-16T13:55:03Z</time>
      </trkpt>
      <trkpt lat="45.90831" lon="1.30035">
        <ele>339.3</ele>
        <time>2025-06-16T13:55:04Z</time>
      </trkpt>
      <trkpt lat="45.90831" lon="1.30035">
        <ele>339.3</ele>
        <time>2025-06-16T13:55:05Z</time>
      </trkpt>
      <trkpt lat="45.90831" lon="1.30035">
        <ele>339.3</ele>
        <time>2025-06-16T13:55:06Z</time>
      </trkpt>
      <trkpt lat="45.90831" lon="1.30035">
        <ele>339.3</ele>
        <time>2025-06-16T13:55:07Z</time>
      </trkpt>
      <trkpt lat="45.90831" lon="1.30035">
        <ele>339.3</ele>
        <time>2025-06-16T13:55:08Z</time>
      </trkpt>
      <trkpt lat="45.90831" lon="1.30035">
        <ele>339.3</ele>
        <time>2025-06-16T13:55:09Z</time>
      </trkpt>
      <trkpt lat="45.90831" lon="1.30035">
        <ele>339.3</ele>
        <time>2025-06-16T13:55:10Z</time>
      </trkpt>
      <trkpt lat="45.90831" lon="1.30035">
        <ele>339.3</ele>
        <time>2025-06-16T13:55:11Z</time>
      </trkpt>
      <trkpt lat="45.90831" lon="1.30035">
        <ele>339.3</ele>
        <time>2025-06-16T13:55:12Z</time>
      </trkpt>
      <trkpt lat="45.90831" lon="1.30036">
        <ele>339.3</ele>
        <time>2025-06-16T13:55:13Z</time>
      </trkpt>
      <trkpt lat="45.90831" lon="1.30036">
        <ele>339.3</ele>
        <time>2025-06-16T13:55:14Z</time>
      </trkpt>
      <trkpt lat="45.90831" lon="1.30036">
        <ele>339.3</ele>
        <time>2025-06-16T13:55:15Z</time>
      </trkpt>
      <trkpt lat="45.90831" lon="1.30036">
        <ele>339.3</ele>
        <time>2025-06-16T13:55:16Z</time>
      </trkpt>
      <trkpt lat="45.90831" lon="1.30036">
        <ele>339.3</ele>
        <time>2025-06-16T13:55:17Z</time>
      </trkpt>
      <trkpt lat="45.90831" lon="1.30036">
        <ele>339.3</ele>
        <time>2025-06-16T13:55:18Z</time>
      </trkpt>
      <trkpt lat="45.90831" lon="1.30036">
        <ele>339.3</ele>
        <time>2025-06-16T13:55:19Z</time>
      </trkpt>
      <trkpt lat="45.90831" lon="1.30036">
        <ele>339.3</ele>
        <time>2025-06-16T13:55:20Z</time>
      </trkpt>
      <trkpt lat="45.90831" lon="1.30036">
        <ele>339.3</ele>
        <time>2025-06-16T13:55:21Z</time>
      </trkpt>
      <trkpt lat="45.90831" lon="1.30036">
        <ele>339.3</ele>
        <time>2025-06-16T13:55:22Z</time>
      </trkpt>
      <trkpt lat="45.90831" lon="1.30036">
        <ele>339.3</ele>
        <time>2025-06-16T13:55:23Z</time>
      </trkpt>
      <trkpt lat="45.90831" lon="1.30036">
        <ele>339.3</ele>
        <time>2025-06-16T13:55:24Z</time>
      </trkpt>
      <trkpt lat="45.90831" lon="1.30036">
        <ele>339.3</ele>
        <time>2025-06-16T13:55:25Z</time>
      </trkpt>
      <trkpt lat="45.90831" lon="1.30036">
        <ele>339.3</ele>
        <time>2025-06-16T13:55:26Z</time>
      </trkpt>
      <trkpt lat="45.90831" lon="1.30036">
        <ele>339.3</ele>
        <time>2025-06-16T13:55:27Z</time>
      </trkpt>
      <trkpt lat="45.90831" lon="1.30036">
        <ele>339.3</ele>
        <time>2025-06-16T13:55:28Z</time>
      </trkpt>
      <trkpt lat="45.90831" lon="1.30036">
        <ele>339.3</ele>
        <time>2025-06-16T13:55:29Z</time>
      </trkpt>
      <trkpt lat="45.90831" lon="1.30036">
        <ele>339.3</ele>
        <time>2025-06-16T13:55:30Z</time>
      </trkpt>
      <trkpt lat="45.90831" lon="1.30036">
        <ele>339.3</ele>
        <time>2025-06-16T13:55:31Z</time>
      </trkpt>
      <trkpt lat="45.90831" lon="1.30036">
        <ele>339.3</ele>
        <time>2025-06-16T13:55:32Z</time>
      </trkpt>
      <trkpt lat="45.90832" lon="1.30036">
        <ele>339.3</ele>
        <time>2025-06-16T13:55:33Z</time>
      </trkpt>
      <trkpt lat="45.90832" lon="1.30036">
        <ele>339.3</ele>
        <time>2025-06-16T13:55:34Z</time>
      </trkpt>
      <trkpt lat="45.90832" lon="1.30036">
        <ele>339.3</ele>
        <time>2025-06-16T13:55:35Z</time>
      </trkpt>
      <trkpt lat="45.90832" lon="1.30036">
        <ele>339.3</ele>
        <time>2025-06-16T13:55:36Z</time>
      </trkpt>
      <trkpt lat="45.90832" lon="1.30036">
        <ele>339.3</ele>
        <time>2025-06-16T13:55:37Z</time>
      </trkpt>
      <trkpt lat="45.90832" lon="1.30036">
        <ele>339.3</ele>
        <time>2025-06-16T13:55:38Z</time>
      </trkpt>
      <trkpt lat="45.90832" lon="1.30036">
        <ele>339.3</ele>
        <time>2025-06-16T13:55:39Z</time>
      </trkpt>
      <trkpt lat="45.90832" lon="1.30036">
        <ele>339.3</ele>
        <time>2025-06-16T13:55:40Z</time>
      </trkpt>
      <trkpt lat="45.90832" lon="1.30036">
        <ele>339.3</ele>
        <time>2025-06-16T13:55:41Z</time>
      </trkpt>
      <trkpt lat="45.90832" lon="1.30036">
        <ele>339.3</ele>
        <time>2025-06-16T13:55:42Z</time>
      </trkpt>
      <trkpt lat="45.90832" lon="1.30036">
        <ele>339.3</ele>
        <time>2025-06-16T13:55:43Z</time>
      </trkpt>
      <trkpt lat="45.90832" lon="1.30036">
        <ele>339.3</ele>
        <time>2025-06-16T13:55:44Z</time>
      </trkpt>
      <trkpt lat="45.90832" lon="1.30036">
        <ele>339.3</ele>
        <time>2025-06-16T13:55:45Z</time>
      </trkpt>
      <trkpt lat="45.90832" lon="1.30036">
        <ele>339.3</ele>
        <time>2025-06-16T13:55:46Z</time>
      </trkpt>
      <trkpt lat="45.90832" lon="1.30036">
        <ele>339.3</ele>
        <time>2025-06-16T13:55:47Z</time>
      </trkpt>
      <trkpt lat="45.90832" lon="1.30036">
        <ele>339.3</ele>
        <time>2025-06-16T13:55:48Z</time>
      </trkpt>
      <trkpt lat="45.90832" lon="1.30036">
        <ele>339.3</ele>
        <time>2025-06-16T13:55:49Z</time>
      </trkpt>
      <trkpt lat="45.90832" lon="1.30036">
        <ele>339.3</ele>
        <time>2025-06-16T13:55:50Z</time>
      </trkpt>
      <trkpt lat="45.90832" lon="1.30036">
        <ele>339.3</ele>
        <time>2025-06-16T13:55:51Z</time>
      </trkpt>
      <trkpt lat="45.90832" lon="1.30036">
        <ele>339.3</ele>
        <time>2025-06-16T13:55:52Z</time>
      </trkpt>
      <trkpt lat="45.90832" lon="1.30036">
        <ele>339.3</ele>
        <time>2025-06-16T13:55:53Z</time>
      </trkpt>
      <trkpt lat="45.90832" lon="1.30036">
        <ele>339.3</ele>
        <time>2025-06-16T13:55:54Z</time>
      </trkpt>
      <trkpt lat="45.90832" lon="1.30036">
        <ele>339.3</ele>
        <time>2025-06-16T13:55:55Z</time>
      </trkpt>
      <trkpt lat="45.90832" lon="1.30036">
        <ele>339.3</ele>
        <time>2025-06-16T13:55:56Z</time>
      </trkpt>
      <trkpt lat="45.90834" lon="1.3004">
        <ele>339.1</ele>
        <time>2025-06-16T13:55:57Z</time>
      </trkpt>
      <trkpt lat="45.90835" lon="1.30042">
        <ele>339.1</ele>
        <time>2025-06-16T13:55:58Z</time>
      </trkpt>
      <trkpt lat="45.90837" lon="1.30045">
        <ele>338.9</ele>
        <time>2025-06-16T13:55:59Z</time>
      </trkpt>
      <trkpt lat="45.9084" lon="1.3005">
        <ele>338.8</ele>
        <time>2025-06-16T13:56:00Z</time>
      </trkpt>
      <trkpt lat="45.90843" lon="1.30055">
        <ele>338.6</ele>
        <time>2025-06-16T13:56:01Z</time>
      </trkpt>
      <trkpt lat="45.90846" lon="1.30061">
        <ele>338.4</ele>
        <time>2025-06-16T13:56:02Z</time>
      </trkpt>
      <trkpt lat="45.9085" lon="1.30067">
        <ele>338.2</ele>
        <time>2025-06-16T13:56:03Z</time>
      </trkpt>
      <trkpt lat="45.90853" lon="1.30074">
        <ele>338</ele>
        <time>2025-06-16T13:56:04Z</time>
      </trkpt>
      <trkpt lat="45.90856" lon="1.30081">
        <ele>337.8</ele>
        <time>2025-06-16T13:56:05Z</time>
      </trkpt>
      <trkpt lat="45.9086" lon="1.30087">
        <ele>337.6</ele>
        <time>2025-06-16T13:56:06Z</time>
      </trkpt>
      <trkpt lat="45.90863" lon="1.30094">
        <ele>337.4</ele>
        <time>2025-06-16T13:56:07Z</time>
      </trkpt>
      <trkpt lat="45.90867" lon="1.30101">
        <ele>337.2</ele>
        <time>2025-06-16T13:56:08Z</time>
      </trkpt>
      <trkpt lat="45.90871" lon="1.30108">
        <ele>337.1</ele>
        <time>2025-06-16T13:56:09Z</time>
      </trkpt>
      <trkpt lat="45.90874" lon="1.30115">
        <ele>336.9</ele>
        <time>2025-06-16T13:56:10Z</time>
      </trkpt>
      <trkpt lat="45.90877" lon="1.30122">
        <ele>336.7</ele>
        <time>2025-06-16T13:56:11Z</time>
      </trkpt>
      <trkpt lat="45.9088" lon="1.30129">
        <ele>336.5</ele>
        <time>2025-06-16T13:56:12Z</time>
      </trkpt>
      <trkpt lat="45.90883" lon="1.30136">
        <ele>336.4</ele>
        <time>2025-06-16T13:56:13Z</time>
      </trkpt>
      <trkpt lat="45.90886" lon="1.30143">
        <ele>336.3</ele>
        <time>2025-06-16T13:56:14Z</time>
      </trkpt>
      <trkpt lat="45.90889" lon="1.3015">
        <ele>336.1</ele>
        <time>2025-06-16T13:56:15Z</time>
      </trkpt>
      <trkpt lat="45.90892" lon="1.30156">
        <ele>336</ele>
        <time>2025-06-16T13:56:16Z</time>
      </trkpt>
      <trkpt lat="45.90895" lon="1.30163">
        <ele>335.9</ele>
        <time>2025-06-16T13:56:17Z</time>
      </trkpt>
      <trkpt lat="45.90898" lon="1.3017">
        <ele>335.8</ele>
        <time>2025-06-16T13:56:18Z</time>
      </trkpt>
      <trkpt lat="45.90901" lon="1.30177">
        <ele>335.7</ele>
        <time>2025-06-16T13:56:19Z</time>
      </trkpt>
      <trkpt lat="45.90904" lon="1.30183">
        <ele>335.6</ele>
        <time>2025-06-16T13:56:20Z</time>
      </trkpt>
      <trkpt lat="45.90907" lon="1.3019">
        <ele>335.4</ele>
        <time>2025-06-16T13:56:21Z</time>
      </trkpt>
      <trkpt lat="45.9091" lon="1.30197">
        <ele>335.3</ele>
        <time>2025-06-16T13:56:22Z</time>
      </trkpt>
      <trkpt lat="45.90912" lon="1.30204">
        <ele>335.2</ele>
        <time>2025-06-16T13:56:23Z</time>
      </trkpt>
      <trkpt lat="45.90914" lon="1.3021">
        <ele>335</ele>
        <time>2025-06-16T13:56:24Z</time>
      </trkpt>
      <trkpt lat="45.90917" lon="1.30217">
        <ele>334.8</ele>
        <time>2025-06-16T13:56:25Z</time>
      </trkpt>
      <trkpt lat="45.90921" lon="1.30225">
        <ele>334.6</ele>
        <time>2025-06-16T13:56:26Z</time>
      </trkpt>
      <trkpt lat="45.90925" lon="1.30234">
        <ele>334.4</ele>
        <time>2025-06-16T13:56:27Z</time>
      </trkpt>
      <trkpt lat="45.9093" lon="1.30241">
        <ele>334.2</ele>
        <time>2025-06-16T13:56:28Z</time>
      </trkpt>
      <trkpt lat="45.90935" lon="1.30248">
        <ele>334</ele>
        <time>2025-06-16T13:56:29Z</time>
      </trkpt>
      <trkpt lat="45.90942" lon="1.30254">
        <ele>333.8</ele>
        <time>2025-06-16T13:56:30Z</time>
      </trkpt>
      <trkpt lat="45.90947" lon="1.30253">
        <ele>333.7</ele>
        <time>2025-06-16T13:56:31Z</time>
      </trkpt>
      <trkpt lat="45.90953" lon="1.30253">
        <ele>333.6</ele>
        <time>2025-06-16T13:56:32Z</time>
      </trkpt>
      <trkpt lat="45.9096" lon="1.30252">
        <ele>333.5</ele>
        <time>2025-06-16T13:56:33Z</time>
      </trkpt>
      <trkpt lat="45.90965" lon="1.30252">
        <ele>333.4</ele>
        <time>2025-06-16T13:56:34Z</time>
      </trkpt>
      <trkpt lat="45.90968" lon="1.30251">
        <ele>333.4</ele>
        <time>2025-06-16T13:56:35Z</time>
      </trkpt>
      <trkpt lat="45.90971" lon="1.30251">
        <ele>333.4</ele>
        <time>2025-06-16T13:56:36Z</time>
      </trkpt>
      <trkpt lat="45.90974" lon="1.30252">
        <ele>333.4</ele>
        <time>2025-06-16T13:56:37Z</time>
      </trkpt>
      <trkpt lat="45.90977" lon="1.30253">
        <ele>333.4</ele>
        <time>2025-06-16T13:56:38Z</time>
      </trkpt>
      <trkpt lat="45.9098" lon="1.30254">
        <ele>333.4</ele>
        <time>2025-06-16T13:56:39Z</time>
      </trkpt>
      <trkpt lat="45.90987" lon="1.30256">
        <ele>333.4</ele>
        <time>2025-06-16T13:56:40Z</time>
      </trkpt>
      <trkpt lat="45.9099" lon="1.30258">
        <ele>333.4</ele>
        <time>2025-06-16T13:56:41Z</time>
      </trkpt>
      <trkpt lat="45.90991" lon="1.30258">
        <ele>333.4</ele>
        <time>2025-06-16T13:56:42Z</time>
      </trkpt>
      <trkpt lat="45.90995" lon="1.30259">
        <ele>333.4</ele>
        <time>2025-06-16T13:56:43Z</time>
      </trkpt>
      <trkpt lat="45.90999" lon="1.3026">
        <ele>333.4</ele>
        <time>2025-06-16T13:56:44Z</time>
      </trkpt>
      <trkpt lat="45.91002" lon="1.30261">
        <ele>333.4</ele>
        <time>2025-06-16T13:56:45Z</time>
      </trkpt>
      <trkpt lat="45.91003" lon="1.30261">
        <ele>333.4</ele>
        <time>2025-06-16T13:56:46Z</time>
      </trkpt>
      <trkpt lat="45.91005" lon="1.3026">
        <ele>333.4</ele>
        <time>2025-06-16T13:56:47Z</time>
      </trkpt>
      <trkpt lat="45.91008" lon="1.30262">
        <ele>333.4</ele>
        <time>2025-06-16T13:56:48Z</time>
      </trkpt>
      <trkpt lat="45.91009" lon="1.30263">
        <ele>333.4</ele>
        <time>2025-06-16T13:56:49Z</time>
      </trkpt>
      <trkpt lat="45.91013" lon="1.30267">
        <ele>333.4</ele>
        <time>2025-06-16T13:56:50Z</time>
      </trkpt>
      <trkpt lat="45.91017" lon="1.30273">
        <ele>333.4</ele>
        <time>2025-06-16T13:56:51Z</time>
      </trkpt>
      <trkpt lat="45.91021" lon="1.30278">
        <ele>333.4</ele>
        <time>2025-06-16T13:56:52Z</time>
      </trkpt>
      <trkpt lat="45.91031" lon="1.30292">
        <ele>333.6</ele>
        <time>2025-06-16T13:56:53Z</time>
      </trkpt>
      <trkpt lat="45.91036" lon="1.303">
        <ele>333.8</ele>
        <time>2025-06-16T13:56:54Z</time>
      </trkpt>
      <trkpt lat="45.91038" lon="1.30307">
        <ele>333.9</ele>
        <time>2025-06-16T13:56:55Z</time>
      </trkpt>
      <trkpt lat="45.9104" lon="1.30312">
        <ele>334.1</ele>
        <time>2025-06-16T13:56:56Z</time>
      </trkpt>
      <trkpt lat="45.91042" lon="1.30318">
        <ele>334.3</ele>
        <time>2025-06-16T13:56:57Z</time>
      </trkpt>
      <trkpt lat="45.91044" lon="1.30325">
        <ele>334.5</ele>
        <time>2025-06-16T13:56:58Z</time>
      </trkpt>
      <trkpt lat="45.91047" lon="1.30331">
        <ele>334.7</ele>
        <time>2025-06-16T13:56:59Z</time>
      </trkpt>
      <trkpt lat="45.91049" lon="1.30338">
        <ele>334.9</ele>
        <time>2025-06-16T13:57:00Z</time>
      </trkpt>
      <trkpt lat="45.91051" lon="1.30344">
        <ele>335.2</ele>
        <time>2025-06-16T13:57:01Z</time>
      </trkpt>
      <trkpt lat="45.91053" lon="1.3035">
        <ele>335.4</ele>
        <time>2025-06-16T13:57:02Z</time>
      </trkpt>
      <trkpt lat="45.91054" lon="1.30356">
        <ele>335.7</ele>
        <time>2025-06-16T13:57:03Z</time>
      </trkpt>
      <trkpt lat="45.91055" lon="1.30362">
        <ele>335.9</ele>
        <time>2025-06-16T13:57:04Z</time>
      </trkpt>
      <trkpt lat="45.91055" lon="1.30368">
        <ele>336.1</ele>
        <time>2025-06-16T13:57:05Z</time>
      </trkpt>
      <trkpt lat="45.91056" lon="1.30376">
        <ele>336.4</ele>
        <time>2025-06-16T13:57:06Z</time>
      </trkpt>
      <trkpt lat="45.91055" lon="1.3039">
        <ele>335.3</ele>
        <time>2025-06-16T13:57:07Z</time>
      </trkpt>
      <trkpt lat="45.91054" lon="1.30401">
        <ele>334.5</ele>
        <time>2025-06-16T13:57:08Z</time>
      </trkpt>
      <trkpt lat="45.91052" lon="1.30412">
        <ele>333.6</ele>
        <time>2025-06-16T13:57:09Z</time>
      </trkpt>
      <trkpt lat="45.9105" lon="1.30424">
        <ele>332.7</ele>
        <time>2025-06-16T13:57:10Z</time>
      </trkpt>
      <trkpt lat="45.91049" lon="1.30437">
        <ele>331.6</ele>
        <time>2025-06-16T13:57:11Z</time>
      </trkpt>
      <trkpt lat="45.91047" lon="1.30453">
        <ele>330.4</ele>
        <time>2025-06-16T13:57:12Z</time>
      </trkpt>
      <trkpt lat="45.91048" lon="1.30471">
        <ele>329.2</ele>
        <time>2025-06-16T13:57:13Z</time>
      </trkpt>
      <trkpt lat="45.91048" lon="1.30491">
        <ele>327.7</ele>
        <time>2025-06-16T13:57:14Z</time>
      </trkpt>
      <trkpt lat="45.91051" lon="1.30511">
        <ele>326.1</ele>
        <time>2025-06-16T13:57:15Z</time>
      </trkpt>
      <trkpt lat="45.91055" lon="1.30528">
        <ele>324.8</ele>
        <time>2025-06-16T13:57:16Z</time>
      </trkpt>
      <trkpt lat="45.9106" lon="1.30544">
        <ele>323.6</ele>
        <time>2025-06-16T13:57:17Z</time>
      </trkpt>
      <trkpt lat="45.91066" lon="1.30559">
        <ele>322.3</ele>
        <time>2025-06-16T13:57:18Z</time>
      </trkpt>
      <trkpt lat="45.91072" lon="1.30577">
        <ele>320.8</ele>
        <time>2025-06-16T13:57:19Z</time>
      </trkpt>
      <trkpt lat="45.91077" lon="1.30596">
        <ele>319.4</ele>
        <time>2025-06-16T13:57:20Z</time>
      </trkpt>
      <trkpt lat="45.91082" lon="1.30615">
        <ele>318.2</ele>
        <time>2025-06-16T13:57:21Z</time>
      </trkpt>
      <trkpt lat="45.91078" lon="1.30632">
        <ele>317.5</ele>
        <time>2025-06-16T13:57:22Z</time>
      </trkpt>
      <trkpt lat="45.91084" lon="1.30647">
        <ele>317</ele>
        <time>2025-06-16T13:57:23Z</time>
      </trkpt>
      <trkpt lat="45.91092" lon="1.30662">
        <ele>317</ele>
        <time>2025-06-16T13:57:24Z</time>
      </trkpt>
      <trkpt lat="45.911" lon="1.30677">
        <ele>316.9</ele>
        <time>2025-06-16T13:57:25Z</time>
      </trkpt>
      <trkpt lat="45.91109" lon="1.3069">
        <ele>316.7</ele>
        <time>2025-06-16T13:57:26Z</time>
      </trkpt>
      <trkpt lat="45.91118" lon="1.30703">
        <ele>316.6</ele>
        <time>2025-06-16T13:57:27Z</time>
      </trkpt>
      <trkpt lat="45.91125" lon="1.30717">
        <ele>316.5</ele>
        <time>2025-06-16T13:57:28Z</time>
      </trkpt>
      <trkpt lat="45.9113" lon="1.30729">
        <ele>316.3</ele>
        <time>2025-06-16T13:57:29Z</time>
      </trkpt>
      <trkpt lat="45.91133" lon="1.30741">
        <ele>316.2</ele>
        <time>2025-06-16T13:57:30Z</time>
      </trkpt>
      <trkpt lat="45.91127" lon="1.30752">
        <ele>316.1</ele>
        <time>2025-06-16T13:57:31Z</time>
      </trkpt>
      <trkpt lat="45.91128" lon="1.3076">
        <ele>316.1</ele>
        <time>2025-06-16T13:57:32Z</time>
      </trkpt>
      <trkpt lat="45.91129" lon="1.30766">
        <ele>316.1</ele>
        <time>2025-06-16T13:57:33Z</time>
      </trkpt>
      <trkpt lat="45.91131" lon="1.30769">
        <ele>316.4</ele>
        <time>2025-06-16T13:57:34Z</time>
      </trkpt>
      <trkpt lat="45.91132" lon="1.3077">
        <ele>316.5</ele>
        <time>2025-06-16T13:57:35Z</time>
      </trkpt>
      <trkpt lat="45.91133" lon="1.30771">
        <ele>316.6</ele>
        <time>2025-06-16T13:57:36Z</time>
      </trkpt>
      <trkpt lat="45.91133" lon="1.30771">
        <ele>316.6</ele>
        <time>2025-06-16T13:57:37Z</time>
      </trkpt>
      <trkpt lat="45.91133" lon="1.30771">
        <ele>316.7</ele>
        <time>2025-06-16T13:57:38Z</time>
      </trkpt>
      <trkpt lat="45.91134" lon="1.30772">
        <ele>316.8</ele>
        <time>2025-06-16T13:57:39Z</time>
      </trkpt>
      <trkpt lat="45.91134" lon="1.30772">
        <ele>316.8</ele>
        <time>2025-06-16T13:57:40Z</time>
      </trkpt>
      <trkpt lat="45.91135" lon="1.30772">
        <ele>316.9</ele>
        <time>2025-06-16T13:57:41Z</time>
      </trkpt>
      <trkpt lat="45.91135" lon="1.30772">
        <ele>316.9</ele>
        <time>2025-06-16T13:57:42Z</time>
      </trkpt>
      <trkpt lat="45.91138" lon="1.30774">
        <ele>317.3</ele>
        <time>2025-06-16T13:57:43Z</time>
      </trkpt>
      <trkpt lat="45.91139" lon="1.30775">
        <ele>317.5</ele>
        <time>2025-06-16T13:57:44Z</time>
      </trkpt>
      <trkpt lat="45.91143" lon="1.30778">
        <ele>318.1</ele>
        <time>2025-06-16T13:57:45Z</time>
      </trkpt>
      <trkpt lat="45.91144" lon="1.30779">
        <ele>318.3</ele>
        <time>2025-06-16T13:57:46Z</time>
      </trkpt>
      <trkpt lat="45.91148" lon="1.30782">
        <ele>319</ele>
        <time>2025-06-16T13:57:47Z</time>
      </trkpt>
      <trkpt lat="45.91151" lon="1.30785">
        <ele>319.6</ele>
        <time>2025-06-16T13:57:48Z</time>
      </trkpt>
      <trkpt lat="45.91153" lon="1.30789">
        <ele>320.4</ele>
        <time>2025-06-16T13:57:49Z</time>
      </trkpt>
      <trkpt lat="45.91155" lon="1.30793">
        <ele>321.2</ele>
        <time>2025-06-16T13:57:50Z</time>
      </trkpt>
      <trkpt lat="45.91156" lon="1.30797">
        <ele>321.6</ele>
        <time>2025-06-16T13:57:51Z</time>
      </trkpt>
      <trkpt lat="45.91156" lon="1.30799">
        <ele>321.9</ele>
        <time>2025-06-16T13:57:52Z</time>
      </trkpt>
      <trkpt lat="45.91156" lon="1.30802">
        <ele>322.2</ele>
        <time>2025-06-16T13:57:53Z</time>
      </trkpt>
      <trkpt lat="45.91156" lon="1.30804">
        <ele>322.3</ele>
        <time>2025-06-16T13:57:54Z</time>
      </trkpt>
      <trkpt lat="45.91156" lon="1.30804">
        <ele>322.4</ele>
        <time>2025-06-16T13:57:55Z</time>
      </trkpt>
      <trkpt lat="45.91156" lon="1.30804">
        <ele>322.4</ele>
        <time>2025-06-16T13:57:56Z</time>
      </trkpt>
      <trkpt lat="45.91156" lon="1.30805">
        <ele>322.4</ele>
        <time>2025-06-16T13:57:57Z</time>
      </trkpt>
      <trkpt lat="45.91156" lon="1.30805">
        <ele>322.4</ele>
        <time>2025-06-16T13:57:58Z</time>
      </trkpt>
      <trkpt lat="45.91156" lon="1.30805">
        <ele>322.4</ele>
        <time>2025-06-16T13:57:59Z</time>
      </trkpt>
      <trkpt lat="45.91156" lon="1.30805">
        <ele>322.4</ele>
        <time>2025-06-16T13:58:00Z</time>
      </trkpt>
      <trkpt lat="45.91156" lon="1.30805">
        <ele>322.4</ele>
        <time>2025-06-16T13:58:01Z</time>
      </trkpt>
      <trkpt lat="45.91156" lon="1.30805">
        <ele>322.5</ele>
        <time>2025-06-16T13:58:02Z</time>
      </trkpt>
      <trkpt lat="45.91156" lon="1.30806">
        <ele>322.5</ele>
        <time>2025-06-16T13:58:03Z</time>
      </trkpt>
      <trkpt lat="45.91156" lon="1.30806">
        <ele>322.5</ele>
        <time>2025-06-16T13:58:04Z</time>
      </trkpt>
      <trkpt lat="45.91156" lon="1.30806">
        <ele>322.5</ele>
        <time>2025-06-16T13:58:05Z</time>
      </trkpt>
      <trkpt lat="45.91156" lon="1.30806">
        <ele>322.5</ele>
        <time>2025-06-16T13:58:06Z</time>
      </trkpt>
      <trkpt lat="45.91156" lon="1.30806">
        <ele>322.5</ele>
        <time>2025-06-16T13:58:07Z</time>
      </trkpt>
      <trkpt lat="45.91156" lon="1.30806">
        <ele>322.6</ele>
        <time>2025-06-16T13:58:08Z</time>
      </trkpt>
      <trkpt lat="45.91157" lon="1.30806">
        <ele>322.6</ele>
        <time>2025-06-16T13:58:09Z</time>
      </trkpt>
      <trkpt lat="45.91157" lon="1.30807">
        <ele>322.6</ele>
        <time>2025-06-16T13:58:10Z</time>
      </trkpt>
      <trkpt lat="45.91157" lon="1.30807">
        <ele>322.6</ele>
        <time>2025-06-16T13:58:11Z</time>
      </trkpt>
      <trkpt lat="45.91157" lon="1.30807">
        <ele>322.6</ele>
        <time>2025-06-16T13:58:12Z</time>
      </trkpt>
      <trkpt lat="45.91158" lon="1.30811">
        <ele>322.8</ele>
        <time>2025-06-16T13:58:13Z</time>
      </trkpt>
      <trkpt lat="45.91158" lon="1.30815">
        <ele>322.9</ele>
        <time>2025-06-16T13:58:14Z</time>
      </trkpt>
      <trkpt lat="45.91158" lon="1.30816">
        <ele>323</ele>
        <time>2025-06-16T13:58:15Z</time>
      </trkpt>
      <trkpt lat="45.91158" lon="1.30821">
        <ele>323</ele>
        <time>2025-06-16T13:58:16Z</time>
      </trkpt>
      <trkpt lat="45.91158" lon="1.30822">
        <ele>323.1</ele>
        <time>2025-06-16T13:58:17Z</time>
      </trkpt>
      <trkpt lat="45.91157" lon="1.30827">
        <ele>323.1</ele>
        <time>2025-06-16T13:58:18Z</time>
      </trkpt>
      <trkpt lat="45.91156" lon="1.30832">
        <ele>323.2</ele>
        <time>2025-06-16T13:58:19Z</time>
      </trkpt>
      <trkpt lat="45.91155" lon="1.30834">
        <ele>323.4</ele>
        <time>2025-06-16T13:58:20Z</time>
      </trkpt>
      <trkpt lat="45.91155" lon="1.30836">
        <ele>323.5</ele>
        <time>2025-06-16T13:58:21Z</time>
      </trkpt>
      <trkpt lat="45.91154" lon="1.30837">
        <ele>323.6</ele>
        <time>2025-06-16T13:58:22Z</time>
      </trkpt>
      <trkpt lat="45.91153" lon="1.30837">
        <ele>323.7</ele>
        <time>2025-06-16T13:58:23Z</time>
      </trkpt>
      <trkpt lat="45.91153" lon="1.30837">
        <ele>323.8</ele>
        <time>2025-06-16T13:58:24Z</time>
      </trkpt>
      <trkpt lat="45.91152" lon="1.30837">
        <ele>323.9</ele>
        <time>2025-06-16T13:58:25Z</time>
      </trkpt>
      <trkpt lat="45.91152" lon="1.30838">
        <ele>324</ele>
        <time>2025-06-16T13:58:26Z</time>
      </trkpt>
      <trkpt lat="45.91152" lon="1.3084">
        <ele>324.2</ele>
        <time>2025-06-16T13:58:27Z</time>
      </trkpt>
      <trkpt lat="45.91152" lon="1.30841">
        <ele>324.3</ele>
        <time>2025-06-16T13:58:28Z</time>
      </trkpt>
      <trkpt lat="45.91152" lon="1.30842">
        <ele>324.5</ele>
        <time>2025-06-16T13:58:29Z</time>
      </trkpt>
      <trkpt lat="45.91152" lon="1.30843">
        <ele>324.6</ele>
        <time>2025-06-16T13:58:30Z</time>
      </trkpt>
      <trkpt lat="45.91151" lon="1.30843">
        <ele>324.7</ele>
        <time>2025-06-16T13:58:31Z</time>
      </trkpt>
      <trkpt lat="45.91151" lon="1.30844">
        <ele>324.8</ele>
        <time>2025-06-16T13:58:32Z</time>
      </trkpt>
      <trkpt lat="45.91151" lon="1.30844">
        <ele>324.9</ele>
        <time>2025-06-16T13:58:33Z</time>
      </trkpt>
      <trkpt lat="45.91151" lon="1.30844">
        <ele>324.9</ele>
        <time>2025-06-16T13:58:34Z</time>
      </trkpt>
      <trkpt lat="45.9115" lon="1.30844">
        <ele>324.9</ele>
        <time>2025-06-16T13:58:35Z</time>
      </trkpt>
      <trkpt lat="45.9115" lon="1.30844">
        <ele>324.9</ele>
        <time>2025-06-16T13:58:36Z</time>
      </trkpt>
      <trkpt lat="45.9115" lon="1.30844">
        <ele>324.9</ele>
        <time>2025-06-16T13:58:37Z</time>
      </trkpt>
      <trkpt lat="45.9115" lon="1.30844">
        <ele>325</ele>
        <time>2025-06-16T13:58:38Z</time>
      </trkpt>
      <trkpt lat="45.9115" lon="1.30844">
        <ele>325</ele>
        <time>2025-06-16T13:58:39Z</time>
      </trkpt>
      <trkpt lat="45.9115" lon="1.30844">
        <ele>325</ele>
        <time>2025-06-16T13:58:40Z</time>
      </trkpt>
      <trkpt lat="45.9115" lon="1.30844">
        <ele>325.1</ele>
        <time>2025-06-16T13:58:41Z</time>
      </trkpt>
      <trkpt lat="45.9115" lon="1.30844">
        <ele>325.1</ele>
        <time>2025-06-16T13:58:42Z</time>
      </trkpt>
      <trkpt lat="45.9115" lon="1.30844">
        <ele>325.1</ele>
        <time>2025-06-16T13:58:43Z</time>
      </trkpt>
      <trkpt lat="45.9115" lon="1.30844">
        <ele>325.1</ele>
        <time>2025-06-16T13:58:44Z</time>
      </trkpt>
      <trkpt lat="45.9115" lon="1.30844">
        <ele>325.1</ele>
        <time>2025-06-16T13:58:45Z</time>
      </trkpt>
      <trkpt lat="45.9115" lon="1.30844">
        <ele>325.1</ele>
        <time>2025-06-16T13:58:46Z</time>
      </trkpt>
      <trkpt lat="45.9115" lon="1.30844">
        <ele>325.1</ele>
        <time>2025-06-16T13:58:47Z</time>
      </trkpt>
      <trkpt lat="45.9115" lon="1.30844">
        <ele>325.1</ele>
        <time>2025-06-16T13:58:48Z</time>
      </trkpt>
      <trkpt lat="45.9115" lon="1.30844">
        <ele>325.2</ele>
        <time>2025-06-16T13:58:49Z</time>
      </trkpt>
      <trkpt lat="45.9115" lon="1.30844">
        <ele>325.2</ele>
        <time>2025-06-16T13:58:50Z</time>
      </trkpt>
      <trkpt lat="45.9115" lon="1.30844">
        <ele>325.2</ele>
        <time>2025-06-16T13:58:51Z</time>
      </trkpt>
      <trkpt lat="45.9115" lon="1.30844">
        <ele>325.2</ele>
        <time>2025-06-16T13:58:52Z</time>
      </trkpt>
      <trkpt lat="45.9115" lon="1.30844">
        <ele>325.2</ele>
        <time>2025-06-16T13:58:53Z</time>
      </trkpt>
      <trkpt lat="45.9115" lon="1.30844">
        <ele>325.2</ele>
        <time>2025-06-16T13:58:54Z</time>
      </trkpt>
      <trkpt lat="45.9115" lon="1.30844">
        <ele>325.2</ele>
        <time>2025-06-16T13:58:55Z</time>
      </trkpt>
      <trkpt lat="45.9115" lon="1.30844">
        <ele>325.2</ele>
        <time>2025-06-16T13:58:56Z</time>
      </trkpt>
      <trkpt lat="45.9115" lon="1.30844">
        <ele>325.2</ele>
        <time>2025-06-16T13:58:57Z</time>
      </trkpt>
      <trkpt lat="45.9115" lon="1.30844">
        <ele>325.2</ele>
        <time>2025-06-16T13:58:58Z</time>
      </trkpt>
      <trkpt lat="45.9115" lon="1.30844">
        <ele>325.2</ele>
        <time>2025-06-16T13:58:59Z</time>
      </trkpt>
      <trkpt lat="45.9115" lon="1.30844">
        <ele>325.2</ele>
        <time>2025-06-16T13:59:00Z</time>
      </trkpt>
      <trkpt lat="45.9115" lon="1.30845">
        <ele>325.2</ele>
        <time>2025-06-16T13:59:01Z</time>
      </trkpt>
      <trkpt lat="45.9115" lon="1.30845">
        <ele>325.2</ele>
        <time>2025-06-16T13:59:02Z</time>
      </trkpt>
      <trkpt lat="45.9115" lon="1.30845">
        <ele>325.2</ele>
        <time>2025-06-16T13:59:03Z</time>
      </trkpt>
      <trkpt lat="45.9115" lon="1.30845">
        <ele>325.2</ele>
        <time>2025-06-16T13:59:04Z</time>
      </trkpt>
      <trkpt lat="45.9115" lon="1.30845">
        <ele>325.2</ele>
        <time>2025-06-16T13:59:05Z</time>
      </trkpt>
      <trkpt lat="45.9115" lon="1.30845">
        <ele>325.2</ele>
        <time>2025-06-16T13:59:06Z</time>
      </trkpt>
      <trkpt lat="45.9115" lon="1.30845">
        <ele>325.2</ele>
        <time>2025-06-16T13:59:07Z</time>
      </trkpt>
      <trkpt lat="45.9115" lon="1.30845">
        <ele>325.2</ele>
        <time>2025-06-16T13:59:08Z</time>
      </trkpt>
      <trkpt lat="45.9115" lon="1.30845">
        <ele>325.2</ele>
        <time>2025-06-16T13:59:09Z</time>
      </trkpt>
      <trkpt lat="45.9115" lon="1.30845">
        <ele>325.2</ele>
        <time>2025-06-16T13:59:10Z</time>
      </trkpt>
      <trkpt lat="45.9115" lon="1.30845">
        <ele>325.2</ele>
        <time>2025-06-16T13:59:11Z</time>
      </trkpt>
      <trkpt lat="45.9115" lon="1.30845">
        <ele>325.2</ele>
        <time>2025-06-16T13:59:12Z</time>
      </trkpt>
      <trkpt lat="45.9115" lon="1.30845">
        <ele>325.2</ele>
        <time>2025-06-16T13:59:13Z</time>
      </trkpt>
      <trkpt lat="45.9115" lon="1.30845">
        <ele>325.2</ele>
        <time>2025-06-16T13:59:14Z</time>
      </trkpt>
      <trkpt lat="45.9115" lon="1.30845">
        <ele>325.2</ele>
        <time>2025-06-16T13:59:15Z</time>
      </trkpt>
      <trkpt lat="45.9115" lon="1.30845">
        <ele>325.2</ele>
        <time>2025-06-16T13:59:16Z</time>
      </trkpt>
      <trkpt lat="45.9115" lon="1.30845">
        <ele>325.2</ele>
        <time>2025-06-16T13:59:17Z</time>
      </trkpt>
      <trkpt lat="45.9115" lon="1.30845">
        <ele>325.2</ele>
        <time>2025-06-16T13:59:18Z</time>
      </trkpt>
      <trkpt lat="45.9115" lon="1.30845">
        <ele>325.2</ele>
        <time>2025-06-16T13:59:19Z</time>
      </trkpt>
      <trkpt lat="45.9115" lon="1.30845">
        <ele>325.2</ele>
        <time>2025-06-16T13:59:20Z</time>
      </trkpt>
      <trkpt lat="45.9115" lon="1.30845">
        <ele>325.2</ele>
        <time>2025-06-16T13:59:21Z</time>
      </trkpt>
      <trkpt lat="45.9115" lon="1.30845">
        <ele>325.3</ele>
        <time>2025-06-16T13:59:22Z</time>
      </trkpt>
      <trkpt lat="45.9115" lon="1.30845">
        <ele>325.3</ele>
        <time>2025-06-16T13:59:23Z</time>
      </trkpt>
      <trkpt lat="45.9115" lon="1.30845">
        <ele>325.3</ele>
        <time>2025-06-16T13:59:24Z</time>
      </trkpt>
      <trkpt lat="45.9115" lon="1.30845">
        <ele>325.3</ele>
        <time>2025-06-16T13:59:25Z</time>
      </trkpt>
      <trkpt lat="45.9115" lon="1.30845">
        <ele>325.3</ele>
        <time>2025-06-16T13:59:26Z</time>
      </trkpt>
      <trkpt lat="45.9115" lon="1.30845">
        <ele>325.3</ele>
        <time>2025-06-16T13:59:27Z</time>
      </trkpt>
      <trkpt lat="45.91152" lon="1.30846">
        <ele>325.6</ele>
        <time>2025-06-16T13:59:28Z</time>
      </trkpt>
      <trkpt lat="45.91153" lon="1.30847">
        <ele>325.9</ele>
        <time>2025-06-16T13:59:29Z</time>
      </trkpt>
      <trkpt lat="45.91154" lon="1.30848">
        <ele>326.1</ele>
        <time>2025-06-16T13:59:30Z</time>
      </trkpt>
      <trkpt lat="45.91154" lon="1.3085">
        <ele>326.3</ele>
        <time>2025-06-16T13:59:31Z</time>
      </trkpt>
      <trkpt lat="45.91155" lon="1.30851">
        <ele>326.6</ele>
        <time>2025-06-16T13:59:32Z</time>
      </trkpt>
      <trkpt lat="45.91155" lon="1.30852">
        <ele>326.8</ele>
        <time>2025-06-16T13:59:33Z</time>
      </trkpt>
      <trkpt lat="45.91156" lon="1.30854">
        <ele>326.9</ele>
        <time>2025-06-16T13:59:34Z</time>
      </trkpt>
      <trkpt lat="45.91156" lon="1.30855">
        <ele>327.1</ele>
        <time>2025-06-16T13:59:35Z</time>
      </trkpt>
      <trkpt lat="45.91156" lon="1.30856">
        <ele>327.3</ele>
        <time>2025-06-16T13:59:36Z</time>
      </trkpt>
      <trkpt lat="45.91156" lon="1.30858">
        <ele>327.4</ele>
        <time>2025-06-16T13:59:37Z</time>
      </trkpt>
      <trkpt lat="45.91156" lon="1.30859">
        <ele>327.6</ele>
        <time>2025-06-16T13:59:38Z</time>
      </trkpt>
      <trkpt lat="45.91156" lon="1.3086">
        <ele>327.6</ele>
        <time>2025-06-16T13:59:39Z</time>
      </trkpt>
      <trkpt lat="45.91156" lon="1.3086">
        <ele>327.7</ele>
        <time>2025-06-16T13:59:40Z</time>
      </trkpt>
      <trkpt lat="45.91156" lon="1.3086">
        <ele>327.7</ele>
        <time>2025-06-16T13:59:41Z</time>
      </trkpt>
      <trkpt lat="45.91156" lon="1.3086">
        <ele>327.7</ele>
        <time>2025-06-16T13:59:42Z</time>
      </trkpt>
      <trkpt lat="45.91156" lon="1.30861">
        <ele>327.7</ele>
        <time>2025-06-16T13:59:43Z</time>
      </trkpt>
      <trkpt lat="45.91156" lon="1.30861">
        <ele>327.8</ele>
        <time>2025-06-16T13:59:44Z</time>
      </trkpt>
      <trkpt lat="45.91156" lon="1.30861">
        <ele>327.8</ele>
        <time>2025-06-16T13:59:45Z</time>
      </trkpt>
      <trkpt lat="45.91156" lon="1.3086">
        <ele>327.8</ele>
        <time>2025-06-16T13:59:46Z</time>
      </trkpt>
      <trkpt lat="45.91156" lon="1.3086">
        <ele>327.8</ele>
        <time>2025-06-16T13:59:47Z</time>
      </trkpt>
      <trkpt lat="45.91156" lon="1.30861">
        <ele>327.8</ele>
        <time>2025-06-16T13:59:48Z</time>
      </trkpt>
      <trkpt lat="45.91156" lon="1.30861">
        <ele>327.8</ele>
        <time>2025-06-16T13:59:49Z</time>
      </trkpt>
      <trkpt lat="45.91156" lon="1.30861">
        <ele>327.8</ele>
        <time>2025-06-16T13:59:50Z</time>
      </trkpt>
      <trkpt lat="45.91156" lon="1.30861">
        <ele>327.8</ele>
        <time>2025-06-16T13:59:51Z</time>
      </trkpt>
      <trkpt lat="45.91156" lon="1.3086">
        <ele>327.8</ele>
        <time>2025-06-16T13:59:52Z</time>
      </trkpt>
      <trkpt lat="45.91156" lon="1.3086">
        <ele>327.9</ele>
        <time>2025-06-16T13:59:53Z</time>
      </trkpt>
      <trkpt lat="45.91156" lon="1.30861">
        <ele>327.9</ele>
        <time>2025-06-16T13:59:54Z</time>
      </trkpt>
      <trkpt lat="45.91156" lon="1.30861">
        <ele>327.9</ele>
        <time>2025-06-16T13:59:55Z</time>
      </trkpt>
      <trkpt lat="45.91156" lon="1.30861">
        <ele>327.9</ele>
        <time>2025-06-16T13:59:56Z</time>
      </trkpt>
      <trkpt lat="45.91156" lon="1.30861">
        <ele>327.9</ele>
        <time>2025-06-16T13:59:57Z</time>
      </trkpt>
      <trkpt lat="45.91156" lon="1.30861">
        <ele>327.9</ele>
        <time>2025-06-16T13:59:58Z</time>
      </trkpt>
      <trkpt lat="45.91156" lon="1.30861">
        <ele>327.9</ele>
        <time>2025-06-16T13:59:59Z</time>
      </trkpt>
      <trkpt lat="45.91156" lon="1.30861">
        <ele>327.9</ele>
        <time>2025-06-16T14:00:00Z</time>
      </trkpt>
      <trkpt lat="45.91156" lon="1.30861">
        <ele>327.9</ele>
        <time>2025-06-16T14:00:01Z</time>
      </trkpt>
      <trkpt lat="45.91156" lon="1.30861">
        <ele>327.9</ele>
        <time>2025-06-16T14:00:02Z</time>
      </trkpt>
      <trkpt lat="45.91156" lon="1.30861">
        <ele>328</ele>
        <time>2025-06-16T14:00:03Z</time>
      </trkpt>
      <trkpt lat="45.91156" lon="1.30861">
        <ele>328</ele>
        <time>2025-06-16T14:00:04Z</time>
      </trkpt>
      <trkpt lat="45.91155" lon="1.30861">
        <ele>328.1</ele>
        <time>2025-06-16T14:00:05Z</time>
      </trkpt>
      <trkpt lat="45.91155" lon="1.30862">
        <ele>328.1</ele>
        <time>2025-06-16T14:00:06Z</time>
      </trkpt>
      <trkpt lat="45.91155" lon="1.30862">
        <ele>328.1</ele>
        <time>2025-06-16T14:00:07Z</time>
      </trkpt>
      <trkpt lat="45.91155" lon="1.30862">
        <ele>328.1</ele>
        <time>2025-06-16T14:00:08Z</time>
      </trkpt>
      <trkpt lat="45.91156" lon="1.30862">
        <ele>328.1</ele>
        <time>2025-06-16T14:00:09Z</time>
      </trkpt>
      <trkpt lat="45.91156" lon="1.30862">
        <ele>328.2</ele>
        <time>2025-06-16T14:00:10Z</time>
      </trkpt>
      <trkpt lat="45.91156" lon="1.30862">
        <ele>328.2</ele>
        <time>2025-06-16T14:00:11Z</time>
      </trkpt>
      <trkpt lat="45.91157" lon="1.30862">
        <ele>328.3</ele>
        <time>2025-06-16T14:00:12Z</time>
      </trkpt>
      <trkpt lat="45.91157" lon="1.30862">
        <ele>328.3</ele>
        <time>2025-06-16T14:00:13Z</time>
      </trkpt>
      <trkpt lat="45.91157" lon="1.30862">
        <ele>328.3</ele>
        <time>2025-06-16T14:00:14Z</time>
      </trkpt>
      <trkpt lat="45.91157" lon="1.30862">
        <ele>328.3</ele>
        <time>2025-06-16T14:00:15Z</time>
      </trkpt>
      <trkpt lat="45.91157" lon="1.30862">
        <ele>328.3</ele>
        <time>2025-06-16T14:00:16Z</time>
      </trkpt>
      <trkpt lat="45.91157" lon="1.30862">
        <ele>328.3</ele>
        <time>2025-06-16T14:00:17Z</time>
      </trkpt>
      <trkpt lat="45.91157" lon="1.30863">
        <ele>328.3</ele>
        <time>2025-06-16T14:00:18Z</time>
      </trkpt>
      <trkpt lat="45.91158" lon="1.30863">
        <ele>328.4</ele>
        <time>2025-06-16T14:00:19Z</time>
      </trkpt>
      <trkpt lat="45.91158" lon="1.30864">
        <ele>328.5</ele>
        <time>2025-06-16T14:00:20Z</time>
      </trkpt>
      <trkpt lat="45.91158" lon="1.30865">
        <ele>328.5</ele>
        <time>2025-06-16T14:00:21Z</time>
      </trkpt>
      <trkpt lat="45.91158" lon="1.30865">
        <ele>328.5</ele>
        <time>2025-06-16T14:00:22Z</time>
      </trkpt>
      <trkpt lat="45.91159" lon="1.30866">
        <ele>328.6</ele>
        <time>2025-06-16T14:00:23Z</time>
      </trkpt>
      <trkpt lat="45.91159" lon="1.30866">
        <ele>328.6</ele>
        <time>2025-06-16T14:00:24Z</time>
      </trkpt>
      <trkpt lat="45.91159" lon="1.30867">
        <ele>328.6</ele>
        <time>2025-06-16T14:00:25Z</time>
      </trkpt>
      <trkpt lat="45.91159" lon="1.30868">
        <ele>328.7</ele>
        <time>2025-06-16T14:00:26Z</time>
      </trkpt>
      <trkpt lat="45.91161" lon="1.30873">
        <ele>328.9</ele>
        <time>2025-06-16T14:00:27Z</time>
      </trkpt>
      <trkpt lat="45.91162" lon="1.30875">
        <ele>328.9</ele>
        <time>2025-06-16T14:00:28Z</time>
      </trkpt>
      <trkpt lat="45.91164" lon="1.3088">
        <ele>329</ele>
        <time>2025-06-16T14:00:29Z</time>
      </trkpt>
      <trkpt lat="45.91166" lon="1.30884">
        <ele>329.1</ele>
        <time>2025-06-16T14:00:30Z</time>
      </trkpt>
      <trkpt lat="45.91168" lon="1.30887">
        <ele>329.1</ele>
        <time>2025-06-16T14:00:31Z</time>
      </trkpt>
      <trkpt lat="45.91171" lon="1.30889">
        <ele>329</ele>
        <time>2025-06-16T14:00:32Z</time>
      </trkpt>
      <trkpt lat="45.91175" lon="1.30891">
        <ele>328.9</ele>
        <time>2025-06-16T14:00:33Z</time>
      </trkpt>
      <trkpt lat="45.91178" lon="1.30892">
        <ele>328.8</ele>
        <time>2025-06-16T14:00:34Z</time>
      </trkpt>
      <trkpt lat="45.91181" lon="1.30893">
        <ele>328.7</ele>
        <time>2025-06-16T14:00:35Z</time>
      </trkpt>
      <trkpt lat="45.91185" lon="1.30894">
        <ele>328.5</ele>
        <time>2025-06-16T14:00:36Z</time>
      </trkpt>
      <trkpt lat="45.91188" lon="1.30896">
        <ele>328.3</ele>
        <time>2025-06-16T14:00:37Z</time>
      </trkpt>
      <trkpt lat="45.91191" lon="1.30897">
        <ele>328</ele>
        <time>2025-06-16T14:00:38Z</time>
      </trkpt>
      <trkpt lat="45.91194" lon="1.30898">
        <ele>327.8</ele>
        <time>2025-06-16T14:00:39Z</time>
      </trkpt>
      <trkpt lat="45.91197" lon="1.309">
        <ele>327.5</ele>
        <time>2025-06-16T14:00:40Z</time>
      </trkpt>
      <trkpt lat="45.912" lon="1.30902">
        <ele>327.1</ele>
        <time>2025-06-16T14:00:41Z</time>
      </trkpt>
      <trkpt lat="45.91203" lon="1.30905">
        <ele>326.8</ele>
        <time>2025-06-16T14:00:42Z</time>
      </trkpt>
      <trkpt lat="45.91205" lon="1.30909">
        <ele>326.5</ele>
        <time>2025-06-16T14:00:43Z</time>
      </trkpt>
      <trkpt lat="45.91207" lon="1.30913">
        <ele>326.2</ele>
        <time>2025-06-16T14:00:44Z</time>
      </trkpt>
      <trkpt lat="45.9121" lon="1.30917">
        <ele>325.8</ele>
        <time>2025-06-16T14:00:45Z</time>
      </trkpt>
      <trkpt lat="45.91211" lon="1.30921">
        <ele>325.5</ele>
        <time>2025-06-16T14:00:46Z</time>
      </trkpt>
      <trkpt lat="45.91213" lon="1.30924">
        <ele>325.2</ele>
        <time>2025-06-16T14:00:47Z</time>
      </trkpt>
      <trkpt lat="45.91215" lon="1.30926">
        <ele>325.1</ele>
        <time>2025-06-16T14:00:48Z</time>
      </trkpt>
      <trkpt lat="45.91216" lon="1.30927">
        <ele>325.1</ele>
        <time>2025-06-16T14:00:49Z</time>
      </trkpt>
      <trkpt lat="45.91218" lon="1.30928">
        <ele>325</ele>
        <time>2025-06-16T14:00:50Z</time>
      </trkpt>
      <trkpt lat="45.9122" lon="1.30928">
        <ele>325</ele>
        <time>2025-06-16T14:00:51Z</time>
      </trkpt>
      <trkpt lat="45.91224" lon="1.30929">
        <ele>324.9</ele>
        <time>2025-06-16T14:00:52Z</time>
      </trkpt>
      <trkpt lat="45.91225" lon="1.3093">
        <ele>324.9</ele>
        <time>2025-06-16T14:00:53Z</time>
      </trkpt>
      <trkpt lat="45.91228" lon="1.30931">
        <ele>324.9</ele>
        <time>2025-06-16T14:00:54Z</time>
      </trkpt>
      <trkpt lat="45.9123" lon="1.30932">
        <ele>324.9</ele>
        <time>2025-06-16T14:00:55Z</time>
      </trkpt>
      <trkpt lat="45.91232" lon="1.30933">
        <ele>324.9</ele>
        <time>2025-06-16T14:00:56Z</time>
      </trkpt>
      <trkpt lat="45.91236" lon="1.30934">
        <ele>324.9</ele>
        <time>2025-06-16T14:00:57Z</time>
      </trkpt>
      <trkpt lat="45.91236" lon="1.30934">
        <ele>324.9</ele>
        <time>2025-06-16T14:00:58Z</time>
      </trkpt>
      <trkpt lat="45.91238" lon="1.30935">
        <ele>324.9</ele>
        <time>2025-06-16T14:00:59Z</time>
      </trkpt>
      <trkpt lat="45.91239" lon="1.30936">
        <ele>324.9</ele>
        <time>2025-06-16T14:01:00Z</time>
      </trkpt>
      <trkpt lat="45.91241" lon="1.30937">
        <ele>324.9</ele>
        <time>2025-06-16T14:01:01Z</time>
      </trkpt>
      <trkpt lat="45.91242" lon="1.30937">
        <ele>325</ele>
        <time>2025-06-16T14:01:02Z</time>
      </trkpt>
      <trkpt lat="45.91244" lon="1.30937">
        <ele>325.1</ele>
        <time>2025-06-16T14:01:03Z</time>
      </trkpt>
      <trkpt lat="45.91246" lon="1.30937">
        <ele>325.2</ele>
        <time>2025-06-16T14:01:04Z</time>
      </trkpt>
      <trkpt lat="45.91249" lon="1.30936">
        <ele>325.4</ele>
        <time>2025-06-16T14:01:05Z</time>
      </trkpt>
      <trkpt lat="45.9125" lon="1.30936">
        <ele>325.5</ele>
        <time>2025-06-16T14:01:06Z</time>
      </trkpt>
      <trkpt lat="45.91253" lon="1.30935">
        <ele>325.7</ele>
        <time>2025-06-16T14:01:07Z</time>
      </trkpt>
      <trkpt lat="45.91254" lon="1.30935">
        <ele>325.8</ele>
        <time>2025-06-16T14:01:08Z</time>
      </trkpt>
      <trkpt lat="45.91256" lon="1.30935">
        <ele>326</ele>
        <time>2025-06-16T14:01:09Z</time>
      </trkpt>
      <trkpt lat="45.91258" lon="1.30936">
        <ele>326.1</ele>
        <time>2025-06-16T14:01:10Z</time>
      </trkpt>
      <trkpt lat="45.91261" lon="1.30937">
        <ele>326.4</ele>
        <time>2025-06-16T14:01:11Z</time>
      </trkpt>
      <trkpt lat="45.91262" lon="1.30938">
        <ele>326.5</ele>
        <time>2025-06-16T14:01:12Z</time>
      </trkpt>
      <trkpt lat="45.91264" lon="1.30939">
        <ele>326.7</ele>
        <time>2025-06-16T14:01:13Z</time>
      </trkpt>
      <trkpt lat="45.91265" lon="1.30939">
        <ele>326.8</ele>
        <time>2025-06-16T14:01:14Z</time>
      </trkpt>
      <trkpt lat="45.91267" lon="1.30939">
        <ele>327</ele>
        <time>2025-06-16T14:01:15Z</time>
      </trkpt>
      <trkpt lat="45.91268" lon="1.3094">
        <ele>327.1</ele>
        <time>2025-06-16T14:01:16Z</time>
      </trkpt>
      <trkpt lat="45.91269" lon="1.3094">
        <ele>327.2</ele>
        <time>2025-06-16T14:01:17Z</time>
      </trkpt>
      <trkpt lat="45.9127" lon="1.30941">
        <ele>327.2</ele>
        <time>2025-06-16T14:01:18Z</time>
      </trkpt>
      <trkpt lat="45.91271" lon="1.30941">
        <ele>327.3</ele>
        <time>2025-06-16T14:01:19Z</time>
      </trkpt>
      <trkpt lat="45.91273" lon="1.30942">
        <ele>327.4</ele>
        <time>2025-06-16T14:01:20Z</time>
      </trkpt>
      <trkpt lat="45.91274" lon="1.30942">
        <ele>327.5</ele>
        <time>2025-06-16T14:01:21Z</time>
      </trkpt>
      <trkpt lat="45.91274" lon="1.30943">
        <ele>327.5</ele>
        <time>2025-06-16T14:01:22Z</time>
      </trkpt>
      <trkpt lat="45.91276" lon="1.30943">
        <ele>327.6</ele>
        <time>2025-06-16T14:01:23Z</time>
      </trkpt>
      <trkpt lat="45.91277" lon="1.30943">
        <ele>327.7</ele>
        <time>2025-06-16T14:01:24Z</time>
      </trkpt>
      <trkpt lat="45.91277" lon="1.30943">
        <ele>327.7</ele>
        <time>2025-06-16T14:01:25Z</time>
      </trkpt>
      <trkpt lat="45.91278" lon="1.30943">
        <ele>327.8</ele>
        <time>2025-06-16T14:01:26Z</time>
      </trkpt>
      <trkpt lat="45.91279" lon="1.30944">
        <ele>327.8</ele>
        <time>2025-06-16T14:01:27Z</time>
      </trkpt>
      <trkpt lat="45.91279" lon="1.30944">
        <ele>327.8</ele>
        <time>2025-06-16T14:01:28Z</time>
      </trkpt>
      <trkpt lat="45.91279" lon="1.30944">
        <ele>327.8</ele>
        <time>2025-06-16T14:01:29Z</time>
      </trkpt>
      <trkpt lat="45.91279" lon="1.30945">
        <ele>327.9</ele>
        <time>2025-06-16T14:01:30Z</time>
      </trkpt>
      <trkpt lat="45.9128" lon="1.30945">
        <ele>327.9</ele>
        <time>2025-06-16T14:01:31Z</time>
      </trkpt>
      <trkpt lat="45.9128" lon="1.30945">
        <ele>327.9</ele>
        <time>2025-06-16T14:01:32Z</time>
      </trkpt>
      <trkpt lat="45.91281" lon="1.30945">
        <ele>327.9</ele>
        <time>2025-06-16T14:01:33Z</time>
      </trkpt>
      <trkpt lat="45.91282" lon="1.30945">
        <ele>328</ele>
        <time>2025-06-16T14:01:34Z</time>
      </trkpt>
      <trkpt lat="45.91283" lon="1.30944">
        <ele>328</ele>
        <time>2025-06-16T14:01:35Z</time>
      </trkpt>
      <trkpt lat="45.91285" lon="1.30944">
        <ele>328.1</ele>
        <time>2025-06-16T14:01:36Z</time>
      </trkpt>
      <trkpt lat="45.91288" lon="1.30944">
        <ele>328.2</ele>
        <time>2025-06-16T14:01:37Z</time>
      </trkpt>
      <trkpt lat="45.91292" lon="1.30945">
        <ele>328.3</ele>
        <time>2025-06-16T14:01:38Z</time>
      </trkpt>
      <trkpt lat="45.91296" lon="1.30945">
        <ele>328.4</ele>
        <time>2025-06-16T14:01:39Z</time>
      </trkpt>
      <trkpt lat="45.91298" lon="1.30945">
        <ele>328.5</ele>
        <time>2025-06-16T14:01:40Z</time>
      </trkpt>
      <trkpt lat="45.91303" lon="1.30946">
        <ele>328.6</ele>
        <time>2025-06-16T14:01:41Z</time>
      </trkpt>
      <trkpt lat="45.91304" lon="1.30947">
        <ele>328.6</ele>
        <time>2025-06-16T14:01:42Z</time>
      </trkpt>
      <trkpt lat="45.91308" lon="1.30946">
        <ele>328.6</ele>
        <time>2025-06-16T14:01:43Z</time>
      </trkpt>
      <trkpt lat="45.91311" lon="1.30944">
        <ele>328.5</ele>
        <time>2025-06-16T14:01:44Z</time>
      </trkpt>
      <trkpt lat="45.91314" lon="1.30942">
        <ele>328.4</ele>
        <time>2025-06-16T14:01:45Z</time>
      </trkpt>
      <trkpt lat="45.91315" lon="1.30942">
        <ele>328.4</ele>
        <time>2025-06-16T14:01:46Z</time>
      </trkpt>
      <trkpt lat="45.91317" lon="1.30938">
        <ele>328.2</ele>
        <time>2025-06-16T14:01:47Z</time>
      </trkpt>
      <trkpt lat="45.91318" lon="1.30936">
        <ele>328.2</ele>
        <time>2025-06-16T14:01:48Z</time>
      </trkpt>
      <trkpt lat="45.9132" lon="1.30933">
        <ele>328</ele>
        <time>2025-06-16T14:01:49Z</time>
      </trkpt>
      <trkpt lat="45.91324" lon="1.30933">
        <ele>327.9</ele>
        <time>2025-06-16T14:01:50Z</time>
      </trkpt>
      <trkpt lat="45.9133" lon="1.30938">
        <ele>327.7</ele>
        <time>2025-06-16T14:01:51Z</time>
      </trkpt>
      <trkpt lat="45.91334" lon="1.30942">
        <ele>327.6</ele>
        <time>2025-06-16T14:01:52Z</time>
      </trkpt>
      <trkpt lat="45.91337" lon="1.30944">
        <ele>327.6</ele>
        <time>2025-06-16T14:01:53Z</time>
      </trkpt>
      <trkpt lat="45.91339" lon="1.30946">
        <ele>327.6</ele>
        <time>2025-06-16T14:01:54Z</time>
      </trkpt>
      <trkpt lat="45.9134" lon="1.30946">
        <ele>327.7</ele>
        <time>2025-06-16T14:01:55Z</time>
      </trkpt>
      <trkpt lat="45.91344" lon="1.30949">
        <ele>327.8</ele>
        <time>2025-06-16T14:01:56Z</time>
      </trkpt>
      <trkpt lat="45.91345" lon="1.30951">
        <ele>327.8</ele>
        <time>2025-06-16T14:01:57Z</time>
      </trkpt>
      <trkpt lat="45.91348" lon="1.30953">
        <ele>327.9</ele>
        <time>2025-06-16T14:01:58Z</time>
      </trkpt>
      <trkpt lat="45.91351" lon="1.30955">
        <ele>328.1</ele>
        <time>2025-06-16T14:01:59Z</time>
      </trkpt>
      <trkpt lat="45.91352" lon="1.30956">
        <ele>328.1</ele>
        <time>2025-06-16T14:02:00Z</time>
      </trkpt>
      <trkpt lat="45.9135" lon="1.30954">
        <ele>328.3</ele>
        <time>2025-06-16T14:02:01Z</time>
      </trkpt>
      <trkpt lat="45.91353" lon="1.30957">
        <ele>328.5</ele>
        <time>2025-06-16T14:02:02Z</time>
      </trkpt>
      <trkpt lat="45.91355" lon="1.30958">
        <ele>328.6</ele>
        <time>2025-06-16T14:02:03Z</time>
      </trkpt>
      <trkpt lat="45.91361" lon="1.30964">
        <ele>329</ele>
        <time>2025-06-16T14:02:04Z</time>
      </trkpt>
      <trkpt lat="45.91365" lon="1.30966">
        <ele>329.2</ele>
        <time>2025-06-16T14:02:06Z</time>
      </trkpt>
      <trkpt lat="45.91368" lon="1.30969">
        <ele>329.4</ele>
        <time>2025-06-16T14:02:07Z</time>
      </trkpt>
      <trkpt lat="45.91371" lon="1.30972">
        <ele>329.6</ele>
        <time>2025-06-16T14:02:08Z</time>
      </trkpt>
      <trkpt lat="45.91374" lon="1.30975">
        <ele>329.8</ele>
        <time>2025-06-16T14:02:09Z</time>
      </trkpt>
      <trkpt lat="45.91379" lon="1.3098">
        <ele>330.1</ele>
        <time>2025-06-16T14:02:10Z</time>
      </trkpt>
      <trkpt lat="45.9138" lon="1.30983">
        <ele>330.2</ele>
        <time>2025-06-16T14:02:12Z</time>
      </trkpt>
      <trkpt lat="45.91383" lon="1.30986">
        <ele>330.3</ele>
        <time>2025-06-16T14:02:13Z</time>
      </trkpt>
      <trkpt lat="45.91384" lon="1.30987">
        <ele>330.4</ele>
        <time>2025-06-16T14:02:14Z</time>
      </trkpt>
      <trkpt lat="45.91386" lon="1.30989">
        <ele>330.5</ele>
        <time>2025-06-16T14:02:15Z</time>
      </trkpt>
      <trkpt lat="45.91387" lon="1.3099">
        <ele>330.5</ele>
        <time>2025-06-16T14:02:16Z</time>
      </trkpt>
      <trkpt lat="45.9139" lon="1.30993">
        <ele>330.7</ele>
        <time>2025-06-16T14:02:17Z</time>
      </trkpt>
      <trkpt lat="45.91392" lon="1.30994">
        <ele>330.8</ele>
        <time>2025-06-16T14:02:18Z</time>
      </trkpt>
      <trkpt lat="45.91396" lon="1.30997">
        <ele>330.9</ele>
        <time>2025-06-16T14:02:19Z</time>
      </trkpt>
      <trkpt lat="45.914" lon="1.31">
        <ele>331.1</ele>
        <time>2025-06-16T14:02:21Z</time>
      </trkpt>
      <trkpt lat="45.91403" lon="1.31002">
        <ele>331.2</ele>
        <time>2025-06-16T14:02:22Z</time>
      </trkpt>
      <trkpt lat="45.91406" lon="1.31004">
        <ele>331.3</ele>
        <time>2025-06-16T14:02:23Z</time>
      </trkpt>
      <trkpt lat="45.91407" lon="1.31005">
        <ele>331.3</ele>
        <time>2025-06-16T14:02:24Z</time>
      </trkpt>
      <trkpt lat="45.91411" lon="1.3101">
        <ele>331.4</ele>
        <time>2025-06-16T14:02:25Z</time>
      </trkpt>
      <trkpt lat="45.91412" lon="1.31012">
        <ele>331.4</ele>
        <time>2025-06-16T14:02:26Z</time>
      </trkpt>
      <trkpt lat="45.91414" lon="1.31015">
        <ele>331.5</ele>
        <time>2025-06-16T14:02:28Z</time>
      </trkpt>
      <trkpt lat="45.91417" lon="1.31019">
        <ele>331.6</ele>
        <time>2025-06-16T14:02:29Z</time>
      </trkpt>
      <trkpt lat="45.91418" lon="1.3102">
        <ele>331.6</ele>
        <time>2025-06-16T14:02:30Z</time>
      </trkpt>
      <trkpt lat="45.9142" lon="1.31024">
        <ele>331.7</ele>
        <time>2025-06-16T14:02:31Z</time>
      </trkpt>
      <trkpt lat="45.91423" lon="1.31027">
        <ele>331.8</ele>
        <time>2025-06-16T14:02:32Z</time>
      </trkpt>
      <trkpt lat="45.91426" lon="1.31031">
        <ele>331.9</ele>
        <time>2025-06-16T14:02:33Z</time>
      </trkpt>
      <trkpt lat="45.91428" lon="1.31036">
        <ele>332</ele>
        <time>2025-06-16T14:02:34Z</time>
      </trkpt>
      <trkpt lat="45.9143" lon="1.3104">
        <ele>332</ele>
        <time>2025-06-16T14:02:35Z</time>
      </trkpt>
      <trkpt lat="45.91433" lon="1.31046">
        <ele>332.2</ele>
        <time>2025-06-16T14:02:36Z</time>
      </trkpt>
      <trkpt lat="45.91434" lon="1.31049">
        <ele>332.3</ele>
        <time>2025-06-16T14:02:37Z</time>
      </trkpt>
      <trkpt lat="45.91435" lon="1.31053">
        <ele>332.4</ele>
        <time>2025-06-16T14:02:39Z</time>
      </trkpt>
      <trkpt lat="45.91436" lon="1.31057">
        <ele>332.5</ele>
        <time>2025-06-16T14:02:40Z</time>
      </trkpt>
      <trkpt lat="45.91437" lon="1.31061">
        <ele>332.6</ele>
        <time>2025-06-16T14:02:41Z</time>
      </trkpt>
      <trkpt lat="45.91439" lon="1.31068">
        <ele>332.8</ele>
        <time>2025-06-16T14:02:42Z</time>
      </trkpt>
      <trkpt lat="45.9144" lon="1.31072">
        <ele>333</ele>
        <time>2025-06-16T14:02:44Z</time>
      </trkpt>
      <trkpt lat="45.91441" lon="1.31076">
        <ele>333.1</ele>
        <time>2025-06-16T14:02:45Z</time>
      </trkpt>
      <trkpt lat="45.91442" lon="1.31078">
        <ele>333.1</ele>
        <time>2025-06-16T14:02:46Z</time>
      </trkpt>
      <trkpt lat="45.91443" lon="1.31083">
        <ele>333.3</ele>
        <time>2025-06-16T14:02:47Z</time>
      </trkpt>
      <trkpt lat="45.91444" lon="1.31085">
        <ele>333.4</ele>
        <time>2025-06-16T14:02:48Z</time>
      </trkpt>
      <trkpt lat="45.91446" lon="1.31089">
        <ele>333.6</ele>
        <time>2025-06-16T14:02:49Z</time>
      </trkpt>
      <trkpt lat="45.91448" lon="1.31094">
        <ele>333.8</ele>
        <time>2025-06-16T14:02:50Z</time>
      </trkpt>
      <trkpt lat="45.9145" lon="1.31097">
        <ele>333.9</ele>
        <time>2025-06-16T14:02:51Z</time>
      </trkpt>
      <trkpt lat="45.91452" lon="1.31101">
        <ele>334.1</ele>
        <time>2025-06-16T14:02:52Z</time>
      </trkpt>
      <trkpt lat="45.91454" lon="1.31105">
        <ele>334.3</ele>
        <time>2025-06-16T14:02:53Z</time>
      </trkpt>
      <trkpt lat="45.91455" lon="1.31106">
        <ele>334.4</ele>
        <time>2025-06-16T14:02:54Z</time>
      </trkpt>
      <trkpt lat="45.91457" lon="1.31109">
        <ele>334.5</ele>
        <time>2025-06-16T14:02:55Z</time>
      </trkpt>
      <trkpt lat="45.91459" lon="1.31111">
        <ele>334.7</ele>
        <time>2025-06-16T14:02:56Z</time>
      </trkpt>
      <trkpt lat="45.91461" lon="1.31114">
        <ele>334.9</ele>
        <time>2025-06-16T14:02:58Z</time>
      </trkpt>
      <trkpt lat="45.91464" lon="1.31118">
        <ele>335.1</ele>
        <time>2025-06-16T14:02:59Z</time>
      </trkpt>
      <trkpt lat="45.91465" lon="1.31119">
        <ele>335.2</ele>
        <time>2025-06-16T14:03:00Z</time>
      </trkpt>
      <trkpt lat="45.91467" lon="1.31124">
        <ele>335.5</ele>
        <time>2025-06-16T14:03:01Z</time>
      </trkpt>
      <trkpt lat="45.9147" lon="1.3113">
        <ele>335.8</ele>
        <time>2025-06-16T14:03:03Z</time>
      </trkpt>
      <trkpt lat="45.91472" lon="1.31133">
        <ele>336</ele>
        <time>2025-06-16T14:03:04Z</time>
      </trkpt>
      <trkpt lat="45.91474" lon="1.31138">
        <ele>336.2</ele>
        <time>2025-06-16T14:03:05Z</time>
      </trkpt>
      <trkpt lat="45.91476" lon="1.31141">
        <ele>336.4</ele>
        <time>2025-06-16T14:03:06Z</time>
      </trkpt>
      <trkpt lat="45.91479" lon="1.31145">
        <ele>336.6</ele>
        <time>2025-06-16T14:03:07Z</time>
      </trkpt>
      <trkpt lat="45.9148" lon="1.31147">
        <ele>336.6</ele>
        <time>2025-06-16T14:03:08Z</time>
      </trkpt>
      <trkpt lat="45.91482" lon="1.3115">
        <ele>336.8</ele>
        <time>2025-06-16T14:03:09Z</time>
      </trkpt>
      <trkpt lat="45.91482" lon="1.31151">
        <ele>336.8</ele>
        <time>2025-06-16T14:03:10Z</time>
      </trkpt>
      <trkpt lat="45.91483" lon="1.31152">
        <ele>336.8</ele>
        <time>2025-06-16T14:03:11Z</time>
      </trkpt>
      <trkpt lat="45.91485" lon="1.31154">
        <ele>336.9</ele>
        <time>2025-06-16T14:03:12Z</time>
      </trkpt>
      <trkpt lat="45.91487" lon="1.31158">
        <ele>337</ele>
        <time>2025-06-16T14:03:13Z</time>
      </trkpt>
      <trkpt lat="45.91487" lon="1.3116">
        <ele>337</ele>
        <time>2025-06-16T14:03:14Z</time>
      </trkpt>
      <trkpt lat="45.91489" lon="1.31164">
        <ele>337.1</ele>
        <time>2025-06-16T14:03:15Z</time>
      </trkpt>
      <trkpt lat="45.91489" lon="1.31165">
        <ele>337.1</ele>
        <time>2025-06-16T14:03:16Z</time>
      </trkpt>
      <trkpt lat="45.91491" lon="1.31169">
        <ele>337.1</ele>
        <time>2025-06-16T14:03:17Z</time>
      </trkpt>
      <trkpt lat="45.91493" lon="1.31172">
        <ele>337.2</ele>
        <time>2025-06-16T14:03:18Z</time>
      </trkpt>
      <trkpt lat="45.91495" lon="1.31175">
        <ele>337.3</ele>
        <time>2025-06-16T14:03:19Z</time>
      </trkpt>
      <trkpt lat="45.91498" lon="1.31178">
        <ele>337.4</ele>
        <time>2025-06-16T14:03:20Z</time>
      </trkpt>
      <trkpt lat="45.91501" lon="1.31182">
        <ele>337.5</ele>
        <time>2025-06-16T14:03:21Z</time>
      </trkpt>
      <trkpt lat="45.91504" lon="1.31184">
        <ele>337.6</ele>
        <time>2025-06-16T14:03:22Z</time>
      </trkpt>
      <trkpt lat="45.91507" lon="1.31187">
        <ele>337.8</ele>
        <time>2025-06-16T14:03:23Z</time>
      </trkpt>
      <trkpt lat="45.91509" lon="1.3119">
        <ele>337.9</ele>
        <time>2025-06-16T14:03:24Z</time>
      </trkpt>
      <trkpt lat="45.91512" lon="1.31193">
        <ele>338.1</ele>
        <time>2025-06-16T14:03:25Z</time>
      </trkpt>
      <trkpt lat="45.91514" lon="1.31195">
        <ele>338.3</ele>
        <time>2025-06-16T14:03:26Z</time>
      </trkpt>
      <trkpt lat="45.91516" lon="1.31199">
        <ele>338.5</ele>
        <time>2025-06-16T14:03:27Z</time>
      </trkpt>
      <trkpt lat="45.91519" lon="1.31203">
        <ele>338.7</ele>
        <time>2025-06-16T14:03:28Z</time>
      </trkpt>
      <trkpt lat="45.91522" lon="1.31207">
        <ele>338.9</ele>
        <time>2025-06-16T14:03:29Z</time>
      </trkpt>
      <trkpt lat="45.91524" lon="1.3121">
        <ele>339.1</ele>
        <time>2025-06-16T14:03:30Z</time>
      </trkpt>
      <trkpt lat="45.91526" lon="1.31214">
        <ele>339.3</ele>
        <time>2025-06-16T14:03:31Z</time>
      </trkpt>
      <trkpt lat="45.91529" lon="1.31217">
        <ele>339.5</ele>
        <time>2025-06-16T14:03:32Z</time>
      </trkpt>
      <trkpt lat="45.91532" lon="1.3122">
        <ele>339.8</ele>
        <time>2025-06-16T14:03:33Z</time>
      </trkpt>
      <trkpt lat="45.91534" lon="1.31223">
        <ele>340</ele>
        <time>2025-06-16T14:03:34Z</time>
      </trkpt>
      <trkpt lat="45.91537" lon="1.31226">
        <ele>340.2</ele>
        <time>2025-06-16T14:03:35Z</time>
      </trkpt>
      <trkpt lat="45.91538" lon="1.31227">
        <ele>340.3</ele>
        <time>2025-06-16T14:03:36Z</time>
      </trkpt>
      <trkpt lat="45.91539" lon="1.31229">
        <ele>340.5</ele>
        <time>2025-06-16T14:03:38Z</time>
      </trkpt>
      <trkpt lat="45.9154" lon="1.31231">
        <ele>340.6</ele>
        <time>2025-06-16T14:03:39Z</time>
      </trkpt>
      <trkpt lat="45.91543" lon="1.31234">
        <ele>340.9</ele>
        <time>2025-06-16T14:03:40Z</time>
      </trkpt>
      <trkpt lat="45.91546" lon="1.31239">
        <ele>341.3</ele>
        <time>2025-06-16T14:03:41Z</time>
      </trkpt>
      <trkpt lat="45.91549" lon="1.31243">
        <ele>341.8</ele>
        <time>2025-06-16T14:03:42Z</time>
      </trkpt>
      <trkpt lat="45.91552" lon="1.31246">
        <ele>342.1</ele>
        <time>2025-06-16T14:03:43Z</time>
      </trkpt>
      <trkpt lat="45.91554" lon="1.31248">
        <ele>342.3</ele>
        <time>2025-06-16T14:03:44Z</time>
      </trkpt>
      <trkpt lat="45.91557" lon="1.31251">
        <ele>342.6</ele>
        <time>2025-06-16T14:03:45Z</time>
      </trkpt>
      <trkpt lat="45.91558" lon="1.31252">
        <ele>342.7</ele>
        <time>2025-06-16T14:03:46Z</time>
      </trkpt>
      <trkpt lat="45.9156" lon="1.31255">
        <ele>343</ele>
        <time>2025-06-16T14:03:47Z</time>
      </trkpt>
      <trkpt lat="45.91561" lon="1.31256">
        <ele>343.1</ele>
        <time>2025-06-16T14:03:48Z</time>
      </trkpt>
      <trkpt lat="45.91563" lon="1.31258">
        <ele>343.3</ele>
        <time>2025-06-16T14:03:49Z</time>
      </trkpt>
      <trkpt lat="45.91564" lon="1.31259">
        <ele>343.4</ele>
        <time>2025-06-16T14:03:50Z</time>
      </trkpt>
      <trkpt lat="45.91566" lon="1.31261">
        <ele>343.7</ele>
        <time>2025-06-16T14:03:51Z</time>
      </trkpt>
      <trkpt lat="45.91567" lon="1.31262">
        <ele>343.7</ele>
        <time>2025-06-16T14:03:52Z</time>
      </trkpt>
      <trkpt lat="45.9157" lon="1.31265">
        <ele>344.1</ele>
        <time>2025-06-16T14:03:53Z</time>
      </trkpt>
      <trkpt lat="45.91571" lon="1.31266">
        <ele>344.2</ele>
        <time>2025-06-16T14:03:54Z</time>
      </trkpt>
      <trkpt lat="45.91574" lon="1.31269">
        <ele>344.6</ele>
        <time>2025-06-16T14:03:55Z</time>
      </trkpt>
      <trkpt lat="45.91575" lon="1.3127">
        <ele>344.7</ele>
        <time>2025-06-16T14:03:56Z</time>
      </trkpt>
      <trkpt lat="45.91579" lon="1.31272">
        <ele>345</ele>
        <time>2025-06-16T14:03:57Z</time>
      </trkpt>
      <trkpt lat="45.9158" lon="1.31273">
        <ele>345.1</ele>
        <time>2025-06-16T14:03:58Z</time>
      </trkpt>
      <trkpt lat="45.91583" lon="1.31275">
        <ele>345.5</ele>
        <time>2025-06-16T14:03:59Z</time>
      </trkpt>
      <trkpt lat="45.91584" lon="1.31276">
        <ele>345.6</ele>
        <time>2025-06-16T14:04:00Z</time>
      </trkpt>
      <trkpt lat="45.91587" lon="1.31277">
        <ele>345.9</ele>
        <time>2025-06-16T14:04:01Z</time>
      </trkpt>
      <trkpt lat="45.9159" lon="1.31279">
        <ele>346.2</ele>
        <time>2025-06-16T14:04:02Z</time>
      </trkpt>
      <trkpt lat="45.91592" lon="1.31281">
        <ele>346.5</ele>
        <time>2025-06-16T14:04:03Z</time>
      </trkpt>
      <trkpt lat="45.91595" lon="1.31283">
        <ele>346.7</ele>
        <time>2025-06-16T14:04:04Z</time>
      </trkpt>
      <trkpt lat="45.91597" lon="1.31285">
        <ele>347.1</ele>
        <time>2025-06-16T14:04:05Z</time>
      </trkpt>
      <trkpt lat="45.91598" lon="1.31286">
        <ele>347.2</ele>
        <time>2025-06-16T14:04:06Z</time>
      </trkpt>
      <trkpt lat="45.91601" lon="1.3129">
        <ele>347.5</ele>
        <time>2025-06-16T14:04:07Z</time>
      </trkpt>
      <trkpt lat="45.91602" lon="1.31291">
        <ele>347.6</ele>
        <time>2025-06-16T14:04:08Z</time>
      </trkpt>
      <trkpt lat="45.91603" lon="1.31294">
        <ele>347.9</ele>
        <time>2025-06-16T14:04:09Z</time>
      </trkpt>
      <trkpt lat="45.91604" lon="1.31295">
        <ele>348</ele>
        <time>2025-06-16T14:04:10Z</time>
      </trkpt>
      <trkpt lat="45.91605" lon="1.31298">
        <ele>348.3</ele>
        <time>2025-06-16T14:04:11Z</time>
      </trkpt>
      <trkpt lat="45.91606" lon="1.31299">
        <ele>348.4</ele>
        <time>2025-06-16T14:04:12Z</time>
      </trkpt>
      <trkpt lat="45.91609" lon="1.31302">
        <ele>348.7</ele>
        <time>2025-06-16T14:04:13Z</time>
      </trkpt>
      <trkpt lat="45.9161" lon="1.31303">
        <ele>348.9</ele>
        <time>2025-06-16T14:04:14Z</time>
      </trkpt>
      <trkpt lat="45.91611" lon="1.31304">
        <ele>349.1</ele>
        <time>2025-06-16T14:04:15Z</time>
      </trkpt>
      <trkpt lat="45.91613" lon="1.31305">
        <ele>349.2</ele>
        <time>2025-06-16T14:04:16Z</time>
      </trkpt>
      <trkpt lat="45.91615" lon="1.31308">
        <ele>349.5</ele>
        <time>2025-06-16T14:04:17Z</time>
      </trkpt>
      <trkpt lat="45.91616" lon="1.31308">
        <ele>349.6</ele>
        <time>2025-06-16T14:04:18Z</time>
      </trkpt>
      <trkpt lat="45.91619" lon="1.3131">
        <ele>350</ele>
        <time>2025-06-16T14:04:19Z</time>
      </trkpt>
      <trkpt lat="45.9162" lon="1.31311">
        <ele>350.1</ele>
        <time>2025-06-16T14:04:20Z</time>
      </trkpt>
      <trkpt lat="45.91622" lon="1.31314">
        <ele>350.4</ele>
        <time>2025-06-16T14:04:21Z</time>
      </trkpt>
      <trkpt lat="45.91625" lon="1.31317">
        <ele>350.8</ele>
        <time>2025-06-16T14:04:22Z</time>
      </trkpt>
      <trkpt lat="45.91626" lon="1.31318">
        <ele>350.9</ele>
        <time>2025-06-16T14:04:23Z</time>
      </trkpt>
      <trkpt lat="45.91628" lon="1.31321">
        <ele>351.2</ele>
        <time>2025-06-16T14:04:24Z</time>
      </trkpt>
      <trkpt lat="45.91629" lon="1.31323">
        <ele>351.3</ele>
        <time>2025-06-16T14:04:25Z</time>
      </trkpt>
      <trkpt lat="45.91632" lon="1.31325">
        <ele>351.7</ele>
        <time>2025-06-16T14:04:26Z</time>
      </trkpt>
      <trkpt lat="45.91633" lon="1.31326">
        <ele>351.8</ele>
        <time>2025-06-16T14:04:27Z</time>
      </trkpt>
      <trkpt lat="45.91636" lon="1.31329">
        <ele>352.2</ele>
        <time>2025-06-16T14:04:28Z</time>
      </trkpt>
      <trkpt lat="45.91637" lon="1.31329">
        <ele>352.3</ele>
        <time>2025-06-16T14:04:29Z</time>
      </trkpt>
      <trkpt lat="45.91639" lon="1.31331">
        <ele>352.6</ele>
        <time>2025-06-16T14:04:30Z</time>
      </trkpt>
      <trkpt lat="45.9164" lon="1.31332">
        <ele>352.7</ele>
        <time>2025-06-16T14:04:31Z</time>
      </trkpt>
      <trkpt lat="45.91643" lon="1.31335">
        <ele>353</ele>
        <time>2025-06-16T14:04:32Z</time>
      </trkpt>
      <trkpt lat="45.91643" lon="1.31336">
        <ele>353.1</ele>
        <time>2025-06-16T14:04:33Z</time>
      </trkpt>
      <trkpt lat="45.91646" lon="1.31339">
        <ele>353.4</ele>
        <time>2025-06-16T14:04:34Z</time>
      </trkpt>
      <trkpt lat="45.91647" lon="1.3134">
        <ele>353.4</ele>
        <time>2025-06-16T14:04:35Z</time>
      </trkpt>
      <trkpt lat="45.91649" lon="1.31343">
        <ele>353.7</ele>
        <time>2025-06-16T14:04:36Z</time>
      </trkpt>
      <trkpt lat="45.9165" lon="1.31344">
        <ele>353.7</ele>
        <time>2025-06-16T14:04:37Z</time>
      </trkpt>
      <trkpt lat="45.91653" lon="1.31348">
        <ele>353.9</ele>
        <time>2025-06-16T14:04:38Z</time>
      </trkpt>
      <trkpt lat="45.91654" lon="1.31349">
        <ele>354</ele>
        <time>2025-06-16T14:04:39Z</time>
      </trkpt>
      <trkpt lat="45.91657" lon="1.31352">
        <ele>354.2</ele>
        <time>2025-06-16T14:04:40Z</time>
      </trkpt>
      <trkpt lat="45.91658" lon="1.31353">
        <ele>354.3</ele>
        <time>2025-06-16T14:04:41Z</time>
      </trkpt>
      <trkpt lat="45.91661" lon="1.31355">
        <ele>354.4</ele>
        <time>2025-06-16T14:04:42Z</time>
      </trkpt>
      <trkpt lat="45.91663" lon="1.31358">
        <ele>354.5</ele>
        <time>2025-06-16T14:04:43Z</time>
      </trkpt>
      <trkpt lat="45.91664" lon="1.31358">
        <ele>354.5</ele>
        <time>2025-06-16T14:04:44Z</time>
      </trkpt>
      <trkpt lat="45.91667" lon="1.31361">
        <ele>354.6</ele>
        <time>2025-06-16T14:04:45Z</time>
      </trkpt>
      <trkpt lat="45.9167" lon="1.31364">
        <ele>354.8</ele>
        <time>2025-06-16T14:04:46Z</time>
      </trkpt>
      <trkpt lat="45.91672" lon="1.31367">
        <ele>354.9</ele>
        <time>2025-06-16T14:04:47Z</time>
      </trkpt>
      <trkpt lat="45.91675" lon="1.31369">
        <ele>355</ele>
        <time>2025-06-16T14:04:48Z</time>
      </trkpt>
      <trkpt lat="45.91678" lon="1.31372">
        <ele>355.2</ele>
        <time>2025-06-16T14:04:49Z</time>
      </trkpt>
      <trkpt lat="45.91679" lon="1.31373">
        <ele>355.2</ele>
        <time>2025-06-16T14:04:50Z</time>
      </trkpt>
      <trkpt lat="45.91682" lon="1.31376">
        <ele>355.4</ele>
        <time>2025-06-16T14:04:51Z</time>
      </trkpt>
      <trkpt lat="45.91683" lon="1.31377">
        <ele>355.4</ele>
        <time>2025-06-16T14:04:52Z</time>
      </trkpt>
      <trkpt lat="45.91686" lon="1.3138">
        <ele>355.6</ele>
        <time>2025-06-16T14:04:53Z</time>
      </trkpt>
      <trkpt lat="45.91687" lon="1.31381">
        <ele>355.6</ele>
        <time>2025-06-16T14:04:54Z</time>
      </trkpt>
      <trkpt lat="45.9169" lon="1.31384">
        <ele>355.7</ele>
        <time>2025-06-16T14:04:55Z</time>
      </trkpt>
      <trkpt lat="45.91691" lon="1.31385">
        <ele>355.8</ele>
        <time>2025-06-16T14:04:56Z</time>
      </trkpt>
      <trkpt lat="45.91693" lon="1.31388">
        <ele>355.9</ele>
        <time>2025-06-16T14:04:57Z</time>
      </trkpt>
      <trkpt lat="45.91694" lon="1.31389">
        <ele>356</ele>
        <time>2025-06-16T14:04:58Z</time>
      </trkpt>
      <trkpt lat="45.91697" lon="1.31393">
        <ele>356.1</ele>
        <time>2025-06-16T14:04:59Z</time>
      </trkpt>
      <trkpt lat="45.91698" lon="1.31394">
        <ele>356.2</ele>
        <time>2025-06-16T14:05:00Z</time>
      </trkpt>
      <trkpt lat="45.91701" lon="1.31396">
        <ele>356.3</ele>
        <time>2025-06-16T14:05:01Z</time>
      </trkpt>
      <trkpt lat="45.91703" lon="1.31399">
        <ele>356.4</ele>
        <time>2025-06-16T14:05:02Z</time>
      </trkpt>
      <trkpt lat="45.91704" lon="1.31399">
        <ele>356.4</ele>
        <time>2025-06-16T14:05:03Z</time>
      </trkpt>
      <trkpt lat="45.91706" lon="1.31402">
        <ele>356.5</ele>
        <time>2025-06-16T14:05:04Z</time>
      </trkpt>
      <trkpt lat="45.91707" lon="1.31403">
        <ele>356.5</ele>
        <time>2025-06-16T14:05:05Z</time>
      </trkpt>
      <trkpt lat="45.9171" lon="1.31406">
        <ele>356.6</ele>
        <time>2025-06-16T14:05:06Z</time>
      </trkpt>
      <trkpt lat="45.91711" lon="1.31407">
        <ele>356.7</ele>
        <time>2025-06-16T14:05:07Z</time>
      </trkpt>
      <trkpt lat="45.91711" lon="1.31409">
        <ele>356.7</ele>
        <time>2025-06-16T14:05:08Z</time>
      </trkpt>
      <trkpt lat="45.91713" lon="1.31411">
        <ele>356.7</ele>
        <time>2025-06-16T14:05:09Z</time>
      </trkpt>
      <trkpt lat="45.91713" lon="1.31413">
        <ele>356.8</ele>
        <time>2025-06-16T14:05:10Z</time>
      </trkpt>
      <trkpt lat="45.91713" lon="1.31416">
        <ele>356.8</ele>
        <time>2025-06-16T14:05:11Z</time>
      </trkpt>
      <trkpt lat="45.91714" lon="1.31417">
        <ele>356.8</ele>
        <time>2025-06-16T14:05:12Z</time>
      </trkpt>
      <trkpt lat="45.91714" lon="1.31417">
        <ele>356.8</ele>
        <time>2025-06-16T14:05:13Z</time>
      </trkpt>
      <trkpt lat="45.91714" lon="1.31417">
        <ele>356.8</ele>
        <time>2025-06-16T14:05:14Z</time>
      </trkpt>
      <trkpt lat="45.91714" lon="1.31417">
        <ele>356.8</ele>
        <time>2025-06-16T14:05:15Z</time>
      </trkpt>
      <trkpt lat="45.91714" lon="1.31417">
        <ele>356.8</ele>
        <time>2025-06-16T14:05:16Z</time>
      </trkpt>
      <trkpt lat="45.91713" lon="1.31418">
        <ele>356.8</ele>
        <time>2025-06-16T14:05:17Z</time>
      </trkpt>
      <trkpt lat="45.91713" lon="1.31418">
        <ele>356.8</ele>
        <time>2025-06-16T14:05:18Z</time>
      </trkpt>
      <trkpt lat="45.91713" lon="1.31418">
        <ele>356.8</ele>
        <time>2025-06-16T14:05:19Z</time>
      </trkpt>
      <trkpt lat="45.91713" lon="1.31418">
        <ele>356.8</ele>
        <time>2025-06-16T14:05:20Z</time>
      </trkpt>
      <trkpt lat="45.91713" lon="1.31417">
        <ele>356.7</ele>
        <time>2025-06-16T14:05:21Z</time>
      </trkpt>
      <trkpt lat="45.91712" lon="1.31417">
        <ele>356.7</ele>
        <time>2025-06-16T14:05:22Z</time>
      </trkpt>
      <trkpt lat="45.91712" lon="1.31417">
        <ele>356.7</ele>
        <time>2025-06-16T14:05:23Z</time>
      </trkpt>
      <trkpt lat="45.91712" lon="1.31417">
        <ele>356.7</ele>
        <time>2025-06-16T14:05:24Z</time>
      </trkpt>
      <trkpt lat="45.91712" lon="1.31417">
        <ele>356.7</ele>
        <time>2025-06-16T14:05:25Z</time>
      </trkpt>
      <trkpt lat="45.91712" lon="1.31417">
        <ele>356.7</ele>
        <time>2025-06-16T14:05:26Z</time>
      </trkpt>
      <trkpt lat="45.91712" lon="1.31417">
        <ele>356.7</ele>
        <time>2025-06-16T14:05:27Z</time>
      </trkpt>
      <trkpt lat="45.91712" lon="1.31417">
        <ele>356.7</ele>
        <time>2025-06-16T14:05:28Z</time>
      </trkpt>
      <trkpt lat="45.91712" lon="1.31417">
        <ele>356.7</ele>
        <time>2025-06-16T14:05:29Z</time>
      </trkpt>
      <trkpt lat="45.91712" lon="1.31417">
        <ele>356.7</ele>
        <time>2025-06-16T14:05:30Z</time>
      </trkpt>
      <trkpt lat="45.91712" lon="1.31417">
        <ele>356.7</ele>
        <time>2025-06-16T14:05:31Z</time>
      </trkpt>
      <trkpt lat="45.91713" lon="1.31418">
        <ele>356.7</ele>
        <time>2025-06-16T14:05:32Z</time>
      </trkpt>
      <trkpt lat="45.91713" lon="1.31418">
        <ele>356.7</ele>
        <time>2025-06-16T14:05:33Z</time>
      </trkpt>
      <trkpt lat="45.91714" lon="1.31419">
        <ele>356.7</ele>
        <time>2025-06-16T14:05:34Z</time>
      </trkpt>
      <trkpt lat="45.91716" lon="1.31418">
        <ele>356.7</ele>
        <time>2025-06-16T14:05:35Z</time>
      </trkpt>
      <trkpt lat="45.91719" lon="1.31417">
        <ele>356.9</ele>
        <time>2025-06-16T14:05:36Z</time>
      </trkpt>
      <trkpt lat="45.9172" lon="1.31416">
        <ele>356.9</ele>
        <time>2025-06-16T14:05:37Z</time>
      </trkpt>
      <trkpt lat="45.91723" lon="1.31416">
        <ele>357</ele>
        <time>2025-06-16T14:05:38Z</time>
      </trkpt>
      <trkpt lat="45.91724" lon="1.31415">
        <ele>357.1</ele>
        <time>2025-06-16T14:05:39Z</time>
      </trkpt>
      <trkpt lat="45.91728" lon="1.31413">
        <ele>357.2</ele>
        <time>2025-06-16T14:05:40Z</time>
      </trkpt>
      <trkpt lat="45.91729" lon="1.31413">
        <ele>357.3</ele>
        <time>2025-06-16T14:05:41Z</time>
      </trkpt>
      <trkpt lat="45.91732" lon="1.3141">
        <ele>357.5</ele>
        <time>2025-06-16T14:05:42Z</time>
      </trkpt>
      <trkpt lat="45.91733" lon="1.3141">
        <ele>357.5</ele>
        <time>2025-06-16T14:05:43Z</time>
      </trkpt>
      <trkpt lat="45.91736" lon="1.31407">
        <ele>357.7</ele>
        <time>2025-06-16T14:05:44Z</time>
      </trkpt>
      <trkpt lat="45.91737" lon="1.31407">
        <ele>357.7</ele>
        <time>2025-06-16T14:05:45Z</time>
      </trkpt>
      <trkpt lat="45.91741" lon="1.31405">
        <ele>357.9</ele>
        <time>2025-06-16T14:05:46Z</time>
      </trkpt>
      <trkpt lat="45.91742" lon="1.31404">
        <ele>357.9</ele>
        <time>2025-06-16T14:05:47Z</time>
      </trkpt>
      <trkpt lat="45.91745" lon="1.31401">
        <ele>358.1</ele>
        <time>2025-06-16T14:05:48Z</time>
      </trkpt>
      <trkpt lat="45.91746" lon="1.314">
        <ele>358.2</ele>
        <time>2025-06-16T14:05:49Z</time>
      </trkpt>
      <trkpt lat="45.91749" lon="1.31397">
        <ele>358.4</ele>
        <time>2025-06-16T14:05:50Z</time>
      </trkpt>
      <trkpt lat="45.91751" lon="1.31396">
        <ele>358.4</ele>
        <time>2025-06-16T14:05:51Z</time>
      </trkpt>
      <trkpt lat="45.91754" lon="1.31394">
        <ele>358.6</ele>
        <time>2025-06-16T14:05:52Z</time>
      </trkpt>
      <trkpt lat="45.91755" lon="1.31393">
        <ele>358.7</ele>
        <time>2025-06-16T14:05:53Z</time>
      </trkpt>
      <trkpt lat="45.91759" lon="1.31389">
        <ele>358.9</ele>
        <time>2025-06-16T14:05:54Z</time>
      </trkpt>
      <trkpt lat="45.91765" lon="1.31386">
        <ele>359.1</ele>
        <time>2025-06-16T14:05:56Z</time>
      </trkpt>
      <trkpt lat="45.91767" lon="1.31383">
        <ele>359.2</ele>
        <time>2025-06-16T14:05:58Z</time>
      </trkpt>
      <trkpt lat="45.91769" lon="1.31381">
        <ele>359.4</ele>
        <time>2025-06-16T14:05:59Z</time>
      </trkpt>
      <trkpt lat="45.91772" lon="1.3138">
        <ele>359.5</ele>
        <time>2025-06-16T14:06:00Z</time>
      </trkpt>
      <trkpt lat="45.91777" lon="1.31377">
        <ele>359.7</ele>
        <time>2025-06-16T14:06:01Z</time>
      </trkpt>
      <trkpt lat="45.91781" lon="1.31372">
        <ele>359.9</ele>
        <time>2025-06-16T14:06:03Z</time>
      </trkpt>
      <trkpt lat="45.91784" lon="1.3137">
        <ele>360</ele>
        <time>2025-06-16T14:06:05Z</time>
      </trkpt>
      <trkpt lat="45.91786" lon="1.31368">
        <ele>360.1</ele>
        <time>2025-06-16T14:06:06Z</time>
      </trkpt>
      <trkpt lat="45.91789" lon="1.31366">
        <ele>360.2</ele>
        <time>2025-06-16T14:06:07Z</time>
      </trkpt>
      <trkpt lat="45.91793" lon="1.31363">
        <ele>360.4</ele>
        <time>2025-06-16T14:06:08Z</time>
      </trkpt>
      <trkpt lat="45.91798" lon="1.31359">
        <ele>360.6</ele>
        <time>2025-06-16T14:06:10Z</time>
      </trkpt>
      <trkpt lat="45.918" lon="1.31357">
        <ele>360.7</ele>
        <time>2025-06-16T14:06:12Z</time>
      </trkpt>
      <trkpt lat="45.91804" lon="1.31353">
        <ele>360.9</ele>
        <time>2025-06-16T14:06:13Z</time>
      </trkpt>
      <trkpt lat="45.91808" lon="1.3135">
        <ele>361.1</ele>
        <time>2025-06-16T14:06:15Z</time>
      </trkpt>
      <trkpt lat="45.91809" lon="1.31349">
        <ele>361.2</ele>
        <time>2025-06-16T14:06:16Z</time>
      </trkpt>
      <trkpt lat="45.91812" lon="1.31348">
        <ele>361.3</ele>
        <time>2025-06-16T14:06:17Z</time>
      </trkpt>
      <trkpt lat="45.91816" lon="1.31346">
        <ele>361.5</ele>
        <time>2025-06-16T14:06:18Z</time>
      </trkpt>
      <trkpt lat="45.91817" lon="1.31345">
        <ele>361.6</ele>
        <time>2025-06-16T14:06:19Z</time>
      </trkpt>
      <trkpt lat="45.9182" lon="1.31343">
        <ele>361.7</ele>
        <time>2025-06-16T14:06:20Z</time>
      </trkpt>
      <trkpt lat="45.91823" lon="1.31341">
        <ele>361.9</ele>
        <time>2025-06-16T14:06:21Z</time>
      </trkpt>
      <trkpt lat="45.91827" lon="1.31338">
        <ele>362.1</ele>
        <time>2025-06-16T14:06:22Z</time>
      </trkpt>
      <trkpt lat="45.91829" lon="1.31337">
        <ele>362.2</ele>
        <time>2025-06-16T14:06:23Z</time>
      </trkpt>
      <trkpt lat="45.91831" lon="1.31335">
        <ele>362.3</ele>
        <time>2025-06-16T14:06:25Z</time>
      </trkpt>
      <trkpt lat="45.91832" lon="1.31333">
        <ele>362.4</ele>
        <time>2025-06-16T14:06:26Z</time>
      </trkpt>
      <trkpt lat="45.91834" lon="1.31332">
        <ele>362.5</ele>
        <time>2025-06-16T14:06:27Z</time>
      </trkpt>
      <trkpt lat="45.91835" lon="1.31331">
        <ele>362.6</ele>
        <time>2025-06-16T14:06:28Z</time>
      </trkpt>
      <trkpt lat="45.91837" lon="1.31329">
        <ele>362.7</ele>
        <time>2025-06-16T14:06:29Z</time>
      </trkpt>
      <trkpt lat="45.91841" lon="1.31326">
        <ele>362.9</ele>
        <time>2025-06-16T14:06:30Z</time>
      </trkpt>
      <trkpt lat="45.91844" lon="1.31324">
        <ele>363.1</ele>
        <time>2025-06-16T14:06:32Z</time>
      </trkpt>
      <trkpt lat="45.91845" lon="1.31323">
        <ele>363.2</ele>
        <time>2025-06-16T14:06:33Z</time>
      </trkpt>
      <trkpt lat="45.91848" lon="1.3132">
        <ele>363.4</ele>
        <time>2025-06-16T14:06:34Z</time>
      </trkpt>
      <trkpt lat="45.9185" lon="1.31319">
        <ele>363.4</ele>
        <time>2025-06-16T14:06:35Z</time>
      </trkpt>
      <trkpt lat="45.91853" lon="1.31317">
        <ele>363.6</ele>
        <time>2025-06-16T14:06:36Z</time>
      </trkpt>
      <trkpt lat="45.91854" lon="1.31316">
        <ele>363.7</ele>
        <time>2025-06-16T14:06:37Z</time>
      </trkpt>
      <trkpt lat="45.91857" lon="1.31313">
        <ele>363.9</ele>
        <time>2025-06-16T14:06:38Z</time>
      </trkpt>
      <trkpt lat="45.91858" lon="1.31312">
        <ele>364</ele>
        <time>2025-06-16T14:06:39Z</time>
      </trkpt>
      <trkpt lat="45.91863" lon="1.31307">
        <ele>364.3</ele>
        <time>2025-06-16T14:06:40Z</time>
      </trkpt>
      <trkpt lat="45.91866" lon="1.31305">
        <ele>364.4</ele>
        <time>2025-06-16T14:06:41Z</time>
      </trkpt>
      <trkpt lat="45.91868" lon="1.31304">
        <ele>364.6</ele>
        <time>2025-06-16T14:06:42Z</time>
      </trkpt>
      <trkpt lat="45.9187" lon="1.31302">
        <ele>364.7</ele>
        <time>2025-06-16T14:06:44Z</time>
      </trkpt>
      <trkpt lat="45.91874" lon="1.313">
        <ele>364.9</ele>
        <time>2025-06-16T14:06:45Z</time>
      </trkpt>
      <trkpt lat="45.91875" lon="1.31299">
        <ele>365</ele>
        <time>2025-06-16T14:06:46Z</time>
      </trkpt>
      <trkpt lat="45.91879" lon="1.31297">
        <ele>365.2</ele>
        <time>2025-06-16T14:06:47Z</time>
      </trkpt>
      <trkpt lat="45.9188" lon="1.31296">
        <ele>365.2</ele>
        <time>2025-06-16T14:06:48Z</time>
      </trkpt>
      <trkpt lat="45.91885" lon="1.31293">
        <ele>365.5</ele>
        <time>2025-06-16T14:06:49Z</time>
      </trkpt>
      <trkpt lat="45.91887" lon="1.31291">
        <ele>365.5</ele>
        <time>2025-06-16T14:06:50Z</time>
      </trkpt>
      <trkpt lat="45.91889" lon="1.3129">
        <ele>365.6</ele>
        <time>2025-06-16T14:06:51Z</time>
      </trkpt>
      <trkpt lat="45.91893" lon="1.31288">
        <ele>365.8</ele>
        <time>2025-06-16T14:06:52Z</time>
      </trkpt>
      <trkpt lat="45.91896" lon="1.31287">
        <ele>365.9</ele>
        <time>2025-06-16T14:06:54Z</time>
      </trkpt>
      <trkpt lat="45.91898" lon="1.31287">
        <ele>366</ele>
        <time>2025-06-16T14:06:55Z</time>
      </trkpt>
      <trkpt lat="45.919" lon="1.31285">
        <ele>366.1</ele>
        <time>2025-06-16T14:06:56Z</time>
      </trkpt>
      <trkpt lat="45.91903" lon="1.31284">
        <ele>366.2</ele>
        <time>2025-06-16T14:06:57Z</time>
      </trkpt>
      <trkpt lat="45.91906" lon="1.31282">
        <ele>366.4</ele>
        <time>2025-06-16T14:06:58Z</time>
      </trkpt>
      <trkpt lat="45.91908" lon="1.3128">
        <ele>366.5</ele>
        <time>2025-06-16T14:06:59Z</time>
      </trkpt>
      <trkpt lat="45.91911" lon="1.31278">
        <ele>366.7</ele>
        <time>2025-06-16T14:07:00Z</time>
      </trkpt>
      <trkpt lat="45.91914" lon="1.31276">
        <ele>366.9</ele>
        <time>2025-06-16T14:07:01Z</time>
      </trkpt>
      <trkpt lat="45.91915" lon="1.31275">
        <ele>367</ele>
        <time>2025-06-16T14:07:02Z</time>
      </trkpt>
      <trkpt lat="45.91919" lon="1.31272">
        <ele>367.2</ele>
        <time>2025-06-16T14:07:03Z</time>
      </trkpt>
      <trkpt lat="45.9192" lon="1.31271">
        <ele>367.2</ele>
        <time>2025-06-16T14:07:04Z</time>
      </trkpt>
      <trkpt lat="45.91922" lon="1.3127">
        <ele>367.4</ele>
        <time>2025-06-16T14:07:05Z</time>
      </trkpt>
      <trkpt lat="45.91926" lon="1.31268">
        <ele>367.5</ele>
        <time>2025-06-16T14:07:06Z</time>
      </trkpt>
      <trkpt lat="45.91927" lon="1.31267">
        <ele>367.6</ele>
        <time>2025-06-16T14:07:07Z</time>
      </trkpt>
      <trkpt lat="45.91928" lon="1.31266">
        <ele>367.7</ele>
        <time>2025-06-16T14:07:08Z</time>
      </trkpt>
      <trkpt lat="45.9193" lon="1.31265">
        <ele>367.7</ele>
        <time>2025-06-16T14:07:09Z</time>
      </trkpt>
      <trkpt lat="45.91933" lon="1.31263">
        <ele>367.8</ele>
        <time>2025-06-16T14:07:10Z</time>
      </trkpt>
      <trkpt lat="45.91934" lon="1.31262">
        <ele>367.9</ele>
        <time>2025-06-16T14:07:11Z</time>
      </trkpt>
      <trkpt lat="45.91937" lon="1.3126">
        <ele>367.9</ele>
        <time>2025-06-16T14:07:12Z</time>
      </trkpt>
      <trkpt lat="45.91938" lon="1.31259">
        <ele>367.9</ele>
        <time>2025-06-16T14:07:13Z</time>
      </trkpt>
      <trkpt lat="45.91942" lon="1.31257">
        <ele>367.9</ele>
        <time>2025-06-16T14:07:14Z</time>
      </trkpt>
      <trkpt lat="45.91943" lon="1.31256">
        <ele>367.9</ele>
        <time>2025-06-16T14:07:15Z</time>
      </trkpt>
      <trkpt lat="45.91947" lon="1.31254">
        <ele>367.8</ele>
        <time>2025-06-16T14:07:16Z</time>
      </trkpt>
      <trkpt lat="45.91948" lon="1.31253">
        <ele>367.8</ele>
        <time>2025-06-16T14:07:17Z</time>
      </trkpt>
      <trkpt lat="45.91951" lon="1.31251">
        <ele>367.7</ele>
        <time>2025-06-16T14:07:18Z</time>
      </trkpt>
      <trkpt lat="45.91954" lon="1.31249">
        <ele>367.5</ele>
        <time>2025-06-16T14:07:19Z</time>
      </trkpt>
      <trkpt lat="45.91957" lon="1.31247">
        <ele>367.3</ele>
        <time>2025-06-16T14:07:20Z</time>
      </trkpt>
      <trkpt lat="45.91961" lon="1.31245">
        <ele>367</ele>
        <time>2025-06-16T14:07:21Z</time>
      </trkpt>
      <trkpt lat="45.91965" lon="1.31242">
        <ele>366.6</ele>
        <time>2025-06-16T14:07:22Z</time>
      </trkpt>
      <trkpt lat="45.9197" lon="1.3124">
        <ele>366.2</ele>
        <time>2025-06-16T14:07:23Z</time>
      </trkpt>
      <trkpt lat="45.91976" lon="1.31238">
        <ele>365.8</ele>
        <time>2025-06-16T14:07:24Z</time>
      </trkpt>
      <trkpt lat="45.91981" lon="1.31236">
        <ele>365.4</ele>
        <time>2025-06-16T14:07:25Z</time>
      </trkpt>
      <trkpt lat="45.91987" lon="1.31233">
        <ele>365</ele>
        <time>2025-06-16T14:07:26Z</time>
      </trkpt>
      <trkpt lat="45.91993" lon="1.31232">
        <ele>364.6</ele>
        <time>2025-06-16T14:07:27Z</time>
      </trkpt>
      <trkpt lat="45.91999" lon="1.31231">
        <ele>364.3</ele>
        <time>2025-06-16T14:07:28Z</time>
      </trkpt>
      <trkpt lat="45.92005" lon="1.31228">
        <ele>363.9</ele>
        <time>2025-06-16T14:07:29Z</time>
      </trkpt>
      <trkpt lat="45.92012" lon="1.31226">
        <ele>363.7</ele>
        <time>2025-06-16T14:07:30Z</time>
      </trkpt>
      <trkpt lat="45.92018" lon="1.31224">
        <ele>363.4</ele>
        <time>2025-06-16T14:07:31Z</time>
      </trkpt>
      <trkpt lat="45.92025" lon="1.31222">
        <ele>363.3</ele>
        <time>2025-06-16T14:07:32Z</time>
      </trkpt>
      <trkpt lat="45.92031" lon="1.31219">
        <ele>363.1</ele>
        <time>2025-06-16T14:07:33Z</time>
      </trkpt>
      <trkpt lat="45.92037" lon="1.31216">
        <ele>363</ele>
        <time>2025-06-16T14:07:34Z</time>
      </trkpt>
      <trkpt lat="45.92042" lon="1.31214">
        <ele>362.9</ele>
        <time>2025-06-16T14:07:35Z</time>
      </trkpt>
      <trkpt lat="45.92048" lon="1.31213">
        <ele>362.8</ele>
        <time>2025-06-16T14:07:36Z</time>
      </trkpt>
      <trkpt lat="45.92054" lon="1.31212">
        <ele>362.8</ele>
        <time>2025-06-16T14:07:37Z</time>
      </trkpt>
      <trkpt lat="45.92059" lon="1.31211">
        <ele>362.8</ele>
        <time>2025-06-16T14:07:38Z</time>
      </trkpt>
      <trkpt lat="45.92064" lon="1.31211">
        <ele>362.9</ele>
        <time>2025-06-16T14:07:39Z</time>
      </trkpt>
      <trkpt lat="45.92068" lon="1.31211">
        <ele>362.9</ele>
        <time>2025-06-16T14:07:40Z</time>
      </trkpt>
      <trkpt lat="45.92073" lon="1.31212">
        <ele>362.9</ele>
        <time>2025-06-16T14:07:41Z</time>
      </trkpt>
      <trkpt lat="45.92077" lon="1.31213">
        <ele>362.9</ele>
        <time>2025-06-16T14:07:42Z</time>
      </trkpt>
      <trkpt lat="45.92081" lon="1.31215">
        <ele>363</ele>
        <time>2025-06-16T14:07:43Z</time>
      </trkpt>
      <trkpt lat="45.92084" lon="1.31216">
        <ele>363</ele>
        <time>2025-06-16T14:07:44Z</time>
      </trkpt>
      <trkpt lat="45.92087" lon="1.31218">
        <ele>363</ele>
        <time>2025-06-16T14:07:45Z</time>
      </trkpt>
      <trkpt lat="45.9209" lon="1.3122">
        <ele>363</ele>
        <time>2025-06-16T14:07:46Z</time>
      </trkpt>
      <trkpt lat="45.92094" lon="1.31222">
        <ele>363</ele>
        <time>2025-06-16T14:07:47Z</time>
      </trkpt>
      <trkpt lat="45.92097" lon="1.31224">
        <ele>363</ele>
        <time>2025-06-16T14:07:48Z</time>
      </trkpt>
      <trkpt lat="45.92101" lon="1.31226">
        <ele>363</ele>
        <time>2025-06-16T14:07:49Z</time>
      </trkpt>
      <trkpt lat="45.92104" lon="1.31227">
        <ele>363</ele>
        <time>2025-06-16T14:07:50Z</time>
      </trkpt>
      <trkpt lat="45.92107" lon="1.31229">
        <ele>363</ele>
        <time>2025-06-16T14:07:51Z</time>
      </trkpt>
      <trkpt lat="45.9211" lon="1.31232">
        <ele>363</ele>
        <time>2025-06-16T14:07:52Z</time>
      </trkpt>
      <trkpt lat="45.92112" lon="1.31235">
        <ele>363</ele>
        <time>2025-06-16T14:07:53Z</time>
      </trkpt>
      <trkpt lat="45.92115" lon="1.31238">
        <ele>363.1</ele>
        <time>2025-06-16T14:07:54Z</time>
      </trkpt>
      <trkpt lat="45.92118" lon="1.31242">
        <ele>363.1</ele>
        <time>2025-06-16T14:07:55Z</time>
      </trkpt>
      <trkpt lat="45.92121" lon="1.31246">
        <ele>363.1</ele>
        <time>2025-06-16T14:07:56Z</time>
      </trkpt>
      <trkpt lat="45.92125" lon="1.31251">
        <ele>363.2</ele>
        <time>2025-06-16T14:07:57Z</time>
      </trkpt>
      <trkpt lat="45.92128" lon="1.31255">
        <ele>363.3</ele>
        <time>2025-06-16T14:07:58Z</time>
      </trkpt>
      <trkpt lat="45.92131" lon="1.3126">
        <ele>363.4</ele>
        <time>2025-06-16T14:07:59Z</time>
      </trkpt>
      <trkpt lat="45.92134" lon="1.31264">
        <ele>363.5</ele>
        <time>2025-06-16T14:08:00Z</time>
      </trkpt>
      <trkpt lat="45.92137" lon="1.31268">
        <ele>363.5</ele>
        <time>2025-06-16T14:08:01Z</time>
      </trkpt>
      <trkpt lat="45.92141" lon="1.31272">
        <ele>363.6</ele>
        <time>2025-06-16T14:08:02Z</time>
      </trkpt>
      <trkpt lat="45.92145" lon="1.31276">
        <ele>363.7</ele>
        <time>2025-06-16T14:08:03Z</time>
      </trkpt>
      <trkpt lat="45.92148" lon="1.31279">
        <ele>363.8</ele>
        <time>2025-06-16T14:08:04Z</time>
      </trkpt>
      <trkpt lat="45.92152" lon="1.31283">
        <ele>363.8</ele>
        <time>2025-06-16T14:08:05Z</time>
      </trkpt>
      <trkpt lat="45.92156" lon="1.31286">
        <ele>363.9</ele>
        <time>2025-06-16T14:08:06Z</time>
      </trkpt>
      <trkpt lat="45.92159" lon="1.3129">
        <ele>363.8</ele>
        <time>2025-06-16T14:08:07Z</time>
      </trkpt>
      <trkpt lat="45.92163" lon="1.31295">
        <ele>363.6</ele>
        <time>2025-06-16T14:08:08Z</time>
      </trkpt>
      <trkpt lat="45.92167" lon="1.313">
        <ele>363.4</ele>
        <time>2025-06-16T14:08:09Z</time>
      </trkpt>
      <trkpt lat="45.92171" lon="1.31306">
        <ele>363.1</ele>
        <time>2025-06-16T14:08:10Z</time>
      </trkpt>
      <trkpt lat="45.92174" lon="1.31312">
        <ele>362.8</ele>
        <time>2025-06-16T14:08:11Z</time>
      </trkpt>
      <trkpt lat="45.92178" lon="1.31318">
        <ele>362.5</ele>
        <time>2025-06-16T14:08:12Z</time>
      </trkpt>
      <trkpt lat="45.92182" lon="1.31325">
        <ele>362.2</ele>
        <time>2025-06-16T14:08:13Z</time>
      </trkpt>
      <trkpt lat="45.92186" lon="1.31332">
        <ele>362</ele>
        <time>2025-06-16T14:08:14Z</time>
      </trkpt>
      <trkpt lat="45.9219" lon="1.31338">
        <ele>361.7</ele>
        <time>2025-06-16T14:08:15Z</time>
      </trkpt>
      <trkpt lat="45.92193" lon="1.31345">
        <ele>361.5</ele>
        <time>2025-06-16T14:08:16Z</time>
      </trkpt>
      <trkpt lat="45.92196" lon="1.31353">
        <ele>361.4</ele>
        <time>2025-06-16T14:08:17Z</time>
      </trkpt>
      <trkpt lat="45.92199" lon="1.3136">
        <ele>361.3</ele>
        <time>2025-06-16T14:08:18Z</time>
      </trkpt>
      <trkpt lat="45.92201" lon="1.31367">
        <ele>361.3</ele>
        <time>2025-06-16T14:08:19Z</time>
      </trkpt>
      <trkpt lat="45.92204" lon="1.31375">
        <ele>361.2</ele>
        <time>2025-06-16T14:08:20Z</time>
      </trkpt>
      <trkpt lat="45.92206" lon="1.31382">
        <ele>361.2</ele>
        <time>2025-06-16T14:08:21Z</time>
      </trkpt>
      <trkpt lat="45.92208" lon="1.31389">
        <ele>361.2</ele>
        <time>2025-06-16T14:08:22Z</time>
      </trkpt>
      <trkpt lat="45.9221" lon="1.31397">
        <ele>361.2</ele>
        <time>2025-06-16T14:08:23Z</time>
      </trkpt>
      <trkpt lat="45.92212" lon="1.31405">
        <ele>361.1</ele>
        <time>2025-06-16T14:08:24Z</time>
      </trkpt>
      <trkpt lat="45.92213" lon="1.31413">
        <ele>361.1</ele>
        <time>2025-06-16T14:08:25Z</time>
      </trkpt>
      <trkpt lat="45.92215" lon="1.31421">
        <ele>361.1</ele>
        <time>2025-06-16T14:08:26Z</time>
      </trkpt>
      <trkpt lat="45.92216" lon="1.31428">
        <ele>361.1</ele>
        <time>2025-06-16T14:08:27Z</time>
      </trkpt>
      <trkpt lat="45.92218" lon="1.31436">
        <ele>361.2</ele>
        <time>2025-06-16T14:08:28Z</time>
      </trkpt>
      <trkpt lat="45.92219" lon="1.31444">
        <ele>361.2</ele>
        <time>2025-06-16T14:08:29Z</time>
      </trkpt>
      <trkpt lat="45.9222" lon="1.31451">
        <ele>361.3</ele>
        <time>2025-06-16T14:08:30Z</time>
      </trkpt>
      <trkpt lat="45.92221" lon="1.31459">
        <ele>361.3</ele>
        <time>2025-06-16T14:08:31Z</time>
      </trkpt>
      <trkpt lat="45.92221" lon="1.31466">
        <ele>361.4</ele>
        <time>2025-06-16T14:08:32Z</time>
      </trkpt>
      <trkpt lat="45.92222" lon="1.31474">
        <ele>361.5</ele>
        <time>2025-06-16T14:08:33Z</time>
      </trkpt>
      <trkpt lat="45.92223" lon="1.31481">
        <ele>361.6</ele>
        <time>2025-06-16T14:08:34Z</time>
      </trkpt>
      <trkpt lat="45.92225" lon="1.31489">
        <ele>361.7</ele>
        <time>2025-06-16T14:08:35Z</time>
      </trkpt>
      <trkpt lat="45.92225" lon="1.31496">
        <ele>361.8</ele>
        <time>2025-06-16T14:08:36Z</time>
      </trkpt>
      <trkpt lat="45.92226" lon="1.31503">
        <ele>361.9</ele>
        <time>2025-06-16T14:08:37Z</time>
      </trkpt>
      <trkpt lat="45.92227" lon="1.3151">
        <ele>362.1</ele>
        <time>2025-06-16T14:08:38Z</time>
      </trkpt>
      <trkpt lat="45.92227" lon="1.31517">
        <ele>362.2</ele>
        <time>2025-06-16T14:08:39Z</time>
      </trkpt>
      <trkpt lat="45.92227" lon="1.31525">
        <ele>362.3</ele>
        <time>2025-06-16T14:08:40Z</time>
      </trkpt>
      <trkpt lat="45.92228" lon="1.31532">
        <ele>362.3</ele>
        <time>2025-06-16T14:08:41Z</time>
      </trkpt>
      <trkpt lat="45.92229" lon="1.31539">
        <ele>362.4</ele>
        <time>2025-06-16T14:08:42Z</time>
      </trkpt>
      <trkpt lat="45.92228" lon="1.31546">
        <ele>362.4</ele>
        <time>2025-06-16T14:08:43Z</time>
      </trkpt>
      <trkpt lat="45.92229" lon="1.31554">
        <ele>362.3</ele>
        <time>2025-06-16T14:08:44Z</time>
      </trkpt>
      <trkpt lat="45.92229" lon="1.31561">
        <ele>362.3</ele>
        <time>2025-06-16T14:08:45Z</time>
      </trkpt>
      <trkpt lat="45.9223" lon="1.31569">
        <ele>362.1</ele>
        <time>2025-06-16T14:08:46Z</time>
      </trkpt>
      <trkpt lat="45.92231" lon="1.31577">
        <ele>362</ele>
        <time>2025-06-16T14:08:47Z</time>
      </trkpt>
      <trkpt lat="45.92232" lon="1.31584">
        <ele>361.9</ele>
        <time>2025-06-16T14:08:48Z</time>
      </trkpt>
      <trkpt lat="45.92234" lon="1.31589">
        <ele>361.8</ele>
        <time>2025-06-16T14:08:49Z</time>
      </trkpt>
      <trkpt lat="45.92237" lon="1.31593">
        <ele>361.8</ele>
        <time>2025-06-16T14:08:50Z</time>
      </trkpt>
      <trkpt lat="45.92242" lon="1.31596">
        <ele>361.8</ele>
        <time>2025-06-16T14:08:51Z</time>
      </trkpt>
      <trkpt lat="45.92246" lon="1.31599">
        <ele>361.8</ele>
        <time>2025-06-16T14:08:52Z</time>
      </trkpt>
      <trkpt lat="45.92251" lon="1.31597">
        <ele>361.8</ele>
        <time>2025-06-16T14:08:53Z</time>
      </trkpt>
      <trkpt lat="45.92256" lon="1.31596">
        <ele>361.9</ele>
        <time>2025-06-16T14:08:54Z</time>
      </trkpt>
      <trkpt lat="45.92261" lon="1.31595">
        <ele>361.9</ele>
        <time>2025-06-16T14:08:55Z</time>
      </trkpt>
      <trkpt lat="45.92266" lon="1.31594">
        <ele>361.9</ele>
        <time>2025-06-16T14:08:56Z</time>
      </trkpt>
      <trkpt lat="45.9227" lon="1.31593">
        <ele>361.9</ele>
        <time>2025-06-16T14:08:57Z</time>
      </trkpt>
      <trkpt lat="45.92274" lon="1.31592">
        <ele>361.9</ele>
        <time>2025-06-16T14:08:58Z</time>
      </trkpt>
      <trkpt lat="45.92278" lon="1.31591">
        <ele>361.8</ele>
        <time>2025-06-16T14:08:59Z</time>
      </trkpt>
      <trkpt lat="45.92282" lon="1.3159">
        <ele>361.8</ele>
        <time>2025-06-16T14:09:00Z</time>
      </trkpt>
      <trkpt lat="45.92287" lon="1.31586">
        <ele>361.7</ele>
        <time>2025-06-16T14:09:01Z</time>
      </trkpt>
      <trkpt lat="45.9229" lon="1.31581">
        <ele>361.6</ele>
        <time>2025-06-16T14:09:02Z</time>
      </trkpt>
      <trkpt lat="45.92293" lon="1.31576">
        <ele>361.6</ele>
        <time>2025-06-16T14:09:03Z</time>
      </trkpt>
      <trkpt lat="45.92294" lon="1.31569">
        <ele>361.6</ele>
        <time>2025-06-16T14:09:04Z</time>
      </trkpt>
      <trkpt lat="45.92295" lon="1.31563">
        <ele>361.6</ele>
        <time>2025-06-16T14:09:05Z</time>
      </trkpt>
      <trkpt lat="45.92295" lon="1.31555">
        <ele>361.5</ele>
        <time>2025-06-16T14:09:06Z</time>
      </trkpt>
      <trkpt lat="45.92295" lon="1.31548">
        <ele>361.5</ele>
        <time>2025-06-16T14:09:07Z</time>
      </trkpt>
      <trkpt lat="45.92295" lon="1.31539">
        <ele>361.5</ele>
        <time>2025-06-16T14:09:08Z</time>
      </trkpt>
      <trkpt lat="45.92296" lon="1.31531">
        <ele>361.5</ele>
        <time>2025-06-16T14:09:09Z</time>
      </trkpt>
      <trkpt lat="45.92295" lon="1.31524">
        <ele>361.5</ele>
        <time>2025-06-16T14:09:10Z</time>
      </trkpt>
      <trkpt lat="45.92295" lon="1.31517">
        <ele>361.5</ele>
        <time>2025-06-16T14:09:11Z</time>
      </trkpt>
      <trkpt lat="45.92294" lon="1.31509">
        <ele>361.5</ele>
        <time>2025-06-16T14:09:12Z</time>
      </trkpt>
      <trkpt lat="45.92294" lon="1.31501">
        <ele>361.5</ele>
        <time>2025-06-16T14:09:13Z</time>
      </trkpt>
      <trkpt lat="45.92293" lon="1.31493">
        <ele>361.5</ele>
        <time>2025-06-16T14:09:14Z</time>
      </trkpt>
      <trkpt lat="45.92292" lon="1.31485">
        <ele>361.5</ele>
        <time>2025-06-16T14:09:15Z</time>
      </trkpt>
      <trkpt lat="45.92292" lon="1.31478">
        <ele>361.5</ele>
        <time>2025-06-16T14:09:16Z</time>
      </trkpt>
      <trkpt lat="45.92292" lon="1.31471">
        <ele>361.4</ele>
        <time>2025-06-16T14:09:17Z</time>
      </trkpt>
      <trkpt lat="45.92295" lon="1.31465">
        <ele>361.4</ele>
        <time>2025-06-16T14:09:18Z</time>
      </trkpt>
      <trkpt lat="45.92299" lon="1.31459">
        <ele>361.3</ele>
        <time>2025-06-16T14:09:19Z</time>
      </trkpt>
      <trkpt lat="45.92303" lon="1.31454">
        <ele>361.2</ele>
        <time>2025-06-16T14:09:20Z</time>
      </trkpt>
      <trkpt lat="45.92308" lon="1.31449">
        <ele>361.2</ele>
        <time>2025-06-16T14:09:21Z</time>
      </trkpt>
      <trkpt lat="45.92312" lon="1.31445">
        <ele>361.1</ele>
        <time>2025-06-16T14:09:22Z</time>
      </trkpt>
      <trkpt lat="45.92317" lon="1.31442">
        <ele>361</ele>
        <time>2025-06-16T14:09:23Z</time>
      </trkpt>
      <trkpt lat="45.92322" lon="1.31439">
        <ele>360.9</ele>
        <time>2025-06-16T14:09:24Z</time>
      </trkpt>
      <trkpt lat="45.92328" lon="1.31436">
        <ele>360.9</ele>
        <time>2025-06-16T14:09:25Z</time>
      </trkpt>
      <trkpt lat="45.92332" lon="1.31431">
        <ele>360.8</ele>
        <time>2025-06-16T14:09:26Z</time>
      </trkpt>
      <trkpt lat="45.92337" lon="1.31429">
        <ele>360.8</ele>
        <time>2025-06-16T14:09:27Z</time>
      </trkpt>
      <trkpt lat="45.92342" lon="1.31426">
        <ele>360.8</ele>
        <time>2025-06-16T14:09:28Z</time>
      </trkpt>
      <trkpt lat="45.92347" lon="1.31423">
        <ele>360.8</ele>
        <time>2025-06-16T14:09:29Z</time>
      </trkpt>
      <trkpt lat="45.92351" lon="1.31421">
        <ele>360.8</ele>
        <time>2025-06-16T14:09:30Z</time>
      </trkpt>
      <trkpt lat="45.92356" lon="1.31419">
        <ele>360.8</ele>
        <time>2025-06-16T14:09:31Z</time>
      </trkpt>
      <trkpt lat="45.9236" lon="1.31416">
        <ele>360.8</ele>
        <time>2025-06-16T14:09:32Z</time>
      </trkpt>
      <trkpt lat="45.92364" lon="1.31413">
        <ele>360.7</ele>
        <time>2025-06-16T14:09:33Z</time>
      </trkpt>
      <trkpt lat="45.92369" lon="1.3141">
        <ele>360.7</ele>
        <time>2025-06-16T14:09:34Z</time>
      </trkpt>
      <trkpt lat="45.92373" lon="1.31406">
        <ele>360.7</ele>
        <time>2025-06-16T14:09:35Z</time>
      </trkpt>
      <trkpt lat="45.92378" lon="1.31403">
        <ele>360.7</ele>
        <time>2025-06-16T14:09:36Z</time>
      </trkpt>
      <trkpt lat="45.92382" lon="1.314">
        <ele>360.8</ele>
        <time>2025-06-16T14:09:37Z</time>
      </trkpt>
      <trkpt lat="45.92386" lon="1.31397">
        <ele>360.8</ele>
        <time>2025-06-16T14:09:38Z</time>
      </trkpt>
      <trkpt lat="45.9239" lon="1.31393">
        <ele>360.9</ele>
        <time>2025-06-16T14:09:39Z</time>
      </trkpt>
      <trkpt lat="45.92394" lon="1.3139">
        <ele>361</ele>
        <time>2025-06-16T14:09:40Z</time>
      </trkpt>
      <trkpt lat="45.92398" lon="1.31387">
        <ele>361.1</ele>
        <time>2025-06-16T14:09:41Z</time>
      </trkpt>
      <trkpt lat="45.92402" lon="1.31385">
        <ele>361.2</ele>
        <time>2025-06-16T14:09:42Z</time>
      </trkpt>
      <trkpt lat="45.92407" lon="1.31383">
        <ele>361.4</ele>
        <time>2025-06-16T14:09:43Z</time>
      </trkpt>
      <trkpt lat="45.9241" lon="1.3138">
        <ele>361.5</ele>
        <time>2025-06-16T14:09:44Z</time>
      </trkpt>
      <trkpt lat="45.92413" lon="1.31378">
        <ele>361.6</ele>
        <time>2025-06-16T14:09:45Z</time>
      </trkpt>
      <trkpt lat="45.92417" lon="1.31376">
        <ele>361.8</ele>
        <time>2025-06-16T14:09:46Z</time>
      </trkpt>
      <trkpt lat="45.92421" lon="1.31373">
        <ele>361.9</ele>
        <time>2025-06-16T14:09:47Z</time>
      </trkpt>
      <trkpt lat="45.92425" lon="1.31371">
        <ele>362.1</ele>
        <time>2025-06-16T14:09:48Z</time>
      </trkpt>
      <trkpt lat="45.92428" lon="1.3137">
        <ele>362.2</ele>
        <time>2025-06-16T14:09:49Z</time>
      </trkpt>
      <trkpt lat="45.92431" lon="1.31369">
        <ele>362.3</ele>
        <time>2025-06-16T14:09:50Z</time>
      </trkpt>
      <trkpt lat="45.92434" lon="1.31368">
        <ele>362.4</ele>
        <time>2025-06-16T14:09:51Z</time>
      </trkpt>
      <trkpt lat="45.92438" lon="1.31367">
        <ele>362.4</ele>
        <time>2025-06-16T14:09:52Z</time>
      </trkpt>
      <trkpt lat="45.92441" lon="1.31366">
        <ele>362.5</ele>
        <time>2025-06-16T14:09:53Z</time>
      </trkpt>
      <trkpt lat="45.92444" lon="1.31365">
        <ele>362.5</ele>
        <time>2025-06-16T14:09:54Z</time>
      </trkpt>
      <trkpt lat="45.92447" lon="1.31364">
        <ele>362.5</ele>
        <time>2025-06-16T14:09:55Z</time>
      </trkpt>
      <trkpt lat="45.9245" lon="1.31362">
        <ele>362.5</ele>
        <time>2025-06-16T14:09:56Z</time>
      </trkpt>
      <trkpt lat="45.92452" lon="1.31361">
        <ele>362.4</ele>
        <time>2025-06-16T14:09:57Z</time>
      </trkpt>
      <trkpt lat="45.92453" lon="1.3136">
        <ele>362.3</ele>
        <time>2025-06-16T14:09:58Z</time>
      </trkpt>
      <trkpt lat="45.92454" lon="1.31358">
        <ele>362.2</ele>
        <time>2025-06-16T14:09:59Z</time>
      </trkpt>
      <trkpt lat="45.92456" lon="1.31356">
        <ele>362.1</ele>
        <time>2025-06-16T14:10:00Z</time>
      </trkpt>
      <trkpt lat="45.92458" lon="1.31353">
        <ele>361.9</ele>
        <time>2025-06-16T14:10:01Z</time>
      </trkpt>
      <trkpt lat="45.92461" lon="1.3135">
        <ele>361.6</ele>
        <time>2025-06-16T14:10:02Z</time>
      </trkpt>
      <trkpt lat="45.92462" lon="1.31349">
        <ele>361.5</ele>
        <time>2025-06-16T14:10:03Z</time>
      </trkpt>
      <trkpt lat="45.92465" lon="1.31345">
        <ele>361.2</ele>
        <time>2025-06-16T14:10:04Z</time>
      </trkpt>
      <trkpt lat="45.92468" lon="1.3134">
        <ele>360.9</ele>
        <time>2025-06-16T14:10:05Z</time>
      </trkpt>
      <trkpt lat="45.92471" lon="1.31336">
        <ele>360.6</ele>
        <time>2025-06-16T14:10:06Z</time>
      </trkpt>
      <trkpt lat="45.92474" lon="1.31331">
        <ele>360.3</ele>
        <time>2025-06-16T14:10:07Z</time>
      </trkpt>
      <trkpt lat="45.92478" lon="1.31326">
        <ele>359.9</ele>
        <time>2025-06-16T14:10:08Z</time>
      </trkpt>
      <trkpt lat="45.92482" lon="1.31321">
        <ele>359.5</ele>
        <time>2025-06-16T14:10:09Z</time>
      </trkpt>
      <trkpt lat="45.92487" lon="1.31315">
        <ele>359.2</ele>
        <time>2025-06-16T14:10:10Z</time>
      </trkpt>
      <trkpt lat="45.92491" lon="1.3131">
        <ele>358.8</ele>
        <time>2025-06-16T14:10:11Z</time>
      </trkpt>
      <trkpt lat="45.92495" lon="1.31305">
        <ele>358.6</ele>
        <time>2025-06-16T14:10:12Z</time>
      </trkpt>
      <trkpt lat="45.925" lon="1.313">
        <ele>358.3</ele>
        <time>2025-06-16T14:10:13Z</time>
      </trkpt>
      <trkpt lat="45.92505" lon="1.31293">
        <ele>358</ele>
        <time>2025-06-16T14:10:14Z</time>
      </trkpt>
      <trkpt lat="45.92509" lon="1.31288">
        <ele>357.8</ele>
        <time>2025-06-16T14:10:15Z</time>
      </trkpt>
      <trkpt lat="45.92515" lon="1.3128">
        <ele>357.6</ele>
        <time>2025-06-16T14:10:16Z</time>
      </trkpt>
      <trkpt lat="45.9252" lon="1.31273">
        <ele>357.4</ele>
        <time>2025-06-16T14:10:17Z</time>
      </trkpt>
      <trkpt lat="45.92524" lon="1.31267">
        <ele>357.3</ele>
        <time>2025-06-16T14:10:18Z</time>
      </trkpt>
      <trkpt lat="45.92529" lon="1.31261">
        <ele>357.2</ele>
        <time>2025-06-16T14:10:19Z</time>
      </trkpt>
      <trkpt lat="45.92534" lon="1.31254">
        <ele>357.1</ele>
        <time>2025-06-16T14:10:20Z</time>
      </trkpt>
      <trkpt lat="45.92538" lon="1.31249">
        <ele>357.1</ele>
        <time>2025-06-16T14:10:21Z</time>
      </trkpt>
      <trkpt lat="45.92542" lon="1.31243">
        <ele>357</ele>
        <time>2025-06-16T14:10:22Z</time>
      </trkpt>
      <trkpt lat="45.92546" lon="1.31238">
        <ele>357</ele>
        <time>2025-06-16T14:10:23Z</time>
      </trkpt>
      <trkpt lat="45.9255" lon="1.31233">
        <ele>356.9</ele>
        <time>2025-06-16T14:10:24Z</time>
      </trkpt>
      <trkpt lat="45.92554" lon="1.31227">
        <ele>356.9</ele>
        <time>2025-06-16T14:10:25Z</time>
      </trkpt>
      <trkpt lat="45.92558" lon="1.31222">
        <ele>356.9</ele>
        <time>2025-06-16T14:10:26Z</time>
      </trkpt>
      <trkpt lat="45.92562" lon="1.31216">
        <ele>356.9</ele>
        <time>2025-06-16T14:10:27Z</time>
      </trkpt>
      <trkpt lat="45.92566" lon="1.31211">
        <ele>357</ele>
        <time>2025-06-16T14:10:28Z</time>
      </trkpt>
      <trkpt lat="45.92569" lon="1.31208">
        <ele>357</ele>
        <time>2025-06-16T14:10:29Z</time>
      </trkpt>
      <trkpt lat="45.92573" lon="1.31204">
        <ele>357.1</ele>
        <time>2025-06-16T14:10:30Z</time>
      </trkpt>
      <trkpt lat="45.92576" lon="1.31199">
        <ele>357.1</ele>
        <time>2025-06-16T14:10:31Z</time>
      </trkpt>
      <trkpt lat="45.92579" lon="1.31195">
        <ele>357.2</ele>
        <time>2025-06-16T14:10:32Z</time>
      </trkpt>
      <trkpt lat="45.92582" lon="1.31191">
        <ele>357.2</ele>
        <time>2025-06-16T14:10:33Z</time>
      </trkpt>
      <trkpt lat="45.92586" lon="1.31185">
        <ele>357.3</ele>
        <time>2025-06-16T14:10:34Z</time>
      </trkpt>
      <trkpt lat="45.92588" lon="1.31181">
        <ele>357.3</ele>
        <time>2025-06-16T14:10:35Z</time>
      </trkpt>
      <trkpt lat="45.92591" lon="1.31178">
        <ele>357.4</ele>
        <time>2025-06-16T14:10:36Z</time>
      </trkpt>
      <trkpt lat="45.92595" lon="1.31174">
        <ele>357.4</ele>
        <time>2025-06-16T14:10:37Z</time>
      </trkpt>
      <trkpt lat="45.92599" lon="1.3117">
        <ele>357.5</ele>
        <time>2025-06-16T14:10:38Z</time>
      </trkpt>
      <trkpt lat="45.92601" lon="1.31166">
        <ele>357.5</ele>
        <time>2025-06-16T14:10:39Z</time>
      </trkpt>
      <trkpt lat="45.92604" lon="1.31163">
        <ele>357.6</ele>
        <time>2025-06-16T14:10:40Z</time>
      </trkpt>
      <trkpt lat="45.92606" lon="1.31159">
        <ele>357.7</ele>
        <time>2025-06-16T14:10:41Z</time>
      </trkpt>
      <trkpt lat="45.92608" lon="1.31155">
        <ele>357.8</ele>
        <time>2025-06-16T14:10:42Z</time>
      </trkpt>
      <trkpt lat="45.9261" lon="1.31153">
        <ele>357.8</ele>
        <time>2025-06-16T14:10:43Z</time>
      </trkpt>
      <trkpt lat="45.92612" lon="1.31149">
        <ele>357.9</ele>
        <time>2025-06-16T14:10:44Z</time>
      </trkpt>
      <trkpt lat="45.92615" lon="1.31146">
        <ele>358</ele>
        <time>2025-06-16T14:10:45Z</time>
      </trkpt>
      <trkpt lat="45.92617" lon="1.31143">
        <ele>358.1</ele>
        <time>2025-06-16T14:10:46Z</time>
      </trkpt>
      <trkpt lat="45.9262" lon="1.3114">
        <ele>358.2</ele>
        <time>2025-06-16T14:10:47Z</time>
      </trkpt>
      <trkpt lat="45.92622" lon="1.31136">
        <ele>358.3</ele>
        <time>2025-06-16T14:10:48Z</time>
      </trkpt>
      <trkpt lat="45.92625" lon="1.31133">
        <ele>358.5</ele>
        <time>2025-06-16T14:10:49Z</time>
      </trkpt>
      <trkpt lat="45.92628" lon="1.31129">
        <ele>358.6</ele>
        <time>2025-06-16T14:10:50Z</time>
      </trkpt>
      <trkpt lat="45.9263" lon="1.31126">
        <ele>358.7</ele>
        <time>2025-06-16T14:10:51Z</time>
      </trkpt>
      <trkpt lat="45.92633" lon="1.31122">
        <ele>358.9</ele>
        <time>2025-06-16T14:10:52Z</time>
      </trkpt>
      <trkpt lat="45.92636" lon="1.31119">
        <ele>359</ele>
        <time>2025-06-16T14:10:53Z</time>
      </trkpt>
      <trkpt lat="45.92638" lon="1.31116">
        <ele>359.2</ele>
        <time>2025-06-16T14:10:54Z</time>
      </trkpt>
      <trkpt lat="45.9264" lon="1.31113">
        <ele>359.4</ele>
        <time>2025-06-16T14:10:55Z</time>
      </trkpt>
      <trkpt lat="45.92643" lon="1.3111">
        <ele>359.5</ele>
        <time>2025-06-16T14:10:56Z</time>
      </trkpt>
      <trkpt lat="45.92645" lon="1.31107">
        <ele>359.7</ele>
        <time>2025-06-16T14:10:57Z</time>
      </trkpt>
      <trkpt lat="45.92648" lon="1.31104">
        <ele>359.9</ele>
        <time>2025-06-16T14:10:58Z</time>
      </trkpt>
      <trkpt lat="45.9265" lon="1.31101">
        <ele>360.1</ele>
        <time>2025-06-16T14:10:59Z</time>
      </trkpt>
      <trkpt lat="45.92652" lon="1.31098">
        <ele>360.3</ele>
        <time>2025-06-16T14:11:00Z</time>
      </trkpt>
      <trkpt lat="45.92655" lon="1.31095">
        <ele>360.6</ele>
        <time>2025-06-16T14:11:01Z</time>
      </trkpt>
      <trkpt lat="45.92657" lon="1.31092">
        <ele>360.8</ele>
        <time>2025-06-16T14:11:02Z</time>
      </trkpt>
      <trkpt lat="45.92659" lon="1.31089">
        <ele>361</ele>
        <time>2025-06-16T14:11:03Z</time>
      </trkpt>
      <trkpt lat="45.92661" lon="1.31086">
        <ele>361.3</ele>
        <time>2025-06-16T14:11:04Z</time>
      </trkpt>
      <trkpt lat="45.92663" lon="1.31084">
        <ele>361.5</ele>
        <time>2025-06-16T14:11:05Z</time>
      </trkpt>
      <trkpt lat="45.92666" lon="1.31081">
        <ele>361.7</ele>
        <time>2025-06-16T14:11:06Z</time>
      </trkpt>
      <trkpt lat="45.92668" lon="1.31078">
        <ele>362</ele>
        <time>2025-06-16T14:11:07Z</time>
      </trkpt>
      <trkpt lat="45.9267" lon="1.31075">
        <ele>362.2</ele>
        <time>2025-06-16T14:11:08Z</time>
      </trkpt>
      <trkpt lat="45.92672" lon="1.31072">
        <ele>362.4</ele>
        <time>2025-06-16T14:11:09Z</time>
      </trkpt>
      <trkpt lat="45.92674" lon="1.31069">
        <ele>362.7</ele>
        <time>2025-06-16T14:11:10Z</time>
      </trkpt>
      <trkpt lat="45.92676" lon="1.31067">
        <ele>362.9</ele>
        <time>2025-06-16T14:11:11Z</time>
      </trkpt>
      <trkpt lat="45.92679" lon="1.31064">
        <ele>363.1</ele>
        <time>2025-06-16T14:11:12Z</time>
      </trkpt>
      <trkpt lat="45.92681" lon="1.31061">
        <ele>363.4</ele>
        <time>2025-06-16T14:11:13Z</time>
      </trkpt>
      <trkpt lat="45.92683" lon="1.31058">
        <ele>363.6</ele>
        <time>2025-06-16T14:11:14Z</time>
      </trkpt>
      <trkpt lat="45.92685" lon="1.31055">
        <ele>363.8</ele>
        <time>2025-06-16T14:11:15Z</time>
      </trkpt>
      <trkpt lat="45.92687" lon="1.31053">
        <ele>364</ele>
        <time>2025-06-16T14:11:16Z</time>
      </trkpt>
      <trkpt lat="45.9269" lon="1.3105">
        <ele>364.2</ele>
        <time>2025-06-16T14:11:17Z</time>
      </trkpt>
      <trkpt lat="45.92691" lon="1.31049">
        <ele>364.3</ele>
        <time>2025-06-16T14:11:18Z</time>
      </trkpt>
      <trkpt lat="45.92694" lon="1.31045">
        <ele>364.6</ele>
        <time>2025-06-16T14:11:19Z</time>
      </trkpt>
      <trkpt lat="45.92694" lon="1.31044">
        <ele>364.7</ele>
        <time>2025-06-16T14:11:20Z</time>
      </trkpt>
      <trkpt lat="45.92697" lon="1.31041">
        <ele>364.9</ele>
        <time>2025-06-16T14:11:21Z</time>
      </trkpt>
      <trkpt lat="45.92698" lon="1.31039">
        <ele>365</ele>
        <time>2025-06-16T14:11:22Z</time>
      </trkpt>
      <trkpt lat="45.92702" lon="1.31036">
        <ele>365.3</ele>
        <time>2025-06-16T14:11:23Z</time>
      </trkpt>
      <trkpt lat="45.92703" lon="1.31035">
        <ele>365.4</ele>
        <time>2025-06-16T14:11:24Z</time>
      </trkpt>
      <trkpt lat="45.92706" lon="1.31031">
        <ele>365.6</ele>
        <time>2025-06-16T14:11:25Z</time>
      </trkpt>
      <trkpt lat="45.92707" lon="1.3103">
        <ele>365.7</ele>
        <time>2025-06-16T14:11:26Z</time>
      </trkpt>
      <trkpt lat="45.9271" lon="1.31027">
        <ele>365.9</ele>
        <time>2025-06-16T14:11:27Z</time>
      </trkpt>
      <trkpt lat="45.92711" lon="1.31026">
        <ele>366</ele>
        <time>2025-06-16T14:11:28Z</time>
      </trkpt>
      <trkpt lat="45.92714" lon="1.31023">
        <ele>366.3</ele>
        <time>2025-06-16T14:11:29Z</time>
      </trkpt>
      <trkpt lat="45.92714" lon="1.31021">
        <ele>366.4</ele>
        <time>2025-06-16T14:11:30Z</time>
      </trkpt>
      <trkpt lat="45.92717" lon="1.31018">
        <ele>366.7</ele>
        <time>2025-06-16T14:11:31Z</time>
      </trkpt>
      <trkpt lat="45.92718" lon="1.31017">
        <ele>366.8</ele>
        <time>2025-06-16T14:11:32Z</time>
      </trkpt>
      <trkpt lat="45.92721" lon="1.31015">
        <ele>367</ele>
        <time>2025-06-16T14:11:33Z</time>
      </trkpt>
      <trkpt lat="45.92723" lon="1.31012">
        <ele>367.2</ele>
        <time>2025-06-16T14:11:34Z</time>
      </trkpt>
      <trkpt lat="45.92724" lon="1.31008">
        <ele>367.4</ele>
        <time>2025-06-16T14:11:35Z</time>
      </trkpt>
      <trkpt lat="45.92726" lon="1.31005">
        <ele>367.6</ele>
        <time>2025-06-16T14:11:36Z</time>
      </trkpt>
      <trkpt lat="45.92726" lon="1.31003">
        <ele>367.7</ele>
        <time>2025-06-16T14:11:37Z</time>
      </trkpt>
      <trkpt lat="45.92728" lon="1.31">
        <ele>368</ele>
        <time>2025-06-16T14:11:38Z</time>
      </trkpt>
      <trkpt lat="45.92729" lon="1.30999">
        <ele>368.1</ele>
        <time>2025-06-16T14:11:39Z</time>
      </trkpt>
      <trkpt lat="45.92731" lon="1.30997">
        <ele>368.3</ele>
        <time>2025-06-16T14:11:40Z</time>
      </trkpt>
      <trkpt lat="45.92734" lon="1.30995">
        <ele>368.5</ele>
        <time>2025-06-16T14:11:41Z</time>
      </trkpt>
      <trkpt lat="45.92736" lon="1.30993">
        <ele>368.7</ele>
        <time>2025-06-16T14:11:42Z</time>
      </trkpt>
      <trkpt lat="45.92739" lon="1.30991">
        <ele>368.9</ele>
        <time>2025-06-16T14:11:43Z</time>
      </trkpt>
      <trkpt lat="45.92742" lon="1.30989">
        <ele>369.1</ele>
        <time>2025-06-16T14:11:44Z</time>
      </trkpt>
      <trkpt lat="45.92743" lon="1.30989">
        <ele>369.2</ele>
        <time>2025-06-16T14:11:45Z</time>
      </trkpt>
      <trkpt lat="45.92746" lon="1.30987">
        <ele>369.3</ele>
        <time>2025-06-16T14:11:46Z</time>
      </trkpt>
      <trkpt lat="45.92748" lon="1.30984">
        <ele>369.5</ele>
        <time>2025-06-16T14:11:47Z</time>
      </trkpt>
      <trkpt lat="45.92749" lon="1.30983">
        <ele>369.5</ele>
        <time>2025-06-16T14:11:48Z</time>
      </trkpt>
      <trkpt lat="45.92751" lon="1.30981">
        <ele>369.6</ele>
        <time>2025-06-16T14:11:49Z</time>
      </trkpt>
      <trkpt lat="45.92754" lon="1.30979">
        <ele>369.7</ele>
        <time>2025-06-16T14:11:50Z</time>
      </trkpt>
      <trkpt lat="45.92757" lon="1.30976">
        <ele>369.9</ele>
        <time>2025-06-16T14:11:51Z</time>
      </trkpt>
      <trkpt lat="45.92758" lon="1.30975">
        <ele>369.9</ele>
        <time>2025-06-16T14:11:52Z</time>
      </trkpt>
      <trkpt lat="45.92761" lon="1.30973">
        <ele>370</ele>
        <time>2025-06-16T14:11:53Z</time>
      </trkpt>
      <trkpt lat="45.92764" lon="1.30971">
        <ele>370.2</ele>
        <time>2025-06-16T14:11:54Z</time>
      </trkpt>
      <trkpt lat="45.92765" lon="1.3097">
        <ele>370.2</ele>
        <time>2025-06-16T14:11:55Z</time>
      </trkpt>
      <trkpt lat="45.92769" lon="1.30968">
        <ele>370.3</ele>
        <time>2025-06-16T14:11:56Z</time>
      </trkpt>
      <trkpt lat="45.9277" lon="1.30967">
        <ele>370.3</ele>
        <time>2025-06-16T14:11:57Z</time>
      </trkpt>
      <trkpt lat="45.92773" lon="1.30965">
        <ele>370.4</ele>
        <time>2025-06-16T14:11:58Z</time>
      </trkpt>
      <trkpt lat="45.92776" lon="1.30964">
        <ele>370.5</ele>
        <time>2025-06-16T14:11:59Z</time>
      </trkpt>
      <trkpt lat="45.9278" lon="1.30962">
        <ele>370.6</ele>
        <time>2025-06-16T14:12:00Z</time>
      </trkpt>
      <trkpt lat="45.92784" lon="1.3096">
        <ele>370.7</ele>
        <time>2025-06-16T14:12:01Z</time>
      </trkpt>
      <trkpt lat="45.92788" lon="1.30959">
        <ele>370.8</ele>
        <time>2025-06-16T14:12:02Z</time>
      </trkpt>
      <trkpt lat="45.92791" lon="1.30957">
        <ele>370.9</ele>
        <time>2025-06-16T14:12:03Z</time>
      </trkpt>
      <trkpt lat="45.92795" lon="1.30955">
        <ele>371</ele>
        <time>2025-06-16T14:12:04Z</time>
      </trkpt>
      <trkpt lat="45.92798" lon="1.30952">
        <ele>371.1</ele>
        <time>2025-06-16T14:12:05Z</time>
      </trkpt>
      <trkpt lat="45.92801" lon="1.30949">
        <ele>371.2</ele>
        <time>2025-06-16T14:12:06Z</time>
      </trkpt>
      <trkpt lat="45.92802" lon="1.30948">
        <ele>371.3</ele>
        <time>2025-06-16T14:12:07Z</time>
      </trkpt>
      <trkpt lat="45.92805" lon="1.30946">
        <ele>371.4</ele>
        <time>2025-06-16T14:12:08Z</time>
      </trkpt>
      <trkpt lat="45.92807" lon="1.30945">
        <ele>371.4</ele>
        <time>2025-06-16T14:12:09Z</time>
      </trkpt>
      <trkpt lat="45.9281" lon="1.30943">
        <ele>371.5</ele>
        <time>2025-06-16T14:12:10Z</time>
      </trkpt>
      <trkpt lat="45.92811" lon="1.30943">
        <ele>371.6</ele>
        <time>2025-06-16T14:12:11Z</time>
      </trkpt>
      <trkpt lat="45.92813" lon="1.3094">
        <ele>371.7</ele>
        <time>2025-06-16T14:12:12Z</time>
      </trkpt>
      <trkpt lat="45.92814" lon="1.30938">
        <ele>371.7</ele>
        <time>2025-06-16T14:12:13Z</time>
      </trkpt>
      <trkpt lat="45.92817" lon="1.30936">
        <ele>371.8</ele>
        <time>2025-06-16T14:12:14Z</time>
      </trkpt>
      <trkpt lat="45.92819" lon="1.30935">
        <ele>371.9</ele>
        <time>2025-06-16T14:12:15Z</time>
      </trkpt>
      <trkpt lat="45.92823" lon="1.30934">
        <ele>372</ele>
        <time>2025-06-16T14:12:16Z</time>
      </trkpt>
      <trkpt lat="45.92824" lon="1.30933">
        <ele>372.1</ele>
        <time>2025-06-16T14:12:17Z</time>
      </trkpt>
      <trkpt lat="45.92828" lon="1.30932">
        <ele>372.2</ele>
        <time>2025-06-16T14:12:18Z</time>
      </trkpt>
      <trkpt lat="45.92832" lon="1.3093">
        <ele>372.3</ele>
        <time>2025-06-16T14:12:19Z</time>
      </trkpt>
      <trkpt lat="45.92836" lon="1.30927">
        <ele>372.4</ele>
        <time>2025-06-16T14:12:20Z</time>
      </trkpt>
      <trkpt lat="45.92841" lon="1.30926">
        <ele>372.5</ele>
        <time>2025-06-16T14:12:21Z</time>
      </trkpt>
      <trkpt lat="45.92845" lon="1.30925">
        <ele>372.5</ele>
        <time>2025-06-16T14:12:22Z</time>
      </trkpt>
      <trkpt lat="45.92849" lon="1.30925">
        <ele>372.5</ele>
        <time>2025-06-16T14:12:23Z</time>
      </trkpt>
      <trkpt lat="45.92853" lon="1.30926">
        <ele>372.5</ele>
        <time>2025-06-16T14:12:24Z</time>
      </trkpt>
      <trkpt lat="45.92857" lon="1.30928">
        <ele>372.5</ele>
        <time>2025-06-16T14:12:25Z</time>
      </trkpt>
      <trkpt lat="45.9286" lon="1.3093">
        <ele>372.5</ele>
        <time>2025-06-16T14:12:26Z</time>
      </trkpt>
      <trkpt lat="45.92863" lon="1.30932">
        <ele>372.5</ele>
        <time>2025-06-16T14:12:27Z</time>
      </trkpt>
      <trkpt lat="45.92866" lon="1.30935">
        <ele>372.5</ele>
        <time>2025-06-16T14:12:28Z</time>
      </trkpt>
      <trkpt lat="45.92869" lon="1.30937">
        <ele>372.5</ele>
        <time>2025-06-16T14:12:29Z</time>
      </trkpt>
      <trkpt lat="45.92872" lon="1.30939">
        <ele>372.5</ele>
        <time>2025-06-16T14:12:30Z</time>
      </trkpt>
      <trkpt lat="45.92875" lon="1.30941">
        <ele>372.6</ele>
        <time>2025-06-16T14:12:31Z</time>
      </trkpt>
      <trkpt lat="45.92878" lon="1.30944">
        <ele>372.6</ele>
        <time>2025-06-16T14:12:32Z</time>
      </trkpt>
      <trkpt lat="45.92881" lon="1.30946">
        <ele>372.7</ele>
        <time>2025-06-16T14:12:33Z</time>
      </trkpt>
      <trkpt lat="45.92884" lon="1.30947">
        <ele>372.7</ele>
        <time>2025-06-16T14:12:34Z</time>
      </trkpt>
      <trkpt lat="45.92887" lon="1.30948">
        <ele>372.8</ele>
        <time>2025-06-16T14:12:35Z</time>
      </trkpt>
      <trkpt lat="45.92891" lon="1.3095">
        <ele>372.9</ele>
        <time>2025-06-16T14:12:36Z</time>
      </trkpt>
      <trkpt lat="45.92891" lon="1.3095">
        <ele>372.9</ele>
        <time>2025-06-16T14:12:37Z</time>
      </trkpt>
      <trkpt lat="45.92894" lon="1.30951">
        <ele>372.9</ele>
        <time>2025-06-16T14:12:38Z</time>
      </trkpt>
      <trkpt lat="45.92895" lon="1.30952">
        <ele>373</ele>
        <time>2025-06-16T14:12:39Z</time>
      </trkpt>
      <trkpt lat="45.92898" lon="1.30953">
        <ele>373</ele>
        <time>2025-06-16T14:12:40Z</time>
      </trkpt>
      <trkpt lat="45.92901" lon="1.30955">
        <ele>373.1</ele>
        <time>2025-06-16T14:12:41Z</time>
      </trkpt>
      <trkpt lat="45.92904" lon="1.30957">
        <ele>373.1</ele>
        <time>2025-06-16T14:12:42Z</time>
      </trkpt>
      <trkpt lat="45.92907" lon="1.30959">
        <ele>373.2</ele>
        <time>2025-06-16T14:12:43Z</time>
      </trkpt>
      <trkpt lat="45.9291" lon="1.30962">
        <ele>373.3</ele>
        <time>2025-06-16T14:12:44Z</time>
      </trkpt>
      <trkpt lat="45.92913" lon="1.30964">
        <ele>373.4</ele>
        <time>2025-06-16T14:12:45Z</time>
      </trkpt>
      <trkpt lat="45.92916" lon="1.30967">
        <ele>373.5</ele>
        <time>2025-06-16T14:12:46Z</time>
      </trkpt>
      <trkpt lat="45.92918" lon="1.30968">
        <ele>373.6</ele>
        <time>2025-06-16T14:12:47Z</time>
      </trkpt>
      <trkpt lat="45.9292" lon="1.3097">
        <ele>373.7</ele>
        <time>2025-06-16T14:12:48Z</time>
      </trkpt>
      <trkpt lat="45.92923" lon="1.30973">
        <ele>373.8</ele>
        <time>2025-06-16T14:12:49Z</time>
      </trkpt>
      <trkpt lat="45.92926" lon="1.30975">
        <ele>373.9</ele>
        <time>2025-06-16T14:12:50Z</time>
      </trkpt>
      <trkpt lat="45.92929" lon="1.30978">
        <ele>374</ele>
        <time>2025-06-16T14:12:51Z</time>
      </trkpt>
      <trkpt lat="45.92931" lon="1.3098">
        <ele>374.1</ele>
        <time>2025-06-16T14:12:52Z</time>
      </trkpt>
      <trkpt lat="45.92934" lon="1.30981">
        <ele>374.2</ele>
        <time>2025-06-16T14:12:53Z</time>
      </trkpt>
      <trkpt lat="45.92937" lon="1.30983">
        <ele>374.4</ele>
        <time>2025-06-16T14:12:54Z</time>
      </trkpt>
      <trkpt lat="45.9294" lon="1.30985">
        <ele>374.5</ele>
        <time>2025-06-16T14:12:55Z</time>
      </trkpt>
      <trkpt lat="45.92942" lon="1.30986">
        <ele>374.6</ele>
        <time>2025-06-16T14:12:56Z</time>
      </trkpt>
      <trkpt lat="45.92945" lon="1.30988">
        <ele>374.7</ele>
        <time>2025-06-16T14:12:57Z</time>
      </trkpt>
      <trkpt lat="45.92948" lon="1.3099">
        <ele>374.9</ele>
        <time>2025-06-16T14:12:58Z</time>
      </trkpt>
      <trkpt lat="45.9295" lon="1.30991">
        <ele>375</ele>
        <time>2025-06-16T14:12:59Z</time>
      </trkpt>
      <trkpt lat="45.92953" lon="1.30992">
        <ele>375.1</ele>
        <time>2025-06-16T14:13:00Z</time>
      </trkpt>
      <trkpt lat="45.92956" lon="1.30992">
        <ele>375.3</ele>
        <time>2025-06-16T14:13:01Z</time>
      </trkpt>
      <trkpt lat="45.92959" lon="1.30993">
        <ele>375.4</ele>
        <time>2025-06-16T14:13:02Z</time>
      </trkpt>
      <trkpt lat="45.92963" lon="1.30993">
        <ele>375.6</ele>
        <time>2025-06-16T14:13:03Z</time>
      </trkpt>
      <trkpt lat="45.92964" lon="1.30993">
        <ele>375.7</ele>
        <time>2025-06-16T14:13:04Z</time>
      </trkpt>
      <trkpt lat="45.92968" lon="1.30992">
        <ele>375.9</ele>
        <time>2025-06-16T14:13:05Z</time>
      </trkpt>
      <trkpt lat="45.92969" lon="1.30992">
        <ele>375.9</ele>
        <time>2025-06-16T14:13:06Z</time>
      </trkpt>
      <trkpt lat="45.92973" lon="1.30991">
        <ele>376.1</ele>
        <time>2025-06-16T14:13:07Z</time>
      </trkpt>
      <trkpt lat="45.92974" lon="1.30991">
        <ele>376.2</ele>
        <time>2025-06-16T14:13:08Z</time>
      </trkpt>
      <trkpt lat="45.92978" lon="1.3099">
        <ele>376.4</ele>
        <time>2025-06-16T14:13:09Z</time>
      </trkpt>
      <trkpt lat="45.9298" lon="1.3099">
        <ele>376.5</ele>
        <time>2025-06-16T14:13:10Z</time>
      </trkpt>
      <trkpt lat="45.92983" lon="1.3099">
        <ele>376.7</ele>
        <time>2025-06-16T14:13:11Z</time>
      </trkpt>
      <trkpt lat="45.92984" lon="1.3099">
        <ele>376.7</ele>
        <time>2025-06-16T14:13:12Z</time>
      </trkpt>
      <trkpt lat="45.92988" lon="1.30989">
        <ele>376.9</ele>
        <time>2025-06-16T14:13:13Z</time>
      </trkpt>
      <trkpt lat="45.9299" lon="1.30989">
        <ele>377</ele>
        <time>2025-06-16T14:13:14Z</time>
      </trkpt>
      <trkpt lat="45.92993" lon="1.30989">
        <ele>377.1</ele>
        <time>2025-06-16T14:13:15Z</time>
      </trkpt>
      <trkpt lat="45.92996" lon="1.30988">
        <ele>377.3</ele>
        <time>2025-06-16T14:13:16Z</time>
      </trkpt>
      <trkpt lat="45.92998" lon="1.30988">
        <ele>377.4</ele>
        <time>2025-06-16T14:13:17Z</time>
      </trkpt>
      <trkpt lat="45.93001" lon="1.30988">
        <ele>377.5</ele>
        <time>2025-06-16T14:13:18Z</time>
      </trkpt>
      <trkpt lat="45.93005" lon="1.30987">
        <ele>377.7</ele>
        <time>2025-06-16T14:13:19Z</time>
      </trkpt>
      <trkpt lat="45.93007" lon="1.30987">
        <ele>377.8</ele>
        <time>2025-06-16T14:13:20Z</time>
      </trkpt>
      <trkpt lat="45.93009" lon="1.30987">
        <ele>377.9</ele>
        <time>2025-06-16T14:13:21Z</time>
      </trkpt>
      <trkpt lat="45.93012" lon="1.30987">
        <ele>378</ele>
        <time>2025-06-16T14:13:22Z</time>
      </trkpt>
      <trkpt lat="45.93016" lon="1.30986">
        <ele>378.2</ele>
        <time>2025-06-16T14:13:23Z</time>
      </trkpt>
      <trkpt lat="45.93017" lon="1.30986">
        <ele>378.3</ele>
        <time>2025-06-16T14:13:24Z</time>
      </trkpt>
      <trkpt lat="45.93021" lon="1.30985">
        <ele>378.5</ele>
        <time>2025-06-16T14:13:25Z</time>
      </trkpt>
      <trkpt lat="45.93022" lon="1.30985">
        <ele>378.5</ele>
        <time>2025-06-16T14:13:26Z</time>
      </trkpt>
      <trkpt lat="45.93026" lon="1.30984">
        <ele>378.7</ele>
        <time>2025-06-16T14:13:27Z</time>
      </trkpt>
      <trkpt lat="45.93027" lon="1.30984">
        <ele>378.7</ele>
        <time>2025-06-16T14:13:28Z</time>
      </trkpt>
      <trkpt lat="45.9303" lon="1.30984">
        <ele>378.8</ele>
        <time>2025-06-16T14:13:29Z</time>
      </trkpt>
      <trkpt lat="45.93031" lon="1.30984">
        <ele>378.8</ele>
        <time>2025-06-16T14:13:30Z</time>
      </trkpt>
      <trkpt lat="45.93034" lon="1.30983">
        <ele>378.9</ele>
        <time>2025-06-16T14:13:31Z</time>
      </trkpt>
      <trkpt lat="45.93037" lon="1.30982">
        <ele>379</ele>
        <time>2025-06-16T14:13:32Z</time>
      </trkpt>
      <trkpt lat="45.93038" lon="1.30981">
        <ele>379.1</ele>
        <time>2025-06-16T14:13:33Z</time>
      </trkpt>
      <trkpt lat="45.93043" lon="1.3098">
        <ele>379.2</ele>
        <time>2025-06-16T14:13:34Z</time>
      </trkpt>
      <trkpt lat="45.93046" lon="1.30979">
        <ele>379.3</ele>
        <time>2025-06-16T14:13:36Z</time>
      </trkpt>
      <trkpt lat="45.93052" lon="1.30978">
        <ele>379.5</ele>
        <time>2025-06-16T14:13:37Z</time>
      </trkpt>
      <trkpt lat="45.93054" lon="1.30978">
        <ele>379.5</ele>
        <time>2025-06-16T14:13:38Z</time>
      </trkpt>
      <trkpt lat="45.93056" lon="1.30978">
        <ele>379.6</ele>
        <time>2025-06-16T14:13:39Z</time>
      </trkpt>
      <trkpt lat="45.9306" lon="1.30977">
        <ele>379.7</ele>
        <time>2025-06-16T14:13:41Z</time>
      </trkpt>
      <trkpt lat="45.93065" lon="1.30976">
        <ele>379.8</ele>
        <time>2025-06-16T14:13:42Z</time>
      </trkpt>
      <trkpt lat="45.93069" lon="1.30975">
        <ele>379.8</ele>
        <time>2025-06-16T14:13:43Z</time>
      </trkpt>
      <trkpt lat="45.93073" lon="1.30973">
        <ele>379.9</ele>
        <time>2025-06-16T14:13:45Z</time>
      </trkpt>
      <trkpt lat="45.93076" lon="1.30972">
        <ele>379.9</ele>
        <time>2025-06-16T14:13:46Z</time>
      </trkpt>
      <trkpt lat="45.93079" lon="1.30971">
        <ele>379.9</ele>
        <time>2025-06-16T14:13:47Z</time>
      </trkpt>
      <trkpt lat="45.93085" lon="1.3097">
        <ele>380</ele>
        <time>2025-06-16T14:13:48Z</time>
      </trkpt>
      <trkpt lat="45.93092" lon="1.30968">
        <ele>379.9</ele>
        <time>2025-06-16T14:13:50Z</time>
      </trkpt>
      <trkpt lat="45.93095" lon="1.30967">
        <ele>379.9</ele>
        <time>2025-06-16T14:13:51Z</time>
      </trkpt>
      <trkpt lat="45.93099" lon="1.30965">
        <ele>379.8</ele>
        <time>2025-06-16T14:13:53Z</time>
      </trkpt>
      <trkpt lat="45.93104" lon="1.30963">
        <ele>379.8</ele>
        <time>2025-06-16T14:13:54Z</time>
      </trkpt>
      <trkpt lat="45.93108" lon="1.30961">
        <ele>379.7</ele>
        <time>2025-06-16T14:13:55Z</time>
      </trkpt>
      <trkpt lat="45.93112" lon="1.30958">
        <ele>379.6</ele>
        <time>2025-06-16T14:13:56Z</time>
      </trkpt>
      <trkpt lat="45.93116" lon="1.30957">
        <ele>379.5</ele>
        <time>2025-06-16T14:13:57Z</time>
      </trkpt>
      <trkpt lat="45.93119" lon="1.30954">
        <ele>379.5</ele>
        <time>2025-06-16T14:13:58Z</time>
      </trkpt>
      <trkpt lat="45.93122" lon="1.30952">
        <ele>379.4</ele>
        <time>2025-06-16T14:13:59Z</time>
      </trkpt>
      <trkpt lat="45.93126" lon="1.3095">
        <ele>379.3</ele>
        <time>2025-06-16T14:14:00Z</time>
      </trkpt>
      <trkpt lat="45.93129" lon="1.30947">
        <ele>379.3</ele>
        <time>2025-06-16T14:14:01Z</time>
      </trkpt>
      <trkpt lat="45.9313" lon="1.30947">
        <ele>379.3</ele>
        <time>2025-06-16T14:14:02Z</time>
      </trkpt>
      <trkpt lat="45.93133" lon="1.30945">
        <ele>379.2</ele>
        <time>2025-06-16T14:14:03Z</time>
      </trkpt>
      <trkpt lat="45.93134" lon="1.30944">
        <ele>379.2</ele>
        <time>2025-06-16T14:14:04Z</time>
      </trkpt>
      <trkpt lat="45.93135" lon="1.30944">
        <ele>379.2</ele>
        <time>2025-06-16T14:14:05Z</time>
      </trkpt>
      <trkpt lat="45.93135" lon="1.30944">
        <ele>379.2</ele>
        <time>2025-06-16T14:14:06Z</time>
      </trkpt>
      <trkpt lat="45.93136" lon="1.30944">
        <ele>379.2</ele>
        <time>2025-06-16T14:14:07Z</time>
      </trkpt>
      <trkpt lat="45.93136" lon="1.30944">
        <ele>379.2</ele>
        <time>2025-06-16T14:14:08Z</time>
      </trkpt>
      <trkpt lat="45.93136" lon="1.30944">
        <ele>379.2</ele>
        <time>2025-06-16T14:14:09Z</time>
      </trkpt>
      <trkpt lat="45.93137" lon="1.30944">
        <ele>379.2</ele>
        <time>2025-06-16T14:14:10Z</time>
      </trkpt>
      <trkpt lat="45.93137" lon="1.30943">
        <ele>379.3</ele>
        <time>2025-06-16T14:14:11Z</time>
      </trkpt>
      <trkpt lat="45.93137" lon="1.30943">
        <ele>379.3</ele>
        <time>2025-06-16T14:14:12Z</time>
      </trkpt>
      <trkpt lat="45.93137" lon="1.30943">
        <ele>379.3</ele>
        <time>2025-06-16T14:14:13Z</time>
      </trkpt>
      <trkpt lat="45.93138" lon="1.30943">
        <ele>379.3</ele>
        <time>2025-06-16T14:14:14Z</time>
      </trkpt>
      <trkpt lat="45.93138" lon="1.30943">
        <ele>379.3</ele>
        <time>2025-06-16T14:14:15Z</time>
      </trkpt>
      <trkpt lat="45.93138" lon="1.30943">
        <ele>379.3</ele>
        <time>2025-06-16T14:14:16Z</time>
      </trkpt>
      <trkpt lat="45.93138" lon="1.30943">
        <ele>379.3</ele>
        <time>2025-06-16T14:14:17Z</time>
      </trkpt>
      <trkpt lat="45.93138" lon="1.30943">
        <ele>379.3</ele>
        <time>2025-06-16T14:14:18Z</time>
      </trkpt>
      <trkpt lat="45.93138" lon="1.30942">
        <ele>379.3</ele>
        <time>2025-06-16T14:14:19Z</time>
      </trkpt>
      <trkpt lat="45.93138" lon="1.30942">
        <ele>379.3</ele>
        <time>2025-06-16T14:14:20Z</time>
      </trkpt>
      <trkpt lat="45.93138" lon="1.30942">
        <ele>379.3</ele>
        <time>2025-06-16T14:14:21Z</time>
      </trkpt>
      <trkpt lat="45.93139" lon="1.30942">
        <ele>379.3</ele>
        <time>2025-06-16T14:14:22Z</time>
      </trkpt>
      <trkpt lat="45.93139" lon="1.30942">
        <ele>379.3</ele>
        <time>2025-06-16T14:14:23Z</time>
      </trkpt>
      <trkpt lat="45.93139" lon="1.30942">
        <ele>379.3</ele>
        <time>2025-06-16T14:14:24Z</time>
      </trkpt>
      <trkpt lat="45.93139" lon="1.30942">
        <ele>379.3</ele>
        <time>2025-06-16T14:14:25Z</time>
      </trkpt>
      <trkpt lat="45.93139" lon="1.30942">
        <ele>379.3</ele>
        <time>2025-06-16T14:14:26Z</time>
      </trkpt>
      <trkpt lat="45.93139" lon="1.30942">
        <ele>379.3</ele>
        <time>2025-06-16T14:14:27Z</time>
      </trkpt>
      <trkpt lat="45.93139" lon="1.30942">
        <ele>379.3</ele>
        <time>2025-06-16T14:14:28Z</time>
      </trkpt>
      <trkpt lat="45.93139" lon="1.30941">
        <ele>379.3</ele>
        <time>2025-06-16T14:14:29Z</time>
      </trkpt>
      <trkpt lat="45.9314" lon="1.30941">
        <ele>379.3</ele>
        <time>2025-06-16T14:14:30Z</time>
      </trkpt>
      <trkpt lat="45.9314" lon="1.30941">
        <ele>379.3</ele>
        <time>2025-06-16T14:14:31Z</time>
      </trkpt>
      <trkpt lat="45.9314" lon="1.30941">
        <ele>379.3</ele>
        <time>2025-06-16T14:14:32Z</time>
      </trkpt>
      <trkpt lat="45.9314" lon="1.30941">
        <ele>379.3</ele>
        <time>2025-06-16T14:14:33Z</time>
      </trkpt>
      <trkpt lat="45.9314" lon="1.30941">
        <ele>379.3</ele>
        <time>2025-06-16T14:14:34Z</time>
      </trkpt>
      <trkpt lat="45.9314" lon="1.30941">
        <ele>379.3</ele>
        <time>2025-06-16T14:14:35Z</time>
      </trkpt>
      <trkpt lat="45.9314" lon="1.30941">
        <ele>379.3</ele>
        <time>2025-06-16T14:14:36Z</time>
      </trkpt>
      <trkpt lat="45.9314" lon="1.30941">
        <ele>379.3</ele>
        <time>2025-06-16T14:14:37Z</time>
      </trkpt>
      <trkpt lat="45.9314" lon="1.30941">
        <ele>379.3</ele>
        <time>2025-06-16T14:14:38Z</time>
      </trkpt>
      <trkpt lat="45.93141" lon="1.30941">
        <ele>379.3</ele>
        <time>2025-06-16T14:14:39Z</time>
      </trkpt>
      <trkpt lat="45.93141" lon="1.3094">
        <ele>379.3</ele>
        <time>2025-06-16T14:14:40Z</time>
      </trkpt>
      <trkpt lat="45.93141" lon="1.3094">
        <ele>379.4</ele>
        <time>2025-06-16T14:14:41Z</time>
      </trkpt>
      <trkpt lat="45.93141" lon="1.3094">
        <ele>379.4</ele>
        <time>2025-06-16T14:14:42Z</time>
      </trkpt>
      <trkpt lat="45.93141" lon="1.3094">
        <ele>379.4</ele>
        <time>2025-06-16T14:14:43Z</time>
      </trkpt>
      <trkpt lat="45.93141" lon="1.3094">
        <ele>379.4</ele>
        <time>2025-06-16T14:14:44Z</time>
      </trkpt>
      <trkpt lat="45.93141" lon="1.3094">
        <ele>379.4</ele>
        <time>2025-06-16T14:14:45Z</time>
      </trkpt>
      <trkpt lat="45.93141" lon="1.3094">
        <ele>379.4</ele>
        <time>2025-06-16T14:14:46Z</time>
      </trkpt>
      <trkpt lat="45.93142" lon="1.3094">
        <ele>379.4</ele>
        <time>2025-06-16T14:14:47Z</time>
      </trkpt>
      <trkpt lat="45.93142" lon="1.3094">
        <ele>379.4</ele>
        <time>2025-06-16T14:14:48Z</time>
      </trkpt>
      <trkpt lat="45.93142" lon="1.3094">
        <ele>379.4</ele>
        <time>2025-06-16T14:14:49Z</time>
      </trkpt>
      <trkpt lat="45.93145" lon="1.30937">
        <ele>379.4</ele>
        <time>2025-06-16T14:14:50Z</time>
      </trkpt>
      <trkpt lat="45.93148" lon="1.30935">
        <ele>379.5</ele>
        <time>2025-06-16T14:14:51Z</time>
      </trkpt>
      <trkpt lat="45.93152" lon="1.30933">
        <ele>379.6</ele>
        <time>2025-06-16T14:14:52Z</time>
      </trkpt>
      <trkpt lat="45.93156" lon="1.30931">
        <ele>379.7</ele>
        <time>2025-06-16T14:14:53Z</time>
      </trkpt>
      <trkpt lat="45.9316" lon="1.30929">
        <ele>379.8</ele>
        <time>2025-06-16T14:14:54Z</time>
      </trkpt>
      <trkpt lat="45.93164" lon="1.30927">
        <ele>379.8</ele>
        <time>2025-06-16T14:14:55Z</time>
      </trkpt>
      <trkpt lat="45.93167" lon="1.30926">
        <ele>379.9</ele>
        <time>2025-06-16T14:14:56Z</time>
      </trkpt>
      <trkpt lat="45.9317" lon="1.30924">
        <ele>379.9</ele>
        <time>2025-06-16T14:14:57Z</time>
      </trkpt>
      <trkpt lat="45.93171" lon="1.30923">
        <ele>380</ele>
        <time>2025-06-16T14:14:58Z</time>
      </trkpt>
      <trkpt lat="45.93173" lon="1.30921">
        <ele>380</ele>
        <time>2025-06-16T14:14:59Z</time>
      </trkpt>
      <trkpt lat="45.93176" lon="1.30919">
        <ele>380.1</ele>
        <time>2025-06-16T14:15:00Z</time>
      </trkpt>
      <trkpt lat="45.9318" lon="1.30917">
        <ele>380.1</ele>
        <time>2025-06-16T14:15:01Z</time>
      </trkpt>
      <trkpt lat="45.93183" lon="1.30915">
        <ele>380.2</ele>
        <time>2025-06-16T14:15:02Z</time>
      </trkpt>
      <trkpt lat="45.93186" lon="1.30913">
        <ele>380.3</ele>
        <time>2025-06-16T14:15:03Z</time>
      </trkpt>
      <trkpt lat="45.93189" lon="1.3091">
        <ele>380.4</ele>
        <time>2025-06-16T14:15:04Z</time>
      </trkpt>
      <trkpt lat="45.93192" lon="1.30908">
        <ele>380.5</ele>
        <time>2025-06-16T14:15:05Z</time>
      </trkpt>
      <trkpt lat="45.93195" lon="1.30906">
        <ele>380.6</ele>
        <time>2025-06-16T14:15:06Z</time>
      </trkpt>
      <trkpt lat="45.93199" lon="1.30904">
        <ele>380.7</ele>
        <time>2025-06-16T14:15:07Z</time>
      </trkpt>
      <trkpt lat="45.93202" lon="1.30901">
        <ele>380.8</ele>
        <time>2025-06-16T14:15:08Z</time>
      </trkpt>
      <trkpt lat="45.93206" lon="1.30898">
        <ele>380.9</ele>
        <time>2025-06-16T14:15:09Z</time>
      </trkpt>
      <trkpt lat="45.9321" lon="1.30895">
        <ele>381.1</ele>
        <time>2025-06-16T14:15:10Z</time>
      </trkpt>
      <trkpt lat="45.93214" lon="1.30893">
        <ele>381.2</ele>
        <time>2025-06-16T14:15:11Z</time>
      </trkpt>
      <trkpt lat="45.93219" lon="1.30891">
        <ele>381.3</ele>
        <time>2025-06-16T14:15:12Z</time>
      </trkpt>
      <trkpt lat="45.93223" lon="1.30888">
        <ele>381.5</ele>
        <time>2025-06-16T14:15:13Z</time>
      </trkpt>
      <trkpt lat="45.93227" lon="1.30886">
        <ele>381.6</ele>
        <time>2025-06-16T14:15:14Z</time>
      </trkpt>
      <trkpt lat="45.93231" lon="1.30883">
        <ele>381.8</ele>
        <time>2025-06-16T14:15:15Z</time>
      </trkpt>
      <trkpt lat="45.93233" lon="1.30882">
        <ele>381.9</ele>
        <time>2025-06-16T14:15:16Z</time>
      </trkpt>
      <trkpt lat="45.93237" lon="1.3088">
        <ele>382</ele>
        <time>2025-06-16T14:15:17Z</time>
      </trkpt>
      <trkpt lat="45.93238" lon="1.3088">
        <ele>382.1</ele>
        <time>2025-06-16T14:15:18Z</time>
      </trkpt>
      <trkpt lat="45.93241" lon="1.30878">
        <ele>382.2</ele>
        <time>2025-06-16T14:15:19Z</time>
      </trkpt>
      <trkpt lat="45.93243" lon="1.30878">
        <ele>382.3</ele>
        <time>2025-06-16T14:15:20Z</time>
      </trkpt>
      <trkpt lat="45.93247" lon="1.30876">
        <ele>382.4</ele>
        <time>2025-06-16T14:15:21Z</time>
      </trkpt>
      <trkpt lat="45.93249" lon="1.30873">
        <ele>382.6</ele>
        <time>2025-06-16T14:15:22Z</time>
      </trkpt>
      <trkpt lat="45.9325" lon="1.3087">
        <ele>382.6</ele>
        <time>2025-06-16T14:15:23Z</time>
      </trkpt>
      <trkpt lat="45.9325" lon="1.30868">
        <ele>382.6</ele>
        <time>2025-06-16T14:15:24Z</time>
      </trkpt>
      <trkpt lat="45.93249" lon="1.30864">
        <ele>382.6</ele>
        <time>2025-06-16T14:15:25Z</time>
      </trkpt>
      <trkpt lat="45.93248" lon="1.30862">
        <ele>382.6</ele>
        <time>2025-06-16T14:15:26Z</time>
      </trkpt>
      <trkpt lat="45.93247" lon="1.30858">
        <ele>382.6</ele>
        <time>2025-06-16T14:15:27Z</time>
      </trkpt>
      <trkpt lat="45.93245" lon="1.30853">
        <ele>382.6</ele>
        <time>2025-06-16T14:15:28Z</time>
      </trkpt>
      <trkpt lat="45.93244" lon="1.30848">
        <ele>382.6</ele>
        <time>2025-06-16T14:15:29Z</time>
      </trkpt>
      <trkpt lat="45.93242" lon="1.30843">
        <ele>382.5</ele>
        <time>2025-06-16T14:15:30Z</time>
      </trkpt>
      <trkpt lat="45.93241" lon="1.30838">
        <ele>382.5</ele>
        <time>2025-06-16T14:15:31Z</time>
      </trkpt>
      <trkpt lat="45.9324" lon="1.30832">
        <ele>382.5</ele>
        <time>2025-06-16T14:15:32Z</time>
      </trkpt>
      <trkpt lat="45.93239" lon="1.30827">
        <ele>382.4</ele>
        <time>2025-06-16T14:15:33Z</time>
      </trkpt>
      <trkpt lat="45.93238" lon="1.3082">
        <ele>382.3</ele>
        <time>2025-06-16T14:15:34Z</time>
      </trkpt>
      <trkpt lat="45.93235" lon="1.30807">
        <ele>381.9</ele>
        <time>2025-06-16T14:15:35Z</time>
      </trkpt>
      <trkpt lat="45.93233" lon="1.30802">
        <ele>381.7</ele>
        <time>2025-06-16T14:15:37Z</time>
      </trkpt>
      <trkpt lat="45.93231" lon="1.30796">
        <ele>381.3</ele>
        <time>2025-06-16T14:15:38Z</time>
      </trkpt>
      <trkpt lat="45.9323" lon="1.30791">
        <ele>381.2</ele>
        <time>2025-06-16T14:15:39Z</time>
      </trkpt>
      <trkpt lat="45.93228" lon="1.30785">
        <ele>380.9</ele>
        <time>2025-06-16T14:15:40Z</time>
      </trkpt>
      <trkpt lat="45.93227" lon="1.3078">
        <ele>380.6</ele>
        <time>2025-06-16T14:15:41Z</time>
      </trkpt>
      <trkpt lat="45.93226" lon="1.30775">
        <ele>380.4</ele>
        <time>2025-06-16T14:15:42Z</time>
      </trkpt>
      <trkpt lat="45.93224" lon="1.30771">
        <ele>380.2</ele>
        <time>2025-06-16T14:15:43Z</time>
      </trkpt>
      <trkpt lat="45.93223" lon="1.30767">
        <ele>380</ele>
        <time>2025-06-16T14:15:44Z</time>
      </trkpt>
      <trkpt lat="45.93221" lon="1.30761">
        <ele>379.8</ele>
        <time>2025-06-16T14:15:45Z</time>
      </trkpt>
      <trkpt lat="45.93219" lon="1.30756">
        <ele>379.6</ele>
        <time>2025-06-16T14:15:46Z</time>
      </trkpt>
      <trkpt lat="45.93215" lon="1.30748">
        <ele>379.2</ele>
        <time>2025-06-16T14:15:47Z</time>
      </trkpt>
      <trkpt lat="45.93211" lon="1.3074">
        <ele>378.8</ele>
        <time>2025-06-16T14:15:48Z</time>
      </trkpt>
      <trkpt lat="45.93208" lon="1.30732">
        <ele>378.5</ele>
        <time>2025-06-16T14:15:49Z</time>
      </trkpt>
      <trkpt lat="45.93205" lon="1.30724">
        <ele>378.1</ele>
        <time>2025-06-16T14:15:50Z</time>
      </trkpt>
      <trkpt lat="45.93202" lon="1.30717">
        <ele>377.9</ele>
        <time>2025-06-16T14:15:51Z</time>
      </trkpt>
      <trkpt lat="45.93199" lon="1.3071">
        <ele>377.6</ele>
        <time>2025-06-16T14:15:52Z</time>
      </trkpt>
      <trkpt lat="45.93197" lon="1.30704">
        <ele>377.3</ele>
        <time>2025-06-16T14:15:53Z</time>
      </trkpt>
      <trkpt lat="45.93195" lon="1.30697">
        <ele>376.9</ele>
        <time>2025-06-16T14:15:54Z</time>
      </trkpt>
      <trkpt lat="45.93192" lon="1.30692">
        <ele>376.6</ele>
        <time>2025-06-16T14:15:55Z</time>
      </trkpt>
      <trkpt lat="45.93191" lon="1.30688">
        <ele>376.4</ele>
        <time>2025-06-16T14:15:56Z</time>
      </trkpt>
      <trkpt lat="45.93189" lon="1.30683">
        <ele>376.1</ele>
        <time>2025-06-16T14:15:57Z</time>
      </trkpt>
      <trkpt lat="45.93188" lon="1.30678">
        <ele>375.9</ele>
        <time>2025-06-16T14:15:58Z</time>
      </trkpt>
      <trkpt lat="45.93188" lon="1.30673">
        <ele>375.7</ele>
        <time>2025-06-16T14:15:59Z</time>
      </trkpt>
      <trkpt lat="45.93188" lon="1.30668">
        <ele>375.3</ele>
        <time>2025-06-16T14:16:00Z</time>
      </trkpt>
      <trkpt lat="45.93188" lon="1.30662">
        <ele>375.1</ele>
        <time>2025-06-16T14:16:01Z</time>
      </trkpt>
      <trkpt lat="45.93189" lon="1.30658">
        <ele>374.9</ele>
        <time>2025-06-16T14:16:02Z</time>
      </trkpt>
      <trkpt lat="45.93191" lon="1.30654">
        <ele>374.8</ele>
        <time>2025-06-16T14:16:03Z</time>
      </trkpt>
      <trkpt lat="45.93192" lon="1.30653">
        <ele>374.8</ele>
        <time>2025-06-16T14:16:04Z</time>
      </trkpt>
      <trkpt lat="45.93195" lon="1.30651">
        <ele>374.8</ele>
        <time>2025-06-16T14:16:05Z</time>
      </trkpt>
      <trkpt lat="45.93196" lon="1.30651">
        <ele>374.7</ele>
        <time>2025-06-16T14:16:06Z</time>
      </trkpt>
      <trkpt lat="45.93199" lon="1.30648">
        <ele>374.7</ele>
        <time>2025-06-16T14:16:07Z</time>
      </trkpt>
      <trkpt lat="45.93199" lon="1.30646">
        <ele>374.7</ele>
        <time>2025-06-16T14:16:08Z</time>
      </trkpt>
      <trkpt lat="45.93202" lon="1.30644">
        <ele>374.6</ele>
        <time>2025-06-16T14:16:09Z</time>
      </trkpt>
      <trkpt lat="45.93204" lon="1.3064">
        <ele>374.6</ele>
        <time>2025-06-16T14:16:10Z</time>
      </trkpt>
      <trkpt lat="45.93205" lon="1.30639">
        <ele>374.6</ele>
        <time>2025-06-16T14:16:11Z</time>
      </trkpt>
      <trkpt lat="45.93205" lon="1.30636">
        <ele>374.6</ele>
        <time>2025-06-16T14:16:12Z</time>
      </trkpt>
      <trkpt lat="45.93205" lon="1.30634">
        <ele>374.5</ele>
        <time>2025-06-16T14:16:13Z</time>
      </trkpt>
      <trkpt lat="45.93205" lon="1.30633">
        <ele>374.5</ele>
        <time>2025-06-16T14:16:14Z</time>
      </trkpt>
      <trkpt lat="45.93204" lon="1.30633">
        <ele>374.5</ele>
        <time>2025-06-16T14:16:15Z</time>
      </trkpt>
      <trkpt lat="45.93202" lon="1.30632">
        <ele>374.5</ele>
        <time>2025-06-16T14:16:16Z</time>
      </trkpt>
      <trkpt lat="45.93199" lon="1.30634">
        <ele>374.5</ele>
        <time>2025-06-16T14:16:17Z</time>
      </trkpt>
      <trkpt lat="45.93198" lon="1.30635">
        <ele>374.5</ele>
        <time>2025-06-16T14:16:18Z</time>
      </trkpt>
      <trkpt lat="45.93198" lon="1.3064">
        <ele>374.4</ele>
        <time>2025-06-16T14:16:19Z</time>
      </trkpt>
      <trkpt lat="45.93199" lon="1.30641">
        <ele>374.4</ele>
        <time>2025-06-16T14:16:20Z</time>
      </trkpt>
      <trkpt lat="45.93202" lon="1.30642">
        <ele>374.4</ele>
        <time>2025-06-16T14:16:21Z</time>
      </trkpt>
      <trkpt lat="45.93203" lon="1.30641">
        <ele>374.4</ele>
        <time>2025-06-16T14:16:22Z</time>
      </trkpt>
      <trkpt lat="45.93204" lon="1.3064">
        <ele>374.4</ele>
        <time>2025-06-16T14:16:23Z</time>
      </trkpt>
      <trkpt lat="45.93205" lon="1.30638">
        <ele>374.4</ele>
        <time>2025-06-16T14:16:24Z</time>
      </trkpt>
      <trkpt lat="45.93205" lon="1.30636">
        <ele>374.3</ele>
        <time>2025-06-16T14:16:25Z</time>
      </trkpt>
      <trkpt lat="45.93204" lon="1.30634">
        <ele>374.3</ele>
        <time>2025-06-16T14:16:26Z</time>
      </trkpt>
      <trkpt lat="45.93204" lon="1.30632">
        <ele>374.3</ele>
        <time>2025-06-16T14:16:27Z</time>
      </trkpt>
      <trkpt lat="45.93203" lon="1.30631">
        <ele>374.3</ele>
        <time>2025-06-16T14:16:28Z</time>
      </trkpt>
      <trkpt lat="45.93203" lon="1.3063">
        <ele>374.3</ele>
        <time>2025-06-16T14:16:29Z</time>
      </trkpt>
      <trkpt lat="45.93202" lon="1.30625">
        <ele>374.3</ele>
        <time>2025-06-16T14:16:30Z</time>
      </trkpt>
      <trkpt lat="45.93201" lon="1.30624">
        <ele>374.3</ele>
        <time>2025-06-16T14:16:31Z</time>
      </trkpt>
      <trkpt lat="45.93199" lon="1.3062">
        <ele>374.2</ele>
        <time>2025-06-16T14:16:32Z</time>
      </trkpt>
      <trkpt lat="45.93196" lon="1.30616">
        <ele>374.1</ele>
        <time>2025-06-16T14:16:33Z</time>
      </trkpt>
      <trkpt lat="45.93192" lon="1.30613">
        <ele>374</ele>
        <time>2025-06-16T14:16:34Z</time>
      </trkpt>
      <trkpt lat="45.93186" lon="1.30611">
        <ele>373.9</ele>
        <time>2025-06-16T14:16:35Z</time>
      </trkpt>
      <trkpt lat="45.93181" lon="1.30607">
        <ele>373.8</ele>
        <time>2025-06-16T14:16:36Z</time>
      </trkpt>
      <trkpt lat="45.93176" lon="1.30603">
        <ele>373.7</ele>
        <time>2025-06-16T14:16:37Z</time>
      </trkpt>
      <trkpt lat="45.93173" lon="1.30597">
        <ele>373.5</ele>
        <time>2025-06-16T14:16:38Z</time>
      </trkpt>
      <trkpt lat="45.9317" lon="1.3059">
        <ele>373.4</ele>
        <time>2025-06-16T14:16:39Z</time>
      </trkpt>
      <trkpt lat="45.93168" lon="1.30583">
        <ele>373.3</ele>
        <time>2025-06-16T14:16:40Z</time>
      </trkpt>
      <trkpt lat="45.93166" lon="1.30576">
        <ele>373.1</ele>
        <time>2025-06-16T14:16:41Z</time>
      </trkpt>
      <trkpt lat="45.93164" lon="1.30569">
        <ele>373</ele>
        <time>2025-06-16T14:16:42Z</time>
      </trkpt>
      <trkpt lat="45.93162" lon="1.30563">
        <ele>372.8</ele>
        <time>2025-06-16T14:16:43Z</time>
      </trkpt>
      <trkpt lat="45.93159" lon="1.30556">
        <ele>372.6</ele>
        <time>2025-06-16T14:16:44Z</time>
      </trkpt>
      <trkpt lat="45.93155" lon="1.30549">
        <ele>372.3</ele>
        <time>2025-06-16T14:16:45Z</time>
      </trkpt>
      <trkpt lat="45.93151" lon="1.30543">
        <ele>372.1</ele>
        <time>2025-06-16T14:16:46Z</time>
      </trkpt>
      <trkpt lat="45.93147" lon="1.30536">
        <ele>371.9</ele>
        <time>2025-06-16T14:16:47Z</time>
      </trkpt>
      <trkpt lat="45.93143" lon="1.30529">
        <ele>371.6</ele>
        <time>2025-06-16T14:16:48Z</time>
      </trkpt>
      <trkpt lat="45.93138" lon="1.30523">
        <ele>371.4</ele>
        <time>2025-06-16T14:16:49Z</time>
      </trkpt>
      <trkpt lat="45.93134" lon="1.30516">
        <ele>371.3</ele>
        <time>2025-06-16T14:16:50Z</time>
      </trkpt>
      <trkpt lat="45.9313" lon="1.30509">
        <ele>371.1</ele>
        <time>2025-06-16T14:16:51Z</time>
      </trkpt>
      <trkpt lat="45.93126" lon="1.30501">
        <ele>370.9</ele>
        <time>2025-06-16T14:16:52Z</time>
      </trkpt>
      <trkpt lat="45.93121" lon="1.30494">
        <ele>370.8</ele>
        <time>2025-06-16T14:16:53Z</time>
      </trkpt>
      <trkpt lat="45.93116" lon="1.30487">
        <ele>370.6</ele>
        <time>2025-06-16T14:16:54Z</time>
      </trkpt>
      <trkpt lat="45.93112" lon="1.3048">
        <ele>370.4</ele>
        <time>2025-06-16T14:16:55Z</time>
      </trkpt>
      <trkpt lat="45.93107" lon="1.30473">
        <ele>370.2</ele>
        <time>2025-06-16T14:16:56Z</time>
      </trkpt>
      <trkpt lat="45.93103" lon="1.30466">
        <ele>370.1</ele>
        <time>2025-06-16T14:16:57Z</time>
      </trkpt>
      <trkpt lat="45.93099" lon="1.30459">
        <ele>370</ele>
        <time>2025-06-16T14:16:58Z</time>
      </trkpt>
      <trkpt lat="45.93094" lon="1.30452">
        <ele>369.9</ele>
        <time>2025-06-16T14:16:59Z</time>
      </trkpt>
      <trkpt lat="45.9309" lon="1.30444">
        <ele>369.8</ele>
        <time>2025-06-16T14:17:00Z</time>
      </trkpt>
      <trkpt lat="45.93086" lon="1.30437">
        <ele>369.7</ele>
        <time>2025-06-16T14:17:01Z</time>
      </trkpt>
      <trkpt lat="45.93081" lon="1.3043">
        <ele>369.5</ele>
        <time>2025-06-16T14:17:02Z</time>
      </trkpt>
      <trkpt lat="45.93077" lon="1.30423">
        <ele>369.2</ele>
        <time>2025-06-16T14:17:03Z</time>
      </trkpt>
      <trkpt lat="45.93073" lon="1.30417">
        <ele>368.9</ele>
        <time>2025-06-16T14:17:04Z</time>
      </trkpt>
      <trkpt lat="45.93069" lon="1.30411">
        <ele>368.6</ele>
        <time>2025-06-16T14:17:05Z</time>
      </trkpt>
      <trkpt lat="45.93065" lon="1.30405">
        <ele>368.3</ele>
        <time>2025-06-16T14:17:06Z</time>
      </trkpt>
      <trkpt lat="45.93062" lon="1.304">
        <ele>368.1</ele>
        <time>2025-06-16T14:17:07Z</time>
      </trkpt>
      <trkpt lat="45.93058" lon="1.30396">
        <ele>367.9</ele>
        <time>2025-06-16T14:17:08Z</time>
      </trkpt>
      <trkpt lat="45.93056" lon="1.30392">
        <ele>367.7</ele>
        <time>2025-06-16T14:17:09Z</time>
      </trkpt>
      <trkpt lat="45.93054" lon="1.30388">
        <ele>367.8</ele>
        <time>2025-06-16T14:17:10Z</time>
      </trkpt>
      <trkpt lat="45.93054" lon="1.30384">
        <ele>367.8</ele>
        <time>2025-06-16T14:17:11Z</time>
      </trkpt>
      <trkpt lat="45.93055" lon="1.30379">
        <ele>367.9</ele>
        <time>2025-06-16T14:17:12Z</time>
      </trkpt>
      <trkpt lat="45.93055" lon="1.30378">
        <ele>367.9</ele>
        <time>2025-06-16T14:17:13Z</time>
      </trkpt>
      <trkpt lat="45.93057" lon="1.30373">
        <ele>368</ele>
        <time>2025-06-16T14:17:14Z</time>
      </trkpt>
      <trkpt lat="45.93058" lon="1.30372">
        <ele>368</ele>
        <time>2025-06-16T14:17:15Z</time>
      </trkpt>
      <trkpt lat="45.9306" lon="1.30368">
        <ele>368</ele>
        <time>2025-06-16T14:17:16Z</time>
      </trkpt>
      <trkpt lat="45.93063" lon="1.30367">
        <ele>368.1</ele>
        <time>2025-06-16T14:17:17Z</time>
      </trkpt>
      <trkpt lat="45.93067" lon="1.30366">
        <ele>368.1</ele>
        <time>2025-06-16T14:17:18Z</time>
      </trkpt>
      <trkpt lat="45.9307" lon="1.30365">
        <ele>368.2</ele>
        <time>2025-06-16T14:17:19Z</time>
      </trkpt>
      <trkpt lat="45.93072" lon="1.30365">
        <ele>368.2</ele>
        <time>2025-06-16T14:17:20Z</time>
      </trkpt>
      <trkpt lat="45.93076" lon="1.30365">
        <ele>368.2</ele>
        <time>2025-06-16T14:17:21Z</time>
      </trkpt>
      <trkpt lat="45.93078" lon="1.30365">
        <ele>368.2</ele>
        <time>2025-06-16T14:17:22Z</time>
      </trkpt>
      <trkpt lat="45.93081" lon="1.30364">
        <ele>368.1</ele>
        <time>2025-06-16T14:17:23Z</time>
      </trkpt>
      <trkpt lat="45.93083" lon="1.30364">
        <ele>368.1</ele>
        <time>2025-06-16T14:17:24Z</time>
      </trkpt>
      <trkpt lat="45.93086" lon="1.30363">
        <ele>368.1</ele>
        <time>2025-06-16T14:17:25Z</time>
      </trkpt>
      <trkpt lat="45.93089" lon="1.30362">
        <ele>368</ele>
        <time>2025-06-16T14:17:26Z</time>
      </trkpt>
      <trkpt lat="45.93092" lon="1.30361">
        <ele>367.9</ele>
        <time>2025-06-16T14:17:27Z</time>
      </trkpt>
      <trkpt lat="45.93093" lon="1.30361">
        <ele>367.9</ele>
        <time>2025-06-16T14:17:28Z</time>
      </trkpt>
      <trkpt lat="45.93096" lon="1.30361">
        <ele>367.8</ele>
        <time>2025-06-16T14:17:29Z</time>
      </trkpt>
      <trkpt lat="45.93097" lon="1.30361">
        <ele>367.7</ele>
        <time>2025-06-16T14:17:30Z</time>
      </trkpt>
      <trkpt lat="45.931" lon="1.30362">
        <ele>367.6</ele>
        <time>2025-06-16T14:17:31Z</time>
      </trkpt>
      <trkpt lat="45.93101" lon="1.30362">
        <ele>367.5</ele>
        <time>2025-06-16T14:17:32Z</time>
      </trkpt>
      <trkpt lat="45.93104" lon="1.30362">
        <ele>367.4</ele>
        <time>2025-06-16T14:17:33Z</time>
      </trkpt>
      <trkpt lat="45.93108" lon="1.30362">
        <ele>367.2</ele>
        <time>2025-06-16T14:17:34Z</time>
      </trkpt>
      <trkpt lat="45.93109" lon="1.30362">
        <ele>367.1</ele>
        <time>2025-06-16T14:17:35Z</time>
      </trkpt>
      <trkpt lat="45.93112" lon="1.3036">
        <ele>367</ele>
        <time>2025-06-16T14:17:36Z</time>
      </trkpt>
      <trkpt lat="45.93115" lon="1.30358">
        <ele>366.8</ele>
        <time>2025-06-16T14:17:37Z</time>
      </trkpt>
      <trkpt lat="45.93118" lon="1.30357">
        <ele>366.6</ele>
        <time>2025-06-16T14:17:38Z</time>
      </trkpt>
      <trkpt lat="45.93122" lon="1.30356">
        <ele>366.5</ele>
        <time>2025-06-16T14:17:39Z</time>
      </trkpt>
      <trkpt lat="45.93126" lon="1.30355">
        <ele>366.3</ele>
        <time>2025-06-16T14:17:40Z</time>
      </trkpt>
      <trkpt lat="45.9313" lon="1.30355">
        <ele>366.2</ele>
        <time>2025-06-16T14:17:41Z</time>
      </trkpt>
      <trkpt lat="45.93134" lon="1.30355">
        <ele>366</ele>
        <time>2025-06-16T14:17:42Z</time>
      </trkpt>
      <trkpt lat="45.93137" lon="1.30354">
        <ele>365.9</ele>
        <time>2025-06-16T14:17:43Z</time>
      </trkpt>
      <trkpt lat="45.93139" lon="1.30354">
        <ele>365.8</ele>
        <time>2025-06-16T14:17:44Z</time>
      </trkpt>
      <trkpt lat="45.9314" lon="1.30354">
        <ele>365.7</ele>
        <time>2025-06-16T14:17:45Z</time>
      </trkpt>
      <trkpt lat="45.93143" lon="1.30354">
        <ele>365.6</ele>
        <time>2025-06-16T14:17:46Z</time>
      </trkpt>
      <trkpt lat="45.93146" lon="1.30353">
        <ele>365.4</ele>
        <time>2025-06-16T14:17:47Z</time>
      </trkpt>
      <trkpt lat="45.93147" lon="1.30352">
        <ele>365.4</ele>
        <time>2025-06-16T14:17:48Z</time>
      </trkpt>
      <trkpt lat="45.93148" lon="1.3035">
        <ele>365.5</ele>
        <time>2025-06-16T14:17:49Z</time>
      </trkpt>
      <trkpt lat="45.93149" lon="1.30349">
        <ele>365.7</ele>
        <time>2025-06-16T14:17:50Z</time>
      </trkpt>
      <trkpt lat="45.9315" lon="1.30348">
        <ele>365.8</ele>
        <time>2025-06-16T14:17:51Z</time>
      </trkpt>
      <trkpt lat="45.93151" lon="1.30347">
        <ele>366</ele>
        <time>2025-06-16T14:17:52Z</time>
      </trkpt>
      <trkpt lat="45.93151" lon="1.30345">
        <ele>366.1</ele>
        <time>2025-06-16T14:17:53Z</time>
      </trkpt>
      <trkpt lat="45.93151" lon="1.30343">
        <ele>366.3</ele>
        <time>2025-06-16T14:17:54Z</time>
      </trkpt>
      <trkpt lat="45.93152" lon="1.30341">
        <ele>366.4</ele>
        <time>2025-06-16T14:17:55Z</time>
      </trkpt>
      <trkpt lat="45.93152" lon="1.3034">
        <ele>366.6</ele>
        <time>2025-06-16T14:17:56Z</time>
      </trkpt>
      <trkpt lat="45.93152" lon="1.30338">
        <ele>366.7</ele>
        <time>2025-06-16T14:17:57Z</time>
      </trkpt>
      <trkpt lat="45.93152" lon="1.30338">
        <ele>366.9</ele>
        <time>2025-06-16T14:17:58Z</time>
      </trkpt>
      <trkpt lat="45.93152" lon="1.30337">
        <ele>367</ele>
        <time>2025-06-16T14:17:59Z</time>
      </trkpt>
      <trkpt lat="45.93152" lon="1.30336">
        <ele>367.2</ele>
        <time>2025-06-16T14:18:00Z</time>
      </trkpt>
      <trkpt lat="45.93152" lon="1.30336">
        <ele>367.3</ele>
        <time>2025-06-16T14:18:01Z</time>
      </trkpt>
      <trkpt lat="45.93152" lon="1.30335">
        <ele>367.5</ele>
        <time>2025-06-16T14:18:02Z</time>
      </trkpt>
      <trkpt lat="45.93152" lon="1.30334">
        <ele>367.6</ele>
        <time>2025-06-16T14:18:03Z</time>
      </trkpt>
      <trkpt lat="45.93152" lon="1.30334">
        <ele>367.8</ele>
        <time>2025-06-16T14:18:04Z</time>
      </trkpt>
      <trkpt lat="45.93152" lon="1.30332">
        <ele>367.9</ele>
        <time>2025-06-16T14:18:05Z</time>
      </trkpt>
      <trkpt lat="45.93151" lon="1.30329">
        <ele>368.1</ele>
        <time>2025-06-16T14:18:06Z</time>
      </trkpt>
      <trkpt lat="45.93151" lon="1.30325">
        <ele>368.3</ele>
        <time>2025-06-16T14:18:07Z</time>
      </trkpt>
      <trkpt lat="45.9315" lon="1.30324">
        <ele>368.4</ele>
        <time>2025-06-16T14:18:08Z</time>
      </trkpt>
      <trkpt lat="45.93151" lon="1.30318">
        <ele>368.6</ele>
        <time>2025-06-16T14:18:09Z</time>
      </trkpt>
      <trkpt lat="45.93151" lon="1.30316">
        <ele>368.7</ele>
        <time>2025-06-16T14:18:10Z</time>
      </trkpt>
      <trkpt lat="45.93151" lon="1.30311">
        <ele>368.8</ele>
        <time>2025-06-16T14:18:11Z</time>
      </trkpt>
      <trkpt lat="45.93151" lon="1.30311">
        <ele>369</ele>
        <time>2025-06-16T14:18:12Z</time>
      </trkpt>
      <trkpt lat="45.93151" lon="1.30307">
        <ele>369.1</ele>
        <time>2025-06-16T14:18:13Z</time>
      </trkpt>
      <trkpt lat="45.93151" lon="1.30305">
        <ele>369.3</ele>
        <time>2025-06-16T14:18:14Z</time>
      </trkpt>
      <trkpt lat="45.93151" lon="1.303">
        <ele>369.4</ele>
        <time>2025-06-16T14:18:15Z</time>
      </trkpt>
      <trkpt lat="45.93151" lon="1.30298">
        <ele>369.6</ele>
        <time>2025-06-16T14:18:16Z</time>
      </trkpt>
      <trkpt lat="45.93151" lon="1.30296">
        <ele>369.7</ele>
        <time>2025-06-16T14:18:17Z</time>
      </trkpt>
      <trkpt lat="45.93151" lon="1.30294">
        <ele>369.9</ele>
        <time>2025-06-16T14:18:18Z</time>
      </trkpt>
      <trkpt lat="45.93151" lon="1.30292">
        <ele>370</ele>
        <time>2025-06-16T14:18:19Z</time>
      </trkpt>
      <trkpt lat="45.93151" lon="1.30291">
        <ele>370.2</ele>
        <time>2025-06-16T14:18:20Z</time>
      </trkpt>
      <trkpt lat="45.9315" lon="1.3029">
        <ele>370.3</ele>
        <time>2025-06-16T14:18:21Z</time>
      </trkpt>
      <trkpt lat="45.9315" lon="1.30289">
        <ele>370.5</ele>
        <time>2025-06-16T14:18:22Z</time>
      </trkpt>
      <trkpt lat="45.9315" lon="1.30289">
        <ele>370.6</ele>
        <time>2025-06-16T14:18:23Z</time>
      </trkpt>
      <trkpt lat="45.9315" lon="1.30288">
        <ele>370.8</ele>
        <time>2025-06-16T14:18:24Z</time>
      </trkpt>
      <trkpt lat="45.9315" lon="1.30287">
        <ele>371</ele>
        <time>2025-06-16T14:18:25Z</time>
      </trkpt>
      <trkpt lat="45.9315" lon="1.30287">
        <ele>371.1</ele>
        <time>2025-06-16T14:18:26Z</time>
      </trkpt>
      <trkpt lat="45.9315" lon="1.30286">
        <ele>371.2</ele>
        <time>2025-06-16T14:18:27Z</time>
      </trkpt>
      <trkpt lat="45.9315" lon="1.30286">
        <ele>371.4</ele>
        <time>2025-06-16T14:18:28Z</time>
      </trkpt>
      <trkpt lat="45.9315" lon="1.30285">
        <ele>371.6</ele>
        <time>2025-06-16T14:18:29Z</time>
      </trkpt>
      <trkpt lat="45.9315" lon="1.30285">
        <ele>371.7</ele>
        <time>2025-06-16T14:18:30Z</time>
      </trkpt>
      <trkpt lat="45.93151" lon="1.30284">
        <ele>371.9</ele>
        <time>2025-06-16T14:18:31Z</time>
      </trkpt>
      <trkpt lat="45.93151" lon="1.30283">
        <ele>372</ele>
        <time>2025-06-16T14:18:32Z</time>
      </trkpt>
      <trkpt lat="45.93152" lon="1.30282">
        <ele>372.2</ele>
        <time>2025-06-16T14:18:33Z</time>
      </trkpt>
      <trkpt lat="45.93152" lon="1.3028">
        <ele>372.3</ele>
        <time>2025-06-16T14:18:34Z</time>
      </trkpt>
      <trkpt lat="45.93152" lon="1.30279">
        <ele>372.5</ele>
        <time>2025-06-16T14:18:35Z</time>
      </trkpt>
      <trkpt lat="45.93152" lon="1.30278">
        <ele>372.6</ele>
        <time>2025-06-16T14:18:36Z</time>
      </trkpt>
      <trkpt lat="45.93152" lon="1.30277">
        <ele>372.8</ele>
        <time>2025-06-16T14:18:37Z</time>
      </trkpt>
      <trkpt lat="45.93151" lon="1.30276">
        <ele>372.9</ele>
        <time>2025-06-16T14:18:38Z</time>
      </trkpt>
      <trkpt lat="45.93151" lon="1.30276">
        <ele>373.1</ele>
        <time>2025-06-16T14:18:39Z</time>
      </trkpt>
      <trkpt lat="45.93151" lon="1.30275">
        <ele>373.2</ele>
        <time>2025-06-16T14:18:40Z</time>
      </trkpt>
      <trkpt lat="45.93151" lon="1.30275">
        <ele>373.2</ele>
        <time>2025-06-16T14:18:41Z</time>
      </trkpt>
      <trkpt lat="45.9315" lon="1.30274">
        <ele>373.2</ele>
        <time>2025-06-16T14:18:42Z</time>
      </trkpt>
      <trkpt lat="45.93148" lon="1.30271">
        <ele>373</ele>
        <time>2025-06-16T14:18:43Z</time>
      </trkpt>
      <trkpt lat="45.93147" lon="1.3027">
        <ele>373</ele>
        <time>2025-06-16T14:18:44Z</time>
      </trkpt>
      <trkpt lat="45.93145" lon="1.30267">
        <ele>372.8</ele>
        <time>2025-06-16T14:18:45Z</time>
      </trkpt>
      <trkpt lat="45.93144" lon="1.30266">
        <ele>372.7</ele>
        <time>2025-06-16T14:18:46Z</time>
      </trkpt>
      <trkpt lat="45.93141" lon="1.30265">
        <ele>372.6</ele>
        <time>2025-06-16T14:18:47Z</time>
      </trkpt>
      <trkpt lat="45.9314" lon="1.30265">
        <ele>372.5</ele>
        <time>2025-06-16T14:18:48Z</time>
      </trkpt>
      <trkpt lat="45.93137" lon="1.30264">
        <ele>372.3</ele>
        <time>2025-06-16T14:18:49Z</time>
      </trkpt>
      <trkpt lat="45.93136" lon="1.30263">
        <ele>372.2</ele>
        <time>2025-06-16T14:18:50Z</time>
      </trkpt>
      <trkpt lat="45.93132" lon="1.30262">
        <ele>372</ele>
        <time>2025-06-16T14:18:51Z</time>
      </trkpt>
      <trkpt lat="45.93131" lon="1.30261">
        <ele>371.9</ele>
        <time>2025-06-16T14:18:52Z</time>
      </trkpt>
      <trkpt lat="45.93128" lon="1.3026">
        <ele>371.7</ele>
        <time>2025-06-16T14:18:53Z</time>
      </trkpt>
      <trkpt lat="45.93125" lon="1.30259">
        <ele>371.5</ele>
        <time>2025-06-16T14:18:54Z</time>
      </trkpt>
      <trkpt lat="45.93124" lon="1.30259">
        <ele>371.4</ele>
        <time>2025-06-16T14:18:55Z</time>
      </trkpt>
      <trkpt lat="45.93121" lon="1.30258">
        <ele>371.2</ele>
        <time>2025-06-16T14:18:56Z</time>
      </trkpt>
      <trkpt lat="45.93119" lon="1.30258">
        <ele>371.1</ele>
        <time>2025-06-16T14:18:57Z</time>
      </trkpt>
      <trkpt lat="45.93118" lon="1.30258">
        <ele>371</ele>
        <time>2025-06-16T14:18:58Z</time>
      </trkpt>
      <trkpt lat="45.93117" lon="1.30258">
        <ele>371</ele>
        <time>2025-06-16T14:18:59Z</time>
      </trkpt>
      <trkpt lat="45.93116" lon="1.30259">
        <ele>371</ele>
        <time>2025-06-16T14:19:00Z</time>
      </trkpt>
      <trkpt lat="45.93115" lon="1.30259">
        <ele>370.9</ele>
        <time>2025-06-16T14:19:01Z</time>
      </trkpt>
      <trkpt lat="45.93115" lon="1.30259">
        <ele>370.9</ele>
        <time>2025-06-16T14:19:02Z</time>
      </trkpt>
      <trkpt lat="45.93115" lon="1.30259">
        <ele>370.9</ele>
        <time>2025-06-16T14:19:03Z</time>
      </trkpt>
      <trkpt lat="45.93114" lon="1.3026">
        <ele>370.9</ele>
        <time>2025-06-16T14:19:04Z</time>
      </trkpt>
      <trkpt lat="45.93114" lon="1.3026">
        <ele>370.9</ele>
        <time>2025-06-16T14:19:05Z</time>
      </trkpt>
      <trkpt lat="45.93114" lon="1.3026">
        <ele>370.8</ele>
        <time>2025-06-16T14:19:06Z</time>
      </trkpt>
      <trkpt lat="45.93113" lon="1.3026">
        <ele>370.8</ele>
        <time>2025-06-16T14:19:07Z</time>
      </trkpt>
      <trkpt lat="45.93113" lon="1.30261">
        <ele>370.8</ele>
        <time>2025-06-16T14:19:08Z</time>
      </trkpt>
      <trkpt lat="45.9311" lon="1.30263">
        <ele>370.7</ele>
        <time>2025-06-16T14:19:09Z</time>
      </trkpt>
      <trkpt lat="45.93109" lon="1.30264">
        <ele>370.6</ele>
        <time>2025-06-16T14:19:10Z</time>
      </trkpt>
      <trkpt lat="45.93106" lon="1.30266">
        <ele>370.5</ele>
        <time>2025-06-16T14:19:11Z</time>
      </trkpt>
      <trkpt lat="45.93105" lon="1.30267">
        <ele>370.5</ele>
        <time>2025-06-16T14:19:12Z</time>
      </trkpt>
      <trkpt lat="45.93103" lon="1.30268">
        <ele>370.4</ele>
        <time>2025-06-16T14:19:13Z</time>
      </trkpt>
      <trkpt lat="45.93102" lon="1.30269">
        <ele>370.4</ele>
        <time>2025-06-16T14:19:14Z</time>
      </trkpt>
      <trkpt lat="45.93101" lon="1.30269">
        <ele>370.3</ele>
        <time>2025-06-16T14:19:15Z</time>
      </trkpt>
      <trkpt lat="45.931" lon="1.3027">
        <ele>370.3</ele>
        <time>2025-06-16T14:19:16Z</time>
      </trkpt>
      <trkpt lat="45.931" lon="1.30271">
        <ele>370.3</ele>
        <time>2025-06-16T14:19:17Z</time>
      </trkpt>
      <trkpt lat="45.93099" lon="1.30271">
        <ele>370.3</ele>
        <time>2025-06-16T14:19:18Z</time>
      </trkpt>
      <trkpt lat="45.93099" lon="1.30271">
        <ele>370.3</ele>
        <time>2025-06-16T14:19:19Z</time>
      </trkpt>
      <trkpt lat="45.93099" lon="1.30272">
        <ele>370.3</ele>
        <time>2025-06-16T14:19:20Z</time>
      </trkpt>
      <trkpt lat="45.93099" lon="1.30272">
        <ele>370.2</ele>
        <time>2025-06-16T14:19:21Z</time>
      </trkpt>
      <trkpt lat="45.93098" lon="1.30272">
        <ele>370.2</ele>
        <time>2025-06-16T14:19:22Z</time>
      </trkpt>
      <trkpt lat="45.93098" lon="1.30272">
        <ele>370.2</ele>
        <time>2025-06-16T14:19:23Z</time>
      </trkpt>
      <trkpt lat="45.93098" lon="1.30272">
        <ele>370.2</ele>
        <time>2025-06-16T14:19:24Z</time>
      </trkpt>
      <trkpt lat="45.93098" lon="1.30273">
        <ele>370.2</ele>
        <time>2025-06-16T14:19:25Z</time>
      </trkpt>
      <trkpt lat="45.93098" lon="1.30273">
        <ele>370.2</ele>
        <time>2025-06-16T14:19:26Z</time>
      </trkpt>
      <trkpt lat="45.93097" lon="1.30273">
        <ele>370.2</ele>
        <time>2025-06-16T14:19:27Z</time>
      </trkpt>
      <trkpt lat="45.93097" lon="1.30273">
        <ele>370.2</ele>
        <time>2025-06-16T14:19:28Z</time>
      </trkpt>
      <trkpt lat="45.93097" lon="1.30273">
        <ele>370.2</ele>
        <time>2025-06-16T14:19:29Z</time>
      </trkpt>
      <trkpt lat="45.93097" lon="1.30273">
        <ele>370.2</ele>
        <time>2025-06-16T14:19:30Z</time>
      </trkpt>
      <trkpt lat="45.93097" lon="1.30274">
        <ele>370.2</ele>
        <time>2025-06-16T14:19:31Z</time>
      </trkpt>
      <trkpt lat="45.93096" lon="1.30274">
        <ele>370.2</ele>
        <time>2025-06-16T14:19:32Z</time>
      </trkpt>
      <trkpt lat="45.93096" lon="1.30274">
        <ele>370.2</ele>
        <time>2025-06-16T14:19:33Z</time>
      </trkpt>
      <trkpt lat="45.93096" lon="1.30274">
        <ele>370.1</ele>
        <time>2025-06-16T14:19:34Z</time>
      </trkpt>
      <trkpt lat="45.93093" lon="1.30275">
        <ele>370</ele>
        <time>2025-06-16T14:19:35Z</time>
      </trkpt>
      <trkpt lat="45.93092" lon="1.30276">
        <ele>370</ele>
        <time>2025-06-16T14:19:36Z</time>
      </trkpt>
      <trkpt lat="45.93088" lon="1.30278">
        <ele>369.9</ele>
        <time>2025-06-16T14:19:37Z</time>
      </trkpt>
      <trkpt lat="45.93087" lon="1.30278">
        <ele>369.9</ele>
        <time>2025-06-16T14:19:38Z</time>
      </trkpt>
      <trkpt lat="45.93083" lon="1.30279">
        <ele>369.7</ele>
        <time>2025-06-16T14:19:39Z</time>
      </trkpt>
      <trkpt lat="45.93082" lon="1.30279">
        <ele>369.7</ele>
        <time>2025-06-16T14:19:40Z</time>
      </trkpt>
      <trkpt lat="45.93079" lon="1.3028">
        <ele>369.6</ele>
        <time>2025-06-16T14:19:41Z</time>
      </trkpt>
      <trkpt lat="45.93076" lon="1.30281">
        <ele>369.5</ele>
        <time>2025-06-16T14:19:42Z</time>
      </trkpt>
      <trkpt lat="45.93075" lon="1.30281">
        <ele>369.5</ele>
        <time>2025-06-16T14:19:43Z</time>
      </trkpt>
      <trkpt lat="45.93072" lon="1.30281">
        <ele>369.4</ele>
        <time>2025-06-16T14:19:44Z</time>
      </trkpt>
      <trkpt lat="45.9307" lon="1.30281">
        <ele>369.3</ele>
        <time>2025-06-16T14:19:45Z</time>
      </trkpt>
      <trkpt lat="45.93066" lon="1.30281">
        <ele>369.2</ele>
        <time>2025-06-16T14:19:46Z</time>
      </trkpt>
      <trkpt lat="45.93065" lon="1.30281">
        <ele>369.1</ele>
        <time>2025-06-16T14:19:47Z</time>
      </trkpt>
      <trkpt lat="45.93062" lon="1.30282">
        <ele>369</ele>
        <time>2025-06-16T14:19:48Z</time>
      </trkpt>
      <trkpt lat="45.93058" lon="1.30282">
        <ele>368.9</ele>
        <time>2025-06-16T14:19:49Z</time>
      </trkpt>
      <trkpt lat="45.93055" lon="1.30284">
        <ele>368.8</ele>
        <time>2025-06-16T14:19:50Z</time>
      </trkpt>
      <trkpt lat="45.93053" lon="1.30285">
        <ele>368.7</ele>
        <time>2025-06-16T14:19:51Z</time>
      </trkpt>
      <trkpt lat="45.93049" lon="1.30286">
        <ele>368.6</ele>
        <time>2025-06-16T14:19:52Z</time>
      </trkpt>
      <trkpt lat="45.93048" lon="1.30286">
        <ele>368.6</ele>
        <time>2025-06-16T14:19:53Z</time>
      </trkpt>
      <trkpt lat="45.93044" lon="1.30286">
        <ele>368.4</ele>
        <time>2025-06-16T14:19:54Z</time>
      </trkpt>
      <trkpt lat="45.93043" lon="1.30286">
        <ele>368.4</ele>
        <time>2025-06-16T14:19:55Z</time>
      </trkpt>
      <trkpt lat="45.9304" lon="1.30285">
        <ele>368.3</ele>
        <time>2025-06-16T14:19:56Z</time>
      </trkpt>
      <trkpt lat="45.93039" lon="1.30285">
        <ele>368.3</ele>
        <time>2025-06-16T14:19:57Z</time>
      </trkpt>
      <trkpt lat="45.93036" lon="1.30285">
        <ele>368.2</ele>
        <time>2025-06-16T14:19:58Z</time>
      </trkpt>
      <trkpt lat="45.93033" lon="1.30285">
        <ele>368</ele>
        <time>2025-06-16T14:19:59Z</time>
      </trkpt>
      <trkpt lat="45.93032" lon="1.30285">
        <ele>368</ele>
        <time>2025-06-16T14:20:00Z</time>
      </trkpt>
      <trkpt lat="45.9303" lon="1.30286">
        <ele>367.9</ele>
        <time>2025-06-16T14:20:01Z</time>
      </trkpt>
      <trkpt lat="45.93028" lon="1.30287">
        <ele>367.9</ele>
        <time>2025-06-16T14:20:02Z</time>
      </trkpt>
      <trkpt lat="45.93025" lon="1.30288">
        <ele>367.8</ele>
        <time>2025-06-16T14:20:03Z</time>
      </trkpt>
      <trkpt lat="45.93024" lon="1.30288">
        <ele>367.7</ele>
        <time>2025-06-16T14:20:04Z</time>
      </trkpt>
      <trkpt lat="45.93023" lon="1.30288">
        <ele>367.7</ele>
        <time>2025-06-16T14:20:05Z</time>
      </trkpt>
      <trkpt lat="45.93021" lon="1.30289">
        <ele>367.6</ele>
        <time>2025-06-16T14:20:06Z</time>
      </trkpt>
      <trkpt lat="45.9302" lon="1.30289">
        <ele>367.5</ele>
        <time>2025-06-16T14:20:07Z</time>
      </trkpt>
      <trkpt lat="45.93018" lon="1.30288">
        <ele>367.5</ele>
        <time>2025-06-16T14:20:08Z</time>
      </trkpt>
      <trkpt lat="45.93014" lon="1.30287">
        <ele>367.3</ele>
        <time>2025-06-16T14:20:09Z</time>
      </trkpt>
      <trkpt lat="45.93013" lon="1.30287">
        <ele>367.2</ele>
        <time>2025-06-16T14:20:10Z</time>
      </trkpt>
      <trkpt lat="45.9301" lon="1.30286">
        <ele>367.1</ele>
        <time>2025-06-16T14:20:11Z</time>
      </trkpt>
      <trkpt lat="45.93009" lon="1.30285">
        <ele>367</ele>
        <time>2025-06-16T14:20:12Z</time>
      </trkpt>
      <trkpt lat="45.93006" lon="1.30283">
        <ele>366.9</ele>
        <time>2025-06-16T14:20:13Z</time>
      </trkpt>
      <trkpt lat="45.93005" lon="1.30282">
        <ele>366.9</ele>
        <time>2025-06-16T14:20:14Z</time>
      </trkpt>
      <trkpt lat="45.93002" lon="1.30279">
        <ele>366.7</ele>
        <time>2025-06-16T14:20:15Z</time>
      </trkpt>
      <trkpt lat="45.93001" lon="1.30278">
        <ele>366.7</ele>
        <time>2025-06-16T14:20:16Z</time>
      </trkpt>
      <trkpt lat="45.92999" lon="1.30275">
        <ele>366.6</ele>
        <time>2025-06-16T14:20:17Z</time>
      </trkpt>
      <trkpt lat="45.92997" lon="1.30273">
        <ele>366.6</ele>
        <time>2025-06-16T14:20:18Z</time>
      </trkpt>
      <trkpt lat="45.92996" lon="1.30271">
        <ele>366.6</ele>
        <time>2025-06-16T14:20:19Z</time>
      </trkpt>
      <trkpt lat="45.92995" lon="1.30269">
        <ele>366.5</ele>
        <time>2025-06-16T14:20:20Z</time>
      </trkpt>
      <trkpt lat="45.92994" lon="1.30268">
        <ele>366.5</ele>
        <time>2025-06-16T14:20:21Z</time>
      </trkpt>
      <trkpt lat="45.92994" lon="1.30266">
        <ele>366.5</ele>
        <time>2025-06-16T14:20:22Z</time>
      </trkpt>
      <trkpt lat="45.92993" lon="1.30264">
        <ele>366.5</ele>
        <time>2025-06-16T14:20:23Z</time>
      </trkpt>
      <trkpt lat="45.92991" lon="1.3026">
        <ele>366.4</ele>
        <time>2025-06-16T14:20:24Z</time>
      </trkpt>
      <trkpt lat="45.92991" lon="1.30258">
        <ele>366.4</ele>
        <time>2025-06-16T14:20:25Z</time>
      </trkpt>
      <trkpt lat="45.92989" lon="1.30255">
        <ele>366.3</ele>
        <time>2025-06-16T14:20:26Z</time>
      </trkpt>
      <trkpt lat="45.92988" lon="1.30251">
        <ele>366.2</ele>
        <time>2025-06-16T14:20:27Z</time>
      </trkpt>
      <trkpt lat="45.92986" lon="1.30246">
        <ele>366.2</ele>
        <time>2025-06-16T14:20:28Z</time>
      </trkpt>
      <trkpt lat="45.92986" lon="1.30245">
        <ele>366.2</ele>
        <time>2025-06-16T14:20:29Z</time>
      </trkpt>
      <trkpt lat="45.92984" lon="1.30241">
        <ele>366.1</ele>
        <time>2025-06-16T14:20:30Z</time>
      </trkpt>
      <trkpt lat="45.92983" lon="1.30239">
        <ele>366</ele>
        <time>2025-06-16T14:20:31Z</time>
      </trkpt>
      <trkpt lat="45.92981" lon="1.30235">
        <ele>365.9</ele>
        <time>2025-06-16T14:20:32Z</time>
      </trkpt>
      <trkpt lat="45.92978" lon="1.3023">
        <ele>365.8</ele>
        <time>2025-06-16T14:20:33Z</time>
      </trkpt>
      <trkpt lat="45.92975" lon="1.30225">
        <ele>365.6</ele>
        <time>2025-06-16T14:20:34Z</time>
      </trkpt>
      <trkpt lat="45.92971" lon="1.30217">
        <ele>365.3</ele>
        <time>2025-06-16T14:20:35Z</time>
      </trkpt>
      <trkpt lat="45.92967" lon="1.3021">
        <ele>364.9</ele>
        <time>2025-06-16T14:20:36Z</time>
      </trkpt>
      <trkpt lat="45.92964" lon="1.30203">
        <ele>364.6</ele>
        <time>2025-06-16T14:20:37Z</time>
      </trkpt>
      <trkpt lat="45.92961" lon="1.30197">
        <ele>364.3</ele>
        <time>2025-06-16T14:20:38Z</time>
      </trkpt>
      <trkpt lat="45.92957" lon="1.30191">
        <ele>363.9</ele>
        <time>2025-06-16T14:20:39Z</time>
      </trkpt>
      <trkpt lat="45.92954" lon="1.30184">
        <ele>363.7</ele>
        <time>2025-06-16T14:20:40Z</time>
      </trkpt>
      <trkpt lat="45.92951" lon="1.30177">
        <ele>363.4</ele>
        <time>2025-06-16T14:20:41Z</time>
      </trkpt>
      <trkpt lat="45.92947" lon="1.30168">
        <ele>363.1</ele>
        <time>2025-06-16T14:20:42Z</time>
      </trkpt>
      <trkpt lat="45.92942" lon="1.3016">
        <ele>363</ele>
        <time>2025-06-16T14:20:43Z</time>
      </trkpt>
      <trkpt lat="45.9294" lon="1.30153">
        <ele>362.9</ele>
        <time>2025-06-16T14:20:44Z</time>
      </trkpt>
      <trkpt lat="45.9294" lon="1.30145">
        <ele>362.9</ele>
        <time>2025-06-16T14:20:45Z</time>
      </trkpt>
      <trkpt lat="45.9294" lon="1.30137">
        <ele>363</ele>
        <time>2025-06-16T14:20:46Z</time>
      </trkpt>
      <trkpt lat="45.92941" lon="1.30131">
        <ele>363.1</ele>
        <time>2025-06-16T14:20:47Z</time>
      </trkpt>
      <trkpt lat="45.92941" lon="1.30127">
        <ele>363.1</ele>
        <time>2025-06-16T14:20:48Z</time>
      </trkpt>
      <trkpt lat="45.92942" lon="1.30121">
        <ele>363.2</ele>
        <time>2025-06-16T14:20:49Z</time>
      </trkpt>
      <trkpt lat="45.92942" lon="1.30119">
        <ele>363.3</ele>
        <time>2025-06-16T14:20:50Z</time>
      </trkpt>
      <trkpt lat="45.92942" lon="1.30114">
        <ele>363.4</ele>
        <time>2025-06-16T14:20:51Z</time>
      </trkpt>
      <trkpt lat="45.92944" lon="1.3011">
        <ele>363.6</ele>
        <time>2025-06-16T14:20:52Z</time>
      </trkpt>
      <trkpt lat="45.92946" lon="1.30106">
        <ele>363.8</ele>
        <time>2025-06-16T14:20:53Z</time>
      </trkpt>
      <trkpt lat="45.92947" lon="1.30101">
        <ele>364</ele>
        <time>2025-06-16T14:20:54Z</time>
      </trkpt>
      <trkpt lat="45.92948" lon="1.301">
        <ele>364.1</ele>
        <time>2025-06-16T14:20:55Z</time>
      </trkpt>
      <trkpt lat="45.92948" lon="1.30096">
        <ele>364.3</ele>
        <time>2025-06-16T14:20:56Z</time>
      </trkpt>
      <trkpt lat="45.9295" lon="1.30091">
        <ele>364.5</ele>
        <time>2025-06-16T14:20:57Z</time>
      </trkpt>
      <trkpt lat="45.9295" lon="1.30087">
        <ele>364.7</ele>
        <time>2025-06-16T14:20:58Z</time>
      </trkpt>
      <trkpt lat="45.92951" lon="1.30083">
        <ele>364.9</ele>
        <time>2025-06-16T14:20:59Z</time>
      </trkpt>
      <trkpt lat="45.92952" lon="1.30079">
        <ele>365.1</ele>
        <time>2025-06-16T14:21:00Z</time>
      </trkpt>
      <trkpt lat="45.92953" lon="1.30075">
        <ele>365.3</ele>
        <time>2025-06-16T14:21:01Z</time>
      </trkpt>
      <trkpt lat="45.92955" lon="1.3007">
        <ele>365.5</ele>
        <time>2025-06-16T14:21:02Z</time>
      </trkpt>
      <trkpt lat="45.92957" lon="1.30066">
        <ele>365.7</ele>
        <time>2025-06-16T14:21:03Z</time>
      </trkpt>
      <trkpt lat="45.92959" lon="1.30062">
        <ele>365.8</ele>
        <time>2025-06-16T14:21:04Z</time>
      </trkpt>
      <trkpt lat="45.92961" lon="1.30059">
        <ele>366</ele>
        <time>2025-06-16T14:21:05Z</time>
      </trkpt>
      <trkpt lat="45.92964" lon="1.30055">
        <ele>366.1</ele>
        <time>2025-06-16T14:21:06Z</time>
      </trkpt>
      <trkpt lat="45.92964" lon="1.30054">
        <ele>366.1</ele>
        <time>2025-06-16T14:21:07Z</time>
      </trkpt>
      <trkpt lat="45.92967" lon="1.3005">
        <ele>366.2</ele>
        <time>2025-06-16T14:21:08Z</time>
      </trkpt>
      <trkpt lat="45.92967" lon="1.30049">
        <ele>366.2</ele>
        <time>2025-06-16T14:21:09Z</time>
      </trkpt>
      <trkpt lat="45.92969" lon="1.30048">
        <ele>366.2</ele>
        <time>2025-06-16T14:21:10Z</time>
      </trkpt>
      <trkpt lat="45.9297" lon="1.30046">
        <ele>366.3</ele>
        <time>2025-06-16T14:21:11Z</time>
      </trkpt>
      <trkpt lat="45.92973" lon="1.30043">
        <ele>366.2</ele>
        <time>2025-06-16T14:21:12Z</time>
      </trkpt>
      <trkpt lat="45.92975" lon="1.30042">
        <ele>366.2</ele>
        <time>2025-06-16T14:21:13Z</time>
      </trkpt>
      <trkpt lat="45.92978" lon="1.30039">
        <ele>366</ele>
        <time>2025-06-16T14:21:14Z</time>
      </trkpt>
      <trkpt lat="45.92982" lon="1.30035">
        <ele>365.8</ele>
        <time>2025-06-16T14:21:15Z</time>
      </trkpt>
      <trkpt lat="45.92988" lon="1.30033">
        <ele>365.4</ele>
        <time>2025-06-16T14:21:16Z</time>
      </trkpt>
      <trkpt lat="45.92993" lon="1.30031">
        <ele>364.9</ele>
        <time>2025-06-16T14:21:17Z</time>
      </trkpt>
      <trkpt lat="45.92998" lon="1.3003">
        <ele>364.4</ele>
        <time>2025-06-16T14:21:18Z</time>
      </trkpt>
      <trkpt lat="45.93003" lon="1.30029">
        <ele>364</ele>
        <time>2025-06-16T14:21:19Z</time>
      </trkpt>
      <trkpt lat="45.93007" lon="1.30029">
        <ele>363.6</ele>
        <time>2025-06-16T14:21:20Z</time>
      </trkpt>
      <trkpt lat="45.93012" lon="1.30031">
        <ele>363.2</ele>
        <time>2025-06-16T14:21:21Z</time>
      </trkpt>
      <trkpt lat="45.93016" lon="1.30035">
        <ele>362.7</ele>
        <time>2025-06-16T14:21:22Z</time>
      </trkpt>
      <trkpt lat="45.93022" lon="1.30041">
        <ele>362.1</ele>
        <time>2025-06-16T14:21:23Z</time>
      </trkpt>
      <trkpt lat="45.93025" lon="1.30048">
        <ele>361.6</ele>
        <time>2025-06-16T14:21:24Z</time>
      </trkpt>
      <trkpt lat="45.93028" lon="1.30054">
        <ele>361.3</ele>
        <time>2025-06-16T14:21:25Z</time>
      </trkpt>
      <trkpt lat="45.93032" lon="1.30061">
        <ele>360.9</ele>
        <time>2025-06-16T14:21:26Z</time>
      </trkpt>
      <trkpt lat="45.93036" lon="1.30069">
        <ele>360.4</ele>
        <time>2025-06-16T14:21:27Z</time>
      </trkpt>
      <trkpt lat="45.93039" lon="1.30077">
        <ele>360.1</ele>
        <time>2025-06-16T14:21:28Z</time>
      </trkpt>
      <trkpt lat="45.93041" lon="1.30086">
        <ele>359.9</ele>
        <time>2025-06-16T14:21:29Z</time>
      </trkpt>
      <trkpt lat="45.93045" lon="1.30094">
        <ele>359.7</ele>
        <time>2025-06-16T14:21:30Z</time>
      </trkpt>
      <trkpt lat="45.93049" lon="1.30101">
        <ele>359.6</ele>
        <time>2025-06-16T14:21:31Z</time>
      </trkpt>
      <trkpt lat="45.93055" lon="1.30105">
        <ele>359.6</ele>
        <time>2025-06-16T14:21:32Z</time>
      </trkpt>
      <trkpt lat="45.93061" lon="1.30107">
        <ele>359.5</ele>
        <time>2025-06-16T14:21:33Z</time>
      </trkpt>
      <trkpt lat="45.93069" lon="1.30107">
        <ele>359.6</ele>
        <time>2025-06-16T14:21:34Z</time>
      </trkpt>
      <trkpt lat="45.93076" lon="1.30107">
        <ele>359.7</ele>
        <time>2025-06-16T14:21:35Z</time>
      </trkpt>
      <trkpt lat="45.93079" lon="1.30108">
        <ele>359.8</ele>
        <time>2025-06-16T14:21:36Z</time>
      </trkpt>
      <trkpt lat="45.93082" lon="1.30107">
        <ele>359.9</ele>
        <time>2025-06-16T14:21:37Z</time>
      </trkpt>
      <trkpt lat="45.93087" lon="1.30107">
        <ele>360</ele>
        <time>2025-06-16T14:21:38Z</time>
      </trkpt>
      <trkpt lat="45.93092" lon="1.30107">
        <ele>360.1</ele>
        <time>2025-06-16T14:21:39Z</time>
      </trkpt>
      <trkpt lat="45.93097" lon="1.30107">
        <ele>360.3</ele>
        <time>2025-06-16T14:21:40Z</time>
      </trkpt>
      <trkpt lat="45.93103" lon="1.30109">
        <ele>360.5</ele>
        <time>2025-06-16T14:21:41Z</time>
      </trkpt>
      <trkpt lat="45.93109" lon="1.30111">
        <ele>360.8</ele>
        <time>2025-06-16T14:21:42Z</time>
      </trkpt>
      <trkpt lat="45.93115" lon="1.30112">
        <ele>361.1</ele>
        <time>2025-06-16T14:21:43Z</time>
      </trkpt>
      <trkpt lat="45.9312" lon="1.30113">
        <ele>361.4</ele>
        <time>2025-06-16T14:21:44Z</time>
      </trkpt>
      <trkpt lat="45.93124" lon="1.30113">
        <ele>361.6</ele>
        <time>2025-06-16T14:21:45Z</time>
      </trkpt>
      <trkpt lat="45.93129" lon="1.30114">
        <ele>361.9</ele>
        <time>2025-06-16T14:21:46Z</time>
      </trkpt>
      <trkpt lat="45.93133" lon="1.30115">
        <ele>362.2</ele>
        <time>2025-06-16T14:21:47Z</time>
      </trkpt>
      <trkpt lat="45.93136" lon="1.30115">
        <ele>362.4</ele>
        <time>2025-06-16T14:21:48Z</time>
      </trkpt>
      <trkpt lat="45.9314" lon="1.30115">
        <ele>362.7</ele>
        <time>2025-06-16T14:21:49Z</time>
      </trkpt>
      <trkpt lat="45.93144" lon="1.30115">
        <ele>362.9</ele>
        <time>2025-06-16T14:21:50Z</time>
      </trkpt>
      <trkpt lat="45.93148" lon="1.30114">
        <ele>363.2</ele>
        <time>2025-06-16T14:21:51Z</time>
      </trkpt>
      <trkpt lat="45.93152" lon="1.30113">
        <ele>363.5</ele>
        <time>2025-06-16T14:21:52Z</time>
      </trkpt>
      <trkpt lat="45.93155" lon="1.30112">
        <ele>363.8</ele>
        <time>2025-06-16T14:21:53Z</time>
      </trkpt>
      <trkpt lat="45.93158" lon="1.30112">
        <ele>364</ele>
        <time>2025-06-16T14:21:54Z</time>
      </trkpt>
      <trkpt lat="45.93161" lon="1.30111">
        <ele>364.3</ele>
        <time>2025-06-16T14:21:55Z</time>
      </trkpt>
      <trkpt lat="45.93165" lon="1.3011">
        <ele>364.6</ele>
        <time>2025-06-16T14:21:56Z</time>
      </trkpt>
      <trkpt lat="45.93168" lon="1.30109">
        <ele>364.9</ele>
        <time>2025-06-16T14:21:57Z</time>
      </trkpt>
      <trkpt lat="45.93171" lon="1.30108">
        <ele>365.1</ele>
        <time>2025-06-16T14:21:58Z</time>
      </trkpt>
      <trkpt lat="45.93174" lon="1.30107">
        <ele>365.4</ele>
        <time>2025-06-16T14:21:59Z</time>
      </trkpt>
      <trkpt lat="45.93177" lon="1.30107">
        <ele>365.7</ele>
        <time>2025-06-16T14:22:00Z</time>
      </trkpt>
      <trkpt lat="45.93179" lon="1.30107">
        <ele>365.8</ele>
        <time>2025-06-16T14:22:01Z</time>
      </trkpt>
      <trkpt lat="45.93183" lon="1.30106">
        <ele>366.1</ele>
        <time>2025-06-16T14:22:02Z</time>
      </trkpt>
      <trkpt lat="45.93184" lon="1.30105">
        <ele>366.2</ele>
        <time>2025-06-16T14:22:03Z</time>
      </trkpt>
      <trkpt lat="45.93187" lon="1.30104">
        <ele>366.5</ele>
        <time>2025-06-16T14:22:04Z</time>
      </trkpt>
      <trkpt lat="45.9319" lon="1.30103">
        <ele>366.8</ele>
        <time>2025-06-16T14:22:05Z</time>
      </trkpt>
      <trkpt lat="45.93193" lon="1.30103">
        <ele>367</ele>
        <time>2025-06-16T14:22:06Z</time>
      </trkpt>
      <trkpt lat="45.93194" lon="1.30103">
        <ele>367.1</ele>
        <time>2025-06-16T14:22:07Z</time>
      </trkpt>
      <trkpt lat="45.93199" lon="1.30103">
        <ele>367.5</ele>
        <time>2025-06-16T14:22:08Z</time>
      </trkpt>
      <trkpt lat="45.93202" lon="1.30103">
        <ele>367.7</ele>
        <time>2025-06-16T14:22:09Z</time>
      </trkpt>
      <trkpt lat="45.93204" lon="1.30103">
        <ele>367.9</ele>
        <time>2025-06-16T14:22:11Z</time>
      </trkpt>
      <trkpt lat="45.93207" lon="1.30102">
        <ele>368.2</ele>
        <time>2025-06-16T14:22:12Z</time>
      </trkpt>
      <trkpt lat="45.93208" lon="1.30102">
        <ele>368.3</ele>
        <time>2025-06-16T14:22:13Z</time>
      </trkpt>
      <trkpt lat="45.93212" lon="1.30101">
        <ele>368.6</ele>
        <time>2025-06-16T14:22:14Z</time>
      </trkpt>
      <trkpt lat="45.93214" lon="1.301">
        <ele>368.7</ele>
        <time>2025-06-16T14:22:15Z</time>
      </trkpt>
      <trkpt lat="45.93216" lon="1.30099">
        <ele>368.9</ele>
        <time>2025-06-16T14:22:16Z</time>
      </trkpt>
      <trkpt lat="45.9322" lon="1.30097">
        <ele>369.2</ele>
        <time>2025-06-16T14:22:17Z</time>
      </trkpt>
      <trkpt lat="45.93221" lon="1.30097">
        <ele>369.3</ele>
        <time>2025-06-16T14:22:18Z</time>
      </trkpt>
      <trkpt lat="45.93225" lon="1.30097">
        <ele>369.7</ele>
        <time>2025-06-16T14:22:19Z</time>
      </trkpt>
      <trkpt lat="45.93227" lon="1.30097">
        <ele>369.9</ele>
        <time>2025-06-16T14:22:20Z</time>
      </trkpt>
      <trkpt lat="45.9323" lon="1.30097">
        <ele>370.2</ele>
        <time>2025-06-16T14:22:21Z</time>
      </trkpt>
      <trkpt lat="45.93234" lon="1.30098">
        <ele>370.5</ele>
        <time>2025-06-16T14:22:23Z</time>
      </trkpt>
      <trkpt lat="45.93238" lon="1.30098">
        <ele>370.9</ele>
        <time>2025-06-16T14:22:25Z</time>
      </trkpt>
      <trkpt lat="45.9324" lon="1.30099">
        <ele>371.1</ele>
        <time>2025-06-16T14:22:26Z</time>
      </trkpt>
      <trkpt lat="45.93242" lon="1.30099">
        <ele>371.3</ele>
        <time>2025-06-16T14:22:27Z</time>
      </trkpt>
      <trkpt lat="45.93244" lon="1.30098">
        <ele>371.5</ele>
        <time>2025-06-16T14:22:28Z</time>
      </trkpt>
      <trkpt lat="45.93247" lon="1.30097">
        <ele>371.8</ele>
        <time>2025-06-16T14:22:30Z</time>
      </trkpt>
      <trkpt lat="45.93251" lon="1.30094">
        <ele>372.1</ele>
        <time>2025-06-16T14:22:32Z</time>
      </trkpt>
      <trkpt lat="45.93253" lon="1.30093">
        <ele>372.3</ele>
        <time>2025-06-16T14:22:34Z</time>
      </trkpt>
      <trkpt lat="45.93257" lon="1.30092">
        <ele>372.7</ele>
        <time>2025-06-16T14:22:35Z</time>
      </trkpt>
      <trkpt lat="45.93261" lon="1.30091">
        <ele>373</ele>
        <time>2025-06-16T14:22:36Z</time>
      </trkpt>
      <trkpt lat="45.93265" lon="1.30091">
        <ele>373.4</ele>
        <time>2025-06-16T14:22:37Z</time>
      </trkpt>
      <trkpt lat="45.93266" lon="1.3009">
        <ele>373.5</ele>
        <time>2025-06-16T14:22:38Z</time>
      </trkpt>
      <trkpt lat="45.93268" lon="1.3009">
        <ele>373.7</ele>
        <time>2025-06-16T14:22:39Z</time>
      </trkpt>
      <trkpt lat="45.93271" lon="1.3009">
        <ele>374</ele>
        <time>2025-06-16T14:22:40Z</time>
      </trkpt>
      <trkpt lat="45.93273" lon="1.30089">
        <ele>374.2</ele>
        <time>2025-06-16T14:22:42Z</time>
      </trkpt>
      <trkpt lat="45.93276" lon="1.30089">
        <ele>374.4</ele>
        <time>2025-06-16T14:22:43Z</time>
      </trkpt>
      <trkpt lat="45.93277" lon="1.30089">
        <ele>374.5</ele>
        <time>2025-06-16T14:22:44Z</time>
      </trkpt>
      <trkpt lat="45.9328" lon="1.30088">
        <ele>374.8</ele>
        <time>2025-06-16T14:22:45Z</time>
      </trkpt>
      <trkpt lat="45.93281" lon="1.30088">
        <ele>374.9</ele>
        <time>2025-06-16T14:22:46Z</time>
      </trkpt>
      <trkpt lat="45.93285" lon="1.30088">
        <ele>375.3</ele>
        <time>2025-06-16T14:22:47Z</time>
      </trkpt>
      <trkpt lat="45.93286" lon="1.30088">
        <ele>375.4</ele>
        <time>2025-06-16T14:22:48Z</time>
      </trkpt>
      <trkpt lat="45.93289" lon="1.30087">
        <ele>375.7</ele>
        <time>2025-06-16T14:22:49Z</time>
      </trkpt>
      <trkpt lat="45.9329" lon="1.30087">
        <ele>375.9</ele>
        <time>2025-06-16T14:22:50Z</time>
      </trkpt>
      <trkpt lat="45.93293" lon="1.30086">
        <ele>376.2</ele>
        <time>2025-06-16T14:22:51Z</time>
      </trkpt>
      <trkpt lat="45.93294" lon="1.30086">
        <ele>376.3</ele>
        <time>2025-06-16T14:22:52Z</time>
      </trkpt>
      <trkpt lat="45.93296" lon="1.30085">
        <ele>376.5</ele>
        <time>2025-06-16T14:22:53Z</time>
      </trkpt>
      <trkpt lat="45.93298" lon="1.30084">
        <ele>376.7</ele>
        <time>2025-06-16T14:22:54Z</time>
      </trkpt>
      <trkpt lat="45.93299" lon="1.30084">
        <ele>376.9</ele>
        <time>2025-06-16T14:22:55Z</time>
      </trkpt>
      <trkpt lat="45.933" lon="1.30083">
        <ele>377.1</ele>
        <time>2025-06-16T14:22:56Z</time>
      </trkpt>
      <trkpt lat="45.93302" lon="1.30082">
        <ele>377.3</ele>
        <time>2025-06-16T14:22:57Z</time>
      </trkpt>
      <trkpt lat="45.93304" lon="1.30079">
        <ele>377.6</ele>
        <time>2025-06-16T14:22:58Z</time>
      </trkpt>
      <trkpt lat="45.93305" lon="1.30078">
        <ele>377.8</ele>
        <time>2025-06-16T14:23:00Z</time>
      </trkpt>
      <trkpt lat="45.93306" lon="1.30076">
        <ele>378</ele>
        <time>2025-06-16T14:23:01Z</time>
      </trkpt>
      <trkpt lat="45.93307" lon="1.30074">
        <ele>378.2</ele>
        <time>2025-06-16T14:23:02Z</time>
      </trkpt>
      <trkpt lat="45.93308" lon="1.30072">
        <ele>378.4</ele>
        <time>2025-06-16T14:23:03Z</time>
      </trkpt>
      <trkpt lat="45.93309" lon="1.30067">
        <ele>378.7</ele>
        <time>2025-06-16T14:23:04Z</time>
      </trkpt>
      <trkpt lat="45.93309" lon="1.30065">
        <ele>378.9</ele>
        <time>2025-06-16T14:23:06Z</time>
      </trkpt>
      <trkpt lat="45.9331" lon="1.3006">
        <ele>379.3</ele>
        <time>2025-06-16T14:23:07Z</time>
      </trkpt>
      <trkpt lat="45.93311" lon="1.30057">
        <ele>379.6</ele>
        <time>2025-06-16T14:23:09Z</time>
      </trkpt>
      <trkpt lat="45.93311" lon="1.30055">
        <ele>379.8</ele>
        <time>2025-06-16T14:23:10Z</time>
      </trkpt>
      <trkpt lat="45.93312" lon="1.3005">
        <ele>380.2</ele>
        <time>2025-06-16T14:23:11Z</time>
      </trkpt>
      <trkpt lat="45.93312" lon="1.30048">
        <ele>380.4</ele>
        <time>2025-06-16T14:23:13Z</time>
      </trkpt>
      <trkpt lat="45.93313" lon="1.30044">
        <ele>380.8</ele>
        <time>2025-06-16T14:23:14Z</time>
      </trkpt>
      <trkpt lat="45.93315" lon="1.3004">
        <ele>381.2</ele>
        <time>2025-06-16T14:23:16Z</time>
      </trkpt>
      <trkpt lat="45.93315" lon="1.30038">
        <ele>381.4</ele>
        <time>2025-06-16T14:23:18Z</time>
      </trkpt>
      <trkpt lat="45.93315" lon="1.30036">
        <ele>381.6</ele>
        <time>2025-06-16T14:23:19Z</time>
      </trkpt>
      <trkpt lat="45.93316" lon="1.30032">
        <ele>381.9</ele>
        <time>2025-06-16T14:23:20Z</time>
      </trkpt>
      <trkpt lat="45.93317" lon="1.3003">
        <ele>382.2</ele>
        <time>2025-06-16T14:23:22Z</time>
      </trkpt>
      <trkpt lat="45.93317" lon="1.30029">
        <ele>382.3</ele>
        <time>2025-06-16T14:23:23Z</time>
      </trkpt>
      <trkpt lat="45.93318" lon="1.30027">
        <ele>382.5</ele>
        <time>2025-06-16T14:23:24Z</time>
      </trkpt>
      <trkpt lat="45.93319" lon="1.30026">
        <ele>382.6</ele>
        <time>2025-06-16T14:23:25Z</time>
      </trkpt>
      <trkpt lat="45.9332" lon="1.30024">
        <ele>382.8</ele>
        <time>2025-06-16T14:23:26Z</time>
      </trkpt>
      <trkpt lat="45.93322" lon="1.30022">
        <ele>383.1</ele>
        <time>2025-06-16T14:23:27Z</time>
      </trkpt>
      <trkpt lat="45.93323" lon="1.3002">
        <ele>383.3</ele>
        <time>2025-06-16T14:23:28Z</time>
      </trkpt>
      <trkpt lat="45.93324" lon="1.30018">
        <ele>383.5</ele>
        <time>2025-06-16T14:23:29Z</time>
      </trkpt>
      <trkpt lat="45.93324" lon="1.30016">
        <ele>383.7</ele>
        <time>2025-06-16T14:23:30Z</time>
      </trkpt>
      <trkpt lat="45.93326" lon="1.30013">
        <ele>384</ele>
        <time>2025-06-16T14:23:31Z</time>
      </trkpt>
      <trkpt lat="45.93327" lon="1.30011">
        <ele>384.2</ele>
        <time>2025-06-16T14:23:33Z</time>
      </trkpt>
      <trkpt lat="45.93328" lon="1.30009">
        <ele>384.4</ele>
        <time>2025-06-16T14:23:34Z</time>
      </trkpt>
      <trkpt lat="45.93329" lon="1.30007">
        <ele>384.6</ele>
        <time>2025-06-16T14:23:35Z</time>
      </trkpt>
      <trkpt lat="45.9333" lon="1.30005">
        <ele>384.8</ele>
        <time>2025-06-16T14:23:36Z</time>
      </trkpt>
      <trkpt lat="45.93331" lon="1.30004">
        <ele>384.9</ele>
        <time>2025-06-16T14:23:37Z</time>
      </trkpt>
      <trkpt lat="45.93332" lon="1.30002">
        <ele>385.1</ele>
        <time>2025-06-16T14:23:38Z</time>
      </trkpt>
      <trkpt lat="45.93334" lon="1.29998">
        <ele>385.5</ele>
        <time>2025-06-16T14:23:39Z</time>
      </trkpt>
      <trkpt lat="45.93334" lon="1.29995">
        <ele>385.7</ele>
        <time>2025-06-16T14:23:41Z</time>
      </trkpt>
      <trkpt lat="45.93334" lon="1.29993">
        <ele>385.9</ele>
        <time>2025-06-16T14:23:42Z</time>
      </trkpt>
      <trkpt lat="45.93334" lon="1.2999">
        <ele>386.1</ele>
        <time>2025-06-16T14:23:43Z</time>
      </trkpt>
      <trkpt lat="45.93335" lon="1.29988">
        <ele>386.3</ele>
        <time>2025-06-16T14:23:44Z</time>
      </trkpt>
      <trkpt lat="45.93336" lon="1.29986">
        <ele>386.5</ele>
        <time>2025-06-16T14:23:45Z</time>
      </trkpt>
      <trkpt lat="45.93337" lon="1.29985">
        <ele>386.7</ele>
        <time>2025-06-16T14:23:46Z</time>
      </trkpt>
      <trkpt lat="45.93338" lon="1.29983">
        <ele>386.9</ele>
        <time>2025-06-16T14:23:47Z</time>
      </trkpt>
      <trkpt lat="45.9334" lon="1.29981">
        <ele>387.2</ele>
        <time>2025-06-16T14:23:48Z</time>
      </trkpt>
      <trkpt lat="45.93341" lon="1.2998">
        <ele>387.3</ele>
        <time>2025-06-16T14:23:49Z</time>
      </trkpt>
      <trkpt lat="45.93342" lon="1.29978">
        <ele>387.5</ele>
        <time>2025-06-16T14:23:50Z</time>
      </trkpt>
      <trkpt lat="45.93343" lon="1.29976">
        <ele>387.7</ele>
        <time>2025-06-16T14:23:51Z</time>
      </trkpt>
      <trkpt lat="45.93344" lon="1.29975">
        <ele>387.9</ele>
        <time>2025-06-16T14:23:52Z</time>
      </trkpt>
      <trkpt lat="45.93345" lon="1.29974">
        <ele>388</ele>
        <time>2025-06-16T14:23:53Z</time>
      </trkpt>
      <trkpt lat="45.93347" lon="1.29972">
        <ele>388.2</ele>
        <time>2025-06-16T14:23:54Z</time>
      </trkpt>
      <trkpt lat="45.93348" lon="1.29972">
        <ele>388.3</ele>
        <time>2025-06-16T14:23:55Z</time>
      </trkpt>
      <trkpt lat="45.93349" lon="1.29971">
        <ele>388.4</ele>
        <time>2025-06-16T14:23:56Z</time>
      </trkpt>
      <trkpt lat="45.93351" lon="1.29969">
        <ele>388.6</ele>
        <time>2025-06-16T14:23:57Z</time>
      </trkpt>
      <trkpt lat="45.93352" lon="1.29968">
        <ele>388.7</ele>
        <time>2025-06-16T14:23:58Z</time>
      </trkpt>
      <trkpt lat="45.93354" lon="1.29967">
        <ele>388.9</ele>
        <time>2025-06-16T14:23:59Z</time>
      </trkpt>
      <trkpt lat="45.93355" lon="1.29966">
        <ele>389</ele>
        <time>2025-06-16T14:24:00Z</time>
      </trkpt>
      <trkpt lat="45.93356" lon="1.29964">
        <ele>389.1</ele>
        <time>2025-06-16T14:24:01Z</time>
      </trkpt>
      <trkpt lat="45.93358" lon="1.29962">
        <ele>389.3</ele>
        <time>2025-06-16T14:24:02Z</time>
      </trkpt>
      <trkpt lat="45.9336" lon="1.29959">
        <ele>389.5</ele>
        <time>2025-06-16T14:24:03Z</time>
      </trkpt>
      <trkpt lat="45.93361" lon="1.29958">
        <ele>389.6</ele>
        <time>2025-06-16T14:24:05Z</time>
      </trkpt>
      <trkpt lat="45.93363" lon="1.29956">
        <ele>389.7</ele>
        <time>2025-06-16T14:24:06Z</time>
      </trkpt>
      <trkpt lat="45.93364" lon="1.29955">
        <ele>389.8</ele>
        <time>2025-06-16T14:24:07Z</time>
      </trkpt>
      <trkpt lat="45.93365" lon="1.29953">
        <ele>389.9</ele>
        <time>2025-06-16T14:24:08Z</time>
      </trkpt>
      <trkpt lat="45.93366" lon="1.29952">
        <ele>390</ele>
        <time>2025-06-16T14:24:09Z</time>
      </trkpt>
      <trkpt lat="45.93368" lon="1.2995">
        <ele>390.2</ele>
        <time>2025-06-16T14:24:10Z</time>
      </trkpt>
      <trkpt lat="45.93369" lon="1.29948">
        <ele>390.3</ele>
        <time>2025-06-16T14:24:12Z</time>
      </trkpt>
      <trkpt lat="45.93371" lon="1.29945">
        <ele>390.5</ele>
        <time>2025-06-16T14:24:13Z</time>
      </trkpt>
      <trkpt lat="45.93371" lon="1.29944">
        <ele>390.6</ele>
        <time>2025-06-16T14:24:14Z</time>
      </trkpt>
      <trkpt lat="45.93373" lon="1.29942">
        <ele>390.7</ele>
        <time>2025-06-16T14:24:16Z</time>
      </trkpt>
      <trkpt lat="45.93374" lon="1.29941">
        <ele>390.8</ele>
        <time>2025-06-16T14:24:17Z</time>
      </trkpt>
      <trkpt lat="45.93375" lon="1.29939">
        <ele>390.9</ele>
        <time>2025-06-16T14:24:18Z</time>
      </trkpt>
      <trkpt lat="45.93376" lon="1.29938">
        <ele>391</ele>
        <time>2025-06-16T14:24:19Z</time>
      </trkpt>
      <trkpt lat="45.93377" lon="1.29936">
        <ele>391.2</ele>
        <time>2025-06-16T14:24:20Z</time>
      </trkpt>
      <trkpt lat="45.93378" lon="1.29934">
        <ele>391.3</ele>
        <time>2025-06-16T14:24:21Z</time>
      </trkpt>
      <trkpt lat="45.9338" lon="1.29933">
        <ele>391.5</ele>
        <time>2025-06-16T14:24:22Z</time>
      </trkpt>
      <trkpt lat="45.93381" lon="1.29932">
        <ele>391.6</ele>
        <time>2025-06-16T14:24:23Z</time>
      </trkpt>
      <trkpt lat="45.93382" lon="1.2993">
        <ele>391.8</ele>
        <time>2025-06-16T14:24:24Z</time>
      </trkpt>
      <trkpt lat="45.93384" lon="1.29929">
        <ele>392</ele>
        <time>2025-06-16T14:24:25Z</time>
      </trkpt>
      <trkpt lat="45.93385" lon="1.29927">
        <ele>392.1</ele>
        <time>2025-06-16T14:24:26Z</time>
      </trkpt>
      <trkpt lat="45.93386" lon="1.29924">
        <ele>392.3</ele>
        <time>2025-06-16T14:24:27Z</time>
      </trkpt>
      <trkpt lat="45.93387" lon="1.29923">
        <ele>392.5</ele>
        <time>2025-06-16T14:24:28Z</time>
      </trkpt>
      <trkpt lat="45.93389" lon="1.2992">
        <ele>392.9</ele>
        <time>2025-06-16T14:24:29Z</time>
      </trkpt>
      <trkpt lat="45.9339" lon="1.29918">
        <ele>393.1</ele>
        <time>2025-06-16T14:24:31Z</time>
      </trkpt>
      <trkpt lat="45.93392" lon="1.29916">
        <ele>393.2</ele>
        <time>2025-06-16T14:24:32Z</time>
      </trkpt>
      <trkpt lat="45.93393" lon="1.29915">
        <ele>393.4</ele>
        <time>2025-06-16T14:24:33Z</time>
      </trkpt>
      <trkpt lat="45.93395" lon="1.29912">
        <ele>393.7</ele>
        <time>2025-06-16T14:24:34Z</time>
      </trkpt>
      <trkpt lat="45.93396" lon="1.29911">
        <ele>393.8</ele>
        <time>2025-06-16T14:24:35Z</time>
      </trkpt>
      <trkpt lat="45.93398" lon="1.29909">
        <ele>394.2</ele>
        <time>2025-06-16T14:24:36Z</time>
      </trkpt>
      <trkpt lat="45.93399" lon="1.29908">
        <ele>394.3</ele>
        <time>2025-06-16T14:24:37Z</time>
      </trkpt>
      <trkpt lat="45.934" lon="1.29906">
        <ele>394.5</ele>
        <time>2025-06-16T14:24:38Z</time>
      </trkpt>
      <trkpt lat="45.93401" lon="1.29905">
        <ele>394.7</ele>
        <time>2025-06-16T14:24:39Z</time>
      </trkpt>
      <trkpt lat="45.93403" lon="1.29902">
        <ele>395.1</ele>
        <time>2025-06-16T14:24:40Z</time>
      </trkpt>
      <trkpt lat="45.93406" lon="1.29898">
        <ele>395.5</ele>
        <time>2025-06-16T14:24:42Z</time>
      </trkpt>
      <trkpt lat="45.93406" lon="1.29898">
        <ele>395.6</ele>
        <time>2025-06-16T14:24:43Z</time>
      </trkpt>
      <trkpt lat="45.93409" lon="1.29894">
        <ele>396</ele>
        <time>2025-06-16T14:24:44Z</time>
      </trkpt>
      <trkpt lat="45.93412" lon="1.2989">
        <ele>396.6</ele>
        <time>2025-06-16T14:24:46Z</time>
      </trkpt>
      <trkpt lat="45.93413" lon="1.29888">
        <ele>396.8</ele>
        <time>2025-06-16T14:24:47Z</time>
      </trkpt>
      <trkpt lat="45.93415" lon="1.29886">
        <ele>397.1</ele>
        <time>2025-06-16T14:24:48Z</time>
      </trkpt>
      <trkpt lat="45.93417" lon="1.29883">
        <ele>397.5</ele>
        <time>2025-06-16T14:24:50Z</time>
      </trkpt>
      <trkpt lat="45.93418" lon="1.29883">
        <ele>397.6</ele>
        <time>2025-06-16T14:24:51Z</time>
      </trkpt>
      <trkpt lat="45.93421" lon="1.29879">
        <ele>398.1</ele>
        <time>2025-06-16T14:24:52Z</time>
      </trkpt>
      <trkpt lat="45.93423" lon="1.29875">
        <ele>398.6</ele>
        <time>2025-06-16T14:24:54Z</time>
      </trkpt>
      <trkpt lat="45.93425" lon="1.29871">
        <ele>398.9</ele>
        <time>2025-06-16T14:24:56Z</time>
      </trkpt>
      <trkpt lat="45.93426" lon="1.29871">
        <ele>399</ele>
        <time>2025-06-16T14:24:57Z</time>
      </trkpt>
      <trkpt lat="45.93428" lon="1.29869">
        <ele>399.4</ele>
        <time>2025-06-16T14:24:58Z</time>
      </trkpt>
      <trkpt lat="45.93429" lon="1.29868">
        <ele>399.5</ele>
        <time>2025-06-16T14:24:59Z</time>
      </trkpt>
      <trkpt lat="45.93432" lon="1.29866">
        <ele>399.9</ele>
        <time>2025-06-16T14:25:00Z</time>
      </trkpt>
      <trkpt lat="45.93434" lon="1.29865">
        <ele>400.1</ele>
        <time>2025-06-16T14:25:01Z</time>
      </trkpt>
      <trkpt lat="45.93436" lon="1.29864">
        <ele>400.3</ele>
        <time>2025-06-16T14:25:02Z</time>
      </trkpt>
      <trkpt lat="45.93437" lon="1.29863">
        <ele>400.3</ele>
        <time>2025-06-16T14:25:04Z</time>
      </trkpt>
      <trkpt lat="45.93439" lon="1.29863">
        <ele>400.3</ele>
        <time>2025-06-16T14:25:05Z</time>
      </trkpt>
      <trkpt lat="45.9344" lon="1.29863">
        <ele>400.4</ele>
        <time>2025-06-16T14:25:06Z</time>
      </trkpt>
      <trkpt lat="45.93441" lon="1.29862">
        <ele>400.4</ele>
        <time>2025-06-16T14:25:07Z</time>
      </trkpt>
      <trkpt lat="45.93441" lon="1.2986">
        <ele>400.4</ele>
        <time>2025-06-16T14:25:08Z</time>
      </trkpt>
      <trkpt lat="45.93441" lon="1.29859">
        <ele>400.4</ele>
        <time>2025-06-16T14:25:09Z</time>
      </trkpt>
      <trkpt lat="45.93441" lon="1.29858">
        <ele>400.4</ele>
        <time>2025-06-16T14:25:10Z</time>
      </trkpt>
      <trkpt lat="45.93441" lon="1.29857">
        <ele>400.4</ele>
        <time>2025-06-16T14:25:11Z</time>
      </trkpt>
      <trkpt lat="45.93441" lon="1.29856">
        <ele>400.4</ele>
        <time>2025-06-16T14:25:12Z</time>
      </trkpt>
      <trkpt lat="45.93441" lon="1.29857">
        <ele>400.4</ele>
        <time>2025-06-16T14:25:13Z</time>
      </trkpt>
      <trkpt lat="45.93441" lon="1.29858">
        <ele>400.5</ele>
        <time>2025-06-16T14:25:14Z</time>
      </trkpt>
      <trkpt lat="45.93441" lon="1.29858">
        <ele>400.5</ele>
        <time>2025-06-16T14:25:15Z</time>
      </trkpt>
      <trkpt lat="45.93441" lon="1.29859">
        <ele>400.5</ele>
        <time>2025-06-16T14:25:16Z</time>
      </trkpt>
      <trkpt lat="45.93441" lon="1.29859">
        <ele>400.5</ele>
        <time>2025-06-16T14:25:17Z</time>
      </trkpt>
      <trkpt lat="45.93441" lon="1.29858">
        <ele>400.5</ele>
        <time>2025-06-16T14:25:18Z</time>
      </trkpt>
      <trkpt lat="45.93441" lon="1.29858">
        <ele>400.5</ele>
        <time>2025-06-16T14:25:19Z</time>
      </trkpt>
      <trkpt lat="45.93441" lon="1.29858">
        <ele>400.5</ele>
        <time>2025-06-16T14:25:20Z</time>
      </trkpt>
      <trkpt lat="45.93441" lon="1.29859">
        <ele>400.5</ele>
        <time>2025-06-16T14:25:21Z</time>
      </trkpt>
      <trkpt lat="45.93441" lon="1.29859">
        <ele>400.5</ele>
        <time>2025-06-16T14:25:22Z</time>
      </trkpt>
      <trkpt lat="45.93441" lon="1.29859">
        <ele>400.5</ele>
        <time>2025-06-16T14:25:23Z</time>
      </trkpt>
      <trkpt lat="45.93441" lon="1.29858">
        <ele>400.5</ele>
        <time>2025-06-16T14:25:24Z</time>
      </trkpt>
      <trkpt lat="45.93441" lon="1.29858">
        <ele>400.5</ele>
        <time>2025-06-16T14:25:25Z</time>
      </trkpt>
      <trkpt lat="45.93441" lon="1.29858">
        <ele>400.5</ele>
        <time>2025-06-16T14:25:26Z</time>
      </trkpt>
      <trkpt lat="45.93441" lon="1.29858">
        <ele>400.5</ele>
        <time>2025-06-16T14:25:27Z</time>
      </trkpt>
      <trkpt lat="45.93441" lon="1.29859">
        <ele>400.5</ele>
        <time>2025-06-16T14:25:28Z</time>
      </trkpt>
      <trkpt lat="45.93441" lon="1.29859">
        <ele>400.5</ele>
        <time>2025-06-16T14:25:29Z</time>
      </trkpt>
      <trkpt lat="45.93441" lon="1.29859">
        <ele>400.5</ele>
        <time>2025-06-16T14:25:30Z</time>
      </trkpt>
      <trkpt lat="45.93441" lon="1.29859">
        <ele>400.5</ele>
        <time>2025-06-16T14:25:31Z</time>
      </trkpt>
      <trkpt lat="45.93441" lon="1.29859">
        <ele>400.5</ele>
        <time>2025-06-16T14:25:32Z</time>
      </trkpt>
      <trkpt lat="45.93441" lon="1.29859">
        <ele>400.5</ele>
        <time>2025-06-16T14:25:33Z</time>
      </trkpt>
      <trkpt lat="45.93441" lon="1.29859">
        <ele>400.5</ele>
        <time>2025-06-16T14:25:34Z</time>
      </trkpt>
      <trkpt lat="45.93441" lon="1.29859">
        <ele>400.5</ele>
        <time>2025-06-16T14:25:35Z</time>
      </trkpt>
      <trkpt lat="45.93441" lon="1.29859">
        <ele>400.5</ele>
        <time>2025-06-16T14:25:36Z</time>
      </trkpt>
      <trkpt lat="45.93441" lon="1.29859">
        <ele>400.5</ele>
        <time>2025-06-16T14:25:37Z</time>
      </trkpt>
      <trkpt lat="45.93441" lon="1.29859">
        <ele>400.5</ele>
        <time>2025-06-16T14:25:38Z</time>
      </trkpt>
      <trkpt lat="45.93441" lon="1.29859">
        <ele>400.5</ele>
        <time>2025-06-16T14:25:39Z</time>
      </trkpt>
      <trkpt lat="45.93441" lon="1.29859">
        <ele>400.5</ele>
        <time>2025-06-16T14:25:40Z</time>
      </trkpt>
      <trkpt lat="45.93441" lon="1.29859">
        <ele>400.5</ele>
        <time>2025-06-16T14:25:42Z</time>
      </trkpt>
      <trkpt lat="45.93441" lon="1.29859">
        <ele>400.5</ele>
        <time>2025-06-16T14:25:44Z</time>
      </trkpt>
      <trkpt lat="45.93441" lon="1.29859">
        <ele>400.5</ele>
        <time>2025-06-16T14:25:45Z</time>
      </trkpt>
      <trkpt lat="45.93441" lon="1.29859">
        <ele>400.5</ele>
        <time>2025-06-16T14:25:46Z</time>
      </trkpt>
      <trkpt lat="45.93441" lon="1.29859">
        <ele>400.5</ele>
        <time>2025-06-16T14:25:47Z</time>
      </trkpt>
      <trkpt lat="45.93441" lon="1.29859">
        <ele>400.5</ele>
        <time>2025-06-16T14:25:48Z</time>
      </trkpt>
      <trkpt lat="45.93441" lon="1.29859">
        <ele>400.5</ele>
        <time>2025-06-16T14:25:49Z</time>
      </trkpt>
      <trkpt lat="45.93441" lon="1.29859">
        <ele>400.5</ele>
        <time>2025-06-16T14:25:50Z</time>
      </trkpt>
      <trkpt lat="45.93441" lon="1.29859">
        <ele>400.5</ele>
        <time>2025-06-16T14:25:51Z</time>
      </trkpt>
      <trkpt lat="45.93441" lon="1.29859">
        <ele>400.5</ele>
        <time>2025-06-16T14:25:52Z</time>
      </trkpt>
      <trkpt lat="45.93441" lon="1.29859">
        <ele>400.5</ele>
        <time>2025-06-16T14:25:53Z</time>
      </trkpt>
      <trkpt lat="45.93441" lon="1.29859">
        <ele>400.5</ele>
        <time>2025-06-16T14:25:54Z</time>
      </trkpt>
      <trkpt lat="45.93441" lon="1.29859">
        <ele>400.5</ele>
        <time>2025-06-16T14:25:55Z</time>
      </trkpt>
      <trkpt lat="45.93441" lon="1.29858">
        <ele>400.5</ele>
        <time>2025-06-16T14:25:56Z</time>
      </trkpt>
      <trkpt lat="45.93442" lon="1.29858">
        <ele>400.5</ele>
        <time>2025-06-16T14:25:57Z</time>
      </trkpt>
      <trkpt lat="45.93443" lon="1.29859">
        <ele>400.5</ele>
        <time>2025-06-16T14:25:58Z</time>
      </trkpt>
      <trkpt lat="45.93444" lon="1.2986">
        <ele>400.5</ele>
        <time>2025-06-16T14:25:59Z</time>
      </trkpt>
      <trkpt lat="45.93447" lon="1.29861">
        <ele>400.6</ele>
        <time>2025-06-16T14:26:00Z</time>
      </trkpt>
      <trkpt lat="45.93448" lon="1.29861">
        <ele>400.6</ele>
        <time>2025-06-16T14:26:01Z</time>
      </trkpt>
      <trkpt lat="45.93451" lon="1.29862">
        <ele>400.6</ele>
        <time>2025-06-16T14:26:02Z</time>
      </trkpt>
      <trkpt lat="45.93453" lon="1.29863">
        <ele>400.7</ele>
        <time>2025-06-16T14:26:03Z</time>
      </trkpt>
      <trkpt lat="45.93455" lon="1.29863">
        <ele>400.7</ele>
        <time>2025-06-16T14:26:04Z</time>
      </trkpt>
      <trkpt lat="45.93456" lon="1.29863">
        <ele>400.7</ele>
        <time>2025-06-16T14:26:05Z</time>
      </trkpt>
      <trkpt lat="45.93457" lon="1.29863">
        <ele>400.7</ele>
        <time>2025-06-16T14:26:06Z</time>
      </trkpt>
      <trkpt lat="45.93461" lon="1.29862">
        <ele>400.7</ele>
        <time>2025-06-16T14:26:07Z</time>
      </trkpt>
      <trkpt lat="45.93463" lon="1.29862">
        <ele>400.8</ele>
        <time>2025-06-16T14:26:08Z</time>
      </trkpt>
      <trkpt lat="45.93466" lon="1.2986">
        <ele>400.8</ele>
        <time>2025-06-16T14:26:10Z</time>
      </trkpt>
      <trkpt lat="45.93469" lon="1.29859">
        <ele>400.8</ele>
        <time>2025-06-16T14:26:11Z</time>
      </trkpt>
      <trkpt lat="45.9347" lon="1.29859">
        <ele>400.8</ele>
        <time>2025-06-16T14:26:12Z</time>
      </trkpt>
      <trkpt lat="45.93472" lon="1.29861">
        <ele>400.8</ele>
        <time>2025-06-16T14:26:13Z</time>
      </trkpt>
      <trkpt lat="45.93473" lon="1.29861">
        <ele>400.8</ele>
        <time>2025-06-16T14:26:14Z</time>
      </trkpt>
      <trkpt lat="45.93475" lon="1.29862">
        <ele>400.8</ele>
        <time>2025-06-16T14:26:15Z</time>
      </trkpt>
      <trkpt lat="45.93478" lon="1.29864">
        <ele>400.8</ele>
        <time>2025-06-16T14:26:16Z</time>
      </trkpt>
      <trkpt lat="45.9348" lon="1.29864">
        <ele>400.8</ele>
        <time>2025-06-16T14:26:18Z</time>
      </trkpt>
      <trkpt lat="45.93484" lon="1.29863">
        <ele>400.8</ele>
        <time>2025-06-16T14:26:19Z</time>
      </trkpt>
      <trkpt lat="45.93487" lon="1.29862">
        <ele>400.8</ele>
        <time>2025-06-16T14:26:20Z</time>
      </trkpt>
      <trkpt lat="45.93489" lon="1.29861">
        <ele>400.8</ele>
        <time>2025-06-16T14:26:21Z</time>
      </trkpt>
      <trkpt lat="45.93492" lon="1.29859">
        <ele>400.8</ele>
        <time>2025-06-16T14:26:23Z</time>
      </trkpt>
      <trkpt lat="45.93495" lon="1.29857">
        <ele>400.8</ele>
        <time>2025-06-16T14:26:24Z</time>
      </trkpt>
      <trkpt lat="45.93498" lon="1.29854">
        <ele>400.8</ele>
        <time>2025-06-16T14:26:25Z</time>
      </trkpt>
      <trkpt lat="45.935" lon="1.29852">
        <ele>400.7</ele>
        <time>2025-06-16T14:26:26Z</time>
      </trkpt>
      <trkpt lat="45.93505" lon="1.29851">
        <ele>400.7</ele>
        <time>2025-06-16T14:26:27Z</time>
      </trkpt>
      <trkpt lat="45.93507" lon="1.29851">
        <ele>400.6</ele>
        <time>2025-06-16T14:26:28Z</time>
      </trkpt>
      <trkpt lat="45.93511" lon="1.29851">
        <ele>400.5</ele>
        <time>2025-06-16T14:26:29Z</time>
      </trkpt>
      <trkpt lat="45.93515" lon="1.29851">
        <ele>400.4</ele>
        <time>2025-06-16T14:26:30Z</time>
      </trkpt>
      <trkpt lat="45.9352" lon="1.29851">
        <ele>400.2</ele>
        <time>2025-06-16T14:26:31Z</time>
      </trkpt>
      <trkpt lat="45.93525" lon="1.29851">
        <ele>400</ele>
        <time>2025-06-16T14:26:32Z</time>
      </trkpt>
      <trkpt lat="45.9353" lon="1.29851">
        <ele>399.8</ele>
        <time>2025-06-16T14:26:33Z</time>
      </trkpt>
      <trkpt lat="45.93539" lon="1.29847">
        <ele>399.4</ele>
        <time>2025-06-16T14:26:34Z</time>
      </trkpt>
      <trkpt lat="45.93546" lon="1.29843">
        <ele>399</ele>
        <time>2025-06-16T14:26:35Z</time>
      </trkpt>
      <trkpt lat="45.93553" lon="1.29841">
        <ele>398.7</ele>
        <time>2025-06-16T14:26:36Z</time>
      </trkpt>
      <trkpt lat="45.93559" lon="1.29839">
        <ele>398.3</ele>
        <time>2025-06-16T14:26:37Z</time>
      </trkpt>
      <trkpt lat="45.93564" lon="1.29837">
        <ele>397.9</ele>
        <time>2025-06-16T14:26:38Z</time>
      </trkpt>
      <trkpt lat="45.93569" lon="1.29833">
        <ele>397.5</ele>
        <time>2025-06-16T14:26:39Z</time>
      </trkpt>
      <trkpt lat="45.93574" lon="1.29828">
        <ele>397</ele>
        <time>2025-06-16T14:26:40Z</time>
      </trkpt>
      <trkpt lat="45.93579" lon="1.29824">
        <ele>396.6</ele>
        <time>2025-06-16T14:26:41Z</time>
      </trkpt>
      <trkpt lat="45.93586" lon="1.29821">
        <ele>396.1</ele>
        <time>2025-06-16T14:26:42Z</time>
      </trkpt>
      <trkpt lat="45.93593" lon="1.2982">
        <ele>395.7</ele>
        <time>2025-06-16T14:26:43Z</time>
      </trkpt>
      <trkpt lat="45.93599" lon="1.29819">
        <ele>395.3</ele>
        <time>2025-06-16T14:26:44Z</time>
      </trkpt>
      <trkpt lat="45.93606" lon="1.2982">
        <ele>394.9</ele>
        <time>2025-06-16T14:26:45Z</time>
      </trkpt>
      <trkpt lat="45.93612" lon="1.29821">
        <ele>394.5</ele>
        <time>2025-06-16T14:26:46Z</time>
      </trkpt>
      <trkpt lat="45.93619" lon="1.29822">
        <ele>394.1</ele>
        <time>2025-06-16T14:26:47Z</time>
      </trkpt>
      <trkpt lat="45.93624" lon="1.29823">
        <ele>393.6</ele>
        <time>2025-06-16T14:26:48Z</time>
      </trkpt>
      <trkpt lat="45.9363" lon="1.29824">
        <ele>393.1</ele>
        <time>2025-06-16T14:26:49Z</time>
      </trkpt>
      <trkpt lat="45.93636" lon="1.29823">
        <ele>392.6</ele>
        <time>2025-06-16T14:26:50Z</time>
      </trkpt>
      <trkpt lat="45.93642" lon="1.29824">
        <ele>392.1</ele>
        <time>2025-06-16T14:26:51Z</time>
      </trkpt>
      <trkpt lat="45.93648" lon="1.29828">
        <ele>391.5</ele>
        <time>2025-06-16T14:26:52Z</time>
      </trkpt>
      <trkpt lat="45.93654" lon="1.29832">
        <ele>390.9</ele>
        <time>2025-06-16T14:26:53Z</time>
      </trkpt>
      <trkpt lat="45.93659" lon="1.29833">
        <ele>390.4</ele>
        <time>2025-06-16T14:26:54Z</time>
      </trkpt>
      <trkpt lat="45.93664" lon="1.29835">
        <ele>389.9</ele>
        <time>2025-06-16T14:26:55Z</time>
      </trkpt>
      <trkpt lat="45.93668" lon="1.29838">
        <ele>389.5</ele>
        <time>2025-06-16T14:26:56Z</time>
      </trkpt>
      <trkpt lat="45.93671" lon="1.29839">
        <ele>389.2</ele>
        <time>2025-06-16T14:26:57Z</time>
      </trkpt>
      <trkpt lat="45.93675" lon="1.2984">
        <ele>388.8</ele>
        <time>2025-06-16T14:26:58Z</time>
      </trkpt>
      <trkpt lat="45.93678" lon="1.29841">
        <ele>388.5</ele>
        <time>2025-06-16T14:26:59Z</time>
      </trkpt>
      <trkpt lat="45.93681" lon="1.29842">
        <ele>388.1</ele>
        <time>2025-06-16T14:27:00Z</time>
      </trkpt>
      <trkpt lat="45.93685" lon="1.29844">
        <ele>387.7</ele>
        <time>2025-06-16T14:27:01Z</time>
      </trkpt>
      <trkpt lat="45.93688" lon="1.29846">
        <ele>387.3</ele>
        <time>2025-06-16T14:27:02Z</time>
      </trkpt>
      <trkpt lat="45.93692" lon="1.29846">
        <ele>386.9</ele>
        <time>2025-06-16T14:27:03Z</time>
      </trkpt>
      <trkpt lat="45.93696" lon="1.29846">
        <ele>386.4</ele>
        <time>2025-06-16T14:27:04Z</time>
      </trkpt>
      <trkpt lat="45.937" lon="1.29846">
        <ele>385.9</ele>
        <time>2025-06-16T14:27:05Z</time>
      </trkpt>
      <trkpt lat="45.93704" lon="1.29846">
        <ele>385.6</ele>
        <time>2025-06-16T14:27:06Z</time>
      </trkpt>
      <trkpt lat="45.93708" lon="1.29846">
        <ele>385.3</ele>
        <time>2025-06-16T14:27:07Z</time>
      </trkpt>
      <trkpt lat="45.93712" lon="1.29846">
        <ele>385</ele>
        <time>2025-06-16T14:27:08Z</time>
      </trkpt>
      <trkpt lat="45.93717" lon="1.29843">
        <ele>384.6</ele>
        <time>2025-06-16T14:27:09Z</time>
      </trkpt>
      <trkpt lat="45.9372" lon="1.29837">
        <ele>384.3</ele>
        <time>2025-06-16T14:27:10Z</time>
      </trkpt>
      <trkpt lat="45.93723" lon="1.29831">
        <ele>384</ele>
        <time>2025-06-16T14:27:11Z</time>
      </trkpt>
      <trkpt lat="45.93727" lon="1.29825">
        <ele>383.8</ele>
        <time>2025-06-16T14:27:12Z</time>
      </trkpt>
      <trkpt lat="45.9373" lon="1.29818">
        <ele>383.7</ele>
        <time>2025-06-16T14:27:13Z</time>
      </trkpt>
      <trkpt lat="45.93733" lon="1.29813">
        <ele>383.6</ele>
        <time>2025-06-16T14:27:14Z</time>
      </trkpt>
      <trkpt lat="45.93736" lon="1.29807">
        <ele>383.6</ele>
        <time>2025-06-16T14:27:15Z</time>
      </trkpt>
      <trkpt lat="45.93739" lon="1.298">
        <ele>383.6</ele>
        <time>2025-06-16T14:27:16Z</time>
      </trkpt>
      <trkpt lat="45.93742" lon="1.29794">
        <ele>383.7</ele>
        <time>2025-06-16T14:27:17Z</time>
      </trkpt>
      <trkpt lat="45.93745" lon="1.29787">
        <ele>383.8</ele>
        <time>2025-06-16T14:27:18Z</time>
      </trkpt>
      <trkpt lat="45.93747" lon="1.29781">
        <ele>383.9</ele>
        <time>2025-06-16T14:27:19Z</time>
      </trkpt>
      <trkpt lat="45.93749" lon="1.29775">
        <ele>384.1</ele>
        <time>2025-06-16T14:27:20Z</time>
      </trkpt>
      <trkpt lat="45.9375" lon="1.2977">
        <ele>384.3</ele>
        <time>2025-06-16T14:27:21Z</time>
      </trkpt>
      <trkpt lat="45.93751" lon="1.29766">
        <ele>384.4</ele>
        <time>2025-06-16T14:27:22Z</time>
      </trkpt>
      <trkpt lat="45.93754" lon="1.29762">
        <ele>384.5</ele>
        <time>2025-06-16T14:27:23Z</time>
      </trkpt>
      <trkpt lat="45.93756" lon="1.29758">
        <ele>384.5</ele>
        <time>2025-06-16T14:27:24Z</time>
      </trkpt>
      <trkpt lat="45.93757" lon="1.29754">
        <ele>384.5</ele>
        <time>2025-06-16T14:27:25Z</time>
      </trkpt>
      <trkpt lat="45.93758" lon="1.29749">
        <ele>384.5</ele>
        <time>2025-06-16T14:27:26Z</time>
      </trkpt>
      <trkpt lat="45.93759" lon="1.29747">
        <ele>384.6</ele>
        <time>2025-06-16T14:27:27Z</time>
      </trkpt>
      <trkpt lat="45.93759" lon="1.29742">
        <ele>384.6</ele>
        <time>2025-06-16T14:27:28Z</time>
      </trkpt>
      <trkpt lat="45.9376" lon="1.2974">
        <ele>384.6</ele>
        <time>2025-06-16T14:27:29Z</time>
      </trkpt>
      <trkpt lat="45.9376" lon="1.29736">
        <ele>384.6</ele>
        <time>2025-06-16T14:27:30Z</time>
      </trkpt>
      <trkpt lat="45.9376" lon="1.29735">
        <ele>384.6</ele>
        <time>2025-06-16T14:27:31Z</time>
      </trkpt>
      <trkpt lat="45.9376" lon="1.29732">
        <ele>384.6</ele>
        <time>2025-06-16T14:27:32Z</time>
      </trkpt>
      <trkpt lat="45.9376" lon="1.2973">
        <ele>384.6</ele>
        <time>2025-06-16T14:27:33Z</time>
      </trkpt>
      <trkpt lat="45.9376" lon="1.29728">
        <ele>384.6</ele>
        <time>2025-06-16T14:27:34Z</time>
      </trkpt>
      <trkpt lat="45.9376" lon="1.29728">
        <ele>384.6</ele>
        <time>2025-06-16T14:27:35Z</time>
      </trkpt>
      <trkpt lat="45.9376" lon="1.29728">
        <ele>384.6</ele>
        <time>2025-06-16T14:27:36Z</time>
      </trkpt>
      <trkpt lat="45.9376" lon="1.29728">
        <ele>384.6</ele>
        <time>2025-06-16T14:27:37Z</time>
      </trkpt>
      <trkpt lat="45.9376" lon="1.29728">
        <ele>384.6</ele>
        <time>2025-06-16T14:27:38Z</time>
      </trkpt>
      <trkpt lat="45.9376" lon="1.29728">
        <ele>384.6</ele>
        <time>2025-06-16T14:27:39Z</time>
      </trkpt>
      <trkpt lat="45.9376" lon="1.29728">
        <ele>384.6</ele>
        <time>2025-06-16T14:27:40Z</time>
      </trkpt>
      <trkpt lat="45.9376" lon="1.29728">
        <ele>384.6</ele>
        <time>2025-06-16T14:27:41Z</time>
      </trkpt>
      <trkpt lat="45.9376" lon="1.29728">
        <ele>384.6</ele>
        <time>2025-06-16T14:27:42Z</time>
      </trkpt>
      <trkpt lat="45.9376" lon="1.29728">
        <ele>384.6</ele>
        <time>2025-06-16T14:27:43Z</time>
      </trkpt>
      <trkpt lat="45.9376" lon="1.29728">
        <ele>384.6</ele>
        <time>2025-06-16T14:27:44Z</time>
      </trkpt>
      <trkpt lat="45.9376" lon="1.29728">
        <ele>384.6</ele>
        <time>2025-06-16T14:27:45Z</time>
      </trkpt>
      <trkpt lat="45.9376" lon="1.29728">
        <ele>384.6</ele>
        <time>2025-06-16T14:27:46Z</time>
      </trkpt>
      <trkpt lat="45.93761" lon="1.29728">
        <ele>384.6</ele>
        <time>2025-06-16T14:27:47Z</time>
      </trkpt>
      <trkpt lat="45.93761" lon="1.29729">
        <ele>384.6</ele>
        <time>2025-06-16T14:27:48Z</time>
      </trkpt>
      <trkpt lat="45.93761" lon="1.29729">
        <ele>384.6</ele>
        <time>2025-06-16T14:27:49Z</time>
      </trkpt>
      <trkpt lat="45.93761" lon="1.29729">
        <ele>384.6</ele>
        <time>2025-06-16T14:27:50Z</time>
      </trkpt>
      <trkpt lat="45.93761" lon="1.29729">
        <ele>384.6</ele>
        <time>2025-06-16T14:27:51Z</time>
      </trkpt>
      <trkpt lat="45.93761" lon="1.29729">
        <ele>384.7</ele>
        <time>2025-06-16T14:27:52Z</time>
      </trkpt>
      <trkpt lat="45.93761" lon="1.29729">
        <ele>384.7</ele>
        <time>2025-06-16T14:27:53Z</time>
      </trkpt>
      <trkpt lat="45.93761" lon="1.29729">
        <ele>384.7</ele>
        <time>2025-06-16T14:27:54Z</time>
      </trkpt>
      <trkpt lat="45.93761" lon="1.29729">
        <ele>384.7</ele>
        <time>2025-06-16T14:27:55Z</time>
      </trkpt>
      <trkpt lat="45.93761" lon="1.29729">
        <ele>384.7</ele>
        <time>2025-06-16T14:27:56Z</time>
      </trkpt>
      <trkpt lat="45.93761" lon="1.29729">
        <ele>384.7</ele>
        <time>2025-06-16T14:27:57Z</time>
      </trkpt>
      <trkpt lat="45.93761" lon="1.29729">
        <ele>384.7</ele>
        <time>2025-06-16T14:27:58Z</time>
      </trkpt>
      <trkpt lat="45.93761" lon="1.29729">
        <ele>384.7</ele>
        <time>2025-06-16T14:27:59Z</time>
      </trkpt>
      <trkpt lat="45.93761" lon="1.29729">
        <ele>384.7</ele>
        <time>2025-06-16T14:28:00Z</time>
      </trkpt>
      <trkpt lat="45.93761" lon="1.29729">
        <ele>384.7</ele>
        <time>2025-06-16T14:28:01Z</time>
      </trkpt>
      <trkpt lat="45.93761" lon="1.29729">
        <ele>384.7</ele>
        <time>2025-06-16T14:28:02Z</time>
      </trkpt>
      <trkpt lat="45.93761" lon="1.29729">
        <ele>384.7</ele>
        <time>2025-06-16T14:28:03Z</time>
      </trkpt>
      <trkpt lat="45.93761" lon="1.29729">
        <ele>384.7</ele>
        <time>2025-06-16T14:28:04Z</time>
      </trkpt>
      <trkpt lat="45.93761" lon="1.29729">
        <ele>384.7</ele>
        <time>2025-06-16T14:28:05Z</time>
      </trkpt>
      <trkpt lat="45.93761" lon="1.2973">
        <ele>384.7</ele>
        <time>2025-06-16T14:28:06Z</time>
      </trkpt>
      <trkpt lat="45.93761" lon="1.2973">
        <ele>384.7</ele>
        <time>2025-06-16T14:28:07Z</time>
      </trkpt>
      <trkpt lat="45.93761" lon="1.2973">
        <ele>384.7</ele>
        <time>2025-06-16T14:28:08Z</time>
      </trkpt>
      <trkpt lat="45.93761" lon="1.2973">
        <ele>384.7</ele>
        <time>2025-06-16T14:28:09Z</time>
      </trkpt>
      <trkpt lat="45.93761" lon="1.2973">
        <ele>384.7</ele>
        <time>2025-06-16T14:28:10Z</time>
      </trkpt>
      <trkpt lat="45.93761" lon="1.2973">
        <ele>384.7</ele>
        <time>2025-06-16T14:28:11Z</time>
      </trkpt>
      <trkpt lat="45.93761" lon="1.2973">
        <ele>384.7</ele>
        <time>2025-06-16T14:28:12Z</time>
      </trkpt>
      <trkpt lat="45.93761" lon="1.2973">
        <ele>384.7</ele>
        <time>2025-06-16T14:28:13Z</time>
      </trkpt>
      <trkpt lat="45.93761" lon="1.2973">
        <ele>384.7</ele>
        <time>2025-06-16T14:28:14Z</time>
      </trkpt>
      <trkpt lat="45.93761" lon="1.2973">
        <ele>384.7</ele>
        <time>2025-06-16T14:28:15Z</time>
      </trkpt>
      <trkpt lat="45.93761" lon="1.2973">
        <ele>384.7</ele>
        <time>2025-06-16T14:28:16Z</time>
      </trkpt>
      <trkpt lat="45.93762" lon="1.2973">
        <ele>384.7</ele>
        <time>2025-06-16T14:28:17Z</time>
      </trkpt>
      <trkpt lat="45.93762" lon="1.2973">
        <ele>384.7</ele>
        <time>2025-06-16T14:28:18Z</time>
      </trkpt>
      <trkpt lat="45.93762" lon="1.2973">
        <ele>384.7</ele>
        <time>2025-06-16T14:28:19Z</time>
      </trkpt>
      <trkpt lat="45.93762" lon="1.2973">
        <ele>384.7</ele>
        <time>2025-06-16T14:28:20Z</time>
      </trkpt>
      <trkpt lat="45.93762" lon="1.2973">
        <ele>384.7</ele>
        <time>2025-06-16T14:28:21Z</time>
      </trkpt>
      <trkpt lat="45.93762" lon="1.2973">
        <ele>384.7</ele>
        <time>2025-06-16T14:28:22Z</time>
      </trkpt>
      <trkpt lat="45.93762" lon="1.29731">
        <ele>384.7</ele>
        <time>2025-06-16T14:28:23Z</time>
      </trkpt>
      <trkpt lat="45.93762" lon="1.29731">
        <ele>384.7</ele>
        <time>2025-06-16T14:28:24Z</time>
      </trkpt>
      <trkpt lat="45.93762" lon="1.29731">
        <ele>384.7</ele>
        <time>2025-06-16T14:28:25Z</time>
      </trkpt>
      <trkpt lat="45.93762" lon="1.29731">
        <ele>384.7</ele>
        <time>2025-06-16T14:28:26Z</time>
      </trkpt>
      <trkpt lat="45.93762" lon="1.29731">
        <ele>384.7</ele>
        <time>2025-06-16T14:28:27Z</time>
      </trkpt>
      <trkpt lat="45.93762" lon="1.29731">
        <ele>384.7</ele>
        <time>2025-06-16T14:28:28Z</time>
      </trkpt>
      <trkpt lat="45.93762" lon="1.29731">
        <ele>384.7</ele>
        <time>2025-06-16T14:28:29Z</time>
      </trkpt>
      <trkpt lat="45.93762" lon="1.29731">
        <ele>384.7</ele>
        <time>2025-06-16T14:28:30Z</time>
      </trkpt>
      <trkpt lat="45.93762" lon="1.29731">
        <ele>384.7</ele>
        <time>2025-06-16T14:28:31Z</time>
      </trkpt>
      <trkpt lat="45.93762" lon="1.29731">
        <ele>384.7</ele>
        <time>2025-06-16T14:28:32Z</time>
      </trkpt>
      <trkpt lat="45.93762" lon="1.29731">
        <ele>384.7</ele>
        <time>2025-06-16T14:28:33Z</time>
      </trkpt>
      <trkpt lat="45.93762" lon="1.29731">
        <ele>384.7</ele>
        <time>2025-06-16T14:28:34Z</time>
      </trkpt>
      <trkpt lat="45.93762" lon="1.29731">
        <ele>384.7</ele>
        <time>2025-06-16T14:28:35Z</time>
      </trkpt>
      <trkpt lat="45.93762" lon="1.29731">
        <ele>384.7</ele>
        <time>2025-06-16T14:28:36Z</time>
      </trkpt>
      <trkpt lat="45.93762" lon="1.29731">
        <ele>384.7</ele>
        <time>2025-06-16T14:28:37Z</time>
      </trkpt>
      <trkpt lat="45.93762" lon="1.29731">
        <ele>384.7</ele>
        <time>2025-06-16T14:28:38Z</time>
      </trkpt>
      <trkpt lat="45.93762" lon="1.29731">
        <ele>384.7</ele>
        <time>2025-06-16T14:28:39Z</time>
      </trkpt>
      <trkpt lat="45.93762" lon="1.29731">
        <ele>384.7</ele>
        <time>2025-06-16T14:28:40Z</time>
      </trkpt>
      <trkpt lat="45.93762" lon="1.29732">
        <ele>384.7</ele>
        <time>2025-06-16T14:28:41Z</time>
      </trkpt>
      <trkpt lat="45.93762" lon="1.29732">
        <ele>384.7</ele>
        <time>2025-06-16T14:28:42Z</time>
      </trkpt>
      <trkpt lat="45.93762" lon="1.29732">
        <ele>384.7</ele>
        <time>2025-06-16T14:28:43Z</time>
      </trkpt>
      <trkpt lat="45.93762" lon="1.29732">
        <ele>384.8</ele>
        <time>2025-06-16T14:28:44Z</time>
      </trkpt>
      <trkpt lat="45.93762" lon="1.29732">
        <ele>384.8</ele>
        <time>2025-06-16T14:28:45Z</time>
      </trkpt>
      <trkpt lat="45.93762" lon="1.29732">
        <ele>384.8</ele>
        <time>2025-06-16T14:28:46Z</time>
      </trkpt>
      <trkpt lat="45.93762" lon="1.29732">
        <ele>384.8</ele>
        <time>2025-06-16T14:28:47Z</time>
      </trkpt>
      <trkpt lat="45.93763" lon="1.29732">
        <ele>384.8</ele>
        <time>2025-06-16T14:28:48Z</time>
      </trkpt>
      <trkpt lat="45.93763" lon="1.29732">
        <ele>384.8</ele>
        <time>2025-06-16T14:28:49Z</time>
      </trkpt>
      <trkpt lat="45.93763" lon="1.29732">
        <ele>384.8</ele>
        <time>2025-06-16T14:28:50Z</time>
      </trkpt>
      <trkpt lat="45.93763" lon="1.29732">
        <ele>384.8</ele>
        <time>2025-06-16T14:28:51Z</time>
      </trkpt>
      <trkpt lat="45.93763" lon="1.29732">
        <ele>384.8</ele>
        <time>2025-06-16T14:28:52Z</time>
      </trkpt>
      <trkpt lat="45.93763" lon="1.29732">
        <ele>384.8</ele>
        <time>2025-06-16T14:28:53Z</time>
      </trkpt>
      <trkpt lat="45.93763" lon="1.29732">
        <ele>384.8</ele>
        <time>2025-06-16T14:28:54Z</time>
      </trkpt>
      <trkpt lat="45.93763" lon="1.29732">
        <ele>384.8</ele>
        <time>2025-06-16T14:28:55Z</time>
      </trkpt>
      <trkpt lat="45.93763" lon="1.29732">
        <ele>384.8</ele>
        <time>2025-06-16T14:28:56Z</time>
      </trkpt>
      <trkpt lat="45.93763" lon="1.29732">
        <ele>384.8</ele>
        <time>2025-06-16T14:28:57Z</time>
      </trkpt>
      <trkpt lat="45.93763" lon="1.29733">
        <ele>384.8</ele>
        <time>2025-06-16T14:28:58Z</time>
      </trkpt>
      <trkpt lat="45.93763" lon="1.29733">
        <ele>384.8</ele>
        <time>2025-06-16T14:28:59Z</time>
      </trkpt>
      <trkpt lat="45.93763" lon="1.29733">
        <ele>384.8</ele>
        <time>2025-06-16T14:29:00Z</time>
      </trkpt>
      <trkpt lat="45.93763" lon="1.29733">
        <ele>384.8</ele>
        <time>2025-06-16T14:29:01Z</time>
      </trkpt>
      <trkpt lat="45.93763" lon="1.29733">
        <ele>384.8</ele>
        <time>2025-06-16T14:29:02Z</time>
      </trkpt>
      <trkpt lat="45.93763" lon="1.29733">
        <ele>384.8</ele>
        <time>2025-06-16T14:29:03Z</time>
      </trkpt>
      <trkpt lat="45.93763" lon="1.29733">
        <ele>384.8</ele>
        <time>2025-06-16T14:29:04Z</time>
      </trkpt>
      <trkpt lat="45.93764" lon="1.29737">
        <ele>384.9</ele>
        <time>2025-06-16T14:29:05Z</time>
      </trkpt>
      <trkpt lat="45.93764" lon="1.29739">
        <ele>384.9</ele>
        <time>2025-06-16T14:29:06Z</time>
      </trkpt>
      <trkpt lat="45.93765" lon="1.29743">
        <ele>385</ele>
        <time>2025-06-16T14:29:07Z</time>
      </trkpt>
      <trkpt lat="45.93765" lon="1.29745">
        <ele>385</ele>
        <time>2025-06-16T14:29:08Z</time>
      </trkpt>
      <trkpt lat="45.93766" lon="1.29749">
        <ele>385.1</ele>
        <time>2025-06-16T14:29:09Z</time>
      </trkpt>
      <trkpt lat="45.93766" lon="1.29751">
        <ele>385.2</ele>
        <time>2025-06-16T14:29:10Z</time>
      </trkpt>
      <trkpt lat="45.93767" lon="1.29755">
        <ele>385.3</ele>
        <time>2025-06-16T14:29:11Z</time>
      </trkpt>
      <trkpt lat="45.93767" lon="1.29756">
        <ele>385.3</ele>
        <time>2025-06-16T14:29:12Z</time>
      </trkpt>
      <trkpt lat="45.93769" lon="1.2976">
        <ele>385.4</ele>
        <time>2025-06-16T14:29:13Z</time>
      </trkpt>
      <trkpt lat="45.93769" lon="1.29761">
        <ele>385.4</ele>
        <time>2025-06-16T14:29:14Z</time>
      </trkpt>
      <trkpt lat="45.93771" lon="1.29766">
        <ele>385.5</ele>
        <time>2025-06-16T14:29:15Z</time>
      </trkpt>
      <trkpt lat="45.93772" lon="1.29769">
        <ele>385.6</ele>
        <time>2025-06-16T14:29:16Z</time>
      </trkpt>
      <trkpt lat="45.93773" lon="1.29772">
        <ele>385.6</ele>
        <time>2025-06-16T14:29:18Z</time>
      </trkpt>
      <trkpt lat="45.93774" lon="1.29776">
        <ele>385.7</ele>
        <time>2025-06-16T14:29:19Z</time>
      </trkpt>
      <trkpt lat="45.93775" lon="1.29777">
        <ele>385.7</ele>
        <time>2025-06-16T14:29:20Z</time>
      </trkpt>
      <trkpt lat="45.93776" lon="1.29781">
        <ele>385.8</ele>
        <time>2025-06-16T14:29:21Z</time>
      </trkpt>
      <trkpt lat="45.93779" lon="1.29788">
        <ele>386</ele>
        <time>2025-06-16T14:29:22Z</time>
      </trkpt>
      <trkpt lat="45.9378" lon="1.29791">
        <ele>386</ele>
        <time>2025-06-16T14:29:24Z</time>
      </trkpt>
      <trkpt lat="45.93782" lon="1.29795">
        <ele>386.1</ele>
        <time>2025-06-16T14:29:25Z</time>
      </trkpt>
      <trkpt lat="45.93784" lon="1.29799">
        <ele>386.2</ele>
        <time>2025-06-16T14:29:26Z</time>
      </trkpt>
      <trkpt lat="45.93785" lon="1.298">
        <ele>386.2</ele>
        <time>2025-06-16T14:29:27Z</time>
      </trkpt>
      <trkpt lat="45.93787" lon="1.29804">
        <ele>386.3</ele>
        <time>2025-06-16T14:29:28Z</time>
      </trkpt>
      <trkpt lat="45.93788" lon="1.29805">
        <ele>386.4</ele>
        <time>2025-06-16T14:29:29Z</time>
      </trkpt>
      <trkpt lat="45.93791" lon="1.2981">
        <ele>386.5</ele>
        <time>2025-06-16T14:29:30Z</time>
      </trkpt>
      <trkpt lat="45.93792" lon="1.29812">
        <ele>386.5</ele>
        <time>2025-06-16T14:29:31Z</time>
      </trkpt>
      <trkpt lat="45.93793" lon="1.29815">
        <ele>386.6</ele>
        <time>2025-06-16T14:29:32Z</time>
      </trkpt>
      <trkpt lat="45.93794" lon="1.29819">
        <ele>386.7</ele>
        <time>2025-06-16T14:29:33Z</time>
      </trkpt>
      <trkpt lat="45.93796" lon="1.29823">
        <ele>386.8</ele>
        <time>2025-06-16T14:29:34Z</time>
      </trkpt>
      <trkpt lat="45.93798" lon="1.29826">
        <ele>386.8</ele>
        <time>2025-06-16T14:29:35Z</time>
      </trkpt>
      <trkpt lat="45.938" lon="1.2983">
        <ele>387</ele>
        <time>2025-06-16T14:29:36Z</time>
      </trkpt>
      <trkpt lat="45.93801" lon="1.29832">
        <ele>387</ele>
        <time>2025-06-16T14:29:37Z</time>
      </trkpt>
      <trkpt lat="45.93802" lon="1.29835">
        <ele>387.1</ele>
        <time>2025-06-16T14:29:38Z</time>
      </trkpt>
      <trkpt lat="45.93805" lon="1.2984">
        <ele>387.2</ele>
        <time>2025-06-16T14:29:39Z</time>
      </trkpt>
      <trkpt lat="45.93806" lon="1.29841">
        <ele>387.3</ele>
        <time>2025-06-16T14:29:40Z</time>
      </trkpt>
      <trkpt lat="45.93808" lon="1.29845">
        <ele>387.4</ele>
        <time>2025-06-16T14:29:41Z</time>
      </trkpt>
      <trkpt lat="45.9381" lon="1.29848">
        <ele>387.6</ele>
        <time>2025-06-16T14:29:42Z</time>
      </trkpt>
      <trkpt lat="45.93811" lon="1.29852">
        <ele>387.7</ele>
        <time>2025-06-16T14:29:43Z</time>
      </trkpt>
      <trkpt lat="45.93813" lon="1.29855">
        <ele>387.8</ele>
        <time>2025-06-16T14:29:44Z</time>
      </trkpt>
      <trkpt lat="45.93815" lon="1.29858">
        <ele>388</ele>
        <time>2025-06-16T14:29:45Z</time>
      </trkpt>
      <trkpt lat="45.93816" lon="1.29862">
        <ele>388.1</ele>
        <time>2025-06-16T14:29:46Z</time>
      </trkpt>
      <trkpt lat="45.93819" lon="1.29866">
        <ele>388.2</ele>
        <time>2025-06-16T14:29:47Z</time>
      </trkpt>
      <trkpt lat="45.93819" lon="1.29868">
        <ele>388.2</ele>
        <time>2025-06-16T14:29:48Z</time>
      </trkpt>
      <trkpt lat="45.93821" lon="1.29873">
        <ele>388.4</ele>
        <time>2025-06-16T14:29:49Z</time>
      </trkpt>
      <trkpt lat="45.93822" lon="1.29875">
        <ele>388.4</ele>
        <time>2025-06-16T14:29:50Z</time>
      </trkpt>
      <trkpt lat="45.93824" lon="1.29879">
        <ele>388.6</ele>
        <time>2025-06-16T14:29:51Z</time>
      </trkpt>
      <trkpt lat="45.93825" lon="1.29881">
        <ele>388.6</ele>
        <time>2025-06-16T14:29:52Z</time>
      </trkpt>
      <trkpt lat="45.93827" lon="1.29886">
        <ele>388.8</ele>
        <time>2025-06-16T14:29:53Z</time>
      </trkpt>
      <trkpt lat="45.93827" lon="1.29887">
        <ele>388.8</ele>
        <time>2025-06-16T14:29:54Z</time>
      </trkpt>
      <trkpt lat="45.93829" lon="1.29892">
        <ele>389</ele>
        <time>2025-06-16T14:29:55Z</time>
      </trkpt>
      <trkpt lat="45.9383" lon="1.29894">
        <ele>389</ele>
        <time>2025-06-16T14:29:56Z</time>
      </trkpt>
      <trkpt lat="45.93832" lon="1.29899">
        <ele>389.2</ele>
        <time>2025-06-16T14:29:57Z</time>
      </trkpt>
      <trkpt lat="45.93832" lon="1.299">
        <ele>389.2</ele>
        <time>2025-06-16T14:29:58Z</time>
      </trkpt>
      <trkpt lat="45.93834" lon="1.29906">
        <ele>389.5</ele>
        <time>2025-06-16T14:29:59Z</time>
      </trkpt>
      <trkpt lat="45.93834" lon="1.29908">
        <ele>389.6</ele>
        <time>2025-06-16T14:30:00Z</time>
      </trkpt>
      <trkpt lat="45.93835" lon="1.29911">
        <ele>389.7</ele>
        <time>2025-06-16T14:30:01Z</time>
      </trkpt>
      <trkpt lat="45.93836" lon="1.29917">
        <ele>390</ele>
        <time>2025-06-16T14:30:02Z</time>
      </trkpt>
      <trkpt lat="45.93836" lon="1.2992">
        <ele>390.2</ele>
        <time>2025-06-16T14:30:03Z</time>
      </trkpt>
      <trkpt lat="45.93836" lon="1.29926">
        <ele>390.4</ele>
        <time>2025-06-16T14:30:04Z</time>
      </trkpt>
      <trkpt lat="45.93837" lon="1.29931">
        <ele>390.7</ele>
        <time>2025-06-16T14:30:05Z</time>
      </trkpt>
      <trkpt lat="45.93838" lon="1.29936">
        <ele>391</ele>
        <time>2025-06-16T14:30:06Z</time>
      </trkpt>
      <trkpt lat="45.93838" lon="1.29941">
        <ele>391.2</ele>
        <time>2025-06-16T14:30:07Z</time>
      </trkpt>
      <trkpt lat="45.93839" lon="1.29945">
        <ele>391.4</ele>
        <time>2025-06-16T14:30:08Z</time>
      </trkpt>
      <trkpt lat="45.9384" lon="1.29953">
        <ele>391.8</ele>
        <time>2025-06-16T14:30:09Z</time>
      </trkpt>
      <trkpt lat="45.93841" lon="1.29957">
        <ele>392</ele>
        <time>2025-06-16T14:30:11Z</time>
      </trkpt>
      <trkpt lat="45.93841" lon="1.29961">
        <ele>392.2</ele>
        <time>2025-06-16T14:30:12Z</time>
      </trkpt>
      <trkpt lat="45.93841" lon="1.29965">
        <ele>392.4</ele>
        <time>2025-06-16T14:30:13Z</time>
      </trkpt>
      <trkpt lat="45.93842" lon="1.29969">
        <ele>392.6</ele>
        <time>2025-06-16T14:30:14Z</time>
      </trkpt>
      <trkpt lat="45.93842" lon="1.29974">
        <ele>392.9</ele>
        <time>2025-06-16T14:30:15Z</time>
      </trkpt>
      <trkpt lat="45.93843" lon="1.29976">
        <ele>393</ele>
        <time>2025-06-16T14:30:16Z</time>
      </trkpt>
      <trkpt lat="45.93844" lon="1.29984">
        <ele>393.3</ele>
        <time>2025-06-16T14:30:17Z</time>
      </trkpt>
      <trkpt lat="45.93844" lon="1.29988">
        <ele>393.5</ele>
        <time>2025-06-16T14:30:19Z</time>
      </trkpt>
      <trkpt lat="45.93844" lon="1.29992">
        <ele>393.7</ele>
        <time>2025-06-16T14:30:20Z</time>
      </trkpt>
      <trkpt lat="45.93844" lon="1.29996">
        <ele>393.9</ele>
        <time>2025-06-16T14:30:21Z</time>
      </trkpt>
      <trkpt lat="45.93845" lon="1.3">
        <ele>394.1</ele>
        <time>2025-06-16T14:30:22Z</time>
      </trkpt>
      <trkpt lat="45.93846" lon="1.30005">
        <ele>394.3</ele>
        <time>2025-06-16T14:30:23Z</time>
      </trkpt>
      <trkpt lat="45.93846" lon="1.30007">
        <ele>394.4</ele>
        <time>2025-06-16T14:30:24Z</time>
      </trkpt>
      <trkpt lat="45.93846" lon="1.30011">
        <ele>394.6</ele>
        <time>2025-06-16T14:30:25Z</time>
      </trkpt>
      <trkpt lat="45.93847" lon="1.30015">
        <ele>394.7</ele>
        <time>2025-06-16T14:30:26Z</time>
      </trkpt>
      <trkpt lat="45.93848" lon="1.30019">
        <ele>394.9</ele>
        <time>2025-06-16T14:30:27Z</time>
      </trkpt>
      <trkpt lat="45.93848" lon="1.30023">
        <ele>395</ele>
        <time>2025-06-16T14:30:28Z</time>
      </trkpt>
      <trkpt lat="45.93849" lon="1.30027">
        <ele>395.2</ele>
        <time>2025-06-16T14:30:29Z</time>
      </trkpt>
      <trkpt lat="45.9385" lon="1.30032">
        <ele>395.3</ele>
        <time>2025-06-16T14:30:30Z</time>
      </trkpt>
      <trkpt lat="45.9385" lon="1.30034">
        <ele>395.4</ele>
        <time>2025-06-16T14:30:31Z</time>
      </trkpt>
      <trkpt lat="45.93851" lon="1.30038">
        <ele>395.6</ele>
        <time>2025-06-16T14:30:32Z</time>
      </trkpt>
      <trkpt lat="45.93852" lon="1.3004">
        <ele>395.6</ele>
        <time>2025-06-16T14:30:33Z</time>
      </trkpt>
      <trkpt lat="45.93852" lon="1.30042">
        <ele>395.7</ele>
        <time>2025-06-16T14:30:34Z</time>
      </trkpt>
      <trkpt lat="45.93853" lon="1.30045">
        <ele>395.8</ele>
        <time>2025-06-16T14:30:35Z</time>
      </trkpt>
      <trkpt lat="45.93854" lon="1.30049">
        <ele>395.9</ele>
        <time>2025-06-16T14:30:36Z</time>
      </trkpt>
      <trkpt lat="45.93855" lon="1.30051">
        <ele>396.1</ele>
        <time>2025-06-16T14:30:38Z</time>
      </trkpt>
      <trkpt lat="45.93857" lon="1.30052">
        <ele>396.2</ele>
        <time>2025-06-16T14:30:39Z</time>
      </trkpt>
      <trkpt lat="45.9386" lon="1.30049">
        <ele>396.3</ele>
        <time>2025-06-16T14:30:40Z</time>
      </trkpt>
      <trkpt lat="45.9386" lon="1.30048">
        <ele>396.4</ele>
        <time>2025-06-16T14:30:41Z</time>
      </trkpt>
      <trkpt lat="45.93863" lon="1.30047">
        <ele>396.5</ele>
        <time>2025-06-16T14:30:42Z</time>
      </trkpt>
      <trkpt lat="45.93866" lon="1.30046">
        <ele>396.6</ele>
        <time>2025-06-16T14:30:43Z</time>
      </trkpt>
      <trkpt lat="45.93868" lon="1.30044">
        <ele>396.7</ele>
        <time>2025-06-16T14:30:44Z</time>
      </trkpt>
      <trkpt lat="45.93872" lon="1.30043">
        <ele>397</ele>
        <time>2025-06-16T14:30:45Z</time>
      </trkpt>
      <trkpt lat="45.93873" lon="1.30042">
        <ele>397</ele>
        <time>2025-06-16T14:30:46Z</time>
      </trkpt>
      <trkpt lat="45.93876" lon="1.30042">
        <ele>397.2</ele>
        <time>2025-06-16T14:30:47Z</time>
      </trkpt>
      <trkpt lat="45.9388" lon="1.30039">
        <ele>397.4</ele>
        <time>2025-06-16T14:30:48Z</time>
      </trkpt>
      <trkpt lat="45.93881" lon="1.30038">
        <ele>397.5</ele>
        <time>2025-06-16T14:30:49Z</time>
      </trkpt>
      <trkpt lat="45.93884" lon="1.30036">
        <ele>397.7</ele>
        <time>2025-06-16T14:30:50Z</time>
      </trkpt>
      <trkpt lat="45.93885" lon="1.30035">
        <ele>397.8</ele>
        <time>2025-06-16T14:30:51Z</time>
      </trkpt>
      <trkpt lat="45.93888" lon="1.30033">
        <ele>398.1</ele>
        <time>2025-06-16T14:30:52Z</time>
      </trkpt>
      <trkpt lat="45.93889" lon="1.30033">
        <ele>398.2</ele>
        <time>2025-06-16T14:30:53Z</time>
      </trkpt>
      <trkpt lat="45.93893" lon="1.30031">
        <ele>398.5</ele>
        <time>2025-06-16T14:30:54Z</time>
      </trkpt>
      <trkpt lat="45.93894" lon="1.30031">
        <ele>398.6</ele>
        <time>2025-06-16T14:30:55Z</time>
      </trkpt>
      <trkpt lat="45.93897" lon="1.3003">
        <ele>398.8</ele>
        <time>2025-06-16T14:30:56Z</time>
      </trkpt>
      <trkpt lat="45.93898" lon="1.3003">
        <ele>398.9</ele>
        <time>2025-06-16T14:30:57Z</time>
      </trkpt>
      <trkpt lat="45.93901" lon="1.30029">
        <ele>399.2</ele>
        <time>2025-06-16T14:30:58Z</time>
      </trkpt>
      <trkpt lat="45.93902" lon="1.30029">
        <ele>399.3</ele>
        <time>2025-06-16T14:30:59Z</time>
      </trkpt>
      <trkpt lat="45.93905" lon="1.30027">
        <ele>399.6</ele>
        <time>2025-06-16T14:31:00Z</time>
      </trkpt>
      <trkpt lat="45.93906" lon="1.30026">
        <ele>399.7</ele>
        <time>2025-06-16T14:31:01Z</time>
      </trkpt>
      <trkpt lat="45.93908" lon="1.30025">
        <ele>400</ele>
        <time>2025-06-16T14:31:02Z</time>
      </trkpt>
      <trkpt lat="45.93909" lon="1.30024">
        <ele>400.1</ele>
        <time>2025-06-16T14:31:03Z</time>
      </trkpt>
      <trkpt lat="45.93911" lon="1.30023">
        <ele>400.4</ele>
        <time>2025-06-16T14:31:04Z</time>
      </trkpt>
      <trkpt lat="45.93912" lon="1.30023">
        <ele>400.5</ele>
        <time>2025-06-16T14:31:05Z</time>
      </trkpt>
      <trkpt lat="45.93914" lon="1.30023">
        <ele>400.7</ele>
        <time>2025-06-16T14:31:06Z</time>
      </trkpt>
      <trkpt lat="45.93915" lon="1.30022">
        <ele>401</ele>
        <time>2025-06-16T14:31:07Z</time>
      </trkpt>
      <trkpt lat="45.93917" lon="1.30021">
        <ele>401.2</ele>
        <time>2025-06-16T14:31:08Z</time>
      </trkpt>
      <trkpt lat="45.93918" lon="1.30021">
        <ele>401.4</ele>
        <time>2025-06-16T14:31:09Z</time>
      </trkpt>
      <trkpt lat="45.9392" lon="1.3002">
        <ele>401.7</ele>
        <time>2025-06-16T14:31:10Z</time>
      </trkpt>
      <trkpt lat="45.93922" lon="1.3002">
        <ele>401.9</ele>
        <time>2025-06-16T14:31:11Z</time>
      </trkpt>
      <trkpt lat="45.93923" lon="1.30019">
        <ele>402.1</ele>
        <time>2025-06-16T14:31:12Z</time>
      </trkpt>
      <trkpt lat="45.93924" lon="1.30018">
        <ele>402.4</ele>
        <time>2025-06-16T14:31:13Z</time>
      </trkpt>
      <trkpt lat="45.93926" lon="1.30017">
        <ele>402.7</ele>
        <time>2025-06-16T14:31:14Z</time>
      </trkpt>
      <trkpt lat="45.93927" lon="1.30017">
        <ele>402.8</ele>
        <time>2025-06-16T14:31:15Z</time>
      </trkpt>
      <trkpt lat="45.93928" lon="1.30016">
        <ele>403</ele>
        <time>2025-06-16T14:31:16Z</time>
      </trkpt>
      <trkpt lat="45.93929" lon="1.30016">
        <ele>403.3</ele>
        <time>2025-06-16T14:31:17Z</time>
      </trkpt>
      <trkpt lat="45.93931" lon="1.30015">
        <ele>403.6</ele>
        <time>2025-06-16T14:31:18Z</time>
      </trkpt>
      <trkpt lat="45.93932" lon="1.30014">
        <ele>403.8</ele>
        <time>2025-06-16T14:31:19Z</time>
      </trkpt>
      <trkpt lat="45.93933" lon="1.30013">
        <ele>404.1</ele>
        <time>2025-06-16T14:31:20Z</time>
      </trkpt>
      <trkpt lat="45.93935" lon="1.30012">
        <ele>404.4</ele>
        <time>2025-06-16T14:31:21Z</time>
      </trkpt>
      <trkpt lat="45.93936" lon="1.30011">
        <ele>404.7</ele>
        <time>2025-06-16T14:31:22Z</time>
      </trkpt>
      <trkpt lat="45.93937" lon="1.3001">
        <ele>405</ele>
        <time>2025-06-16T14:31:23Z</time>
      </trkpt>
      <trkpt lat="45.93939" lon="1.30009">
        <ele>405.3</ele>
        <time>2025-06-16T14:31:24Z</time>
      </trkpt>
      <trkpt lat="45.93941" lon="1.30008">
        <ele>405.6</ele>
        <time>2025-06-16T14:31:25Z</time>
      </trkpt>
      <trkpt lat="45.93942" lon="1.30006">
        <ele>405.7</ele>
        <time>2025-06-16T14:31:26Z</time>
      </trkpt>
      <trkpt lat="45.93943" lon="1.30005">
        <ele>405.8</ele>
        <time>2025-06-16T14:31:27Z</time>
      </trkpt>
      <trkpt lat="45.93943" lon="1.30003">
        <ele>405.9</ele>
        <time>2025-06-16T14:31:28Z</time>
      </trkpt>
      <trkpt lat="45.93944" lon="1.30001">
        <ele>406</ele>
        <time>2025-06-16T14:31:29Z</time>
      </trkpt>
      <trkpt lat="45.93945" lon="1.29998">
        <ele>406.1</ele>
        <time>2025-06-16T14:31:30Z</time>
      </trkpt>
      <trkpt lat="45.93945" lon="1.29994">
        <ele>406.3</ele>
        <time>2025-06-16T14:31:31Z</time>
      </trkpt>
      <trkpt lat="45.93945" lon="1.29993">
        <ele>406.3</ele>
        <time>2025-06-16T14:31:32Z</time>
      </trkpt>
      <trkpt lat="45.93946" lon="1.2999">
        <ele>406.4</ele>
        <time>2025-06-16T14:31:33Z</time>
      </trkpt>
      <trkpt lat="45.93946" lon="1.29988">
        <ele>406.5</ele>
        <time>2025-06-16T14:31:34Z</time>
      </trkpt>
      <trkpt lat="45.93946" lon="1.29986">
        <ele>406.6</ele>
        <time>2025-06-16T14:31:35Z</time>
      </trkpt>
      <trkpt lat="45.93947" lon="1.29984">
        <ele>406.6</ele>
        <time>2025-06-16T14:31:36Z</time>
      </trkpt>
      <trkpt lat="45.93947" lon="1.29981">
        <ele>406.7</ele>
        <time>2025-06-16T14:31:37Z</time>
      </trkpt>
      <trkpt lat="45.93948" lon="1.29979">
        <ele>406.8</ele>
        <time>2025-06-16T14:31:38Z</time>
      </trkpt>
      <trkpt lat="45.93948" lon="1.29975">
        <ele>407</ele>
        <time>2025-06-16T14:31:39Z</time>
      </trkpt>
      <trkpt lat="45.93949" lon="1.29973">
        <ele>407</ele>
        <time>2025-06-16T14:31:40Z</time>
      </trkpt>
      <trkpt lat="45.9395" lon="1.29971">
        <ele>407.1</ele>
        <time>2025-06-16T14:31:41Z</time>
      </trkpt>
      <trkpt lat="45.9395" lon="1.29968">
        <ele>407.2</ele>
        <time>2025-06-16T14:31:42Z</time>
      </trkpt>
      <trkpt lat="45.93951" lon="1.29965">
        <ele>407.4</ele>
        <time>2025-06-16T14:31:43Z</time>
      </trkpt>
      <trkpt lat="45.93952" lon="1.29963">
        <ele>407.4</ele>
        <time>2025-06-16T14:31:44Z</time>
      </trkpt>
      <trkpt lat="45.93952" lon="1.29959">
        <ele>407.6</ele>
        <time>2025-06-16T14:31:45Z</time>
      </trkpt>
      <trkpt lat="45.93953" lon="1.29957">
        <ele>407.6</ele>
        <time>2025-06-16T14:31:46Z</time>
      </trkpt>
      <trkpt lat="45.93954" lon="1.29952">
        <ele>407.8</ele>
        <time>2025-06-16T14:31:47Z</time>
      </trkpt>
      <trkpt lat="45.93954" lon="1.29951">
        <ele>407.9</ele>
        <time>2025-06-16T14:31:48Z</time>
      </trkpt>
      <trkpt lat="45.93955" lon="1.29947">
        <ele>408.1</ele>
        <time>2025-06-16T14:31:49Z</time>
      </trkpt>
      <trkpt lat="45.93956" lon="1.29945">
        <ele>408.1</ele>
        <time>2025-06-16T14:31:50Z</time>
      </trkpt>
      <trkpt lat="45.93957" lon="1.29942">
        <ele>408.3</ele>
        <time>2025-06-16T14:31:51Z</time>
      </trkpt>
      <trkpt lat="45.93957" lon="1.2994">
        <ele>408.4</ele>
        <time>2025-06-16T14:31:52Z</time>
      </trkpt>
      <trkpt lat="45.93958" lon="1.29937">
        <ele>408.5</ele>
        <time>2025-06-16T14:31:53Z</time>
      </trkpt>
      <trkpt lat="45.93959" lon="1.29935">
        <ele>408.6</ele>
        <time>2025-06-16T14:31:54Z</time>
      </trkpt>
      <trkpt lat="45.9396" lon="1.29932">
        <ele>408.8</ele>
        <time>2025-06-16T14:31:55Z</time>
      </trkpt>
      <trkpt lat="45.93961" lon="1.2993">
        <ele>408.8</ele>
        <time>2025-06-16T14:31:56Z</time>
      </trkpt>
      <trkpt lat="45.93962" lon="1.29926">
        <ele>409</ele>
        <time>2025-06-16T14:31:57Z</time>
      </trkpt>
      <trkpt lat="45.93962" lon="1.29925">
        <ele>409</ele>
        <time>2025-06-16T14:31:58Z</time>
      </trkpt>
      <trkpt lat="45.93964" lon="1.29921">
        <ele>409.2</ele>
        <time>2025-06-16T14:31:59Z</time>
      </trkpt>
      <trkpt lat="45.93964" lon="1.2992">
        <ele>409.2</ele>
        <time>2025-06-16T14:32:00Z</time>
      </trkpt>
      <trkpt lat="45.93966" lon="1.29916">
        <ele>409.3</ele>
        <time>2025-06-16T14:32:01Z</time>
      </trkpt>
      <trkpt lat="45.93967" lon="1.29915">
        <ele>409.3</ele>
        <time>2025-06-16T14:32:02Z</time>
      </trkpt>
      <trkpt lat="45.93968" lon="1.29912">
        <ele>409.4</ele>
        <time>2025-06-16T14:32:03Z</time>
      </trkpt>
      <trkpt lat="45.93969" lon="1.29911">
        <ele>409.5</ele>
        <time>2025-06-16T14:32:04Z</time>
      </trkpt>
      <trkpt lat="45.9397" lon="1.29907">
        <ele>409.5</ele>
        <time>2025-06-16T14:32:05Z</time>
      </trkpt>
      <trkpt lat="45.93971" lon="1.29906">
        <ele>409.5</ele>
        <time>2025-06-16T14:32:06Z</time>
      </trkpt>
      <trkpt lat="45.93972" lon="1.29904">
        <ele>409.5</ele>
        <time>2025-06-16T14:32:07Z</time>
      </trkpt>
      <trkpt lat="45.93973" lon="1.29902">
        <ele>409.5</ele>
        <time>2025-06-16T14:32:08Z</time>
      </trkpt>
      <trkpt lat="45.93975" lon="1.29897">
        <ele>409.4</ele>
        <time>2025-06-16T14:32:09Z</time>
      </trkpt>
      <trkpt lat="45.93976" lon="1.29896">
        <ele>409.4</ele>
        <time>2025-06-16T14:32:10Z</time>
      </trkpt>
      <trkpt lat="45.93977" lon="1.29891">
        <ele>409.3</ele>
        <time>2025-06-16T14:32:11Z</time>
      </trkpt>
      <trkpt lat="45.93978" lon="1.29889">
        <ele>409.3</ele>
        <time>2025-06-16T14:32:12Z</time>
      </trkpt>
      <trkpt lat="45.93978" lon="1.29887">
        <ele>409.2</ele>
        <time>2025-06-16T14:32:13Z</time>
      </trkpt>
      <trkpt lat="45.93979" lon="1.29885">
        <ele>409.2</ele>
        <time>2025-06-16T14:32:14Z</time>
      </trkpt>
      <trkpt lat="45.9398" lon="1.29883">
        <ele>409.2</ele>
        <time>2025-06-16T14:32:15Z</time>
      </trkpt>
      <trkpt lat="45.93981" lon="1.29881">
        <ele>409.1</ele>
        <time>2025-06-16T14:32:16Z</time>
      </trkpt>
      <trkpt lat="45.93983" lon="1.29877">
        <ele>409</ele>
        <time>2025-06-16T14:32:17Z</time>
      </trkpt>
      <trkpt lat="45.93984" lon="1.29876">
        <ele>408.9</ele>
        <time>2025-06-16T14:32:18Z</time>
      </trkpt>
      <trkpt lat="45.93986" lon="1.29872">
        <ele>408.8</ele>
        <time>2025-06-16T14:32:19Z</time>
      </trkpt>
      <trkpt lat="45.93988" lon="1.29868">
        <ele>408.6</ele>
        <time>2025-06-16T14:32:20Z</time>
      </trkpt>
      <trkpt lat="45.9399" lon="1.29863">
        <ele>408.5</ele>
        <time>2025-06-16T14:32:21Z</time>
      </trkpt>
      <trkpt lat="45.93991" lon="1.29861">
        <ele>408.4</ele>
        <time>2025-06-16T14:32:22Z</time>
      </trkpt>
      <trkpt lat="45.93992" lon="1.29858">
        <ele>408.3</ele>
        <time>2025-06-16T14:32:23Z</time>
      </trkpt>
      <trkpt lat="45.93995" lon="1.29854">
        <ele>408.2</ele>
        <time>2025-06-16T14:32:24Z</time>
      </trkpt>
      <trkpt lat="45.93997" lon="1.29851">
        <ele>408.1</ele>
        <time>2025-06-16T14:32:25Z</time>
      </trkpt>
      <trkpt lat="45.93998" lon="1.29847">
        <ele>408</ele>
        <time>2025-06-16T14:32:26Z</time>
      </trkpt>
      <trkpt lat="45.93999" lon="1.29845">
        <ele>407.9</ele>
        <time>2025-06-16T14:32:27Z</time>
      </trkpt>
      <trkpt lat="45.94001" lon="1.29842">
        <ele>407.8</ele>
        <time>2025-06-16T14:32:28Z</time>
      </trkpt>
      <trkpt lat="45.94001" lon="1.29841">
        <ele>407.8</ele>
        <time>2025-06-16T14:32:29Z</time>
      </trkpt>
      <trkpt lat="45.94004" lon="1.29838">
        <ele>407.7</ele>
        <time>2025-06-16T14:32:30Z</time>
      </trkpt>
      <trkpt lat="45.94005" lon="1.29837">
        <ele>407.6</ele>
        <time>2025-06-16T14:32:31Z</time>
      </trkpt>
      <trkpt lat="45.94008" lon="1.29833">
        <ele>407.5</ele>
        <time>2025-06-16T14:32:32Z</time>
      </trkpt>
      <trkpt lat="45.94008" lon="1.29832">
        <ele>407.4</ele>
        <time>2025-06-16T14:32:33Z</time>
      </trkpt>
      <trkpt lat="45.94011" lon="1.29828">
        <ele>407.2</ele>
        <time>2025-06-16T14:32:34Z</time>
      </trkpt>
      <trkpt lat="45.94011" lon="1.29826">
        <ele>407.1</ele>
        <time>2025-06-16T14:32:35Z</time>
      </trkpt>
      <trkpt lat="45.94014" lon="1.29824">
        <ele>407</ele>
        <time>2025-06-16T14:32:36Z</time>
      </trkpt>
      <trkpt lat="45.94016" lon="1.29821">
        <ele>406.8</ele>
        <time>2025-06-16T14:32:37Z</time>
      </trkpt>
      <trkpt lat="45.94018" lon="1.29818">
        <ele>406.5</ele>
        <time>2025-06-16T14:32:38Z</time>
      </trkpt>
      <trkpt lat="45.94021" lon="1.29814">
        <ele>406.2</ele>
        <time>2025-06-16T14:32:39Z</time>
      </trkpt>
      <trkpt lat="45.94023" lon="1.2981">
        <ele>405.9</ele>
        <time>2025-06-16T14:32:40Z</time>
      </trkpt>
      <trkpt lat="45.94027" lon="1.29806">
        <ele>405.4</ele>
        <time>2025-06-16T14:32:41Z</time>
      </trkpt>
      <trkpt lat="45.94031" lon="1.29802">
        <ele>404.8</ele>
        <time>2025-06-16T14:32:42Z</time>
      </trkpt>
      <trkpt lat="45.94036" lon="1.29798">
        <ele>404.3</ele>
        <time>2025-06-16T14:32:43Z</time>
      </trkpt>
      <trkpt lat="45.9404" lon="1.29794">
        <ele>403.7</ele>
        <time>2025-06-16T14:32:44Z</time>
      </trkpt>
      <trkpt lat="45.94043" lon="1.2979">
        <ele>403.2</ele>
        <time>2025-06-16T14:32:45Z</time>
      </trkpt>
      <trkpt lat="45.94047" lon="1.29785">
        <ele>402.7</ele>
        <time>2025-06-16T14:32:46Z</time>
      </trkpt>
      <trkpt lat="45.94051" lon="1.29779">
        <ele>402.2</ele>
        <time>2025-06-16T14:32:47Z</time>
      </trkpt>
      <trkpt lat="45.94054" lon="1.29772">
        <ele>401.6</ele>
        <time>2025-06-16T14:32:48Z</time>
      </trkpt>
      <trkpt lat="45.94057" lon="1.29766">
        <ele>401.1</ele>
        <time>2025-06-16T14:32:49Z</time>
      </trkpt>
      <trkpt lat="45.94059" lon="1.29762">
        <ele>400.7</ele>
        <time>2025-06-16T14:32:50Z</time>
      </trkpt>
      <trkpt lat="45.94061" lon="1.29758">
        <ele>400.3</ele>
        <time>2025-06-16T14:32:51Z</time>
      </trkpt>
      <trkpt lat="45.94064" lon="1.29753">
        <ele>399.7</ele>
        <time>2025-06-16T14:32:52Z</time>
      </trkpt>
      <trkpt lat="45.94067" lon="1.29749">
        <ele>399.2</ele>
        <time>2025-06-16T14:32:53Z</time>
      </trkpt>
      <trkpt lat="45.94068" lon="1.29744">
        <ele>398.7</ele>
        <time>2025-06-16T14:32:54Z</time>
      </trkpt>
      <trkpt lat="45.9407" lon="1.2974">
        <ele>398.2</ele>
        <time>2025-06-16T14:32:55Z</time>
      </trkpt>
      <trkpt lat="45.94071" lon="1.29736">
        <ele>397.8</ele>
        <time>2025-06-16T14:32:56Z</time>
      </trkpt>
      <trkpt lat="45.94073" lon="1.29731">
        <ele>397.2</ele>
        <time>2025-06-16T14:32:57Z</time>
      </trkpt>
      <trkpt lat="45.94077" lon="1.29727">
        <ele>396.4</ele>
        <time>2025-06-16T14:32:58Z</time>
      </trkpt>
      <trkpt lat="45.94081" lon="1.29725">
        <ele>395.8</ele>
        <time>2025-06-16T14:32:59Z</time>
      </trkpt>
      <trkpt lat="45.94085" lon="1.29724">
        <ele>395.1</ele>
        <time>2025-06-16T14:33:00Z</time>
      </trkpt>
      <trkpt lat="45.94088" lon="1.29723">
        <ele>394.6</ele>
        <time>2025-06-16T14:33:01Z</time>
      </trkpt>
      <trkpt lat="45.94091" lon="1.29722">
        <ele>394.1</ele>
        <time>2025-06-16T14:33:02Z</time>
      </trkpt>
      <trkpt lat="45.94094" lon="1.29719">
        <ele>393.5</ele>
        <time>2025-06-16T14:33:03Z</time>
      </trkpt>
      <trkpt lat="45.94097" lon="1.29716">
        <ele>393</ele>
        <time>2025-06-16T14:33:04Z</time>
      </trkpt>
      <trkpt lat="45.94097" lon="1.29714">
        <ele>392.8</ele>
        <time>2025-06-16T14:33:05Z</time>
      </trkpt>
      <trkpt lat="45.94099" lon="1.29711">
        <ele>392.3</ele>
        <time>2025-06-16T14:33:06Z</time>
      </trkpt>
      <trkpt lat="45.94102" lon="1.29708">
        <ele>391.8</ele>
        <time>2025-06-16T14:33:07Z</time>
      </trkpt>
      <trkpt lat="45.94104" lon="1.29705">
        <ele>391.2</ele>
        <time>2025-06-16T14:33:08Z</time>
      </trkpt>
      <trkpt lat="45.94107" lon="1.29703">
        <ele>390.5</ele>
        <time>2025-06-16T14:33:09Z</time>
      </trkpt>
      <trkpt lat="45.9411" lon="1.29701">
        <ele>389.9</ele>
        <time>2025-06-16T14:33:10Z</time>
      </trkpt>
      <trkpt lat="45.94113" lon="1.29699">
        <ele>389.3</ele>
        <time>2025-06-16T14:33:11Z</time>
      </trkpt>
      <trkpt lat="45.94115" lon="1.29697">
        <ele>388.7</ele>
        <time>2025-06-16T14:33:12Z</time>
      </trkpt>
      <trkpt lat="45.94118" lon="1.29694">
        <ele>388</ele>
        <time>2025-06-16T14:33:13Z</time>
      </trkpt>
      <trkpt lat="45.94119" lon="1.29693">
        <ele>387.8</ele>
        <time>2025-06-16T14:33:14Z</time>
      </trkpt>
      <trkpt lat="45.94119" lon="1.29691">
        <ele>387.4</ele>
        <time>2025-06-16T14:33:15Z</time>
      </trkpt>
      <trkpt lat="45.9412" lon="1.29689">
        <ele>387.1</ele>
        <time>2025-06-16T14:33:16Z</time>
      </trkpt>
      <trkpt lat="45.9412" lon="1.29688">
        <ele>386.9</ele>
        <time>2025-06-16T14:33:17Z</time>
      </trkpt>
      <trkpt lat="45.9412" lon="1.29687">
        <ele>386.8</ele>
        <time>2025-06-16T14:33:18Z</time>
      </trkpt>
      <trkpt lat="45.9412" lon="1.29686">
        <ele>386.7</ele>
        <time>2025-06-16T14:33:19Z</time>
      </trkpt>
      <trkpt lat="45.94121" lon="1.29686">
        <ele>386.6</ele>
        <time>2025-06-16T14:33:20Z</time>
      </trkpt>
      <trkpt lat="45.94121" lon="1.29686">
        <ele>386.6</ele>
        <time>2025-06-16T14:33:21Z</time>
      </trkpt>
      <trkpt lat="45.94121" lon="1.29686">
        <ele>386.5</ele>
        <time>2025-06-16T14:33:22Z</time>
      </trkpt>
      <trkpt lat="45.94121" lon="1.29686">
        <ele>386.5</ele>
        <time>2025-06-16T14:33:23Z</time>
      </trkpt>
      <trkpt lat="45.9412" lon="1.29685">
        <ele>386.3</ele>
        <time>2025-06-16T14:33:24Z</time>
      </trkpt>
      <trkpt lat="45.9412" lon="1.29684">
        <ele>386.3</ele>
        <time>2025-06-16T14:33:25Z</time>
      </trkpt>
      <trkpt lat="45.9412" lon="1.29684">
        <ele>386.2</ele>
        <time>2025-06-16T14:33:27Z</time>
      </trkpt>
      <trkpt lat="45.9412" lon="1.29683">
        <ele>386.1</ele>
        <time>2025-06-16T14:33:28Z</time>
      </trkpt>
      <trkpt lat="45.9412" lon="1.29683">
        <ele>386.1</ele>
        <time>2025-06-16T14:33:30Z</time>
      </trkpt>
      <trkpt lat="45.94121" lon="1.29683">
        <ele>386</ele>
        <time>2025-06-16T14:33:31Z</time>
      </trkpt>
      <trkpt lat="45.94121" lon="1.29682">
        <ele>385.9</ele>
        <time>2025-06-16T14:33:33Z</time>
      </trkpt>
      <trkpt lat="45.94121" lon="1.29682">
        <ele>385.9</ele>
        <time>2025-06-16T14:33:34Z</time>
      </trkpt>
      <trkpt lat="45.94121" lon="1.29682">
        <ele>385.8</ele>
        <time>2025-06-16T14:33:35Z</time>
      </trkpt>
      <trkpt lat="45.94121" lon="1.29682">
        <ele>385.8</ele>
        <time>2025-06-16T14:33:36Z</time>
      </trkpt>
      <trkpt lat="45.94121" lon="1.29682">
        <ele>385.8</ele>
        <time>2025-06-16T14:33:38Z</time>
      </trkpt>
      <trkpt lat="45.94121" lon="1.29682">
        <ele>385.8</ele>
        <time>2025-06-16T14:33:39Z</time>
      </trkpt>
      <trkpt lat="45.94121" lon="1.29682">
        <ele>385.7</ele>
        <time>2025-06-16T14:33:40Z</time>
      </trkpt>
      <trkpt lat="45.94121" lon="1.29682">
        <ele>385.7</ele>
        <time>2025-06-16T14:33:41Z</time>
      </trkpt>
      <trkpt lat="45.94121" lon="1.29682">
        <ele>385.7</ele>
        <time>2025-06-16T14:33:42Z</time>
      </trkpt>
      <trkpt lat="45.94121" lon="1.29682">
        <ele>385.7</ele>
        <time>2025-06-16T14:33:43Z</time>
      </trkpt>
      <trkpt lat="45.94121" lon="1.29682">
        <ele>385.7</ele>
        <time>2025-06-16T14:33:44Z</time>
      </trkpt>
      <trkpt lat="45.94121" lon="1.29682">
        <ele>385.7</ele>
        <time>2025-06-16T14:33:45Z</time>
      </trkpt>
      <trkpt lat="45.94121" lon="1.29682">
        <ele>385.7</ele>
        <time>2025-06-16T14:33:46Z</time>
      </trkpt>
      <trkpt lat="45.94121" lon="1.29682">
        <ele>385.7</ele>
        <time>2025-06-16T14:33:47Z</time>
      </trkpt>
      <trkpt lat="45.94121" lon="1.29682">
        <ele>385.6</ele>
        <time>2025-06-16T14:33:48Z</time>
      </trkpt>
      <trkpt lat="45.94121" lon="1.29682">
        <ele>385.6</ele>
        <time>2025-06-16T14:33:49Z</time>
      </trkpt>
      <trkpt lat="45.94121" lon="1.29682">
        <ele>385.6</ele>
        <time>2025-06-16T14:33:50Z</time>
      </trkpt>
      <trkpt lat="45.94121" lon="1.29682">
        <ele>385.6</ele>
        <time>2025-06-16T14:33:51Z</time>
      </trkpt>
      <trkpt lat="45.94121" lon="1.29682">
        <ele>385.6</ele>
        <time>2025-06-16T14:33:52Z</time>
      </trkpt>
      <trkpt lat="45.94121" lon="1.29682">
        <ele>385.6</ele>
        <time>2025-06-16T14:33:53Z</time>
      </trkpt>
      <trkpt lat="45.94123" lon="1.29685">
        <ele>385.3</ele>
        <time>2025-06-16T14:33:54Z</time>
      </trkpt>
      <trkpt lat="45.94125" lon="1.29689">
        <ele>385</ele>
        <time>2025-06-16T14:33:55Z</time>
      </trkpt>
      <trkpt lat="45.94127" lon="1.29694">
        <ele>384.6</ele>
        <time>2025-06-16T14:33:56Z</time>
      </trkpt>
      <trkpt lat="45.94129" lon="1.29699">
        <ele>384.4</ele>
        <time>2025-06-16T14:33:57Z</time>
      </trkpt>
      <trkpt lat="45.9413" lon="1.29703">
        <ele>384.2</ele>
        <time>2025-06-16T14:33:58Z</time>
      </trkpt>
      <trkpt lat="45.94131" lon="1.29708">
        <ele>384</ele>
        <time>2025-06-16T14:33:59Z</time>
      </trkpt>
      <trkpt lat="45.94131" lon="1.29713">
        <ele>383.8</ele>
        <time>2025-06-16T14:34:00Z</time>
      </trkpt>
      <trkpt lat="45.94132" lon="1.29718">
        <ele>383.7</ele>
        <time>2025-06-16T14:34:01Z</time>
      </trkpt>
      <trkpt lat="45.94133" lon="1.29723">
        <ele>383.6</ele>
        <time>2025-06-16T14:34:02Z</time>
      </trkpt>
      <trkpt lat="45.94133" lon="1.29728">
        <ele>383.5</ele>
        <time>2025-06-16T14:34:03Z</time>
      </trkpt>
      <trkpt lat="45.94134" lon="1.29733">
        <ele>383.4</ele>
        <time>2025-06-16T14:34:04Z</time>
      </trkpt>
      <trkpt lat="45.94134" lon="1.2974">
        <ele>383.2</ele>
        <time>2025-06-16T14:34:05Z</time>
      </trkpt>
      <trkpt lat="45.94134" lon="1.29746">
        <ele>383.1</ele>
        <time>2025-06-16T14:34:06Z</time>
      </trkpt>
      <trkpt lat="45.94135" lon="1.29752">
        <ele>383.1</ele>
        <time>2025-06-16T14:34:07Z</time>
      </trkpt>
      <trkpt lat="45.94135" lon="1.29758">
        <ele>383</ele>
        <time>2025-06-16T14:34:08Z</time>
      </trkpt>
      <trkpt lat="45.94134" lon="1.29764">
        <ele>383</ele>
        <time>2025-06-16T14:34:09Z</time>
      </trkpt>
      <trkpt lat="45.94133" lon="1.29769">
        <ele>383.1</ele>
        <time>2025-06-16T14:34:10Z</time>
      </trkpt>
      <trkpt lat="45.94133" lon="1.29774">
        <ele>383.1</ele>
        <time>2025-06-16T14:34:11Z</time>
      </trkpt>
      <trkpt lat="45.94133" lon="1.29779">
        <ele>383.2</ele>
        <time>2025-06-16T14:34:12Z</time>
      </trkpt>
      <trkpt lat="45.94133" lon="1.29784">
        <ele>383.3</ele>
        <time>2025-06-16T14:34:13Z</time>
      </trkpt>
      <trkpt lat="45.94134" lon="1.29788">
        <ele>383.4</ele>
        <time>2025-06-16T14:34:14Z</time>
      </trkpt>
      <trkpt lat="45.94135" lon="1.29793">
        <ele>383.5</ele>
        <time>2025-06-16T14:34:15Z</time>
      </trkpt>
      <trkpt lat="45.94137" lon="1.298">
        <ele>383.7</ele>
        <time>2025-06-16T14:34:16Z</time>
      </trkpt>
      <trkpt lat="45.94138" lon="1.29806">
        <ele>384</ele>
        <time>2025-06-16T14:34:17Z</time>
      </trkpt>
      <trkpt lat="45.94139" lon="1.29811">
        <ele>384.3</ele>
        <time>2025-06-16T14:34:18Z</time>
      </trkpt>
      <trkpt lat="45.9414" lon="1.29817">
        <ele>384.5</ele>
        <time>2025-06-16T14:34:19Z</time>
      </trkpt>
      <trkpt lat="45.9414" lon="1.29821">
        <ele>384.8</ele>
        <time>2025-06-16T14:34:20Z</time>
      </trkpt>
      <trkpt lat="45.9414" lon="1.29825">
        <ele>385</ele>
        <time>2025-06-16T14:34:21Z</time>
      </trkpt>
      <trkpt lat="45.9414" lon="1.2983">
        <ele>385.3</ele>
        <time>2025-06-16T14:34:22Z</time>
      </trkpt>
      <trkpt lat="45.9414" lon="1.29834">
        <ele>385.6</ele>
        <time>2025-06-16T14:34:23Z</time>
      </trkpt>
      <trkpt lat="45.94142" lon="1.2984">
        <ele>386</ele>
        <time>2025-06-16T14:34:24Z</time>
      </trkpt>
      <trkpt lat="45.94143" lon="1.29842">
        <ele>386.2</ele>
        <time>2025-06-16T14:34:25Z</time>
      </trkpt>
      <trkpt lat="45.94144" lon="1.29847">
        <ele>386.5</ele>
        <time>2025-06-16T14:34:26Z</time>
      </trkpt>
      <trkpt lat="45.94144" lon="1.29852">
        <ele>386.9</ele>
        <time>2025-06-16T14:34:27Z</time>
      </trkpt>
      <trkpt lat="45.94144" lon="1.29858">
        <ele>387.3</ele>
        <time>2025-06-16T14:34:28Z</time>
      </trkpt>
      <trkpt lat="45.94144" lon="1.2986">
        <ele>387.4</ele>
        <time>2025-06-16T14:34:29Z</time>
      </trkpt>
      <trkpt lat="45.94144" lon="1.29864">
        <ele>387.7</ele>
        <time>2025-06-16T14:34:30Z</time>
      </trkpt>
      <trkpt lat="45.94145" lon="1.29868">
        <ele>388</ele>
        <time>2025-06-16T14:34:31Z</time>
      </trkpt>
      <trkpt lat="45.94145" lon="1.29874">
        <ele>388.4</ele>
        <time>2025-06-16T14:34:32Z</time>
      </trkpt>
      <trkpt lat="45.94145" lon="1.29876">
        <ele>388.5</ele>
        <time>2025-06-16T14:34:33Z</time>
      </trkpt>
      <trkpt lat="45.94145" lon="1.29881">
        <ele>388.8</ele>
        <time>2025-06-16T14:34:34Z</time>
      </trkpt>
      <trkpt lat="45.94145" lon="1.29883">
        <ele>389</ele>
        <time>2025-06-16T14:34:35Z</time>
      </trkpt>
      <trkpt lat="45.94145" lon="1.29887">
        <ele>389.2</ele>
        <time>2025-06-16T14:34:36Z</time>
      </trkpt>
      <trkpt lat="45.94145" lon="1.29892">
        <ele>389.4</ele>
        <time>2025-06-16T14:34:37Z</time>
      </trkpt>
      <trkpt lat="45.94145" lon="1.29896">
        <ele>389.7</ele>
        <time>2025-06-16T14:34:38Z</time>
      </trkpt>
      <trkpt lat="45.94145" lon="1.299">
        <ele>389.8</ele>
        <time>2025-06-16T14:34:39Z</time>
      </trkpt>
      <trkpt lat="45.94145" lon="1.29904">
        <ele>390</ele>
        <time>2025-06-16T14:34:40Z</time>
      </trkpt>
      <trkpt lat="45.94144" lon="1.2991">
        <ele>390.2</ele>
        <time>2025-06-16T14:34:41Z</time>
      </trkpt>
      <trkpt lat="45.94144" lon="1.29911">
        <ele>390.3</ele>
        <time>2025-06-16T14:34:42Z</time>
      </trkpt>
      <trkpt lat="45.94144" lon="1.29918">
        <ele>390.5</ele>
        <time>2025-06-16T14:34:43Z</time>
      </trkpt>
      <trkpt lat="45.94145" lon="1.2992">
        <ele>390.5</ele>
        <time>2025-06-16T14:34:44Z</time>
      </trkpt>
      <trkpt lat="45.94145" lon="1.29926">
        <ele>390.6</ele>
        <time>2025-06-16T14:34:45Z</time>
      </trkpt>
      <trkpt lat="45.94145" lon="1.29932">
        <ele>390.6</ele>
        <time>2025-06-16T14:34:46Z</time>
      </trkpt>
      <trkpt lat="45.94145" lon="1.29937">
        <ele>390.5</ele>
        <time>2025-06-16T14:34:47Z</time>
      </trkpt>
      <trkpt lat="45.94145" lon="1.29943">
        <ele>390.4</ele>
        <time>2025-06-16T14:34:48Z</time>
      </trkpt>
      <trkpt lat="45.94144" lon="1.2995">
        <ele>390.1</ele>
        <time>2025-06-16T14:34:49Z</time>
      </trkpt>
      <trkpt lat="45.94144" lon="1.29956">
        <ele>389.9</ele>
        <time>2025-06-16T14:34:50Z</time>
      </trkpt>
      <trkpt lat="45.94143" lon="1.29963">
        <ele>389.5</ele>
        <time>2025-06-16T14:34:51Z</time>
      </trkpt>
      <trkpt lat="45.94141" lon="1.29973">
        <ele>389.1</ele>
        <time>2025-06-16T14:34:52Z</time>
      </trkpt>
      <trkpt lat="45.9414" lon="1.29984">
        <ele>388.6</ele>
        <time>2025-06-16T14:34:53Z</time>
      </trkpt>
      <trkpt lat="45.94138" lon="1.29992">
        <ele>388.2</ele>
        <time>2025-06-16T14:34:54Z</time>
      </trkpt>
      <trkpt lat="45.94138" lon="1.29998">
        <ele>388</ele>
        <time>2025-06-16T14:34:55Z</time>
      </trkpt>
      <trkpt lat="45.94138" lon="1.30004">
        <ele>387.8</ele>
        <time>2025-06-16T14:34:56Z</time>
      </trkpt>
      <trkpt lat="45.94138" lon="1.30011">
        <ele>387.5</ele>
        <time>2025-06-16T14:34:57Z</time>
      </trkpt>
      <trkpt lat="45.94138" lon="1.30018">
        <ele>387.3</ele>
        <time>2025-06-16T14:34:58Z</time>
      </trkpt>
      <trkpt lat="45.94139" lon="1.30024">
        <ele>387.1</ele>
        <time>2025-06-16T14:34:59Z</time>
      </trkpt>
      <trkpt lat="45.94141" lon="1.3003">
        <ele>386.9</ele>
        <time>2025-06-16T14:35:00Z</time>
      </trkpt>
      <trkpt lat="45.94143" lon="1.30036">
        <ele>386.7</ele>
        <time>2025-06-16T14:35:01Z</time>
      </trkpt>
      <trkpt lat="45.94146" lon="1.30043">
        <ele>386.5</ele>
        <time>2025-06-16T14:35:02Z</time>
      </trkpt>
      <trkpt lat="45.94147" lon="1.30048">
        <ele>386.4</ele>
        <time>2025-06-16T14:35:03Z</time>
      </trkpt>
      <trkpt lat="45.94148" lon="1.30052">
        <ele>386.3</ele>
        <time>2025-06-16T14:35:04Z</time>
      </trkpt>
      <trkpt lat="45.94149" lon="1.30057">
        <ele>386.2</ele>
        <time>2025-06-16T14:35:05Z</time>
      </trkpt>
      <trkpt lat="45.94149" lon="1.30062">
        <ele>386</ele>
        <time>2025-06-16T14:35:06Z</time>
      </trkpt>
      <trkpt lat="45.9415" lon="1.30067">
        <ele>385.9</ele>
        <time>2025-06-16T14:35:07Z</time>
      </trkpt>
      <trkpt lat="45.94151" lon="1.30073">
        <ele>385.8</ele>
        <time>2025-06-16T14:35:08Z</time>
      </trkpt>
      <trkpt lat="45.94151" lon="1.30078">
        <ele>385.7</ele>
        <time>2025-06-16T14:35:09Z</time>
      </trkpt>
      <trkpt lat="45.94153" lon="1.30085">
        <ele>385.5</ele>
        <time>2025-06-16T14:35:10Z</time>
      </trkpt>
      <trkpt lat="45.94154" lon="1.30092">
        <ele>385.3</ele>
        <time>2025-06-16T14:35:11Z</time>
      </trkpt>
      <trkpt lat="45.94156" lon="1.301">
        <ele>385.1</ele>
        <time>2025-06-16T14:35:12Z</time>
      </trkpt>
      <trkpt lat="45.94157" lon="1.30108">
        <ele>384.9</ele>
        <time>2025-06-16T14:35:13Z</time>
      </trkpt>
      <trkpt lat="45.94158" lon="1.30116">
        <ele>384.7</ele>
        <time>2025-06-16T14:35:14Z</time>
      </trkpt>
      <trkpt lat="45.94159" lon="1.30123">
        <ele>384.5</ele>
        <time>2025-06-16T14:35:15Z</time>
      </trkpt>
      <trkpt lat="45.94159" lon="1.30131">
        <ele>384.3</ele>
        <time>2025-06-16T14:35:16Z</time>
      </trkpt>
      <trkpt lat="45.9416" lon="1.30137">
        <ele>384.2</ele>
        <time>2025-06-16T14:35:17Z</time>
      </trkpt>
      <trkpt lat="45.9416" lon="1.30142">
        <ele>384.1</ele>
        <time>2025-06-16T14:35:18Z</time>
      </trkpt>
      <trkpt lat="45.9416" lon="1.30147">
        <ele>384</ele>
        <time>2025-06-16T14:35:19Z</time>
      </trkpt>
      <trkpt lat="45.9416" lon="1.30154">
        <ele>383.9</ele>
        <time>2025-06-16T14:35:20Z</time>
      </trkpt>
      <trkpt lat="45.9416" lon="1.3016">
        <ele>383.9</ele>
        <time>2025-06-16T14:35:21Z</time>
      </trkpt>
      <trkpt lat="45.9416" lon="1.30167">
        <ele>383.8</ele>
        <time>2025-06-16T14:35:22Z</time>
      </trkpt>
      <trkpt lat="45.9416" lon="1.30175">
        <ele>383.6</ele>
        <time>2025-06-16T14:35:23Z</time>
      </trkpt>
      <trkpt lat="45.9416" lon="1.30182">
        <ele>383.5</ele>
        <time>2025-06-16T14:35:24Z</time>
      </trkpt>
      <trkpt lat="45.94161" lon="1.30188">
        <ele>383.4</ele>
        <time>2025-06-16T14:35:25Z</time>
      </trkpt>
      <trkpt lat="45.94162" lon="1.30194">
        <ele>383.3</ele>
        <time>2025-06-16T14:35:26Z</time>
      </trkpt>
      <trkpt lat="45.94163" lon="1.302">
        <ele>383.2</ele>
        <time>2025-06-16T14:35:27Z</time>
      </trkpt>
      <trkpt lat="45.94164" lon="1.30205">
        <ele>383.2</ele>
        <time>2025-06-16T14:35:28Z</time>
      </trkpt>
      <trkpt lat="45.94164" lon="1.30211">
        <ele>383.1</ele>
        <time>2025-06-16T14:35:29Z</time>
      </trkpt>
      <trkpt lat="45.94164" lon="1.30216">
        <ele>383</ele>
        <time>2025-06-16T14:35:30Z</time>
      </trkpt>
      <trkpt lat="45.94164" lon="1.30222">
        <ele>383</ele>
        <time>2025-06-16T14:35:31Z</time>
      </trkpt>
      <trkpt lat="45.94164" lon="1.30228">
        <ele>382.9</ele>
        <time>2025-06-16T14:35:32Z</time>
      </trkpt>
      <trkpt lat="45.94163" lon="1.3023">
        <ele>382.9</ele>
        <time>2025-06-16T14:35:33Z</time>
      </trkpt>
      <trkpt lat="45.94163" lon="1.30234">
        <ele>382.9</ele>
        <time>2025-06-16T14:35:34Z</time>
      </trkpt>
      <trkpt lat="45.94163" lon="1.30239">
        <ele>382.8</ele>
        <time>2025-06-16T14:35:35Z</time>
      </trkpt>
      <trkpt lat="45.94163" lon="1.30241">
        <ele>382.8</ele>
        <time>2025-06-16T14:35:36Z</time>
      </trkpt>
      <trkpt lat="45.94163" lon="1.30246">
        <ele>382.8</ele>
        <time>2025-06-16T14:35:37Z</time>
      </trkpt>
      <trkpt lat="45.94165" lon="1.30253">
        <ele>382.8</ele>
        <time>2025-06-16T14:35:38Z</time>
      </trkpt>
      <trkpt lat="45.94165" lon="1.30258">
        <ele>382.8</ele>
        <time>2025-06-16T14:35:39Z</time>
      </trkpt>
      <trkpt lat="45.94166" lon="1.30265">
        <ele>382.8</ele>
        <time>2025-06-16T14:35:41Z</time>
      </trkpt>
      <trkpt lat="45.94166" lon="1.30271">
        <ele>382.8</ele>
        <time>2025-06-16T14:35:42Z</time>
      </trkpt>
      <trkpt lat="45.94167" lon="1.30277">
        <ele>382.8</ele>
        <time>2025-06-16T14:35:43Z</time>
      </trkpt>
      <trkpt lat="45.94168" lon="1.30283">
        <ele>382.8</ele>
        <time>2025-06-16T14:35:44Z</time>
      </trkpt>
      <trkpt lat="45.94168" lon="1.30289">
        <ele>382.8</ele>
        <time>2025-06-16T14:35:45Z</time>
      </trkpt>
      <trkpt lat="45.94169" lon="1.30296">
        <ele>382.8</ele>
        <time>2025-06-16T14:35:46Z</time>
      </trkpt>
      <trkpt lat="45.94172" lon="1.30307">
        <ele>382.9</ele>
        <time>2025-06-16T14:35:47Z</time>
      </trkpt>
      <trkpt lat="45.94176" lon="1.30314">
        <ele>382.4</ele>
        <time>2025-06-16T14:35:49Z</time>
      </trkpt>
      <trkpt lat="45.94182" lon="1.3032">
        <ele>382.2</ele>
        <time>2025-06-16T14:35:50Z</time>
      </trkpt>
      <trkpt lat="45.94185" lon="1.30322">
        <ele>382.1</ele>
        <time>2025-06-16T14:35:52Z</time>
      </trkpt>
      <trkpt lat="45.94188" lon="1.30321">
        <ele>382.2</ele>
        <time>2025-06-16T14:35:53Z</time>
      </trkpt>
      <trkpt lat="45.94191" lon="1.30322">
        <ele>382.3</ele>
        <time>2025-06-16T14:35:54Z</time>
      </trkpt>
      <trkpt lat="45.94194" lon="1.30321">
        <ele>382.7</ele>
        <time>2025-06-16T14:35:55Z</time>
      </trkpt>
      <trkpt lat="45.94197" lon="1.30318">
        <ele>382.7</ele>
        <time>2025-06-16T14:35:56Z</time>
      </trkpt>
      <trkpt lat="45.94199" lon="1.30315">
        <ele>382.8</ele>
        <time>2025-06-16T14:35:57Z</time>
      </trkpt>
      <trkpt lat="45.94203" lon="1.30311">
        <ele>383</ele>
        <time>2025-06-16T14:35:58Z</time>
      </trkpt>
      <trkpt lat="45.94205" lon="1.30307">
        <ele>383.3</ele>
        <time>2025-06-16T14:35:59Z</time>
      </trkpt>
      <trkpt lat="45.94208" lon="1.30303">
        <ele>383.7</ele>
        <time>2025-06-16T14:36:00Z</time>
      </trkpt>
      <trkpt lat="45.94211" lon="1.303">
        <ele>384.1</ele>
        <time>2025-06-16T14:36:01Z</time>
      </trkpt>
      <trkpt lat="45.94214" lon="1.30297">
        <ele>384.5</ele>
        <time>2025-06-16T14:36:02Z</time>
      </trkpt>
      <trkpt lat="45.94217" lon="1.30293">
        <ele>385</ele>
        <time>2025-06-16T14:36:03Z</time>
      </trkpt>
      <trkpt lat="45.94219" lon="1.30289">
        <ele>385.5</ele>
        <time>2025-06-16T14:36:04Z</time>
      </trkpt>
      <trkpt lat="45.9422" lon="1.30287">
        <ele>385.6</ele>
        <time>2025-06-16T14:36:05Z</time>
      </trkpt>
      <trkpt lat="45.94221" lon="1.30284">
        <ele>386.1</ele>
        <time>2025-06-16T14:36:06Z</time>
      </trkpt>
      <trkpt lat="45.94222" lon="1.30282">
        <ele>386.2</ele>
        <time>2025-06-16T14:36:07Z</time>
      </trkpt>
      <trkpt lat="45.94224" lon="1.30279">
        <ele>386.6</ele>
        <time>2025-06-16T14:36:08Z</time>
      </trkpt>
      <trkpt lat="45.94224" lon="1.30278">
        <ele>386.8</ele>
        <time>2025-06-16T14:36:09Z</time>
      </trkpt>
      <trkpt lat="45.94225" lon="1.30276">
        <ele>387</ele>
        <time>2025-06-16T14:36:10Z</time>
      </trkpt>
      <trkpt lat="45.94226" lon="1.30274">
        <ele>387.3</ele>
        <time>2025-06-16T14:36:11Z</time>
      </trkpt>
      <trkpt lat="45.94228" lon="1.30271">
        <ele>387.7</ele>
        <time>2025-06-16T14:36:12Z</time>
      </trkpt>
      <trkpt lat="45.94229" lon="1.3027">
        <ele>387.9</ele>
        <time>2025-06-16T14:36:13Z</time>
      </trkpt>
      <trkpt lat="45.9423" lon="1.30266">
        <ele>388.3</ele>
        <time>2025-06-16T14:36:14Z</time>
      </trkpt>
      <trkpt lat="45.9423" lon="1.30265">
        <ele>388.5</ele>
        <time>2025-06-16T14:36:15Z</time>
      </trkpt>
      <trkpt lat="45.94232" lon="1.30262">
        <ele>388.9</ele>
        <time>2025-06-16T14:36:16Z</time>
      </trkpt>
      <trkpt lat="45.94233" lon="1.30261">
        <ele>389.1</ele>
        <time>2025-06-16T14:36:17Z</time>
      </trkpt>
      <trkpt lat="45.94234" lon="1.30259">
        <ele>389.4</ele>
        <time>2025-06-16T14:36:18Z</time>
      </trkpt>
      <trkpt lat="45.94236" lon="1.30258">
        <ele>389.7</ele>
        <time>2025-06-16T14:36:19Z</time>
      </trkpt>
      <trkpt lat="45.94237" lon="1.30257">
        <ele>390</ele>
        <time>2025-06-16T14:36:20Z</time>
      </trkpt>
      <trkpt lat="45.94238" lon="1.30255">
        <ele>390.2</ele>
        <time>2025-06-16T14:36:21Z</time>
      </trkpt>
      <trkpt lat="45.9424" lon="1.30252">
        <ele>390.7</ele>
        <time>2025-06-16T14:36:22Z</time>
      </trkpt>
      <trkpt lat="45.94241" lon="1.30251">
        <ele>390.9</ele>
        <time>2025-06-16T14:36:23Z</time>
      </trkpt>
      <trkpt lat="45.94243" lon="1.30248">
        <ele>391.4</ele>
        <time>2025-06-16T14:36:24Z</time>
      </trkpt>
      <trkpt lat="45.94243" lon="1.30247">
        <ele>391.5</ele>
        <time>2025-06-16T14:36:25Z</time>
      </trkpt>
      <trkpt lat="45.94245" lon="1.30244">
        <ele>392</ele>
        <time>2025-06-16T14:36:26Z</time>
      </trkpt>
      <trkpt lat="45.94246" lon="1.30243">
        <ele>392.1</ele>
        <time>2025-06-16T14:36:27Z</time>
      </trkpt>
      <trkpt lat="45.94247" lon="1.30241">
        <ele>392.4</ele>
        <time>2025-06-16T14:36:28Z</time>
      </trkpt>
      <trkpt lat="45.94249" lon="1.3024">
        <ele>392.7</ele>
        <time>2025-06-16T14:36:29Z</time>
      </trkpt>
      <trkpt lat="45.94251" lon="1.30239">
        <ele>393.1</ele>
        <time>2025-06-16T14:36:30Z</time>
      </trkpt>
      <trkpt lat="45.94252" lon="1.30238">
        <ele>393.3</ele>
        <time>2025-06-16T14:36:31Z</time>
      </trkpt>
      <trkpt lat="45.94254" lon="1.30237">
        <ele>393.6</ele>
        <time>2025-06-16T14:36:32Z</time>
      </trkpt>
      <trkpt lat="45.94255" lon="1.30236">
        <ele>393.8</ele>
        <time>2025-06-16T14:36:33Z</time>
      </trkpt>
      <trkpt lat="45.94257" lon="1.30234">
        <ele>394.2</ele>
        <time>2025-06-16T14:36:34Z</time>
      </trkpt>
      <trkpt lat="45.94258" lon="1.30233">
        <ele>394.4</ele>
        <time>2025-06-16T14:36:35Z</time>
      </trkpt>
      <trkpt lat="45.94259" lon="1.30233">
        <ele>394.5</ele>
        <time>2025-06-16T14:36:36Z</time>
      </trkpt>
      <trkpt lat="45.9426" lon="1.30231">
        <ele>394.8</ele>
        <time>2025-06-16T14:36:37Z</time>
      </trkpt>
      <trkpt lat="45.94261" lon="1.3023">
        <ele>395</ele>
        <time>2025-06-16T14:36:38Z</time>
      </trkpt>
      <trkpt lat="45.94262" lon="1.30229">
        <ele>395.1</ele>
        <time>2025-06-16T14:36:39Z</time>
      </trkpt>
      <trkpt lat="45.94263" lon="1.30228">
        <ele>395.3</ele>
        <time>2025-06-16T14:36:40Z</time>
      </trkpt>
      <trkpt lat="45.94264" lon="1.30227">
        <ele>395.5</ele>
        <time>2025-06-16T14:36:41Z</time>
      </trkpt>
      <trkpt lat="45.94264" lon="1.30226">
        <ele>395.6</ele>
        <time>2025-06-16T14:36:42Z</time>
      </trkpt>
      <trkpt lat="45.94264" lon="1.30227">
        <ele>395.6</ele>
        <time>2025-06-16T14:36:43Z</time>
      </trkpt>
      <trkpt lat="45.94264" lon="1.30227">
        <ele>395.6</ele>
        <time>2025-06-16T14:36:44Z</time>
      </trkpt>
      <trkpt lat="45.94263" lon="1.30227">
        <ele>395.6</ele>
        <time>2025-06-16T14:36:45Z</time>
      </trkpt>
      <trkpt lat="45.94263" lon="1.30227">
        <ele>395.6</ele>
        <time>2025-06-16T14:36:46Z</time>
      </trkpt>
      <trkpt lat="45.94263" lon="1.30227">
        <ele>395.6</ele>
        <time>2025-06-16T14:36:47Z</time>
      </trkpt>
      <trkpt lat="45.94264" lon="1.30227">
        <ele>395.6</ele>
        <time>2025-06-16T14:36:48Z</time>
      </trkpt>
      <trkpt lat="45.94264" lon="1.30227">
        <ele>395.6</ele>
        <time>2025-06-16T14:36:49Z</time>
      </trkpt>
      <trkpt lat="45.94264" lon="1.30227">
        <ele>395.6</ele>
        <time>2025-06-16T14:36:50Z</time>
      </trkpt>
      <trkpt lat="45.94263" lon="1.30227">
        <ele>395.6</ele>
        <time>2025-06-16T14:36:51Z</time>
      </trkpt>
      <trkpt lat="45.94264" lon="1.30226">
        <ele>395.6</ele>
        <time>2025-06-16T14:36:52Z</time>
      </trkpt>
      <trkpt lat="45.94264" lon="1.30226">
        <ele>395.6</ele>
        <time>2025-06-16T14:36:53Z</time>
      </trkpt>
      <trkpt lat="45.94264" lon="1.30226">
        <ele>395.6</ele>
        <time>2025-06-16T14:36:54Z</time>
      </trkpt>
      <trkpt lat="45.94264" lon="1.30226">
        <ele>395.6</ele>
        <time>2025-06-16T14:36:55Z</time>
      </trkpt>
      <trkpt lat="45.94264" lon="1.30226">
        <ele>395.6</ele>
        <time>2025-06-16T14:36:56Z</time>
      </trkpt>
      <trkpt lat="45.94264" lon="1.30226">
        <ele>395.6</ele>
        <time>2025-06-16T14:36:57Z</time>
      </trkpt>
      <trkpt lat="45.94264" lon="1.30226">
        <ele>395.7</ele>
        <time>2025-06-16T14:36:58Z</time>
      </trkpt>
      <trkpt lat="45.94265" lon="1.30226">
        <ele>395.7</ele>
        <time>2025-06-16T14:36:59Z</time>
      </trkpt>
      <trkpt lat="45.94265" lon="1.30226">
        <ele>395.7</ele>
        <time>2025-06-16T14:37:00Z</time>
      </trkpt>
      <trkpt lat="45.94265" lon="1.30226">
        <ele>395.7</ele>
        <time>2025-06-16T14:37:01Z</time>
      </trkpt>
      <trkpt lat="45.94265" lon="1.30226">
        <ele>395.7</ele>
        <time>2025-06-16T14:37:02Z</time>
      </trkpt>
      <trkpt lat="45.94265" lon="1.30226">
        <ele>395.7</ele>
        <time>2025-06-16T14:37:03Z</time>
      </trkpt>
      <trkpt lat="45.94265" lon="1.30226">
        <ele>395.7</ele>
        <time>2025-06-16T14:37:04Z</time>
      </trkpt>
      <trkpt lat="45.94266" lon="1.30226">
        <ele>395.7</ele>
        <time>2025-06-16T14:37:05Z</time>
      </trkpt>
      <trkpt lat="45.94266" lon="1.30226">
        <ele>395.7</ele>
        <time>2025-06-16T14:37:06Z</time>
      </trkpt>
      <trkpt lat="45.94266" lon="1.30226">
        <ele>395.7</ele>
        <time>2025-06-16T14:37:07Z</time>
      </trkpt>
      <trkpt lat="45.94266" lon="1.30226">
        <ele>395.7</ele>
        <time>2025-06-16T14:37:08Z</time>
      </trkpt>
      <trkpt lat="45.94266" lon="1.30226">
        <ele>395.7</ele>
        <time>2025-06-16T14:37:09Z</time>
      </trkpt>
      <trkpt lat="45.94266" lon="1.30226">
        <ele>395.8</ele>
        <time>2025-06-16T14:37:11Z</time>
      </trkpt>
      <trkpt lat="45.94266" lon="1.30226">
        <ele>395.8</ele>
        <time>2025-06-16T14:37:12Z</time>
      </trkpt>
      <trkpt lat="45.94266" lon="1.30225">
        <ele>395.8</ele>
        <time>2025-06-16T14:37:13Z</time>
      </trkpt>
      <trkpt lat="45.94266" lon="1.30225">
        <ele>395.8</ele>
        <time>2025-06-16T14:37:14Z</time>
      </trkpt>
      <trkpt lat="45.94266" lon="1.30225">
        <ele>395.8</ele>
        <time>2025-06-16T14:37:15Z</time>
      </trkpt>
      <trkpt lat="45.94266" lon="1.30224">
        <ele>395.8</ele>
        <time>2025-06-16T14:37:16Z</time>
      </trkpt>
      <trkpt lat="45.94266" lon="1.30224">
        <ele>395.8</ele>
        <time>2025-06-16T14:37:17Z</time>
      </trkpt>
      <trkpt lat="45.94266" lon="1.30225">
        <ele>395.9</ele>
        <time>2025-06-16T14:37:18Z</time>
      </trkpt>
      <trkpt lat="45.94266" lon="1.30226">
        <ele>395.9</ele>
        <time>2025-06-16T14:37:19Z</time>
      </trkpt>
      <trkpt lat="45.94266" lon="1.30225">
        <ele>395.9</ele>
        <time>2025-06-16T14:37:21Z</time>
      </trkpt>
      <trkpt lat="45.94266" lon="1.30225">
        <ele>395.9</ele>
        <time>2025-06-16T14:37:22Z</time>
      </trkpt>
      <trkpt lat="45.94267" lon="1.30225">
        <ele>395.9</ele>
        <time>2025-06-16T14:37:24Z</time>
      </trkpt>
      <trkpt lat="45.94267" lon="1.30225">
        <ele>395.9</ele>
        <time>2025-06-16T14:37:25Z</time>
      </trkpt>
      <trkpt lat="45.94266" lon="1.30225">
        <ele>395.9</ele>
        <time>2025-06-16T14:37:26Z</time>
      </trkpt>
      <trkpt lat="45.94266" lon="1.30225">
        <ele>395.9</ele>
        <time>2025-06-16T14:37:28Z</time>
      </trkpt>
      <trkpt lat="45.94266" lon="1.30225">
        <ele>395.9</ele>
        <time>2025-06-16T14:37:29Z</time>
      </trkpt>
      <trkpt lat="45.94266" lon="1.30225">
        <ele>395.9</ele>
        <time>2025-06-16T14:37:30Z</time>
      </trkpt>
      <trkpt lat="45.94267" lon="1.30224">
        <ele>396</ele>
        <time>2025-06-16T14:37:31Z</time>
      </trkpt>
      <trkpt lat="45.94267" lon="1.30224">
        <ele>396</ele>
        <time>2025-06-16T14:37:32Z</time>
      </trkpt>
      <trkpt lat="45.94267" lon="1.30224">
        <ele>396</ele>
        <time>2025-06-16T14:37:33Z</time>
      </trkpt>
      <trkpt lat="45.94267" lon="1.30224">
        <ele>396</ele>
        <time>2025-06-16T14:37:35Z</time>
      </trkpt>
      <trkpt lat="45.94267" lon="1.30224">
        <ele>396</ele>
        <time>2025-06-16T14:37:36Z</time>
      </trkpt>
      <trkpt lat="45.94267" lon="1.30224">
        <ele>396</ele>
        <time>2025-06-16T14:37:37Z</time>
      </trkpt>
      <trkpt lat="45.94267" lon="1.30224">
        <ele>396</ele>
        <time>2025-06-16T14:37:38Z</time>
      </trkpt>
      <trkpt lat="45.94267" lon="1.30224">
        <ele>396</ele>
        <time>2025-06-16T14:37:39Z</time>
      </trkpt>
      <trkpt lat="45.94267" lon="1.30224">
        <ele>396</ele>
        <time>2025-06-16T14:37:40Z</time>
      </trkpt>
      <trkpt lat="45.94267" lon="1.30224">
        <ele>396</ele>
        <time>2025-06-16T14:37:41Z</time>
      </trkpt>
      <trkpt lat="45.94267" lon="1.30224">
        <ele>396</ele>
        <time>2025-06-16T14:37:42Z</time>
      </trkpt>
      <trkpt lat="45.94267" lon="1.30224">
        <ele>396</ele>
        <time>2025-06-16T14:37:43Z</time>
      </trkpt>
      <trkpt lat="45.94267" lon="1.30224">
        <ele>396</ele>
        <time>2025-06-16T14:37:44Z</time>
      </trkpt>
      <trkpt lat="45.94267" lon="1.30224">
        <ele>396</ele>
        <time>2025-06-16T14:37:45Z</time>
      </trkpt>
      <trkpt lat="45.94268" lon="1.30224">
        <ele>396.1</ele>
        <time>2025-06-16T14:37:46Z</time>
      </trkpt>
      <trkpt lat="45.94269" lon="1.30224">
        <ele>396.1</ele>
        <time>2025-06-16T14:37:47Z</time>
      </trkpt>
      <trkpt lat="45.94272" lon="1.30227">
        <ele>396.3</ele>
        <time>2025-06-16T14:37:48Z</time>
      </trkpt>
      <trkpt lat="45.94273" lon="1.30228">
        <ele>396.3</ele>
        <time>2025-06-16T14:37:49Z</time>
      </trkpt>
      <trkpt lat="45.94276" lon="1.30231">
        <ele>396.4</ele>
        <time>2025-06-16T14:37:50Z</time>
      </trkpt>
      <trkpt lat="45.94278" lon="1.30233">
        <ele>396.6</ele>
        <time>2025-06-16T14:37:51Z</time>
      </trkpt>
      <trkpt lat="45.9428" lon="1.30237">
        <ele>396.8</ele>
        <time>2025-06-16T14:37:52Z</time>
      </trkpt>
      <trkpt lat="45.94281" lon="1.30238">
        <ele>396.9</ele>
        <time>2025-06-16T14:37:53Z</time>
      </trkpt>
      <trkpt lat="45.94283" lon="1.30245">
        <ele>397.4</ele>
        <time>2025-06-16T14:37:54Z</time>
      </trkpt>
      <trkpt lat="45.94284" lon="1.30251">
        <ele>397.7</ele>
        <time>2025-06-16T14:37:56Z</time>
      </trkpt>
      <trkpt lat="45.94284" lon="1.30252">
        <ele>397.8</ele>
        <time>2025-06-16T14:37:57Z</time>
      </trkpt>
      <trkpt lat="45.94284" lon="1.30258">
        <ele>398.1</ele>
        <time>2025-06-16T14:37:58Z</time>
      </trkpt>
      <trkpt lat="45.94284" lon="1.3026">
        <ele>398.2</ele>
        <time>2025-06-16T14:37:59Z</time>
      </trkpt>
      <trkpt lat="45.94285" lon="1.30264">
        <ele>398.4</ele>
        <time>2025-06-16T14:38:00Z</time>
      </trkpt>
      <trkpt lat="45.94285" lon="1.30271">
        <ele>398.7</ele>
        <time>2025-06-16T14:38:01Z</time>
      </trkpt>
      <trkpt lat="45.94286" lon="1.30275">
        <ele>398.8</ele>
        <time>2025-06-16T14:38:03Z</time>
      </trkpt>
      <trkpt lat="45.94286" lon="1.3028">
        <ele>398.9</ele>
        <time>2025-06-16T14:38:04Z</time>
      </trkpt>
      <trkpt lat="45.94287" lon="1.30284">
        <ele>399</ele>
        <time>2025-06-16T14:38:05Z</time>
      </trkpt>
      <trkpt lat="45.94287" lon="1.30289">
        <ele>399.1</ele>
        <time>2025-06-16T14:38:06Z</time>
      </trkpt>
      <trkpt lat="45.94289" lon="1.30293">
        <ele>399.1</ele>
        <time>2025-06-16T14:38:07Z</time>
      </trkpt>
      <trkpt lat="45.9429" lon="1.30296">
        <ele>399.2</ele>
        <time>2025-06-16T14:38:08Z</time>
      </trkpt>
      <trkpt lat="45.94293" lon="1.30299">
        <ele>399.2</ele>
        <time>2025-06-16T14:38:09Z</time>
      </trkpt>
      <trkpt lat="45.94296" lon="1.303">
        <ele>399.1</ele>
        <time>2025-06-16T14:38:10Z</time>
      </trkpt>
      <trkpt lat="45.94299" lon="1.303">
        <ele>399.1</ele>
        <time>2025-06-16T14:38:11Z</time>
      </trkpt>
      <trkpt lat="45.94302" lon="1.30301">
        <ele>399.1</ele>
        <time>2025-06-16T14:38:12Z</time>
      </trkpt>
      <trkpt lat="45.94305" lon="1.30301">
        <ele>399.1</ele>
        <time>2025-06-16T14:38:13Z</time>
      </trkpt>
      <trkpt lat="45.94306" lon="1.30301">
        <ele>399</ele>
        <time>2025-06-16T14:38:14Z</time>
      </trkpt>
      <trkpt lat="45.94308" lon="1.30301">
        <ele>398.9</ele>
        <time>2025-06-16T14:38:15Z</time>
      </trkpt>
      <trkpt lat="45.94309" lon="1.30301">
        <ele>398.9</ele>
        <time>2025-06-16T14:38:16Z</time>
      </trkpt>
      <trkpt lat="45.94311" lon="1.303">
        <ele>398.8</ele>
        <time>2025-06-16T14:38:17Z</time>
      </trkpt>
      <trkpt lat="45.94312" lon="1.30299">
        <ele>398.7</ele>
        <time>2025-06-16T14:38:18Z</time>
      </trkpt>
      <trkpt lat="45.94316" lon="1.30298">
        <ele>398.6</ele>
        <time>2025-06-16T14:38:19Z</time>
      </trkpt>
      <trkpt lat="45.94317" lon="1.30298">
        <ele>398.5</ele>
        <time>2025-06-16T14:38:20Z</time>
      </trkpt>
      <trkpt lat="45.94321" lon="1.30299">
        <ele>398.4</ele>
        <time>2025-06-16T14:38:21Z</time>
      </trkpt>
      <trkpt lat="45.94322" lon="1.30299">
        <ele>398.3</ele>
        <time>2025-06-16T14:38:22Z</time>
      </trkpt>
      <trkpt lat="45.94322" lon="1.30299">
        <ele>398.3</ele>
        <time>2025-06-16T14:38:23Z</time>
      </trkpt>
      <trkpt lat="45.94321" lon="1.30298">
        <ele>398.4</ele>
        <time>2025-06-16T14:38:24Z</time>
      </trkpt>
      <trkpt lat="45.9432" lon="1.30298">
        <ele>398.4</ele>
        <time>2025-06-16T14:38:25Z</time>
      </trkpt>
      <trkpt lat="45.9432" lon="1.30297">
        <ele>398.4</ele>
        <time>2025-06-16T14:38:26Z</time>
      </trkpt>
      <trkpt lat="45.94319" lon="1.30297">
        <ele>398.5</ele>
        <time>2025-06-16T14:38:27Z</time>
      </trkpt>
      <trkpt lat="45.94318" lon="1.30296">
        <ele>398.5</ele>
        <time>2025-06-16T14:38:28Z</time>
      </trkpt>
      <trkpt lat="45.94314" lon="1.30297">
        <ele>398.7</ele>
        <time>2025-06-16T14:38:29Z</time>
      </trkpt>
      <trkpt lat="45.94313" lon="1.30297">
        <ele>398.7</ele>
        <time>2025-06-16T14:38:30Z</time>
      </trkpt>
      <trkpt lat="45.94309" lon="1.303">
        <ele>398.9</ele>
        <time>2025-06-16T14:38:31Z</time>
      </trkpt>
      <trkpt lat="45.94309" lon="1.30301">
        <ele>398.9</ele>
        <time>2025-06-16T14:38:32Z</time>
      </trkpt>
      <trkpt lat="45.94308" lon="1.30305">
        <ele>399</ele>
        <time>2025-06-16T14:38:33Z</time>
      </trkpt>
      <trkpt lat="45.94309" lon="1.3031">
        <ele>399</ele>
        <time>2025-06-16T14:38:34Z</time>
      </trkpt>
      <trkpt lat="45.94311" lon="1.30314">
        <ele>398.9</ele>
        <time>2025-06-16T14:38:35Z</time>
      </trkpt>
      <trkpt lat="45.94312" lon="1.30318">
        <ele>398.8</ele>
        <time>2025-06-16T14:38:36Z</time>
      </trkpt>
      <trkpt lat="45.94313" lon="1.30322">
        <ele>398.8</ele>
        <time>2025-06-16T14:38:37Z</time>
      </trkpt>
      <trkpt lat="45.94314" lon="1.30327">
        <ele>398.7</ele>
        <time>2025-06-16T14:38:38Z</time>
      </trkpt>
      <trkpt lat="45.94315" lon="1.30331">
        <ele>398.7</ele>
        <time>2025-06-16T14:38:39Z</time>
      </trkpt>
      <trkpt lat="45.94316" lon="1.30336">
        <ele>398.6</ele>
        <time>2025-06-16T14:38:40Z</time>
      </trkpt>
      <trkpt lat="45.94317" lon="1.3034">
        <ele>398.6</ele>
        <time>2025-06-16T14:38:41Z</time>
      </trkpt>
      <trkpt lat="45.94318" lon="1.30345">
        <ele>398.6</ele>
        <time>2025-06-16T14:38:42Z</time>
      </trkpt>
      <trkpt lat="45.9432" lon="1.30349">
        <ele>398.6</ele>
        <time>2025-06-16T14:38:43Z</time>
      </trkpt>
      <trkpt lat="45.94321" lon="1.30354">
        <ele>398.6</ele>
        <time>2025-06-16T14:38:44Z</time>
      </trkpt>
      <trkpt lat="45.94323" lon="1.3036">
        <ele>398.6</ele>
        <time>2025-06-16T14:38:45Z</time>
      </trkpt>
      <trkpt lat="45.94324" lon="1.30365">
        <ele>398.6</ele>
        <time>2025-06-16T14:38:46Z</time>
      </trkpt>
      <trkpt lat="45.94326" lon="1.30371">
        <ele>398.7</ele>
        <time>2025-06-16T14:38:47Z</time>
      </trkpt>
      <trkpt lat="45.94327" lon="1.30376">
        <ele>398.8</ele>
        <time>2025-06-16T14:38:48Z</time>
      </trkpt>
      <trkpt lat="45.94328" lon="1.30381">
        <ele>398.9</ele>
        <time>2025-06-16T14:38:49Z</time>
      </trkpt>
      <trkpt lat="45.9433" lon="1.30386">
        <ele>399</ele>
        <time>2025-06-16T14:38:50Z</time>
      </trkpt>
      <trkpt lat="45.94332" lon="1.30391">
        <ele>399.1</ele>
        <time>2025-06-16T14:38:51Z</time>
      </trkpt>
      <trkpt lat="45.94334" lon="1.30396">
        <ele>399.3</ele>
        <time>2025-06-16T14:38:52Z</time>
      </trkpt>
      <trkpt lat="45.94335" lon="1.304">
        <ele>399.4</ele>
        <time>2025-06-16T14:38:53Z</time>
      </trkpt>
      <trkpt lat="45.94339" lon="1.30408">
        <ele>399.8</ele>
        <time>2025-06-16T14:38:54Z</time>
      </trkpt>
      <trkpt lat="45.9434" lon="1.30413">
        <ele>400</ele>
        <time>2025-06-16T14:38:56Z</time>
      </trkpt>
      <trkpt lat="45.94342" lon="1.30417">
        <ele>400.2</ele>
        <time>2025-06-16T14:38:57Z</time>
      </trkpt>
      <trkpt lat="45.94343" lon="1.30421">
        <ele>400.4</ele>
        <time>2025-06-16T14:38:58Z</time>
      </trkpt>
      <trkpt lat="45.94345" lon="1.30424">
        <ele>400.6</ele>
        <time>2025-06-16T14:38:59Z</time>
      </trkpt>
      <trkpt lat="45.94347" lon="1.30429">
        <ele>400.9</ele>
        <time>2025-06-16T14:39:00Z</time>
      </trkpt>
      <trkpt lat="45.94348" lon="1.3043">
        <ele>401</ele>
        <time>2025-06-16T14:39:01Z</time>
      </trkpt>
      <trkpt lat="45.9435" lon="1.30434">
        <ele>401.3</ele>
        <time>2025-06-16T14:39:02Z</time>
      </trkpt>
      <trkpt lat="45.94351" lon="1.30436">
        <ele>401.4</ele>
        <time>2025-06-16T14:39:03Z</time>
      </trkpt>
      <trkpt lat="45.94352" lon="1.3044">
        <ele>401.6</ele>
        <time>2025-06-16T14:39:04Z</time>
      </trkpt>
      <trkpt lat="45.94354" lon="1.30443">
        <ele>401.7</ele>
        <time>2025-06-16T14:39:05Z</time>
      </trkpt>
      <trkpt lat="45.94356" lon="1.30447">
        <ele>401.9</ele>
        <time>2025-06-16T14:39:06Z</time>
      </trkpt>
      <trkpt lat="45.94357" lon="1.3045">
        <ele>402.1</ele>
        <time>2025-06-16T14:39:07Z</time>
      </trkpt>
      <trkpt lat="45.94359" lon="1.30454">
        <ele>402.3</ele>
        <time>2025-06-16T14:39:08Z</time>
      </trkpt>
      <trkpt lat="45.9436" lon="1.30458">
        <ele>402.4</ele>
        <time>2025-06-16T14:39:09Z</time>
      </trkpt>
      <trkpt lat="45.94361" lon="1.30461">
        <ele>402.6</ele>
        <time>2025-06-16T14:39:10Z</time>
      </trkpt>
      <trkpt lat="45.94363" lon="1.30465">
        <ele>402.7</ele>
        <time>2025-06-16T14:39:11Z</time>
      </trkpt>
      <trkpt lat="45.94364" lon="1.30468">
        <ele>402.9</ele>
        <time>2025-06-16T14:39:12Z</time>
      </trkpt>
      <trkpt lat="45.94365" lon="1.30472">
        <ele>403</ele>
        <time>2025-06-16T14:39:13Z</time>
      </trkpt>
      <trkpt lat="45.94367" lon="1.30477">
        <ele>403.2</ele>
        <time>2025-06-16T14:39:14Z</time>
      </trkpt>
      <trkpt lat="45.94367" lon="1.30479">
        <ele>403.2</ele>
        <time>2025-06-16T14:39:15Z</time>
      </trkpt>
      <trkpt lat="45.94369" lon="1.30484">
        <ele>403.4</ele>
        <time>2025-06-16T14:39:16Z</time>
      </trkpt>
      <trkpt lat="45.9437" lon="1.30485">
        <ele>403.4</ele>
        <time>2025-06-16T14:39:17Z</time>
      </trkpt>
      <trkpt lat="45.94372" lon="1.30491">
        <ele>403.6</ele>
        <time>2025-06-16T14:39:18Z</time>
      </trkpt>
      <trkpt lat="45.94372" lon="1.30492">
        <ele>403.6</ele>
        <time>2025-06-16T14:39:19Z</time>
      </trkpt>
      <trkpt lat="45.94374" lon="1.30496">
        <ele>403.7</ele>
        <time>2025-06-16T14:39:20Z</time>
      </trkpt>
      <trkpt lat="45.94375" lon="1.305">
        <ele>403.7</ele>
        <time>2025-06-16T14:39:21Z</time>
      </trkpt>
      <trkpt lat="45.94377" lon="1.30502">
        <ele>403.8</ele>
        <time>2025-06-16T14:39:22Z</time>
      </trkpt>
      <trkpt lat="45.94379" lon="1.30506">
        <ele>403.9</ele>
        <time>2025-06-16T14:39:23Z</time>
      </trkpt>
      <trkpt lat="45.9438" lon="1.3051">
        <ele>403.9</ele>
        <time>2025-06-16T14:39:24Z</time>
      </trkpt>
      <trkpt lat="45.94382" lon="1.30514">
        <ele>404</ele>
        <time>2025-06-16T14:39:25Z</time>
      </trkpt>
      <trkpt lat="45.94384" lon="1.30517">
        <ele>404</ele>
        <time>2025-06-16T14:39:26Z</time>
      </trkpt>
      <trkpt lat="45.94386" lon="1.30521">
        <ele>404.1</ele>
        <time>2025-06-16T14:39:27Z</time>
      </trkpt>
      <trkpt lat="45.94389" lon="1.30524">
        <ele>404.1</ele>
        <time>2025-06-16T14:39:28Z</time>
      </trkpt>
      <trkpt lat="45.94391" lon="1.30528">
        <ele>404.2</ele>
        <time>2025-06-16T14:39:29Z</time>
      </trkpt>
      <trkpt lat="45.94393" lon="1.30531">
        <ele>404.2</ele>
        <time>2025-06-16T14:39:30Z</time>
      </trkpt>
      <trkpt lat="45.94395" lon="1.30533">
        <ele>404.2</ele>
        <time>2025-06-16T14:39:31Z</time>
      </trkpt>
      <trkpt lat="45.94397" lon="1.30536">
        <ele>404.2</ele>
        <time>2025-06-16T14:39:32Z</time>
      </trkpt>
      <trkpt lat="45.944" lon="1.30539">
        <ele>404.3</ele>
        <time>2025-06-16T14:39:33Z</time>
      </trkpt>
      <trkpt lat="45.94402" lon="1.30542">
        <ele>404.3</ele>
        <time>2025-06-16T14:39:34Z</time>
      </trkpt>
      <trkpt lat="45.94404" lon="1.30545">
        <ele>404.3</ele>
        <time>2025-06-16T14:39:35Z</time>
      </trkpt>
      <trkpt lat="45.94406" lon="1.30549">
        <ele>404.3</ele>
        <time>2025-06-16T14:39:36Z</time>
      </trkpt>
      <trkpt lat="45.94407" lon="1.30551">
        <ele>404.3</ele>
        <time>2025-06-16T14:39:37Z</time>
      </trkpt>
      <trkpt lat="45.94409" lon="1.30554">
        <ele>404.4</ele>
        <time>2025-06-16T14:39:38Z</time>
      </trkpt>
      <trkpt lat="45.94412" lon="1.30557">
        <ele>404.4</ele>
        <time>2025-06-16T14:39:39Z</time>
      </trkpt>
      <trkpt lat="45.94415" lon="1.30559">
        <ele>404.5</ele>
        <time>2025-06-16T14:39:40Z</time>
      </trkpt>
      <trkpt lat="45.94418" lon="1.3056">
        <ele>404.6</ele>
        <time>2025-06-16T14:39:41Z</time>
      </trkpt>
      <trkpt lat="45.94421" lon="1.30561">
        <ele>404.6</ele>
        <time>2025-06-16T14:39:42Z</time>
      </trkpt>
      <trkpt lat="45.94424" lon="1.30562">
        <ele>404.7</ele>
        <time>2025-06-16T14:39:43Z</time>
      </trkpt>
      <trkpt lat="45.94427" lon="1.30563">
        <ele>404.8</ele>
        <time>2025-06-16T14:39:44Z</time>
      </trkpt>
      <trkpt lat="45.94429" lon="1.30564">
        <ele>404.9</ele>
        <time>2025-06-16T14:39:45Z</time>
      </trkpt>
      <trkpt lat="45.94432" lon="1.30566">
        <ele>405</ele>
        <time>2025-06-16T14:39:46Z</time>
      </trkpt>
      <trkpt lat="45.94435" lon="1.30568">
        <ele>405.1</ele>
        <time>2025-06-16T14:39:47Z</time>
      </trkpt>
      <trkpt lat="45.94438" lon="1.3057">
        <ele>405.3</ele>
        <time>2025-06-16T14:39:48Z</time>
      </trkpt>
      <trkpt lat="45.94441" lon="1.30571">
        <ele>405.5</ele>
        <time>2025-06-16T14:39:49Z</time>
      </trkpt>
      <trkpt lat="45.94444" lon="1.30573">
        <ele>405.7</ele>
        <time>2025-06-16T14:39:50Z</time>
      </trkpt>
      <trkpt lat="45.94445" lon="1.30574">
        <ele>405.8</ele>
        <time>2025-06-16T14:39:51Z</time>
      </trkpt>
      <trkpt lat="45.94449" lon="1.30575">
        <ele>406</ele>
        <time>2025-06-16T14:39:52Z</time>
      </trkpt>
      <trkpt lat="45.9445" lon="1.30576">
        <ele>406.1</ele>
        <time>2025-06-16T14:39:53Z</time>
      </trkpt>
      <trkpt lat="45.94452" lon="1.30577">
        <ele>406.3</ele>
        <time>2025-06-16T14:39:54Z</time>
      </trkpt>
      <trkpt lat="45.94453" lon="1.30578">
        <ele>406.4</ele>
        <time>2025-06-16T14:39:55Z</time>
      </trkpt>
      <trkpt lat="45.94455" lon="1.30578">
        <ele>406.5</ele>
        <time>2025-06-16T14:39:56Z</time>
      </trkpt>
      <trkpt lat="45.94456" lon="1.30579">
        <ele>406.6</ele>
        <time>2025-06-16T14:39:57Z</time>
      </trkpt>
      <trkpt lat="45.94457" lon="1.30579">
        <ele>406.7</ele>
        <time>2025-06-16T14:39:58Z</time>
      </trkpt>
      <trkpt lat="45.94458" lon="1.30579">
        <ele>406.8</ele>
        <time>2025-06-16T14:39:59Z</time>
      </trkpt>
      <trkpt lat="45.94458" lon="1.30579">
        <ele>406.8</ele>
        <time>2025-06-16T14:40:00Z</time>
      </trkpt>
      <trkpt lat="45.94459" lon="1.30579">
        <ele>406.8</ele>
        <time>2025-06-16T14:40:01Z</time>
      </trkpt>
      <trkpt lat="45.94459" lon="1.30579">
        <ele>406.8</ele>
        <time>2025-06-16T14:40:02Z</time>
      </trkpt>
      <trkpt lat="45.94459" lon="1.30579">
        <ele>406.8</ele>
        <time>2025-06-16T14:40:03Z</time>
      </trkpt>
      <trkpt lat="45.94459" lon="1.30579">
        <ele>406.9</ele>
        <time>2025-06-16T14:40:04Z</time>
      </trkpt>
      <trkpt lat="45.94459" lon="1.30579">
        <ele>406.9</ele>
        <time>2025-06-16T14:40:05Z</time>
      </trkpt>
      <trkpt lat="45.94459" lon="1.30579">
        <ele>406.9</ele>
        <time>2025-06-16T14:40:06Z</time>
      </trkpt>
      <trkpt lat="45.94459" lon="1.30579">
        <ele>406.9</ele>
        <time>2025-06-16T14:40:07Z</time>
      </trkpt>
      <trkpt lat="45.94459" lon="1.30578">
        <ele>406.9</ele>
        <time>2025-06-16T14:40:09Z</time>
      </trkpt>
      <trkpt lat="45.94459" lon="1.30578">
        <ele>406.9</ele>
        <time>2025-06-16T14:40:10Z</time>
      </trkpt>
      <trkpt lat="45.94459" lon="1.30578">
        <ele>406.9</ele>
        <time>2025-06-16T14:40:11Z</time>
      </trkpt>
      <trkpt lat="45.94459" lon="1.30578">
        <ele>406.9</ele>
        <time>2025-06-16T14:40:12Z</time>
      </trkpt>
      <trkpt lat="45.94459" lon="1.30578">
        <ele>406.9</ele>
        <time>2025-06-16T14:40:14Z</time>
      </trkpt>
      <trkpt lat="45.94459" lon="1.30578">
        <ele>406.9</ele>
        <time>2025-06-16T14:40:15Z</time>
      </trkpt>
      <trkpt lat="45.94459" lon="1.30578">
        <ele>406.9</ele>
        <time>2025-06-16T14:40:16Z</time>
      </trkpt>
      <trkpt lat="45.94459" lon="1.30578">
        <ele>406.9</ele>
        <time>2025-06-16T14:40:17Z</time>
      </trkpt>
      <trkpt lat="45.94459" lon="1.30578">
        <ele>406.9</ele>
        <time>2025-06-16T14:40:18Z</time>
      </trkpt>
      <trkpt lat="45.94459" lon="1.30578">
        <ele>406.9</ele>
        <time>2025-06-16T14:40:20Z</time>
      </trkpt>
      <trkpt lat="45.94459" lon="1.30578">
        <ele>406.9</ele>
        <time>2025-06-16T14:40:21Z</time>
      </trkpt>
      <trkpt lat="45.94459" lon="1.30578">
        <ele>406.9</ele>
        <time>2025-06-16T14:40:22Z</time>
      </trkpt>
      <trkpt lat="45.94459" lon="1.30578">
        <ele>406.9</ele>
        <time>2025-06-16T14:40:23Z</time>
      </trkpt>
      <trkpt lat="45.94459" lon="1.30578">
        <ele>406.9</ele>
        <time>2025-06-16T14:40:24Z</time>
      </trkpt>
      <trkpt lat="45.94459" lon="1.30578">
        <ele>406.9</ele>
        <time>2025-06-16T14:40:25Z</time>
      </trkpt>
      <trkpt lat="45.94459" lon="1.30578">
        <ele>406.9</ele>
        <time>2025-06-16T14:40:26Z</time>
      </trkpt>
      <trkpt lat="45.94459" lon="1.30578">
        <ele>406.9</ele>
        <time>2025-06-16T14:40:27Z</time>
      </trkpt>
      <trkpt lat="45.94459" lon="1.30578">
        <ele>406.9</ele>
        <time>2025-06-16T14:40:28Z</time>
      </trkpt>
      <trkpt lat="45.9446" lon="1.30578">
        <ele>407</ele>
        <time>2025-06-16T14:40:29Z</time>
      </trkpt>
      <trkpt lat="45.94461" lon="1.30578">
        <ele>407.2</ele>
        <time>2025-06-16T14:40:30Z</time>
      </trkpt>
      <trkpt lat="45.94462" lon="1.30577">
        <ele>407.4</ele>
        <time>2025-06-16T14:40:31Z</time>
      </trkpt>
      <trkpt lat="45.94465" lon="1.30577">
        <ele>407.9</ele>
        <time>2025-06-16T14:40:32Z</time>
      </trkpt>
      <trkpt lat="45.94466" lon="1.30577">
        <ele>408.1</ele>
        <time>2025-06-16T14:40:33Z</time>
      </trkpt>
      <trkpt lat="45.94469" lon="1.30575">
        <ele>408.7</ele>
        <time>2025-06-16T14:40:34Z</time>
      </trkpt>
      <trkpt lat="45.94471" lon="1.30575">
        <ele>408.9</ele>
        <time>2025-06-16T14:40:35Z</time>
      </trkpt>
      <trkpt lat="45.94473" lon="1.30574">
        <ele>409.3</ele>
        <time>2025-06-16T14:40:36Z</time>
      </trkpt>
      <trkpt lat="45.94476" lon="1.30572">
        <ele>409.8</ele>
        <time>2025-06-16T14:40:37Z</time>
      </trkpt>
      <trkpt lat="45.9448" lon="1.30571">
        <ele>410.3</ele>
        <time>2025-06-16T14:40:38Z</time>
      </trkpt>
      <trkpt lat="45.94481" lon="1.30571">
        <ele>410.5</ele>
        <time>2025-06-16T14:40:39Z</time>
      </trkpt>
      <trkpt lat="45.94485" lon="1.30571">
        <ele>411</ele>
        <time>2025-06-16T14:40:40Z</time>
      </trkpt>
      <trkpt lat="45.94487" lon="1.30572">
        <ele>411.2</ele>
        <time>2025-06-16T14:40:41Z</time>
      </trkpt>
      <trkpt lat="45.9449" lon="1.30572">
        <ele>411.5</ele>
        <time>2025-06-16T14:40:42Z</time>
      </trkpt>
      <trkpt lat="45.94493" lon="1.30571">
        <ele>411.9</ele>
        <time>2025-06-16T14:40:43Z</time>
      </trkpt>
      <trkpt lat="45.94496" lon="1.30572">
        <ele>412.3</ele>
        <time>2025-06-16T14:40:44Z</time>
      </trkpt>
      <trkpt lat="45.94499" lon="1.30572">
        <ele>412.7</ele>
        <time>2025-06-16T14:40:45Z</time>
      </trkpt>
      <trkpt lat="45.94503" lon="1.30571">
        <ele>413.2</ele>
        <time>2025-06-16T14:40:46Z</time>
      </trkpt>
      <trkpt lat="45.94506" lon="1.30571">
        <ele>413.6</ele>
        <time>2025-06-16T14:40:47Z</time>
      </trkpt>
      <trkpt lat="45.9451" lon="1.30571">
        <ele>414</ele>
        <time>2025-06-16T14:40:48Z</time>
      </trkpt>
      <trkpt lat="45.94513" lon="1.30571">
        <ele>414.3</ele>
        <time>2025-06-16T14:40:49Z</time>
      </trkpt>
      <trkpt lat="45.94516" lon="1.30571">
        <ele>414.7</ele>
        <time>2025-06-16T14:40:50Z</time>
      </trkpt>
      <trkpt lat="45.94519" lon="1.30571">
        <ele>415.1</ele>
        <time>2025-06-16T14:40:51Z</time>
      </trkpt>
      <trkpt lat="45.94522" lon="1.30571">
        <ele>415.4</ele>
        <time>2025-06-16T14:40:52Z</time>
      </trkpt>
      <trkpt lat="45.94528" lon="1.3057">
        <ele>415.7</ele>
        <time>2025-06-16T14:40:53Z</time>
      </trkpt>
      <trkpt lat="45.9453" lon="1.3057">
        <ele>415.9</ele>
        <time>2025-06-16T14:40:55Z</time>
      </trkpt>
      <trkpt lat="45.94533" lon="1.30569">
        <ele>416.1</ele>
        <time>2025-06-16T14:40:56Z</time>
      </trkpt>
      <trkpt lat="45.94534" lon="1.30568">
        <ele>416.2</ele>
        <time>2025-06-16T14:40:57Z</time>
      </trkpt>
      <trkpt lat="45.94537" lon="1.30566">
        <ele>416.3</ele>
        <time>2025-06-16T14:40:58Z</time>
      </trkpt>
      <trkpt lat="45.94539" lon="1.30564">
        <ele>416.4</ele>
        <time>2025-06-16T14:40:59Z</time>
      </trkpt>
      <trkpt lat="45.94544" lon="1.30561">
        <ele>416.6</ele>
        <time>2025-06-16T14:41:00Z</time>
      </trkpt>
      <trkpt lat="45.94546" lon="1.3056">
        <ele>416.6</ele>
        <time>2025-06-16T14:41:01Z</time>
      </trkpt>
      <trkpt lat="45.94547" lon="1.30559">
        <ele>416.6</ele>
        <time>2025-06-16T14:41:03Z</time>
      </trkpt>
      <trkpt lat="45.94551" lon="1.30556">
        <ele>416.6</ele>
        <time>2025-06-16T14:41:04Z</time>
      </trkpt>
      <trkpt lat="45.94553" lon="1.30554">
        <ele>416.5</ele>
        <time>2025-06-16T14:41:05Z</time>
      </trkpt>
      <trkpt lat="45.94559" lon="1.3055">
        <ele>416.4</ele>
        <time>2025-06-16T14:41:07Z</time>
      </trkpt>
      <trkpt lat="45.94563" lon="1.30547">
        <ele>416.2</ele>
        <time>2025-06-16T14:41:09Z</time>
      </trkpt>
      <trkpt lat="45.94566" lon="1.30546">
        <ele>416.1</ele>
        <time>2025-06-16T14:41:10Z</time>
      </trkpt>
      <trkpt lat="45.9457" lon="1.30544">
        <ele>415.9</ele>
        <time>2025-06-16T14:41:11Z</time>
      </trkpt>
      <trkpt lat="45.94571" lon="1.30543">
        <ele>415.8</ele>
        <time>2025-06-16T14:41:12Z</time>
      </trkpt>
      <trkpt lat="45.94574" lon="1.3054">
        <ele>415.7</ele>
        <time>2025-06-16T14:41:13Z</time>
      </trkpt>
      <trkpt lat="45.94578" lon="1.30538">
        <ele>415.4</ele>
        <time>2025-06-16T14:41:14Z</time>
      </trkpt>
      <trkpt lat="45.94581" lon="1.30536">
        <ele>415.2</ele>
        <time>2025-06-16T14:41:15Z</time>
      </trkpt>
      <trkpt lat="45.94585" lon="1.30533">
        <ele>414.9</ele>
        <time>2025-06-16T14:41:16Z</time>
      </trkpt>
      <trkpt lat="45.94588" lon="1.30531">
        <ele>414.6</ele>
        <time>2025-06-16T14:41:17Z</time>
      </trkpt>
      <trkpt lat="45.94591" lon="1.30528">
        <ele>414.2</ele>
        <time>2025-06-16T14:41:18Z</time>
      </trkpt>
      <trkpt lat="45.94595" lon="1.30524">
        <ele>413.7</ele>
        <time>2025-06-16T14:41:19Z</time>
      </trkpt>
      <trkpt lat="45.94599" lon="1.30522">
        <ele>413.1</ele>
        <time>2025-06-16T14:41:20Z</time>
      </trkpt>
      <trkpt lat="45.94604" lon="1.30521">
        <ele>412.4</ele>
        <time>2025-06-16T14:41:21Z</time>
      </trkpt>
      <trkpt lat="45.9461" lon="1.30521">
        <ele>411.4</ele>
        <time>2025-06-16T14:41:22Z</time>
      </trkpt>
      <trkpt lat="45.94615" lon="1.3052">
        <ele>410.6</ele>
        <time>2025-06-16T14:41:23Z</time>
      </trkpt>
      <trkpt lat="45.94623" lon="1.30518">
        <ele>409.2</ele>
        <time>2025-06-16T14:41:24Z</time>
      </trkpt>
      <trkpt lat="45.94629" lon="1.30517">
        <ele>408.3</ele>
        <time>2025-06-16T14:41:25Z</time>
      </trkpt>
      <trkpt lat="45.94636" lon="1.30516">
        <ele>407.3</ele>
        <time>2025-06-16T14:41:26Z</time>
      </trkpt>
      <trkpt lat="45.94643" lon="1.30516">
        <ele>406.3</ele>
        <time>2025-06-16T14:41:27Z</time>
      </trkpt>
      <trkpt lat="45.94649" lon="1.30514">
        <ele>405.6</ele>
        <time>2025-06-16T14:41:28Z</time>
      </trkpt>
      <trkpt lat="45.94657" lon="1.30511">
        <ele>404.5</ele>
        <time>2025-06-16T14:41:29Z</time>
      </trkpt>
      <trkpt lat="45.94663" lon="1.30509">
        <ele>403.8</ele>
        <time>2025-06-16T14:41:30Z</time>
      </trkpt>
      <trkpt lat="45.94666" lon="1.30508">
        <ele>403.4</ele>
        <time>2025-06-16T14:41:31Z</time>
      </trkpt>
      <trkpt lat="45.94674" lon="1.30505">
        <ele>402.7</ele>
        <time>2025-06-16T14:41:32Z</time>
      </trkpt>
      <trkpt lat="45.94682" lon="1.30503">
        <ele>402</ele>
        <time>2025-06-16T14:41:33Z</time>
      </trkpt>
      <trkpt lat="45.94689" lon="1.305">
        <ele>401.6</ele>
        <time>2025-06-16T14:41:34Z</time>
      </trkpt>
      <trkpt lat="45.94696" lon="1.30497">
        <ele>401.2</ele>
        <time>2025-06-16T14:41:35Z</time>
      </trkpt>
      <trkpt lat="45.94702" lon="1.30494">
        <ele>400.9</ele>
        <time>2025-06-16T14:41:36Z</time>
      </trkpt>
      <trkpt lat="45.94708" lon="1.30491">
        <ele>400.6</ele>
        <time>2025-06-16T14:41:37Z</time>
      </trkpt>
      <trkpt lat="45.94719" lon="1.30487">
        <ele>400.1</ele>
        <time>2025-06-16T14:41:38Z</time>
      </trkpt>
      <trkpt lat="45.94733" lon="1.30478">
        <ele>399.5</ele>
        <time>2025-06-16T14:41:39Z</time>
      </trkpt>
      <trkpt lat="45.94739" lon="1.30474">
        <ele>399.3</ele>
        <time>2025-06-16T14:41:40Z</time>
      </trkpt>
      <trkpt lat="45.94743" lon="1.3047">
        <ele>399.2</ele>
        <time>2025-06-16T14:41:41Z</time>
      </trkpt>
      <trkpt lat="45.94749" lon="1.30467">
        <ele>399.1</ele>
        <time>2025-06-16T14:41:42Z</time>
      </trkpt>
      <trkpt lat="45.94753" lon="1.30462">
        <ele>399</ele>
        <time>2025-06-16T14:41:43Z</time>
      </trkpt>
      <trkpt lat="45.94758" lon="1.30461">
        <ele>398.9</ele>
        <time>2025-06-16T14:41:44Z</time>
      </trkpt>
      <trkpt lat="45.94763" lon="1.30458">
        <ele>398.8</ele>
        <time>2025-06-16T14:41:45Z</time>
      </trkpt>
      <trkpt lat="45.94767" lon="1.30453">
        <ele>398.7</ele>
        <time>2025-06-16T14:41:46Z</time>
      </trkpt>
      <trkpt lat="45.9477" lon="1.30448">
        <ele>398.6</ele>
        <time>2025-06-16T14:41:47Z</time>
      </trkpt>
      <trkpt lat="45.94774" lon="1.30444">
        <ele>398.6</ele>
        <time>2025-06-16T14:41:48Z</time>
      </trkpt>
      <trkpt lat="45.94778" lon="1.30441">
        <ele>398.5</ele>
        <time>2025-06-16T14:41:49Z</time>
      </trkpt>
      <trkpt lat="45.94784" lon="1.30437">
        <ele>398.5</ele>
        <time>2025-06-16T14:41:50Z</time>
      </trkpt>
      <trkpt lat="45.94787" lon="1.30432">
        <ele>398.6</ele>
        <time>2025-06-16T14:41:51Z</time>
      </trkpt>
      <trkpt lat="45.94793" lon="1.30428">
        <ele>398.7</ele>
        <time>2025-06-16T14:41:52Z</time>
      </trkpt>
      <trkpt lat="45.94799" lon="1.30425">
        <ele>398.9</ele>
        <time>2025-06-16T14:41:53Z</time>
      </trkpt>
      <trkpt lat="45.94804" lon="1.30422">
        <ele>399.1</ele>
        <time>2025-06-16T14:41:54Z</time>
      </trkpt>
      <trkpt lat="45.94807" lon="1.30417">
        <ele>399.3</ele>
        <time>2025-06-16T14:41:55Z</time>
      </trkpt>
      <trkpt lat="45.9481" lon="1.3041">
        <ele>399.5</ele>
        <time>2025-06-16T14:41:56Z</time>
      </trkpt>
      <trkpt lat="45.9481" lon="1.30403">
        <ele>399.7</ele>
        <time>2025-06-16T14:41:57Z</time>
      </trkpt>
      <trkpt lat="45.94811" lon="1.30397">
        <ele>399.8</ele>
        <time>2025-06-16T14:41:58Z</time>
      </trkpt>
      <trkpt lat="45.94812" lon="1.30393">
        <ele>399.9</ele>
        <time>2025-06-16T14:41:59Z</time>
      </trkpt>
      <trkpt lat="45.94814" lon="1.30387">
        <ele>399.9</ele>
        <time>2025-06-16T14:42:00Z</time>
      </trkpt>
      <trkpt lat="45.94815" lon="1.30383">
        <ele>399.9</ele>
        <time>2025-06-16T14:42:01Z</time>
      </trkpt>
      <trkpt lat="45.94815" lon="1.30377">
        <ele>399.9</ele>
        <time>2025-06-16T14:42:02Z</time>
      </trkpt>
      <trkpt lat="45.94815" lon="1.30375">
        <ele>399.8</ele>
        <time>2025-06-16T14:42:03Z</time>
      </trkpt>
      <trkpt lat="45.94815" lon="1.3037">
        <ele>399.6</ele>
        <time>2025-06-16T14:42:04Z</time>
      </trkpt>
      <trkpt lat="45.94815" lon="1.30363">
        <ele>399.4</ele>
        <time>2025-06-16T14:42:05Z</time>
      </trkpt>
      <trkpt lat="45.94815" lon="1.30356">
        <ele>399</ele>
        <time>2025-06-16T14:42:06Z</time>
      </trkpt>
      <trkpt lat="45.94815" lon="1.30348">
        <ele>398.6</ele>
        <time>2025-06-16T14:42:07Z</time>
      </trkpt>
      <trkpt lat="45.94814" lon="1.30338">
        <ele>398.1</ele>
        <time>2025-06-16T14:42:08Z</time>
      </trkpt>
      <trkpt lat="45.94815" lon="1.30328">
        <ele>397.6</ele>
        <time>2025-06-16T14:42:09Z</time>
      </trkpt>
      <trkpt lat="45.94815" lon="1.30318">
        <ele>397.1</ele>
        <time>2025-06-16T14:42:10Z</time>
      </trkpt>
      <trkpt lat="45.94818" lon="1.30307">
        <ele>396.7</ele>
        <time>2025-06-16T14:42:11Z</time>
      </trkpt>
      <trkpt lat="45.94819" lon="1.30296">
        <ele>396.2</ele>
        <time>2025-06-16T14:42:12Z</time>
      </trkpt>
      <trkpt lat="45.94818" lon="1.30285">
        <ele>395.8</ele>
        <time>2025-06-16T14:42:13Z</time>
      </trkpt>
      <trkpt lat="45.94819" lon="1.30276">
        <ele>395.4</ele>
        <time>2025-06-16T14:42:14Z</time>
      </trkpt>
      <trkpt lat="45.9482" lon="1.30266">
        <ele>395</ele>
        <time>2025-06-16T14:42:15Z</time>
      </trkpt>
      <trkpt lat="45.94821" lon="1.30257">
        <ele>394.6</ele>
        <time>2025-06-16T14:42:16Z</time>
      </trkpt>
      <trkpt lat="45.94823" lon="1.30247">
        <ele>394</ele>
        <time>2025-06-16T14:42:17Z</time>
      </trkpt>
      <trkpt lat="45.94825" lon="1.30238">
        <ele>393.5</ele>
        <time>2025-06-16T14:42:18Z</time>
      </trkpt>
      <trkpt lat="45.94829" lon="1.30229">
        <ele>392.8</ele>
        <time>2025-06-16T14:42:19Z</time>
      </trkpt>
      <trkpt lat="45.94834" lon="1.3022">
        <ele>392.1</ele>
        <time>2025-06-16T14:42:20Z</time>
      </trkpt>
      <trkpt lat="45.94839" lon="1.30213">
        <ele>391.3</ele>
        <time>2025-06-16T14:42:21Z</time>
      </trkpt>
      <trkpt lat="45.94843" lon="1.30208">
        <ele>390.6</ele>
        <time>2025-06-16T14:42:22Z</time>
      </trkpt>
      <trkpt lat="45.94848" lon="1.30202">
        <ele>389.8</ele>
        <time>2025-06-16T14:42:23Z</time>
      </trkpt>
      <trkpt lat="45.94853" lon="1.30195">
        <ele>388.9</ele>
        <time>2025-06-16T14:42:24Z</time>
      </trkpt>
      <trkpt lat="45.94858" lon="1.30187">
        <ele>387.9</ele>
        <time>2025-06-16T14:42:25Z</time>
      </trkpt>
      <trkpt lat="45.94863" lon="1.30178">
        <ele>386.9</ele>
        <time>2025-06-16T14:42:26Z</time>
      </trkpt>
      <trkpt lat="45.94868" lon="1.30172">
        <ele>386.2</ele>
        <time>2025-06-16T14:42:27Z</time>
      </trkpt>
      <trkpt lat="45.94873" lon="1.30166">
        <ele>385.5</ele>
        <time>2025-06-16T14:42:28Z</time>
      </trkpt>
      <trkpt lat="45.9488" lon="1.30161">
        <ele>384.9</ele>
        <time>2025-06-16T14:42:29Z</time>
      </trkpt>
      <trkpt lat="45.94888" lon="1.30155">
        <ele>384.3</ele>
        <time>2025-06-16T14:42:30Z</time>
      </trkpt>
      <trkpt lat="45.94895" lon="1.30148">
        <ele>383.7</ele>
        <time>2025-06-16T14:42:31Z</time>
      </trkpt>
      <trkpt lat="45.94902" lon="1.30142">
        <ele>383.5</ele>
        <time>2025-06-16T14:42:32Z</time>
      </trkpt>
      <trkpt lat="45.94909" lon="1.30137">
        <ele>383.3</ele>
        <time>2025-06-16T14:42:33Z</time>
      </trkpt>
      <trkpt lat="45.94915" lon="1.30132">
        <ele>383.2</ele>
        <time>2025-06-16T14:42:34Z</time>
      </trkpt>
      <trkpt lat="45.9492" lon="1.30127">
        <ele>383.1</ele>
        <time>2025-06-16T14:42:35Z</time>
      </trkpt>
      <trkpt lat="45.94928" lon="1.30121">
        <ele>383</ele>
        <time>2025-06-16T14:42:36Z</time>
      </trkpt>
      <trkpt lat="45.94936" lon="1.30114">
        <ele>383</ele>
        <time>2025-06-16T14:42:37Z</time>
      </trkpt>
      <trkpt lat="45.94943" lon="1.30107">
        <ele>383</ele>
        <time>2025-06-16T14:42:38Z</time>
      </trkpt>
      <trkpt lat="45.94948" lon="1.30101">
        <ele>383.1</ele>
        <time>2025-06-16T14:42:39Z</time>
      </trkpt>
      <trkpt lat="45.94952" lon="1.30095">
        <ele>383.2</ele>
        <time>2025-06-16T14:42:40Z</time>
      </trkpt>
      <trkpt lat="45.94954" lon="1.3009">
        <ele>383.3</ele>
        <time>2025-06-16T14:42:42Z</time>
      </trkpt>
      <trkpt lat="45.94958" lon="1.30086">
        <ele>383.4</ele>
        <time>2025-06-16T14:42:43Z</time>
      </trkpt>
      <trkpt lat="45.94961" lon="1.30081">
        <ele>383.5</ele>
        <time>2025-06-16T14:42:44Z</time>
      </trkpt>
      <trkpt lat="45.94964" lon="1.30076">
        <ele>383.6</ele>
        <time>2025-06-16T14:42:45Z</time>
      </trkpt>
      <trkpt lat="45.94968" lon="1.30073">
        <ele>383.7</ele>
        <time>2025-06-16T14:42:46Z</time>
      </trkpt>
      <trkpt lat="45.94971" lon="1.30071">
        <ele>383.9</ele>
        <time>2025-06-16T14:42:47Z</time>
      </trkpt>
      <trkpt lat="45.94975" lon="1.3007">
        <ele>384</ele>
        <time>2025-06-16T14:42:48Z</time>
      </trkpt>
      <trkpt lat="45.94979" lon="1.30068">
        <ele>384.1</ele>
        <time>2025-06-16T14:42:49Z</time>
      </trkpt>
      <trkpt lat="45.94983" lon="1.30068">
        <ele>384.2</ele>
        <time>2025-06-16T14:42:50Z</time>
      </trkpt>
      <trkpt lat="45.94988" lon="1.30067">
        <ele>384.3</ele>
        <time>2025-06-16T14:42:51Z</time>
      </trkpt>
      <trkpt lat="45.94991" lon="1.30067">
        <ele>384.4</ele>
        <time>2025-06-16T14:42:52Z</time>
      </trkpt>
      <trkpt lat="45.94995" lon="1.30067">
        <ele>384.5</ele>
        <time>2025-06-16T14:42:53Z</time>
      </trkpt>
      <trkpt lat="45.94997" lon="1.30068">
        <ele>384.5</ele>
        <time>2025-06-16T14:42:54Z</time>
      </trkpt>
      <trkpt lat="45.94998" lon="1.30068">
        <ele>384.5</ele>
        <time>2025-06-16T14:42:55Z</time>
      </trkpt>
      <trkpt lat="45.94998" lon="1.30068">
        <ele>384.5</ele>
        <time>2025-06-16T14:42:56Z</time>
      </trkpt>
      <trkpt lat="45.94998" lon="1.30067">
        <ele>384.5</ele>
        <time>2025-06-16T14:42:57Z</time>
      </trkpt>
      <trkpt lat="45.94998" lon="1.30067">
        <ele>384.4</ele>
        <time>2025-06-16T14:42:58Z</time>
      </trkpt>
      <trkpt lat="45.94998" lon="1.30067">
        <ele>384.4</ele>
        <time>2025-06-16T14:42:59Z</time>
      </trkpt>
      <trkpt lat="45.94999" lon="1.30067">
        <ele>384.4</ele>
        <time>2025-06-16T14:43:00Z</time>
      </trkpt>
      <trkpt lat="45.94999" lon="1.30067">
        <ele>384.4</ele>
        <time>2025-06-16T14:43:01Z</time>
      </trkpt>
      <trkpt lat="45.94999" lon="1.30066">
        <ele>384.4</ele>
        <time>2025-06-16T14:43:02Z</time>
      </trkpt>
      <trkpt lat="45.94999" lon="1.30066">
        <ele>384.4</ele>
        <time>2025-06-16T14:43:03Z</time>
      </trkpt>
      <trkpt lat="45.94999" lon="1.30066">
        <ele>384.4</ele>
        <time>2025-06-16T14:43:05Z</time>
      </trkpt>
      <trkpt lat="45.94999" lon="1.30066">
        <ele>384.4</ele>
        <time>2025-06-16T14:43:06Z</time>
      </trkpt>
      <trkpt lat="45.94999" lon="1.30065">
        <ele>384.4</ele>
        <time>2025-06-16T14:43:08Z</time>
      </trkpt>
      <trkpt lat="45.94999" lon="1.30065">
        <ele>384.3</ele>
        <time>2025-06-16T14:43:09Z</time>
      </trkpt>
      <trkpt lat="45.94999" lon="1.30065">
        <ele>384.3</ele>
        <time>2025-06-16T14:43:10Z</time>
      </trkpt>
      <trkpt lat="45.94999" lon="1.30065">
        <ele>384.3</ele>
        <time>2025-06-16T14:43:11Z</time>
      </trkpt>
      <trkpt lat="45.94999" lon="1.30065">
        <ele>384.3</ele>
        <time>2025-06-16T14:43:12Z</time>
      </trkpt>
      <trkpt lat="45.95" lon="1.30064">
        <ele>384.3</ele>
        <time>2025-06-16T14:43:13Z</time>
      </trkpt>
      <trkpt lat="45.95" lon="1.30064">
        <ele>384.3</ele>
        <time>2025-06-16T14:43:14Z</time>
      </trkpt>
      <trkpt lat="45.95" lon="1.30064">
        <ele>384.3</ele>
        <time>2025-06-16T14:43:15Z</time>
      </trkpt>
      <trkpt lat="45.95" lon="1.30064">
        <ele>384.3</ele>
        <time>2025-06-16T14:43:16Z</time>
      </trkpt>
      <trkpt lat="45.95" lon="1.30063">
        <ele>384.3</ele>
        <time>2025-06-16T14:43:17Z</time>
      </trkpt>
      <trkpt lat="45.95" lon="1.30063">
        <ele>384.2</ele>
        <time>2025-06-16T14:43:18Z</time>
      </trkpt>
      <trkpt lat="45.95" lon="1.30063">
        <ele>384.2</ele>
        <time>2025-06-16T14:43:19Z</time>
      </trkpt>
      <trkpt lat="45.95001" lon="1.30055">
        <ele>383.9</ele>
        <time>2025-06-16T14:43:20Z</time>
      </trkpt>
      <trkpt lat="45.95003" lon="1.30046">
        <ele>383.5</ele>
        <time>2025-06-16T14:43:21Z</time>
      </trkpt>
      <trkpt lat="45.95004" lon="1.30037">
        <ele>383.2</ele>
        <time>2025-06-16T14:43:22Z</time>
      </trkpt>
      <trkpt lat="45.95004" lon="1.30027">
        <ele>383.1</ele>
        <time>2025-06-16T14:43:23Z</time>
      </trkpt>
      <trkpt lat="45.95005" lon="1.30018">
        <ele>383.1</ele>
        <time>2025-06-16T14:43:24Z</time>
      </trkpt>
      <trkpt lat="45.95005" lon="1.30009">
        <ele>383.4</ele>
        <time>2025-06-16T14:43:25Z</time>
      </trkpt>
      <trkpt lat="45.95005" lon="1.30001">
        <ele>383.7</ele>
        <time>2025-06-16T14:43:26Z</time>
      </trkpt>
      <trkpt lat="45.95005" lon="1.29995">
        <ele>384</ele>
        <time>2025-06-16T14:43:27Z</time>
      </trkpt>
      <trkpt lat="45.95004" lon="1.29991">
        <ele>384.3</ele>
        <time>2025-06-16T14:43:28Z</time>
      </trkpt>
      <trkpt lat="45.95001" lon="1.29987">
        <ele>384.4</ele>
        <time>2025-06-16T14:43:29Z</time>
      </trkpt>
      <trkpt lat="45.95001" lon="1.29986">
        <ele>384.3</ele>
        <time>2025-06-16T14:43:30Z</time>
      </trkpt>
      <trkpt lat="45.94999" lon="1.29983">
        <ele>384.3</ele>
        <time>2025-06-16T14:43:31Z</time>
      </trkpt>
      <trkpt lat="45.94998" lon="1.29983">
        <ele>384.3</ele>
        <time>2025-06-16T14:43:32Z</time>
      </trkpt>
      <trkpt lat="45.94995" lon="1.29983">
        <ele>384.2</ele>
        <time>2025-06-16T14:43:33Z</time>
      </trkpt>
      <trkpt lat="45.94994" lon="1.29983">
        <ele>384.2</ele>
        <time>2025-06-16T14:43:34Z</time>
      </trkpt>
      <trkpt lat="45.94991" lon="1.29983">
        <ele>384.1</ele>
        <time>2025-06-16T14:43:35Z</time>
      </trkpt>
      <trkpt lat="45.94987" lon="1.29983">
        <ele>384</ele>
        <time>2025-06-16T14:43:36Z</time>
      </trkpt>
      <trkpt lat="45.94983" lon="1.29984">
        <ele>384</ele>
        <time>2025-06-16T14:43:37Z</time>
      </trkpt>
      <trkpt lat="45.94979" lon="1.29985">
        <ele>383.9</ele>
        <time>2025-06-16T14:43:38Z</time>
      </trkpt>
      <trkpt lat="45.94975" lon="1.29986">
        <ele>383.8</ele>
        <time>2025-06-16T14:43:39Z</time>
      </trkpt>
      <trkpt lat="45.94971" lon="1.29987">
        <ele>383.7</ele>
        <time>2025-06-16T14:43:40Z</time>
      </trkpt>
      <trkpt lat="45.94967" lon="1.29988">
        <ele>383.7</ele>
        <time>2025-06-16T14:43:41Z</time>
      </trkpt>
      <trkpt lat="45.94962" lon="1.29989">
        <ele>383.6</ele>
        <time>2025-06-16T14:43:42Z</time>
      </trkpt>
      <trkpt lat="45.94958" lon="1.29989">
        <ele>383.5</ele>
        <time>2025-06-16T14:43:43Z</time>
      </trkpt>
      <trkpt lat="45.94954" lon="1.2999">
        <ele>383.5</ele>
        <time>2025-06-16T14:43:44Z</time>
      </trkpt>
      <trkpt lat="45.94949" lon="1.29991">
        <ele>383.4</ele>
        <time>2025-06-16T14:43:45Z</time>
      </trkpt>
      <trkpt lat="45.94945" lon="1.29991">
        <ele>383.3</ele>
        <time>2025-06-16T14:43:46Z</time>
      </trkpt>
      <trkpt lat="45.9494" lon="1.29991">
        <ele>383.2</ele>
        <time>2025-06-16T14:43:47Z</time>
      </trkpt>
      <trkpt lat="45.94935" lon="1.29992">
        <ele>383.1</ele>
        <time>2025-06-16T14:43:48Z</time>
      </trkpt>
      <trkpt lat="45.94929" lon="1.29991">
        <ele>383</ele>
        <time>2025-06-16T14:43:49Z</time>
      </trkpt>
      <trkpt lat="45.94923" lon="1.2999">
        <ele>382.9</ele>
        <time>2025-06-16T14:43:50Z</time>
      </trkpt>
      <trkpt lat="45.94917" lon="1.2999">
        <ele>382.7</ele>
        <time>2025-06-16T14:43:51Z</time>
      </trkpt>
      <trkpt lat="45.94912" lon="1.29989">
        <ele>382.6</ele>
        <time>2025-06-16T14:43:52Z</time>
      </trkpt>
      <trkpt lat="45.94906" lon="1.29988">
        <ele>382.4</ele>
        <time>2025-06-16T14:43:53Z</time>
      </trkpt>
      <trkpt lat="45.949" lon="1.29988">
        <ele>382.3</ele>
        <time>2025-06-16T14:43:54Z</time>
      </trkpt>
      <trkpt lat="45.94895" lon="1.29988">
        <ele>382.1</ele>
        <time>2025-06-16T14:43:55Z</time>
      </trkpt>
      <trkpt lat="45.94889" lon="1.29987">
        <ele>382</ele>
        <time>2025-06-16T14:43:56Z</time>
      </trkpt>
      <trkpt lat="45.94883" lon="1.29986">
        <ele>381.9</ele>
        <time>2025-06-16T14:43:57Z</time>
      </trkpt>
      <trkpt lat="45.94878" lon="1.29985">
        <ele>381.8</ele>
        <time>2025-06-16T14:43:58Z</time>
      </trkpt>
      <trkpt lat="45.94873" lon="1.29982">
        <ele>381.7</ele>
        <time>2025-06-16T14:43:59Z</time>
      </trkpt>
      <trkpt lat="45.94868" lon="1.2998">
        <ele>381.6</ele>
        <time>2025-06-16T14:44:00Z</time>
      </trkpt>
      <trkpt lat="45.94863" lon="1.29977">
        <ele>381.5</ele>
        <time>2025-06-16T14:44:01Z</time>
      </trkpt>
      <trkpt lat="45.94859" lon="1.29972">
        <ele>381.4</ele>
        <time>2025-06-16T14:44:02Z</time>
      </trkpt>
      <trkpt lat="45.94855" lon="1.29967">
        <ele>381.3</ele>
        <time>2025-06-16T14:44:03Z</time>
      </trkpt>
      <trkpt lat="45.94852" lon="1.29962">
        <ele>381.2</ele>
        <time>2025-06-16T14:44:04Z</time>
      </trkpt>
      <trkpt lat="45.94849" lon="1.29957">
        <ele>381.1</ele>
        <time>2025-06-16T14:44:05Z</time>
      </trkpt>
      <trkpt lat="45.94847" lon="1.29952">
        <ele>381</ele>
        <time>2025-06-16T14:44:06Z</time>
      </trkpt>
      <trkpt lat="45.94845" lon="1.29946">
        <ele>380.9</ele>
        <time>2025-06-16T14:44:07Z</time>
      </trkpt>
      <trkpt lat="45.94843" lon="1.29941">
        <ele>380.8</ele>
        <time>2025-06-16T14:44:08Z</time>
      </trkpt>
      <trkpt lat="45.94841" lon="1.29935">
        <ele>380.6</ele>
        <time>2025-06-16T14:44:09Z</time>
      </trkpt>
      <trkpt lat="45.94839" lon="1.29929">
        <ele>380.5</ele>
        <time>2025-06-16T14:44:10Z</time>
      </trkpt>
      <trkpt lat="45.94837" lon="1.29922">
        <ele>380.4</ele>
        <time>2025-06-16T14:44:11Z</time>
      </trkpt>
      <trkpt lat="45.94835" lon="1.29916">
        <ele>380.3</ele>
        <time>2025-06-16T14:44:12Z</time>
      </trkpt>
      <trkpt lat="45.94832" lon="1.2991">
        <ele>380.2</ele>
        <time>2025-06-16T14:44:13Z</time>
      </trkpt>
      <trkpt lat="45.94828" lon="1.29904">
        <ele>380.1</ele>
        <time>2025-06-16T14:44:14Z</time>
      </trkpt>
      <trkpt lat="45.94824" lon="1.299">
        <ele>380</ele>
        <time>2025-06-16T14:44:15Z</time>
      </trkpt>
      <trkpt lat="45.9482" lon="1.29894">
        <ele>380</ele>
        <time>2025-06-16T14:44:16Z</time>
      </trkpt>
      <trkpt lat="45.94817" lon="1.29889">
        <ele>380</ele>
        <time>2025-06-16T14:44:17Z</time>
      </trkpt>
      <trkpt lat="45.94813" lon="1.29884">
        <ele>380</ele>
        <time>2025-06-16T14:44:18Z</time>
      </trkpt>
      <trkpt lat="45.9481" lon="1.29879">
        <ele>380</ele>
        <time>2025-06-16T14:44:19Z</time>
      </trkpt>
      <trkpt lat="45.94808" lon="1.29874">
        <ele>380.1</ele>
        <time>2025-06-16T14:44:20Z</time>
      </trkpt>
      <trkpt lat="45.94805" lon="1.2987">
        <ele>380.1</ele>
        <time>2025-06-16T14:44:21Z</time>
      </trkpt>
      <trkpt lat="45.94803" lon="1.29866">
        <ele>380.2</ele>
        <time>2025-06-16T14:44:22Z</time>
      </trkpt>
      <trkpt lat="45.948" lon="1.29862">
        <ele>380.3</ele>
        <time>2025-06-16T14:44:23Z</time>
      </trkpt>
      <trkpt lat="45.94797" lon="1.29858">
        <ele>380.3</ele>
        <time>2025-06-16T14:44:24Z</time>
      </trkpt>
      <trkpt lat="45.94794" lon="1.29854">
        <ele>380.4</ele>
        <time>2025-06-16T14:44:25Z</time>
      </trkpt>
      <trkpt lat="45.9479" lon="1.29851">
        <ele>380.5</ele>
        <time>2025-06-16T14:44:26Z</time>
      </trkpt>
      <trkpt lat="45.94788" lon="1.29846">
        <ele>380.6</ele>
        <time>2025-06-16T14:44:27Z</time>
      </trkpt>
      <trkpt lat="45.94785" lon="1.29842">
        <ele>380.7</ele>
        <time>2025-06-16T14:44:28Z</time>
      </trkpt>
      <trkpt lat="45.94783" lon="1.29838">
        <ele>380.8</ele>
        <time>2025-06-16T14:44:29Z</time>
      </trkpt>
      <trkpt lat="45.94781" lon="1.29834">
        <ele>380.9</ele>
        <time>2025-06-16T14:44:30Z</time>
      </trkpt>
      <trkpt lat="45.94778" lon="1.29829">
        <ele>381</ele>
        <time>2025-06-16T14:44:31Z</time>
      </trkpt>
      <trkpt lat="45.94775" lon="1.29825">
        <ele>381.1</ele>
        <time>2025-06-16T14:44:32Z</time>
      </trkpt>
      <trkpt lat="45.94772" lon="1.2982">
        <ele>381.2</ele>
        <time>2025-06-16T14:44:33Z</time>
      </trkpt>
      <trkpt lat="45.94769" lon="1.29816">
        <ele>381.4</ele>
        <time>2025-06-16T14:44:34Z</time>
      </trkpt>
      <trkpt lat="45.94766" lon="1.29812">
        <ele>381.5</ele>
        <time>2025-06-16T14:44:35Z</time>
      </trkpt>
      <trkpt lat="45.94764" lon="1.29808">
        <ele>381.6</ele>
        <time>2025-06-16T14:44:36Z</time>
      </trkpt>
      <trkpt lat="45.94761" lon="1.29803">
        <ele>381.7</ele>
        <time>2025-06-16T14:44:37Z</time>
      </trkpt>
      <trkpt lat="45.94758" lon="1.29799">
        <ele>381.8</ele>
        <time>2025-06-16T14:44:38Z</time>
      </trkpt>
      <trkpt lat="45.94755" lon="1.29795">
        <ele>382</ele>
        <time>2025-06-16T14:44:39Z</time>
      </trkpt>
      <trkpt lat="45.94753" lon="1.29791">
        <ele>382.1</ele>
        <time>2025-06-16T14:44:40Z</time>
      </trkpt>
      <trkpt lat="45.9475" lon="1.29787">
        <ele>382.2</ele>
        <time>2025-06-16T14:44:41Z</time>
      </trkpt>
      <trkpt lat="45.94748" lon="1.29784">
        <ele>382.3</ele>
        <time>2025-06-16T14:44:42Z</time>
      </trkpt>
      <trkpt lat="45.94746" lon="1.2978">
        <ele>382.4</ele>
        <time>2025-06-16T14:44:43Z</time>
      </trkpt>
      <trkpt lat="45.94745" lon="1.29778">
        <ele>382.4</ele>
        <time>2025-06-16T14:44:44Z</time>
      </trkpt>
      <trkpt lat="45.94743" lon="1.29774">
        <ele>382.5</ele>
        <time>2025-06-16T14:44:45Z</time>
      </trkpt>
      <trkpt lat="45.94741" lon="1.2977">
        <ele>382.6</ele>
        <time>2025-06-16T14:44:46Z</time>
      </trkpt>
      <trkpt lat="45.94738" lon="1.29766">
        <ele>382.6</ele>
        <time>2025-06-16T14:44:47Z</time>
      </trkpt>
      <trkpt lat="45.94735" lon="1.29762">
        <ele>382.7</ele>
        <time>2025-06-16T14:44:48Z</time>
      </trkpt>
      <trkpt lat="45.94732" lon="1.29758">
        <ele>382.6</ele>
        <time>2025-06-16T14:44:49Z</time>
      </trkpt>
      <trkpt lat="45.94729" lon="1.29754">
        <ele>382.6</ele>
        <time>2025-06-16T14:44:50Z</time>
      </trkpt>
      <trkpt lat="45.94725" lon="1.29749">
        <ele>382.5</ele>
        <time>2025-06-16T14:44:51Z</time>
      </trkpt>
      <trkpt lat="45.94722" lon="1.29745">
        <ele>382.5</ele>
        <time>2025-06-16T14:44:52Z</time>
      </trkpt>
      <trkpt lat="45.94718" lon="1.29741">
        <ele>382.4</ele>
        <time>2025-06-16T14:44:53Z</time>
      </trkpt>
      <trkpt lat="45.94713" lon="1.29737">
        <ele>382.4</ele>
        <time>2025-06-16T14:44:54Z</time>
      </trkpt>
      <trkpt lat="45.94709" lon="1.29732">
        <ele>382.4</ele>
        <time>2025-06-16T14:44:55Z</time>
      </trkpt>
      <trkpt lat="45.94705" lon="1.29727">
        <ele>382.4</ele>
        <time>2025-06-16T14:44:56Z</time>
      </trkpt>
      <trkpt lat="45.94702" lon="1.29723">
        <ele>382.3</ele>
        <time>2025-06-16T14:44:57Z</time>
      </trkpt>
      <trkpt lat="45.94698" lon="1.29718">
        <ele>382.3</ele>
        <time>2025-06-16T14:44:58Z</time>
      </trkpt>
      <trkpt lat="45.94694" lon="1.29714">
        <ele>382.3</ele>
        <time>2025-06-16T14:44:59Z</time>
      </trkpt>
      <trkpt lat="45.94689" lon="1.29709">
        <ele>382.3</ele>
        <time>2025-06-16T14:45:00Z</time>
      </trkpt>
      <trkpt lat="45.94686" lon="1.29705">
        <ele>382.2</ele>
        <time>2025-06-16T14:45:01Z</time>
      </trkpt>
      <trkpt lat="45.94682" lon="1.29701">
        <ele>382.2</ele>
        <time>2025-06-16T14:45:02Z</time>
      </trkpt>
      <trkpt lat="45.94678" lon="1.29696">
        <ele>382.2</ele>
        <time>2025-06-16T14:45:03Z</time>
      </trkpt>
      <trkpt lat="45.94674" lon="1.29692">
        <ele>382.2</ele>
        <time>2025-06-16T14:45:04Z</time>
      </trkpt>
      <trkpt lat="45.94671" lon="1.29689">
        <ele>382.2</ele>
        <time>2025-06-16T14:45:05Z</time>
      </trkpt>
      <trkpt lat="45.94667" lon="1.29685">
        <ele>382.1</ele>
        <time>2025-06-16T14:45:06Z</time>
      </trkpt>
      <trkpt lat="45.94664" lon="1.29681">
        <ele>382.1</ele>
        <time>2025-06-16T14:45:07Z</time>
      </trkpt>
      <trkpt lat="45.94661" lon="1.29678">
        <ele>382.1</ele>
        <time>2025-06-16T14:45:08Z</time>
      </trkpt>
      <trkpt lat="45.94658" lon="1.29675">
        <ele>382.1</ele>
        <time>2025-06-16T14:45:09Z</time>
      </trkpt>
      <trkpt lat="45.94654" lon="1.29671">
        <ele>382.1</ele>
        <time>2025-06-16T14:45:10Z</time>
      </trkpt>
      <trkpt lat="45.94651" lon="1.29667">
        <ele>382.1</ele>
        <time>2025-06-16T14:45:11Z</time>
      </trkpt>
      <trkpt lat="45.94647" lon="1.29663">
        <ele>382.1</ele>
        <time>2025-06-16T14:45:12Z</time>
      </trkpt>
      <trkpt lat="45.94644" lon="1.2966">
        <ele>382.1</ele>
        <time>2025-06-16T14:45:13Z</time>
      </trkpt>
      <trkpt lat="45.94641" lon="1.29656">
        <ele>382</ele>
        <time>2025-06-16T14:45:14Z</time>
      </trkpt>
      <trkpt lat="45.94639" lon="1.29651">
        <ele>382</ele>
        <time>2025-06-16T14:45:15Z</time>
      </trkpt>
      <trkpt lat="45.94639" lon="1.29645">
        <ele>382</ele>
        <time>2025-06-16T14:45:16Z</time>
      </trkpt>
      <trkpt lat="45.94642" lon="1.29639">
        <ele>382.5</ele>
        <time>2025-06-16T14:45:17Z</time>
      </trkpt>
      <trkpt lat="45.94645" lon="1.29635">
        <ele>382.9</ele>
        <time>2025-06-16T14:45:18Z</time>
      </trkpt>
      <trkpt lat="45.94648" lon="1.29633">
        <ele>383.3</ele>
        <time>2025-06-16T14:45:19Z</time>
      </trkpt>
      <trkpt lat="45.9465" lon="1.29631">
        <ele>383.7</ele>
        <time>2025-06-16T14:45:20Z</time>
      </trkpt>
      <trkpt lat="45.94653" lon="1.29629">
        <ele>384</ele>
        <time>2025-06-16T14:45:21Z</time>
      </trkpt>
      <trkpt lat="45.94656" lon="1.29628">
        <ele>384.4</ele>
        <time>2025-06-16T14:45:22Z</time>
      </trkpt>
      <trkpt lat="45.9466" lon="1.29627">
        <ele>385</ele>
        <time>2025-06-16T14:45:23Z</time>
      </trkpt>
      <trkpt lat="45.94661" lon="1.29627">
        <ele>385.2</ele>
        <time>2025-06-16T14:45:24Z</time>
      </trkpt>
      <trkpt lat="45.94664" lon="1.29627">
        <ele>385.6</ele>
        <time>2025-06-16T14:45:25Z</time>
      </trkpt>
      <trkpt lat="45.94667" lon="1.29628">
        <ele>386</ele>
        <time>2025-06-16T14:45:26Z</time>
      </trkpt>
      <trkpt lat="45.94671" lon="1.29631">
        <ele>386.6</ele>
        <time>2025-06-16T14:45:27Z</time>
      </trkpt>
      <trkpt lat="45.94674" lon="1.29634">
        <ele>387.1</ele>
        <time>2025-06-16T14:45:28Z</time>
      </trkpt>
      <trkpt lat="45.94677" lon="1.29635">
        <ele>387.5</ele>
        <time>2025-06-16T14:45:29Z</time>
      </trkpt>
      <trkpt lat="45.94681" lon="1.29636">
        <ele>388</ele>
        <time>2025-06-16T14:45:30Z</time>
      </trkpt>
      <trkpt lat="45.94683" lon="1.29637">
        <ele>388.4</ele>
        <time>2025-06-16T14:45:31Z</time>
      </trkpt>
      <trkpt lat="45.94686" lon="1.29638">
        <ele>388.7</ele>
        <time>2025-06-16T14:45:32Z</time>
      </trkpt>
      <trkpt lat="45.94689" lon="1.29639">
        <ele>389.2</ele>
        <time>2025-06-16T14:45:33Z</time>
      </trkpt>
      <trkpt lat="45.94693" lon="1.29638">
        <ele>389.6</ele>
        <time>2025-06-16T14:45:34Z</time>
      </trkpt>
      <trkpt lat="45.94696" lon="1.29638">
        <ele>390.1</ele>
        <time>2025-06-16T14:45:35Z</time>
      </trkpt>
      <trkpt lat="45.94699" lon="1.29637">
        <ele>390.5</ele>
        <time>2025-06-16T14:45:36Z</time>
      </trkpt>
      <trkpt lat="45.94703" lon="1.29639">
        <ele>390.9</ele>
        <time>2025-06-16T14:45:37Z</time>
      </trkpt>
      <trkpt lat="45.94706" lon="1.2964">
        <ele>391.4</ele>
        <time>2025-06-16T14:45:38Z</time>
      </trkpt>
      <trkpt lat="45.94709" lon="1.29641">
        <ele>391.8</ele>
        <time>2025-06-16T14:45:39Z</time>
      </trkpt>
      <trkpt lat="45.94712" lon="1.29642">
        <ele>392.1</ele>
        <time>2025-06-16T14:45:40Z</time>
      </trkpt>
      <trkpt lat="45.94713" lon="1.29642">
        <ele>392.3</ele>
        <time>2025-06-16T14:45:41Z</time>
      </trkpt>
      <trkpt lat="45.94716" lon="1.29644">
        <ele>392.6</ele>
        <time>2025-06-16T14:45:42Z</time>
      </trkpt>
      <trkpt lat="45.94719" lon="1.29645">
        <ele>393.1</ele>
        <time>2025-06-16T14:45:43Z</time>
      </trkpt>
      <trkpt lat="45.94723" lon="1.29646">
        <ele>393.6</ele>
        <time>2025-06-16T14:45:44Z</time>
      </trkpt>
      <trkpt lat="45.94725" lon="1.29647">
        <ele>393.9</ele>
        <time>2025-06-16T14:45:45Z</time>
      </trkpt>
      <trkpt lat="45.94729" lon="1.29647">
        <ele>394.3</ele>
        <time>2025-06-16T14:45:46Z</time>
      </trkpt>
      <trkpt lat="45.9473" lon="1.29646">
        <ele>394.5</ele>
        <time>2025-06-16T14:45:47Z</time>
      </trkpt>
      <trkpt lat="45.94733" lon="1.29645">
        <ele>394.9</ele>
        <time>2025-06-16T14:45:48Z</time>
      </trkpt>
      <trkpt lat="45.94733" lon="1.29645">
        <ele>395</ele>
        <time>2025-06-16T14:45:49Z</time>
      </trkpt>
      <trkpt lat="45.94737" lon="1.29643">
        <ele>395.5</ele>
        <time>2025-06-16T14:45:50Z</time>
      </trkpt>
      <trkpt lat="45.94738" lon="1.29643">
        <ele>395.7</ele>
        <time>2025-06-16T14:45:51Z</time>
      </trkpt>
      <trkpt lat="45.94741" lon="1.29642">
        <ele>396.1</ele>
        <time>2025-06-16T14:45:52Z</time>
      </trkpt>
      <trkpt lat="45.94745" lon="1.29642">
        <ele>396.5</ele>
        <time>2025-06-16T14:45:53Z</time>
      </trkpt>
      <trkpt lat="45.94747" lon="1.29642">
        <ele>396.9</ele>
        <time>2025-06-16T14:45:54Z</time>
      </trkpt>
      <trkpt lat="45.94751" lon="1.29642">
        <ele>397.5</ele>
        <time>2025-06-16T14:45:55Z</time>
      </trkpt>
      <trkpt lat="45.94753" lon="1.29643">
        <ele>397.6</ele>
        <time>2025-06-16T14:45:56Z</time>
      </trkpt>
      <trkpt lat="45.94755" lon="1.29642">
        <ele>398</ele>
        <time>2025-06-16T14:45:57Z</time>
      </trkpt>
      <trkpt lat="45.94758" lon="1.29642">
        <ele>398.3</ele>
        <time>2025-06-16T14:45:58Z</time>
      </trkpt>
      <trkpt lat="45.94759" lon="1.29642">
        <ele>398.4</ele>
        <time>2025-06-16T14:45:59Z</time>
      </trkpt>
      <trkpt lat="45.9476" lon="1.29642">
        <ele>398.5</ele>
        <time>2025-06-16T14:46:00Z</time>
      </trkpt>
      <trkpt lat="45.94763" lon="1.29642">
        <ele>399</ele>
        <time>2025-06-16T14:46:01Z</time>
      </trkpt>
      <trkpt lat="45.94765" lon="1.29641">
        <ele>399.2</ele>
        <time>2025-06-16T14:46:02Z</time>
      </trkpt>
      <trkpt lat="45.94768" lon="1.29642">
        <ele>399.6</ele>
        <time>2025-06-16T14:46:03Z</time>
      </trkpt>
      <trkpt lat="45.94771" lon="1.29642">
        <ele>400</ele>
        <time>2025-06-16T14:46:04Z</time>
      </trkpt>
      <trkpt lat="45.94775" lon="1.29642">
        <ele>400.4</ele>
        <time>2025-06-16T14:46:05Z</time>
      </trkpt>
      <trkpt lat="45.94778" lon="1.29641">
        <ele>400.9</ele>
        <time>2025-06-16T14:46:06Z</time>
      </trkpt>
      <trkpt lat="45.94779" lon="1.29641">
        <ele>401.1</ele>
        <time>2025-06-16T14:46:07Z</time>
      </trkpt>
      <trkpt lat="45.94783" lon="1.29641">
        <ele>401.6</ele>
        <time>2025-06-16T14:46:08Z</time>
      </trkpt>
      <trkpt lat="45.94785" lon="1.29641">
        <ele>401.8</ele>
        <time>2025-06-16T14:46:09Z</time>
      </trkpt>
      <trkpt lat="45.94789" lon="1.29642">
        <ele>402.3</ele>
        <time>2025-06-16T14:46:10Z</time>
      </trkpt>
      <trkpt lat="45.9479" lon="1.29642">
        <ele>402.4</ele>
        <time>2025-06-16T14:46:11Z</time>
      </trkpt>
      <trkpt lat="45.94794" lon="1.29643">
        <ele>403</ele>
        <time>2025-06-16T14:46:12Z</time>
      </trkpt>
      <trkpt lat="45.94795" lon="1.29643">
        <ele>403.1</ele>
        <time>2025-06-16T14:46:13Z</time>
      </trkpt>
      <trkpt lat="45.94799" lon="1.29643">
        <ele>403.6</ele>
        <time>2025-06-16T14:46:14Z</time>
      </trkpt>
      <trkpt lat="45.948" lon="1.29643">
        <ele>403.8</ele>
        <time>2025-06-16T14:46:15Z</time>
      </trkpt>
      <trkpt lat="45.94803" lon="1.29644">
        <ele>404.2</ele>
        <time>2025-06-16T14:46:16Z</time>
      </trkpt>
      <trkpt lat="45.94804" lon="1.29644">
        <ele>404.4</ele>
        <time>2025-06-16T14:46:17Z</time>
      </trkpt>
      <trkpt lat="45.94808" lon="1.29645">
        <ele>404.8</ele>
        <time>2025-06-16T14:46:18Z</time>
      </trkpt>
      <trkpt lat="45.94809" lon="1.29645">
        <ele>405</ele>
        <time>2025-06-16T14:46:19Z</time>
      </trkpt>
      <trkpt lat="45.94812" lon="1.29645">
        <ele>405.4</ele>
        <time>2025-06-16T14:46:20Z</time>
      </trkpt>
      <trkpt lat="45.94813" lon="1.29646">
        <ele>405.5</ele>
        <time>2025-06-16T14:46:21Z</time>
      </trkpt>
      <trkpt lat="45.94815" lon="1.29646">
        <ele>405.8</ele>
        <time>2025-06-16T14:46:22Z</time>
      </trkpt>
      <trkpt lat="45.94816" lon="1.29647">
        <ele>406</ele>
        <time>2025-06-16T14:46:23Z</time>
      </trkpt>
      <trkpt lat="45.94819" lon="1.29648">
        <ele>406.4</ele>
        <time>2025-06-16T14:46:24Z</time>
      </trkpt>
      <trkpt lat="45.9482" lon="1.29648">
        <ele>406.5</ele>
        <time>2025-06-16T14:46:25Z</time>
      </trkpt>
      <trkpt lat="45.94823" lon="1.29649">
        <ele>406.9</ele>
        <time>2025-06-16T14:46:26Z</time>
      </trkpt>
      <trkpt lat="45.94824" lon="1.29649">
        <ele>407</ele>
        <time>2025-06-16T14:46:27Z</time>
      </trkpt>
      <trkpt lat="45.94827" lon="1.29649">
        <ele>407.4</ele>
        <time>2025-06-16T14:46:28Z</time>
      </trkpt>
      <trkpt lat="45.94828" lon="1.29649">
        <ele>407.5</ele>
        <time>2025-06-16T14:46:29Z</time>
      </trkpt>
      <trkpt lat="45.94832" lon="1.2965">
        <ele>407.9</ele>
        <time>2025-06-16T14:46:30Z</time>
      </trkpt>
      <trkpt lat="45.94833" lon="1.29651">
        <ele>408</ele>
        <time>2025-06-16T14:46:31Z</time>
      </trkpt>
      <trkpt lat="45.94834" lon="1.29651">
        <ele>408.3</ele>
        <time>2025-06-16T14:46:32Z</time>
      </trkpt>
      <trkpt lat="45.94836" lon="1.29651">
        <ele>408.5</ele>
        <time>2025-06-16T14:46:33Z</time>
      </trkpt>
      <trkpt lat="45.94837" lon="1.29651">
        <ele>408.6</ele>
        <time>2025-06-16T14:46:34Z</time>
      </trkpt>
      <trkpt lat="45.94838" lon="1.29649">
        <ele>408.9</ele>
        <time>2025-06-16T14:46:35Z</time>
      </trkpt>
      <trkpt lat="45.94837" lon="1.29646">
        <ele>409.1</ele>
        <time>2025-06-16T14:46:36Z</time>
      </trkpt>
      <trkpt lat="45.94836" lon="1.29645">
        <ele>409.2</ele>
        <time>2025-06-16T14:46:37Z</time>
      </trkpt>
      <trkpt lat="45.94836" lon="1.29645">
        <ele>409.2</ele>
        <time>2025-06-16T14:46:38Z</time>
      </trkpt>
      <trkpt lat="45.94836" lon="1.29645">
        <ele>409.2</ele>
        <time>2025-06-16T14:46:39Z</time>
      </trkpt>
      <trkpt lat="45.94836" lon="1.29645">
        <ele>409.2</ele>
        <time>2025-06-16T14:46:40Z</time>
      </trkpt>
      <trkpt lat="45.94836" lon="1.29645">
        <ele>409.2</ele>
        <time>2025-06-16T14:46:41Z</time>
      </trkpt>
      <trkpt lat="45.94836" lon="1.29645">
        <ele>409.2</ele>
        <time>2025-06-16T14:46:42Z</time>
      </trkpt>
      <trkpt lat="45.94836" lon="1.29645">
        <ele>409.2</ele>
        <time>2025-06-16T14:46:43Z</time>
      </trkpt>
      <trkpt lat="45.94836" lon="1.29645">
        <ele>409.2</ele>
        <time>2025-06-16T14:46:44Z</time>
      </trkpt>
      <trkpt lat="45.94836" lon="1.29645">
        <ele>409.2</ele>
        <time>2025-06-16T14:46:45Z</time>
      </trkpt>
      <trkpt lat="45.94835" lon="1.29645">
        <ele>409.2</ele>
        <time>2025-06-16T14:46:46Z</time>
      </trkpt>
      <trkpt lat="45.94835" lon="1.29645">
        <ele>409.2</ele>
        <time>2025-06-16T14:46:47Z</time>
      </trkpt>
      <trkpt lat="45.94835" lon="1.29645">
        <ele>409.2</ele>
        <time>2025-06-16T14:46:49Z</time>
      </trkpt>
      <trkpt lat="45.94835" lon="1.29644">
        <ele>409.2</ele>
        <time>2025-06-16T14:46:50Z</time>
      </trkpt>
      <trkpt lat="45.94835" lon="1.29644">
        <ele>409.2</ele>
        <time>2025-06-16T14:46:51Z</time>
      </trkpt>
      <trkpt lat="45.94835" lon="1.29644">
        <ele>409.2</ele>
        <time>2025-06-16T14:46:52Z</time>
      </trkpt>
      <trkpt lat="45.94835" lon="1.29644">
        <ele>409.2</ele>
        <time>2025-06-16T14:46:53Z</time>
      </trkpt>
      <trkpt lat="45.94835" lon="1.29644">
        <ele>409.2</ele>
        <time>2025-06-16T14:46:54Z</time>
      </trkpt>
      <trkpt lat="45.94835" lon="1.29644">
        <ele>409.3</ele>
        <time>2025-06-16T14:46:55Z</time>
      </trkpt>
      <trkpt lat="45.94835" lon="1.29644">
        <ele>409.3</ele>
        <time>2025-06-16T14:46:56Z</time>
      </trkpt>
      <trkpt lat="45.94835" lon="1.29644">
        <ele>409.3</ele>
        <time>2025-06-16T14:46:57Z</time>
      </trkpt>
      <trkpt lat="45.94835" lon="1.29644">
        <ele>409.3</ele>
        <time>2025-06-16T14:46:58Z</time>
      </trkpt>
      <trkpt lat="45.94835" lon="1.29644">
        <ele>409.3</ele>
        <time>2025-06-16T14:46:59Z</time>
      </trkpt>
      <trkpt lat="45.94835" lon="1.29644">
        <ele>409.3</ele>
        <time>2025-06-16T14:47:00Z</time>
      </trkpt>
      <trkpt lat="45.94834" lon="1.29644">
        <ele>409.3</ele>
        <time>2025-06-16T14:47:01Z</time>
      </trkpt>
      <trkpt lat="45.94834" lon="1.29644">
        <ele>409.3</ele>
        <time>2025-06-16T14:47:02Z</time>
      </trkpt>
      <trkpt lat="45.94834" lon="1.29644">
        <ele>409.3</ele>
        <time>2025-06-16T14:47:03Z</time>
      </trkpt>
      <trkpt lat="45.94834" lon="1.29644">
        <ele>409.3</ele>
        <time>2025-06-16T14:47:04Z</time>
      </trkpt>
      <trkpt lat="45.94834" lon="1.29644">
        <ele>409.3</ele>
        <time>2025-06-16T14:47:05Z</time>
      </trkpt>
      <trkpt lat="45.94834" lon="1.29644">
        <ele>409.3</ele>
        <time>2025-06-16T14:47:06Z</time>
      </trkpt>
      <trkpt lat="45.94834" lon="1.29644">
        <ele>409.3</ele>
        <time>2025-06-16T14:47:07Z</time>
      </trkpt>
      <trkpt lat="45.94834" lon="1.29644">
        <ele>409.3</ele>
        <time>2025-06-16T14:47:08Z</time>
      </trkpt>
      <trkpt lat="45.94834" lon="1.29644">
        <ele>409.3</ele>
        <time>2025-06-16T14:47:09Z</time>
      </trkpt>
      <trkpt lat="45.94834" lon="1.29644">
        <ele>409.3</ele>
        <time>2025-06-16T14:47:10Z</time>
      </trkpt>
      <trkpt lat="45.94834" lon="1.29644">
        <ele>409.3</ele>
        <time>2025-06-16T14:47:11Z</time>
      </trkpt>
      <trkpt lat="45.94834" lon="1.29644">
        <ele>409.3</ele>
        <time>2025-06-16T14:47:12Z</time>
      </trkpt>
      <trkpt lat="45.94834" lon="1.29644">
        <ele>409.3</ele>
        <time>2025-06-16T14:47:13Z</time>
      </trkpt>
      <trkpt lat="45.94833" lon="1.29644">
        <ele>409.3</ele>
        <time>2025-06-16T14:47:14Z</time>
      </trkpt>
      <trkpt lat="45.94833" lon="1.29644">
        <ele>409.3</ele>
        <time>2025-06-16T14:47:15Z</time>
      </trkpt>
      <trkpt lat="45.94833" lon="1.29644">
        <ele>409.3</ele>
        <time>2025-06-16T14:47:16Z</time>
      </trkpt>
      <trkpt lat="45.94833" lon="1.29644">
        <ele>409.3</ele>
        <time>2025-06-16T14:47:17Z</time>
      </trkpt>
      <trkpt lat="45.94833" lon="1.29644">
        <ele>409.3</ele>
        <time>2025-06-16T14:47:18Z</time>
      </trkpt>
      <trkpt lat="45.94833" lon="1.29644">
        <ele>409.3</ele>
        <time>2025-06-16T14:47:19Z</time>
      </trkpt>
      <trkpt lat="45.94833" lon="1.29644">
        <ele>409.3</ele>
        <time>2025-06-16T14:47:20Z</time>
      </trkpt>
      <trkpt lat="45.94833" lon="1.29644">
        <ele>409.3</ele>
        <time>2025-06-16T14:47:21Z</time>
      </trkpt>
      <trkpt lat="45.94833" lon="1.29644">
        <ele>409.3</ele>
        <time>2025-06-16T14:47:22Z</time>
      </trkpt>
      <trkpt lat="45.94833" lon="1.29644">
        <ele>409.3</ele>
        <time>2025-06-16T14:47:23Z</time>
      </trkpt>
      <trkpt lat="45.94833" lon="1.29644">
        <ele>409.3</ele>
        <time>2025-06-16T14:47:24Z</time>
      </trkpt>
      <trkpt lat="45.94833" lon="1.29643">
        <ele>409.3</ele>
        <time>2025-06-16T14:47:25Z</time>
      </trkpt>
      <trkpt lat="45.94833" lon="1.29643">
        <ele>409.3</ele>
        <time>2025-06-16T14:47:26Z</time>
      </trkpt>
      <trkpt lat="45.94829" lon="1.29641">
        <ele>409.4</ele>
        <time>2025-06-16T14:47:27Z</time>
      </trkpt>
      <trkpt lat="45.94828" lon="1.2964">
        <ele>409.4</ele>
        <time>2025-06-16T14:47:28Z</time>
      </trkpt>
      <trkpt lat="45.94824" lon="1.29638">
        <ele>409.5</ele>
        <time>2025-06-16T14:47:29Z</time>
      </trkpt>
      <trkpt lat="45.94823" lon="1.29638">
        <ele>409.6</ele>
        <time>2025-06-16T14:47:30Z</time>
      </trkpt>
      <trkpt lat="45.9482" lon="1.29636">
        <ele>409.7</ele>
        <time>2025-06-16T14:47:31Z</time>
      </trkpt>
      <trkpt lat="45.94819" lon="1.29635">
        <ele>409.7</ele>
        <time>2025-06-16T14:47:32Z</time>
      </trkpt>
      <trkpt lat="45.94816" lon="1.29634">
        <ele>409.8</ele>
        <time>2025-06-16T14:47:33Z</time>
      </trkpt>
      <trkpt lat="45.94816" lon="1.29633">
        <ele>409.9</ele>
        <time>2025-06-16T14:47:34Z</time>
      </trkpt>
      <trkpt lat="45.94813" lon="1.29631">
        <ele>410</ele>
        <time>2025-06-16T14:47:35Z</time>
      </trkpt>
      <trkpt lat="45.94812" lon="1.2963">
        <ele>410</ele>
        <time>2025-06-16T14:47:36Z</time>
      </trkpt>
      <trkpt lat="45.94811" lon="1.29629">
        <ele>410.1</ele>
        <time>2025-06-16T14:47:37Z</time>
      </trkpt>
      <trkpt lat="45.9481" lon="1.29628">
        <ele>410.1</ele>
        <time>2025-06-16T14:47:38Z</time>
      </trkpt>
      <trkpt lat="45.94807" lon="1.29626">
        <ele>410.2</ele>
        <time>2025-06-16T14:47:39Z</time>
      </trkpt>
      <trkpt lat="45.94806" lon="1.29625">
        <ele>410.3</ele>
        <time>2025-06-16T14:47:40Z</time>
      </trkpt>
      <trkpt lat="45.94806" lon="1.29625">
        <ele>410.3</ele>
        <time>2025-06-16T14:47:41Z</time>
      </trkpt>
      <trkpt lat="45.94804" lon="1.29623">
        <ele>410.4</ele>
        <time>2025-06-16T14:47:42Z</time>
      </trkpt>
      <trkpt lat="45.94801" lon="1.2962">
        <ele>410.5</ele>
        <time>2025-06-16T14:47:44Z</time>
      </trkpt>
      <trkpt lat="45.948" lon="1.29619">
        <ele>410.5</ele>
        <time>2025-06-16T14:47:46Z</time>
      </trkpt>
      <trkpt lat="45.94799" lon="1.29618">
        <ele>410.6</ele>
        <time>2025-06-16T14:47:47Z</time>
      </trkpt>
      <trkpt lat="45.94798" lon="1.29616">
        <ele>410.6</ele>
        <time>2025-06-16T14:47:48Z</time>
      </trkpt>
      <trkpt lat="45.94797" lon="1.29615">
        <ele>410.7</ele>
        <time>2025-06-16T14:47:49Z</time>
      </trkpt>
      <trkpt lat="45.94795" lon="1.29613">
        <ele>410.8</ele>
        <time>2025-06-16T14:47:50Z</time>
      </trkpt>
      <trkpt lat="45.94793" lon="1.2961">
        <ele>410.9</ele>
        <time>2025-06-16T14:47:51Z</time>
      </trkpt>
      <trkpt lat="45.94791" lon="1.29607">
        <ele>411</ele>
        <time>2025-06-16T14:47:53Z</time>
      </trkpt>
      <trkpt lat="45.94791" lon="1.29606">
        <ele>411.1</ele>
        <time>2025-06-16T14:47:54Z</time>
      </trkpt>
      <trkpt lat="45.94789" lon="1.29604">
        <ele>411.1</ele>
        <time>2025-06-16T14:47:55Z</time>
      </trkpt>
      <trkpt lat="45.94788" lon="1.29603">
        <ele>411.2</ele>
        <time>2025-06-16T14:47:56Z</time>
      </trkpt>
      <trkpt lat="45.94787" lon="1.296">
        <ele>411.3</ele>
        <time>2025-06-16T14:47:57Z</time>
      </trkpt>
      <trkpt lat="45.94786" lon="1.29599">
        <ele>411.4</ele>
        <time>2025-06-16T14:47:58Z</time>
      </trkpt>
      <trkpt lat="45.94785" lon="1.29597">
        <ele>411.5</ele>
        <time>2025-06-16T14:47:59Z</time>
      </trkpt>
      <trkpt lat="45.94783" lon="1.29595">
        <ele>411.6</ele>
        <time>2025-06-16T14:48:00Z</time>
      </trkpt>
      <trkpt lat="45.94781" lon="1.29593">
        <ele>411.7</ele>
        <time>2025-06-16T14:48:01Z</time>
      </trkpt>
      <trkpt lat="45.9478" lon="1.29592">
        <ele>411.8</ele>
        <time>2025-06-16T14:48:02Z</time>
      </trkpt>
      <trkpt lat="45.94778" lon="1.29589">
        <ele>412</ele>
        <time>2025-06-16T14:48:03Z</time>
      </trkpt>
      <trkpt lat="45.94777" lon="1.29588">
        <ele>412</ele>
        <time>2025-06-16T14:48:04Z</time>
      </trkpt>
      <trkpt lat="45.94775" lon="1.29585">
        <ele>412.2</ele>
        <time>2025-06-16T14:48:05Z</time>
      </trkpt>
      <trkpt lat="45.94774" lon="1.29585">
        <ele>412.3</ele>
        <time>2025-06-16T14:48:06Z</time>
      </trkpt>
      <trkpt lat="45.94772" lon="1.29582">
        <ele>412.4</ele>
        <time>2025-06-16T14:48:07Z</time>
      </trkpt>
      <trkpt lat="45.94771" lon="1.29581">
        <ele>412.5</ele>
        <time>2025-06-16T14:48:08Z</time>
      </trkpt>
      <trkpt lat="45.94769" lon="1.29578">
        <ele>412.7</ele>
        <time>2025-06-16T14:48:09Z</time>
      </trkpt>
      <trkpt lat="45.94768" lon="1.29577">
        <ele>412.8</ele>
        <time>2025-06-16T14:48:10Z</time>
      </trkpt>
      <trkpt lat="45.94766" lon="1.29574">
        <ele>413</ele>
        <time>2025-06-16T14:48:11Z</time>
      </trkpt>
      <trkpt lat="45.94765" lon="1.29573">
        <ele>413.1</ele>
        <time>2025-06-16T14:48:12Z</time>
      </trkpt>
      <trkpt lat="45.94764" lon="1.29571">
        <ele>413.2</ele>
        <time>2025-06-16T14:48:13Z</time>
      </trkpt>
      <trkpt lat="45.94763" lon="1.29569">
        <ele>413.3</ele>
        <time>2025-06-16T14:48:14Z</time>
      </trkpt>
      <trkpt lat="45.94761" lon="1.29565">
        <ele>413.6</ele>
        <time>2025-06-16T14:48:15Z</time>
      </trkpt>
      <trkpt lat="45.9476" lon="1.29563">
        <ele>413.7</ele>
        <time>2025-06-16T14:48:16Z</time>
      </trkpt>
      <trkpt lat="45.94758" lon="1.29559">
        <ele>414.1</ele>
        <time>2025-06-16T14:48:18Z</time>
      </trkpt>
      <trkpt lat="45.94756" lon="1.29554">
        <ele>414.4</ele>
        <time>2025-06-16T14:48:20Z</time>
      </trkpt>
      <trkpt lat="45.94756" lon="1.29553">
        <ele>414.5</ele>
        <time>2025-06-16T14:48:21Z</time>
      </trkpt>
      <trkpt lat="45.94755" lon="1.29551">
        <ele>414.6</ele>
        <time>2025-06-16T14:48:22Z</time>
      </trkpt>
      <trkpt lat="45.94754" lon="1.29546">
        <ele>415</ele>
        <time>2025-06-16T14:48:23Z</time>
      </trkpt>
      <trkpt lat="45.94753" lon="1.29544">
        <ele>415.1</ele>
        <time>2025-06-16T14:48:24Z</time>
      </trkpt>
      <trkpt lat="45.94753" lon="1.29539">
        <ele>415.4</ele>
        <time>2025-06-16T14:48:26Z</time>
      </trkpt>
      <trkpt lat="45.94752" lon="1.29538">
        <ele>415.5</ele>
        <time>2025-06-16T14:48:27Z</time>
      </trkpt>
      <trkpt lat="45.94752" lon="1.29536">
        <ele>415.6</ele>
        <time>2025-06-16T14:48:28Z</time>
      </trkpt>
      <trkpt lat="45.94752" lon="1.29532">
        <ele>415.9</ele>
        <time>2025-06-16T14:48:29Z</time>
      </trkpt>
      <trkpt lat="45.94751" lon="1.29531">
        <ele>416</ele>
        <time>2025-06-16T14:48:30Z</time>
      </trkpt>
      <trkpt lat="45.9475" lon="1.29526">
        <ele>416.3</ele>
        <time>2025-06-16T14:48:31Z</time>
      </trkpt>
      <trkpt lat="45.94749" lon="1.29522">
        <ele>416.5</ele>
        <time>2025-06-16T14:48:32Z</time>
      </trkpt>
      <trkpt lat="45.94749" lon="1.29521">
        <ele>416.6</ele>
        <time>2025-06-16T14:48:33Z</time>
      </trkpt>
      <trkpt lat="45.94748" lon="1.29516">
        <ele>416.9</ele>
        <time>2025-06-16T14:48:35Z</time>
      </trkpt>
      <trkpt lat="45.94748" lon="1.29515">
        <ele>417</ele>
        <time>2025-06-16T14:48:36Z</time>
      </trkpt>
      <trkpt lat="45.94748" lon="1.2951">
        <ele>417.2</ele>
        <time>2025-06-16T14:48:37Z</time>
      </trkpt>
      <trkpt lat="45.94748" lon="1.29508">
        <ele>417.3</ele>
        <time>2025-06-16T14:48:38Z</time>
      </trkpt>
      <trkpt lat="45.94748" lon="1.29505">
        <ele>417.4</ele>
        <time>2025-06-16T14:48:39Z</time>
      </trkpt>
      <trkpt lat="45.94748" lon="1.29502">
        <ele>417.5</ele>
        <time>2025-06-16T14:48:41Z</time>
      </trkpt>
      <trkpt lat="45.94748" lon="1.295">
        <ele>417.6</ele>
        <time>2025-06-16T14:48:42Z</time>
      </trkpt>
      <trkpt lat="45.94749" lon="1.29497">
        <ele>417.6</ele>
        <time>2025-06-16T14:48:43Z</time>
      </trkpt>
      <trkpt lat="45.94749" lon="1.29496">
        <ele>417.6</ele>
        <time>2025-06-16T14:48:44Z</time>
      </trkpt>
      <trkpt lat="45.94749" lon="1.29494">
        <ele>417.6</ele>
        <time>2025-06-16T14:48:45Z</time>
      </trkpt>
      <trkpt lat="45.94749" lon="1.29493">
        <ele>417.7</ele>
        <time>2025-06-16T14:48:46Z</time>
      </trkpt>
      <trkpt lat="45.94749" lon="1.29492">
        <ele>417.7</ele>
        <time>2025-06-16T14:48:47Z</time>
      </trkpt>
      <trkpt lat="45.94749" lon="1.29492">
        <ele>417.7</ele>
        <time>2025-06-16T14:48:48Z</time>
      </trkpt>
      <trkpt lat="45.9475" lon="1.29489">
        <ele>417.7</ele>
        <time>2025-06-16T14:48:49Z</time>
      </trkpt>
      <trkpt lat="45.9475" lon="1.29487">
        <ele>417.7</ele>
        <time>2025-06-16T14:48:50Z</time>
      </trkpt>
      <trkpt lat="45.9475" lon="1.29485">
        <ele>417.7</ele>
        <time>2025-06-16T14:48:51Z</time>
      </trkpt>
      <trkpt lat="45.9475" lon="1.29483">
        <ele>417.6</ele>
        <time>2025-06-16T14:48:52Z</time>
      </trkpt>
      <trkpt lat="45.9475" lon="1.2948">
        <ele>417.6</ele>
        <time>2025-06-16T14:48:53Z</time>
      </trkpt>
      <trkpt lat="45.9475" lon="1.29478">
        <ele>417.5</ele>
        <time>2025-06-16T14:48:54Z</time>
      </trkpt>
      <trkpt lat="45.9475" lon="1.29476">
        <ele>417.5</ele>
        <time>2025-06-16T14:48:55Z</time>
      </trkpt>
      <trkpt lat="45.9475" lon="1.29473">
        <ele>417.4</ele>
        <time>2025-06-16T14:48:56Z</time>
      </trkpt>
      <trkpt lat="45.9475" lon="1.29468">
        <ele>417.2</ele>
        <time>2025-06-16T14:48:57Z</time>
      </trkpt>
      <trkpt lat="45.94751" lon="1.29462">
        <ele>417</ele>
        <time>2025-06-16T14:48:59Z</time>
      </trkpt>
      <trkpt lat="45.94752" lon="1.29458">
        <ele>416.8</ele>
        <time>2025-06-16T14:49:01Z</time>
      </trkpt>
      <trkpt lat="45.94754" lon="1.29454">
        <ele>416.6</ele>
        <time>2025-06-16T14:49:02Z</time>
      </trkpt>
      <trkpt lat="45.94755" lon="1.29452">
        <ele>416.6</ele>
        <time>2025-06-16T14:49:03Z</time>
      </trkpt>
      <trkpt lat="45.94757" lon="1.29449">
        <ele>416.4</ele>
        <time>2025-06-16T14:49:04Z</time>
      </trkpt>
      <trkpt lat="45.9476" lon="1.29446">
        <ele>416.3</ele>
        <time>2025-06-16T14:49:05Z</time>
      </trkpt>
      <trkpt lat="45.94764" lon="1.29438">
        <ele>416</ele>
        <time>2025-06-16T14:49:06Z</time>
      </trkpt>
      <trkpt lat="45.94767" lon="1.29432">
        <ele>415.8</ele>
        <time>2025-06-16T14:49:08Z</time>
      </trkpt>
      <trkpt lat="45.94771" lon="1.29421">
        <ele>415.5</ele>
        <time>2025-06-16T14:49:09Z</time>
      </trkpt>
      <trkpt lat="45.94774" lon="1.29416">
        <ele>415.4</ele>
        <time>2025-06-16T14:49:10Z</time>
      </trkpt>
      <trkpt lat="45.94778" lon="1.29407">
        <ele>415.2</ele>
        <time>2025-06-16T14:49:12Z</time>
      </trkpt>
      <trkpt lat="45.94781" lon="1.29403">
        <ele>415.2</ele>
        <time>2025-06-16T14:49:14Z</time>
      </trkpt>
      <trkpt lat="45.94786" lon="1.29396">
        <ele>415</ele>
        <time>2025-06-16T14:49:15Z</time>
      </trkpt>
      <trkpt lat="45.94789" lon="1.29391">
        <ele>414.9</ele>
        <time>2025-06-16T14:49:16Z</time>
      </trkpt>
      <trkpt lat="45.94792" lon="1.29387">
        <ele>414.9</ele>
        <time>2025-06-16T14:49:17Z</time>
      </trkpt>
      <trkpt lat="45.94795" lon="1.29383">
        <ele>414.8</ele>
        <time>2025-06-16T14:49:18Z</time>
      </trkpt>
      <trkpt lat="45.94799" lon="1.29379">
        <ele>414.7</ele>
        <time>2025-06-16T14:49:19Z</time>
      </trkpt>
      <trkpt lat="45.94802" lon="1.29374">
        <ele>414.7</ele>
        <time>2025-06-16T14:49:20Z</time>
      </trkpt>
      <trkpt lat="45.94805" lon="1.2937">
        <ele>414.7</ele>
        <time>2025-06-16T14:49:21Z</time>
      </trkpt>
      <trkpt lat="45.94808" lon="1.29366">
        <ele>414.6</ele>
        <time>2025-06-16T14:49:22Z</time>
      </trkpt>
      <trkpt lat="45.94812" lon="1.29363">
        <ele>414.6</ele>
        <time>2025-06-16T14:49:23Z</time>
      </trkpt>
      <trkpt lat="45.94814" lon="1.2936">
        <ele>414.6</ele>
        <time>2025-06-16T14:49:24Z</time>
      </trkpt>
      <trkpt lat="45.94817" lon="1.29356">
        <ele>414.5</ele>
        <time>2025-06-16T14:49:25Z</time>
      </trkpt>
      <trkpt lat="45.9482" lon="1.29353">
        <ele>414.5</ele>
        <time>2025-06-16T14:49:26Z</time>
      </trkpt>
      <trkpt lat="45.94823" lon="1.29349">
        <ele>414.5</ele>
        <time>2025-06-16T14:49:27Z</time>
      </trkpt>
      <trkpt lat="45.94827" lon="1.29345">
        <ele>414.4</ele>
        <time>2025-06-16T14:49:28Z</time>
      </trkpt>
      <trkpt lat="45.9483" lon="1.29341">
        <ele>414.4</ele>
        <time>2025-06-16T14:49:29Z</time>
      </trkpt>
      <trkpt lat="45.94834" lon="1.29337">
        <ele>414.4</ele>
        <time>2025-06-16T14:49:30Z</time>
      </trkpt>
      <trkpt lat="45.94837" lon="1.29333">
        <ele>414.4</ele>
        <time>2025-06-16T14:49:31Z</time>
      </trkpt>
      <trkpt lat="45.9484" lon="1.2933">
        <ele>414.4</ele>
        <time>2025-06-16T14:49:32Z</time>
      </trkpt>
      <trkpt lat="45.94843" lon="1.29326">
        <ele>414.4</ele>
        <time>2025-06-16T14:49:33Z</time>
      </trkpt>
      <trkpt lat="45.94846" lon="1.29322">
        <ele>414.4</ele>
        <time>2025-06-16T14:49:34Z</time>
      </trkpt>
      <trkpt lat="45.94849" lon="1.29318">
        <ele>414.4</ele>
        <time>2025-06-16T14:49:35Z</time>
      </trkpt>
      <trkpt lat="45.94852" lon="1.29314">
        <ele>414.4</ele>
        <time>2025-06-16T14:49:36Z</time>
      </trkpt>
      <trkpt lat="45.94854" lon="1.29311">
        <ele>414.4</ele>
        <time>2025-06-16T14:49:37Z</time>
      </trkpt>
      <trkpt lat="45.94856" lon="1.29308">
        <ele>414.4</ele>
        <time>2025-06-16T14:49:38Z</time>
      </trkpt>
      <trkpt lat="45.94859" lon="1.29306">
        <ele>414.3</ele>
        <time>2025-06-16T14:49:39Z</time>
      </trkpt>
      <trkpt lat="45.94863" lon="1.29303">
        <ele>414.3</ele>
        <time>2025-06-16T14:49:40Z</time>
      </trkpt>
      <trkpt lat="45.94866" lon="1.29301">
        <ele>414.2</ele>
        <time>2025-06-16T14:49:41Z</time>
      </trkpt>
      <trkpt lat="45.9487" lon="1.29299">
        <ele>414.1</ele>
        <time>2025-06-16T14:49:42Z</time>
      </trkpt>
      <trkpt lat="45.94874" lon="1.29298">
        <ele>413.9</ele>
        <time>2025-06-16T14:49:43Z</time>
      </trkpt>
      <trkpt lat="45.94878" lon="1.29296">
        <ele>413.6</ele>
        <time>2025-06-16T14:49:44Z</time>
      </trkpt>
      <trkpt lat="45.94885" lon="1.29293">
        <ele>413.1</ele>
        <time>2025-06-16T14:49:45Z</time>
      </trkpt>
      <trkpt lat="45.94892" lon="1.29289">
        <ele>412.4</ele>
        <time>2025-06-16T14:49:46Z</time>
      </trkpt>
      <trkpt lat="45.94901" lon="1.29284">
        <ele>411.5</ele>
        <time>2025-06-16T14:49:47Z</time>
      </trkpt>
      <trkpt lat="45.94908" lon="1.29279">
        <ele>410.9</ele>
        <time>2025-06-16T14:49:48Z</time>
      </trkpt>
      <trkpt lat="45.94915" lon="1.29274">
        <ele>410.4</ele>
        <time>2025-06-16T14:49:49Z</time>
      </trkpt>
      <trkpt lat="45.94919" lon="1.2927">
        <ele>410</ele>
        <time>2025-06-16T14:49:50Z</time>
      </trkpt>
      <trkpt lat="45.94923" lon="1.29265">
        <ele>409.7</ele>
        <time>2025-06-16T14:49:51Z</time>
      </trkpt>
      <trkpt lat="45.9493" lon="1.29261">
        <ele>409.3</ele>
        <time>2025-06-16T14:49:52Z</time>
      </trkpt>
      <trkpt lat="45.94937" lon="1.29259">
        <ele>408.8</ele>
        <time>2025-06-16T14:49:53Z</time>
      </trkpt>
      <trkpt lat="45.94941" lon="1.29256">
        <ele>408.6</ele>
        <time>2025-06-16T14:49:54Z</time>
      </trkpt>
      <trkpt lat="45.94942" lon="1.29251">
        <ele>408.3</ele>
        <time>2025-06-16T14:49:55Z</time>
      </trkpt>
      <trkpt lat="45.94945" lon="1.29247">
        <ele>408.1</ele>
        <time>2025-06-16T14:49:56Z</time>
      </trkpt>
      <trkpt lat="45.94946" lon="1.29241">
        <ele>407.7</ele>
        <time>2025-06-16T14:49:57Z</time>
      </trkpt>
      <trkpt lat="45.94949" lon="1.29233">
        <ele>407.3</ele>
        <time>2025-06-16T14:49:58Z</time>
      </trkpt>
      <trkpt lat="45.94954" lon="1.29227">
        <ele>406.9</ele>
        <time>2025-06-16T14:49:59Z</time>
      </trkpt>
      <trkpt lat="45.94959" lon="1.29221">
        <ele>406.5</ele>
        <time>2025-06-16T14:50:00Z</time>
      </trkpt>
      <trkpt lat="45.94964" lon="1.29215">
        <ele>406.3</ele>
        <time>2025-06-16T14:50:01Z</time>
      </trkpt>
      <trkpt lat="45.94968" lon="1.2921">
        <ele>406.1</ele>
        <time>2025-06-16T14:50:02Z</time>
      </trkpt>
      <trkpt lat="45.94971" lon="1.29205">
        <ele>406</ele>
        <time>2025-06-16T14:50:03Z</time>
      </trkpt>
      <trkpt lat="45.94973" lon="1.292">
        <ele>405.9</ele>
        <time>2025-06-16T14:50:04Z</time>
      </trkpt>
      <trkpt lat="45.94976" lon="1.29193">
        <ele>405.8</ele>
        <time>2025-06-16T14:50:05Z</time>
      </trkpt>
      <trkpt lat="45.94979" lon="1.29188">
        <ele>405.7</ele>
        <time>2025-06-16T14:50:06Z</time>
      </trkpt>
      <trkpt lat="45.94982" lon="1.29184">
        <ele>405.7</ele>
        <time>2025-06-16T14:50:07Z</time>
      </trkpt>
      <trkpt lat="45.94986" lon="1.29181">
        <ele>405.7</ele>
        <time>2025-06-16T14:50:08Z</time>
      </trkpt>
      <trkpt lat="45.9499" lon="1.29178">
        <ele>405.7</ele>
        <time>2025-06-16T14:50:09Z</time>
      </trkpt>
      <trkpt lat="45.94994" lon="1.29174">
        <ele>405.8</ele>
        <time>2025-06-16T14:50:10Z</time>
      </trkpt>
      <trkpt lat="45.94998" lon="1.29171">
        <ele>406</ele>
        <time>2025-06-16T14:50:11Z</time>
      </trkpt>
      <trkpt lat="45.95003" lon="1.29169">
        <ele>406.1</ele>
        <time>2025-06-16T14:50:12Z</time>
      </trkpt>
      <trkpt lat="45.95008" lon="1.29168">
        <ele>406.3</ele>
        <time>2025-06-16T14:50:13Z</time>
      </trkpt>
      <trkpt lat="45.95012" lon="1.29166">
        <ele>406.5</ele>
        <time>2025-06-16T14:50:14Z</time>
      </trkpt>
      <trkpt lat="45.95016" lon="1.29165">
        <ele>406.6</ele>
        <time>2025-06-16T14:50:15Z</time>
      </trkpt>
      <trkpt lat="45.9502" lon="1.29163">
        <ele>406.6</ele>
        <time>2025-06-16T14:50:16Z</time>
      </trkpt>
      <trkpt lat="45.95025" lon="1.29161">
        <ele>406.6</ele>
        <time>2025-06-16T14:50:17Z</time>
      </trkpt>
      <trkpt lat="45.95029" lon="1.2916">
        <ele>406.4</ele>
        <time>2025-06-16T14:50:18Z</time>
      </trkpt>
      <trkpt lat="45.95032" lon="1.29159">
        <ele>406.3</ele>
        <time>2025-06-16T14:50:19Z</time>
      </trkpt>
      <trkpt lat="45.95036" lon="1.29157">
        <ele>406</ele>
        <time>2025-06-16T14:50:20Z</time>
      </trkpt>
      <trkpt lat="45.95041" lon="1.29155">
        <ele>405.6</ele>
        <time>2025-06-16T14:50:21Z</time>
      </trkpt>
      <trkpt lat="45.9505" lon="1.29154">
        <ele>404.7</ele>
        <time>2025-06-16T14:50:22Z</time>
      </trkpt>
      <trkpt lat="45.95058" lon="1.29152">
        <ele>404</ele>
        <time>2025-06-16T14:50:23Z</time>
      </trkpt>
      <trkpt lat="45.95064" lon="1.29151">
        <ele>403.5</ele>
        <time>2025-06-16T14:50:24Z</time>
      </trkpt>
      <trkpt lat="45.95071" lon="1.29151">
        <ele>402.9</ele>
        <time>2025-06-16T14:50:25Z</time>
      </trkpt>
      <trkpt lat="45.95076" lon="1.29151">
        <ele>402.5</ele>
        <time>2025-06-16T14:50:26Z</time>
      </trkpt>
      <trkpt lat="45.95079" lon="1.29153">
        <ele>402.2</ele>
        <time>2025-06-16T14:50:27Z</time>
      </trkpt>
      <trkpt lat="45.95081" lon="1.29156">
        <ele>402.1</ele>
        <time>2025-06-16T14:50:28Z</time>
      </trkpt>
      <trkpt lat="45.95082" lon="1.29161">
        <ele>402.1</ele>
        <time>2025-06-16T14:50:29Z</time>
      </trkpt>
      <trkpt lat="45.95083" lon="1.29166">
        <ele>402</ele>
        <time>2025-06-16T14:50:30Z</time>
      </trkpt>
      <trkpt lat="45.95085" lon="1.2917">
        <ele>401.9</ele>
        <time>2025-06-16T14:50:31Z</time>
      </trkpt>
      <trkpt lat="45.95085" lon="1.29174">
        <ele>401.8</ele>
        <time>2025-06-16T14:50:32Z</time>
      </trkpt>
      <trkpt lat="45.95086" lon="1.29178">
        <ele>401.7</ele>
        <time>2025-06-16T14:50:33Z</time>
      </trkpt>
      <trkpt lat="45.95088" lon="1.29183">
        <ele>401.6</ele>
        <time>2025-06-16T14:50:34Z</time>
      </trkpt>
      <trkpt lat="45.95094" lon="1.29192">
        <ele>401.4</ele>
        <time>2025-06-16T14:50:35Z</time>
      </trkpt>
      <trkpt lat="45.95099" lon="1.292">
        <ele>401.3</ele>
        <time>2025-06-16T14:50:36Z</time>
      </trkpt>
      <trkpt lat="45.95101" lon="1.29206">
        <ele>401.3</ele>
        <time>2025-06-16T14:50:37Z</time>
      </trkpt>
      <trkpt lat="45.95102" lon="1.29211">
        <ele>401.3</ele>
        <time>2025-06-16T14:50:38Z</time>
      </trkpt>
      <trkpt lat="45.95103" lon="1.29217">
        <ele>401.3</ele>
        <time>2025-06-16T14:50:39Z</time>
      </trkpt>
      <trkpt lat="45.95105" lon="1.29222">
        <ele>401.4</ele>
        <time>2025-06-16T14:50:40Z</time>
      </trkpt>
      <trkpt lat="45.95106" lon="1.29227">
        <ele>401.5</ele>
        <time>2025-06-16T14:50:41Z</time>
      </trkpt>
      <trkpt lat="45.95108" lon="1.2923">
        <ele>401.6</ele>
        <time>2025-06-16T14:50:42Z</time>
      </trkpt>
      <trkpt lat="45.95109" lon="1.29231">
        <ele>401.7</ele>
        <time>2025-06-16T14:50:43Z</time>
      </trkpt>
      <trkpt lat="45.95113" lon="1.29234">
        <ele>401.8</ele>
        <time>2025-06-16T14:50:44Z</time>
      </trkpt>
      <trkpt lat="45.95115" lon="1.29234">
        <ele>401.9</ele>
        <time>2025-06-16T14:50:45Z</time>
      </trkpt>
      <trkpt lat="45.95119" lon="1.29235">
        <ele>402</ele>
        <time>2025-06-16T14:50:46Z</time>
      </trkpt>
      <trkpt lat="45.95123" lon="1.29235">
        <ele>402.2</ele>
        <time>2025-06-16T14:50:47Z</time>
      </trkpt>
      <trkpt lat="45.95127" lon="1.29236">
        <ele>402.3</ele>
        <time>2025-06-16T14:50:48Z</time>
      </trkpt>
      <trkpt lat="45.95131" lon="1.29237">
        <ele>402.5</ele>
        <time>2025-06-16T14:50:49Z</time>
      </trkpt>
      <trkpt lat="45.95134" lon="1.29238">
        <ele>402.6</ele>
        <time>2025-06-16T14:50:50Z</time>
      </trkpt>
      <trkpt lat="45.95138" lon="1.29239">
        <ele>402.7</ele>
        <time>2025-06-16T14:50:51Z</time>
      </trkpt>
      <trkpt lat="45.95142" lon="1.29241">
        <ele>402.9</ele>
        <time>2025-06-16T14:50:52Z</time>
      </trkpt>
      <trkpt lat="45.95146" lon="1.29244">
        <ele>403</ele>
        <time>2025-06-16T14:50:53Z</time>
      </trkpt>
      <trkpt lat="45.95149" lon="1.29246">
        <ele>403.1</ele>
        <time>2025-06-16T14:50:54Z</time>
      </trkpt>
      <trkpt lat="45.95151" lon="1.29249">
        <ele>403.2</ele>
        <time>2025-06-16T14:50:55Z</time>
      </trkpt>
      <trkpt lat="45.95154" lon="1.29252">
        <ele>403.3</ele>
        <time>2025-06-16T14:50:56Z</time>
      </trkpt>
      <trkpt lat="45.95157" lon="1.29256">
        <ele>403.5</ele>
        <time>2025-06-16T14:50:57Z</time>
      </trkpt>
      <trkpt lat="45.95159" lon="1.29259">
        <ele>403.6</ele>
        <time>2025-06-16T14:50:58Z</time>
      </trkpt>
      <trkpt lat="45.95162" lon="1.29262">
        <ele>403.7</ele>
        <time>2025-06-16T14:50:59Z</time>
      </trkpt>
      <trkpt lat="45.95165" lon="1.29266">
        <ele>403.8</ele>
        <time>2025-06-16T14:51:00Z</time>
      </trkpt>
      <trkpt lat="45.95168" lon="1.29269">
        <ele>403.9</ele>
        <time>2025-06-16T14:51:01Z</time>
      </trkpt>
      <trkpt lat="45.9517" lon="1.29272">
        <ele>404</ele>
        <time>2025-06-16T14:51:02Z</time>
      </trkpt>
      <trkpt lat="45.95172" lon="1.29276">
        <ele>404.1</ele>
        <time>2025-06-16T14:51:03Z</time>
      </trkpt>
      <trkpt lat="45.95175" lon="1.29281">
        <ele>404.2</ele>
        <time>2025-06-16T14:51:04Z</time>
      </trkpt>
      <trkpt lat="45.95178" lon="1.29285">
        <ele>404.3</ele>
        <time>2025-06-16T14:51:05Z</time>
      </trkpt>
      <trkpt lat="45.9518" lon="1.29289">
        <ele>404.3</ele>
        <time>2025-06-16T14:51:06Z</time>
      </trkpt>
      <trkpt lat="45.95184" lon="1.29293">
        <ele>404.3</ele>
        <time>2025-06-16T14:51:07Z</time>
      </trkpt>
      <trkpt lat="45.95187" lon="1.29297">
        <ele>404.3</ele>
        <time>2025-06-16T14:51:08Z</time>
      </trkpt>
      <trkpt lat="45.95192" lon="1.29301">
        <ele>404.1</ele>
        <time>2025-06-16T14:51:09Z</time>
      </trkpt>
      <trkpt lat="45.95196" lon="1.29305">
        <ele>404</ele>
        <time>2025-06-16T14:51:10Z</time>
      </trkpt>
      <trkpt lat="45.952" lon="1.29309">
        <ele>403.8</ele>
        <time>2025-06-16T14:51:11Z</time>
      </trkpt>
      <trkpt lat="45.95203" lon="1.29311">
        <ele>403.7</ele>
        <time>2025-06-16T14:51:12Z</time>
      </trkpt>
      <trkpt lat="45.95205" lon="1.29312">
        <ele>403.7</ele>
        <time>2025-06-16T14:51:13Z</time>
      </trkpt>
      <trkpt lat="45.95206" lon="1.29313">
        <ele>403.6</ele>
        <time>2025-06-16T14:51:14Z</time>
      </trkpt>
      <trkpt lat="45.9521" lon="1.29315">
        <ele>403.6</ele>
        <time>2025-06-16T14:51:15Z</time>
      </trkpt>
      <trkpt lat="45.95211" lon="1.29316">
        <ele>403.6</ele>
        <time>2025-06-16T14:51:16Z</time>
      </trkpt>
      <trkpt lat="45.95214" lon="1.29318">
        <ele>403.5</ele>
        <time>2025-06-16T14:51:17Z</time>
      </trkpt>
      <trkpt lat="45.95217" lon="1.2932">
        <ele>403.5</ele>
        <time>2025-06-16T14:51:18Z</time>
      </trkpt>
      <trkpt lat="45.9522" lon="1.29322">
        <ele>403.5</ele>
        <time>2025-06-16T14:51:19Z</time>
      </trkpt>
      <trkpt lat="45.95223" lon="1.29323">
        <ele>403.5</ele>
        <time>2025-06-16T14:51:20Z</time>
      </trkpt>
      <trkpt lat="45.95226" lon="1.29324">
        <ele>403.5</ele>
        <time>2025-06-16T14:51:21Z</time>
      </trkpt>
      <trkpt lat="45.9523" lon="1.29324">
        <ele>403.5</ele>
        <time>2025-06-16T14:51:22Z</time>
      </trkpt>
      <trkpt lat="45.95234" lon="1.29324">
        <ele>403.4</ele>
        <time>2025-06-16T14:51:23Z</time>
      </trkpt>
      <trkpt lat="45.95238" lon="1.29324">
        <ele>403.4</ele>
        <time>2025-06-16T14:51:24Z</time>
      </trkpt>
      <trkpt lat="45.95242" lon="1.29323">
        <ele>403.3</ele>
        <time>2025-06-16T14:51:25Z</time>
      </trkpt>
      <trkpt lat="45.95246" lon="1.29321">
        <ele>403.3</ele>
        <time>2025-06-16T14:51:26Z</time>
      </trkpt>
      <trkpt lat="45.9525" lon="1.29321">
        <ele>403.2</ele>
        <time>2025-06-16T14:51:27Z</time>
      </trkpt>
      <trkpt lat="45.95254" lon="1.29321">
        <ele>403.2</ele>
        <time>2025-06-16T14:51:28Z</time>
      </trkpt>
      <trkpt lat="45.95257" lon="1.29322">
        <ele>403.3</ele>
        <time>2025-06-16T14:51:29Z</time>
      </trkpt>
      <trkpt lat="45.95258" lon="1.29323">
        <ele>403.3</ele>
        <time>2025-06-16T14:51:30Z</time>
      </trkpt>
      <trkpt lat="45.9526" lon="1.29327">
        <ele>403.4</ele>
        <time>2025-06-16T14:51:31Z</time>
      </trkpt>
      <trkpt lat="45.95261" lon="1.29328">
        <ele>403.4</ele>
        <time>2025-06-16T14:51:32Z</time>
      </trkpt>
      <trkpt lat="45.95263" lon="1.29333">
        <ele>403.6</ele>
        <time>2025-06-16T14:51:33Z</time>
      </trkpt>
      <trkpt lat="45.95263" lon="1.29335">
        <ele>403.7</ele>
        <time>2025-06-16T14:51:34Z</time>
      </trkpt>
      <trkpt lat="45.95264" lon="1.29338">
        <ele>403.9</ele>
        <time>2025-06-16T14:51:35Z</time>
      </trkpt>
      <trkpt lat="45.95265" lon="1.2934">
        <ele>403.9</ele>
        <time>2025-06-16T14:51:36Z</time>
      </trkpt>
      <trkpt lat="45.95266" lon="1.29345">
        <ele>404.2</ele>
        <time>2025-06-16T14:51:37Z</time>
      </trkpt>
      <trkpt lat="45.95267" lon="1.29348">
        <ele>404.4</ele>
        <time>2025-06-16T14:51:38Z</time>
      </trkpt>
      <trkpt lat="45.95267" lon="1.2935">
        <ele>404.5</ele>
        <time>2025-06-16T14:51:40Z</time>
      </trkpt>
      <trkpt lat="45.95268" lon="1.29351">
        <ele>404.5</ele>
        <time>2025-06-16T14:51:41Z</time>
      </trkpt>
      <trkpt lat="45.95268" lon="1.29351">
        <ele>404.6</ele>
        <time>2025-06-16T14:51:42Z</time>
      </trkpt>
      <trkpt lat="45.95268" lon="1.29351">
        <ele>404.6</ele>
        <time>2025-06-16T14:51:43Z</time>
      </trkpt>
      <trkpt lat="45.95268" lon="1.29352">
        <ele>404.6</ele>
        <time>2025-06-16T14:51:44Z</time>
      </trkpt>
      <trkpt lat="45.95268" lon="1.29352">
        <ele>404.6</ele>
        <time>2025-06-16T14:51:46Z</time>
      </trkpt>
      <trkpt lat="45.95268" lon="1.29353">
        <ele>404.7</ele>
        <time>2025-06-16T14:51:47Z</time>
      </trkpt>
      <trkpt lat="45.95268" lon="1.29353">
        <ele>404.7</ele>
        <time>2025-06-16T14:51:49Z</time>
      </trkpt>
      <trkpt lat="45.95268" lon="1.29354">
        <ele>404.7</ele>
        <time>2025-06-16T14:51:50Z</time>
      </trkpt>
      <trkpt lat="45.95269" lon="1.29354">
        <ele>404.7</ele>
        <time>2025-06-16T14:51:52Z</time>
      </trkpt>
      <trkpt lat="45.95269" lon="1.29354">
        <ele>404.8</ele>
        <time>2025-06-16T14:51:53Z</time>
      </trkpt>
      <trkpt lat="45.95269" lon="1.29355">
        <ele>404.8</ele>
        <time>2025-06-16T14:51:54Z</time>
      </trkpt>
      <trkpt lat="45.95269" lon="1.29355">
        <ele>404.8</ele>
        <time>2025-06-16T14:51:55Z</time>
      </trkpt>
      <trkpt lat="45.95269" lon="1.29356">
        <ele>404.9</ele>
        <time>2025-06-16T14:51:56Z</time>
      </trkpt>
      <trkpt lat="45.95269" lon="1.29356">
        <ele>404.9</ele>
        <time>2025-06-16T14:51:57Z</time>
      </trkpt>
      <trkpt lat="45.95269" lon="1.29356">
        <ele>404.9</ele>
        <time>2025-06-16T14:51:58Z</time>
      </trkpt>
      <trkpt lat="45.9527" lon="1.29357">
        <ele>404.9</ele>
        <time>2025-06-16T14:51:59Z</time>
      </trkpt>
      <trkpt lat="45.9527" lon="1.29357">
        <ele>405</ele>
        <time>2025-06-16T14:52:00Z</time>
      </trkpt>
      <trkpt lat="45.9527" lon="1.29358">
        <ele>405</ele>
        <time>2025-06-16T14:52:01Z</time>
      </trkpt>
      <trkpt lat="45.9527" lon="1.29358">
        <ele>405</ele>
        <time>2025-06-16T14:52:02Z</time>
      </trkpt>
      <trkpt lat="45.9527" lon="1.29359">
        <ele>405</ele>
        <time>2025-06-16T14:52:03Z</time>
      </trkpt>
      <trkpt lat="45.95272" lon="1.29365">
        <ele>405.4</ele>
        <time>2025-06-16T14:52:04Z</time>
      </trkpt>
      <trkpt lat="45.95274" lon="1.2937">
        <ele>405.8</ele>
        <time>2025-06-16T14:52:05Z</time>
      </trkpt>
      <trkpt lat="45.95275" lon="1.29375">
        <ele>406.1</ele>
        <time>2025-06-16T14:52:06Z</time>
      </trkpt>
      <trkpt lat="45.95277" lon="1.29378">
        <ele>406.4</ele>
        <time>2025-06-16T14:52:07Z</time>
      </trkpt>
      <trkpt lat="45.95278" lon="1.29383">
        <ele>406.8</ele>
        <time>2025-06-16T14:52:08Z</time>
      </trkpt>
      <trkpt lat="45.95279" lon="1.29385">
        <ele>406.9</ele>
        <time>2025-06-16T14:52:09Z</time>
      </trkpt>
      <trkpt lat="45.95281" lon="1.29388">
        <ele>407.2</ele>
        <time>2025-06-16T14:52:10Z</time>
      </trkpt>
      <trkpt lat="45.95283" lon="1.29391">
        <ele>407.6</ele>
        <time>2025-06-16T14:52:11Z</time>
      </trkpt>
      <trkpt lat="45.95284" lon="1.29393">
        <ele>407.7</ele>
        <time>2025-06-16T14:52:12Z</time>
      </trkpt>
      <trkpt lat="45.95287" lon="1.29395">
        <ele>408.2</ele>
        <time>2025-06-16T14:52:13Z</time>
      </trkpt>
      <trkpt lat="45.95289" lon="1.29396">
        <ele>408.3</ele>
        <time>2025-06-16T14:52:14Z</time>
      </trkpt>
      <trkpt lat="45.95292" lon="1.29398">
        <ele>408.7</ele>
        <time>2025-06-16T14:52:15Z</time>
      </trkpt>
      <trkpt lat="45.95294" lon="1.29398">
        <ele>408.8</ele>
        <time>2025-06-16T14:52:16Z</time>
      </trkpt>
      <trkpt lat="45.95297" lon="1.29399">
        <ele>409.2</ele>
        <time>2025-06-16T14:52:17Z</time>
      </trkpt>
      <trkpt lat="45.95299" lon="1.294">
        <ele>409.3</ele>
        <time>2025-06-16T14:52:18Z</time>
      </trkpt>
      <trkpt lat="45.95301" lon="1.294">
        <ele>409.5</ele>
        <time>2025-06-16T14:52:19Z</time>
      </trkpt>
      <trkpt lat="45.95305" lon="1.29402">
        <ele>409.7</ele>
        <time>2025-06-16T14:52:20Z</time>
      </trkpt>
      <trkpt lat="45.95308" lon="1.29403">
        <ele>409.9</ele>
        <time>2025-06-16T14:52:21Z</time>
      </trkpt>
      <trkpt lat="45.95312" lon="1.29405">
        <ele>410.1</ele>
        <time>2025-06-16T14:52:22Z</time>
      </trkpt>
      <trkpt lat="45.95314" lon="1.29406">
        <ele>410.2</ele>
        <time>2025-06-16T14:52:23Z</time>
      </trkpt>
      <trkpt lat="45.95317" lon="1.29408">
        <ele>410.3</ele>
        <time>2025-06-16T14:52:24Z</time>
      </trkpt>
      <trkpt lat="45.95321" lon="1.2941">
        <ele>410.4</ele>
        <time>2025-06-16T14:52:25Z</time>
      </trkpt>
      <trkpt lat="45.95325" lon="1.29413">
        <ele>410.5</ele>
        <time>2025-06-16T14:52:26Z</time>
      </trkpt>
      <trkpt lat="45.95328" lon="1.29416">
        <ele>410.6</ele>
        <time>2025-06-16T14:52:27Z</time>
      </trkpt>
      <trkpt lat="45.95331" lon="1.29419">
        <ele>410.7</ele>
        <time>2025-06-16T14:52:28Z</time>
      </trkpt>
      <trkpt lat="45.95333" lon="1.29421">
        <ele>410.8</ele>
        <time>2025-06-16T14:52:29Z</time>
      </trkpt>
      <trkpt lat="45.95336" lon="1.29424">
        <ele>410.9</ele>
        <time>2025-06-16T14:52:30Z</time>
      </trkpt>
      <trkpt lat="45.95339" lon="1.29427">
        <ele>411</ele>
        <time>2025-06-16T14:52:31Z</time>
      </trkpt>
      <trkpt lat="45.95341" lon="1.2943">
        <ele>411.1</ele>
        <time>2025-06-16T14:52:32Z</time>
      </trkpt>
      <trkpt lat="45.95344" lon="1.29433">
        <ele>411.2</ele>
        <time>2025-06-16T14:52:33Z</time>
      </trkpt>
      <trkpt lat="45.95345" lon="1.29434">
        <ele>411.2</ele>
        <time>2025-06-16T14:52:34Z</time>
      </trkpt>
      <trkpt lat="45.95347" lon="1.29437">
        <ele>411.3</ele>
        <time>2025-06-16T14:52:35Z</time>
      </trkpt>
      <trkpt lat="45.9535" lon="1.2944">
        <ele>411.4</ele>
        <time>2025-06-16T14:52:36Z</time>
      </trkpt>
      <trkpt lat="45.95353" lon="1.29444">
        <ele>411.6</ele>
        <time>2025-06-16T14:52:37Z</time>
      </trkpt>
      <trkpt lat="45.95356" lon="1.29447">
        <ele>411.8</ele>
        <time>2025-06-16T14:52:38Z</time>
      </trkpt>
      <trkpt lat="45.95358" lon="1.29451">
        <ele>412</ele>
        <time>2025-06-16T14:52:39Z</time>
      </trkpt>
      <trkpt lat="45.95361" lon="1.29454">
        <ele>412.2</ele>
        <time>2025-06-16T14:52:40Z</time>
      </trkpt>
      <trkpt lat="45.95362" lon="1.29455">
        <ele>412.2</ele>
        <time>2025-06-16T14:52:41Z</time>
      </trkpt>
      <trkpt lat="45.95365" lon="1.29456">
        <ele>412.4</ele>
        <time>2025-06-16T14:52:42Z</time>
      </trkpt>
      <trkpt lat="45.95368" lon="1.29457">
        <ele>412.5</ele>
        <time>2025-06-16T14:52:43Z</time>
      </trkpt>
      <trkpt lat="45.95372" lon="1.29458">
        <ele>412.7</ele>
        <time>2025-06-16T14:52:44Z</time>
      </trkpt>
      <trkpt lat="45.95373" lon="1.29458">
        <ele>412.8</ele>
        <time>2025-06-16T14:52:45Z</time>
      </trkpt>
      <trkpt lat="45.95376" lon="1.29458">
        <ele>412.9</ele>
        <time>2025-06-16T14:52:46Z</time>
      </trkpt>
      <trkpt lat="45.9538" lon="1.29458">
        <ele>413</ele>
        <time>2025-06-16T14:52:47Z</time>
      </trkpt>
      <trkpt lat="45.9538" lon="1.29458">
        <ele>413</ele>
        <time>2025-06-16T14:52:48Z</time>
      </trkpt>
      <trkpt lat="45.95383" lon="1.29457">
        <ele>413.1</ele>
        <time>2025-06-16T14:52:49Z</time>
      </trkpt>
      <trkpt lat="45.95386" lon="1.29455">
        <ele>413.2</ele>
        <time>2025-06-16T14:52:50Z</time>
      </trkpt>
      <trkpt lat="45.95389" lon="1.29453">
        <ele>413.3</ele>
        <time>2025-06-16T14:52:51Z</time>
      </trkpt>
      <trkpt lat="45.95392" lon="1.29451">
        <ele>413.4</ele>
        <time>2025-06-16T14:52:52Z</time>
      </trkpt>
      <trkpt lat="45.95394" lon="1.2945">
        <ele>413.5</ele>
        <time>2025-06-16T14:52:53Z</time>
      </trkpt>
      <trkpt lat="45.95395" lon="1.29448">
        <ele>413.6</ele>
        <time>2025-06-16T14:52:54Z</time>
      </trkpt>
      <trkpt lat="45.95397" lon="1.29446">
        <ele>413.7</ele>
        <time>2025-06-16T14:52:55Z</time>
      </trkpt>
      <trkpt lat="45.95397" lon="1.29445">
        <ele>413.7</ele>
        <time>2025-06-16T14:52:56Z</time>
      </trkpt>
      <trkpt lat="45.95398" lon="1.29444">
        <ele>413.8</ele>
        <time>2025-06-16T14:52:58Z</time>
      </trkpt>
      <trkpt lat="45.95399" lon="1.29444">
        <ele>413.8</ele>
        <time>2025-06-16T14:52:59Z</time>
      </trkpt>
      <trkpt lat="45.95401" lon="1.29441">
        <ele>414</ele>
        <time>2025-06-16T14:53:00Z</time>
      </trkpt>
      <trkpt lat="45.95404" lon="1.29438">
        <ele>414.2</ele>
        <time>2025-06-16T14:53:01Z</time>
      </trkpt>
      <trkpt lat="45.95405" lon="1.29437">
        <ele>414.2</ele>
        <time>2025-06-16T14:53:02Z</time>
      </trkpt>
      <trkpt lat="45.9541" lon="1.29434">
        <ele>414.5</ele>
        <time>2025-06-16T14:53:03Z</time>
      </trkpt>
      <trkpt lat="45.95411" lon="1.29432">
        <ele>414.6</ele>
        <time>2025-06-16T14:53:04Z</time>
      </trkpt>
      <trkpt lat="45.95413" lon="1.2943">
        <ele>414.6</ele>
        <time>2025-06-16T14:53:06Z</time>
      </trkpt>
      <trkpt lat="45.95416" lon="1.29426">
        <ele>414.7</ele>
        <time>2025-06-16T14:53:07Z</time>
      </trkpt>
      <trkpt lat="45.95418" lon="1.29423">
        <ele>414.8</ele>
        <time>2025-06-16T14:53:08Z</time>
      </trkpt>
      <trkpt lat="45.9542" lon="1.2942">
        <ele>414.9</ele>
        <time>2025-06-16T14:53:09Z</time>
      </trkpt>
      <trkpt lat="45.95422" lon="1.29417">
        <ele>415</ele>
        <time>2025-06-16T14:53:10Z</time>
      </trkpt>
      <trkpt lat="45.95427" lon="1.2941">
        <ele>415.1</ele>
        <time>2025-06-16T14:53:11Z</time>
      </trkpt>
      <trkpt lat="45.95431" lon="1.29403">
        <ele>415.3</ele>
        <time>2025-06-16T14:53:12Z</time>
      </trkpt>
      <trkpt lat="45.95435" lon="1.29399">
        <ele>415.4</ele>
        <time>2025-06-16T14:53:13Z</time>
      </trkpt>
      <trkpt lat="45.95438" lon="1.29395">
        <ele>415.5</ele>
        <time>2025-06-16T14:53:14Z</time>
      </trkpt>
      <trkpt lat="45.95441" lon="1.29392">
        <ele>415.6</ele>
        <time>2025-06-16T14:53:15Z</time>
      </trkpt>
      <trkpt lat="45.95444" lon="1.2939">
        <ele>415.7</ele>
        <time>2025-06-16T14:53:16Z</time>
      </trkpt>
      <trkpt lat="45.95447" lon="1.29386">
        <ele>415.8</ele>
        <time>2025-06-16T14:53:17Z</time>
      </trkpt>
      <trkpt lat="45.95448" lon="1.29385">
        <ele>415.8</ele>
        <time>2025-06-16T14:53:18Z</time>
      </trkpt>
      <trkpt lat="45.95451" lon="1.29382">
        <ele>415.9</ele>
        <time>2025-06-16T14:53:19Z</time>
      </trkpt>
      <trkpt lat="45.95453" lon="1.2938">
        <ele>416</ele>
        <time>2025-06-16T14:53:20Z</time>
      </trkpt>
      <trkpt lat="45.95456" lon="1.29378">
        <ele>416.1</ele>
        <time>2025-06-16T14:53:21Z</time>
      </trkpt>
      <trkpt lat="45.95458" lon="1.29375">
        <ele>416.2</ele>
        <time>2025-06-16T14:53:22Z</time>
      </trkpt>
      <trkpt lat="45.95462" lon="1.29373">
        <ele>416.3</ele>
        <time>2025-06-16T14:53:23Z</time>
      </trkpt>
      <trkpt lat="45.95463" lon="1.29372">
        <ele>416.3</ele>
        <time>2025-06-16T14:53:24Z</time>
      </trkpt>
      <trkpt lat="45.95466" lon="1.29369">
        <ele>416.5</ele>
        <time>2025-06-16T14:53:25Z</time>
      </trkpt>
      <trkpt lat="45.95467" lon="1.29367">
        <ele>416.5</ele>
        <time>2025-06-16T14:53:26Z</time>
      </trkpt>
      <trkpt lat="45.9547" lon="1.29365">
        <ele>416.7</ele>
        <time>2025-06-16T14:53:27Z</time>
      </trkpt>
      <trkpt lat="45.95471" lon="1.29363">
        <ele>416.7</ele>
        <time>2025-06-16T14:53:28Z</time>
      </trkpt>
      <trkpt lat="45.95474" lon="1.29361">
        <ele>416.9</ele>
        <time>2025-06-16T14:53:29Z</time>
      </trkpt>
      <trkpt lat="45.95475" lon="1.2936">
        <ele>416.9</ele>
        <time>2025-06-16T14:53:30Z</time>
      </trkpt>
      <trkpt lat="45.95479" lon="1.29357">
        <ele>417.2</ele>
        <time>2025-06-16T14:53:31Z</time>
      </trkpt>
      <trkpt lat="45.9548" lon="1.29357">
        <ele>417.2</ele>
        <time>2025-06-16T14:53:32Z</time>
      </trkpt>
      <trkpt lat="45.95483" lon="1.29355">
        <ele>417.5</ele>
        <time>2025-06-16T14:53:33Z</time>
      </trkpt>
      <trkpt lat="45.95484" lon="1.29355">
        <ele>417.5</ele>
        <time>2025-06-16T14:53:34Z</time>
      </trkpt>
      <trkpt lat="45.95485" lon="1.29355">
        <ele>417.7</ele>
        <time>2025-06-16T14:53:35Z</time>
      </trkpt>
      <trkpt lat="45.95487" lon="1.29354">
        <ele>417.8</ele>
        <time>2025-06-16T14:53:36Z</time>
      </trkpt>
      <trkpt lat="45.9549" lon="1.29354">
        <ele>418.1</ele>
        <time>2025-06-16T14:53:37Z</time>
      </trkpt>
      <trkpt lat="45.95494" lon="1.29353">
        <ele>418.4</ele>
        <time>2025-06-16T14:53:39Z</time>
      </trkpt>
      <trkpt lat="45.95496" lon="1.29352">
        <ele>418.7</ele>
        <time>2025-06-16T14:53:40Z</time>
      </trkpt>
      <trkpt lat="45.95501" lon="1.2935">
        <ele>419.1</ele>
        <time>2025-06-16T14:53:42Z</time>
      </trkpt>
      <trkpt lat="45.95502" lon="1.2935">
        <ele>419.3</ele>
        <time>2025-06-16T14:53:43Z</time>
      </trkpt>
      <trkpt lat="45.95504" lon="1.2935">
        <ele>419.4</ele>
        <time>2025-06-16T14:53:44Z</time>
      </trkpt>
      <trkpt lat="45.95507" lon="1.2935">
        <ele>419.7</ele>
        <time>2025-06-16T14:53:45Z</time>
      </trkpt>
      <trkpt lat="45.95508" lon="1.29349">
        <ele>419.8</ele>
        <time>2025-06-16T14:53:46Z</time>
      </trkpt>
      <trkpt lat="45.95512" lon="1.29349">
        <ele>420.1</ele>
        <time>2025-06-16T14:53:47Z</time>
      </trkpt>
      <trkpt lat="45.95514" lon="1.29348">
        <ele>420.2</ele>
        <time>2025-06-16T14:53:48Z</time>
      </trkpt>
      <trkpt lat="45.95518" lon="1.29347">
        <ele>420.5</ele>
        <time>2025-06-16T14:53:49Z</time>
      </trkpt>
      <trkpt lat="45.95521" lon="1.29346">
        <ele>420.7</ele>
        <time>2025-06-16T14:53:50Z</time>
      </trkpt>
      <trkpt lat="45.95524" lon="1.29345">
        <ele>420.9</ele>
        <time>2025-06-16T14:53:51Z</time>
      </trkpt>
      <trkpt lat="45.95527" lon="1.29344">
        <ele>421</ele>
        <time>2025-06-16T14:53:52Z</time>
      </trkpt>
      <trkpt lat="45.95528" lon="1.29345">
        <ele>421.1</ele>
        <time>2025-06-16T14:53:53Z</time>
      </trkpt>
      <trkpt lat="45.95532" lon="1.29345">
        <ele>421.3</ele>
        <time>2025-06-16T14:53:54Z</time>
      </trkpt>
      <trkpt lat="45.95533" lon="1.29345">
        <ele>421.4</ele>
        <time>2025-06-16T14:53:55Z</time>
      </trkpt>
      <trkpt lat="45.95537" lon="1.29345">
        <ele>421.6</ele>
        <time>2025-06-16T14:53:56Z</time>
      </trkpt>
      <trkpt lat="45.95538" lon="1.29345">
        <ele>421.7</ele>
        <time>2025-06-16T14:53:57Z</time>
      </trkpt>
      <trkpt lat="45.95541" lon="1.29345">
        <ele>421.9</ele>
        <time>2025-06-16T14:53:58Z</time>
      </trkpt>
      <trkpt lat="45.95542" lon="1.29345">
        <ele>422</ele>
        <time>2025-06-16T14:53:59Z</time>
      </trkpt>
      <trkpt lat="45.95545" lon="1.29344">
        <ele>422.2</ele>
        <time>2025-06-16T14:54:00Z</time>
      </trkpt>
      <trkpt lat="45.95546" lon="1.29344">
        <ele>422.3</ele>
        <time>2025-06-16T14:54:01Z</time>
      </trkpt>
      <trkpt lat="45.9555" lon="1.29343">
        <ele>422.6</ele>
        <time>2025-06-16T14:54:02Z</time>
      </trkpt>
      <trkpt lat="45.95551" lon="1.29343">
        <ele>422.7</ele>
        <time>2025-06-16T14:54:03Z</time>
      </trkpt>
      <trkpt lat="45.95554" lon="1.29343">
        <ele>422.9</ele>
        <time>2025-06-16T14:54:04Z</time>
      </trkpt>
      <trkpt lat="45.95556" lon="1.29343">
        <ele>423.1</ele>
        <time>2025-06-16T14:54:05Z</time>
      </trkpt>
      <trkpt lat="45.95557" lon="1.29344">
        <ele>423.3</ele>
        <time>2025-06-16T14:54:06Z</time>
      </trkpt>
      <trkpt lat="45.95559" lon="1.29344">
        <ele>423.4</ele>
        <time>2025-06-16T14:54:07Z</time>
      </trkpt>
      <trkpt lat="45.95561" lon="1.29344">
        <ele>423.6</ele>
        <time>2025-06-16T14:54:08Z</time>
      </trkpt>
      <trkpt lat="45.95564" lon="1.29345">
        <ele>423.9</ele>
        <time>2025-06-16T14:54:09Z</time>
      </trkpt>
      <trkpt lat="45.95565" lon="1.29345">
        <ele>424</ele>
        <time>2025-06-16T14:54:10Z</time>
      </trkpt>
      <trkpt lat="45.95568" lon="1.29345">
        <ele>424.3</ele>
        <time>2025-06-16T14:54:11Z</time>
      </trkpt>
      <trkpt lat="45.95569" lon="1.29345">
        <ele>424.4</ele>
        <time>2025-06-16T14:54:12Z</time>
      </trkpt>
      <trkpt lat="45.95573" lon="1.29345">
        <ele>424.7</ele>
        <time>2025-06-16T14:54:13Z</time>
      </trkpt>
      <trkpt lat="45.95574" lon="1.29345">
        <ele>424.8</ele>
        <time>2025-06-16T14:54:14Z</time>
      </trkpt>
      <trkpt lat="45.95576" lon="1.29345">
        <ele>425</ele>
        <time>2025-06-16T14:54:15Z</time>
      </trkpt>
      <trkpt lat="45.95577" lon="1.29345">
        <ele>425.1</ele>
        <time>2025-06-16T14:54:16Z</time>
      </trkpt>
      <trkpt lat="45.95578" lon="1.29345">
        <ele>425.2</ele>
        <time>2025-06-16T14:54:17Z</time>
      </trkpt>
      <trkpt lat="45.9558" lon="1.29345">
        <ele>425.3</ele>
        <time>2025-06-16T14:54:18Z</time>
      </trkpt>
      <trkpt lat="45.9558" lon="1.29346">
        <ele>425.4</ele>
        <time>2025-06-16T14:54:19Z</time>
      </trkpt>
      <trkpt lat="45.9558" lon="1.29346">
        <ele>425.4</ele>
        <time>2025-06-16T14:54:20Z</time>
      </trkpt>
      <trkpt lat="45.9558" lon="1.29346">
        <ele>425.4</ele>
        <time>2025-06-16T14:54:21Z</time>
      </trkpt>
      <trkpt lat="45.9558" lon="1.29346">
        <ele>425.4</ele>
        <time>2025-06-16T14:54:22Z</time>
      </trkpt>
      <trkpt lat="45.9558" lon="1.29346">
        <ele>425.4</ele>
        <time>2025-06-16T14:54:23Z</time>
      </trkpt>
      <trkpt lat="45.9558" lon="1.29346">
        <ele>425.4</ele>
        <time>2025-06-16T14:54:24Z</time>
      </trkpt>
      <trkpt lat="45.9558" lon="1.29345">
        <ele>425.4</ele>
        <time>2025-06-16T14:54:26Z</time>
      </trkpt>
      <trkpt lat="45.9558" lon="1.29345">
        <ele>425.4</ele>
        <time>2025-06-16T14:54:27Z</time>
      </trkpt>
      <trkpt lat="45.9558" lon="1.29345">
        <ele>425.5</ele>
        <time>2025-06-16T14:54:28Z</time>
      </trkpt>
      <trkpt lat="45.9558" lon="1.29345">
        <ele>425.5</ele>
        <time>2025-06-16T14:54:29Z</time>
      </trkpt>
      <trkpt lat="45.95581" lon="1.29345">
        <ele>425.5</ele>
        <time>2025-06-16T14:54:30Z</time>
      </trkpt>
      <trkpt lat="45.95581" lon="1.29345">
        <ele>425.5</ele>
        <time>2025-06-16T14:54:31Z</time>
      </trkpt>
      <trkpt lat="45.95582" lon="1.29346">
        <ele>425.6</ele>
        <time>2025-06-16T14:54:32Z</time>
      </trkpt>
      <trkpt lat="45.95583" lon="1.29346">
        <ele>425.7</ele>
        <time>2025-06-16T14:54:33Z</time>
      </trkpt>
      <trkpt lat="45.95585" lon="1.29346">
        <ele>425.8</ele>
        <time>2025-06-16T14:54:34Z</time>
      </trkpt>
      <trkpt lat="45.95586" lon="1.29346">
        <ele>425.8</ele>
        <time>2025-06-16T14:54:35Z</time>
      </trkpt>
      <trkpt lat="45.95587" lon="1.29346">
        <ele>425.9</ele>
        <time>2025-06-16T14:54:36Z</time>
      </trkpt>
      <trkpt lat="45.95587" lon="1.29347">
        <ele>425.9</ele>
        <time>2025-06-16T14:54:37Z</time>
      </trkpt>
      <trkpt lat="45.95587" lon="1.29347">
        <ele>425.9</ele>
        <time>2025-06-16T14:54:38Z</time>
      </trkpt>
      <trkpt lat="45.95588" lon="1.29347">
        <ele>426</ele>
        <time>2025-06-16T14:54:39Z</time>
      </trkpt>
      <trkpt lat="45.95588" lon="1.29347">
        <ele>426</ele>
        <time>2025-06-16T14:54:40Z</time>
      </trkpt>
      <trkpt lat="45.95588" lon="1.29347">
        <ele>426</ele>
        <time>2025-06-16T14:54:41Z</time>
      </trkpt>
      <trkpt lat="45.95589" lon="1.29347">
        <ele>426</ele>
        <time>2025-06-16T14:54:42Z</time>
      </trkpt>
      <trkpt lat="45.95589" lon="1.29348">
        <ele>426</ele>
        <time>2025-06-16T14:54:43Z</time>
      </trkpt>
      <trkpt lat="45.95589" lon="1.29348">
        <ele>426</ele>
        <time>2025-06-16T14:54:44Z</time>
      </trkpt>
      <trkpt lat="45.95589" lon="1.29348">
        <ele>426.1</ele>
        <time>2025-06-16T14:54:45Z</time>
      </trkpt>
      <trkpt lat="45.9559" lon="1.29348">
        <ele>426.1</ele>
        <time>2025-06-16T14:54:46Z</time>
      </trkpt>
      <trkpt lat="45.9559" lon="1.29348">
        <ele>426.1</ele>
        <time>2025-06-16T14:54:47Z</time>
      </trkpt>
      <trkpt lat="45.9559" lon="1.29348">
        <ele>426.1</ele>
        <time>2025-06-16T14:54:48Z</time>
      </trkpt>
      <trkpt lat="45.95592" lon="1.29349">
        <ele>426.2</ele>
        <time>2025-06-16T14:54:49Z</time>
      </trkpt>
      <trkpt lat="45.95593" lon="1.29349">
        <ele>426.3</ele>
        <time>2025-06-16T14:54:50Z</time>
      </trkpt>
      <trkpt lat="45.95597" lon="1.29351">
        <ele>426.5</ele>
        <time>2025-06-16T14:54:51Z</time>
      </trkpt>
      <trkpt lat="45.95598" lon="1.29352">
        <ele>426.6</ele>
        <time>2025-06-16T14:54:52Z</time>
      </trkpt>
      <trkpt lat="45.95601" lon="1.29354">
        <ele>426.8</ele>
        <time>2025-06-16T14:54:53Z</time>
      </trkpt>
      <trkpt lat="45.95602" lon="1.29355">
        <ele>426.8</ele>
        <time>2025-06-16T14:54:54Z</time>
      </trkpt>
      <trkpt lat="45.95603" lon="1.29356">
        <ele>426.9</ele>
        <time>2025-06-16T14:54:55Z</time>
      </trkpt>
      <trkpt lat="45.95605" lon="1.29357">
        <ele>427.1</ele>
        <time>2025-06-16T14:54:56Z</time>
      </trkpt>
      <trkpt lat="45.95608" lon="1.29358">
        <ele>427.2</ele>
        <time>2025-06-16T14:54:57Z</time>
      </trkpt>
      <trkpt lat="45.95608" lon="1.29359">
        <ele>427.3</ele>
        <time>2025-06-16T14:54:58Z</time>
      </trkpt>
      <trkpt lat="45.95607" lon="1.29355">
        <ele>427.5</ele>
        <time>2025-06-16T14:54:59Z</time>
      </trkpt>
      <trkpt lat="45.9561" lon="1.29357">
        <ele>427.7</ele>
        <time>2025-06-16T14:55:00Z</time>
      </trkpt>
      <trkpt lat="45.95611" lon="1.29358">
        <ele>427.8</ele>
        <time>2025-06-16T14:55:02Z</time>
      </trkpt>
      <trkpt lat="45.95612" lon="1.2936">
        <ele>427.9</ele>
        <time>2025-06-16T14:55:04Z</time>
      </trkpt>
      <trkpt lat="45.95614" lon="1.29361">
        <ele>428</ele>
        <time>2025-06-16T14:55:05Z</time>
      </trkpt>
      <trkpt lat="45.95615" lon="1.29363">
        <ele>428.1</ele>
        <time>2025-06-16T14:55:06Z</time>
      </trkpt>
      <trkpt lat="45.95618" lon="1.29366">
        <ele>428.2</ele>
        <time>2025-06-16T14:55:07Z</time>
      </trkpt>
      <trkpt lat="45.95619" lon="1.29367">
        <ele>428.2</ele>
        <time>2025-06-16T14:55:08Z</time>
      </trkpt>
      <trkpt lat="45.95621" lon="1.29371">
        <ele>428.4</ele>
        <time>2025-06-16T14:55:09Z</time>
      </trkpt>
      <trkpt lat="45.95622" lon="1.29372">
        <ele>428.4</ele>
        <time>2025-06-16T14:55:10Z</time>
      </trkpt>
      <trkpt lat="45.95625" lon="1.29376">
        <ele>428.5</ele>
        <time>2025-06-16T14:55:11Z</time>
      </trkpt>
      <trkpt lat="45.95625" lon="1.29377">
        <ele>428.5</ele>
        <time>2025-06-16T14:55:12Z</time>
      </trkpt>
      <trkpt lat="45.95628" lon="1.29381">
        <ele>428.5</ele>
        <time>2025-06-16T14:55:13Z</time>
      </trkpt>
      <trkpt lat="45.95629" lon="1.29383">
        <ele>428.5</ele>
        <time>2025-06-16T14:55:14Z</time>
      </trkpt>
      <trkpt lat="45.95631" lon="1.29385">
        <ele>428.5</ele>
        <time>2025-06-16T14:55:16Z</time>
      </trkpt>
      <trkpt lat="45.95633" lon="1.29388">
        <ele>428.5</ele>
        <time>2025-06-16T14:55:17Z</time>
      </trkpt>
      <trkpt lat="45.95634" lon="1.29388">
        <ele>428.5</ele>
        <time>2025-06-16T14:55:18Z</time>
      </trkpt>
      <trkpt lat="45.95637" lon="1.29391">
        <ele>428.5</ele>
        <time>2025-06-16T14:55:19Z</time>
      </trkpt>
      <trkpt lat="45.95638" lon="1.29393">
        <ele>428.5</ele>
        <time>2025-06-16T14:55:21Z</time>
      </trkpt>
      <trkpt lat="45.95639" lon="1.29394">
        <ele>428.5</ele>
        <time>2025-06-16T14:55:22Z</time>
      </trkpt>
      <trkpt lat="45.95641" lon="1.29395">
        <ele>428.5</ele>
        <time>2025-06-16T14:55:23Z</time>
      </trkpt>
      <trkpt lat="45.95642" lon="1.29396">
        <ele>428.4</ele>
        <time>2025-06-16T14:55:24Z</time>
      </trkpt>
      <trkpt lat="45.95643" lon="1.29397">
        <ele>428.4</ele>
        <time>2025-06-16T14:55:25Z</time>
      </trkpt>
      <trkpt lat="45.95644" lon="1.29396">
        <ele>428.4</ele>
        <time>2025-06-16T14:55:26Z</time>
      </trkpt>
      <trkpt lat="45.95644" lon="1.29395">
        <ele>428.4</ele>
        <time>2025-06-16T14:55:27Z</time>
      </trkpt>
      <trkpt lat="45.95644" lon="1.29395">
        <ele>428.4</ele>
        <time>2025-06-16T14:55:28Z</time>
      </trkpt>
      <trkpt lat="45.95645" lon="1.29395">
        <ele>428.4</ele>
        <time>2025-06-16T14:55:29Z</time>
      </trkpt>
      <trkpt lat="45.95645" lon="1.29396">
        <ele>428.4</ele>
        <time>2025-06-16T14:55:30Z</time>
      </trkpt>
      <trkpt lat="45.95645" lon="1.29397">
        <ele>428.3</ele>
        <time>2025-06-16T14:55:31Z</time>
      </trkpt>
      <trkpt lat="45.95646" lon="1.29397">
        <ele>428.3</ele>
        <time>2025-06-16T14:55:32Z</time>
      </trkpt>
      <trkpt lat="45.95647" lon="1.29398">
        <ele>428.3</ele>
        <time>2025-06-16T14:55:33Z</time>
      </trkpt>
      <trkpt lat="45.9565" lon="1.29402">
        <ele>428.2</ele>
        <time>2025-06-16T14:55:35Z</time>
      </trkpt>
      <trkpt lat="45.95654" lon="1.29405">
        <ele>428.1</ele>
        <time>2025-06-16T14:55:37Z</time>
      </trkpt>
      <trkpt lat="45.95657" lon="1.29404">
        <ele>427.9</ele>
        <time>2025-06-16T14:55:38Z</time>
      </trkpt>
      <trkpt lat="45.9566" lon="1.29403">
        <ele>427.8</ele>
        <time>2025-06-16T14:55:39Z</time>
      </trkpt>
      <trkpt lat="45.95664" lon="1.29401">
        <ele>427.7</ele>
        <time>2025-06-16T14:55:41Z</time>
      </trkpt>
      <trkpt lat="45.95667" lon="1.29399">
        <ele>427.5</ele>
        <time>2025-06-16T14:55:42Z</time>
      </trkpt>
      <trkpt lat="45.95672" lon="1.29396">
        <ele>427.3</ele>
        <time>2025-06-16T14:55:43Z</time>
      </trkpt>
      <trkpt lat="45.9568" lon="1.29391">
        <ele>427.1</ele>
        <time>2025-06-16T14:55:44Z</time>
      </trkpt>
      <trkpt lat="45.95684" lon="1.29389">
        <ele>427</ele>
        <time>2025-06-16T14:55:45Z</time>
      </trkpt>
      <trkpt lat="45.95688" lon="1.29386">
        <ele>427</ele>
        <time>2025-06-16T14:55:47Z</time>
      </trkpt>
      <trkpt lat="45.95692" lon="1.29384">
        <ele>427</ele>
        <time>2025-06-16T14:55:48Z</time>
      </trkpt>
      <trkpt lat="45.95698" lon="1.29384">
        <ele>427</ele>
        <time>2025-06-16T14:55:49Z</time>
      </trkpt>
      <trkpt lat="45.95704" lon="1.29385">
        <ele>427</ele>
        <time>2025-06-16T14:55:50Z</time>
      </trkpt>
      <trkpt lat="45.9571" lon="1.29383">
        <ele>426.9</ele>
        <time>2025-06-16T14:55:51Z</time>
      </trkpt>
      <trkpt lat="45.95716" lon="1.29378">
        <ele>426.9</ele>
        <time>2025-06-16T14:55:52Z</time>
      </trkpt>
      <trkpt lat="45.9572" lon="1.29373">
        <ele>427.3</ele>
        <time>2025-06-16T14:55:54Z</time>
      </trkpt>
      <trkpt lat="45.95723" lon="1.29371">
        <ele>427.6</ele>
        <time>2025-06-16T14:55:55Z</time>
      </trkpt>
      <trkpt lat="45.95727" lon="1.29367">
        <ele>427.9</ele>
        <time>2025-06-16T14:55:56Z</time>
      </trkpt>
      <trkpt lat="45.95728" lon="1.29366">
        <ele>428.1</ele>
        <time>2025-06-16T14:55:57Z</time>
      </trkpt>
      <trkpt lat="45.95733" lon="1.29361">
        <ele>428.5</ele>
        <time>2025-06-16T14:55:59Z</time>
      </trkpt>
      <trkpt lat="45.95736" lon="1.29358">
        <ele>428.7</ele>
        <time>2025-06-16T14:56:01Z</time>
      </trkpt>
      <trkpt lat="45.95737" lon="1.29357">
        <ele>428.8</ele>
        <time>2025-06-16T14:56:02Z</time>
      </trkpt>
      <trkpt lat="45.95739" lon="1.29354">
        <ele>428.9</ele>
        <time>2025-06-16T14:56:03Z</time>
      </trkpt>
      <trkpt lat="45.9574" lon="1.29353">
        <ele>429</ele>
        <time>2025-06-16T14:56:04Z</time>
      </trkpt>
      <trkpt lat="45.95741" lon="1.29349">
        <ele>429.1</ele>
        <time>2025-06-16T14:56:05Z</time>
      </trkpt>
      <trkpt lat="45.95741" lon="1.29347">
        <ele>429.1</ele>
        <time>2025-06-16T14:56:06Z</time>
      </trkpt>
      <trkpt lat="45.95741" lon="1.29339">
        <ele>429.2</ele>
        <time>2025-06-16T14:56:07Z</time>
      </trkpt>
      <trkpt lat="45.95741" lon="1.29335">
        <ele>429.3</ele>
        <time>2025-06-16T14:56:08Z</time>
      </trkpt>
      <trkpt lat="45.95741" lon="1.29331">
        <ele>429.3</ele>
        <time>2025-06-16T14:56:10Z</time>
      </trkpt>
      <trkpt lat="45.95741" lon="1.29327">
        <ele>429.2</ele>
        <time>2025-06-16T14:56:11Z</time>
      </trkpt>
      <trkpt lat="45.95739" lon="1.29321">
        <ele>429.2</ele>
        <time>2025-06-16T14:56:12Z</time>
      </trkpt>
      <trkpt lat="45.95739" lon="1.2932">
        <ele>429.2</ele>
        <time>2025-06-16T14:56:13Z</time>
      </trkpt>
      <trkpt lat="45.95737" lon="1.29315">
        <ele>429.1</ele>
        <time>2025-06-16T14:56:14Z</time>
      </trkpt>
      <trkpt lat="45.95734" lon="1.29311">
        <ele>429</ele>
        <time>2025-06-16T14:56:15Z</time>
      </trkpt>
      <trkpt lat="45.95731" lon="1.29307">
        <ele>428.9</ele>
        <time>2025-06-16T14:56:16Z</time>
      </trkpt>
      <trkpt lat="45.9573" lon="1.29304">
        <ele>428.8</ele>
        <time>2025-06-16T14:56:17Z</time>
      </trkpt>
      <trkpt lat="45.95728" lon="1.293">
        <ele>428.7</ele>
        <time>2025-06-16T14:56:18Z</time>
      </trkpt>
      <trkpt lat="45.95726" lon="1.29297">
        <ele>428.6</ele>
        <time>2025-06-16T14:56:19Z</time>
      </trkpt>
      <trkpt lat="45.95724" lon="1.29292">
        <ele>428.5</ele>
        <time>2025-06-16T14:56:20Z</time>
      </trkpt>
      <trkpt lat="45.95723" lon="1.2929">
        <ele>428.5</ele>
        <time>2025-06-16T14:56:21Z</time>
      </trkpt>
      <trkpt lat="45.95721" lon="1.29285">
        <ele>428.4</ele>
        <time>2025-06-16T14:56:22Z</time>
      </trkpt>
      <trkpt lat="45.95716" lon="1.29275">
        <ele>428.2</ele>
        <time>2025-06-16T14:56:23Z</time>
      </trkpt>
      <trkpt lat="45.95713" lon="1.29272">
        <ele>428.2</ele>
        <time>2025-06-16T14:56:25Z</time>
      </trkpt>
      <trkpt lat="45.95711" lon="1.29268">
        <ele>428.1</ele>
        <time>2025-06-16T14:56:26Z</time>
      </trkpt>
      <trkpt lat="45.95709" lon="1.29264">
        <ele>428.1</ele>
        <time>2025-06-16T14:56:27Z</time>
      </trkpt>
      <trkpt lat="45.95708" lon="1.29261">
        <ele>428</ele>
        <time>2025-06-16T14:56:28Z</time>
      </trkpt>
      <trkpt lat="45.95706" lon="1.29257">
        <ele>428</ele>
        <time>2025-06-16T14:56:29Z</time>
      </trkpt>
      <trkpt lat="45.95704" lon="1.29252">
        <ele>428</ele>
        <time>2025-06-16T14:56:30Z</time>
      </trkpt>
      <trkpt lat="45.95703" lon="1.2925">
        <ele>428</ele>
        <time>2025-06-16T14:56:31Z</time>
      </trkpt>
      <trkpt lat="45.95702" lon="1.29247">
        <ele>428</ele>
        <time>2025-06-16T14:56:32Z</time>
      </trkpt>
      <trkpt lat="45.957" lon="1.29243">
        <ele>427.9</ele>
        <time>2025-06-16T14:56:33Z</time>
      </trkpt>
      <trkpt lat="45.95698" lon="1.29239">
        <ele>427.8</ele>
        <time>2025-06-16T14:56:34Z</time>
      </trkpt>
      <trkpt lat="45.95697" lon="1.29237">
        <ele>427.8</ele>
        <time>2025-06-16T14:56:35Z</time>
      </trkpt>
      <trkpt lat="45.95694" lon="1.29233">
        <ele>427.7</ele>
        <time>2025-06-16T14:56:36Z</time>
      </trkpt>
      <trkpt lat="45.95693" lon="1.29232">
        <ele>427.6</ele>
        <time>2025-06-16T14:56:37Z</time>
      </trkpt>
      <trkpt lat="45.95691" lon="1.29227">
        <ele>427.4</ele>
        <time>2025-06-16T14:56:38Z</time>
      </trkpt>
      <trkpt lat="45.9569" lon="1.29225">
        <ele>427.3</ele>
        <time>2025-06-16T14:56:39Z</time>
      </trkpt>
      <trkpt lat="45.95689" lon="1.29221">
        <ele>427.2</ele>
        <time>2025-06-16T14:56:40Z</time>
      </trkpt>
      <trkpt lat="45.95688" lon="1.29219">
        <ele>427.1</ele>
        <time>2025-06-16T14:56:41Z</time>
      </trkpt>
      <trkpt lat="45.95687" lon="1.29215">
        <ele>426.9</ele>
        <time>2025-06-16T14:56:42Z</time>
      </trkpt>
      <trkpt lat="45.95685" lon="1.29211">
        <ele>426.7</ele>
        <time>2025-06-16T14:56:43Z</time>
      </trkpt>
      <trkpt lat="45.95683" lon="1.29206">
        <ele>426.4</ele>
        <time>2025-06-16T14:56:44Z</time>
      </trkpt>
      <trkpt lat="45.95681" lon="1.29202">
        <ele>426.1</ele>
        <time>2025-06-16T14:56:45Z</time>
      </trkpt>
      <trkpt lat="45.95678" lon="1.29199">
        <ele>425.8</ele>
        <time>2025-06-16T14:56:46Z</time>
      </trkpt>
      <trkpt lat="45.95675" lon="1.29194">
        <ele>425.4</ele>
        <time>2025-06-16T14:56:47Z</time>
      </trkpt>
      <trkpt lat="45.95667" lon="1.29187">
        <ele>424.5</ele>
        <time>2025-06-16T14:56:48Z</time>
      </trkpt>
      <trkpt lat="45.95661" lon="1.2918">
        <ele>423.8</ele>
        <time>2025-06-16T14:56:49Z</time>
      </trkpt>
      <trkpt lat="45.95656" lon="1.29174">
        <ele>423.3</ele>
        <time>2025-06-16T14:56:50Z</time>
      </trkpt>
      <trkpt lat="45.95652" lon="1.29166">
        <ele>422.8</ele>
        <time>2025-06-16T14:56:51Z</time>
      </trkpt>
      <trkpt lat="45.95649" lon="1.29158">
        <ele>422.5</ele>
        <time>2025-06-16T14:56:52Z</time>
      </trkpt>
      <trkpt lat="45.95647" lon="1.29149">
        <ele>422.1</ele>
        <time>2025-06-16T14:56:53Z</time>
      </trkpt>
      <trkpt lat="45.95645" lon="1.29141">
        <ele>421.9</ele>
        <time>2025-06-16T14:56:54Z</time>
      </trkpt>
      <trkpt lat="45.9564" lon="1.29135">
        <ele>421.7</ele>
        <time>2025-06-16T14:56:55Z</time>
      </trkpt>
      <trkpt lat="45.95635" lon="1.29129">
        <ele>421.5</ele>
        <time>2025-06-16T14:56:56Z</time>
      </trkpt>
      <trkpt lat="45.95631" lon="1.29124">
        <ele>421.4</ele>
        <time>2025-06-16T14:56:57Z</time>
      </trkpt>
      <trkpt lat="45.95627" lon="1.2912">
        <ele>421.3</ele>
        <time>2025-06-16T14:56:58Z</time>
      </trkpt>
      <trkpt lat="45.95623" lon="1.29114">
        <ele>421.3</ele>
        <time>2025-06-16T14:56:59Z</time>
      </trkpt>
      <trkpt lat="45.9562" lon="1.29109">
        <ele>421.3</ele>
        <time>2025-06-16T14:57:00Z</time>
      </trkpt>
      <trkpt lat="45.95617" lon="1.29104">
        <ele>421.3</ele>
        <time>2025-06-16T14:57:01Z</time>
      </trkpt>
      <trkpt lat="45.95615" lon="1.29097">
        <ele>421.3</ele>
        <time>2025-06-16T14:57:02Z</time>
      </trkpt>
      <trkpt lat="45.95613" lon="1.29091">
        <ele>421.4</ele>
        <time>2025-06-16T14:57:03Z</time>
      </trkpt>
      <trkpt lat="45.95611" lon="1.29086">
        <ele>421.5</ele>
        <time>2025-06-16T14:57:04Z</time>
      </trkpt>
      <trkpt lat="45.9561" lon="1.29082">
        <ele>421.5</ele>
        <time>2025-06-16T14:57:05Z</time>
      </trkpt>
      <trkpt lat="45.95608" lon="1.29076">
        <ele>421.6</ele>
        <time>2025-06-16T14:57:06Z</time>
      </trkpt>
      <trkpt lat="45.95606" lon="1.29071">
        <ele>421.6</ele>
        <time>2025-06-16T14:57:07Z</time>
      </trkpt>
      <trkpt lat="45.95605" lon="1.29065">
        <ele>421.7</ele>
        <time>2025-06-16T14:57:08Z</time>
      </trkpt>
      <trkpt lat="45.95603" lon="1.29059">
        <ele>421.7</ele>
        <time>2025-06-16T14:57:09Z</time>
      </trkpt>
      <trkpt lat="45.95602" lon="1.29052">
        <ele>421.7</ele>
        <time>2025-06-16T14:57:10Z</time>
      </trkpt>
      <trkpt lat="45.95601" lon="1.29046">
        <ele>421.6</ele>
        <time>2025-06-16T14:57:11Z</time>
      </trkpt>
      <trkpt lat="45.95601" lon="1.2904">
        <ele>421.5</ele>
        <time>2025-06-16T14:57:12Z</time>
      </trkpt>
      <trkpt lat="45.956" lon="1.29032">
        <ele>421.4</ele>
        <time>2025-06-16T14:57:13Z</time>
      </trkpt>
      <trkpt lat="45.95598" lon="1.29024">
        <ele>421.4</ele>
        <time>2025-06-16T14:57:14Z</time>
      </trkpt>
      <trkpt lat="45.95596" lon="1.29018">
        <ele>421.3</ele>
        <time>2025-06-16T14:57:15Z</time>
      </trkpt>
      <trkpt lat="45.95593" lon="1.29013">
        <ele>421.3</ele>
        <time>2025-06-16T14:57:16Z</time>
      </trkpt>
      <trkpt lat="45.95589" lon="1.29009">
        <ele>421.3</ele>
        <time>2025-06-16T14:57:17Z</time>
      </trkpt>
      <trkpt lat="45.95585" lon="1.29007">
        <ele>421.4</ele>
        <time>2025-06-16T14:57:18Z</time>
      </trkpt>
      <trkpt lat="45.95581" lon="1.29005">
        <ele>421.4</ele>
        <time>2025-06-16T14:57:19Z</time>
      </trkpt>
      <trkpt lat="45.95578" lon="1.29004">
        <ele>421.5</ele>
        <time>2025-06-16T14:57:20Z</time>
      </trkpt>
      <trkpt lat="45.95574" lon="1.29004">
        <ele>421.5</ele>
        <time>2025-06-16T14:57:21Z</time>
      </trkpt>
      <trkpt lat="45.9557" lon="1.29004">
        <ele>421.6</ele>
        <time>2025-06-16T14:57:22Z</time>
      </trkpt>
      <trkpt lat="45.95566" lon="1.29004">
        <ele>421.7</ele>
        <time>2025-06-16T14:57:23Z</time>
      </trkpt>
      <trkpt lat="45.95562" lon="1.29004">
        <ele>421.9</ele>
        <time>2025-06-16T14:57:24Z</time>
      </trkpt>
      <trkpt lat="45.9556" lon="1.29006">
        <ele>422</ele>
        <time>2025-06-16T14:57:25Z</time>
      </trkpt>
      <trkpt lat="45.95557" lon="1.29007">
        <ele>422.1</ele>
        <time>2025-06-16T14:57:26Z</time>
      </trkpt>
      <trkpt lat="45.95554" lon="1.29009">
        <ele>422.3</ele>
        <time>2025-06-16T14:57:27Z</time>
      </trkpt>
      <trkpt lat="45.9555" lon="1.29011">
        <ele>422.5</ele>
        <time>2025-06-16T14:57:28Z</time>
      </trkpt>
      <trkpt lat="45.95546" lon="1.29014">
        <ele>422.8</ele>
        <time>2025-06-16T14:57:29Z</time>
      </trkpt>
      <trkpt lat="45.95543" lon="1.29016">
        <ele>423.1</ele>
        <time>2025-06-16T14:57:30Z</time>
      </trkpt>
      <trkpt lat="45.9554" lon="1.29017">
        <ele>423.3</ele>
        <time>2025-06-16T14:57:31Z</time>
      </trkpt>
      <trkpt lat="45.95536" lon="1.29019">
        <ele>423.6</ele>
        <time>2025-06-16T14:57:32Z</time>
      </trkpt>
      <trkpt lat="45.95535" lon="1.29019">
        <ele>423.7</ele>
        <time>2025-06-16T14:57:33Z</time>
      </trkpt>
      <trkpt lat="45.95531" lon="1.29019">
        <ele>423.9</ele>
        <time>2025-06-16T14:57:34Z</time>
      </trkpt>
      <trkpt lat="45.9553" lon="1.29019">
        <ele>424</ele>
        <time>2025-06-16T14:57:35Z</time>
      </trkpt>
      <trkpt lat="45.95527" lon="1.29019">
        <ele>424.2</ele>
        <time>2025-06-16T14:57:36Z</time>
      </trkpt>
      <trkpt lat="45.95523" lon="1.29018">
        <ele>424.4</ele>
        <time>2025-06-16T14:57:37Z</time>
      </trkpt>
      <trkpt lat="45.95521" lon="1.29018">
        <ele>424.5</ele>
        <time>2025-06-16T14:57:38Z</time>
      </trkpt>
      <trkpt lat="45.95518" lon="1.29017">
        <ele>424.6</ele>
        <time>2025-06-16T14:57:39Z</time>
      </trkpt>
      <trkpt lat="45.95515" lon="1.29016">
        <ele>424.7</ele>
        <time>2025-06-16T14:57:40Z</time>
      </trkpt>
      <trkpt lat="45.95514" lon="1.29015">
        <ele>424.8</ele>
        <time>2025-06-16T14:57:41Z</time>
      </trkpt>
      <trkpt lat="45.9551" lon="1.29014">
        <ele>424.8</ele>
        <time>2025-06-16T14:57:42Z</time>
      </trkpt>
      <trkpt lat="45.95509" lon="1.29014">
        <ele>424.9</ele>
        <time>2025-06-16T14:57:43Z</time>
      </trkpt>
      <trkpt lat="45.95507" lon="1.29013">
        <ele>424.9</ele>
        <time>2025-06-16T14:57:44Z</time>
      </trkpt>
      <trkpt lat="45.95503" lon="1.29013">
        <ele>424.9</ele>
        <time>2025-06-16T14:57:45Z</time>
      </trkpt>
      <trkpt lat="45.95499" lon="1.29012">
        <ele>424.9</ele>
        <time>2025-06-16T14:57:46Z</time>
      </trkpt>
      <trkpt lat="45.95495" lon="1.29011">
        <ele>424.9</ele>
        <time>2025-06-16T14:57:47Z</time>
      </trkpt>
      <trkpt lat="45.9549" lon="1.29008">
        <ele>424.8</ele>
        <time>2025-06-16T14:57:48Z</time>
      </trkpt>
      <trkpt lat="45.95486" lon="1.29004">
        <ele>424.7</ele>
        <time>2025-06-16T14:57:49Z</time>
      </trkpt>
      <trkpt lat="45.95483" lon="1.29001">
        <ele>424.6</ele>
        <time>2025-06-16T14:57:50Z</time>
      </trkpt>
      <trkpt lat="45.95481" lon="1.28998">
        <ele>424.5</ele>
        <time>2025-06-16T14:57:51Z</time>
      </trkpt>
      <trkpt lat="45.95478" lon="1.28993">
        <ele>424.4</ele>
        <time>2025-06-16T14:57:52Z</time>
      </trkpt>
      <trkpt lat="45.95475" lon="1.28988">
        <ele>424.2</ele>
        <time>2025-06-16T14:57:53Z</time>
      </trkpt>
      <trkpt lat="45.95471" lon="1.28982">
        <ele>423.9</ele>
        <time>2025-06-16T14:57:54Z</time>
      </trkpt>
      <trkpt lat="45.95468" lon="1.28976">
        <ele>423.7</ele>
        <time>2025-06-16T14:57:55Z</time>
      </trkpt>
      <trkpt lat="45.95464" lon="1.28968">
        <ele>423.2</ele>
        <time>2025-06-16T14:57:56Z</time>
      </trkpt>
      <trkpt lat="45.95457" lon="1.28951">
        <ele>422.5</ele>
        <time>2025-06-16T14:57:57Z</time>
      </trkpt>
      <trkpt lat="45.95453" lon="1.28942">
        <ele>422.4</ele>
        <time>2025-06-16T14:57:59Z</time>
      </trkpt>
      <trkpt lat="45.95449" lon="1.28934">
        <ele>422.4</ele>
        <time>2025-06-16T14:58:00Z</time>
      </trkpt>
      <trkpt lat="45.95447" lon="1.28928">
        <ele>422.5</ele>
        <time>2025-06-16T14:58:01Z</time>
      </trkpt>
      <trkpt lat="45.95444" lon="1.28923">
        <ele>422.7</ele>
        <time>2025-06-16T14:58:02Z</time>
      </trkpt>
      <trkpt lat="45.95442" lon="1.28917">
        <ele>423</ele>
        <time>2025-06-16T14:58:03Z</time>
      </trkpt>
      <trkpt lat="45.95438" lon="1.28912">
        <ele>423.2</ele>
        <time>2025-06-16T14:58:04Z</time>
      </trkpt>
      <trkpt lat="45.95436" lon="1.28908">
        <ele>423.4</ele>
        <time>2025-06-16T14:58:05Z</time>
      </trkpt>
      <trkpt lat="45.95435" lon="1.28907">
        <ele>423.5</ele>
        <time>2025-06-16T14:58:06Z</time>
      </trkpt>
      <trkpt lat="45.95434" lon="1.28906">
        <ele>423.5</ele>
        <time>2025-06-16T14:58:07Z</time>
      </trkpt>
      <trkpt lat="45.95432" lon="1.28903">
        <ele>423.7</ele>
        <time>2025-06-16T14:58:08Z</time>
      </trkpt>
      <trkpt lat="45.95429" lon="1.289">
        <ele>423.8</ele>
        <time>2025-06-16T14:58:09Z</time>
      </trkpt>
      <trkpt lat="45.95426" lon="1.28896">
        <ele>423.9</ele>
        <time>2025-06-16T14:58:10Z</time>
      </trkpt>
      <trkpt lat="45.95422" lon="1.28892">
        <ele>423.9</ele>
        <time>2025-06-16T14:58:11Z</time>
      </trkpt>
      <trkpt lat="45.95418" lon="1.28888">
        <ele>423.8</ele>
        <time>2025-06-16T14:58:12Z</time>
      </trkpt>
      <trkpt lat="45.95415" lon="1.28884">
        <ele>423.7</ele>
        <time>2025-06-16T14:58:13Z</time>
      </trkpt>
      <trkpt lat="45.95412" lon="1.2888">
        <ele>423.6</ele>
        <time>2025-06-16T14:58:14Z</time>
      </trkpt>
      <trkpt lat="45.95409" lon="1.28877">
        <ele>423.5</ele>
        <time>2025-06-16T14:58:15Z</time>
      </trkpt>
      <trkpt lat="45.95405" lon="1.28872">
        <ele>423.3</ele>
        <time>2025-06-16T14:58:16Z</time>
      </trkpt>
      <trkpt lat="45.95399" lon="1.28866">
        <ele>423</ele>
        <time>2025-06-16T14:58:17Z</time>
      </trkpt>
      <trkpt lat="45.95393" lon="1.28861">
        <ele>422.7</ele>
        <time>2025-06-16T14:58:18Z</time>
      </trkpt>
      <trkpt lat="45.95387" lon="1.28856">
        <ele>422.4</ele>
        <time>2025-06-16T14:58:19Z</time>
      </trkpt>
      <trkpt lat="45.95382" lon="1.28851">
        <ele>422</ele>
        <time>2025-06-16T14:58:20Z</time>
      </trkpt>
      <trkpt lat="45.95379" lon="1.28847">
        <ele>421.7</ele>
        <time>2025-06-16T14:58:21Z</time>
      </trkpt>
      <trkpt lat="45.95374" lon="1.28844">
        <ele>421.4</ele>
        <time>2025-06-16T14:58:22Z</time>
      </trkpt>
      <trkpt lat="45.95367" lon="1.28843">
        <ele>420.9</ele>
        <time>2025-06-16T14:58:23Z</time>
      </trkpt>
      <trkpt lat="45.95361" lon="1.28844">
        <ele>420.4</ele>
        <time>2025-06-16T14:58:24Z</time>
      </trkpt>
      <trkpt lat="45.95356" lon="1.28845">
        <ele>420</ele>
        <time>2025-06-16T14:58:25Z</time>
      </trkpt>
      <trkpt lat="45.95351" lon="1.28848">
        <ele>419.4</ele>
        <time>2025-06-16T14:58:26Z</time>
      </trkpt>
      <trkpt lat="45.95343" lon="1.28852">
        <ele>418.4</ele>
        <time>2025-06-16T14:58:27Z</time>
      </trkpt>
      <trkpt lat="45.95335" lon="1.28854">
        <ele>417.5</ele>
        <time>2025-06-16T14:58:28Z</time>
      </trkpt>
      <trkpt lat="45.95327" lon="1.28858">
        <ele>416.7</ele>
        <time>2025-06-16T14:58:29Z</time>
      </trkpt>
      <trkpt lat="45.95321" lon="1.28862">
        <ele>416.1</ele>
        <time>2025-06-16T14:58:30Z</time>
      </trkpt>
      <trkpt lat="45.95317" lon="1.28867">
        <ele>415.6</ele>
        <time>2025-06-16T14:58:31Z</time>
      </trkpt>
      <trkpt lat="45.95312" lon="1.28874">
        <ele>415</ele>
        <time>2025-06-16T14:58:32Z</time>
      </trkpt>
      <trkpt lat="45.95306" lon="1.28881">
        <ele>414.4</ele>
        <time>2025-06-16T14:58:33Z</time>
      </trkpt>
      <trkpt lat="45.95299" lon="1.28888">
        <ele>413.8</ele>
        <time>2025-06-16T14:58:34Z</time>
      </trkpt>
      <trkpt lat="45.95291" lon="1.28891">
        <ele>413.3</ele>
        <time>2025-06-16T14:58:35Z</time>
      </trkpt>
      <trkpt lat="45.95284" lon="1.28892">
        <ele>413</ele>
        <time>2025-06-16T14:58:36Z</time>
      </trkpt>
      <trkpt lat="45.95279" lon="1.2889">
        <ele>412.9</ele>
        <time>2025-06-16T14:58:37Z</time>
      </trkpt>
      <trkpt lat="45.95272" lon="1.28888">
        <ele>412.8</ele>
        <time>2025-06-16T14:58:38Z</time>
      </trkpt>
      <trkpt lat="45.95266" lon="1.2889">
        <ele>412.7</ele>
        <time>2025-06-16T14:58:40Z</time>
      </trkpt>
      <trkpt lat="45.95262" lon="1.28889">
        <ele>412.7</ele>
        <time>2025-06-16T14:58:42Z</time>
      </trkpt>
      <trkpt lat="45.95258" lon="1.28888">
        <ele>412.7</ele>
        <time>2025-06-16T14:58:43Z</time>
      </trkpt>
      <trkpt lat="45.95255" lon="1.28887">
        <ele>412.7</ele>
        <time>2025-06-16T14:58:44Z</time>
      </trkpt>
      <trkpt lat="45.95252" lon="1.28887">
        <ele>412.6</ele>
        <time>2025-06-16T14:58:45Z</time>
      </trkpt>
      <trkpt lat="45.95248" lon="1.28886">
        <ele>412.6</ele>
        <time>2025-06-16T14:58:46Z</time>
      </trkpt>
      <trkpt lat="45.95245" lon="1.28885">
        <ele>412.7</ele>
        <time>2025-06-16T14:58:47Z</time>
      </trkpt>
      <trkpt lat="45.95241" lon="1.28884">
        <ele>412.7</ele>
        <time>2025-06-16T14:58:48Z</time>
      </trkpt>
      <trkpt lat="45.95238" lon="1.28884">
        <ele>412.7</ele>
        <time>2025-06-16T14:58:49Z</time>
      </trkpt>
      <trkpt lat="45.95235" lon="1.28884">
        <ele>412.8</ele>
        <time>2025-06-16T14:58:50Z</time>
      </trkpt>
      <trkpt lat="45.95231" lon="1.28884">
        <ele>412.9</ele>
        <time>2025-06-16T14:58:51Z</time>
      </trkpt>
      <trkpt lat="45.95228" lon="1.28883">
        <ele>413</ele>
        <time>2025-06-16T14:58:52Z</time>
      </trkpt>
      <trkpt lat="45.95225" lon="1.28883">
        <ele>413.2</ele>
        <time>2025-06-16T14:58:53Z</time>
      </trkpt>
      <trkpt lat="45.95221" lon="1.28882">
        <ele>413.4</ele>
        <time>2025-06-16T14:58:54Z</time>
      </trkpt>
      <trkpt lat="45.9522" lon="1.28881">
        <ele>413.4</ele>
        <time>2025-06-16T14:58:55Z</time>
      </trkpt>
      <trkpt lat="45.95218" lon="1.2888">
        <ele>413.5</ele>
        <time>2025-06-16T14:58:56Z</time>
      </trkpt>
      <trkpt lat="45.95217" lon="1.2888">
        <ele>413.6</ele>
        <time>2025-06-16T14:58:57Z</time>
      </trkpt>
      <trkpt lat="45.95216" lon="1.28879">
        <ele>413.7</ele>
        <time>2025-06-16T14:58:58Z</time>
      </trkpt>
      <trkpt lat="45.95216" lon="1.28879">
        <ele>413.7</ele>
        <time>2025-06-16T14:59:00Z</time>
      </trkpt>
      <trkpt lat="45.95217" lon="1.28879">
        <ele>413.7</ele>
        <time>2025-06-16T14:59:02Z</time>
      </trkpt>
      <trkpt lat="45.95217" lon="1.28879">
        <ele>413.8</ele>
        <time>2025-06-16T14:59:03Z</time>
      </trkpt>
      <trkpt lat="45.95217" lon="1.28879">
        <ele>413.8</ele>
        <time>2025-06-16T14:59:04Z</time>
      </trkpt>
      <trkpt lat="45.95217" lon="1.28879">
        <ele>413.8</ele>
        <time>2025-06-16T14:59:05Z</time>
      </trkpt>
      <trkpt lat="45.95216" lon="1.28878">
        <ele>413.8</ele>
        <time>2025-06-16T14:59:06Z</time>
      </trkpt>
      <trkpt lat="45.95216" lon="1.28878">
        <ele>413.8</ele>
        <time>2025-06-16T14:59:07Z</time>
      </trkpt>
      <trkpt lat="45.95215" lon="1.28877">
        <ele>413.8</ele>
        <time>2025-06-16T14:59:08Z</time>
      </trkpt>
      <trkpt lat="45.95214" lon="1.28877">
        <ele>413.8</ele>
        <time>2025-06-16T14:59:09Z</time>
      </trkpt>
      <trkpt lat="45.95214" lon="1.28876">
        <ele>413.9</ele>
        <time>2025-06-16T14:59:10Z</time>
      </trkpt>
      <trkpt lat="45.95214" lon="1.28876">
        <ele>413.9</ele>
        <time>2025-06-16T14:59:11Z</time>
      </trkpt>
      <trkpt lat="45.95213" lon="1.28875">
        <ele>413.9</ele>
        <time>2025-06-16T14:59:12Z</time>
      </trkpt>
      <trkpt lat="45.95213" lon="1.28875">
        <ele>413.9</ele>
        <time>2025-06-16T14:59:13Z</time>
      </trkpt>
      <trkpt lat="45.95214" lon="1.28871">
        <ele>414</ele>
        <time>2025-06-16T14:59:14Z</time>
      </trkpt>
      <trkpt lat="45.95214" lon="1.28869">
        <ele>414</ele>
        <time>2025-06-16T14:59:16Z</time>
      </trkpt>
      <trkpt lat="45.95214" lon="1.28866">
        <ele>414.1</ele>
        <time>2025-06-16T14:59:17Z</time>
      </trkpt>
      <trkpt lat="45.95214" lon="1.28864">
        <ele>414.1</ele>
        <time>2025-06-16T14:59:18Z</time>
      </trkpt>
      <trkpt lat="45.95213" lon="1.28857">
        <ele>414.2</ele>
        <time>2025-06-16T14:59:19Z</time>
      </trkpt>
      <trkpt lat="45.95212" lon="1.28853">
        <ele>414.2</ele>
        <time>2025-06-16T14:59:20Z</time>
      </trkpt>
      <trkpt lat="45.95211" lon="1.28847">
        <ele>414.2</ele>
        <time>2025-06-16T14:59:22Z</time>
      </trkpt>
      <trkpt lat="45.95209" lon="1.28841">
        <ele>414</ele>
        <time>2025-06-16T14:59:23Z</time>
      </trkpt>
      <trkpt lat="45.95208" lon="1.28834">
        <ele>413.9</ele>
        <time>2025-06-16T14:59:24Z</time>
      </trkpt>
      <trkpt lat="45.95207" lon="1.28827">
        <ele>413.7</ele>
        <time>2025-06-16T14:59:25Z</time>
      </trkpt>
      <trkpt lat="45.95207" lon="1.28821">
        <ele>413.5</ele>
        <time>2025-06-16T14:59:26Z</time>
      </trkpt>
      <trkpt lat="45.95206" lon="1.28814">
        <ele>413.3</ele>
        <time>2025-06-16T14:59:27Z</time>
      </trkpt>
      <trkpt lat="45.95206" lon="1.28805">
        <ele>413.1</ele>
        <time>2025-06-16T14:59:28Z</time>
      </trkpt>
      <trkpt lat="45.95207" lon="1.28796">
        <ele>413</ele>
        <time>2025-06-16T14:59:29Z</time>
      </trkpt>
      <trkpt lat="45.95209" lon="1.28792">
        <ele>413.1</ele>
        <time>2025-06-16T14:59:30Z</time>
      </trkpt>
      <trkpt lat="45.95211" lon="1.28787">
        <ele>413.2</ele>
        <time>2025-06-16T14:59:31Z</time>
      </trkpt>
      <trkpt lat="45.95213" lon="1.28783">
        <ele>413.4</ele>
        <time>2025-06-16T14:59:32Z</time>
      </trkpt>
      <trkpt lat="45.95216" lon="1.2878">
        <ele>413.7</ele>
        <time>2025-06-16T14:59:33Z</time>
      </trkpt>
      <trkpt lat="45.95218" lon="1.28779">
        <ele>413.9</ele>
        <time>2025-06-16T14:59:34Z</time>
      </trkpt>
      <trkpt lat="45.95221" lon="1.28777">
        <ele>414.2</ele>
        <time>2025-06-16T14:59:35Z</time>
      </trkpt>
      <trkpt lat="45.95223" lon="1.28774">
        <ele>414.6</ele>
        <time>2025-06-16T14:59:36Z</time>
      </trkpt>
      <trkpt lat="45.95226" lon="1.2877">
        <ele>415</ele>
        <time>2025-06-16T14:59:37Z</time>
      </trkpt>
      <trkpt lat="45.95227" lon="1.28769">
        <ele>415.2</ele>
        <time>2025-06-16T14:59:38Z</time>
      </trkpt>
      <trkpt lat="45.9523" lon="1.28767">
        <ele>415.7</ele>
        <time>2025-06-16T14:59:39Z</time>
      </trkpt>
      <trkpt lat="45.95232" lon="1.28766">
        <ele>415.9</ele>
        <time>2025-06-16T14:59:40Z</time>
      </trkpt>
      <trkpt lat="45.95234" lon="1.28762">
        <ele>416.3</ele>
        <time>2025-06-16T14:59:41Z</time>
      </trkpt>
      <trkpt lat="45.95236" lon="1.28758">
        <ele>416.7</ele>
        <time>2025-06-16T14:59:42Z</time>
      </trkpt>
      <trkpt lat="45.95237" lon="1.28753">
        <ele>417.1</ele>
        <time>2025-06-16T14:59:43Z</time>
      </trkpt>
      <trkpt lat="45.95239" lon="1.28748">
        <ele>417.4</ele>
        <time>2025-06-16T14:59:44Z</time>
      </trkpt>
      <trkpt lat="45.95241" lon="1.28743">
        <ele>417.7</ele>
        <time>2025-06-16T14:59:45Z</time>
      </trkpt>
      <trkpt lat="45.95241" lon="1.28739">
        <ele>417.8</ele>
        <time>2025-06-16T14:59:46Z</time>
      </trkpt>
      <trkpt lat="45.95242" lon="1.28735">
        <ele>418</ele>
        <time>2025-06-16T14:59:47Z</time>
      </trkpt>
      <trkpt lat="45.95242" lon="1.28729">
        <ele>418.1</ele>
        <time>2025-06-16T14:59:48Z</time>
      </trkpt>
      <trkpt lat="45.95243" lon="1.28724">
        <ele>418.2</ele>
        <time>2025-06-16T14:59:49Z</time>
      </trkpt>
      <trkpt lat="45.95244" lon="1.28718">
        <ele>418.2</ele>
        <time>2025-06-16T14:59:50Z</time>
      </trkpt>
      <trkpt lat="45.95245" lon="1.28712">
        <ele>418.3</ele>
        <time>2025-06-16T14:59:51Z</time>
      </trkpt>
      <trkpt lat="45.95247" lon="1.28703">
        <ele>418.3</ele>
        <time>2025-06-16T14:59:52Z</time>
      </trkpt>
      <trkpt lat="45.95248" lon="1.28699">
        <ele>418.3</ele>
        <time>2025-06-16T14:59:53Z</time>
      </trkpt>
      <trkpt lat="45.95249" lon="1.28696">
        <ele>418.3</ele>
        <time>2025-06-16T14:59:54Z</time>
      </trkpt>
      <trkpt lat="45.9525" lon="1.28694">
        <ele>418.3</ele>
        <time>2025-06-16T14:59:56Z</time>
      </trkpt>
      <trkpt lat="45.95251" lon="1.2869">
        <ele>418.3</ele>
        <time>2025-06-16T14:59:57Z</time>
      </trkpt>
      <trkpt lat="45.95251" lon="1.28689">
        <ele>418.4</ele>
        <time>2025-06-16T14:59:58Z</time>
      </trkpt>
      <trkpt lat="45.95253" lon="1.28681">
        <ele>418.5</ele>
        <time>2025-06-16T14:59:59Z</time>
      </trkpt>
      <trkpt lat="45.95255" lon="1.28677">
        <ele>418.6</ele>
        <time>2025-06-16T15:00:01Z</time>
      </trkpt>
      <trkpt lat="45.95257" lon="1.28675">
        <ele>418.7</ele>
        <time>2025-06-16T15:00:02Z</time>
      </trkpt>
      <trkpt lat="45.95259" lon="1.28673">
        <ele>418.9</ele>
        <time>2025-06-16T15:00:04Z</time>
      </trkpt>
      <trkpt lat="45.95261" lon="1.28672">
        <ele>418.9</ele>
        <time>2025-06-16T15:00:05Z</time>
      </trkpt>
      <trkpt lat="45.95262" lon="1.28671">
        <ele>419</ele>
        <time>2025-06-16T15:00:06Z</time>
      </trkpt>
      <trkpt lat="45.95264" lon="1.28669">
        <ele>419.3</ele>
        <time>2025-06-16T15:00:07Z</time>
      </trkpt>
      <trkpt lat="45.95265" lon="1.28668">
        <ele>419.4</ele>
        <time>2025-06-16T15:00:08Z</time>
      </trkpt>
      <trkpt lat="45.95268" lon="1.28665">
        <ele>419.6</ele>
        <time>2025-06-16T15:00:09Z</time>
      </trkpt>
      <trkpt lat="45.9527" lon="1.28663">
        <ele>419.8</ele>
        <time>2025-06-16T15:00:10Z</time>
      </trkpt>
      <trkpt lat="45.95272" lon="1.2866">
        <ele>420.1</ele>
        <time>2025-06-16T15:00:11Z</time>
      </trkpt>
      <trkpt lat="45.95273" lon="1.28659">
        <ele>420.2</ele>
        <time>2025-06-16T15:00:12Z</time>
      </trkpt>
      <trkpt lat="45.95274" lon="1.28658">
        <ele>420.3</ele>
        <time>2025-06-16T15:00:13Z</time>
      </trkpt>
      <trkpt lat="45.95275" lon="1.28656">
        <ele>420.5</ele>
        <time>2025-06-16T15:00:14Z</time>
      </trkpt>
      <trkpt lat="45.95278" lon="1.28653">
        <ele>420.8</ele>
        <time>2025-06-16T15:00:15Z</time>
      </trkpt>
      <trkpt lat="45.95279" lon="1.28652">
        <ele>420.9</ele>
        <time>2025-06-16T15:00:16Z</time>
      </trkpt>
      <trkpt lat="45.9528" lon="1.2865">
        <ele>421.1</ele>
        <time>2025-06-16T15:00:17Z</time>
      </trkpt>
      <trkpt lat="45.95281" lon="1.2865">
        <ele>421.1</ele>
        <time>2025-06-16T15:00:18Z</time>
      </trkpt>
      <trkpt lat="45.95281" lon="1.28649">
        <ele>421.2</ele>
        <time>2025-06-16T15:00:19Z</time>
      </trkpt>
      <trkpt lat="45.95282" lon="1.28649">
        <ele>421.2</ele>
        <time>2025-06-16T15:00:20Z</time>
      </trkpt>
      <trkpt lat="45.95281" lon="1.28648">
        <ele>421.3</ele>
        <time>2025-06-16T15:00:21Z</time>
      </trkpt>
      <trkpt lat="45.95281" lon="1.28648">
        <ele>421.3</ele>
        <time>2025-06-16T15:00:22Z</time>
      </trkpt>
      <trkpt lat="45.95281" lon="1.28648">
        <ele>421.3</ele>
        <time>2025-06-16T15:00:23Z</time>
      </trkpt>
      <trkpt lat="45.9528" lon="1.28647">
        <ele>421.4</ele>
        <time>2025-06-16T15:00:24Z</time>
      </trkpt>
      <trkpt lat="45.95281" lon="1.28646">
        <ele>421.4</ele>
        <time>2025-06-16T15:00:25Z</time>
      </trkpt>
      <trkpt lat="45.95281" lon="1.28645">
        <ele>421.5</ele>
        <time>2025-06-16T15:00:26Z</time>
      </trkpt>
      <trkpt lat="45.95281" lon="1.28645">
        <ele>421.5</ele>
        <time>2025-06-16T15:00:28Z</time>
      </trkpt>
      <trkpt lat="45.95281" lon="1.28644">
        <ele>421.6</ele>
        <time>2025-06-16T15:00:29Z</time>
      </trkpt>
      <trkpt lat="45.95282" lon="1.28642">
        <ele>421.6</ele>
        <time>2025-06-16T15:00:30Z</time>
      </trkpt>
      <trkpt lat="45.95283" lon="1.2864">
        <ele>421.7</ele>
        <time>2025-06-16T15:00:31Z</time>
      </trkpt>
      <trkpt lat="45.95283" lon="1.28635">
        <ele>421.9</ele>
        <time>2025-06-16T15:00:32Z</time>
      </trkpt>
      <trkpt lat="45.95284" lon="1.28634">
        <ele>422</ele>
        <time>2025-06-16T15:00:33Z</time>
      </trkpt>
      <trkpt lat="45.95283" lon="1.28628">
        <ele>422.2</ele>
        <time>2025-06-16T15:00:34Z</time>
      </trkpt>
      <trkpt lat="45.95282" lon="1.28625">
        <ele>422.2</ele>
        <time>2025-06-16T15:00:35Z</time>
      </trkpt>
      <trkpt lat="45.9528" lon="1.2862">
        <ele>422.2</ele>
        <time>2025-06-16T15:00:36Z</time>
      </trkpt>
      <trkpt lat="45.95279" lon="1.28616">
        <ele>422.3</ele>
        <time>2025-06-16T15:00:37Z</time>
      </trkpt>
      <trkpt lat="45.95279" lon="1.28615">
        <ele>422.2</ele>
        <time>2025-06-16T15:00:38Z</time>
      </trkpt>
      <trkpt lat="45.95278" lon="1.28613">
        <ele>422.2</ele>
        <time>2025-06-16T15:00:39Z</time>
      </trkpt>
      <trkpt lat="45.95277" lon="1.28612">
        <ele>422.2</ele>
        <time>2025-06-16T15:00:40Z</time>
      </trkpt>
      <trkpt lat="45.95277" lon="1.28611">
        <ele>422.2</ele>
        <time>2025-06-16T15:00:41Z</time>
      </trkpt>
      <trkpt lat="45.95278" lon="1.28609">
        <ele>422.2</ele>
        <time>2025-06-16T15:00:42Z</time>
      </trkpt>
      <trkpt lat="45.95278" lon="1.28608">
        <ele>422.2</ele>
        <time>2025-06-16T15:00:43Z</time>
      </trkpt>
      <trkpt lat="45.95278" lon="1.28607">
        <ele>422.2</ele>
        <time>2025-06-16T15:00:44Z</time>
      </trkpt>
      <trkpt lat="45.95279" lon="1.28608">
        <ele>422.2</ele>
        <time>2025-06-16T15:00:46Z</time>
      </trkpt>
      <trkpt lat="45.95279" lon="1.28608">
        <ele>422.2</ele>
        <time>2025-06-16T15:00:47Z</time>
      </trkpt>
      <trkpt lat="45.95279" lon="1.28607">
        <ele>422.2</ele>
        <time>2025-06-16T15:00:48Z</time>
      </trkpt>
      <trkpt lat="45.95279" lon="1.28607">
        <ele>422.2</ele>
        <time>2025-06-16T15:00:50Z</time>
      </trkpt>
      <trkpt lat="45.95279" lon="1.28607">
        <ele>422.2</ele>
        <time>2025-06-16T15:00:51Z</time>
      </trkpt>
      <trkpt lat="45.9528" lon="1.28606">
        <ele>422.1</ele>
        <time>2025-06-16T15:00:52Z</time>
      </trkpt>
      <trkpt lat="45.9528" lon="1.28606">
        <ele>422.1</ele>
        <time>2025-06-16T15:00:54Z</time>
      </trkpt>
      <trkpt lat="45.95281" lon="1.28606">
        <ele>422.1</ele>
        <time>2025-06-16T15:00:56Z</time>
      </trkpt>
      <trkpt lat="45.95281" lon="1.28606">
        <ele>422.1</ele>
        <time>2025-06-16T15:00:58Z</time>
      </trkpt>
      <trkpt lat="45.95281" lon="1.28606">
        <ele>422.1</ele>
        <time>2025-06-16T15:00:59Z</time>
      </trkpt>
      <trkpt lat="45.9528" lon="1.28606">
        <ele>422.1</ele>
        <time>2025-06-16T15:01:00Z</time>
      </trkpt>
      <trkpt lat="45.9528" lon="1.28606">
        <ele>422.1</ele>
        <time>2025-06-16T15:01:01Z</time>
      </trkpt>
      <trkpt lat="45.9528" lon="1.28606">
        <ele>422.1</ele>
        <time>2025-06-16T15:01:02Z</time>
      </trkpt>
      <trkpt lat="45.9528" lon="1.28606">
        <ele>422.1</ele>
        <time>2025-06-16T15:01:03Z</time>
      </trkpt>
      <trkpt lat="45.9528" lon="1.28606">
        <ele>422.1</ele>
        <time>2025-06-16T15:01:04Z</time>
      </trkpt>
      <trkpt lat="45.9528" lon="1.28606">
        <ele>422.1</ele>
        <time>2025-06-16T15:01:05Z</time>
      </trkpt>
      <trkpt lat="45.9528" lon="1.28606">
        <ele>422.1</ele>
        <time>2025-06-16T15:01:06Z</time>
      </trkpt>
      <trkpt lat="45.9528" lon="1.28606">
        <ele>422.1</ele>
        <time>2025-06-16T15:01:07Z</time>
      </trkpt>
      <trkpt lat="45.9528" lon="1.28606">
        <ele>422.1</ele>
        <time>2025-06-16T15:01:08Z</time>
      </trkpt>
      <trkpt lat="45.95277" lon="1.28605">
        <ele>422.1</ele>
        <time>2025-06-16T15:01:09Z</time>
      </trkpt>
      <trkpt lat="45.95274" lon="1.28603">
        <ele>422</ele>
        <time>2025-06-16T15:01:10Z</time>
      </trkpt>
      <trkpt lat="45.95271" lon="1.28601">
        <ele>421.9</ele>
        <time>2025-06-16T15:01:11Z</time>
      </trkpt>
      <trkpt lat="45.9527" lon="1.286">
        <ele>421.9</ele>
        <time>2025-06-16T15:01:12Z</time>
      </trkpt>
      <trkpt lat="45.95267" lon="1.28598">
        <ele>421.9</ele>
        <time>2025-06-16T15:01:13Z</time>
      </trkpt>
      <trkpt lat="45.95263" lon="1.28594">
        <ele>421.8</ele>
        <time>2025-06-16T15:01:14Z</time>
      </trkpt>
      <trkpt lat="45.9526" lon="1.2859">
        <ele>421.7</ele>
        <time>2025-06-16T15:01:15Z</time>
      </trkpt>
      <trkpt lat="45.95258" lon="1.28587">
        <ele>421.7</ele>
        <time>2025-06-16T15:01:16Z</time>
      </trkpt>
      <trkpt lat="45.9526" lon="1.28588">
        <ele>421.7</ele>
        <time>2025-06-16T15:01:17Z</time>
      </trkpt>
      <trkpt lat="45.95259" lon="1.28583">
        <ele>421.7</ele>
        <time>2025-06-16T15:01:19Z</time>
      </trkpt>
      <trkpt lat="45.95258" lon="1.28579">
        <ele>421.8</ele>
        <time>2025-06-16T15:01:20Z</time>
      </trkpt>
      <trkpt lat="45.95257" lon="1.28576">
        <ele>421.8</ele>
        <time>2025-06-16T15:01:22Z</time>
      </trkpt>
      <trkpt lat="45.95255" lon="1.2857">
        <ele>422</ele>
        <time>2025-06-16T15:01:23Z</time>
      </trkpt>
      <trkpt lat="45.95253" lon="1.28567">
        <ele>422.1</ele>
        <time>2025-06-16T15:01:24Z</time>
      </trkpt>
      <trkpt lat="45.95249" lon="1.28555">
        <ele>422.5</ele>
        <time>2025-06-16T15:01:26Z</time>
      </trkpt>
      <trkpt lat="45.95247" lon="1.28549">
        <ele>422.8</ele>
        <time>2025-06-16T15:01:28Z</time>
      </trkpt>
      <trkpt lat="45.95245" lon="1.28544">
        <ele>423</ele>
        <time>2025-06-16T15:01:29Z</time>
      </trkpt>
      <trkpt lat="45.95243" lon="1.2854">
        <ele>423.2</ele>
        <time>2025-06-16T15:01:30Z</time>
      </trkpt>
      <trkpt lat="45.9524" lon="1.28536">
        <ele>423.4</ele>
        <time>2025-06-16T15:01:31Z</time>
      </trkpt>
      <trkpt lat="45.95239" lon="1.28535">
        <ele>423.5</ele>
        <time>2025-06-16T15:01:32Z</time>
      </trkpt>
      <trkpt lat="45.95234" lon="1.28531">
        <ele>423.7</ele>
        <time>2025-06-16T15:01:34Z</time>
      </trkpt>
      <trkpt lat="45.9523" lon="1.28528">
        <ele>423.9</ele>
        <time>2025-06-16T15:01:36Z</time>
      </trkpt>
      <trkpt lat="45.95227" lon="1.28526">
        <ele>424</ele>
        <time>2025-06-16T15:01:37Z</time>
      </trkpt>
      <trkpt lat="45.95225" lon="1.28524">
        <ele>424.1</ele>
        <time>2025-06-16T15:01:38Z</time>
      </trkpt>
      <trkpt lat="45.95222" lon="1.28521">
        <ele>424.2</ele>
        <time>2025-06-16T15:01:39Z</time>
      </trkpt>
      <trkpt lat="45.95219" lon="1.28519">
        <ele>424.3</ele>
        <time>2025-06-16T15:01:40Z</time>
      </trkpt>
      <trkpt lat="45.95216" lon="1.28517">
        <ele>424.5</ele>
        <time>2025-06-16T15:01:41Z</time>
      </trkpt>
      <trkpt lat="45.95213" lon="1.28515">
        <ele>424.6</ele>
        <time>2025-06-16T15:01:42Z</time>
      </trkpt>
      <trkpt lat="45.9521" lon="1.28511">
        <ele>424.9</ele>
        <time>2025-06-16T15:01:43Z</time>
      </trkpt>
      <trkpt lat="45.95209" lon="1.2851">
        <ele>425</ele>
        <time>2025-06-16T15:01:44Z</time>
      </trkpt>
      <trkpt lat="45.95207" lon="1.28508">
        <ele>425.1</ele>
        <time>2025-06-16T15:01:46Z</time>
      </trkpt>
      <trkpt lat="45.95205" lon="1.28505">
        <ele>425.3</ele>
        <time>2025-06-16T15:01:47Z</time>
      </trkpt>
      <trkpt lat="45.95204" lon="1.28504">
        <ele>425.4</ele>
        <time>2025-06-16T15:01:48Z</time>
      </trkpt>
      <trkpt lat="45.95202" lon="1.28502">
        <ele>425.7</ele>
        <time>2025-06-16T15:01:49Z</time>
      </trkpt>
      <trkpt lat="45.95201" lon="1.28501">
        <ele>425.7</ele>
        <time>2025-06-16T15:01:50Z</time>
      </trkpt>
      <trkpt lat="45.95198" lon="1.28499">
        <ele>426</ele>
        <time>2025-06-16T15:01:51Z</time>
      </trkpt>
      <trkpt lat="45.95197" lon="1.28498">
        <ele>426.1</ele>
        <time>2025-06-16T15:01:52Z</time>
      </trkpt>
      <trkpt lat="45.95194" lon="1.28496">
        <ele>426.5</ele>
        <time>2025-06-16T15:01:53Z</time>
      </trkpt>
      <trkpt lat="45.95188" lon="1.28489">
        <ele>427.1</ele>
        <time>2025-06-16T15:01:55Z</time>
      </trkpt>
      <trkpt lat="45.95184" lon="1.28486">
        <ele>427.3</ele>
        <time>2025-06-16T15:01:56Z</time>
      </trkpt>
      <trkpt lat="45.9518" lon="1.28484">
        <ele>427.5</ele>
        <time>2025-06-16T15:01:58Z</time>
      </trkpt>
      <trkpt lat="45.95177" lon="1.28483">
        <ele>427.6</ele>
        <time>2025-06-16T15:01:59Z</time>
      </trkpt>
      <trkpt lat="45.95174" lon="1.28482">
        <ele>427.7</ele>
        <time>2025-06-16T15:02:00Z</time>
      </trkpt>
      <trkpt lat="45.95171" lon="1.28481">
        <ele>427.7</ele>
        <time>2025-06-16T15:02:01Z</time>
      </trkpt>
      <trkpt lat="45.95166" lon="1.28479">
        <ele>427.7</ele>
        <time>2025-06-16T15:02:02Z</time>
      </trkpt>
      <trkpt lat="45.9516" lon="1.28477">
        <ele>427.6</ele>
        <time>2025-06-16T15:02:04Z</time>
      </trkpt>
      <trkpt lat="45.95152" lon="1.28473">
        <ele>427.4</ele>
        <time>2025-06-16T15:02:05Z</time>
      </trkpt>
      <trkpt lat="45.95146" lon="1.28469">
        <ele>427.3</ele>
        <time>2025-06-16T15:02:06Z</time>
      </trkpt>
      <trkpt lat="45.95143" lon="1.28465">
        <ele>427.2</ele>
        <time>2025-06-16T15:02:07Z</time>
      </trkpt>
      <trkpt lat="45.9514" lon="1.28461">
        <ele>427.2</ele>
        <time>2025-06-16T15:02:08Z</time>
      </trkpt>
      <trkpt lat="45.95134" lon="1.28453">
        <ele>427.2</ele>
        <time>2025-06-16T15:02:09Z</time>
      </trkpt>
      <trkpt lat="45.95132" lon="1.2845">
        <ele>427.3</ele>
        <time>2025-06-16T15:02:10Z</time>
      </trkpt>
      <trkpt lat="45.95128" lon="1.28445">
        <ele>427.5</ele>
        <time>2025-06-16T15:02:12Z</time>
      </trkpt>
      <trkpt lat="45.95127" lon="1.28443">
        <ele>427.6</ele>
        <time>2025-06-16T15:02:13Z</time>
      </trkpt>
      <trkpt lat="45.95125" lon="1.28441">
        <ele>427.7</ele>
        <time>2025-06-16T15:02:14Z</time>
      </trkpt>
      <trkpt lat="45.95124" lon="1.28439">
        <ele>427.8</ele>
        <time>2025-06-16T15:02:16Z</time>
      </trkpt>
      <trkpt lat="45.95121" lon="1.28433">
        <ele>428</ele>
        <time>2025-06-16T15:02:17Z</time>
      </trkpt>
      <trkpt lat="45.95119" lon="1.28431">
        <ele>428.2</ele>
        <time>2025-06-16T15:02:18Z</time>
      </trkpt>
      <trkpt lat="45.95116" lon="1.28428">
        <ele>428.4</ele>
        <time>2025-06-16T15:02:20Z</time>
      </trkpt>
      <trkpt lat="45.95113" lon="1.28426">
        <ele>428.6</ele>
        <time>2025-06-16T15:02:21Z</time>
      </trkpt>
      <trkpt lat="45.95112" lon="1.28425">
        <ele>428.7</ele>
        <time>2025-06-16T15:02:22Z</time>
      </trkpt>
      <trkpt lat="45.95109" lon="1.28423">
        <ele>428.9</ele>
        <time>2025-06-16T15:02:23Z</time>
      </trkpt>
      <trkpt lat="45.95108" lon="1.28423">
        <ele>428.9</ele>
        <time>2025-06-16T15:02:24Z</time>
      </trkpt>
      <trkpt lat="45.95106" lon="1.28424">
        <ele>428.9</ele>
        <time>2025-06-16T15:02:25Z</time>
      </trkpt>
      <trkpt lat="45.95105" lon="1.28425">
        <ele>428.9</ele>
        <time>2025-06-16T15:02:26Z</time>
      </trkpt>
      <trkpt lat="45.95102" lon="1.28426">
        <ele>428.8</ele>
        <time>2025-06-16T15:02:27Z</time>
      </trkpt>
      <trkpt lat="45.95098" lon="1.28426">
        <ele>428.7</ele>
        <time>2025-06-16T15:02:29Z</time>
      </trkpt>
      <trkpt lat="45.95095" lon="1.28425">
        <ele>428.6</ele>
        <time>2025-06-16T15:02:31Z</time>
      </trkpt>
      <trkpt lat="45.9509" lon="1.28423">
        <ele>428.4</ele>
        <time>2025-06-16T15:02:32Z</time>
      </trkpt>
      <trkpt lat="45.95088" lon="1.28422">
        <ele>428.3</ele>
        <time>2025-06-16T15:02:33Z</time>
      </trkpt>
      <trkpt lat="45.95085" lon="1.28422">
        <ele>428.1</ele>
        <time>2025-06-16T15:02:35Z</time>
      </trkpt>
      <trkpt lat="45.95078" lon="1.28421">
        <ele>427.8</ele>
        <time>2025-06-16T15:02:36Z</time>
      </trkpt>
      <trkpt lat="45.95074" lon="1.28422">
        <ele>427.6</ele>
        <time>2025-06-16T15:02:38Z</time>
      </trkpt>
      <trkpt lat="45.95069" lon="1.28423">
        <ele>427.4</ele>
        <time>2025-06-16T15:02:39Z</time>
      </trkpt>
      <trkpt lat="45.95064" lon="1.28424">
        <ele>427.2</ele>
        <time>2025-06-16T15:02:40Z</time>
      </trkpt>
      <trkpt lat="45.9506" lon="1.28424">
        <ele>427.1</ele>
        <time>2025-06-16T15:02:41Z</time>
      </trkpt>
      <trkpt lat="45.95055" lon="1.28423">
        <ele>426.9</ele>
        <time>2025-06-16T15:02:42Z</time>
      </trkpt>
      <trkpt lat="45.95045" lon="1.28425">
        <ele>426.4</ele>
        <time>2025-06-16T15:02:43Z</time>
      </trkpt>
      <trkpt lat="45.95037" lon="1.28428">
        <ele>425.8</ele>
        <time>2025-06-16T15:02:44Z</time>
      </trkpt>
      <trkpt lat="45.9503" lon="1.28429">
        <ele>425.4</ele>
        <time>2025-06-16T15:02:45Z</time>
      </trkpt>
      <trkpt lat="45.95025" lon="1.28429">
        <ele>425.1</ele>
        <time>2025-06-16T15:02:46Z</time>
      </trkpt>
      <trkpt lat="45.95019" lon="1.28428">
        <ele>424.8</ele>
        <time>2025-06-16T15:02:47Z</time>
      </trkpt>
      <trkpt lat="45.95014" lon="1.28427">
        <ele>424.5</ele>
        <time>2025-06-16T15:02:48Z</time>
      </trkpt>
      <trkpt lat="45.95009" lon="1.28425">
        <ele>424.3</ele>
        <time>2025-06-16T15:02:49Z</time>
      </trkpt>
      <trkpt lat="45.95005" lon="1.28423">
        <ele>424.2</ele>
        <time>2025-06-16T15:02:50Z</time>
      </trkpt>
      <trkpt lat="45.95" lon="1.2842">
        <ele>424</ele>
        <time>2025-06-16T15:02:51Z</time>
      </trkpt>
      <trkpt lat="45.94995" lon="1.28418">
        <ele>423.9</ele>
        <time>2025-06-16T15:02:52Z</time>
      </trkpt>
      <trkpt lat="45.94991" lon="1.28416">
        <ele>423.7</ele>
        <time>2025-06-16T15:02:53Z</time>
      </trkpt>
      <trkpt lat="45.94987" lon="1.28413">
        <ele>423.6</ele>
        <time>2025-06-16T15:02:54Z</time>
      </trkpt>
      <trkpt lat="45.94983" lon="1.2841">
        <ele>423.5</ele>
        <time>2025-06-16T15:02:55Z</time>
      </trkpt>
      <trkpt lat="45.9498" lon="1.28407">
        <ele>423.5</ele>
        <time>2025-06-16T15:02:56Z</time>
      </trkpt>
      <trkpt lat="45.94976" lon="1.28403">
        <ele>423.4</ele>
        <time>2025-06-16T15:02:57Z</time>
      </trkpt>
      <trkpt lat="45.94972" lon="1.284">
        <ele>423.3</ele>
        <time>2025-06-16T15:02:58Z</time>
      </trkpt>
      <trkpt lat="45.94969" lon="1.28397">
        <ele>423.2</ele>
        <time>2025-06-16T15:02:59Z</time>
      </trkpt>
      <trkpt lat="45.94967" lon="1.28393">
        <ele>423.2</ele>
        <time>2025-06-16T15:03:00Z</time>
      </trkpt>
      <trkpt lat="45.94966" lon="1.28388">
        <ele>423.2</ele>
        <time>2025-06-16T15:03:01Z</time>
      </trkpt>
      <trkpt lat="45.94966" lon="1.28384">
        <ele>423.1</ele>
        <time>2025-06-16T15:03:02Z</time>
      </trkpt>
      <trkpt lat="45.94967" lon="1.2838">
        <ele>423.1</ele>
        <time>2025-06-16T15:03:03Z</time>
      </trkpt>
      <trkpt lat="45.94969" lon="1.28376">
        <ele>423.1</ele>
        <time>2025-06-16T15:03:04Z</time>
      </trkpt>
      <trkpt lat="45.9497" lon="1.28375">
        <ele>423.1</ele>
        <time>2025-06-16T15:03:05Z</time>
      </trkpt>
      <trkpt lat="45.94972" lon="1.28374">
        <ele>423.1</ele>
        <time>2025-06-16T15:03:06Z</time>
      </trkpt>
      <trkpt lat="45.94973" lon="1.28373">
        <ele>423.1</ele>
        <time>2025-06-16T15:03:07Z</time>
      </trkpt>
      <trkpt lat="45.94974" lon="1.28374">
        <ele>423.1</ele>
        <time>2025-06-16T15:03:08Z</time>
      </trkpt>
      <trkpt lat="45.94975" lon="1.28374">
        <ele>423.1</ele>
        <time>2025-06-16T15:03:09Z</time>
      </trkpt>
      <trkpt lat="45.94978" lon="1.28373">
        <ele>423.2</ele>
        <time>2025-06-16T15:03:10Z</time>
      </trkpt>
      <trkpt lat="45.9498" lon="1.28373">
        <ele>423.2</ele>
        <time>2025-06-16T15:03:12Z</time>
      </trkpt>
      <trkpt lat="45.94982" lon="1.28372">
        <ele>423.2</ele>
        <time>2025-06-16T15:03:13Z</time>
      </trkpt>
      <trkpt lat="45.94983" lon="1.28371">
        <ele>423.2</ele>
        <time>2025-06-16T15:03:14Z</time>
      </trkpt>
      <trkpt lat="45.94986" lon="1.28369">
        <ele>423.2</ele>
        <time>2025-06-16T15:03:15Z</time>
      </trkpt>
      <trkpt lat="45.94988" lon="1.28368">
        <ele>423.2</ele>
        <time>2025-06-16T15:03:16Z</time>
      </trkpt>
      <trkpt lat="45.94994" lon="1.28366">
        <ele>423.2</ele>
        <time>2025-06-16T15:03:17Z</time>
      </trkpt>
      <trkpt lat="45.94997" lon="1.28365">
        <ele>423.3</ele>
        <time>2025-06-16T15:03:18Z</time>
      </trkpt>
      <trkpt lat="45.95" lon="1.28363">
        <ele>423.3</ele>
        <time>2025-06-16T15:03:19Z</time>
      </trkpt>
      <trkpt lat="45.95004" lon="1.28361">
        <ele>423.3</ele>
        <time>2025-06-16T15:03:20Z</time>
      </trkpt>
      <trkpt lat="45.95008" lon="1.28359">
        <ele>423.4</ele>
        <time>2025-06-16T15:03:22Z</time>
      </trkpt>
      <trkpt lat="45.95011" lon="1.28358">
        <ele>423.4</ele>
        <time>2025-06-16T15:03:23Z</time>
      </trkpt>
      <trkpt lat="45.95014" lon="1.28356">
        <ele>423.5</ele>
        <time>2025-06-16T15:03:24Z</time>
      </trkpt>
      <trkpt lat="45.95017" lon="1.28355">
        <ele>423.5</ele>
        <time>2025-06-16T15:03:25Z</time>
      </trkpt>
      <trkpt lat="45.95021" lon="1.28353">
        <ele>423.6</ele>
        <time>2025-06-16T15:03:26Z</time>
      </trkpt>
      <trkpt lat="45.95024" lon="1.28352">
        <ele>423.6</ele>
        <time>2025-06-16T15:03:27Z</time>
      </trkpt>
      <trkpt lat="45.9503" lon="1.28348">
        <ele>423.7</ele>
        <time>2025-06-16T15:03:28Z</time>
      </trkpt>
      <trkpt lat="45.95037" lon="1.28346">
        <ele>423.8</ele>
        <time>2025-06-16T15:03:30Z</time>
      </trkpt>
      <trkpt lat="45.95041" lon="1.28344">
        <ele>423.8</ele>
        <time>2025-06-16T15:03:32Z</time>
      </trkpt>
      <trkpt lat="45.95044" lon="1.28342">
        <ele>423.9</ele>
        <time>2025-06-16T15:03:33Z</time>
      </trkpt>
      <trkpt lat="45.95048" lon="1.28341">
        <ele>423.9</ele>
        <time>2025-06-16T15:03:34Z</time>
      </trkpt>
      <trkpt lat="45.95055" lon="1.28337">
        <ele>424</ele>
        <time>2025-06-16T15:03:35Z</time>
      </trkpt>
      <trkpt lat="45.95058" lon="1.28334">
        <ele>424</ele>
        <time>2025-06-16T15:03:37Z</time>
      </trkpt>
      <trkpt lat="45.95061" lon="1.28331">
        <ele>424.1</ele>
        <time>2025-06-16T15:03:38Z</time>
      </trkpt>
      <trkpt lat="45.95066" lon="1.28322">
        <ele>424.2</ele>
        <time>2025-06-16T15:03:39Z</time>
      </trkpt>
      <trkpt lat="45.95068" lon="1.28318">
        <ele>424.3</ele>
        <time>2025-06-16T15:03:41Z</time>
      </trkpt>
      <trkpt lat="45.95069" lon="1.28314">
        <ele>424.3</ele>
        <time>2025-06-16T15:03:42Z</time>
      </trkpt>
      <trkpt lat="45.95072" lon="1.2831">
        <ele>424.4</ele>
        <time>2025-06-16T15:03:43Z</time>
      </trkpt>
      <trkpt lat="45.95072" lon="1.28308">
        <ele>424.4</ele>
        <time>2025-06-16T15:03:44Z</time>
      </trkpt>
      <trkpt lat="45.95073" lon="1.28304">
        <ele>424.5</ele>
        <time>2025-06-16T15:03:45Z</time>
      </trkpt>
      <trkpt lat="45.95074" lon="1.283">
        <ele>424.6</ele>
        <time>2025-06-16T15:03:46Z</time>
      </trkpt>
      <trkpt lat="45.95074" lon="1.28296">
        <ele>424.6</ele>
        <time>2025-06-16T15:03:47Z</time>
      </trkpt>
      <trkpt lat="45.95074" lon="1.2829">
        <ele>424.7</ele>
        <time>2025-06-16T15:03:48Z</time>
      </trkpt>
      <trkpt lat="45.95074" lon="1.28285">
        <ele>424.7</ele>
        <time>2025-06-16T15:03:49Z</time>
      </trkpt>
      <trkpt lat="45.95074" lon="1.2828">
        <ele>424.8</ele>
        <time>2025-06-16T15:03:50Z</time>
      </trkpt>
      <trkpt lat="45.95073" lon="1.28275">
        <ele>424.8</ele>
        <time>2025-06-16T15:03:51Z</time>
      </trkpt>
      <trkpt lat="45.95073" lon="1.2827">
        <ele>424.8</ele>
        <time>2025-06-16T15:03:52Z</time>
      </trkpt>
      <trkpt lat="45.95073" lon="1.28264">
        <ele>424.8</ele>
        <time>2025-06-16T15:03:53Z</time>
      </trkpt>
      <trkpt lat="45.95074" lon="1.28258">
        <ele>424.7</ele>
        <time>2025-06-16T15:03:54Z</time>
      </trkpt>
      <trkpt lat="45.95074" lon="1.28252">
        <ele>424.6</ele>
        <time>2025-06-16T15:03:55Z</time>
      </trkpt>
      <trkpt lat="45.95073" lon="1.28247">
        <ele>424.5</ele>
        <time>2025-06-16T15:03:56Z</time>
      </trkpt>
      <trkpt lat="45.95072" lon="1.28241">
        <ele>424.4</ele>
        <time>2025-06-16T15:03:57Z</time>
      </trkpt>
      <trkpt lat="45.95073" lon="1.28234">
        <ele>424.3</ele>
        <time>2025-06-16T15:03:58Z</time>
      </trkpt>
      <trkpt lat="45.95072" lon="1.28228">
        <ele>424.2</ele>
        <time>2025-06-16T15:03:59Z</time>
      </trkpt>
      <trkpt lat="45.95073" lon="1.28222">
        <ele>424.1</ele>
        <time>2025-06-16T15:04:00Z</time>
      </trkpt>
      <trkpt lat="45.95074" lon="1.28216">
        <ele>424</ele>
        <time>2025-06-16T15:04:01Z</time>
      </trkpt>
      <trkpt lat="45.95076" lon="1.28211">
        <ele>424</ele>
        <time>2025-06-16T15:04:02Z</time>
      </trkpt>
      <trkpt lat="45.95076" lon="1.28206">
        <ele>423.9</ele>
        <time>2025-06-16T15:04:03Z</time>
      </trkpt>
      <trkpt lat="45.95078" lon="1.282">
        <ele>423.9</ele>
        <time>2025-06-16T15:04:04Z</time>
      </trkpt>
      <trkpt lat="45.95079" lon="1.28194">
        <ele>423.9</ele>
        <time>2025-06-16T15:04:05Z</time>
      </trkpt>
      <trkpt lat="45.95079" lon="1.28189">
        <ele>423.8</ele>
        <time>2025-06-16T15:04:06Z</time>
      </trkpt>
      <trkpt lat="45.95079" lon="1.28183">
        <ele>423.7</ele>
        <time>2025-06-16T15:04:07Z</time>
      </trkpt>
      <trkpt lat="45.95078" lon="1.28177">
        <ele>423.7</ele>
        <time>2025-06-16T15:04:08Z</time>
      </trkpt>
      <trkpt lat="45.95077" lon="1.28171">
        <ele>423.6</ele>
        <time>2025-06-16T15:04:09Z</time>
      </trkpt>
      <trkpt lat="45.95074" lon="1.28165">
        <ele>423.5</ele>
        <time>2025-06-16T15:04:10Z</time>
      </trkpt>
      <trkpt lat="45.95072" lon="1.28158">
        <ele>423.3</ele>
        <time>2025-06-16T15:04:11Z</time>
      </trkpt>
      <trkpt lat="45.95069" lon="1.28152">
        <ele>423.2</ele>
        <time>2025-06-16T15:04:12Z</time>
      </trkpt>
      <trkpt lat="45.95068" lon="1.28147">
        <ele>423.1</ele>
        <time>2025-06-16T15:04:13Z</time>
      </trkpt>
      <trkpt lat="45.95065" lon="1.28141">
        <ele>422.9</ele>
        <time>2025-06-16T15:04:14Z</time>
      </trkpt>
      <trkpt lat="45.95062" lon="1.28134">
        <ele>422.8</ele>
        <time>2025-06-16T15:04:15Z</time>
      </trkpt>
      <trkpt lat="45.95059" lon="1.28128">
        <ele>422.6</ele>
        <time>2025-06-16T15:04:16Z</time>
      </trkpt>
      <trkpt lat="45.95056" lon="1.28122">
        <ele>422.4</ele>
        <time>2025-06-16T15:04:17Z</time>
      </trkpt>
      <trkpt lat="45.95052" lon="1.28117">
        <ele>422.3</ele>
        <time>2025-06-16T15:04:18Z</time>
      </trkpt>
      <trkpt lat="45.95048" lon="1.28112">
        <ele>422.1</ele>
        <time>2025-06-16T15:04:19Z</time>
      </trkpt>
      <trkpt lat="45.95046" lon="1.28109">
        <ele>422.1</ele>
        <time>2025-06-16T15:04:20Z</time>
      </trkpt>
      <trkpt lat="45.95042" lon="1.28106">
        <ele>422</ele>
        <time>2025-06-16T15:04:21Z</time>
      </trkpt>
      <trkpt lat="45.95038" lon="1.28104">
        <ele>421.9</ele>
        <time>2025-06-16T15:04:22Z</time>
      </trkpt>
      <trkpt lat="45.95034" lon="1.28101">
        <ele>421.8</ele>
        <time>2025-06-16T15:04:23Z</time>
      </trkpt>
      <trkpt lat="45.9503" lon="1.28098">
        <ele>421.8</ele>
        <time>2025-06-16T15:04:24Z</time>
      </trkpt>
      <trkpt lat="45.95025" lon="1.28096">
        <ele>421.7</ele>
        <time>2025-06-16T15:04:25Z</time>
      </trkpt>
      <trkpt lat="45.95021" lon="1.28094">
        <ele>421.7</ele>
        <time>2025-06-16T15:04:26Z</time>
      </trkpt>
      <trkpt lat="45.95017" lon="1.28092">
        <ele>421.7</ele>
        <time>2025-06-16T15:04:27Z</time>
      </trkpt>
      <trkpt lat="45.95013" lon="1.2809">
        <ele>421.6</ele>
        <time>2025-06-16T15:04:28Z</time>
      </trkpt>
      <trkpt lat="45.9501" lon="1.28088">
        <ele>421.6</ele>
        <time>2025-06-16T15:04:29Z</time>
      </trkpt>
      <trkpt lat="45.95006" lon="1.28085">
        <ele>421.6</ele>
        <time>2025-06-16T15:04:30Z</time>
      </trkpt>
      <trkpt lat="45.95005" lon="1.28084">
        <ele>421.6</ele>
        <time>2025-06-16T15:04:31Z</time>
      </trkpt>
      <trkpt lat="45.95002" lon="1.28083">
        <ele>421.6</ele>
        <time>2025-06-16T15:04:32Z</time>
      </trkpt>
      <trkpt lat="45.94999" lon="1.28081">
        <ele>421.6</ele>
        <time>2025-06-16T15:04:33Z</time>
      </trkpt>
      <trkpt lat="45.94996" lon="1.28079">
        <ele>421.6</ele>
        <time>2025-06-16T15:04:34Z</time>
      </trkpt>
      <trkpt lat="45.94994" lon="1.28078">
        <ele>421.5</ele>
        <time>2025-06-16T15:04:35Z</time>
      </trkpt>
      <trkpt lat="45.94991" lon="1.28077">
        <ele>421.5</ele>
        <time>2025-06-16T15:04:36Z</time>
      </trkpt>
      <trkpt lat="45.94988" lon="1.28075">
        <ele>421.5</ele>
        <time>2025-06-16T15:04:37Z</time>
      </trkpt>
      <trkpt lat="45.94984" lon="1.28074">
        <ele>421.5</ele>
        <time>2025-06-16T15:04:38Z</time>
      </trkpt>
      <trkpt lat="45.94981" lon="1.28072">
        <ele>421.5</ele>
        <time>2025-06-16T15:04:39Z</time>
      </trkpt>
      <trkpt lat="45.94978" lon="1.28071">
        <ele>421.5</ele>
        <time>2025-06-16T15:04:40Z</time>
      </trkpt>
      <trkpt lat="45.94974" lon="1.2807">
        <ele>421.5</ele>
        <time>2025-06-16T15:04:41Z</time>
      </trkpt>
      <trkpt lat="45.94971" lon="1.28069">
        <ele>421.5</ele>
        <time>2025-06-16T15:04:42Z</time>
      </trkpt>
      <trkpt lat="45.94967" lon="1.28068">
        <ele>421.5</ele>
        <time>2025-06-16T15:04:43Z</time>
      </trkpt>
      <trkpt lat="45.94963" lon="1.28068">
        <ele>421.5</ele>
        <time>2025-06-16T15:04:44Z</time>
      </trkpt>
      <trkpt lat="45.94959" lon="1.28068">
        <ele>421.5</ele>
        <time>2025-06-16T15:04:45Z</time>
      </trkpt>
      <trkpt lat="45.94955" lon="1.28068">
        <ele>421.5</ele>
        <time>2025-06-16T15:04:46Z</time>
      </trkpt>
      <trkpt lat="45.94952" lon="1.28068">
        <ele>421.5</ele>
        <time>2025-06-16T15:04:47Z</time>
      </trkpt>
      <trkpt lat="45.94948" lon="1.28069">
        <ele>421.5</ele>
        <time>2025-06-16T15:04:48Z</time>
      </trkpt>
      <trkpt lat="45.94944" lon="1.28069">
        <ele>421.5</ele>
        <time>2025-06-16T15:04:49Z</time>
      </trkpt>
      <trkpt lat="45.9494" lon="1.28069">
        <ele>421.5</ele>
        <time>2025-06-16T15:04:50Z</time>
      </trkpt>
      <trkpt lat="45.94936" lon="1.2807">
        <ele>421.5</ele>
        <time>2025-06-16T15:04:51Z</time>
      </trkpt>
      <trkpt lat="45.94932" lon="1.28071">
        <ele>421.5</ele>
        <time>2025-06-16T15:04:52Z</time>
      </trkpt>
      <trkpt lat="45.94928" lon="1.28072">
        <ele>421.5</ele>
        <time>2025-06-16T15:04:53Z</time>
      </trkpt>
      <trkpt lat="45.94924" lon="1.28073">
        <ele>421.5</ele>
        <time>2025-06-16T15:04:54Z</time>
      </trkpt>
      <trkpt lat="45.9492" lon="1.28075">
        <ele>421.5</ele>
        <time>2025-06-16T15:04:55Z</time>
      </trkpt>
      <trkpt lat="45.94916" lon="1.28076">
        <ele>421.5</ele>
        <time>2025-06-16T15:04:56Z</time>
      </trkpt>
      <trkpt lat="45.94912" lon="1.28078">
        <ele>421.5</ele>
        <time>2025-06-16T15:04:57Z</time>
      </trkpt>
      <trkpt lat="45.94908" lon="1.28079">
        <ele>421.5</ele>
        <time>2025-06-16T15:04:58Z</time>
      </trkpt>
      <trkpt lat="45.94904" lon="1.28079">
        <ele>421.5</ele>
        <time>2025-06-16T15:04:59Z</time>
      </trkpt>
      <trkpt lat="45.949" lon="1.2808">
        <ele>421.5</ele>
        <time>2025-06-16T15:05:00Z</time>
      </trkpt>
      <trkpt lat="45.94896" lon="1.28081">
        <ele>421.6</ele>
        <time>2025-06-16T15:05:01Z</time>
      </trkpt>
      <trkpt lat="45.94892" lon="1.28082">
        <ele>421.6</ele>
        <time>2025-06-16T15:05:02Z</time>
      </trkpt>
      <trkpt lat="45.94888" lon="1.28082">
        <ele>421.6</ele>
        <time>2025-06-16T15:05:03Z</time>
      </trkpt>
      <trkpt lat="45.94884" lon="1.28081">
        <ele>421.6</ele>
        <time>2025-06-16T15:05:04Z</time>
      </trkpt>
      <trkpt lat="45.9488" lon="1.2808">
        <ele>421.6</ele>
        <time>2025-06-16T15:05:05Z</time>
      </trkpt>
      <trkpt lat="45.94876" lon="1.28079">
        <ele>421.7</ele>
        <time>2025-06-16T15:05:06Z</time>
      </trkpt>
      <trkpt lat="45.94872" lon="1.28077">
        <ele>421.7</ele>
        <time>2025-06-16T15:05:07Z</time>
      </trkpt>
      <trkpt lat="45.94868" lon="1.28076">
        <ele>421.7</ele>
        <time>2025-06-16T15:05:08Z</time>
      </trkpt>
      <trkpt lat="45.94865" lon="1.28074">
        <ele>421.7</ele>
        <time>2025-06-16T15:05:09Z</time>
      </trkpt>
      <trkpt lat="45.94862" lon="1.28072">
        <ele>421.7</ele>
        <time>2025-06-16T15:05:10Z</time>
      </trkpt>
      <trkpt lat="45.94858" lon="1.28071">
        <ele>421.7</ele>
        <time>2025-06-16T15:05:11Z</time>
      </trkpt>
      <trkpt lat="45.94855" lon="1.28069">
        <ele>421.7</ele>
        <time>2025-06-16T15:05:12Z</time>
      </trkpt>
      <trkpt lat="45.94851" lon="1.28068">
        <ele>421.7</ele>
        <time>2025-06-16T15:05:13Z</time>
      </trkpt>
      <trkpt lat="45.94847" lon="1.28066">
        <ele>421.7</ele>
        <time>2025-06-16T15:05:14Z</time>
      </trkpt>
      <trkpt lat="45.94843" lon="1.28064">
        <ele>421.7</ele>
        <time>2025-06-16T15:05:15Z</time>
      </trkpt>
      <trkpt lat="45.94839" lon="1.28061">
        <ele>421.7</ele>
        <time>2025-06-16T15:05:16Z</time>
      </trkpt>
      <trkpt lat="45.94836" lon="1.28059">
        <ele>421.7</ele>
        <time>2025-06-16T15:05:17Z</time>
      </trkpt>
      <trkpt lat="45.94832" lon="1.28058">
        <ele>421.7</ele>
        <time>2025-06-16T15:05:18Z</time>
      </trkpt>
      <trkpt lat="45.94828" lon="1.28057">
        <ele>421.8</ele>
        <time>2025-06-16T15:05:19Z</time>
      </trkpt>
      <trkpt lat="45.94824" lon="1.28057">
        <ele>421.8</ele>
        <time>2025-06-16T15:05:20Z</time>
      </trkpt>
      <trkpt lat="45.94821" lon="1.28057">
        <ele>421.9</ele>
        <time>2025-06-16T15:05:21Z</time>
      </trkpt>
      <trkpt lat="45.94818" lon="1.28059">
        <ele>421.9</ele>
        <time>2025-06-16T15:05:22Z</time>
      </trkpt>
      <trkpt lat="45.94814" lon="1.2806">
        <ele>422</ele>
        <time>2025-06-16T15:05:23Z</time>
      </trkpt>
      <trkpt lat="45.94811" lon="1.28062">
        <ele>422</ele>
        <time>2025-06-16T15:05:24Z</time>
      </trkpt>
      <trkpt lat="45.94807" lon="1.28063">
        <ele>422</ele>
        <time>2025-06-16T15:05:25Z</time>
      </trkpt>
      <trkpt lat="45.94804" lon="1.28065">
        <ele>422</ele>
        <time>2025-06-16T15:05:26Z</time>
      </trkpt>
      <trkpt lat="45.948" lon="1.28068">
        <ele>422</ele>
        <time>2025-06-16T15:05:27Z</time>
      </trkpt>
      <trkpt lat="45.94796" lon="1.2807">
        <ele>421.9</ele>
        <time>2025-06-16T15:05:28Z</time>
      </trkpt>
      <trkpt lat="45.94791" lon="1.28071">
        <ele>421.9</ele>
        <time>2025-06-16T15:05:29Z</time>
      </trkpt>
      <trkpt lat="45.94787" lon="1.28072">
        <ele>421.9</ele>
        <time>2025-06-16T15:05:30Z</time>
      </trkpt>
      <trkpt lat="45.94783" lon="1.28074">
        <ele>421.9</ele>
        <time>2025-06-16T15:05:31Z</time>
      </trkpt>
      <trkpt lat="45.94778" lon="1.28075">
        <ele>421.9</ele>
        <time>2025-06-16T15:05:32Z</time>
      </trkpt>
      <trkpt lat="45.94774" lon="1.28076">
        <ele>421.8</ele>
        <time>2025-06-16T15:05:33Z</time>
      </trkpt>
      <trkpt lat="45.9477" lon="1.28078">
        <ele>421.8</ele>
        <time>2025-06-16T15:05:34Z</time>
      </trkpt>
      <trkpt lat="45.94767" lon="1.28081">
        <ele>421.8</ele>
        <time>2025-06-16T15:05:35Z</time>
      </trkpt>
      <trkpt lat="45.94765" lon="1.28085">
        <ele>421.8</ele>
        <time>2025-06-16T15:05:36Z</time>
      </trkpt>
      <trkpt lat="45.94764" lon="1.28091">
        <ele>421.8</ele>
        <time>2025-06-16T15:05:37Z</time>
      </trkpt>
      <trkpt lat="45.94765" lon="1.28096">
        <ele>421.8</ele>
        <time>2025-06-16T15:05:38Z</time>
      </trkpt>
      <trkpt lat="45.94765" lon="1.28102">
        <ele>421.8</ele>
        <time>2025-06-16T15:05:39Z</time>
      </trkpt>
      <trkpt lat="45.94766" lon="1.28107">
        <ele>421.9</ele>
        <time>2025-06-16T15:05:40Z</time>
      </trkpt>
      <trkpt lat="45.94766" lon="1.28113">
        <ele>421.9</ele>
        <time>2025-06-16T15:05:41Z</time>
      </trkpt>
      <trkpt lat="45.94767" lon="1.28119">
        <ele>421.9</ele>
        <time>2025-06-16T15:05:42Z</time>
      </trkpt>
      <trkpt lat="45.94768" lon="1.28124">
        <ele>421.9</ele>
        <time>2025-06-16T15:05:43Z</time>
      </trkpt>
      <trkpt lat="45.94768" lon="1.28129">
        <ele>422</ele>
        <time>2025-06-16T15:05:44Z</time>
      </trkpt>
      <trkpt lat="45.94768" lon="1.28134">
        <ele>422</ele>
        <time>2025-06-16T15:05:45Z</time>
      </trkpt>
      <trkpt lat="45.94769" lon="1.28139">
        <ele>422</ele>
        <time>2025-06-16T15:05:46Z</time>
      </trkpt>
      <trkpt lat="45.94769" lon="1.28144">
        <ele>422</ele>
        <time>2025-06-16T15:05:47Z</time>
      </trkpt>
      <trkpt lat="45.94769" lon="1.28148">
        <ele>422</ele>
        <time>2025-06-16T15:05:48Z</time>
      </trkpt>
      <trkpt lat="45.94769" lon="1.28153">
        <ele>422</ele>
        <time>2025-06-16T15:05:49Z</time>
      </trkpt>
      <trkpt lat="45.94769" lon="1.28159">
        <ele>422.1</ele>
        <time>2025-06-16T15:05:50Z</time>
      </trkpt>
      <trkpt lat="45.94769" lon="1.28164">
        <ele>422.1</ele>
        <time>2025-06-16T15:05:51Z</time>
      </trkpt>
      <trkpt lat="45.94769" lon="1.2817">
        <ele>422.1</ele>
        <time>2025-06-16T15:05:52Z</time>
      </trkpt>
      <trkpt lat="45.9477" lon="1.28175">
        <ele>422.1</ele>
        <time>2025-06-16T15:05:53Z</time>
      </trkpt>
      <trkpt lat="45.9477" lon="1.28181">
        <ele>422.1</ele>
        <time>2025-06-16T15:05:54Z</time>
      </trkpt>
      <trkpt lat="45.94771" lon="1.28187">
        <ele>422</ele>
        <time>2025-06-16T15:05:55Z</time>
      </trkpt>
      <trkpt lat="45.94772" lon="1.28193">
        <ele>422</ele>
        <time>2025-06-16T15:05:56Z</time>
      </trkpt>
      <trkpt lat="45.94772" lon="1.28198">
        <ele>422</ele>
        <time>2025-06-16T15:05:57Z</time>
      </trkpt>
      <trkpt lat="45.94772" lon="1.28204">
        <ele>422</ele>
        <time>2025-06-16T15:05:58Z</time>
      </trkpt>
      <trkpt lat="45.94773" lon="1.2821">
        <ele>422</ele>
        <time>2025-06-16T15:05:59Z</time>
      </trkpt>
      <trkpt lat="45.94773" lon="1.28216">
        <ele>422</ele>
        <time>2025-06-16T15:06:00Z</time>
      </trkpt>
      <trkpt lat="45.94773" lon="1.28221">
        <ele>422</ele>
        <time>2025-06-16T15:06:01Z</time>
      </trkpt>
      <trkpt lat="45.94773" lon="1.28226">
        <ele>422</ele>
        <time>2025-06-16T15:06:02Z</time>
      </trkpt>
      <trkpt lat="45.94772" lon="1.2823">
        <ele>422</ele>
        <time>2025-06-16T15:06:03Z</time>
      </trkpt>
      <trkpt lat="45.94771" lon="1.28234">
        <ele>422</ele>
        <time>2025-06-16T15:06:04Z</time>
      </trkpt>
      <trkpt lat="45.94768" lon="1.28238">
        <ele>422</ele>
        <time>2025-06-16T15:06:05Z</time>
      </trkpt>
      <trkpt lat="45.94767" lon="1.28241">
        <ele>422</ele>
        <time>2025-06-16T15:06:06Z</time>
      </trkpt>
      <trkpt lat="45.94764" lon="1.28245">
        <ele>422.1</ele>
        <time>2025-06-16T15:06:07Z</time>
      </trkpt>
      <trkpt lat="45.94763" lon="1.28246">
        <ele>422.1</ele>
        <time>2025-06-16T15:06:08Z</time>
      </trkpt>
      <trkpt lat="45.94761" lon="1.28248">
        <ele>422.2</ele>
        <time>2025-06-16T15:06:09Z</time>
      </trkpt>
      <trkpt lat="45.94759" lon="1.28251">
        <ele>422.2</ele>
        <time>2025-06-16T15:06:10Z</time>
      </trkpt>
      <trkpt lat="45.94756" lon="1.28254">
        <ele>422.3</ele>
        <time>2025-06-16T15:06:11Z</time>
      </trkpt>
      <trkpt lat="45.94754" lon="1.28258">
        <ele>422.4</ele>
        <time>2025-06-16T15:06:12Z</time>
      </trkpt>
      <trkpt lat="45.94752" lon="1.28262">
        <ele>422.4</ele>
        <time>2025-06-16T15:06:13Z</time>
      </trkpt>
      <trkpt lat="45.9475" lon="1.28266">
        <ele>422.5</ele>
        <time>2025-06-16T15:06:14Z</time>
      </trkpt>
      <trkpt lat="45.94747" lon="1.2827">
        <ele>422.5</ele>
        <time>2025-06-16T15:06:15Z</time>
      </trkpt>
      <trkpt lat="45.94745" lon="1.28273">
        <ele>422.5</ele>
        <time>2025-06-16T15:06:16Z</time>
      </trkpt>
      <trkpt lat="45.94742" lon="1.28276">
        <ele>422.5</ele>
        <time>2025-06-16T15:06:17Z</time>
      </trkpt>
      <trkpt lat="45.94739" lon="1.28279">
        <ele>422.6</ele>
        <time>2025-06-16T15:06:18Z</time>
      </trkpt>
      <trkpt lat="45.94736" lon="1.28281">
        <ele>422.6</ele>
        <time>2025-06-16T15:06:19Z</time>
      </trkpt>
      <trkpt lat="45.94733" lon="1.28284">
        <ele>422.6</ele>
        <time>2025-06-16T15:06:20Z</time>
      </trkpt>
      <trkpt lat="45.94729" lon="1.28285">
        <ele>422.6</ele>
        <time>2025-06-16T15:06:21Z</time>
      </trkpt>
      <trkpt lat="45.94726" lon="1.28287">
        <ele>422.7</ele>
        <time>2025-06-16T15:06:22Z</time>
      </trkpt>
      <trkpt lat="45.94723" lon="1.28288">
        <ele>422.7</ele>
        <time>2025-06-16T15:06:23Z</time>
      </trkpt>
      <trkpt lat="45.94719" lon="1.28289">
        <ele>422.8</ele>
        <time>2025-06-16T15:06:24Z</time>
      </trkpt>
      <trkpt lat="45.94718" lon="1.28289">
        <ele>422.8</ele>
        <time>2025-06-16T15:06:25Z</time>
      </trkpt>
      <trkpt lat="45.94715" lon="1.2829">
        <ele>422.9</ele>
        <time>2025-06-16T15:06:26Z</time>
      </trkpt>
      <trkpt lat="45.94714" lon="1.28291">
        <ele>422.9</ele>
        <time>2025-06-16T15:06:27Z</time>
      </trkpt>
      <trkpt lat="45.94711" lon="1.28292">
        <ele>422.9</ele>
        <time>2025-06-16T15:06:28Z</time>
      </trkpt>
      <trkpt lat="45.9471" lon="1.28293">
        <ele>422.9</ele>
        <time>2025-06-16T15:06:29Z</time>
      </trkpt>
      <trkpt lat="45.94708" lon="1.28295">
        <ele>422.9</ele>
        <time>2025-06-16T15:06:30Z</time>
      </trkpt>
      <trkpt lat="45.94707" lon="1.28296">
        <ele>422.9</ele>
        <time>2025-06-16T15:06:31Z</time>
      </trkpt>
      <trkpt lat="45.94705" lon="1.28299">
        <ele>422.9</ele>
        <time>2025-06-16T15:06:32Z</time>
      </trkpt>
      <trkpt lat="45.94701" lon="1.28301">
        <ele>422.8</ele>
        <time>2025-06-16T15:06:33Z</time>
      </trkpt>
      <trkpt lat="45.94698" lon="1.28304">
        <ele>422.7</ele>
        <time>2025-06-16T15:06:34Z</time>
      </trkpt>
      <trkpt lat="45.94693" lon="1.28304">
        <ele>422.5</ele>
        <time>2025-06-16T15:06:35Z</time>
      </trkpt>
      <trkpt lat="45.94689" lon="1.28304">
        <ele>422.7</ele>
        <time>2025-06-16T15:06:36Z</time>
      </trkpt>
      <trkpt lat="45.94684" lon="1.28301">
        <ele>423</ele>
        <time>2025-06-16T15:06:37Z</time>
      </trkpt>
      <trkpt lat="45.94681" lon="1.283">
        <ele>423.2</ele>
        <time>2025-06-16T15:06:39Z</time>
      </trkpt>
      <trkpt lat="45.94678" lon="1.283">
        <ele>423.5</ele>
        <time>2025-06-16T15:06:40Z</time>
      </trkpt>
      <trkpt lat="45.94677" lon="1.283">
        <ele>423.6</ele>
        <time>2025-06-16T15:06:41Z</time>
      </trkpt>
      <trkpt lat="45.94675" lon="1.28299">
        <ele>423.7</ele>
        <time>2025-06-16T15:06:42Z</time>
      </trkpt>
      <trkpt lat="45.94673" lon="1.28299">
        <ele>423.8</ele>
        <time>2025-06-16T15:06:43Z</time>
      </trkpt>
      <trkpt lat="45.94669" lon="1.283">
        <ele>424.2</ele>
        <time>2025-06-16T15:06:44Z</time>
      </trkpt>
      <trkpt lat="45.94665" lon="1.28302">
        <ele>424.5</ele>
        <time>2025-06-16T15:06:46Z</time>
      </trkpt>
      <trkpt lat="45.94664" lon="1.28302">
        <ele>424.7</ele>
        <time>2025-06-16T15:06:47Z</time>
      </trkpt>
      <trkpt lat="45.94661" lon="1.28303">
        <ele>424.9</ele>
        <time>2025-06-16T15:06:48Z</time>
      </trkpt>
      <trkpt lat="45.94658" lon="1.28305">
        <ele>425.2</ele>
        <time>2025-06-16T15:06:49Z</time>
      </trkpt>
      <trkpt lat="45.94654" lon="1.28307">
        <ele>425.6</ele>
        <time>2025-06-16T15:06:50Z</time>
      </trkpt>
      <trkpt lat="45.9465" lon="1.28308">
        <ele>425.9</ele>
        <time>2025-06-16T15:06:51Z</time>
      </trkpt>
      <trkpt lat="45.94647" lon="1.28309">
        <ele>426.3</ele>
        <time>2025-06-16T15:06:52Z</time>
      </trkpt>
      <trkpt lat="45.94644" lon="1.28309">
        <ele>426.5</ele>
        <time>2025-06-16T15:06:53Z</time>
      </trkpt>
      <trkpt lat="45.9464" lon="1.28308">
        <ele>426.9</ele>
        <time>2025-06-16T15:06:54Z</time>
      </trkpt>
      <trkpt lat="45.94639" lon="1.28308">
        <ele>427</ele>
        <time>2025-06-16T15:06:55Z</time>
      </trkpt>
      <trkpt lat="45.94635" lon="1.28307">
        <ele>427.4</ele>
        <time>2025-06-16T15:06:56Z</time>
      </trkpt>
      <trkpt lat="45.94631" lon="1.28306">
        <ele>427.8</ele>
        <time>2025-06-16T15:06:57Z</time>
      </trkpt>
      <trkpt lat="45.94628" lon="1.28306">
        <ele>428.1</ele>
        <time>2025-06-16T15:06:58Z</time>
      </trkpt>
      <trkpt lat="45.94625" lon="1.28305">
        <ele>428.4</ele>
        <time>2025-06-16T15:06:59Z</time>
      </trkpt>
      <trkpt lat="45.94622" lon="1.28303">
        <ele>428.8</ele>
        <time>2025-06-16T15:07:00Z</time>
      </trkpt>
      <trkpt lat="45.9462" lon="1.28302">
        <ele>428.9</ele>
        <time>2025-06-16T15:07:01Z</time>
      </trkpt>
      <trkpt lat="45.94618" lon="1.28301">
        <ele>429.1</ele>
        <time>2025-06-16T15:07:02Z</time>
      </trkpt>
      <trkpt lat="45.94615" lon="1.283">
        <ele>429.4</ele>
        <time>2025-06-16T15:07:03Z</time>
      </trkpt>
      <trkpt lat="45.94611" lon="1.28298">
        <ele>429.6</ele>
        <time>2025-06-16T15:07:04Z</time>
      </trkpt>
      <trkpt lat="45.94608" lon="1.28296">
        <ele>429.9</ele>
        <time>2025-06-16T15:07:05Z</time>
      </trkpt>
      <trkpt lat="45.94605" lon="1.28293">
        <ele>430.1</ele>
        <time>2025-06-16T15:07:06Z</time>
      </trkpt>
      <trkpt lat="45.94602" lon="1.28291">
        <ele>430.3</ele>
        <time>2025-06-16T15:07:07Z</time>
      </trkpt>
      <trkpt lat="45.94599" lon="1.28289">
        <ele>430.5</ele>
        <time>2025-06-16T15:07:08Z</time>
      </trkpt>
      <trkpt lat="45.94596" lon="1.28287">
        <ele>430.7</ele>
        <time>2025-06-16T15:07:09Z</time>
      </trkpt>
      <trkpt lat="45.94593" lon="1.28285">
        <ele>430.8</ele>
        <time>2025-06-16T15:07:10Z</time>
      </trkpt>
      <trkpt lat="45.94591" lon="1.28283">
        <ele>431</ele>
        <time>2025-06-16T15:07:11Z</time>
      </trkpt>
      <trkpt lat="45.94588" lon="1.2828">
        <ele>431.1</ele>
        <time>2025-06-16T15:07:12Z</time>
      </trkpt>
      <trkpt lat="45.94585" lon="1.28277">
        <ele>431.2</ele>
        <time>2025-06-16T15:07:13Z</time>
      </trkpt>
      <trkpt lat="45.94581" lon="1.28274">
        <ele>431.3</ele>
        <time>2025-06-16T15:07:14Z</time>
      </trkpt>
      <trkpt lat="45.94578" lon="1.28271">
        <ele>431.4</ele>
        <time>2025-06-16T15:07:15Z</time>
      </trkpt>
      <trkpt lat="45.94576" lon="1.28269">
        <ele>431.5</ele>
        <time>2025-06-16T15:07:16Z</time>
      </trkpt>
      <trkpt lat="45.94573" lon="1.28267">
        <ele>431.5</ele>
        <time>2025-06-16T15:07:17Z</time>
      </trkpt>
      <trkpt lat="45.94571" lon="1.28264">
        <ele>431.6</ele>
        <time>2025-06-16T15:07:18Z</time>
      </trkpt>
      <trkpt lat="45.94568" lon="1.28262">
        <ele>431.6</ele>
        <time>2025-06-16T15:07:19Z</time>
      </trkpt>
      <trkpt lat="45.94566" lon="1.28259">
        <ele>431.6</ele>
        <time>2025-06-16T15:07:20Z</time>
      </trkpt>
      <trkpt lat="45.94563" lon="1.28256">
        <ele>431.6</ele>
        <time>2025-06-16T15:07:21Z</time>
      </trkpt>
      <trkpt lat="45.94561" lon="1.28252">
        <ele>431.6</ele>
        <time>2025-06-16T15:07:22Z</time>
      </trkpt>
      <trkpt lat="45.94559" lon="1.28249">
        <ele>431.6</ele>
        <time>2025-06-16T15:07:23Z</time>
      </trkpt>
      <trkpt lat="45.94557" lon="1.28246">
        <ele>431.6</ele>
        <time>2025-06-16T15:07:24Z</time>
      </trkpt>
      <trkpt lat="45.94555" lon="1.28243">
        <ele>431.6</ele>
        <time>2025-06-16T15:07:25Z</time>
      </trkpt>
      <trkpt lat="45.94552" lon="1.28241">
        <ele>431.6</ele>
        <time>2025-06-16T15:07:26Z</time>
      </trkpt>
      <trkpt lat="45.9455" lon="1.28239">
        <ele>431.6</ele>
        <time>2025-06-16T15:07:27Z</time>
      </trkpt>
      <trkpt lat="45.94547" lon="1.28236">
        <ele>431.6</ele>
        <time>2025-06-16T15:07:28Z</time>
      </trkpt>
      <trkpt lat="45.94547" lon="1.28235">
        <ele>431.5</ele>
        <time>2025-06-16T15:07:29Z</time>
      </trkpt>
      <trkpt lat="45.94544" lon="1.28232">
        <ele>431.5</ele>
        <time>2025-06-16T15:07:30Z</time>
      </trkpt>
      <trkpt lat="45.94544" lon="1.28231">
        <ele>431.5</ele>
        <time>2025-06-16T15:07:31Z</time>
      </trkpt>
      <trkpt lat="45.94542" lon="1.28228">
        <ele>431.5</ele>
        <time>2025-06-16T15:07:32Z</time>
      </trkpt>
      <trkpt lat="45.94541" lon="1.28227">
        <ele>431.5</ele>
        <time>2025-06-16T15:07:33Z</time>
      </trkpt>
      <trkpt lat="45.94539" lon="1.28225">
        <ele>431.5</ele>
        <time>2025-06-16T15:07:34Z</time>
      </trkpt>
      <trkpt lat="45.94538" lon="1.28223">
        <ele>431.5</ele>
        <time>2025-06-16T15:07:35Z</time>
      </trkpt>
      <trkpt lat="45.94535" lon="1.2822">
        <ele>431.5</ele>
        <time>2025-06-16T15:07:36Z</time>
      </trkpt>
      <trkpt lat="45.94534" lon="1.28219">
        <ele>431.5</ele>
        <time>2025-06-16T15:07:37Z</time>
      </trkpt>
      <trkpt lat="45.94531" lon="1.28217">
        <ele>431.5</ele>
        <time>2025-06-16T15:07:38Z</time>
      </trkpt>
      <trkpt lat="45.9453" lon="1.28216">
        <ele>431.5</ele>
        <time>2025-06-16T15:07:39Z</time>
      </trkpt>
      <trkpt lat="45.94527" lon="1.28212">
        <ele>431.5</ele>
        <time>2025-06-16T15:07:40Z</time>
      </trkpt>
      <trkpt lat="45.94527" lon="1.28211">
        <ele>431.5</ele>
        <time>2025-06-16T15:07:41Z</time>
      </trkpt>
      <trkpt lat="45.94524" lon="1.28208">
        <ele>431.5</ele>
        <time>2025-06-16T15:07:42Z</time>
      </trkpt>
      <trkpt lat="45.94524" lon="1.28207">
        <ele>431.5</ele>
        <time>2025-06-16T15:07:43Z</time>
      </trkpt>
      <trkpt lat="45.94522" lon="1.28203">
        <ele>431.5</ele>
        <time>2025-06-16T15:07:44Z</time>
      </trkpt>
      <trkpt lat="45.94522" lon="1.28201">
        <ele>431.5</ele>
        <time>2025-06-16T15:07:45Z</time>
      </trkpt>
      <trkpt lat="45.9452" lon="1.28198">
        <ele>431.5</ele>
        <time>2025-06-16T15:07:46Z</time>
      </trkpt>
      <trkpt lat="45.94519" lon="1.28197">
        <ele>431.5</ele>
        <time>2025-06-16T15:07:47Z</time>
      </trkpt>
      <trkpt lat="45.94517" lon="1.28193">
        <ele>431.5</ele>
        <time>2025-06-16T15:07:48Z</time>
      </trkpt>
      <trkpt lat="45.94517" lon="1.28191">
        <ele>431.4</ele>
        <time>2025-06-16T15:07:49Z</time>
      </trkpt>
      <trkpt lat="45.94516" lon="1.28186">
        <ele>431.4</ele>
        <time>2025-06-16T15:07:50Z</time>
      </trkpt>
      <trkpt lat="45.94515" lon="1.28185">
        <ele>431.3</ele>
        <time>2025-06-16T15:07:51Z</time>
      </trkpt>
      <trkpt lat="45.94514" lon="1.28182">
        <ele>431.3</ele>
        <time>2025-06-16T15:07:52Z</time>
      </trkpt>
      <trkpt lat="45.94514" lon="1.28181">
        <ele>431.3</ele>
        <time>2025-06-16T15:07:53Z</time>
      </trkpt>
      <trkpt lat="45.94513" lon="1.28181">
        <ele>431.3</ele>
        <time>2025-06-16T15:07:54Z</time>
      </trkpt>
      <trkpt lat="45.94513" lon="1.2818">
        <ele>431.3</ele>
        <time>2025-06-16T15:07:55Z</time>
      </trkpt>
      <trkpt lat="45.94511" lon="1.28177">
        <ele>431.2</ele>
        <time>2025-06-16T15:07:56Z</time>
      </trkpt>
      <trkpt lat="45.94511" lon="1.28176">
        <ele>431.1</ele>
        <time>2025-06-16T15:07:57Z</time>
      </trkpt>
      <trkpt lat="45.94508" lon="1.28175">
        <ele>431</ele>
        <time>2025-06-16T15:07:58Z</time>
      </trkpt>
      <trkpt lat="45.94507" lon="1.28175">
        <ele>431</ele>
        <time>2025-06-16T15:07:59Z</time>
      </trkpt>
      <trkpt lat="45.94503" lon="1.28175">
        <ele>430.8</ele>
        <time>2025-06-16T15:08:00Z</time>
      </trkpt>
      <trkpt lat="45.94502" lon="1.28176">
        <ele>430.7</ele>
        <time>2025-06-16T15:08:01Z</time>
      </trkpt>
      <trkpt lat="45.94501" lon="1.28176">
        <ele>430.7</ele>
        <time>2025-06-16T15:08:02Z</time>
      </trkpt>
      <trkpt lat="45.94501" lon="1.28177">
        <ele>430.6</ele>
        <time>2025-06-16T15:08:03Z</time>
      </trkpt>
      <trkpt lat="45.94501" lon="1.28178">
        <ele>430.6</ele>
        <time>2025-06-16T15:08:04Z</time>
      </trkpt>
      <trkpt lat="45.94501" lon="1.28178">
        <ele>430.6</ele>
        <time>2025-06-16T15:08:05Z</time>
      </trkpt>
      <trkpt lat="45.94501" lon="1.28178">
        <ele>430.6</ele>
        <time>2025-06-16T15:08:06Z</time>
      </trkpt>
      <trkpt lat="45.94501" lon="1.28178">
        <ele>430.6</ele>
        <time>2025-06-16T15:08:07Z</time>
      </trkpt>
      <trkpt lat="45.94501" lon="1.28178">
        <ele>430.6</ele>
        <time>2025-06-16T15:08:08Z</time>
      </trkpt>
      <trkpt lat="45.94501" lon="1.28178">
        <ele>430.6</ele>
        <time>2025-06-16T15:08:09Z</time>
      </trkpt>
      <trkpt lat="45.94501" lon="1.28178">
        <ele>430.6</ele>
        <time>2025-06-16T15:08:10Z</time>
      </trkpt>
      <trkpt lat="45.94501" lon="1.28178">
        <ele>430.6</ele>
        <time>2025-06-16T15:08:11Z</time>
      </trkpt>
      <trkpt lat="45.94501" lon="1.28178">
        <ele>430.6</ele>
        <time>2025-06-16T15:08:12Z</time>
      </trkpt>
      <trkpt lat="45.945" lon="1.28178">
        <ele>430.6</ele>
        <time>2025-06-16T15:08:13Z</time>
      </trkpt>
      <trkpt lat="45.945" lon="1.28178">
        <ele>430.5</ele>
        <time>2025-06-16T15:08:14Z</time>
      </trkpt>
      <trkpt lat="45.945" lon="1.28178">
        <ele>430.5</ele>
        <time>2025-06-16T15:08:15Z</time>
      </trkpt>
      <trkpt lat="45.945" lon="1.28178">
        <ele>430.5</ele>
        <time>2025-06-16T15:08:16Z</time>
      </trkpt>
      <trkpt lat="45.945" lon="1.28178">
        <ele>430.5</ele>
        <time>2025-06-16T15:08:17Z</time>
      </trkpt>
      <trkpt lat="45.945" lon="1.28178">
        <ele>430.5</ele>
        <time>2025-06-16T15:08:18Z</time>
      </trkpt>
      <trkpt lat="45.94499" lon="1.28177">
        <ele>430.4</ele>
        <time>2025-06-16T15:08:19Z</time>
      </trkpt>
      <trkpt lat="45.94498" lon="1.28175">
        <ele>430.3</ele>
        <time>2025-06-16T15:08:20Z</time>
      </trkpt>
      <trkpt lat="45.94498" lon="1.2817">
        <ele>430.1</ele>
        <time>2025-06-16T15:08:21Z</time>
      </trkpt>
      <trkpt lat="45.94498" lon="1.28169">
        <ele>430</ele>
        <time>2025-06-16T15:08:22Z</time>
      </trkpt>
      <trkpt lat="45.94499" lon="1.28165">
        <ele>429.7</ele>
        <time>2025-06-16T15:08:23Z</time>
      </trkpt>
      <trkpt lat="45.94499" lon="1.28163">
        <ele>429.6</ele>
        <time>2025-06-16T15:08:24Z</time>
      </trkpt>
      <trkpt lat="45.94499" lon="1.28158">
        <ele>429.3</ele>
        <time>2025-06-16T15:08:25Z</time>
      </trkpt>
      <trkpt lat="45.94498" lon="1.28156">
        <ele>429.2</ele>
        <time>2025-06-16T15:08:26Z</time>
      </trkpt>
      <trkpt lat="45.94497" lon="1.28151">
        <ele>428.8</ele>
        <time>2025-06-16T15:08:27Z</time>
      </trkpt>
      <trkpt lat="45.94495" lon="1.28146">
        <ele>428.4</ele>
        <time>2025-06-16T15:08:28Z</time>
      </trkpt>
      <trkpt lat="45.94488" lon="1.28133">
        <ele>426.9</ele>
        <time>2025-06-16T15:08:29Z</time>
      </trkpt>
      <trkpt lat="45.94484" lon="1.28125">
        <ele>426</ele>
        <time>2025-06-16T15:08:31Z</time>
      </trkpt>
      <trkpt lat="45.9448" lon="1.28116">
        <ele>425.1</ele>
        <time>2025-06-16T15:08:32Z</time>
      </trkpt>
      <trkpt lat="45.94476" lon="1.28107">
        <ele>424.1</ele>
        <time>2025-06-16T15:08:33Z</time>
      </trkpt>
      <trkpt lat="45.94472" lon="1.28098">
        <ele>423.3</ele>
        <time>2025-06-16T15:08:34Z</time>
      </trkpt>
      <trkpt lat="45.94468" lon="1.2809">
        <ele>422.5</ele>
        <time>2025-06-16T15:08:35Z</time>
      </trkpt>
      <trkpt lat="45.94464" lon="1.28081">
        <ele>421.8</ele>
        <time>2025-06-16T15:08:36Z</time>
      </trkpt>
      <trkpt lat="45.94459" lon="1.28072">
        <ele>421.2</ele>
        <time>2025-06-16T15:08:37Z</time>
      </trkpt>
      <trkpt lat="45.94454" lon="1.28063">
        <ele>420.8</ele>
        <time>2025-06-16T15:08:38Z</time>
      </trkpt>
      <trkpt lat="45.94449" lon="1.28055">
        <ele>420.4</ele>
        <time>2025-06-16T15:08:39Z</time>
      </trkpt>
      <trkpt lat="45.94445" lon="1.28045">
        <ele>420.1</ele>
        <time>2025-06-16T15:08:40Z</time>
      </trkpt>
      <trkpt lat="45.9444" lon="1.28037">
        <ele>419.9</ele>
        <time>2025-06-16T15:08:41Z</time>
      </trkpt>
      <trkpt lat="45.94435" lon="1.28028">
        <ele>419.7</ele>
        <time>2025-06-16T15:08:42Z</time>
      </trkpt>
      <trkpt lat="45.9443" lon="1.28018">
        <ele>419.6</ele>
        <time>2025-06-16T15:08:43Z</time>
      </trkpt>
      <trkpt lat="45.94424" lon="1.2801">
        <ele>419.5</ele>
        <time>2025-06-16T15:08:44Z</time>
      </trkpt>
      <trkpt lat="45.94419" lon="1.28001">
        <ele>419.4</ele>
        <time>2025-06-16T15:08:45Z</time>
      </trkpt>
      <trkpt lat="45.94414" lon="1.27995">
        <ele>419.3</ele>
        <time>2025-06-16T15:08:46Z</time>
      </trkpt>
      <trkpt lat="45.94407" lon="1.27991">
        <ele>419.1</ele>
        <time>2025-06-16T15:08:47Z</time>
      </trkpt>
      <trkpt lat="45.94399" lon="1.2799">
        <ele>418.9</ele>
        <time>2025-06-16T15:08:48Z</time>
      </trkpt>
      <trkpt lat="45.94391" lon="1.27989">
        <ele>418.8</ele>
        <time>2025-06-16T15:08:49Z</time>
      </trkpt>
      <trkpt lat="45.94383" lon="1.27988">
        <ele>418.7</ele>
        <time>2025-06-16T15:08:50Z</time>
      </trkpt>
      <trkpt lat="45.94376" lon="1.27988">
        <ele>418.7</ele>
        <time>2025-06-16T15:08:51Z</time>
      </trkpt>
      <trkpt lat="45.94368" lon="1.27989">
        <ele>418.7</ele>
        <time>2025-06-16T15:08:52Z</time>
      </trkpt>
      <trkpt lat="45.94361" lon="1.2799">
        <ele>418.7</ele>
        <time>2025-06-16T15:08:53Z</time>
      </trkpt>
      <trkpt lat="45.94355" lon="1.27992">
        <ele>418.8</ele>
        <time>2025-06-16T15:08:54Z</time>
      </trkpt>
      <trkpt lat="45.94349" lon="1.27995">
        <ele>419</ele>
        <time>2025-06-16T15:08:55Z</time>
      </trkpt>
      <trkpt lat="45.94344" lon="1.27999">
        <ele>419.1</ele>
        <time>2025-06-16T15:08:56Z</time>
      </trkpt>
      <trkpt lat="45.94338" lon="1.28003">
        <ele>419.3</ele>
        <time>2025-06-16T15:08:57Z</time>
      </trkpt>
      <trkpt lat="45.94334" lon="1.28007">
        <ele>419.5</ele>
        <time>2025-06-16T15:08:58Z</time>
      </trkpt>
      <trkpt lat="45.9433" lon="1.28011">
        <ele>419.7</ele>
        <time>2025-06-16T15:08:59Z</time>
      </trkpt>
      <trkpt lat="45.94326" lon="1.28014">
        <ele>419.9</ele>
        <time>2025-06-16T15:09:00Z</time>
      </trkpt>
      <trkpt lat="45.94323" lon="1.28016">
        <ele>420</ele>
        <time>2025-06-16T15:09:01Z</time>
      </trkpt>
      <trkpt lat="45.9432" lon="1.28019">
        <ele>420.1</ele>
        <time>2025-06-16T15:09:02Z</time>
      </trkpt>
      <trkpt lat="45.94317" lon="1.2802">
        <ele>420.2</ele>
        <time>2025-06-16T15:09:03Z</time>
      </trkpt>
      <trkpt lat="45.94315" lon="1.28021">
        <ele>420.3</ele>
        <time>2025-06-16T15:09:04Z</time>
      </trkpt>
      <trkpt lat="45.94314" lon="1.28021">
        <ele>420.3</ele>
        <time>2025-06-16T15:09:05Z</time>
      </trkpt>
      <trkpt lat="45.94312" lon="1.28023">
        <ele>420.4</ele>
        <time>2025-06-16T15:09:06Z</time>
      </trkpt>
      <trkpt lat="45.94311" lon="1.28024">
        <ele>420.4</ele>
        <time>2025-06-16T15:09:07Z</time>
      </trkpt>
      <trkpt lat="45.9431" lon="1.28024">
        <ele>420.4</ele>
        <time>2025-06-16T15:09:08Z</time>
      </trkpt>
      <trkpt lat="45.94307" lon="1.28028">
        <ele>420.6</ele>
        <time>2025-06-16T15:09:09Z</time>
      </trkpt>
      <trkpt lat="45.94306" lon="1.2803">
        <ele>420.6</ele>
        <time>2025-06-16T15:09:10Z</time>
      </trkpt>
      <trkpt lat="45.94305" lon="1.28035">
        <ele>420.7</ele>
        <time>2025-06-16T15:09:11Z</time>
      </trkpt>
      <trkpt lat="45.94305" lon="1.28041">
        <ele>420.7</ele>
        <time>2025-06-16T15:09:12Z</time>
      </trkpt>
      <trkpt lat="45.94305" lon="1.28047">
        <ele>420.8</ele>
        <time>2025-06-16T15:09:13Z</time>
      </trkpt>
      <trkpt lat="45.94304" lon="1.28052">
        <ele>420.8</ele>
        <time>2025-06-16T15:09:14Z</time>
      </trkpt>
      <trkpt lat="45.94303" lon="1.28058">
        <ele>420.9</ele>
        <time>2025-06-16T15:09:15Z</time>
      </trkpt>
      <trkpt lat="45.94302" lon="1.28064">
        <ele>420.9</ele>
        <time>2025-06-16T15:09:16Z</time>
      </trkpt>
      <trkpt lat="45.94301" lon="1.28069">
        <ele>421</ele>
        <time>2025-06-16T15:09:17Z</time>
      </trkpt>
      <trkpt lat="45.943" lon="1.28074">
        <ele>421</ele>
        <time>2025-06-16T15:09:18Z</time>
      </trkpt>
      <trkpt lat="45.94299" lon="1.28079">
        <ele>421.1</ele>
        <time>2025-06-16T15:09:19Z</time>
      </trkpt>
      <trkpt lat="45.94298" lon="1.28083">
        <ele>421.1</ele>
        <time>2025-06-16T15:09:20Z</time>
      </trkpt>
      <trkpt lat="45.94297" lon="1.28088">
        <ele>421.2</ele>
        <time>2025-06-16T15:09:21Z</time>
      </trkpt>
      <trkpt lat="45.94296" lon="1.28092">
        <ele>421.2</ele>
        <time>2025-06-16T15:09:22Z</time>
      </trkpt>
      <trkpt lat="45.94295" lon="1.28096">
        <ele>421.3</ele>
        <time>2025-06-16T15:09:23Z</time>
      </trkpt>
      <trkpt lat="45.94294" lon="1.28101">
        <ele>421.4</ele>
        <time>2025-06-16T15:09:24Z</time>
      </trkpt>
      <trkpt lat="45.94293" lon="1.28105">
        <ele>421.5</ele>
        <time>2025-06-16T15:09:25Z</time>
      </trkpt>
      <trkpt lat="45.94292" lon="1.28111">
        <ele>421.6</ele>
        <time>2025-06-16T15:09:26Z</time>
      </trkpt>
      <trkpt lat="45.9429" lon="1.28116">
        <ele>421.6</ele>
        <time>2025-06-16T15:09:27Z</time>
      </trkpt>
      <trkpt lat="45.94289" lon="1.2812">
        <ele>421.7</ele>
        <time>2025-06-16T15:09:28Z</time>
      </trkpt>
      <trkpt lat="45.94288" lon="1.28125">
        <ele>421.8</ele>
        <time>2025-06-16T15:09:29Z</time>
      </trkpt>
      <trkpt lat="45.94287" lon="1.2813">
        <ele>421.9</ele>
        <time>2025-06-16T15:09:30Z</time>
      </trkpt>
      <trkpt lat="45.94285" lon="1.28138">
        <ele>422.1</ele>
        <time>2025-06-16T15:09:31Z</time>
      </trkpt>
      <trkpt lat="45.94283" lon="1.28142">
        <ele>422.2</ele>
        <time>2025-06-16T15:09:33Z</time>
      </trkpt>
      <trkpt lat="45.94282" lon="1.28146">
        <ele>422.3</ele>
        <time>2025-06-16T15:09:34Z</time>
      </trkpt>
      <trkpt lat="45.9428" lon="1.2815">
        <ele>422.4</ele>
        <time>2025-06-16T15:09:35Z</time>
      </trkpt>
      <trkpt lat="45.94278" lon="1.28154">
        <ele>422.5</ele>
        <time>2025-06-16T15:09:36Z</time>
      </trkpt>
      <trkpt lat="45.94276" lon="1.28158">
        <ele>422.6</ele>
        <time>2025-06-16T15:09:37Z</time>
      </trkpt>
      <trkpt lat="45.94275" lon="1.28162">
        <ele>422.7</ele>
        <time>2025-06-16T15:09:38Z</time>
      </trkpt>
      <trkpt lat="45.94274" lon="1.28166">
        <ele>422.8</ele>
        <time>2025-06-16T15:09:39Z</time>
      </trkpt>
      <trkpt lat="45.94272" lon="1.2817">
        <ele>423</ele>
        <time>2025-06-16T15:09:40Z</time>
      </trkpt>
      <trkpt lat="45.9427" lon="1.28174">
        <ele>423.1</ele>
        <time>2025-06-16T15:09:41Z</time>
      </trkpt>
      <trkpt lat="45.94268" lon="1.28178">
        <ele>423.2</ele>
        <time>2025-06-16T15:09:42Z</time>
      </trkpt>
      <trkpt lat="45.94267" lon="1.28182">
        <ele>423.4</ele>
        <time>2025-06-16T15:09:43Z</time>
      </trkpt>
      <trkpt lat="45.94263" lon="1.28189">
        <ele>423.6</ele>
        <time>2025-06-16T15:09:44Z</time>
      </trkpt>
      <trkpt lat="45.94261" lon="1.28192">
        <ele>423.7</ele>
        <time>2025-06-16T15:09:46Z</time>
      </trkpt>
      <trkpt lat="45.9426" lon="1.28196">
        <ele>423.8</ele>
        <time>2025-06-16T15:09:47Z</time>
      </trkpt>
      <trkpt lat="45.94259" lon="1.28199">
        <ele>423.9</ele>
        <time>2025-06-16T15:09:48Z</time>
      </trkpt>
      <trkpt lat="45.94257" lon="1.28202">
        <ele>424</ele>
        <time>2025-06-16T15:09:49Z</time>
      </trkpt>
      <trkpt lat="45.94255" lon="1.28206">
        <ele>424.1</ele>
        <time>2025-06-16T15:09:50Z</time>
      </trkpt>
      <trkpt lat="45.94253" lon="1.2821">
        <ele>424.3</ele>
        <time>2025-06-16T15:09:51Z</time>
      </trkpt>
      <trkpt lat="45.94252" lon="1.28213">
        <ele>424.4</ele>
        <time>2025-06-16T15:09:52Z</time>
      </trkpt>
      <trkpt lat="45.9425" lon="1.28217">
        <ele>424.5</ele>
        <time>2025-06-16T15:09:53Z</time>
      </trkpt>
      <trkpt lat="45.94247" lon="1.28221">
        <ele>424.5</ele>
        <time>2025-06-16T15:09:54Z</time>
      </trkpt>
      <trkpt lat="45.94245" lon="1.28224">
        <ele>424.6</ele>
        <time>2025-06-16T15:09:55Z</time>
      </trkpt>
      <trkpt lat="45.94243" lon="1.28228">
        <ele>424.7</ele>
        <time>2025-06-16T15:09:56Z</time>
      </trkpt>
      <trkpt lat="45.94241" lon="1.28231">
        <ele>424.7</ele>
        <time>2025-06-16T15:09:57Z</time>
      </trkpt>
      <trkpt lat="45.94239" lon="1.28234">
        <ele>424.7</ele>
        <time>2025-06-16T15:09:58Z</time>
      </trkpt>
      <trkpt lat="45.94237" lon="1.28238">
        <ele>424.8</ele>
        <time>2025-06-16T15:09:59Z</time>
      </trkpt>
      <trkpt lat="45.94234" lon="1.28241">
        <ele>424.8</ele>
        <time>2025-06-16T15:10:00Z</time>
      </trkpt>
      <trkpt lat="45.94232" lon="1.28245">
        <ele>424.8</ele>
        <time>2025-06-16T15:10:01Z</time>
      </trkpt>
      <trkpt lat="45.94231" lon="1.28249">
        <ele>424.8</ele>
        <time>2025-06-16T15:10:02Z</time>
      </trkpt>
      <trkpt lat="45.94229" lon="1.28253">
        <ele>424.8</ele>
        <time>2025-06-16T15:10:03Z</time>
      </trkpt>
      <trkpt lat="45.94229" lon="1.28258">
        <ele>424.8</ele>
        <time>2025-06-16T15:10:04Z</time>
      </trkpt>
      <trkpt lat="45.94228" lon="1.28264">
        <ele>424.8</ele>
        <time>2025-06-16T15:10:05Z</time>
      </trkpt>
      <trkpt lat="45.94226" lon="1.28269">
        <ele>424.7</ele>
        <time>2025-06-16T15:10:06Z</time>
      </trkpt>
      <trkpt lat="45.94222" lon="1.28279">
        <ele>424.3</ele>
        <time>2025-06-16T15:10:07Z</time>
      </trkpt>
      <trkpt lat="45.94219" lon="1.28285">
        <ele>424</ele>
        <time>2025-06-16T15:10:08Z</time>
      </trkpt>
      <trkpt lat="45.94217" lon="1.28292">
        <ele>423.7</ele>
        <time>2025-06-16T15:10:10Z</time>
      </trkpt>
      <trkpt lat="45.94215" lon="1.28298">
        <ele>423.3</ele>
        <time>2025-06-16T15:10:11Z</time>
      </trkpt>
      <trkpt lat="45.94213" lon="1.28307">
        <ele>422.8</ele>
        <time>2025-06-16T15:10:12Z</time>
      </trkpt>
      <trkpt lat="45.9421" lon="1.28314">
        <ele>422.4</ele>
        <time>2025-06-16T15:10:13Z</time>
      </trkpt>
      <trkpt lat="45.94208" lon="1.28323">
        <ele>421.9</ele>
        <time>2025-06-16T15:10:14Z</time>
      </trkpt>
      <trkpt lat="45.94205" lon="1.28329">
        <ele>421.4</ele>
        <time>2025-06-16T15:10:15Z</time>
      </trkpt>
      <trkpt lat="45.94203" lon="1.28337">
        <ele>420.9</ele>
        <time>2025-06-16T15:10:16Z</time>
      </trkpt>
      <trkpt lat="45.942" lon="1.28344">
        <ele>420.5</ele>
        <time>2025-06-16T15:10:17Z</time>
      </trkpt>
      <trkpt lat="45.94197" lon="1.28353">
        <ele>419.9</ele>
        <time>2025-06-16T15:10:18Z</time>
      </trkpt>
      <trkpt lat="45.94195" lon="1.28361">
        <ele>419.4</ele>
        <time>2025-06-16T15:10:19Z</time>
      </trkpt>
      <trkpt lat="45.94192" lon="1.2837">
        <ele>418.9</ele>
        <time>2025-06-16T15:10:20Z</time>
      </trkpt>
      <trkpt lat="45.9419" lon="1.28378">
        <ele>418.5</ele>
        <time>2025-06-16T15:10:21Z</time>
      </trkpt>
      <trkpt lat="45.94187" lon="1.28385">
        <ele>418.1</ele>
        <time>2025-06-16T15:10:22Z</time>
      </trkpt>
      <trkpt lat="45.94184" lon="1.28393">
        <ele>417.7</ele>
        <time>2025-06-16T15:10:23Z</time>
      </trkpt>
      <trkpt lat="45.94181" lon="1.28402">
        <ele>417.3</ele>
        <time>2025-06-16T15:10:24Z</time>
      </trkpt>
      <trkpt lat="45.94177" lon="1.28411">
        <ele>417</ele>
        <time>2025-06-16T15:10:25Z</time>
      </trkpt>
      <trkpt lat="45.94175" lon="1.28418">
        <ele>416.7</ele>
        <time>2025-06-16T15:10:26Z</time>
      </trkpt>
      <trkpt lat="45.94172" lon="1.28425">
        <ele>416.5</ele>
        <time>2025-06-16T15:10:27Z</time>
      </trkpt>
      <trkpt lat="45.9417" lon="1.28431">
        <ele>416.4</ele>
        <time>2025-06-16T15:10:28Z</time>
      </trkpt>
      <trkpt lat="45.94168" lon="1.28438">
        <ele>416.3</ele>
        <time>2025-06-16T15:10:29Z</time>
      </trkpt>
      <trkpt lat="45.94166" lon="1.28445">
        <ele>416.2</ele>
        <time>2025-06-16T15:10:30Z</time>
      </trkpt>
      <trkpt lat="45.94164" lon="1.28452">
        <ele>416.1</ele>
        <time>2025-06-16T15:10:31Z</time>
      </trkpt>
      <trkpt lat="45.94162" lon="1.28458">
        <ele>416.1</ele>
        <time>2025-06-16T15:10:32Z</time>
      </trkpt>
      <trkpt lat="45.9416" lon="1.28465">
        <ele>416</ele>
        <time>2025-06-16T15:10:33Z</time>
      </trkpt>
      <trkpt lat="45.94158" lon="1.28471">
        <ele>416</ele>
        <time>2025-06-16T15:10:34Z</time>
      </trkpt>
      <trkpt lat="45.94156" lon="1.28478">
        <ele>416</ele>
        <time>2025-06-16T15:10:35Z</time>
      </trkpt>
      <trkpt lat="45.94153" lon="1.28486">
        <ele>415.9</ele>
        <time>2025-06-16T15:10:36Z</time>
      </trkpt>
      <trkpt lat="45.94151" lon="1.28493">
        <ele>416</ele>
        <time>2025-06-16T15:10:37Z</time>
      </trkpt>
      <trkpt lat="45.94148" lon="1.28498">
        <ele>416</ele>
        <time>2025-06-16T15:10:38Z</time>
      </trkpt>
      <trkpt lat="45.94143" lon="1.28501">
        <ele>416</ele>
        <time>2025-06-16T15:10:39Z</time>
      </trkpt>
      <trkpt lat="45.94138" lon="1.28501">
        <ele>416</ele>
        <time>2025-06-16T15:10:40Z</time>
      </trkpt>
      <trkpt lat="45.94133" lon="1.28499">
        <ele>416</ele>
        <time>2025-06-16T15:10:41Z</time>
      </trkpt>
      <trkpt lat="45.94129" lon="1.28498">
        <ele>416.1</ele>
        <time>2025-06-16T15:10:42Z</time>
      </trkpt>
      <trkpt lat="45.94124" lon="1.28496">
        <ele>416.1</ele>
        <time>2025-06-16T15:10:43Z</time>
      </trkpt>
      <trkpt lat="45.9412" lon="1.28494">
        <ele>416.1</ele>
        <time>2025-06-16T15:10:44Z</time>
      </trkpt>
      <trkpt lat="45.94116" lon="1.28491">
        <ele>416.2</ele>
        <time>2025-06-16T15:10:45Z</time>
      </trkpt>
      <trkpt lat="45.94112" lon="1.2849">
        <ele>416.4</ele>
        <time>2025-06-16T15:10:46Z</time>
      </trkpt>
      <trkpt lat="45.94108" lon="1.2849">
        <ele>416.7</ele>
        <time>2025-06-16T15:10:47Z</time>
      </trkpt>
      <trkpt lat="45.94105" lon="1.28489">
        <ele>416.9</ele>
        <time>2025-06-16T15:10:48Z</time>
      </trkpt>
      <trkpt lat="45.94101" lon="1.28489">
        <ele>417.1</ele>
        <time>2025-06-16T15:10:49Z</time>
      </trkpt>
      <trkpt lat="45.94098" lon="1.28487">
        <ele>417.4</ele>
        <time>2025-06-16T15:10:50Z</time>
      </trkpt>
      <trkpt lat="45.94094" lon="1.28485">
        <ele>417.7</ele>
        <time>2025-06-16T15:10:51Z</time>
      </trkpt>
      <trkpt lat="45.94091" lon="1.28483">
        <ele>418</ele>
        <time>2025-06-16T15:10:52Z</time>
      </trkpt>
      <trkpt lat="45.94089" lon="1.28482">
        <ele>418.2</ele>
        <time>2025-06-16T15:10:53Z</time>
      </trkpt>
      <trkpt lat="45.94086" lon="1.2848">
        <ele>418.5</ele>
        <time>2025-06-16T15:10:54Z</time>
      </trkpt>
      <trkpt lat="45.94083" lon="1.28478">
        <ele>418.7</ele>
        <time>2025-06-16T15:10:55Z</time>
      </trkpt>
      <trkpt lat="45.94081" lon="1.28476">
        <ele>419</ele>
        <time>2025-06-16T15:10:56Z</time>
      </trkpt>
      <trkpt lat="45.94078" lon="1.28474">
        <ele>419.2</ele>
        <time>2025-06-16T15:10:57Z</time>
      </trkpt>
      <trkpt lat="45.94075" lon="1.28472">
        <ele>419.5</ele>
        <time>2025-06-16T15:10:58Z</time>
      </trkpt>
      <trkpt lat="45.94073" lon="1.28471">
        <ele>419.7</ele>
        <time>2025-06-16T15:10:59Z</time>
      </trkpt>
      <trkpt lat="45.94069" lon="1.28468">
        <ele>420</ele>
        <time>2025-06-16T15:11:00Z</time>
      </trkpt>
      <trkpt lat="45.94068" lon="1.28467">
        <ele>420.1</ele>
        <time>2025-06-16T15:11:01Z</time>
      </trkpt>
      <trkpt lat="45.94065" lon="1.28466">
        <ele>420.3</ele>
        <time>2025-06-16T15:11:02Z</time>
      </trkpt>
      <trkpt lat="45.94063" lon="1.28464">
        <ele>420.5</ele>
        <time>2025-06-16T15:11:03Z</time>
      </trkpt>
      <trkpt lat="45.9406" lon="1.28462">
        <ele>420.7</ele>
        <time>2025-06-16T15:11:04Z</time>
      </trkpt>
      <trkpt lat="45.94057" lon="1.28461">
        <ele>420.9</ele>
        <time>2025-06-16T15:11:05Z</time>
      </trkpt>
      <trkpt lat="45.94054" lon="1.28459">
        <ele>421</ele>
        <time>2025-06-16T15:11:06Z</time>
      </trkpt>
      <trkpt lat="45.94051" lon="1.28457">
        <ele>421.1</ele>
        <time>2025-06-16T15:11:07Z</time>
      </trkpt>
      <trkpt lat="45.94048" lon="1.28455">
        <ele>421.1</ele>
        <time>2025-06-16T15:11:08Z</time>
      </trkpt>
      <trkpt lat="45.94044" lon="1.28454">
        <ele>421.2</ele>
        <time>2025-06-16T15:11:09Z</time>
      </trkpt>
      <trkpt lat="45.94041" lon="1.28452">
        <ele>421.2</ele>
        <time>2025-06-16T15:11:10Z</time>
      </trkpt>
      <trkpt lat="45.94037" lon="1.28451">
        <ele>421.2</ele>
        <time>2025-06-16T15:11:11Z</time>
      </trkpt>
      <trkpt lat="45.94034" lon="1.28449">
        <ele>421.2</ele>
        <time>2025-06-16T15:11:12Z</time>
      </trkpt>
      <trkpt lat="45.94031" lon="1.28447">
        <ele>421.2</ele>
        <time>2025-06-16T15:11:13Z</time>
      </trkpt>
      <trkpt lat="45.94028" lon="1.28446">
        <ele>421.1</ele>
        <time>2025-06-16T15:11:14Z</time>
      </trkpt>
      <trkpt lat="45.94025" lon="1.28445">
        <ele>421.1</ele>
        <time>2025-06-16T15:11:15Z</time>
      </trkpt>
      <trkpt lat="45.94022" lon="1.28445">
        <ele>421</ele>
        <time>2025-06-16T15:11:16Z</time>
      </trkpt>
      <trkpt lat="45.94019" lon="1.28445">
        <ele>420.9</ele>
        <time>2025-06-16T15:11:17Z</time>
      </trkpt>
      <trkpt lat="45.94016" lon="1.28445">
        <ele>420.8</ele>
        <time>2025-06-16T15:11:18Z</time>
      </trkpt>
      <trkpt lat="45.94013" lon="1.28445">
        <ele>420.7</ele>
        <time>2025-06-16T15:11:19Z</time>
      </trkpt>
      <trkpt lat="45.94009" lon="1.28445">
        <ele>420.5</ele>
        <time>2025-06-16T15:11:20Z</time>
      </trkpt>
      <trkpt lat="45.94005" lon="1.28446">
        <ele>420.4</ele>
        <time>2025-06-16T15:11:21Z</time>
      </trkpt>
      <trkpt lat="45.94002" lon="1.28447">
        <ele>420.3</ele>
        <time>2025-06-16T15:11:22Z</time>
      </trkpt>
      <trkpt lat="45.93997" lon="1.28449">
        <ele>420.1</ele>
        <time>2025-06-16T15:11:23Z</time>
      </trkpt>
      <trkpt lat="45.93993" lon="1.28451">
        <ele>420</ele>
        <time>2025-06-16T15:11:24Z</time>
      </trkpt>
      <trkpt lat="45.93989" lon="1.28452">
        <ele>419.8</ele>
        <time>2025-06-16T15:11:25Z</time>
      </trkpt>
      <trkpt lat="45.9398" lon="1.28457">
        <ele>419.6</ele>
        <time>2025-06-16T15:11:26Z</time>
      </trkpt>
      <trkpt lat="45.93975" lon="1.2846">
        <ele>419.4</ele>
        <time>2025-06-16T15:11:28Z</time>
      </trkpt>
      <trkpt lat="45.9397" lon="1.28462">
        <ele>419.3</ele>
        <time>2025-06-16T15:11:29Z</time>
      </trkpt>
      <trkpt lat="45.93965" lon="1.28464">
        <ele>419.1</ele>
        <time>2025-06-16T15:11:30Z</time>
      </trkpt>
      <trkpt lat="45.93961" lon="1.28466">
        <ele>419</ele>
        <time>2025-06-16T15:11:31Z</time>
      </trkpt>
      <trkpt lat="45.93953" lon="1.28469">
        <ele>418.7</ele>
        <time>2025-06-16T15:11:32Z</time>
      </trkpt>
      <trkpt lat="45.93948" lon="1.28471">
        <ele>418.5</ele>
        <time>2025-06-16T15:11:34Z</time>
      </trkpt>
      <trkpt lat="45.93944" lon="1.28472">
        <ele>418.4</ele>
        <time>2025-06-16T15:11:35Z</time>
      </trkpt>
      <trkpt lat="45.93939" lon="1.28474">
        <ele>418.2</ele>
        <time>2025-06-16T15:11:36Z</time>
      </trkpt>
      <trkpt lat="45.93931" lon="1.28479">
        <ele>417.9</ele>
        <time>2025-06-16T15:11:37Z</time>
      </trkpt>
      <trkpt lat="45.93925" lon="1.28479">
        <ele>417.7</ele>
        <time>2025-06-16T15:11:38Z</time>
      </trkpt>
      <trkpt lat="45.93921" lon="1.2848">
        <ele>417.6</ele>
        <time>2025-06-16T15:11:40Z</time>
      </trkpt>
      <trkpt lat="45.93916" lon="1.2848">
        <ele>417.4</ele>
        <time>2025-06-16T15:11:41Z</time>
      </trkpt>
      <trkpt lat="45.93907" lon="1.28482">
        <ele>417.1</ele>
        <time>2025-06-16T15:11:42Z</time>
      </trkpt>
      <trkpt lat="45.93903" lon="1.28482">
        <ele>416.9</ele>
        <time>2025-06-16T15:11:44Z</time>
      </trkpt>
      <trkpt lat="45.93898" lon="1.28482">
        <ele>416.8</ele>
        <time>2025-06-16T15:11:45Z</time>
      </trkpt>
      <trkpt lat="45.93894" lon="1.28481">
        <ele>416.7</ele>
        <time>2025-06-16T15:11:46Z</time>
      </trkpt>
      <trkpt lat="45.93888" lon="1.28479">
        <ele>416.5</ele>
        <time>2025-06-16T15:11:47Z</time>
      </trkpt>
      <trkpt lat="45.93883" lon="1.28477">
        <ele>416.3</ele>
        <time>2025-06-16T15:11:48Z</time>
      </trkpt>
      <trkpt lat="45.93878" lon="1.28476">
        <ele>416.2</ele>
        <time>2025-06-16T15:11:49Z</time>
      </trkpt>
      <trkpt lat="45.93873" lon="1.28476">
        <ele>416.1</ele>
        <time>2025-06-16T15:11:50Z</time>
      </trkpt>
      <trkpt lat="45.93867" lon="1.28476">
        <ele>415.9</ele>
        <time>2025-06-16T15:11:51Z</time>
      </trkpt>
      <trkpt lat="45.93861" lon="1.28475">
        <ele>415.8</ele>
        <time>2025-06-16T15:11:52Z</time>
      </trkpt>
      <trkpt lat="45.93855" lon="1.28472">
        <ele>415.6</ele>
        <time>2025-06-16T15:11:53Z</time>
      </trkpt>
      <trkpt lat="45.9385" lon="1.28466">
        <ele>415.4</ele>
        <time>2025-06-16T15:11:54Z</time>
      </trkpt>
      <trkpt lat="45.93847" lon="1.2846">
        <ele>415.2</ele>
        <time>2025-06-16T15:11:55Z</time>
      </trkpt>
      <trkpt lat="45.93843" lon="1.28453">
        <ele>415</ele>
        <time>2025-06-16T15:11:56Z</time>
      </trkpt>
      <trkpt lat="45.9384" lon="1.28447">
        <ele>414.8</ele>
        <time>2025-06-16T15:11:57Z</time>
      </trkpt>
      <trkpt lat="45.93837" lon="1.2844">
        <ele>414.6</ele>
        <time>2025-06-16T15:11:58Z</time>
      </trkpt>
      <trkpt lat="45.93832" lon="1.28433">
        <ele>414.4</ele>
        <time>2025-06-16T15:11:59Z</time>
      </trkpt>
      <trkpt lat="45.93825" lon="1.28419">
        <ele>414</ele>
        <time>2025-06-16T15:12:00Z</time>
      </trkpt>
      <trkpt lat="45.93821" lon="1.28412">
        <ele>413.9</ele>
        <time>2025-06-16T15:12:02Z</time>
      </trkpt>
      <trkpt lat="45.93818" lon="1.28404">
        <ele>413.7</ele>
        <time>2025-06-16T15:12:03Z</time>
      </trkpt>
      <trkpt lat="45.93814" lon="1.28397">
        <ele>413.5</ele>
        <time>2025-06-16T15:12:04Z</time>
      </trkpt>
      <trkpt lat="45.9381" lon="1.28389">
        <ele>413.2</ele>
        <time>2025-06-16T15:12:05Z</time>
      </trkpt>
      <trkpt lat="45.93806" lon="1.28381">
        <ele>412.9</ele>
        <time>2025-06-16T15:12:06Z</time>
      </trkpt>
      <trkpt lat="45.93802" lon="1.28373">
        <ele>412.5</ele>
        <time>2025-06-16T15:12:07Z</time>
      </trkpt>
      <trkpt lat="45.93799" lon="1.28364">
        <ele>412.1</ele>
        <time>2025-06-16T15:12:08Z</time>
      </trkpt>
      <trkpt lat="45.93797" lon="1.28355">
        <ele>411.7</ele>
        <time>2025-06-16T15:12:09Z</time>
      </trkpt>
      <trkpt lat="45.93795" lon="1.28345">
        <ele>411.1</ele>
        <time>2025-06-16T15:12:10Z</time>
      </trkpt>
      <trkpt lat="45.93795" lon="1.28334">
        <ele>410.5</ele>
        <time>2025-06-16T15:12:11Z</time>
      </trkpt>
      <trkpt lat="45.93796" lon="1.28322">
        <ele>409.8</ele>
        <time>2025-06-16T15:12:12Z</time>
      </trkpt>
      <trkpt lat="45.93797" lon="1.28311">
        <ele>409.1</ele>
        <time>2025-06-16T15:12:13Z</time>
      </trkpt>
      <trkpt lat="45.93799" lon="1.28299">
        <ele>408.3</ele>
        <time>2025-06-16T15:12:14Z</time>
      </trkpt>
      <trkpt lat="45.93802" lon="1.28287">
        <ele>407.4</ele>
        <time>2025-06-16T15:12:15Z</time>
      </trkpt>
      <trkpt lat="45.93804" lon="1.28274">
        <ele>406.5</ele>
        <time>2025-06-16T15:12:16Z</time>
      </trkpt>
      <trkpt lat="45.93807" lon="1.28262">
        <ele>405.6</ele>
        <time>2025-06-16T15:12:17Z</time>
      </trkpt>
      <trkpt lat="45.93808" lon="1.28248">
        <ele>404.7</ele>
        <time>2025-06-16T15:12:18Z</time>
      </trkpt>
      <trkpt lat="45.93809" lon="1.28235">
        <ele>404.1</ele>
        <time>2025-06-16T15:12:19Z</time>
      </trkpt>
      <trkpt lat="45.93807" lon="1.28222">
        <ele>403.6</ele>
        <time>2025-06-16T15:12:20Z</time>
      </trkpt>
      <trkpt lat="45.93805" lon="1.28208">
        <ele>403</ele>
        <time>2025-06-16T15:12:21Z</time>
      </trkpt>
      <trkpt lat="45.938" lon="1.28194">
        <ele>402.4</ele>
        <time>2025-06-16T15:12:22Z</time>
      </trkpt>
      <trkpt lat="45.93795" lon="1.28182">
        <ele>401.9</ele>
        <time>2025-06-16T15:12:23Z</time>
      </trkpt>
      <trkpt lat="45.93785" lon="1.28175">
        <ele>401.2</ele>
        <time>2025-06-16T15:12:24Z</time>
      </trkpt>
      <trkpt lat="45.93776" lon="1.28168">
        <ele>400.7</ele>
        <time>2025-06-16T15:12:25Z</time>
      </trkpt>
      <trkpt lat="45.93766" lon="1.28161">
        <ele>400.4</ele>
        <time>2025-06-16T15:12:26Z</time>
      </trkpt>
      <trkpt lat="45.93756" lon="1.28154">
        <ele>400.5</ele>
        <time>2025-06-16T15:12:27Z</time>
      </trkpt>
      <trkpt lat="45.93748" lon="1.28146">
        <ele>400.8</ele>
        <time>2025-06-16T15:12:28Z</time>
      </trkpt>
      <trkpt lat="45.93739" lon="1.28139">
        <ele>401.3</ele>
        <time>2025-06-16T15:12:29Z</time>
      </trkpt>
      <trkpt lat="45.93732" lon="1.28133">
        <ele>401.8</ele>
        <time>2025-06-16T15:12:30Z</time>
      </trkpt>
      <trkpt lat="45.93724" lon="1.28126">
        <ele>402.3</ele>
        <time>2025-06-16T15:12:31Z</time>
      </trkpt>
      <trkpt lat="45.93719" lon="1.28119">
        <ele>402.8</ele>
        <time>2025-06-16T15:12:32Z</time>
      </trkpt>
      <trkpt lat="45.93714" lon="1.28113">
        <ele>403.3</ele>
        <time>2025-06-16T15:12:33Z</time>
      </trkpt>
      <trkpt lat="45.93709" lon="1.28107">
        <ele>403.7</ele>
        <time>2025-06-16T15:12:34Z</time>
      </trkpt>
      <trkpt lat="45.93705" lon="1.28102">
        <ele>404.2</ele>
        <time>2025-06-16T15:12:35Z</time>
      </trkpt>
      <trkpt lat="45.93701" lon="1.28099">
        <ele>404.5</ele>
        <time>2025-06-16T15:12:36Z</time>
      </trkpt>
      <trkpt lat="45.93697" lon="1.28095">
        <ele>404.8</ele>
        <time>2025-06-16T15:12:37Z</time>
      </trkpt>
      <trkpt lat="45.93694" lon="1.28092">
        <ele>405.1</ele>
        <time>2025-06-16T15:12:38Z</time>
      </trkpt>
      <trkpt lat="45.9369" lon="1.28089">
        <ele>405.4</ele>
        <time>2025-06-16T15:12:39Z</time>
      </trkpt>
      <trkpt lat="45.93686" lon="1.28085">
        <ele>405.7</ele>
        <time>2025-06-16T15:12:40Z</time>
      </trkpt>
      <trkpt lat="45.93683" lon="1.28083">
        <ele>406</ele>
        <time>2025-06-16T15:12:41Z</time>
      </trkpt>
      <trkpt lat="45.93679" lon="1.28081">
        <ele>406.2</ele>
        <time>2025-06-16T15:12:42Z</time>
      </trkpt>
      <trkpt lat="45.93676" lon="1.2808">
        <ele>406.5</ele>
        <time>2025-06-16T15:12:43Z</time>
      </trkpt>
      <trkpt lat="45.93672" lon="1.28079">
        <ele>406.7</ele>
        <time>2025-06-16T15:12:44Z</time>
      </trkpt>
      <trkpt lat="45.93669" lon="1.28078">
        <ele>406.9</ele>
        <time>2025-06-16T15:12:45Z</time>
      </trkpt>
      <trkpt lat="45.93666" lon="1.28077">
        <ele>407.2</ele>
        <time>2025-06-16T15:12:46Z</time>
      </trkpt>
      <trkpt lat="45.93662" lon="1.28076">
        <ele>407.4</ele>
        <time>2025-06-16T15:12:47Z</time>
      </trkpt>
      <trkpt lat="45.93658" lon="1.28076">
        <ele>407.6</ele>
        <time>2025-06-16T15:12:48Z</time>
      </trkpt>
      <trkpt lat="45.93655" lon="1.28076">
        <ele>407.8</ele>
        <time>2025-06-16T15:12:49Z</time>
      </trkpt>
      <trkpt lat="45.93651" lon="1.28076">
        <ele>408</ele>
        <time>2025-06-16T15:12:50Z</time>
      </trkpt>
      <trkpt lat="45.93647" lon="1.28076">
        <ele>408.2</ele>
        <time>2025-06-16T15:12:51Z</time>
      </trkpt>
      <trkpt lat="45.93643" lon="1.28076">
        <ele>408.4</ele>
        <time>2025-06-16T15:12:52Z</time>
      </trkpt>
      <trkpt lat="45.93639" lon="1.28077">
        <ele>408.6</ele>
        <time>2025-06-16T15:12:53Z</time>
      </trkpt>
      <trkpt lat="45.93635" lon="1.28077">
        <ele>408.8</ele>
        <time>2025-06-16T15:12:54Z</time>
      </trkpt>
      <trkpt lat="45.93631" lon="1.28078">
        <ele>409</ele>
        <time>2025-06-16T15:12:55Z</time>
      </trkpt>
      <trkpt lat="45.93627" lon="1.28078">
        <ele>409.2</ele>
        <time>2025-06-16T15:12:56Z</time>
      </trkpt>
      <trkpt lat="45.93623" lon="1.28079">
        <ele>409.4</ele>
        <time>2025-06-16T15:12:57Z</time>
      </trkpt>
      <trkpt lat="45.93619" lon="1.2808">
        <ele>409.6</ele>
        <time>2025-06-16T15:12:58Z</time>
      </trkpt>
      <trkpt lat="45.93615" lon="1.2808">
        <ele>409.7</ele>
        <time>2025-06-16T15:12:59Z</time>
      </trkpt>
      <trkpt lat="45.93611" lon="1.28079">
        <ele>409.9</ele>
        <time>2025-06-16T15:13:00Z</time>
      </trkpt>
      <trkpt lat="45.93607" lon="1.28079">
        <ele>410.1</ele>
        <time>2025-06-16T15:13:01Z</time>
      </trkpt>
      <trkpt lat="45.93603" lon="1.28078">
        <ele>410.3</ele>
        <time>2025-06-16T15:13:02Z</time>
      </trkpt>
      <trkpt lat="45.93599" lon="1.28078">
        <ele>410.5</ele>
        <time>2025-06-16T15:13:03Z</time>
      </trkpt>
      <trkpt lat="45.93595" lon="1.28077">
        <ele>410.6</ele>
        <time>2025-06-16T15:13:04Z</time>
      </trkpt>
      <trkpt lat="45.93592" lon="1.28077">
        <ele>410.8</ele>
        <time>2025-06-16T15:13:05Z</time>
      </trkpt>
      <trkpt lat="45.93588" lon="1.28077">
        <ele>411</ele>
        <time>2025-06-16T15:13:06Z</time>
      </trkpt>
      <trkpt lat="45.93584" lon="1.28076">
        <ele>411.1</ele>
        <time>2025-06-16T15:13:07Z</time>
      </trkpt>
      <trkpt lat="45.9358" lon="1.28076">
        <ele>411.2</ele>
        <time>2025-06-16T15:13:08Z</time>
      </trkpt>
      <trkpt lat="45.93576" lon="1.28075">
        <ele>411.3</ele>
        <time>2025-06-16T15:13:09Z</time>
      </trkpt>
      <trkpt lat="45.93572" lon="1.28075">
        <ele>411.4</ele>
        <time>2025-06-16T15:13:10Z</time>
      </trkpt>
      <trkpt lat="45.93568" lon="1.28074">
        <ele>411.5</ele>
        <time>2025-06-16T15:13:11Z</time>
      </trkpt>
      <trkpt lat="45.93564" lon="1.28074">
        <ele>411.5</ele>
        <time>2025-06-16T15:13:12Z</time>
      </trkpt>
      <trkpt lat="45.9356" lon="1.28073">
        <ele>411.6</ele>
        <time>2025-06-16T15:13:13Z</time>
      </trkpt>
      <trkpt lat="45.93556" lon="1.28072">
        <ele>411.6</ele>
        <time>2025-06-16T15:13:14Z</time>
      </trkpt>
      <trkpt lat="45.93546" lon="1.28072">
        <ele>411.5</ele>
        <time>2025-06-16T15:13:15Z</time>
      </trkpt>
      <trkpt lat="45.93542" lon="1.28072">
        <ele>411.5</ele>
        <time>2025-06-16T15:13:17Z</time>
      </trkpt>
      <trkpt lat="45.93537" lon="1.28073">
        <ele>411.4</ele>
        <time>2025-06-16T15:13:18Z</time>
      </trkpt>
      <trkpt lat="45.93532" lon="1.28073">
        <ele>411.4</ele>
        <time>2025-06-16T15:13:19Z</time>
      </trkpt>
      <trkpt lat="45.93526" lon="1.28073">
        <ele>411.4</ele>
        <time>2025-06-16T15:13:20Z</time>
      </trkpt>
      <trkpt lat="45.9352" lon="1.28073">
        <ele>411.3</ele>
        <time>2025-06-16T15:13:21Z</time>
      </trkpt>
      <trkpt lat="45.93515" lon="1.28073">
        <ele>411.3</ele>
        <time>2025-06-16T15:13:22Z</time>
      </trkpt>
      <trkpt lat="45.93511" lon="1.28075">
        <ele>411.3</ele>
        <time>2025-06-16T15:13:23Z</time>
      </trkpt>
      <trkpt lat="45.93507" lon="1.28075">
        <ele>411.3</ele>
        <time>2025-06-16T15:13:24Z</time>
      </trkpt>
      <trkpt lat="45.93503" lon="1.28075">
        <ele>411.3</ele>
        <time>2025-06-16T15:13:25Z</time>
      </trkpt>
      <trkpt lat="45.93499" lon="1.28075">
        <ele>411.3</ele>
        <time>2025-06-16T15:13:26Z</time>
      </trkpt>
      <trkpt lat="45.93495" lon="1.28076">
        <ele>411.4</ele>
        <time>2025-06-16T15:13:27Z</time>
      </trkpt>
      <trkpt lat="45.93492" lon="1.28077">
        <ele>411.4</ele>
        <time>2025-06-16T15:13:28Z</time>
      </trkpt>
      <trkpt lat="45.93488" lon="1.28077">
        <ele>411.4</ele>
        <time>2025-06-16T15:13:29Z</time>
      </trkpt>
      <trkpt lat="45.93484" lon="1.28077">
        <ele>411.4</ele>
        <time>2025-06-16T15:13:30Z</time>
      </trkpt>
      <trkpt lat="45.9348" lon="1.28077">
        <ele>411.4</ele>
        <time>2025-06-16T15:13:31Z</time>
      </trkpt>
      <trkpt lat="45.93476" lon="1.28076">
        <ele>411.4</ele>
        <time>2025-06-16T15:13:32Z</time>
      </trkpt>
      <trkpt lat="45.93472" lon="1.28075">
        <ele>411.4</ele>
        <time>2025-06-16T15:13:33Z</time>
      </trkpt>
      <trkpt lat="45.93465" lon="1.28076">
        <ele>411.3</ele>
        <time>2025-06-16T15:13:34Z</time>
      </trkpt>
      <trkpt lat="45.9346" lon="1.28074">
        <ele>411.1</ele>
        <time>2025-06-16T15:13:35Z</time>
      </trkpt>
      <trkpt lat="45.93455" lon="1.28073">
        <ele>411</ele>
        <time>2025-06-16T15:13:36Z</time>
      </trkpt>
      <trkpt lat="45.9345" lon="1.2807">
        <ele>410.8</ele>
        <time>2025-06-16T15:13:37Z</time>
      </trkpt>
      <trkpt lat="45.93445" lon="1.28067">
        <ele>410.6</ele>
        <time>2025-06-16T15:13:38Z</time>
      </trkpt>
      <trkpt lat="45.9344" lon="1.28063">
        <ele>410.3</ele>
        <time>2025-06-16T15:13:39Z</time>
      </trkpt>
      <trkpt lat="45.93434" lon="1.28061">
        <ele>410</ele>
        <time>2025-06-16T15:13:40Z</time>
      </trkpt>
      <trkpt lat="45.93427" lon="1.28059">
        <ele>409.6</ele>
        <time>2025-06-16T15:13:41Z</time>
      </trkpt>
      <trkpt lat="45.93421" lon="1.28056">
        <ele>409.3</ele>
        <time>2025-06-16T15:13:42Z</time>
      </trkpt>
      <trkpt lat="45.93415" lon="1.28052">
        <ele>408.9</ele>
        <time>2025-06-16T15:13:43Z</time>
      </trkpt>
      <trkpt lat="45.93409" lon="1.28048">
        <ele>408.6</ele>
        <time>2025-06-16T15:13:44Z</time>
      </trkpt>
      <trkpt lat="45.93403" lon="1.28044">
        <ele>408.3</ele>
        <time>2025-06-16T15:13:45Z</time>
      </trkpt>
      <trkpt lat="45.93397" lon="1.2804">
        <ele>408</ele>
        <time>2025-06-16T15:13:46Z</time>
      </trkpt>
      <trkpt lat="45.9339" lon="1.28037">
        <ele>407.7</ele>
        <time>2025-06-16T15:13:47Z</time>
      </trkpt>
      <trkpt lat="45.93384" lon="1.28034">
        <ele>407.5</ele>
        <time>2025-06-16T15:13:48Z</time>
      </trkpt>
      <trkpt lat="45.93378" lon="1.2803">
        <ele>407.4</ele>
        <time>2025-06-16T15:13:49Z</time>
      </trkpt>
      <trkpt lat="45.93371" lon="1.28027">
        <ele>407.3</ele>
        <time>2025-06-16T15:13:50Z</time>
      </trkpt>
      <trkpt lat="45.93365" lon="1.28025">
        <ele>407.3</ele>
        <time>2025-06-16T15:13:51Z</time>
      </trkpt>
      <trkpt lat="45.93358" lon="1.28022">
        <ele>407.3</ele>
        <time>2025-06-16T15:13:52Z</time>
      </trkpt>
      <trkpt lat="45.93353" lon="1.2802">
        <ele>407.4</ele>
        <time>2025-06-16T15:13:53Z</time>
      </trkpt>
      <trkpt lat="45.93347" lon="1.28019">
        <ele>407.5</ele>
        <time>2025-06-16T15:13:54Z</time>
      </trkpt>
      <trkpt lat="45.93343" lon="1.28017">
        <ele>407.6</ele>
        <time>2025-06-16T15:13:55Z</time>
      </trkpt>
      <trkpt lat="45.93339" lon="1.28017">
        <ele>407.7</ele>
        <time>2025-06-16T15:13:56Z</time>
      </trkpt>
      <trkpt lat="45.93335" lon="1.28016">
        <ele>407.9</ele>
        <time>2025-06-16T15:13:57Z</time>
      </trkpt>
      <trkpt lat="45.93331" lon="1.28016">
        <ele>408</ele>
        <time>2025-06-16T15:13:58Z</time>
      </trkpt>
      <trkpt lat="45.93327" lon="1.28016">
        <ele>408.1</ele>
        <time>2025-06-16T15:13:59Z</time>
      </trkpt>
      <trkpt lat="45.93323" lon="1.28016">
        <ele>408.3</ele>
        <time>2025-06-16T15:14:00Z</time>
      </trkpt>
      <trkpt lat="45.93319" lon="1.28016">
        <ele>408.4</ele>
        <time>2025-06-16T15:14:01Z</time>
      </trkpt>
      <trkpt lat="45.93316" lon="1.28017">
        <ele>408.5</ele>
        <time>2025-06-16T15:14:02Z</time>
      </trkpt>
      <trkpt lat="45.93312" lon="1.28018">
        <ele>408.7</ele>
        <time>2025-06-16T15:14:03Z</time>
      </trkpt>
      <trkpt lat="45.93308" lon="1.28018">
        <ele>408.8</ele>
        <time>2025-06-16T15:14:04Z</time>
      </trkpt>
      <trkpt lat="45.93304" lon="1.28018">
        <ele>409</ele>
        <time>2025-06-16T15:14:05Z</time>
      </trkpt>
      <trkpt lat="45.933" lon="1.28017">
        <ele>409.1</ele>
        <time>2025-06-16T15:14:06Z</time>
      </trkpt>
      <trkpt lat="45.93297" lon="1.28016">
        <ele>409.2</ele>
        <time>2025-06-16T15:14:07Z</time>
      </trkpt>
      <trkpt lat="45.93294" lon="1.28016">
        <ele>409.3</ele>
        <time>2025-06-16T15:14:08Z</time>
      </trkpt>
      <trkpt lat="45.9329" lon="1.28016">
        <ele>409.4</ele>
        <time>2025-06-16T15:14:09Z</time>
      </trkpt>
      <trkpt lat="45.93286" lon="1.28017">
        <ele>409.5</ele>
        <time>2025-06-16T15:14:10Z</time>
      </trkpt>
      <trkpt lat="45.93283" lon="1.28017">
        <ele>409.6</ele>
        <time>2025-06-16T15:14:11Z</time>
      </trkpt>
      <trkpt lat="45.9328" lon="1.28018">
        <ele>409.6</ele>
        <time>2025-06-16T15:14:12Z</time>
      </trkpt>
      <trkpt lat="45.93275" lon="1.28018">
        <ele>409.6</ele>
        <time>2025-06-16T15:14:13Z</time>
      </trkpt>
      <trkpt lat="45.93268" lon="1.28019">
        <ele>409.6</ele>
        <time>2025-06-16T15:14:14Z</time>
      </trkpt>
      <trkpt lat="45.93264" lon="1.28021">
        <ele>409.6</ele>
        <time>2025-06-16T15:14:16Z</time>
      </trkpt>
      <trkpt lat="45.9326" lon="1.28023">
        <ele>409.5</ele>
        <time>2025-06-16T15:14:17Z</time>
      </trkpt>
      <trkpt lat="45.93256" lon="1.28024">
        <ele>409.4</ele>
        <time>2025-06-16T15:14:18Z</time>
      </trkpt>
      <trkpt lat="45.93251" lon="1.28026">
        <ele>409.4</ele>
        <time>2025-06-16T15:14:19Z</time>
      </trkpt>
      <trkpt lat="45.93247" lon="1.28027">
        <ele>409.3</ele>
        <time>2025-06-16T15:14:20Z</time>
      </trkpt>
      <trkpt lat="45.93243" lon="1.28029">
        <ele>409.3</ele>
        <time>2025-06-16T15:14:21Z</time>
      </trkpt>
      <trkpt lat="45.93236" lon="1.28033">
        <ele>409.1</ele>
        <time>2025-06-16T15:14:22Z</time>
      </trkpt>
      <trkpt lat="45.9323" lon="1.28035">
        <ele>409</ele>
        <time>2025-06-16T15:14:24Z</time>
      </trkpt>
      <trkpt lat="45.93224" lon="1.28037">
        <ele>408.8</ele>
        <time>2025-06-16T15:14:25Z</time>
      </trkpt>
      <trkpt lat="45.93219" lon="1.28039">
        <ele>408.6</ele>
        <time>2025-06-16T15:14:26Z</time>
      </trkpt>
      <trkpt lat="45.93214" lon="1.28041">
        <ele>408.3</ele>
        <time>2025-06-16T15:14:27Z</time>
      </trkpt>
      <trkpt lat="45.93208" lon="1.28043">
        <ele>408</ele>
        <time>2025-06-16T15:14:28Z</time>
      </trkpt>
      <trkpt lat="45.93202" lon="1.28046">
        <ele>407.7</ele>
        <time>2025-06-16T15:14:29Z</time>
      </trkpt>
      <trkpt lat="45.93196" lon="1.28048">
        <ele>407.4</ele>
        <time>2025-06-16T15:14:30Z</time>
      </trkpt>
      <trkpt lat="45.9319" lon="1.2805">
        <ele>407.2</ele>
        <time>2025-06-16T15:14:31Z</time>
      </trkpt>
      <trkpt lat="45.93184" lon="1.28054">
        <ele>406.9</ele>
        <time>2025-06-16T15:14:32Z</time>
      </trkpt>
      <trkpt lat="45.93179" lon="1.28058">
        <ele>406.6</ele>
        <time>2025-06-16T15:14:33Z</time>
      </trkpt>
      <trkpt lat="45.93173" lon="1.28061">
        <ele>406.4</ele>
        <time>2025-06-16T15:14:34Z</time>
      </trkpt>
      <trkpt lat="45.93167" lon="1.28063">
        <ele>406.2</ele>
        <time>2025-06-16T15:14:35Z</time>
      </trkpt>
      <trkpt lat="45.93161" lon="1.28065">
        <ele>405.9</ele>
        <time>2025-06-16T15:14:36Z</time>
      </trkpt>
      <trkpt lat="45.93155" lon="1.28068">
        <ele>405.7</ele>
        <time>2025-06-16T15:14:37Z</time>
      </trkpt>
      <trkpt lat="45.93148" lon="1.28071">
        <ele>405.5</ele>
        <time>2025-06-16T15:14:38Z</time>
      </trkpt>
      <trkpt lat="45.93142" lon="1.28074">
        <ele>405.3</ele>
        <time>2025-06-16T15:14:39Z</time>
      </trkpt>
      <trkpt lat="45.93136" lon="1.28077">
        <ele>405.1</ele>
        <time>2025-06-16T15:14:40Z</time>
      </trkpt>
      <trkpt lat="45.9313" lon="1.28078">
        <ele>404.9</ele>
        <time>2025-06-16T15:14:41Z</time>
      </trkpt>
      <trkpt lat="45.93123" lon="1.28081">
        <ele>404.7</ele>
        <time>2025-06-16T15:14:42Z</time>
      </trkpt>
      <trkpt lat="45.93117" lon="1.28083">
        <ele>404.5</ele>
        <time>2025-06-16T15:14:43Z</time>
      </trkpt>
      <trkpt lat="45.93111" lon="1.28086">
        <ele>404.4</ele>
        <time>2025-06-16T15:14:44Z</time>
      </trkpt>
      <trkpt lat="45.93105" lon="1.28089">
        <ele>404.2</ele>
        <time>2025-06-16T15:14:45Z</time>
      </trkpt>
      <trkpt lat="45.93098" lon="1.28092">
        <ele>404.1</ele>
        <time>2025-06-16T15:14:46Z</time>
      </trkpt>
      <trkpt lat="45.93092" lon="1.28094">
        <ele>403.9</ele>
        <time>2025-06-16T15:14:47Z</time>
      </trkpt>
      <trkpt lat="45.93086" lon="1.28096">
        <ele>403.8</ele>
        <time>2025-06-16T15:14:48Z</time>
      </trkpt>
      <trkpt lat="45.9308" lon="1.28099">
        <ele>403.6</ele>
        <time>2025-06-16T15:14:49Z</time>
      </trkpt>
      <trkpt lat="45.93074" lon="1.28101">
        <ele>403.4</ele>
        <time>2025-06-16T15:14:50Z</time>
      </trkpt>
      <trkpt lat="45.93067" lon="1.28104">
        <ele>403.3</ele>
        <time>2025-06-16T15:14:51Z</time>
      </trkpt>
      <trkpt lat="45.93061" lon="1.28107">
        <ele>403.1</ele>
        <time>2025-06-16T15:14:52Z</time>
      </trkpt>
      <trkpt lat="45.93055" lon="1.2811">
        <ele>403</ele>
        <time>2025-06-16T15:14:53Z</time>
      </trkpt>
      <trkpt lat="45.93049" lon="1.28112">
        <ele>402.9</ele>
        <time>2025-06-16T15:14:54Z</time>
      </trkpt>
      <trkpt lat="45.93043" lon="1.28114">
        <ele>402.7</ele>
        <time>2025-06-16T15:14:55Z</time>
      </trkpt>
      <trkpt lat="45.93037" lon="1.28117">
        <ele>402.6</ele>
        <time>2025-06-16T15:14:56Z</time>
      </trkpt>
      <trkpt lat="45.93031" lon="1.28119">
        <ele>402.5</ele>
        <time>2025-06-16T15:14:57Z</time>
      </trkpt>
      <trkpt lat="45.93024" lon="1.28122">
        <ele>402.4</ele>
        <time>2025-06-16T15:14:58Z</time>
      </trkpt>
      <trkpt lat="45.93018" lon="1.28124">
        <ele>402.3</ele>
        <time>2025-06-16T15:14:59Z</time>
      </trkpt>
      <trkpt lat="45.93012" lon="1.28127">
        <ele>402.2</ele>
        <time>2025-06-16T15:15:00Z</time>
      </trkpt>
      <trkpt lat="45.93007" lon="1.28129">
        <ele>402.1</ele>
        <time>2025-06-16T15:15:01Z</time>
      </trkpt>
      <trkpt lat="45.93001" lon="1.28131">
        <ele>402</ele>
        <time>2025-06-16T15:15:02Z</time>
      </trkpt>
      <trkpt lat="45.92995" lon="1.28133">
        <ele>401.9</ele>
        <time>2025-06-16T15:15:03Z</time>
      </trkpt>
      <trkpt lat="45.92984" lon="1.28134">
        <ele>401.7</ele>
        <time>2025-06-16T15:15:04Z</time>
      </trkpt>
      <trkpt lat="45.92978" lon="1.28134">
        <ele>401.6</ele>
        <time>2025-06-16T15:15:06Z</time>
      </trkpt>
      <trkpt lat="45.92972" lon="1.28134">
        <ele>401.5</ele>
        <time>2025-06-16T15:15:07Z</time>
      </trkpt>
      <trkpt lat="45.92966" lon="1.28133">
        <ele>401.4</ele>
        <time>2025-06-16T15:15:08Z</time>
      </trkpt>
      <trkpt lat="45.92961" lon="1.28132">
        <ele>401.3</ele>
        <time>2025-06-16T15:15:09Z</time>
      </trkpt>
      <trkpt lat="45.92955" lon="1.2813">
        <ele>401.1</ele>
        <time>2025-06-16T15:15:10Z</time>
      </trkpt>
      <trkpt lat="45.9295" lon="1.28128">
        <ele>401</ele>
        <time>2025-06-16T15:15:11Z</time>
      </trkpt>
      <trkpt lat="45.92944" lon="1.28126">
        <ele>400.8</ele>
        <time>2025-06-16T15:15:12Z</time>
      </trkpt>
      <trkpt lat="45.92938" lon="1.28123">
        <ele>400.7</ele>
        <time>2025-06-16T15:15:13Z</time>
      </trkpt>
      <trkpt lat="45.92932" lon="1.28121">
        <ele>400.6</ele>
        <time>2025-06-16T15:15:14Z</time>
      </trkpt>
      <trkpt lat="45.92926" lon="1.28118">
        <ele>400.4</ele>
        <time>2025-06-16T15:15:15Z</time>
      </trkpt>
      <trkpt lat="45.9292" lon="1.28116">
        <ele>400.3</ele>
        <time>2025-06-16T15:15:16Z</time>
      </trkpt>
      <trkpt lat="45.92914" lon="1.28112">
        <ele>400.2</ele>
        <time>2025-06-16T15:15:17Z</time>
      </trkpt>
      <trkpt lat="45.92908" lon="1.28109">
        <ele>400</ele>
        <time>2025-06-16T15:15:18Z</time>
      </trkpt>
      <trkpt lat="45.92902" lon="1.28106">
        <ele>399.9</ele>
        <time>2025-06-16T15:15:19Z</time>
      </trkpt>
      <trkpt lat="45.92896" lon="1.28103">
        <ele>399.8</ele>
        <time>2025-06-16T15:15:20Z</time>
      </trkpt>
      <trkpt lat="45.9289" lon="1.28101">
        <ele>399.7</ele>
        <time>2025-06-16T15:15:21Z</time>
      </trkpt>
      <trkpt lat="45.92884" lon="1.28098">
        <ele>399.6</ele>
        <time>2025-06-16T15:15:22Z</time>
      </trkpt>
      <trkpt lat="45.92878" lon="1.28094">
        <ele>399.4</ele>
        <time>2025-06-16T15:15:23Z</time>
      </trkpt>
      <trkpt lat="45.92872" lon="1.28091">
        <ele>399.3</ele>
        <time>2025-06-16T15:15:24Z</time>
      </trkpt>
      <trkpt lat="45.92866" lon="1.28089">
        <ele>399.2</ele>
        <time>2025-06-16T15:15:25Z</time>
      </trkpt>
      <trkpt lat="45.92861" lon="1.28085">
        <ele>399.1</ele>
        <time>2025-06-16T15:15:26Z</time>
      </trkpt>
      <trkpt lat="45.92854" lon="1.2808">
        <ele>398.9</ele>
        <time>2025-06-16T15:15:27Z</time>
      </trkpt>
      <trkpt lat="45.92849" lon="1.28076">
        <ele>398.8</ele>
        <time>2025-06-16T15:15:28Z</time>
      </trkpt>
      <trkpt lat="45.92843" lon="1.28072">
        <ele>398.7</ele>
        <time>2025-06-16T15:15:29Z</time>
      </trkpt>
      <trkpt lat="45.92837" lon="1.28067">
        <ele>398.5</ele>
        <time>2025-06-16T15:15:30Z</time>
      </trkpt>
      <trkpt lat="45.92832" lon="1.28063">
        <ele>398.4</ele>
        <time>2025-06-16T15:15:31Z</time>
      </trkpt>
      <trkpt lat="45.92826" lon="1.28058">
        <ele>398.3</ele>
        <time>2025-06-16T15:15:32Z</time>
      </trkpt>
      <trkpt lat="45.92821" lon="1.28054">
        <ele>398.3</ele>
        <time>2025-06-16T15:15:33Z</time>
      </trkpt>
      <trkpt lat="45.92815" lon="1.28049">
        <ele>398.2</ele>
        <time>2025-06-16T15:15:34Z</time>
      </trkpt>
      <trkpt lat="45.9281" lon="1.28044">
        <ele>398.1</ele>
        <time>2025-06-16T15:15:35Z</time>
      </trkpt>
      <trkpt lat="45.92804" lon="1.28039">
        <ele>398.1</ele>
        <time>2025-06-16T15:15:36Z</time>
      </trkpt>
      <trkpt lat="45.92799" lon="1.28034">
        <ele>398</ele>
        <time>2025-06-16T15:15:37Z</time>
      </trkpt>
      <trkpt lat="45.92793" lon="1.28029">
        <ele>397.9</ele>
        <time>2025-06-16T15:15:38Z</time>
      </trkpt>
      <trkpt lat="45.92788" lon="1.28024">
        <ele>397.9</ele>
        <time>2025-06-16T15:15:39Z</time>
      </trkpt>
      <trkpt lat="45.92783" lon="1.28019">
        <ele>397.8</ele>
        <time>2025-06-16T15:15:40Z</time>
      </trkpt>
      <trkpt lat="45.92777" lon="1.28013">
        <ele>397.8</ele>
        <time>2025-06-16T15:15:41Z</time>
      </trkpt>
      <trkpt lat="45.92772" lon="1.28008">
        <ele>397.8</ele>
        <time>2025-06-16T15:15:42Z</time>
      </trkpt>
      <trkpt lat="45.92767" lon="1.28003">
        <ele>397.9</ele>
        <time>2025-06-16T15:15:43Z</time>
      </trkpt>
      <trkpt lat="45.92762" lon="1.27998">
        <ele>398</ele>
        <time>2025-06-16T15:15:44Z</time>
      </trkpt>
      <trkpt lat="45.92758" lon="1.27993">
        <ele>398.1</ele>
        <time>2025-06-16T15:15:45Z</time>
      </trkpt>
      <trkpt lat="45.92754" lon="1.27988">
        <ele>398.2</ele>
        <time>2025-06-16T15:15:46Z</time>
      </trkpt>
      <trkpt lat="45.92749" lon="1.27983">
        <ele>398.3</ele>
        <time>2025-06-16T15:15:47Z</time>
      </trkpt>
      <trkpt lat="45.92745" lon="1.27979">
        <ele>398.4</ele>
        <time>2025-06-16T15:15:48Z</time>
      </trkpt>
      <trkpt lat="45.92741" lon="1.27976">
        <ele>398.6</ele>
        <time>2025-06-16T15:15:49Z</time>
      </trkpt>
      <trkpt lat="45.92737" lon="1.27972">
        <ele>398.7</ele>
        <time>2025-06-16T15:15:50Z</time>
      </trkpt>
      <trkpt lat="45.9273" lon="1.27965">
        <ele>399</ele>
        <time>2025-06-16T15:15:51Z</time>
      </trkpt>
      <trkpt lat="45.92727" lon="1.27961">
        <ele>399</ele>
        <time>2025-06-16T15:15:53Z</time>
      </trkpt>
      <trkpt lat="45.92725" lon="1.27959">
        <ele>399</ele>
        <time>2025-06-16T15:15:54Z</time>
      </trkpt>
      <trkpt lat="45.92722" lon="1.27956">
        <ele>399.1</ele>
        <time>2025-06-16T15:15:55Z</time>
      </trkpt>
      <trkpt lat="45.9272" lon="1.27953">
        <ele>399.1</ele>
        <time>2025-06-16T15:15:56Z</time>
      </trkpt>
      <trkpt lat="45.92717" lon="1.27951">
        <ele>399.1</ele>
        <time>2025-06-16T15:15:57Z</time>
      </trkpt>
      <trkpt lat="45.92722" lon="1.27944">
        <ele>399.2</ele>
        <time>2025-06-16T15:15:58Z</time>
      </trkpt>
      <trkpt lat="45.92724" lon="1.27936">
        <ele>399.2</ele>
        <time>2025-06-16T15:15:59Z</time>
      </trkpt>
      <trkpt lat="45.92717" lon="1.27923">
        <ele>399.3</ele>
        <time>2025-06-16T15:16:00Z</time>
      </trkpt>
      <trkpt lat="45.92715" lon="1.27918">
        <ele>399.4</ele>
        <time>2025-06-16T15:16:02Z</time>
      </trkpt>
      <trkpt lat="45.92708" lon="1.2791">
        <ele>399.4</ele>
        <time>2025-06-16T15:16:03Z</time>
      </trkpt>
      <trkpt lat="45.92705" lon="1.27904">
        <ele>399.5</ele>
        <time>2025-06-16T15:16:05Z</time>
      </trkpt>
      <trkpt lat="45.92696" lon="1.27912">
        <ele>399.5</ele>
        <time>2025-06-16T15:16:06Z</time>
      </trkpt>
      <trkpt lat="45.9269" lon="1.27912">
        <ele>399.5</ele>
        <time>2025-06-16T15:16:07Z</time>
      </trkpt>
      <trkpt lat="45.92687" lon="1.27907">
        <ele>399.5</ele>
        <time>2025-06-16T15:16:08Z</time>
      </trkpt>
      <trkpt lat="45.92681" lon="1.27898">
        <ele>399.4</ele>
        <time>2025-06-16T15:16:09Z</time>
      </trkpt>
      <trkpt lat="45.92679" lon="1.27892">
        <ele>399.3</ele>
        <time>2025-06-16T15:16:10Z</time>
      </trkpt>
      <trkpt lat="45.92676" lon="1.27887">
        <ele>399.2</ele>
        <time>2025-06-16T15:16:12Z</time>
      </trkpt>
      <trkpt lat="45.92674" lon="1.27881">
        <ele>399</ele>
        <time>2025-06-16T15:16:13Z</time>
      </trkpt>
      <trkpt lat="45.9267" lon="1.27877">
        <ele>398.9</ele>
        <time>2025-06-16T15:16:14Z</time>
      </trkpt>
      <trkpt lat="45.92667" lon="1.27872">
        <ele>398.7</ele>
        <time>2025-06-16T15:16:15Z</time>
      </trkpt>
      <trkpt lat="45.92664" lon="1.27867">
        <ele>398.5</ele>
        <time>2025-06-16T15:16:16Z</time>
      </trkpt>
      <trkpt lat="45.92662" lon="1.27861">
        <ele>398.3</ele>
        <time>2025-06-16T15:16:17Z</time>
      </trkpt>
      <trkpt lat="45.92659" lon="1.27855">
        <ele>398.1</ele>
        <time>2025-06-16T15:16:18Z</time>
      </trkpt>
      <trkpt lat="45.92656" lon="1.27849">
        <ele>397.9</ele>
        <time>2025-06-16T15:16:19Z</time>
      </trkpt>
      <trkpt lat="45.92653" lon="1.27842">
        <ele>397.6</ele>
        <time>2025-06-16T15:16:20Z</time>
      </trkpt>
      <trkpt lat="45.9265" lon="1.27836">
        <ele>397.3</ele>
        <time>2025-06-16T15:16:21Z</time>
      </trkpt>
      <trkpt lat="45.92646" lon="1.27829">
        <ele>397</ele>
        <time>2025-06-16T15:16:22Z</time>
      </trkpt>
      <trkpt lat="45.92642" lon="1.27823">
        <ele>396.8</ele>
        <time>2025-06-16T15:16:23Z</time>
      </trkpt>
      <trkpt lat="45.92638" lon="1.27818">
        <ele>396.5</ele>
        <time>2025-06-16T15:16:24Z</time>
      </trkpt>
      <trkpt lat="45.92633" lon="1.27814">
        <ele>396.2</ele>
        <time>2025-06-16T15:16:25Z</time>
      </trkpt>
      <trkpt lat="45.92627" lon="1.2781">
        <ele>396.1</ele>
        <time>2025-06-16T15:16:26Z</time>
      </trkpt>
      <trkpt lat="45.92621" lon="1.27809">
        <ele>395.9</ele>
        <time>2025-06-16T15:16:27Z</time>
      </trkpt>
      <trkpt lat="45.92614" lon="1.27808">
        <ele>395.7</ele>
        <time>2025-06-16T15:16:28Z</time>
      </trkpt>
      <trkpt lat="45.92608" lon="1.27808">
        <ele>395.4</ele>
        <time>2025-06-16T15:16:29Z</time>
      </trkpt>
      <trkpt lat="45.92602" lon="1.27808">
        <ele>395.1</ele>
        <time>2025-06-16T15:16:30Z</time>
      </trkpt>
      <trkpt lat="45.92596" lon="1.27808">
        <ele>394.8</ele>
        <time>2025-06-16T15:16:31Z</time>
      </trkpt>
      <trkpt lat="45.9259" lon="1.27808">
        <ele>394.4</ele>
        <time>2025-06-16T15:16:32Z</time>
      </trkpt>
      <trkpt lat="45.92584" lon="1.27809">
        <ele>394.1</ele>
        <time>2025-06-16T15:16:33Z</time>
      </trkpt>
      <trkpt lat="45.92578" lon="1.27809">
        <ele>393.8</ele>
        <time>2025-06-16T15:16:34Z</time>
      </trkpt>
      <trkpt lat="45.92572" lon="1.27809">
        <ele>393.5</ele>
        <time>2025-06-16T15:16:35Z</time>
      </trkpt>
      <trkpt lat="45.92567" lon="1.27809">
        <ele>393.2</ele>
        <time>2025-06-16T15:16:36Z</time>
      </trkpt>
      <trkpt lat="45.92561" lon="1.27809">
        <ele>393</ele>
        <time>2025-06-16T15:16:37Z</time>
      </trkpt>
      <trkpt lat="45.92556" lon="1.2781">
        <ele>392.7</ele>
        <time>2025-06-16T15:16:38Z</time>
      </trkpt>
      <trkpt lat="45.9255" lon="1.2781">
        <ele>392.3</ele>
        <time>2025-06-16T15:16:39Z</time>
      </trkpt>
      <trkpt lat="45.92544" lon="1.27811">
        <ele>391.6</ele>
        <time>2025-06-16T15:16:40Z</time>
      </trkpt>
      <trkpt lat="45.92539" lon="1.27812">
        <ele>390.9</ele>
        <time>2025-06-16T15:16:41Z</time>
      </trkpt>
      <trkpt lat="45.92533" lon="1.27813">
        <ele>390.2</ele>
        <time>2025-06-16T15:16:42Z</time>
      </trkpt>
      <trkpt lat="45.92527" lon="1.27815">
        <ele>389.5</ele>
        <time>2025-06-16T15:16:43Z</time>
      </trkpt>
      <trkpt lat="45.92521" lon="1.27816">
        <ele>388.7</ele>
        <time>2025-06-16T15:16:44Z</time>
      </trkpt>
      <trkpt lat="45.92515" lon="1.27816">
        <ele>388.1</ele>
        <time>2025-06-16T15:16:45Z</time>
      </trkpt>
      <trkpt lat="45.92509" lon="1.27816">
        <ele>387.9</ele>
        <time>2025-06-16T15:16:46Z</time>
      </trkpt>
      <trkpt lat="45.92504" lon="1.27817">
        <ele>387.6</ele>
        <time>2025-06-16T15:16:47Z</time>
      </trkpt>
      <trkpt lat="45.92499" lon="1.27816">
        <ele>387.1</ele>
        <time>2025-06-16T15:16:48Z</time>
      </trkpt>
      <trkpt lat="45.92494" lon="1.27815">
        <ele>386.5</ele>
        <time>2025-06-16T15:16:49Z</time>
      </trkpt>
      <trkpt lat="45.92489" lon="1.27814">
        <ele>386.1</ele>
        <time>2025-06-16T15:16:50Z</time>
      </trkpt>
      <trkpt lat="45.92484" lon="1.27812">
        <ele>385.6</ele>
        <time>2025-06-16T15:16:51Z</time>
      </trkpt>
      <trkpt lat="45.9248" lon="1.27811">
        <ele>385.2</ele>
        <time>2025-06-16T15:16:52Z</time>
      </trkpt>
      <trkpt lat="45.92476" lon="1.2781">
        <ele>384.9</ele>
        <time>2025-06-16T15:16:53Z</time>
      </trkpt>
      <trkpt lat="45.92472" lon="1.27809">
        <ele>384.6</ele>
        <time>2025-06-16T15:16:54Z</time>
      </trkpt>
      <trkpt lat="45.92468" lon="1.27808">
        <ele>384.3</ele>
        <time>2025-06-16T15:16:55Z</time>
      </trkpt>
      <trkpt lat="45.92465" lon="1.27807">
        <ele>384.1</ele>
        <time>2025-06-16T15:16:56Z</time>
      </trkpt>
      <trkpt lat="45.92462" lon="1.27806">
        <ele>383.9</ele>
        <time>2025-06-16T15:16:57Z</time>
      </trkpt>
      <trkpt lat="45.92459" lon="1.27804">
        <ele>383.6</ele>
        <time>2025-06-16T15:16:58Z</time>
      </trkpt>
      <trkpt lat="45.92458" lon="1.27803">
        <ele>383.6</ele>
        <time>2025-06-16T15:16:59Z</time>
      </trkpt>
      <trkpt lat="45.92455" lon="1.27802">
        <ele>383.4</ele>
        <time>2025-06-16T15:17:00Z</time>
      </trkpt>
      <trkpt lat="45.92454" lon="1.27802">
        <ele>383.3</ele>
        <time>2025-06-16T15:17:01Z</time>
      </trkpt>
      <trkpt lat="45.92451" lon="1.27805">
        <ele>383.1</ele>
        <time>2025-06-16T15:17:02Z</time>
      </trkpt>
      <trkpt lat="45.92448" lon="1.27809">
        <ele>383</ele>
        <time>2025-06-16T15:17:03Z</time>
      </trkpt>
      <trkpt lat="45.92446" lon="1.27815">
        <ele>382.9</ele>
        <time>2025-06-16T15:17:04Z</time>
      </trkpt>
      <trkpt lat="45.92443" lon="1.27821">
        <ele>382.9</ele>
        <time>2025-06-16T15:17:05Z</time>
      </trkpt>
      <trkpt lat="45.92441" lon="1.27826">
        <ele>382.9</ele>
        <time>2025-06-16T15:17:06Z</time>
      </trkpt>
      <trkpt lat="45.92438" lon="1.27832">
        <ele>382.8</ele>
        <time>2025-06-16T15:17:07Z</time>
      </trkpt>
      <trkpt lat="45.92435" lon="1.27838">
        <ele>382.8</ele>
        <time>2025-06-16T15:17:08Z</time>
      </trkpt>
      <trkpt lat="45.92433" lon="1.27845">
        <ele>382.8</ele>
        <time>2025-06-16T15:17:09Z</time>
      </trkpt>
      <trkpt lat="45.92431" lon="1.27851">
        <ele>382.9</ele>
        <time>2025-06-16T15:17:10Z</time>
      </trkpt>
      <trkpt lat="45.92429" lon="1.27858">
        <ele>382.9</ele>
        <time>2025-06-16T15:17:11Z</time>
      </trkpt>
      <trkpt lat="45.92427" lon="1.27864">
        <ele>382.9</ele>
        <time>2025-06-16T15:17:12Z</time>
      </trkpt>
      <trkpt lat="45.92426" lon="1.27871">
        <ele>382.9</ele>
        <time>2025-06-16T15:17:13Z</time>
      </trkpt>
      <trkpt lat="45.92424" lon="1.27877">
        <ele>382.9</ele>
        <time>2025-06-16T15:17:14Z</time>
      </trkpt>
      <trkpt lat="45.92421" lon="1.2789">
        <ele>382.8</ele>
        <time>2025-06-16T15:17:15Z</time>
      </trkpt>
      <trkpt lat="45.92419" lon="1.27896">
        <ele>382.8</ele>
        <time>2025-06-16T15:17:16Z</time>
      </trkpt>
      <trkpt lat="45.92418" lon="1.27902">
        <ele>382.8</ele>
        <time>2025-06-16T15:17:18Z</time>
      </trkpt>
      <trkpt lat="45.92416" lon="1.27909">
        <ele>382.8</ele>
        <time>2025-06-16T15:17:19Z</time>
      </trkpt>
      <trkpt lat="45.92415" lon="1.27915">
        <ele>382.8</ele>
        <time>2025-06-16T15:17:20Z</time>
      </trkpt>
      <trkpt lat="45.92414" lon="1.27921">
        <ele>382.7</ele>
        <time>2025-06-16T15:17:21Z</time>
      </trkpt>
      <trkpt lat="45.92412" lon="1.27928">
        <ele>382.6</ele>
        <time>2025-06-16T15:17:22Z</time>
      </trkpt>
      <trkpt lat="45.9241" lon="1.27934">
        <ele>382.5</ele>
        <time>2025-06-16T15:17:23Z</time>
      </trkpt>
      <trkpt lat="45.92408" lon="1.2794">
        <ele>382.3</ele>
        <time>2025-06-16T15:17:24Z</time>
      </trkpt>
      <trkpt lat="45.92407" lon="1.27947">
        <ele>382.1</ele>
        <time>2025-06-16T15:17:25Z</time>
      </trkpt>
      <trkpt lat="45.92404" lon="1.27954">
        <ele>381.9</ele>
        <time>2025-06-16T15:17:26Z</time>
      </trkpt>
      <trkpt lat="45.92401" lon="1.27961">
        <ele>381.6</ele>
        <time>2025-06-16T15:17:27Z</time>
      </trkpt>
      <trkpt lat="45.92398" lon="1.27968">
        <ele>381.3</ele>
        <time>2025-06-16T15:17:28Z</time>
      </trkpt>
      <trkpt lat="45.92394" lon="1.27975">
        <ele>381</ele>
        <time>2025-06-16T15:17:29Z</time>
      </trkpt>
      <trkpt lat="45.92391" lon="1.27981">
        <ele>380.6</ele>
        <time>2025-06-16T15:17:30Z</time>
      </trkpt>
      <trkpt lat="45.92388" lon="1.27989">
        <ele>380.3</ele>
        <time>2025-06-16T15:17:31Z</time>
      </trkpt>
      <trkpt lat="45.92384" lon="1.27996">
        <ele>379.9</ele>
        <time>2025-06-16T15:17:32Z</time>
      </trkpt>
      <trkpt lat="45.9238" lon="1.28004">
        <ele>379.4</ele>
        <time>2025-06-16T15:17:33Z</time>
      </trkpt>
      <trkpt lat="45.92376" lon="1.28012">
        <ele>379</ele>
        <time>2025-06-16T15:17:34Z</time>
      </trkpt>
      <trkpt lat="45.92372" lon="1.2802">
        <ele>378.5</ele>
        <time>2025-06-16T15:17:35Z</time>
      </trkpt>
      <trkpt lat="45.92369" lon="1.28028">
        <ele>378</ele>
        <time>2025-06-16T15:17:36Z</time>
      </trkpt>
      <trkpt lat="45.92365" lon="1.28037">
        <ele>377.5</ele>
        <time>2025-06-16T15:17:37Z</time>
      </trkpt>
      <trkpt lat="45.92361" lon="1.28046">
        <ele>377</ele>
        <time>2025-06-16T15:17:38Z</time>
      </trkpt>
      <trkpt lat="45.92357" lon="1.28055">
        <ele>376.4</ele>
        <time>2025-06-16T15:17:39Z</time>
      </trkpt>
      <trkpt lat="45.92353" lon="1.28065">
        <ele>375.9</ele>
        <time>2025-06-16T15:17:40Z</time>
      </trkpt>
      <trkpt lat="45.92349" lon="1.28074">
        <ele>375.3</ele>
        <time>2025-06-16T15:17:41Z</time>
      </trkpt>
      <trkpt lat="45.9234" lon="1.28092">
        <ele>374.5</ele>
        <time>2025-06-16T15:17:42Z</time>
      </trkpt>
      <trkpt lat="45.92335" lon="1.28101">
        <ele>374.2</ele>
        <time>2025-06-16T15:17:44Z</time>
      </trkpt>
      <trkpt lat="45.9233" lon="1.28111">
        <ele>374</ele>
        <time>2025-06-16T15:17:45Z</time>
      </trkpt>
      <trkpt lat="45.92325" lon="1.28121">
        <ele>374</ele>
        <time>2025-06-16T15:17:46Z</time>
      </trkpt>
      <trkpt lat="45.92319" lon="1.28129">
        <ele>374</ele>
        <time>2025-06-16T15:17:47Z</time>
      </trkpt>
      <trkpt lat="45.92313" lon="1.28137">
        <ele>374.1</ele>
        <time>2025-06-16T15:17:48Z</time>
      </trkpt>
      <trkpt lat="45.92306" lon="1.28144">
        <ele>374.1</ele>
        <time>2025-06-16T15:17:49Z</time>
      </trkpt>
      <trkpt lat="45.92299" lon="1.2815">
        <ele>374.2</ele>
        <time>2025-06-16T15:17:50Z</time>
      </trkpt>
      <trkpt lat="45.92293" lon="1.28155">
        <ele>374.2</ele>
        <time>2025-06-16T15:17:51Z</time>
      </trkpt>
      <trkpt lat="45.92287" lon="1.2816">
        <ele>374.2</ele>
        <time>2025-06-16T15:17:52Z</time>
      </trkpt>
      <trkpt lat="45.92281" lon="1.28164">
        <ele>374.3</ele>
        <time>2025-06-16T15:17:53Z</time>
      </trkpt>
      <trkpt lat="45.92275" lon="1.28168">
        <ele>374.3</ele>
        <time>2025-06-16T15:17:54Z</time>
      </trkpt>
      <trkpt lat="45.9227" lon="1.28172">
        <ele>374.4</ele>
        <time>2025-06-16T15:17:55Z</time>
      </trkpt>
      <trkpt lat="45.92265" lon="1.28175">
        <ele>374.4</ele>
        <time>2025-06-16T15:17:56Z</time>
      </trkpt>
      <trkpt lat="45.92261" lon="1.28178">
        <ele>374.4</ele>
        <time>2025-06-16T15:17:57Z</time>
      </trkpt>
      <trkpt lat="45.92256" lon="1.28182">
        <ele>374.5</ele>
        <time>2025-06-16T15:17:58Z</time>
      </trkpt>
      <trkpt lat="45.92251" lon="1.28186">
        <ele>374.6</ele>
        <time>2025-06-16T15:17:59Z</time>
      </trkpt>
      <trkpt lat="45.92245" lon="1.2819">
        <ele>374.6</ele>
        <time>2025-06-16T15:18:00Z</time>
      </trkpt>
      <trkpt lat="45.9224" lon="1.28193">
        <ele>374.7</ele>
        <time>2025-06-16T15:18:01Z</time>
      </trkpt>
      <trkpt lat="45.92234" lon="1.28196">
        <ele>374.8</ele>
        <time>2025-06-16T15:18:02Z</time>
      </trkpt>
      <trkpt lat="45.92229" lon="1.282">
        <ele>375</ele>
        <time>2025-06-16T15:18:03Z</time>
      </trkpt>
      <trkpt lat="45.92224" lon="1.28204">
        <ele>375.1</ele>
        <time>2025-06-16T15:18:04Z</time>
      </trkpt>
      <trkpt lat="45.9222" lon="1.28207">
        <ele>375.2</ele>
        <time>2025-06-16T15:18:05Z</time>
      </trkpt>
      <trkpt lat="45.92215" lon="1.28211">
        <ele>375.3</ele>
        <time>2025-06-16T15:18:06Z</time>
      </trkpt>
      <trkpt lat="45.9221" lon="1.28215">
        <ele>375.4</ele>
        <time>2025-06-16T15:18:07Z</time>
      </trkpt>
      <trkpt lat="45.92206" lon="1.28219">
        <ele>375.4</ele>
        <time>2025-06-16T15:18:08Z</time>
      </trkpt>
      <trkpt lat="45.92201" lon="1.28222">
        <ele>375.5</ele>
        <time>2025-06-16T15:18:09Z</time>
      </trkpt>
      <trkpt lat="45.92196" lon="1.28226">
        <ele>375.6</ele>
        <time>2025-06-16T15:18:10Z</time>
      </trkpt>
      <trkpt lat="45.9219" lon="1.2823">
        <ele>375.7</ele>
        <time>2025-06-16T15:18:11Z</time>
      </trkpt>
      <trkpt lat="45.92186" lon="1.28234">
        <ele>375.7</ele>
        <time>2025-06-16T15:18:12Z</time>
      </trkpt>
      <trkpt lat="45.9218" lon="1.28238">
        <ele>375.8</ele>
        <time>2025-06-16T15:18:13Z</time>
      </trkpt>
      <trkpt lat="45.92175" lon="1.28241">
        <ele>375.8</ele>
        <time>2025-06-16T15:18:14Z</time>
      </trkpt>
      <trkpt lat="45.92171" lon="1.28244">
        <ele>375.9</ele>
        <time>2025-06-16T15:18:15Z</time>
      </trkpt>
      <trkpt lat="45.92166" lon="1.28247">
        <ele>375.9</ele>
        <time>2025-06-16T15:18:16Z</time>
      </trkpt>
      <trkpt lat="45.92161" lon="1.2825">
        <ele>376</ele>
        <time>2025-06-16T15:18:17Z</time>
      </trkpt>
      <trkpt lat="45.92156" lon="1.28253">
        <ele>376.1</ele>
        <time>2025-06-16T15:18:18Z</time>
      </trkpt>
      <trkpt lat="45.92152" lon="1.28256">
        <ele>376.2</ele>
        <time>2025-06-16T15:18:19Z</time>
      </trkpt>
      <trkpt lat="45.92147" lon="1.2826">
        <ele>376.2</ele>
        <time>2025-06-16T15:18:20Z</time>
      </trkpt>
      <trkpt lat="45.92142" lon="1.28263">
        <ele>376.3</ele>
        <time>2025-06-16T15:18:21Z</time>
      </trkpt>
      <trkpt lat="45.92138" lon="1.28266">
        <ele>376.4</ele>
        <time>2025-06-16T15:18:22Z</time>
      </trkpt>
      <trkpt lat="45.92133" lon="1.28269">
        <ele>376.4</ele>
        <time>2025-06-16T15:18:23Z</time>
      </trkpt>
      <trkpt lat="45.92128" lon="1.28273">
        <ele>376.5</ele>
        <time>2025-06-16T15:18:24Z</time>
      </trkpt>
      <trkpt lat="45.92123" lon="1.28276">
        <ele>376.5</ele>
        <time>2025-06-16T15:18:25Z</time>
      </trkpt>
      <trkpt lat="45.92119" lon="1.28279">
        <ele>376.6</ele>
        <time>2025-06-16T15:18:26Z</time>
      </trkpt>
      <trkpt lat="45.92114" lon="1.28282">
        <ele>376.6</ele>
        <time>2025-06-16T15:18:27Z</time>
      </trkpt>
      <trkpt lat="45.92109" lon="1.28285">
        <ele>376.7</ele>
        <time>2025-06-16T15:18:28Z</time>
      </trkpt>
      <trkpt lat="45.921" lon="1.28292">
        <ele>376.8</ele>
        <time>2025-06-16T15:18:29Z</time>
      </trkpt>
      <trkpt lat="45.92095" lon="1.28295">
        <ele>376.9</ele>
        <time>2025-06-16T15:18:31Z</time>
      </trkpt>
      <trkpt lat="45.92091" lon="1.28299">
        <ele>376.9</ele>
        <time>2025-06-16T15:18:32Z</time>
      </trkpt>
      <trkpt lat="45.92082" lon="1.28305">
        <ele>377</ele>
        <time>2025-06-16T15:18:33Z</time>
      </trkpt>
      <trkpt lat="45.92072" lon="1.28312">
        <ele>377.1</ele>
        <time>2025-06-16T15:18:35Z</time>
      </trkpt>
      <trkpt lat="45.92067" lon="1.28316">
        <ele>377.1</ele>
        <time>2025-06-16T15:18:36Z</time>
      </trkpt>
      <trkpt lat="45.92063" lon="1.28319">
        <ele>377.1</ele>
        <time>2025-06-16T15:18:37Z</time>
      </trkpt>
      <trkpt lat="45.92059" lon="1.28323">
        <ele>377.1</ele>
        <time>2025-06-16T15:18:38Z</time>
      </trkpt>
      <trkpt lat="45.92055" lon="1.28325">
        <ele>377.1</ele>
        <time>2025-06-16T15:18:40Z</time>
      </trkpt>
      <trkpt lat="45.92052" lon="1.28327">
        <ele>377</ele>
        <time>2025-06-16T15:18:41Z</time>
      </trkpt>
      <trkpt lat="45.92048" lon="1.2833">
        <ele>377</ele>
        <time>2025-06-16T15:18:42Z</time>
      </trkpt>
      <trkpt lat="45.92044" lon="1.28332">
        <ele>376.9</ele>
        <time>2025-06-16T15:18:43Z</time>
      </trkpt>
      <trkpt lat="45.9204" lon="1.28334">
        <ele>376.8</ele>
        <time>2025-06-16T15:18:44Z</time>
      </trkpt>
      <trkpt lat="45.92036" lon="1.28336">
        <ele>376.7</ele>
        <time>2025-06-16T15:18:45Z</time>
      </trkpt>
      <trkpt lat="45.92032" lon="1.28337">
        <ele>376.6</ele>
        <time>2025-06-16T15:18:46Z</time>
      </trkpt>
      <trkpt lat="45.92029" lon="1.28337">
        <ele>376.5</ele>
        <time>2025-06-16T15:18:47Z</time>
      </trkpt>
      <trkpt lat="45.92022" lon="1.28333">
        <ele>375.8</ele>
        <time>2025-06-16T15:18:48Z</time>
      </trkpt>
      <trkpt lat="45.92019" lon="1.28327">
        <ele>375.4</ele>
        <time>2025-06-16T15:18:50Z</time>
      </trkpt>
      <trkpt lat="45.92012" lon="1.28316">
        <ele>374.5</ele>
        <time>2025-06-16T15:18:51Z</time>
      </trkpt>
      <trkpt lat="45.92001" lon="1.28306">
        <ele>373.7</ele>
        <time>2025-06-16T15:18:53Z</time>
      </trkpt>
      <trkpt lat="45.91995" lon="1.28301">
        <ele>373.2</ele>
        <time>2025-06-16T15:18:55Z</time>
      </trkpt>
      <trkpt lat="45.91983" lon="1.28291">
        <ele>372.3</ele>
        <time>2025-06-16T15:18:56Z</time>
      </trkpt>
      <trkpt lat="45.91976" lon="1.28287">
        <ele>371.8</ele>
        <time>2025-06-16T15:18:57Z</time>
      </trkpt>
      <trkpt lat="45.9197" lon="1.28281">
        <ele>371.2</ele>
        <time>2025-06-16T15:18:58Z</time>
      </trkpt>
      <trkpt lat="45.91963" lon="1.28276">
        <ele>370.7</ele>
        <time>2025-06-16T15:19:00Z</time>
      </trkpt>
      <trkpt lat="45.91955" lon="1.28271">
        <ele>370.1</ele>
        <time>2025-06-16T15:19:01Z</time>
      </trkpt>
      <trkpt lat="45.91939" lon="1.28261">
        <ele>368.9</ele>
        <time>2025-06-16T15:19:02Z</time>
      </trkpt>
      <trkpt lat="45.9193" lon="1.28258">
        <ele>368.3</ele>
        <time>2025-06-16T15:19:04Z</time>
      </trkpt>
      <trkpt lat="45.91921" lon="1.28255">
        <ele>367.6</ele>
        <time>2025-06-16T15:19:05Z</time>
      </trkpt>
      <trkpt lat="45.91913" lon="1.28253">
        <ele>367</ele>
        <time>2025-06-16T15:19:06Z</time>
      </trkpt>
      <trkpt lat="45.91903" lon="1.28251">
        <ele>366.2</ele>
        <time>2025-06-16T15:19:07Z</time>
      </trkpt>
      <trkpt lat="45.91893" lon="1.28248">
        <ele>365.5</ele>
        <time>2025-06-16T15:19:08Z</time>
      </trkpt>
      <trkpt lat="45.91883" lon="1.28246">
        <ele>364.8</ele>
        <time>2025-06-16T15:19:09Z</time>
      </trkpt>
      <trkpt lat="45.91873" lon="1.28243">
        <ele>364.2</ele>
        <time>2025-06-16T15:19:10Z</time>
      </trkpt>
      <trkpt lat="45.91861" lon="1.28243">
        <ele>363.4</ele>
        <time>2025-06-16T15:19:11Z</time>
      </trkpt>
      <trkpt lat="45.91851" lon="1.28243">
        <ele>362.8</ele>
        <time>2025-06-16T15:19:12Z</time>
      </trkpt>
      <trkpt lat="45.91841" lon="1.28241">
        <ele>362.3</ele>
        <time>2025-06-16T15:19:13Z</time>
      </trkpt>
      <trkpt lat="45.9183" lon="1.28239">
        <ele>361.7</ele>
        <time>2025-06-16T15:19:14Z</time>
      </trkpt>
      <trkpt lat="45.9182" lon="1.28236">
        <ele>361.1</ele>
        <time>2025-06-16T15:19:15Z</time>
      </trkpt>
      <trkpt lat="45.91809" lon="1.28232">
        <ele>360.5</ele>
        <time>2025-06-16T15:19:16Z</time>
      </trkpt>
      <trkpt lat="45.91798" lon="1.28228">
        <ele>360</ele>
        <time>2025-06-16T15:19:17Z</time>
      </trkpt>
      <trkpt lat="45.91788" lon="1.28226">
        <ele>359.5</ele>
        <time>2025-06-16T15:19:18Z</time>
      </trkpt>
      <trkpt lat="45.91777" lon="1.28223">
        <ele>359</ele>
        <time>2025-06-16T15:19:19Z</time>
      </trkpt>
      <trkpt lat="45.91767" lon="1.28219">
        <ele>358.6</ele>
        <time>2025-06-16T15:19:20Z</time>
      </trkpt>
      <trkpt lat="45.91756" lon="1.28216">
        <ele>358.3</ele>
        <time>2025-06-16T15:19:21Z</time>
      </trkpt>
      <trkpt lat="45.91745" lon="1.28212">
        <ele>357.9</ele>
        <time>2025-06-16T15:19:22Z</time>
      </trkpt>
      <trkpt lat="45.91734" lon="1.28208">
        <ele>357.5</ele>
        <time>2025-06-16T15:19:23Z</time>
      </trkpt>
      <trkpt lat="45.91724" lon="1.28205">
        <ele>357.1</ele>
        <time>2025-06-16T15:19:24Z</time>
      </trkpt>
      <trkpt lat="45.91713" lon="1.28201">
        <ele>356.7</ele>
        <time>2025-06-16T15:19:25Z</time>
      </trkpt>
      <trkpt lat="45.91703" lon="1.28197">
        <ele>356.4</ele>
        <time>2025-06-16T15:19:26Z</time>
      </trkpt>
      <trkpt lat="45.91693" lon="1.28192">
        <ele>356.2</ele>
        <time>2025-06-16T15:19:27Z</time>
      </trkpt>
      <trkpt lat="45.91684" lon="1.28185">
        <ele>356</ele>
        <time>2025-06-16T15:19:28Z</time>
      </trkpt>
      <trkpt lat="45.91675" lon="1.28179">
        <ele>355.8</ele>
        <time>2025-06-16T15:19:29Z</time>
      </trkpt>
      <trkpt lat="45.91667" lon="1.28173">
        <ele>355.7</ele>
        <time>2025-06-16T15:19:30Z</time>
      </trkpt>
      <trkpt lat="45.91659" lon="1.28169">
        <ele>355.5</ele>
        <time>2025-06-16T15:19:31Z</time>
      </trkpt>
      <trkpt lat="45.91651" lon="1.28167">
        <ele>355.4</ele>
        <time>2025-06-16T15:19:32Z</time>
      </trkpt>
      <trkpt lat="45.91644" lon="1.28165">
        <ele>355.2</ele>
        <time>2025-06-16T15:19:33Z</time>
      </trkpt>
      <trkpt lat="45.91639" lon="1.28163">
        <ele>355.1</ele>
        <time>2025-06-16T15:19:34Z</time>
      </trkpt>
      <trkpt lat="45.91635" lon="1.2816">
        <ele>355</ele>
        <time>2025-06-16T15:19:35Z</time>
      </trkpt>
      <trkpt lat="45.91632" lon="1.28151">
        <ele>354.9</ele>
        <time>2025-06-16T15:19:36Z</time>
      </trkpt>
      <trkpt lat="45.91633" lon="1.28143">
        <ele>354.7</ele>
        <time>2025-06-16T15:19:38Z</time>
      </trkpt>
      <trkpt lat="45.91634" lon="1.28137">
        <ele>354.6</ele>
        <time>2025-06-16T15:19:39Z</time>
      </trkpt>
      <trkpt lat="45.91634" lon="1.28129">
        <ele>354.5</ele>
        <time>2025-06-16T15:19:40Z</time>
      </trkpt>
      <trkpt lat="45.91634" lon="1.28121">
        <ele>354.3</ele>
        <time>2025-06-16T15:19:41Z</time>
      </trkpt>
      <trkpt lat="45.91634" lon="1.28113">
        <ele>354.2</ele>
        <time>2025-06-16T15:19:42Z</time>
      </trkpt>
      <trkpt lat="45.91634" lon="1.28104">
        <ele>354.1</ele>
        <time>2025-06-16T15:19:43Z</time>
      </trkpt>
      <trkpt lat="45.91633" lon="1.28096">
        <ele>354</ele>
        <time>2025-06-16T15:19:44Z</time>
      </trkpt>
      <trkpt lat="45.91627" lon="1.28085">
        <ele>353.9</ele>
        <time>2025-06-16T15:19:45Z</time>
      </trkpt>
      <trkpt lat="45.91622" lon="1.28081">
        <ele>353.9</ele>
        <time>2025-06-16T15:19:47Z</time>
      </trkpt>
      <trkpt lat="45.91616" lon="1.28077">
        <ele>353.7</ele>
        <time>2025-06-16T15:19:48Z</time>
      </trkpt>
      <trkpt lat="45.9161" lon="1.28072">
        <ele>353.6</ele>
        <time>2025-06-16T15:19:49Z</time>
      </trkpt>
      <trkpt lat="45.91604" lon="1.28067">
        <ele>353.5</ele>
        <time>2025-06-16T15:19:50Z</time>
      </trkpt>
      <trkpt lat="45.91599" lon="1.28063">
        <ele>353.4</ele>
        <time>2025-06-16T15:19:51Z</time>
      </trkpt>
      <trkpt lat="45.91594" lon="1.28059">
        <ele>353.3</ele>
        <time>2025-06-16T15:19:52Z</time>
      </trkpt>
      <trkpt lat="45.91589" lon="1.28056">
        <ele>353.2</ele>
        <time>2025-06-16T15:19:53Z</time>
      </trkpt>
      <trkpt lat="45.91582" lon="1.28051">
        <ele>353.1</ele>
        <time>2025-06-16T15:19:54Z</time>
      </trkpt>
      <trkpt lat="45.91577" lon="1.28047">
        <ele>353</ele>
        <time>2025-06-16T15:19:55Z</time>
      </trkpt>
      <trkpt lat="45.9157" lon="1.28043">
        <ele>352.9</ele>
        <time>2025-06-16T15:19:56Z</time>
      </trkpt>
      <trkpt lat="45.91564" lon="1.28041">
        <ele>352.8</ele>
        <time>2025-06-16T15:19:57Z</time>
      </trkpt>
      <trkpt lat="45.91556" lon="1.28039">
        <ele>352.6</ele>
        <time>2025-06-16T15:19:58Z</time>
      </trkpt>
      <trkpt lat="45.91549" lon="1.28039">
        <ele>352.5</ele>
        <time>2025-06-16T15:19:59Z</time>
      </trkpt>
      <trkpt lat="45.91543" lon="1.28038">
        <ele>352.4</ele>
        <time>2025-06-16T15:20:00Z</time>
      </trkpt>
      <trkpt lat="45.91536" lon="1.28038">
        <ele>352.4</ele>
        <time>2025-06-16T15:20:01Z</time>
      </trkpt>
      <trkpt lat="45.9153" lon="1.28038">
        <ele>352.3</ele>
        <time>2025-06-16T15:20:02Z</time>
      </trkpt>
      <trkpt lat="45.91519" lon="1.28038">
        <ele>352.1</ele>
        <time>2025-06-16T15:20:03Z</time>
      </trkpt>
      <trkpt lat="45.91507" lon="1.28035">
        <ele>351.8</ele>
        <time>2025-06-16T15:20:05Z</time>
      </trkpt>
      <trkpt lat="45.91502" lon="1.28033">
        <ele>351.6</ele>
        <time>2025-06-16T15:20:07Z</time>
      </trkpt>
      <trkpt lat="45.91496" lon="1.28032">
        <ele>351.4</ele>
        <time>2025-06-16T15:20:08Z</time>
      </trkpt>
      <trkpt lat="45.91489" lon="1.28031">
        <ele>351.1</ele>
        <time>2025-06-16T15:20:09Z</time>
      </trkpt>
      <trkpt lat="45.91483" lon="1.2803">
        <ele>350.9</ele>
        <time>2025-06-16T15:20:10Z</time>
      </trkpt>
      <trkpt lat="45.91477" lon="1.28029">
        <ele>350.6</ele>
        <time>2025-06-16T15:20:11Z</time>
      </trkpt>
      <trkpt lat="45.9147" lon="1.28028">
        <ele>350.3</ele>
        <time>2025-06-16T15:20:12Z</time>
      </trkpt>
      <trkpt lat="45.91464" lon="1.28027">
        <ele>350.1</ele>
        <time>2025-06-16T15:20:13Z</time>
      </trkpt>
      <trkpt lat="45.91456" lon="1.28025">
        <ele>349.7</ele>
        <time>2025-06-16T15:20:14Z</time>
      </trkpt>
      <trkpt lat="45.9145" lon="1.28021">
        <ele>349.4</ele>
        <time>2025-06-16T15:20:15Z</time>
      </trkpt>
      <trkpt lat="45.91443" lon="1.28019">
        <ele>349.1</ele>
        <time>2025-06-16T15:20:16Z</time>
      </trkpt>
      <trkpt lat="45.91438" lon="1.28015">
        <ele>348.8</ele>
        <time>2025-06-16T15:20:17Z</time>
      </trkpt>
      <trkpt lat="45.91432" lon="1.28011">
        <ele>348.5</ele>
        <time>2025-06-16T15:20:18Z</time>
      </trkpt>
      <trkpt lat="45.91425" lon="1.28006">
        <ele>348.2</ele>
        <time>2025-06-16T15:20:19Z</time>
      </trkpt>
      <trkpt lat="45.91418" lon="1.28001">
        <ele>347.8</ele>
        <time>2025-06-16T15:20:20Z</time>
      </trkpt>
      <trkpt lat="45.91411" lon="1.27996">
        <ele>347.6</ele>
        <time>2025-06-16T15:20:21Z</time>
      </trkpt>
      <trkpt lat="45.91404" lon="1.27991">
        <ele>347.3</ele>
        <time>2025-06-16T15:20:22Z</time>
      </trkpt>
      <trkpt lat="45.91396" lon="1.27985">
        <ele>347.1</ele>
        <time>2025-06-16T15:20:23Z</time>
      </trkpt>
      <trkpt lat="45.91389" lon="1.27979">
        <ele>346.9</ele>
        <time>2025-06-16T15:20:24Z</time>
      </trkpt>
      <trkpt lat="45.91384" lon="1.27974">
        <ele>346.7</ele>
        <time>2025-06-16T15:20:25Z</time>
      </trkpt>
      <trkpt lat="45.91374" lon="1.27964">
        <ele>346.4</ele>
        <time>2025-06-16T15:20:26Z</time>
      </trkpt>
      <trkpt lat="45.91364" lon="1.27952">
        <ele>346.1</ele>
        <time>2025-06-16T15:20:28Z</time>
      </trkpt>
      <trkpt lat="45.91358" lon="1.27945">
        <ele>345.9</ele>
        <time>2025-06-16T15:20:29Z</time>
      </trkpt>
      <trkpt lat="45.91348" lon="1.27931">
        <ele>345.6</ele>
        <time>2025-06-16T15:20:31Z</time>
      </trkpt>
      <trkpt lat="45.91343" lon="1.27924">
        <ele>345.4</ele>
        <time>2025-06-16T15:20:32Z</time>
      </trkpt>
      <trkpt lat="45.91338" lon="1.27917">
        <ele>345.2</ele>
        <time>2025-06-16T15:20:33Z</time>
      </trkpt>
      <trkpt lat="45.91334" lon="1.27911">
        <ele>345</ele>
        <time>2025-06-16T15:20:34Z</time>
      </trkpt>
      <trkpt lat="45.91329" lon="1.27905">
        <ele>344.8</ele>
        <time>2025-06-16T15:20:35Z</time>
      </trkpt>
      <trkpt lat="45.91324" lon="1.27899">
        <ele>344.6</ele>
        <time>2025-06-16T15:20:37Z</time>
      </trkpt>
      <trkpt lat="45.9132" lon="1.27893">
        <ele>344.4</ele>
        <time>2025-06-16T15:20:38Z</time>
      </trkpt>
      <trkpt lat="45.91315" lon="1.27887">
        <ele>344.1</ele>
        <time>2025-06-16T15:20:39Z</time>
      </trkpt>
      <trkpt lat="45.91309" lon="1.2788">
        <ele>343.8</ele>
        <time>2025-06-16T15:20:40Z</time>
      </trkpt>
      <trkpt lat="45.91303" lon="1.27875">
        <ele>343.4</ele>
        <time>2025-06-16T15:20:41Z</time>
      </trkpt>
      <trkpt lat="45.91298" lon="1.2787">
        <ele>343.1</ele>
        <time>2025-06-16T15:20:42Z</time>
      </trkpt>
      <trkpt lat="45.91291" lon="1.27866">
        <ele>342.7</ele>
        <time>2025-06-16T15:20:43Z</time>
      </trkpt>
      <trkpt lat="45.91285" lon="1.2786">
        <ele>342.2</ele>
        <time>2025-06-16T15:20:44Z</time>
      </trkpt>
      <trkpt lat="45.9128" lon="1.27854">
        <ele>341.7</ele>
        <time>2025-06-16T15:20:45Z</time>
      </trkpt>
      <trkpt lat="45.91274" lon="1.27849">
        <ele>341.3</ele>
        <time>2025-06-16T15:20:46Z</time>
      </trkpt>
      <trkpt lat="45.91268" lon="1.27843">
        <ele>340.8</ele>
        <time>2025-06-16T15:20:47Z</time>
      </trkpt>
      <trkpt lat="45.91262" lon="1.27837">
        <ele>340.3</ele>
        <time>2025-06-16T15:20:48Z</time>
      </trkpt>
      <trkpt lat="45.91257" lon="1.27831">
        <ele>339.9</ele>
        <time>2025-06-16T15:20:49Z</time>
      </trkpt>
      <trkpt lat="45.91252" lon="1.27827">
        <ele>339.5</ele>
        <time>2025-06-16T15:20:50Z</time>
      </trkpt>
      <trkpt lat="45.91247" lon="1.27823">
        <ele>339.1</ele>
        <time>2025-06-16T15:20:51Z</time>
      </trkpt>
      <trkpt lat="45.91243" lon="1.27819">
        <ele>338.7</ele>
        <time>2025-06-16T15:20:52Z</time>
      </trkpt>
      <trkpt lat="45.9124" lon="1.27815">
        <ele>338.4</ele>
        <time>2025-06-16T15:20:53Z</time>
      </trkpt>
      <trkpt lat="45.91237" lon="1.2781">
        <ele>338.1</ele>
        <time>2025-06-16T15:20:54Z</time>
      </trkpt>
      <trkpt lat="45.91234" lon="1.27806">
        <ele>337.8</ele>
        <time>2025-06-16T15:20:55Z</time>
      </trkpt>
      <trkpt lat="45.91231" lon="1.278">
        <ele>337.5</ele>
        <time>2025-06-16T15:20:56Z</time>
      </trkpt>
      <trkpt lat="45.91229" lon="1.27793">
        <ele>337.3</ele>
        <time>2025-06-16T15:20:57Z</time>
      </trkpt>
      <trkpt lat="45.91227" lon="1.27787">
        <ele>337.1</ele>
        <time>2025-06-16T15:20:58Z</time>
      </trkpt>
      <trkpt lat="45.91225" lon="1.27781">
        <ele>336.9</ele>
        <time>2025-06-16T15:20:59Z</time>
      </trkpt>
      <trkpt lat="45.91222" lon="1.27774">
        <ele>336.7</ele>
        <time>2025-06-16T15:21:00Z</time>
      </trkpt>
      <trkpt lat="45.9122" lon="1.27767">
        <ele>336.6</ele>
        <time>2025-06-16T15:21:01Z</time>
      </trkpt>
      <trkpt lat="45.91216" lon="1.27763">
        <ele>336.5</ele>
        <time>2025-06-16T15:21:02Z</time>
      </trkpt>
      <trkpt lat="45.91213" lon="1.2776">
        <ele>336.5</ele>
        <time>2025-06-16T15:21:03Z</time>
      </trkpt>
      <trkpt lat="45.91211" lon="1.27756">
        <ele>336.4</ele>
        <time>2025-06-16T15:21:04Z</time>
      </trkpt>
      <trkpt lat="45.91208" lon="1.27751">
        <ele>336.4</ele>
        <time>2025-06-16T15:21:05Z</time>
      </trkpt>
      <trkpt lat="45.91205" lon="1.27745">
        <ele>336.5</ele>
        <time>2025-06-16T15:21:06Z</time>
      </trkpt>
      <trkpt lat="45.91202" lon="1.27739">
        <ele>336.6</ele>
        <time>2025-06-16T15:21:07Z</time>
      </trkpt>
      <trkpt lat="45.912" lon="1.27736">
        <ele>336.6</ele>
        <time>2025-06-16T15:21:08Z</time>
      </trkpt>
      <trkpt lat="45.91198" lon="1.27733">
        <ele>336.7</ele>
        <time>2025-06-16T15:21:09Z</time>
      </trkpt>
      <trkpt lat="45.91196" lon="1.27729">
        <ele>336.7</ele>
        <time>2025-06-16T15:21:10Z</time>
      </trkpt>
      <trkpt lat="45.91196" lon="1.27728">
        <ele>336.7</ele>
        <time>2025-06-16T15:21:11Z</time>
      </trkpt>
      <trkpt lat="45.91194" lon="1.27725">
        <ele>336.8</ele>
        <time>2025-06-16T15:21:12Z</time>
      </trkpt>
      <trkpt lat="45.91191" lon="1.27721">
        <ele>336.9</ele>
        <time>2025-06-16T15:21:13Z</time>
      </trkpt>
      <trkpt lat="45.91189" lon="1.27716">
        <ele>337</ele>
        <time>2025-06-16T15:21:14Z</time>
      </trkpt>
      <trkpt lat="45.91186" lon="1.27711">
        <ele>337.1</ele>
        <time>2025-06-16T15:21:15Z</time>
      </trkpt>
      <trkpt lat="45.91184" lon="1.27707">
        <ele>337.2</ele>
        <time>2025-06-16T15:21:16Z</time>
      </trkpt>
      <trkpt lat="45.91182" lon="1.27703">
        <ele>337.3</ele>
        <time>2025-06-16T15:21:17Z</time>
      </trkpt>
      <trkpt lat="45.91179" lon="1.27699">
        <ele>337.4</ele>
        <time>2025-06-16T15:21:18Z</time>
      </trkpt>
      <trkpt lat="45.91177" lon="1.27695">
        <ele>337.5</ele>
        <time>2025-06-16T15:21:19Z</time>
      </trkpt>
      <trkpt lat="45.91175" lon="1.27691">
        <ele>337.6</ele>
        <time>2025-06-16T15:21:20Z</time>
      </trkpt>
      <trkpt lat="45.91172" lon="1.27687">
        <ele>337.7</ele>
        <time>2025-06-16T15:21:21Z</time>
      </trkpt>
      <trkpt lat="45.9117" lon="1.27682">
        <ele>337.8</ele>
        <time>2025-06-16T15:21:22Z</time>
      </trkpt>
      <trkpt lat="45.91168" lon="1.27678">
        <ele>337.9</ele>
        <time>2025-06-16T15:21:23Z</time>
      </trkpt>
      <trkpt lat="45.91167" lon="1.27673">
        <ele>338</ele>
        <time>2025-06-16T15:21:24Z</time>
      </trkpt>
      <trkpt lat="45.91166" lon="1.27669">
        <ele>338</ele>
        <time>2025-06-16T15:21:25Z</time>
      </trkpt>
      <trkpt lat="45.91165" lon="1.27664">
        <ele>338.1</ele>
        <time>2025-06-16T15:21:26Z</time>
      </trkpt>
      <trkpt lat="45.91164" lon="1.2766">
        <ele>338.1</ele>
        <time>2025-06-16T15:21:27Z</time>
      </trkpt>
      <trkpt lat="45.91164" lon="1.27656">
        <ele>338.2</ele>
        <time>2025-06-16T15:21:28Z</time>
      </trkpt>
      <trkpt lat="45.91164" lon="1.27651">
        <ele>338.2</ele>
        <time>2025-06-16T15:21:29Z</time>
      </trkpt>
      <trkpt lat="45.91164" lon="1.27645">
        <ele>338.1</ele>
        <time>2025-06-16T15:21:30Z</time>
      </trkpt>
      <trkpt lat="45.91166" lon="1.2764">
        <ele>338.2</ele>
        <time>2025-06-16T15:21:31Z</time>
      </trkpt>
      <trkpt lat="45.91167" lon="1.27636">
        <ele>338.2</ele>
        <time>2025-06-16T15:21:32Z</time>
      </trkpt>
      <trkpt lat="45.91168" lon="1.27631">
        <ele>338.2</ele>
        <time>2025-06-16T15:21:33Z</time>
      </trkpt>
      <trkpt lat="45.91169" lon="1.27629">
        <ele>338.2</ele>
        <time>2025-06-16T15:21:34Z</time>
      </trkpt>
      <trkpt lat="45.91169" lon="1.27624">
        <ele>338.2</ele>
        <time>2025-06-16T15:21:35Z</time>
      </trkpt>
      <trkpt lat="45.91169" lon="1.27623">
        <ele>338.3</ele>
        <time>2025-06-16T15:21:36Z</time>
      </trkpt>
      <trkpt lat="45.9117" lon="1.27618">
        <ele>338.3</ele>
        <time>2025-06-16T15:21:37Z</time>
      </trkpt>
      <trkpt lat="45.91171" lon="1.27617">
        <ele>338.3</ele>
        <time>2025-06-16T15:21:38Z</time>
      </trkpt>
      <trkpt lat="45.91171" lon="1.27613">
        <ele>338.4</ele>
        <time>2025-06-16T15:21:39Z</time>
      </trkpt>
      <trkpt lat="45.91172" lon="1.27608">
        <ele>338.4</ele>
        <time>2025-06-16T15:21:40Z</time>
      </trkpt>
      <trkpt lat="45.91173" lon="1.27604">
        <ele>338.4</ele>
        <time>2025-06-16T15:21:41Z</time>
      </trkpt>
      <trkpt lat="45.91174" lon="1.27599">
        <ele>338.5</ele>
        <time>2025-06-16T15:21:42Z</time>
      </trkpt>
      <trkpt lat="45.91174" lon="1.27598">
        <ele>338.5</ele>
        <time>2025-06-16T15:21:43Z</time>
      </trkpt>
      <trkpt lat="45.91174" lon="1.27596">
        <ele>338.5</ele>
        <time>2025-06-16T15:21:44Z</time>
      </trkpt>
      <trkpt lat="45.91173" lon="1.27594">
        <ele>338.5</ele>
        <time>2025-06-16T15:21:45Z</time>
      </trkpt>
      <trkpt lat="45.91172" lon="1.27593">
        <ele>338.5</ele>
        <time>2025-06-16T15:21:47Z</time>
      </trkpt>
      <trkpt lat="45.9117" lon="1.27591">
        <ele>338.6</ele>
        <time>2025-06-16T15:21:48Z</time>
      </trkpt>
      <trkpt lat="45.9117" lon="1.27589">
        <ele>338.6</ele>
        <time>2025-06-16T15:21:49Z</time>
      </trkpt>
      <trkpt lat="45.91169" lon="1.27587">
        <ele>338.6</ele>
        <time>2025-06-16T15:21:50Z</time>
      </trkpt>
      <trkpt lat="45.91169" lon="1.27586">
        <ele>338.6</ele>
        <time>2025-06-16T15:21:51Z</time>
      </trkpt>
      <trkpt lat="45.91168" lon="1.27585">
        <ele>338.6</ele>
        <time>2025-06-16T15:21:52Z</time>
      </trkpt>
      <trkpt lat="45.91168" lon="1.27585">
        <ele>338.6</ele>
        <time>2025-06-16T15:21:53Z</time>
      </trkpt>
      <trkpt lat="45.91168" lon="1.27584">
        <ele>338.6</ele>
        <time>2025-06-16T15:21:54Z</time>
      </trkpt>
      <trkpt lat="45.91168" lon="1.27584">
        <ele>338.6</ele>
        <time>2025-06-16T15:21:55Z</time>
      </trkpt>
      <trkpt lat="45.91167" lon="1.27583">
        <ele>338.6</ele>
        <time>2025-06-16T15:21:56Z</time>
      </trkpt>
      <trkpt lat="45.91167" lon="1.27583">
        <ele>338.7</ele>
        <time>2025-06-16T15:21:57Z</time>
      </trkpt>
      <trkpt lat="45.91167" lon="1.27582">
        <ele>338.7</ele>
        <time>2025-06-16T15:21:58Z</time>
      </trkpt>
      <trkpt lat="45.91167" lon="1.27582">
        <ele>338.7</ele>
        <time>2025-06-16T15:21:59Z</time>
      </trkpt>
      <trkpt lat="45.91167" lon="1.27581">
        <ele>338.7</ele>
        <time>2025-06-16T15:22:00Z</time>
      </trkpt>
      <trkpt lat="45.91166" lon="1.27577">
        <ele>338.7</ele>
        <time>2025-06-16T15:22:01Z</time>
      </trkpt>
      <trkpt lat="45.91166" lon="1.27572">
        <ele>338.8</ele>
        <time>2025-06-16T15:22:02Z</time>
      </trkpt>
      <trkpt lat="45.91167" lon="1.27567">
        <ele>338.8</ele>
        <time>2025-06-16T15:22:03Z</time>
      </trkpt>
      <trkpt lat="45.91167" lon="1.27561">
        <ele>338.9</ele>
        <time>2025-06-16T15:22:04Z</time>
      </trkpt>
      <trkpt lat="45.91167" lon="1.27556">
        <ele>339</ele>
        <time>2025-06-16T15:22:05Z</time>
      </trkpt>
      <trkpt lat="45.91168" lon="1.27551">
        <ele>339.1</ele>
        <time>2025-06-16T15:22:06Z</time>
      </trkpt>
      <trkpt lat="45.91169" lon="1.27547">
        <ele>339.1</ele>
        <time>2025-06-16T15:22:07Z</time>
      </trkpt>
      <trkpt lat="45.9117" lon="1.27545">
        <ele>339.2</ele>
        <time>2025-06-16T15:22:08Z</time>
      </trkpt>
      <trkpt lat="45.91171" lon="1.27544">
        <ele>339.2</ele>
        <time>2025-06-16T15:22:09Z</time>
      </trkpt>
      <trkpt lat="45.91171" lon="1.27542">
        <ele>339.2</ele>
        <time>2025-06-16T15:22:10Z</time>
      </trkpt>
      <trkpt lat="45.91172" lon="1.27541">
        <ele>339.2</ele>
        <time>2025-06-16T15:22:11Z</time>
      </trkpt>
      <trkpt lat="45.91172" lon="1.2754">
        <ele>339.3</ele>
        <time>2025-06-16T15:22:12Z</time>
      </trkpt>
      <trkpt lat="45.91173" lon="1.27537">
        <ele>339.3</ele>
        <time>2025-06-16T15:22:13Z</time>
      </trkpt>
      <trkpt lat="45.91174" lon="1.27534">
        <ele>339.4</ele>
        <time>2025-06-16T15:22:14Z</time>
      </trkpt>
      <trkpt lat="45.91176" lon="1.2753">
        <ele>339.4</ele>
        <time>2025-06-16T15:22:15Z</time>
      </trkpt>
      <trkpt lat="45.91178" lon="1.27526">
        <ele>339.5</ele>
        <time>2025-06-16T15:22:16Z</time>
      </trkpt>
      <trkpt lat="45.9118" lon="1.27522">
        <ele>339.6</ele>
        <time>2025-06-16T15:22:17Z</time>
      </trkpt>
      <trkpt lat="45.91183" lon="1.27519">
        <ele>339.6</ele>
        <time>2025-06-16T15:22:18Z</time>
      </trkpt>
      <trkpt lat="45.91186" lon="1.27514">
        <ele>339.7</ele>
        <time>2025-06-16T15:22:19Z</time>
      </trkpt>
      <trkpt lat="45.91188" lon="1.27511">
        <ele>339.8</ele>
        <time>2025-06-16T15:22:20Z</time>
      </trkpt>
      <trkpt lat="45.91189" lon="1.27507">
        <ele>339.8</ele>
        <time>2025-06-16T15:22:21Z</time>
      </trkpt>
      <trkpt lat="45.9119" lon="1.27503">
        <ele>339.9</ele>
        <time>2025-06-16T15:22:22Z</time>
      </trkpt>
      <trkpt lat="45.91192" lon="1.27498">
        <ele>339.9</ele>
        <time>2025-06-16T15:22:23Z</time>
      </trkpt>
      <trkpt lat="45.91193" lon="1.27493">
        <ele>340</ele>
        <time>2025-06-16T15:22:24Z</time>
      </trkpt>
      <trkpt lat="45.91195" lon="1.27488">
        <ele>340.1</ele>
        <time>2025-06-16T15:22:25Z</time>
      </trkpt>
      <trkpt lat="45.91197" lon="1.27482">
        <ele>340.2</ele>
        <time>2025-06-16T15:22:26Z</time>
      </trkpt>
      <trkpt lat="45.912" lon="1.27477">
        <ele>340.2</ele>
        <time>2025-06-16T15:22:27Z</time>
      </trkpt>
      <trkpt lat="45.91202" lon="1.27472">
        <ele>340.3</ele>
        <time>2025-06-16T15:22:28Z</time>
      </trkpt>
      <trkpt lat="45.91204" lon="1.27467">
        <ele>340.4</ele>
        <time>2025-06-16T15:22:29Z</time>
      </trkpt>
      <trkpt lat="45.91206" lon="1.27461">
        <ele>340.5</ele>
        <time>2025-06-16T15:22:30Z</time>
      </trkpt>
      <trkpt lat="45.91207" lon="1.27458">
        <ele>340.6</ele>
        <time>2025-06-16T15:22:31Z</time>
      </trkpt>
      <trkpt lat="45.91208" lon="1.27453">
        <ele>340.7</ele>
        <time>2025-06-16T15:22:32Z</time>
      </trkpt>
      <trkpt lat="45.91209" lon="1.27451">
        <ele>340.7</ele>
        <time>2025-06-16T15:22:33Z</time>
      </trkpt>
      <trkpt lat="45.9121" lon="1.27445">
        <ele>340.8</ele>
        <time>2025-06-16T15:22:34Z</time>
      </trkpt>
      <trkpt lat="45.91212" lon="1.2744">
        <ele>340.9</ele>
        <time>2025-06-16T15:22:35Z</time>
      </trkpt>
      <trkpt lat="45.91213" lon="1.27435">
        <ele>341</ele>
        <time>2025-06-16T15:22:36Z</time>
      </trkpt>
      <trkpt lat="45.91216" lon="1.2743">
        <ele>341.1</ele>
        <time>2025-06-16T15:22:37Z</time>
      </trkpt>
      <trkpt lat="45.91219" lon="1.27425">
        <ele>341.2</ele>
        <time>2025-06-16T15:22:38Z</time>
      </trkpt>
      <trkpt lat="45.9122" lon="1.27419">
        <ele>341.3</ele>
        <time>2025-06-16T15:22:39Z</time>
      </trkpt>
      <trkpt lat="45.91222" lon="1.27414">
        <ele>341.4</ele>
        <time>2025-06-16T15:22:40Z</time>
      </trkpt>
      <trkpt lat="45.91223" lon="1.27411">
        <ele>341.4</ele>
        <time>2025-06-16T15:22:41Z</time>
      </trkpt>
      <trkpt lat="45.91225" lon="1.27406">
        <ele>341.5</ele>
        <time>2025-06-16T15:22:42Z</time>
      </trkpt>
      <trkpt lat="45.91228" lon="1.274">
        <ele>341.6</ele>
        <time>2025-06-16T15:22:43Z</time>
      </trkpt>
      <trkpt lat="45.9123" lon="1.27394">
        <ele>341.7</ele>
        <time>2025-06-16T15:22:44Z</time>
      </trkpt>
      <trkpt lat="45.91231" lon="1.27388">
        <ele>341.9</ele>
        <time>2025-06-16T15:22:45Z</time>
      </trkpt>
      <trkpt lat="45.91231" lon="1.27384">
        <ele>341.9</ele>
        <time>2025-06-16T15:22:46Z</time>
      </trkpt>
      <trkpt lat="45.91231" lon="1.27378">
        <ele>342.1</ele>
        <time>2025-06-16T15:22:47Z</time>
      </trkpt>
      <trkpt lat="45.91231" lon="1.27376">
        <ele>342.1</ele>
        <time>2025-06-16T15:22:48Z</time>
      </trkpt>
      <trkpt lat="45.91232" lon="1.27372">
        <ele>342.2</ele>
        <time>2025-06-16T15:22:49Z</time>
      </trkpt>
      <trkpt lat="45.91233" lon="1.27367">
        <ele>342.3</ele>
        <time>2025-06-16T15:22:50Z</time>
      </trkpt>
      <trkpt lat="45.91234" lon="1.27362">
        <ele>342.4</ele>
        <time>2025-06-16T15:22:51Z</time>
      </trkpt>
      <trkpt lat="45.91236" lon="1.27356">
        <ele>342.5</ele>
        <time>2025-06-16T15:22:52Z</time>
      </trkpt>
      <trkpt lat="45.91237" lon="1.27351">
        <ele>342.7</ele>
        <time>2025-06-16T15:22:53Z</time>
      </trkpt>
      <trkpt lat="45.91239" lon="1.27347">
        <ele>342.8</ele>
        <time>2025-06-16T15:22:54Z</time>
      </trkpt>
      <trkpt lat="45.9124" lon="1.27342">
        <ele>342.9</ele>
        <time>2025-06-16T15:22:55Z</time>
      </trkpt>
      <trkpt lat="45.91242" lon="1.27338">
        <ele>343</ele>
        <time>2025-06-16T15:22:56Z</time>
      </trkpt>
      <trkpt lat="45.91244" lon="1.27335">
        <ele>343.1</ele>
        <time>2025-06-16T15:22:57Z</time>
      </trkpt>
      <trkpt lat="45.91245" lon="1.27331">
        <ele>343.2</ele>
        <time>2025-06-16T15:22:58Z</time>
      </trkpt>
      <trkpt lat="45.91246" lon="1.27326">
        <ele>343.3</ele>
        <time>2025-06-16T15:22:59Z</time>
      </trkpt>
      <trkpt lat="45.91247" lon="1.27321">
        <ele>343.4</ele>
        <time>2025-06-16T15:23:00Z</time>
      </trkpt>
      <trkpt lat="45.91248" lon="1.27318">
        <ele>343.5</ele>
        <time>2025-06-16T15:23:01Z</time>
      </trkpt>
      <trkpt lat="45.91248" lon="1.27312">
        <ele>343.5</ele>
        <time>2025-06-16T15:23:02Z</time>
      </trkpt>
      <trkpt lat="45.91248" lon="1.27309">
        <ele>343.6</ele>
        <time>2025-06-16T15:23:03Z</time>
      </trkpt>
      <trkpt lat="45.91249" lon="1.27305">
        <ele>343.6</ele>
        <time>2025-06-16T15:23:04Z</time>
      </trkpt>
      <trkpt lat="45.9125" lon="1.27299">
        <ele>343.7</ele>
        <time>2025-06-16T15:23:05Z</time>
      </trkpt>
      <trkpt lat="45.91251" lon="1.27293">
        <ele>343.8</ele>
        <time>2025-06-16T15:23:06Z</time>
      </trkpt>
      <trkpt lat="45.91252" lon="1.27288">
        <ele>343.9</ele>
        <time>2025-06-16T15:23:07Z</time>
      </trkpt>
      <trkpt lat="45.91253" lon="1.27281">
        <ele>344</ele>
        <time>2025-06-16T15:23:08Z</time>
      </trkpt>
      <trkpt lat="45.91255" lon="1.27275">
        <ele>344.1</ele>
        <time>2025-06-16T15:23:09Z</time>
      </trkpt>
      <trkpt lat="45.91258" lon="1.2727">
        <ele>344.2</ele>
        <time>2025-06-16T15:23:10Z</time>
      </trkpt>
      <trkpt lat="45.91261" lon="1.27266">
        <ele>344.3</ele>
        <time>2025-06-16T15:23:11Z</time>
      </trkpt>
      <trkpt lat="45.91264" lon="1.27262">
        <ele>344.5</ele>
        <time>2025-06-16T15:23:12Z</time>
      </trkpt>
      <trkpt lat="45.91267" lon="1.27257">
        <ele>344.6</ele>
        <time>2025-06-16T15:23:13Z</time>
      </trkpt>
      <trkpt lat="45.9127" lon="1.27252">
        <ele>344.7</ele>
        <time>2025-06-16T15:23:14Z</time>
      </trkpt>
      <trkpt lat="45.91272" lon="1.27247">
        <ele>344.9</ele>
        <time>2025-06-16T15:23:15Z</time>
      </trkpt>
      <trkpt lat="45.91273" lon="1.27242">
        <ele>345</ele>
        <time>2025-06-16T15:23:16Z</time>
      </trkpt>
      <trkpt lat="45.91275" lon="1.27236">
        <ele>345.1</ele>
        <time>2025-06-16T15:23:17Z</time>
      </trkpt>
      <trkpt lat="45.91276" lon="1.27231">
        <ele>345.3</ele>
        <time>2025-06-16T15:23:18Z</time>
      </trkpt>
      <trkpt lat="45.91276" lon="1.27227">
        <ele>345.4</ele>
        <time>2025-06-16T15:23:19Z</time>
      </trkpt>
      <trkpt lat="45.91277" lon="1.27219">
        <ele>345.5</ele>
        <time>2025-06-16T15:23:20Z</time>
      </trkpt>
      <trkpt lat="45.91277" lon="1.27215">
        <ele>345.6</ele>
        <time>2025-06-16T15:23:21Z</time>
      </trkpt>
      <trkpt lat="45.91277" lon="1.2721">
        <ele>345.8</ele>
        <time>2025-06-16T15:23:23Z</time>
      </trkpt>
      <trkpt lat="45.91277" lon="1.27206">
        <ele>345.9</ele>
        <time>2025-06-16T15:23:24Z</time>
      </trkpt>
      <trkpt lat="45.91278" lon="1.27202">
        <ele>346</ele>
        <time>2025-06-16T15:23:25Z</time>
      </trkpt>
      <trkpt lat="45.91279" lon="1.27197">
        <ele>346.1</ele>
        <time>2025-06-16T15:23:26Z</time>
      </trkpt>
      <trkpt lat="45.9128" lon="1.27192">
        <ele>346.2</ele>
        <time>2025-06-16T15:23:27Z</time>
      </trkpt>
      <trkpt lat="45.91282" lon="1.27185">
        <ele>346.4</ele>
        <time>2025-06-16T15:23:28Z</time>
      </trkpt>
      <trkpt lat="45.91283" lon="1.27181">
        <ele>346.5</ele>
        <time>2025-06-16T15:23:30Z</time>
      </trkpt>
      <trkpt lat="45.91283" lon="1.27177">
        <ele>346.6</ele>
        <time>2025-06-16T15:23:31Z</time>
      </trkpt>
      <trkpt lat="45.91284" lon="1.27173">
        <ele>346.7</ele>
        <time>2025-06-16T15:23:32Z</time>
      </trkpt>
      <trkpt lat="45.91286" lon="1.27169">
        <ele>346.9</ele>
        <time>2025-06-16T15:23:33Z</time>
      </trkpt>
      <trkpt lat="45.91287" lon="1.27164">
        <ele>347</ele>
        <time>2025-06-16T15:23:34Z</time>
      </trkpt>
      <trkpt lat="45.91289" lon="1.2716">
        <ele>347.1</ele>
        <time>2025-06-16T15:23:35Z</time>
      </trkpt>
      <trkpt lat="45.91291" lon="1.27156">
        <ele>347.2</ele>
        <time>2025-06-16T15:23:36Z</time>
      </trkpt>
      <trkpt lat="45.91293" lon="1.27151">
        <ele>347.3</ele>
        <time>2025-06-16T15:23:37Z</time>
      </trkpt>
      <trkpt lat="45.91296" lon="1.27147">
        <ele>347.4</ele>
        <time>2025-06-16T15:23:38Z</time>
      </trkpt>
      <trkpt lat="45.91299" lon="1.27143">
        <ele>347.5</ele>
        <time>2025-06-16T15:23:39Z</time>
      </trkpt>
      <trkpt lat="45.91301" lon="1.27139">
        <ele>347.6</ele>
        <time>2025-06-16T15:23:40Z</time>
      </trkpt>
      <trkpt lat="45.91304" lon="1.27135">
        <ele>347.7</ele>
        <time>2025-06-16T15:23:41Z</time>
      </trkpt>
      <trkpt lat="45.91307" lon="1.27131">
        <ele>347.8</ele>
        <time>2025-06-16T15:23:42Z</time>
      </trkpt>
      <trkpt lat="45.91309" lon="1.27127">
        <ele>347.9</ele>
        <time>2025-06-16T15:23:43Z</time>
      </trkpt>
      <trkpt lat="45.91311" lon="1.27123">
        <ele>348</ele>
        <time>2025-06-16T15:23:44Z</time>
      </trkpt>
      <trkpt lat="45.91313" lon="1.27119">
        <ele>348.2</ele>
        <time>2025-06-16T15:23:45Z</time>
      </trkpt>
      <trkpt lat="45.91314" lon="1.27117">
        <ele>348.2</ele>
        <time>2025-06-16T15:23:46Z</time>
      </trkpt>
      <trkpt lat="45.91315" lon="1.27112">
        <ele>348.4</ele>
        <time>2025-06-16T15:23:47Z</time>
      </trkpt>
      <trkpt lat="45.91317" lon="1.27108">
        <ele>348.5</ele>
        <time>2025-06-16T15:23:48Z</time>
      </trkpt>
      <trkpt lat="45.91319" lon="1.27105">
        <ele>348.6</ele>
        <time>2025-06-16T15:23:49Z</time>
      </trkpt>
      <trkpt lat="45.91321" lon="1.27102">
        <ele>348.8</ele>
        <time>2025-06-16T15:23:50Z</time>
      </trkpt>
      <trkpt lat="45.91324" lon="1.27099">
        <ele>348.9</ele>
        <time>2025-06-16T15:23:51Z</time>
      </trkpt>
      <trkpt lat="45.91325" lon="1.27096">
        <ele>349.1</ele>
        <time>2025-06-16T15:23:52Z</time>
      </trkpt>
      <trkpt lat="45.91327" lon="1.27093">
        <ele>349.2</ele>
        <time>2025-06-16T15:23:53Z</time>
      </trkpt>
      <trkpt lat="45.91329" lon="1.2709">
        <ele>349.4</ele>
        <time>2025-06-16T15:23:54Z</time>
      </trkpt>
      <trkpt lat="45.91332" lon="1.27086">
        <ele>349.6</ele>
        <time>2025-06-16T15:23:55Z</time>
      </trkpt>
      <trkpt lat="45.91333" lon="1.27085">
        <ele>349.6</ele>
        <time>2025-06-16T15:23:56Z</time>
      </trkpt>
      <trkpt lat="45.91334" lon="1.27082">
        <ele>349.8</ele>
        <time>2025-06-16T15:23:57Z</time>
      </trkpt>
      <trkpt lat="45.91335" lon="1.27081">
        <ele>349.9</ele>
        <time>2025-06-16T15:23:58Z</time>
      </trkpt>
      <trkpt lat="45.91336" lon="1.27079">
        <ele>349.9</ele>
        <time>2025-06-16T15:23:59Z</time>
      </trkpt>
      <trkpt lat="45.91336" lon="1.27077">
        <ele>350</ele>
        <time>2025-06-16T15:24:00Z</time>
      </trkpt>
      <trkpt lat="45.91338" lon="1.27072">
        <ele>350.2</ele>
        <time>2025-06-16T15:24:01Z</time>
      </trkpt>
      <trkpt lat="45.91339" lon="1.27071">
        <ele>350.3</ele>
        <time>2025-06-16T15:24:02Z</time>
      </trkpt>
      <trkpt lat="45.91341" lon="1.27067">
        <ele>350.5</ele>
        <time>2025-06-16T15:24:03Z</time>
      </trkpt>
      <trkpt lat="45.91342" lon="1.27063">
        <ele>350.6</ele>
        <time>2025-06-16T15:24:04Z</time>
      </trkpt>
      <trkpt lat="45.91343" lon="1.27059">
        <ele>350.8</ele>
        <time>2025-06-16T15:24:05Z</time>
      </trkpt>
      <trkpt lat="45.91343" lon="1.27058">
        <ele>350.8</ele>
        <time>2025-06-16T15:24:06Z</time>
      </trkpt>
      <trkpt lat="45.91344" lon="1.27054">
        <ele>350.9</ele>
        <time>2025-06-16T15:24:07Z</time>
      </trkpt>
      <trkpt lat="45.91345" lon="1.27053">
        <ele>351</ele>
        <time>2025-06-16T15:24:08Z</time>
      </trkpt>
      <trkpt lat="45.91347" lon="1.27048">
        <ele>351.2</ele>
        <time>2025-06-16T15:24:09Z</time>
      </trkpt>
      <trkpt lat="45.91347" lon="1.27047">
        <ele>351.2</ele>
        <time>2025-06-16T15:24:10Z</time>
      </trkpt>
      <trkpt lat="45.9135" lon="1.27043">
        <ele>351.4</ele>
        <time>2025-06-16T15:24:11Z</time>
      </trkpt>
      <trkpt lat="45.9135" lon="1.27041">
        <ele>351.5</ele>
        <time>2025-06-16T15:24:12Z</time>
      </trkpt>
      <trkpt lat="45.91352" lon="1.27038">
        <ele>351.6</ele>
        <time>2025-06-16T15:24:13Z</time>
      </trkpt>
      <trkpt lat="45.91352" lon="1.27037">
        <ele>351.6</ele>
        <time>2025-06-16T15:24:14Z</time>
      </trkpt>
      <trkpt lat="45.91354" lon="1.27033">
        <ele>351.8</ele>
        <time>2025-06-16T15:24:15Z</time>
      </trkpt>
      <trkpt lat="45.91355" lon="1.27032">
        <ele>351.9</ele>
        <time>2025-06-16T15:24:16Z</time>
      </trkpt>
      <trkpt lat="45.91357" lon="1.27027">
        <ele>352.1</ele>
        <time>2025-06-16T15:24:17Z</time>
      </trkpt>
      <trkpt lat="45.91358" lon="1.27025">
        <ele>352.2</ele>
        <time>2025-06-16T15:24:18Z</time>
      </trkpt>
      <trkpt lat="45.9136" lon="1.27022">
        <ele>352.3</ele>
        <time>2025-06-16T15:24:19Z</time>
      </trkpt>
      <trkpt lat="45.91361" lon="1.27019">
        <ele>352.5</ele>
        <time>2025-06-16T15:24:20Z</time>
      </trkpt>
      <trkpt lat="45.91364" lon="1.27014">
        <ele>352.7</ele>
        <time>2025-06-16T15:24:21Z</time>
      </trkpt>
      <trkpt lat="45.91365" lon="1.27013">
        <ele>352.8</ele>
        <time>2025-06-16T15:24:22Z</time>
      </trkpt>
      <trkpt lat="45.91367" lon="1.2701">
        <ele>352.9</ele>
        <time>2025-06-16T15:24:23Z</time>
      </trkpt>
      <trkpt lat="45.91367" lon="1.27009">
        <ele>353</ele>
        <time>2025-06-16T15:24:24Z</time>
      </trkpt>
      <trkpt lat="45.91369" lon="1.27005">
        <ele>353.2</ele>
        <time>2025-06-16T15:24:25Z</time>
      </trkpt>
      <trkpt lat="45.9137" lon="1.27003">
        <ele>353.3</ele>
        <time>2025-06-16T15:24:26Z</time>
      </trkpt>
      <trkpt lat="45.91372" lon="1.27">
        <ele>353.5</ele>
        <time>2025-06-16T15:24:27Z</time>
      </trkpt>
      <trkpt lat="45.91375" lon="1.26997">
        <ele>353.7</ele>
        <time>2025-06-16T15:24:28Z</time>
      </trkpt>
      <trkpt lat="45.91378" lon="1.26995">
        <ele>353.9</ele>
        <time>2025-06-16T15:24:29Z</time>
      </trkpt>
      <trkpt lat="45.9138" lon="1.26993">
        <ele>354.1</ele>
        <time>2025-06-16T15:24:30Z</time>
      </trkpt>
      <trkpt lat="45.91383" lon="1.2699">
        <ele>354.3</ele>
        <time>2025-06-16T15:24:31Z</time>
      </trkpt>
      <trkpt lat="45.91385" lon="1.26986">
        <ele>354.5</ele>
        <time>2025-06-16T15:24:32Z</time>
      </trkpt>
      <trkpt lat="45.91386" lon="1.26982">
        <ele>354.7</ele>
        <time>2025-06-16T15:24:33Z</time>
      </trkpt>
      <trkpt lat="45.91387" lon="1.26978">
        <ele>354.8</ele>
        <time>2025-06-16T15:24:34Z</time>
      </trkpt>
      <trkpt lat="45.91388" lon="1.26974">
        <ele>355.1</ele>
        <time>2025-06-16T15:24:35Z</time>
      </trkpt>
      <trkpt lat="45.91389" lon="1.26972">
        <ele>355.1</ele>
        <time>2025-06-16T15:24:36Z</time>
      </trkpt>
      <trkpt lat="45.9139" lon="1.26967">
        <ele>355.3</ele>
        <time>2025-06-16T15:24:37Z</time>
      </trkpt>
      <trkpt lat="45.9139" lon="1.26966">
        <ele>355.4</ele>
        <time>2025-06-16T15:24:38Z</time>
      </trkpt>
      <trkpt lat="45.91392" lon="1.26962">
        <ele>355.6</ele>
        <time>2025-06-16T15:24:39Z</time>
      </trkpt>
      <trkpt lat="45.91392" lon="1.2696">
        <ele>355.7</ele>
        <time>2025-06-16T15:24:40Z</time>
      </trkpt>
      <trkpt lat="45.91393" lon="1.26957">
        <ele>355.8</ele>
        <time>2025-06-16T15:24:41Z</time>
      </trkpt>
      <trkpt lat="45.91394" lon="1.26957">
        <ele>355.8</ele>
        <time>2025-06-16T15:24:42Z</time>
      </trkpt>
      <trkpt lat="45.91394" lon="1.26956">
        <ele>355.9</ele>
        <time>2025-06-16T15:24:43Z</time>
      </trkpt>
      <trkpt lat="45.91395" lon="1.26956">
        <ele>355.9</ele>
        <time>2025-06-16T15:24:44Z</time>
      </trkpt>
      <trkpt lat="45.91397" lon="1.2695">
        <ele>356.2</ele>
        <time>2025-06-16T15:24:45Z</time>
      </trkpt>
      <trkpt lat="45.91399" lon="1.26948">
        <ele>356.3</ele>
        <time>2025-06-16T15:24:46Z</time>
      </trkpt>
      <trkpt lat="45.91401" lon="1.26942">
        <ele>356.5</ele>
        <time>2025-06-16T15:24:48Z</time>
      </trkpt>
      <trkpt lat="45.91404" lon="1.26937">
        <ele>356.7</ele>
        <time>2025-06-16T15:24:50Z</time>
      </trkpt>
      <trkpt lat="45.91407" lon="1.2693">
        <ele>357</ele>
        <time>2025-06-16T15:24:52Z</time>
      </trkpt>
      <trkpt lat="45.91411" lon="1.26922">
        <ele>357.4</ele>
        <time>2025-06-16T15:24:54Z</time>
      </trkpt>
      <trkpt lat="45.91414" lon="1.26918">
        <ele>357.5</ele>
        <time>2025-06-16T15:24:55Z</time>
      </trkpt>
      <trkpt lat="45.91416" lon="1.26914">
        <ele>357.7</ele>
        <time>2025-06-16T15:24:57Z</time>
      </trkpt>
      <trkpt lat="45.91416" lon="1.26912">
        <ele>357.8</ele>
        <time>2025-06-16T15:24:58Z</time>
      </trkpt>
      <trkpt lat="45.91418" lon="1.26909">
        <ele>358</ele>
        <time>2025-06-16T15:24:59Z</time>
      </trkpt>
      <trkpt lat="45.91419" lon="1.26907">
        <ele>358</ele>
        <time>2025-06-16T15:25:00Z</time>
      </trkpt>
      <trkpt lat="45.91421" lon="1.26903">
        <ele>358.2</ele>
        <time>2025-06-16T15:25:01Z</time>
      </trkpt>
      <trkpt lat="45.91422" lon="1.26902">
        <ele>358.3</ele>
        <time>2025-06-16T15:25:02Z</time>
      </trkpt>
      <trkpt lat="45.91424" lon="1.26897">
        <ele>358.5</ele>
        <time>2025-06-16T15:25:03Z</time>
      </trkpt>
      <trkpt lat="45.91425" lon="1.26896">
        <ele>358.6</ele>
        <time>2025-06-16T15:25:04Z</time>
      </trkpt>
      <trkpt lat="45.91428" lon="1.26891">
        <ele>358.8</ele>
        <time>2025-06-16T15:25:05Z</time>
      </trkpt>
      <trkpt lat="45.91429" lon="1.2689">
        <ele>358.9</ele>
        <time>2025-06-16T15:25:06Z</time>
      </trkpt>
      <trkpt lat="45.91431" lon="1.26885">
        <ele>359.1</ele>
        <time>2025-06-16T15:25:07Z</time>
      </trkpt>
      <trkpt lat="45.91432" lon="1.26883">
        <ele>359.2</ele>
        <time>2025-06-16T15:25:08Z</time>
      </trkpt>
      <trkpt lat="45.91435" lon="1.26878">
        <ele>359.4</ele>
        <time>2025-06-16T15:25:09Z</time>
      </trkpt>
      <trkpt lat="45.91438" lon="1.26873">
        <ele>359.6</ele>
        <time>2025-06-16T15:25:10Z</time>
      </trkpt>
      <trkpt lat="45.9144" lon="1.2687">
        <ele>359.8</ele>
        <time>2025-06-16T15:25:11Z</time>
      </trkpt>
      <trkpt lat="45.91441" lon="1.26866">
        <ele>359.9</ele>
        <time>2025-06-16T15:25:12Z</time>
      </trkpt>
      <trkpt lat="45.91443" lon="1.26863">
        <ele>360.1</ele>
        <time>2025-06-16T15:25:13Z</time>
      </trkpt>
      <trkpt lat="45.91444" lon="1.26861">
        <ele>360.2</ele>
        <time>2025-06-16T15:25:14Z</time>
      </trkpt>
      <trkpt lat="45.91445" lon="1.26859">
        <ele>360.3</ele>
        <time>2025-06-16T15:25:16Z</time>
      </trkpt>
      <trkpt lat="45.91446" lon="1.26858">
        <ele>360.3</ele>
        <time>2025-06-16T15:25:17Z</time>
      </trkpt>
      <trkpt lat="45.91448" lon="1.26852">
        <ele>360.6</ele>
        <time>2025-06-16T15:25:18Z</time>
      </trkpt>
      <trkpt lat="45.9145" lon="1.26849">
        <ele>360.7</ele>
        <time>2025-06-16T15:25:19Z</time>
      </trkpt>
      <trkpt lat="45.91451" lon="1.26845">
        <ele>360.9</ele>
        <time>2025-06-16T15:25:21Z</time>
      </trkpt>
      <trkpt lat="45.91455" lon="1.26839">
        <ele>361.2</ele>
        <time>2025-06-16T15:25:22Z</time>
      </trkpt>
      <trkpt lat="45.91458" lon="1.26835">
        <ele>361.5</ele>
        <time>2025-06-16T15:25:24Z</time>
      </trkpt>
      <trkpt lat="45.9146" lon="1.2683">
        <ele>361.7</ele>
        <time>2025-06-16T15:25:25Z</time>
      </trkpt>
      <trkpt lat="45.91461" lon="1.26829">
        <ele>361.8</ele>
        <time>2025-06-16T15:25:26Z</time>
      </trkpt>
      <trkpt lat="45.91464" lon="1.26825">
        <ele>362</ele>
        <time>2025-06-16T15:25:27Z</time>
      </trkpt>
      <trkpt lat="45.91466" lon="1.26822">
        <ele>362.1</ele>
        <time>2025-06-16T15:25:28Z</time>
      </trkpt>
      <trkpt lat="45.91468" lon="1.26819">
        <ele>362.3</ele>
        <time>2025-06-16T15:25:29Z</time>
      </trkpt>
      <trkpt lat="45.9147" lon="1.26815">
        <ele>362.4</ele>
        <time>2025-06-16T15:25:30Z</time>
      </trkpt>
      <trkpt lat="45.91472" lon="1.26812">
        <ele>362.6</ele>
        <time>2025-06-16T15:25:31Z</time>
      </trkpt>
      <trkpt lat="45.91474" lon="1.26808">
        <ele>362.7</ele>
        <time>2025-06-16T15:25:32Z</time>
      </trkpt>
      <trkpt lat="45.91476" lon="1.26804">
        <ele>362.9</ele>
        <time>2025-06-16T15:25:33Z</time>
      </trkpt>
      <trkpt lat="45.9148" lon="1.26792">
        <ele>363.2</ele>
        <time>2025-06-16T15:25:34Z</time>
      </trkpt>
      <trkpt lat="45.91481" lon="1.26787">
        <ele>363.4</ele>
        <time>2025-06-16T15:25:36Z</time>
      </trkpt>
      <trkpt lat="45.91482" lon="1.26782">
        <ele>363.5</ele>
        <time>2025-06-16T15:25:37Z</time>
      </trkpt>
      <trkpt lat="45.91482" lon="1.26777">
        <ele>363.6</ele>
        <time>2025-06-16T15:25:38Z</time>
      </trkpt>
      <trkpt lat="45.91483" lon="1.26772">
        <ele>363.7</ele>
        <time>2025-06-16T15:25:39Z</time>
      </trkpt>
      <trkpt lat="45.91483" lon="1.26768">
        <ele>363.8</ele>
        <time>2025-06-16T15:25:40Z</time>
      </trkpt>
      <trkpt lat="45.91484" lon="1.26763">
        <ele>363.9</ele>
        <time>2025-06-16T15:25:41Z</time>
      </trkpt>
      <trkpt lat="45.91485" lon="1.26758">
        <ele>364</ele>
        <time>2025-06-16T15:25:42Z</time>
      </trkpt>
      <trkpt lat="45.91485" lon="1.26753">
        <ele>364.1</ele>
        <time>2025-06-16T15:25:43Z</time>
      </trkpt>
      <trkpt lat="45.91485" lon="1.26748">
        <ele>364.2</ele>
        <time>2025-06-16T15:25:44Z</time>
      </trkpt>
      <trkpt lat="45.91486" lon="1.26743">
        <ele>364.3</ele>
        <time>2025-06-16T15:25:45Z</time>
      </trkpt>
      <trkpt lat="45.91486" lon="1.26738">
        <ele>364.4</ele>
        <time>2025-06-16T15:25:46Z</time>
      </trkpt>
      <trkpt lat="45.91487" lon="1.26733">
        <ele>364.5</ele>
        <time>2025-06-16T15:25:47Z</time>
      </trkpt>
      <trkpt lat="45.91487" lon="1.26729">
        <ele>364.6</ele>
        <time>2025-06-16T15:25:48Z</time>
      </trkpt>
      <trkpt lat="45.91488" lon="1.26724">
        <ele>364.7</ele>
        <time>2025-06-16T15:25:49Z</time>
      </trkpt>
      <trkpt lat="45.91488" lon="1.26716">
        <ele>364.9</ele>
        <time>2025-06-16T15:25:50Z</time>
      </trkpt>
      <trkpt lat="45.9149" lon="1.26707">
        <ele>365.2</ele>
        <time>2025-06-16T15:25:52Z</time>
      </trkpt>
      <trkpt lat="45.9149" lon="1.26703">
        <ele>365.3</ele>
        <time>2025-06-16T15:25:53Z</time>
      </trkpt>
      <trkpt lat="45.9149" lon="1.26699">
        <ele>365.5</ele>
        <time>2025-06-16T15:25:55Z</time>
      </trkpt>
      <trkpt lat="45.9149" lon="1.26693">
        <ele>365.7</ele>
        <time>2025-06-16T15:25:56Z</time>
      </trkpt>
      <trkpt lat="45.9149" lon="1.26691">
        <ele>365.7</ele>
        <time>2025-06-16T15:25:57Z</time>
      </trkpt>
      <trkpt lat="45.91491" lon="1.26686">
        <ele>365.9</ele>
        <time>2025-06-16T15:25:58Z</time>
      </trkpt>
      <trkpt lat="45.91491" lon="1.26684">
        <ele>365.9</ele>
        <time>2025-06-16T15:25:59Z</time>
      </trkpt>
      <trkpt lat="45.91492" lon="1.26683">
        <ele>365.9</ele>
        <time>2025-06-16T15:26:00Z</time>
      </trkpt>
      <trkpt lat="45.91492" lon="1.26683">
        <ele>365.9</ele>
        <time>2025-06-16T15:26:01Z</time>
      </trkpt>
      <trkpt lat="45.91493" lon="1.26682">
        <ele>365.9</ele>
        <time>2025-06-16T15:26:02Z</time>
      </trkpt>
      <trkpt lat="45.91493" lon="1.26683">
        <ele>365.9</ele>
        <time>2025-06-16T15:26:04Z</time>
      </trkpt>
      <trkpt lat="45.91492" lon="1.26683">
        <ele>365.9</ele>
        <time>2025-06-16T15:26:05Z</time>
      </trkpt>
      <trkpt lat="45.91492" lon="1.26684">
        <ele>365.9</ele>
        <time>2025-06-16T15:26:06Z</time>
      </trkpt>
      <trkpt lat="45.91491" lon="1.26685">
        <ele>365.9</ele>
        <time>2025-06-16T15:26:07Z</time>
      </trkpt>
      <trkpt lat="45.91491" lon="1.26685">
        <ele>365.9</ele>
        <time>2025-06-16T15:26:08Z</time>
      </trkpt>
      <trkpt lat="45.9149" lon="1.26685">
        <ele>365.9</ele>
        <time>2025-06-16T15:26:09Z</time>
      </trkpt>
      <trkpt lat="45.9149" lon="1.26686">
        <ele>365.9</ele>
        <time>2025-06-16T15:26:10Z</time>
      </trkpt>
      <trkpt lat="45.91489" lon="1.26686">
        <ele>365.9</ele>
        <time>2025-06-16T15:26:11Z</time>
      </trkpt>
      <trkpt lat="45.91489" lon="1.26686">
        <ele>365.9</ele>
        <time>2025-06-16T15:26:12Z</time>
      </trkpt>
      <trkpt lat="45.91489" lon="1.26686">
        <ele>365.9</ele>
        <time>2025-06-16T15:26:13Z</time>
      </trkpt>
      <trkpt lat="45.91489" lon="1.26686">
        <ele>365.8</ele>
        <time>2025-06-16T15:26:14Z</time>
      </trkpt>
      <trkpt lat="45.91489" lon="1.26686">
        <ele>365.8</ele>
        <time>2025-06-16T15:26:15Z</time>
      </trkpt>
      <trkpt lat="45.91489" lon="1.26686">
        <ele>365.8</ele>
        <time>2025-06-16T15:26:16Z</time>
      </trkpt>
      <trkpt lat="45.91489" lon="1.26686">
        <ele>365.8</ele>
        <time>2025-06-16T15:26:17Z</time>
      </trkpt>
      <trkpt lat="45.91489" lon="1.26686">
        <ele>365.8</ele>
        <time>2025-06-16T15:26:19Z</time>
      </trkpt>
      <trkpt lat="45.91488" lon="1.26686">
        <ele>365.8</ele>
        <time>2025-06-16T15:26:20Z</time>
      </trkpt>
      <trkpt lat="45.91488" lon="1.26686">
        <ele>365.8</ele>
        <time>2025-06-16T15:26:21Z</time>
      </trkpt>
      <trkpt lat="45.91488" lon="1.26686">
        <ele>365.8</ele>
        <time>2025-06-16T15:26:22Z</time>
      </trkpt>
      <trkpt lat="45.91488" lon="1.26686">
        <ele>365.8</ele>
        <time>2025-06-16T15:26:23Z</time>
      </trkpt>
      <trkpt lat="45.91488" lon="1.26687">
        <ele>365.8</ele>
        <time>2025-06-16T15:26:24Z</time>
      </trkpt>
      <trkpt lat="45.91488" lon="1.26687">
        <ele>365.8</ele>
        <time>2025-06-16T15:26:25Z</time>
      </trkpt>
      <trkpt lat="45.91489" lon="1.26687">
        <ele>365.8</ele>
        <time>2025-06-16T15:26:26Z</time>
      </trkpt>
      <trkpt lat="45.91489" lon="1.26687">
        <ele>365.8</ele>
        <time>2025-06-16T15:26:27Z</time>
      </trkpt>
      <trkpt lat="45.91489" lon="1.26687">
        <ele>365.8</ele>
        <time>2025-06-16T15:26:28Z</time>
      </trkpt>
      <trkpt lat="45.91489" lon="1.26687">
        <ele>365.8</ele>
        <time>2025-06-16T15:26:29Z</time>
      </trkpt>
      <trkpt lat="45.91489" lon="1.26687">
        <ele>365.8</ele>
        <time>2025-06-16T15:26:30Z</time>
      </trkpt>
      <trkpt lat="45.91489" lon="1.26687">
        <ele>365.8</ele>
        <time>2025-06-16T15:26:32Z</time>
      </trkpt>
      <trkpt lat="45.91489" lon="1.26687">
        <ele>365.8</ele>
        <time>2025-06-16T15:26:34Z</time>
      </trkpt>
      <trkpt lat="45.91489" lon="1.26687">
        <ele>365.8</ele>
        <time>2025-06-16T15:26:35Z</time>
      </trkpt>
      <trkpt lat="45.91489" lon="1.26687">
        <ele>365.8</ele>
        <time>2025-06-16T15:26:36Z</time>
      </trkpt>
      <trkpt lat="45.91489" lon="1.26687">
        <ele>365.8</ele>
        <time>2025-06-16T15:26:38Z</time>
      </trkpt>
      <trkpt lat="45.91489" lon="1.26687">
        <ele>365.8</ele>
        <time>2025-06-16T15:26:39Z</time>
      </trkpt>
      <trkpt lat="45.91489" lon="1.26687">
        <ele>365.8</ele>
        <time>2025-06-16T15:26:40Z</time>
      </trkpt>
      <trkpt lat="45.91489" lon="1.26687">
        <ele>365.8</ele>
        <time>2025-06-16T15:26:41Z</time>
      </trkpt>
      <trkpt lat="45.91489" lon="1.26687">
        <ele>365.8</ele>
        <time>2025-06-16T15:26:43Z</time>
      </trkpt>
      <trkpt lat="45.9149" lon="1.26688">
        <ele>365.8</ele>
        <time>2025-06-16T15:26:44Z</time>
      </trkpt>
      <trkpt lat="45.91491" lon="1.26689">
        <ele>365.8</ele>
        <time>2025-06-16T15:26:45Z</time>
      </trkpt>
      <trkpt lat="45.9149" lon="1.26689">
        <ele>365.7</ele>
        <time>2025-06-16T15:26:46Z</time>
      </trkpt>
      <trkpt lat="45.9149" lon="1.26691">
        <ele>365.7</ele>
        <time>2025-06-16T15:26:47Z</time>
      </trkpt>
      <trkpt lat="45.91489" lon="1.26693">
        <ele>365.6</ele>
        <time>2025-06-16T15:26:48Z</time>
      </trkpt>
      <trkpt lat="45.91488" lon="1.26695">
        <ele>365.5</ele>
        <time>2025-06-16T15:26:49Z</time>
      </trkpt>
      <trkpt lat="45.91488" lon="1.26699">
        <ele>365.4</ele>
        <time>2025-06-16T15:26:50Z</time>
      </trkpt>
      <trkpt lat="45.91488" lon="1.26705">
        <ele>365.1</ele>
        <time>2025-06-16T15:26:51Z</time>
      </trkpt>
      <trkpt lat="45.91488" lon="1.2671">
        <ele>365</ele>
        <time>2025-06-16T15:26:52Z</time>
      </trkpt>
      <trkpt lat="45.91487" lon="1.26722">
        <ele>364.7</ele>
        <time>2025-06-16T15:26:53Z</time>
      </trkpt>
      <trkpt lat="45.91485" lon="1.26734">
        <ele>364.5</ele>
        <time>2025-06-16T15:26:55Z</time>
      </trkpt>
      <trkpt lat="45.91484" lon="1.2674">
        <ele>364.3</ele>
        <time>2025-06-16T15:26:57Z</time>
      </trkpt>
      <trkpt lat="45.91484" lon="1.26747">
        <ele>364.2</ele>
        <time>2025-06-16T15:26:58Z</time>
      </trkpt>
      <trkpt lat="45.91484" lon="1.26758">
        <ele>363.9</ele>
        <time>2025-06-16T15:26:59Z</time>
      </trkpt>
      <trkpt lat="45.91483" lon="1.26762">
        <ele>363.9</ele>
        <time>2025-06-16T15:27:00Z</time>
      </trkpt>
      <trkpt lat="45.91483" lon="1.26764">
        <ele>363.8</ele>
        <time>2025-06-16T15:27:01Z</time>
      </trkpt>
      <trkpt lat="45.91484" lon="1.26766">
        <ele>363.8</ele>
        <time>2025-06-16T15:27:03Z</time>
      </trkpt>
      <trkpt lat="45.91485" lon="1.26767">
        <ele>363.8</ele>
        <time>2025-06-16T15:27:04Z</time>
      </trkpt>
      <trkpt lat="45.91484" lon="1.26767">
        <ele>363.8</ele>
        <time>2025-06-16T15:27:05Z</time>
      </trkpt>
      <trkpt lat="45.91485" lon="1.26765">
        <ele>363.8</ele>
        <time>2025-06-16T15:27:06Z</time>
      </trkpt>
      <trkpt lat="45.91485" lon="1.26764">
        <ele>363.8</ele>
        <time>2025-06-16T15:27:08Z</time>
      </trkpt>
      <trkpt lat="45.91485" lon="1.26763">
        <ele>363.8</ele>
        <time>2025-06-16T15:27:09Z</time>
      </trkpt>
      <trkpt lat="45.91485" lon="1.26763">
        <ele>363.8</ele>
        <time>2025-06-16T15:27:10Z</time>
      </trkpt>
      <trkpt lat="45.91485" lon="1.26762">
        <ele>363.9</ele>
        <time>2025-06-16T15:27:11Z</time>
      </trkpt>
      <trkpt lat="45.91485" lon="1.26761">
        <ele>363.9</ele>
        <time>2025-06-16T15:27:12Z</time>
      </trkpt>
      <trkpt lat="45.91485" lon="1.2676">
        <ele>363.9</ele>
        <time>2025-06-16T15:27:13Z</time>
      </trkpt>
      <trkpt lat="45.91486" lon="1.26756">
        <ele>364</ele>
        <time>2025-06-16T15:27:14Z</time>
      </trkpt>
      <trkpt lat="45.91486" lon="1.26752">
        <ele>364.1</ele>
        <time>2025-06-16T15:27:16Z</time>
      </trkpt>
      <trkpt lat="45.91486" lon="1.26744">
        <ele>364.3</ele>
        <time>2025-06-16T15:27:17Z</time>
      </trkpt>
      <trkpt lat="45.91485" lon="1.26736">
        <ele>364.4</ele>
        <time>2025-06-16T15:27:19Z</time>
      </trkpt>
      <trkpt lat="45.91485" lon="1.26731">
        <ele>364.5</ele>
        <time>2025-06-16T15:27:20Z</time>
      </trkpt>
      <trkpt lat="45.91485" lon="1.26725">
        <ele>364.7</ele>
        <time>2025-06-16T15:27:21Z</time>
      </trkpt>
      <trkpt lat="45.91486" lon="1.2672">
        <ele>364.8</ele>
        <time>2025-06-16T15:27:22Z</time>
      </trkpt>
      <trkpt lat="45.91486" lon="1.26712">
        <ele>365</ele>
        <time>2025-06-16T15:27:23Z</time>
      </trkpt>
      <trkpt lat="45.91486" lon="1.26708">
        <ele>365.1</ele>
        <time>2025-06-16T15:27:24Z</time>
      </trkpt>
      <trkpt lat="45.91487" lon="1.26703">
        <ele>365.3</ele>
        <time>2025-06-16T15:27:25Z</time>
      </trkpt>
      <trkpt lat="45.91487" lon="1.26701">
        <ele>365.3</ele>
        <time>2025-06-16T15:27:26Z</time>
      </trkpt>
      <trkpt lat="45.91488" lon="1.26697">
        <ele>365.5</ele>
        <time>2025-06-16T15:27:28Z</time>
      </trkpt>
      <trkpt lat="45.91488" lon="1.26695">
        <ele>365.6</ele>
        <time>2025-06-16T15:27:29Z</time>
      </trkpt>
      <trkpt lat="45.91489" lon="1.2669">
        <ele>365.8</ele>
        <time>2025-06-16T15:27:30Z</time>
      </trkpt>
      <trkpt lat="45.91489" lon="1.26689">
        <ele>365.8</ele>
        <time>2025-06-16T15:27:31Z</time>
      </trkpt>
      <trkpt lat="45.91489" lon="1.26687">
        <ele>365.8</ele>
        <time>2025-06-16T15:27:32Z</time>
      </trkpt>
      <trkpt lat="45.91488" lon="1.26687">
        <ele>365.8</ele>
        <time>2025-06-16T15:27:33Z</time>
      </trkpt>
      <trkpt lat="45.91488" lon="1.26687">
        <ele>365.8</ele>
        <time>2025-06-16T15:27:34Z</time>
      </trkpt>
      <trkpt lat="45.91488" lon="1.26688">
        <ele>365.8</ele>
        <time>2025-06-16T15:27:35Z</time>
      </trkpt>
      <trkpt lat="45.91488" lon="1.26688">
        <ele>365.8</ele>
        <time>2025-06-16T15:27:36Z</time>
      </trkpt>
      <trkpt lat="45.91487" lon="1.26689">
        <ele>365.8</ele>
        <time>2025-06-16T15:27:37Z</time>
      </trkpt>
      <trkpt lat="45.91487" lon="1.26689">
        <ele>365.8</ele>
        <time>2025-06-16T15:27:38Z</time>
      </trkpt>
      <trkpt lat="45.91487" lon="1.26689">
        <ele>365.8</ele>
        <time>2025-06-16T15:27:39Z</time>
      </trkpt>
      <trkpt lat="45.91487" lon="1.26689">
        <ele>365.8</ele>
        <time>2025-06-16T15:27:40Z</time>
      </trkpt>
      <trkpt lat="45.91487" lon="1.26689">
        <ele>365.8</ele>
        <time>2025-06-16T15:27:41Z</time>
      </trkpt>
      <trkpt lat="45.91488" lon="1.26689">
        <ele>365.9</ele>
        <time>2025-06-16T15:27:42Z</time>
      </trkpt>
      <trkpt lat="45.91488" lon="1.26688">
        <ele>365.9</ele>
        <time>2025-06-16T15:27:44Z</time>
      </trkpt>
      <trkpt lat="45.91489" lon="1.26686">
        <ele>365.9</ele>
        <time>2025-06-16T15:27:45Z</time>
      </trkpt>
      <trkpt lat="45.91489" lon="1.26685">
        <ele>365.9</ele>
        <time>2025-06-16T15:27:46Z</time>
      </trkpt>
      <trkpt lat="45.91489" lon="1.26685">
        <ele>365.9</ele>
        <time>2025-06-16T15:27:47Z</time>
      </trkpt>
      <trkpt lat="45.91489" lon="1.26686">
        <ele>365.9</ele>
        <time>2025-06-16T15:27:48Z</time>
      </trkpt>
      <trkpt lat="45.91489" lon="1.26686">
        <ele>365.9</ele>
        <time>2025-06-16T15:27:49Z</time>
      </trkpt>
      <trkpt lat="45.91489" lon="1.26686">
        <ele>365.9</ele>
        <time>2025-06-16T15:27:50Z</time>
      </trkpt>
      <trkpt lat="45.91489" lon="1.26686">
        <ele>365.9</ele>
        <time>2025-06-16T15:27:51Z</time>
      </trkpt>
      <trkpt lat="45.91489" lon="1.26686">
        <ele>365.9</ele>
        <time>2025-06-16T15:27:52Z</time>
      </trkpt>
      <trkpt lat="45.9149" lon="1.26684">
        <ele>365.9</ele>
        <time>2025-06-16T15:27:53Z</time>
      </trkpt>
      <trkpt lat="45.91491" lon="1.26682">
        <ele>366</ele>
        <time>2025-06-16T15:27:55Z</time>
      </trkpt>
      <trkpt lat="45.91492" lon="1.26682">
        <ele>366</ele>
        <time>2025-06-16T15:27:56Z</time>
      </trkpt>
      <trkpt lat="45.91492" lon="1.26681">
        <ele>366</ele>
        <time>2025-06-16T15:27:57Z</time>
      </trkpt>
      <trkpt lat="45.91493" lon="1.26681">
        <ele>366</ele>
        <time>2025-06-16T15:27:58Z</time>
      </trkpt>
      <trkpt lat="45.91493" lon="1.26682">
        <ele>366</ele>
        <time>2025-06-16T15:27:59Z</time>
      </trkpt>
      <trkpt lat="45.91493" lon="1.26682">
        <ele>366</ele>
        <time>2025-06-16T15:28:00Z</time>
      </trkpt>
      <trkpt lat="45.91493" lon="1.26682">
        <ele>366</ele>
        <time>2025-06-16T15:28:01Z</time>
      </trkpt>
      <trkpt lat="45.91493" lon="1.26682">
        <ele>366</ele>
        <time>2025-06-16T15:28:02Z</time>
      </trkpt>
      <trkpt lat="45.91493" lon="1.26682">
        <ele>366</ele>
        <time>2025-06-16T15:28:03Z</time>
      </trkpt>
      <trkpt lat="45.91493" lon="1.26682">
        <ele>366</ele>
        <time>2025-06-16T15:28:04Z</time>
      </trkpt>
      <trkpt lat="45.91493" lon="1.26682">
        <ele>366</ele>
        <time>2025-06-16T15:28:05Z</time>
      </trkpt>
      <trkpt lat="45.91493" lon="1.26681">
        <ele>366</ele>
        <time>2025-06-16T15:28:06Z</time>
      </trkpt>
      <trkpt lat="45.91493" lon="1.26681">
        <ele>366</ele>
        <time>2025-06-16T15:28:07Z</time>
      </trkpt>
      <trkpt lat="45.91493" lon="1.26681">
        <ele>366</ele>
        <time>2025-06-16T15:28:08Z</time>
      </trkpt>
      <trkpt lat="45.91493" lon="1.26681">
        <ele>366</ele>
        <time>2025-06-16T15:28:09Z</time>
      </trkpt>
      <trkpt lat="45.91493" lon="1.26681">
        <ele>366</ele>
        <time>2025-06-16T15:28:10Z</time>
      </trkpt>
      <trkpt lat="45.91493" lon="1.26681">
        <ele>366</ele>
        <time>2025-06-16T15:28:11Z</time>
      </trkpt>
      <trkpt lat="45.91493" lon="1.26681">
        <ele>366</ele>
        <time>2025-06-16T15:28:12Z</time>
      </trkpt>
      <trkpt lat="45.91493" lon="1.26681">
        <ele>366</ele>
        <time>2025-06-16T15:28:13Z</time>
      </trkpt>
      <trkpt lat="45.91493" lon="1.26681">
        <ele>366</ele>
        <time>2025-06-16T15:28:15Z</time>
      </trkpt>
      <trkpt lat="45.91493" lon="1.26681">
        <ele>366</ele>
        <time>2025-06-16T15:28:17Z</time>
      </trkpt>
      <trkpt lat="45.91493" lon="1.26681">
        <ele>366</ele>
        <time>2025-06-16T15:28:18Z</time>
      </trkpt>
      <trkpt lat="45.91493" lon="1.26681">
        <ele>366</ele>
        <time>2025-06-16T15:28:19Z</time>
      </trkpt>
      <trkpt lat="45.91493" lon="1.26681">
        <ele>366</ele>
        <time>2025-06-16T15:28:20Z</time>
      </trkpt>
      <trkpt lat="45.91493" lon="1.26681">
        <ele>366</ele>
        <time>2025-06-16T15:28:21Z</time>
      </trkpt>
      <trkpt lat="45.91494" lon="1.26681">
        <ele>366</ele>
        <time>2025-06-16T15:28:22Z</time>
      </trkpt>
      <trkpt lat="45.91494" lon="1.26681">
        <ele>366</ele>
        <time>2025-06-16T15:28:23Z</time>
      </trkpt>
      <trkpt lat="45.91495" lon="1.2668">
        <ele>366</ele>
        <time>2025-06-16T15:28:24Z</time>
      </trkpt>
      <trkpt lat="45.91496" lon="1.2668">
        <ele>366</ele>
        <time>2025-06-16T15:28:25Z</time>
      </trkpt>
      <trkpt lat="45.91496" lon="1.2668">
        <ele>366</ele>
        <time>2025-06-16T15:28:26Z</time>
      </trkpt>
      <trkpt lat="45.91497" lon="1.26679">
        <ele>366.1</ele>
        <time>2025-06-16T15:28:27Z</time>
      </trkpt>
      <trkpt lat="45.91499" lon="1.26679">
        <ele>366.1</ele>
        <time>2025-06-16T15:28:28Z</time>
      </trkpt>
      <trkpt lat="45.91502" lon="1.26679">
        <ele>366.1</ele>
        <time>2025-06-16T15:28:30Z</time>
      </trkpt>
      <trkpt lat="45.91503" lon="1.2668">
        <ele>366.1</ele>
        <time>2025-06-16T15:28:31Z</time>
      </trkpt>
      <trkpt lat="45.91504" lon="1.2668">
        <ele>366.2</ele>
        <time>2025-06-16T15:28:32Z</time>
      </trkpt>
      <trkpt lat="45.91505" lon="1.26681">
        <ele>366.2</ele>
        <time>2025-06-16T15:28:33Z</time>
      </trkpt>
      <trkpt lat="45.91505" lon="1.26682">
        <ele>366.2</ele>
        <time>2025-06-16T15:28:34Z</time>
      </trkpt>
      <trkpt lat="45.91513" lon="1.26685">
        <ele>366.3</ele>
        <time>2025-06-16T15:28:36Z</time>
      </trkpt>
      <trkpt lat="45.91516" lon="1.26685">
        <ele>366.3</ele>
        <time>2025-06-16T15:28:37Z</time>
      </trkpt>
      <trkpt lat="45.91521" lon="1.26687">
        <ele>366.4</ele>
        <time>2025-06-16T15:28:38Z</time>
      </trkpt>
      <trkpt lat="45.91523" lon="1.26687">
        <ele>366.5</ele>
        <time>2025-06-16T15:28:39Z</time>
      </trkpt>
      <trkpt lat="45.91526" lon="1.26688">
        <ele>366.6</ele>
        <time>2025-06-16T15:28:41Z</time>
      </trkpt>
      <trkpt lat="45.91529" lon="1.2669">
        <ele>366.6</ele>
        <time>2025-06-16T15:28:42Z</time>
      </trkpt>
      <trkpt lat="45.9153" lon="1.2669">
        <ele>366.7</ele>
        <time>2025-06-16T15:28:43Z</time>
      </trkpt>
      <trkpt lat="45.91532" lon="1.26692">
        <ele>366.7</ele>
        <time>2025-06-16T15:28:44Z</time>
      </trkpt>
      <trkpt lat="45.91533" lon="1.26692">
        <ele>366.8</ele>
        <time>2025-06-16T15:28:45Z</time>
      </trkpt>
      <trkpt lat="45.91536" lon="1.26694">
        <ele>366.8</ele>
        <time>2025-06-16T15:28:46Z</time>
      </trkpt>
      <trkpt lat="45.91537" lon="1.26694">
        <ele>366.9</ele>
        <time>2025-06-16T15:28:47Z</time>
      </trkpt>
      <trkpt lat="45.91542" lon="1.26696">
        <ele>367</ele>
        <time>2025-06-16T15:28:48Z</time>
      </trkpt>
      <trkpt lat="45.91546" lon="1.26698">
        <ele>367.1</ele>
        <time>2025-06-16T15:28:50Z</time>
      </trkpt>
      <trkpt lat="45.91548" lon="1.26699">
        <ele>367.1</ele>
        <time>2025-06-16T15:28:51Z</time>
      </trkpt>
      <trkpt lat="45.91551" lon="1.26699">
        <ele>367.2</ele>
        <time>2025-06-16T15:28:53Z</time>
      </trkpt>
      <trkpt lat="45.91554" lon="1.267">
        <ele>367.3</ele>
        <time>2025-06-16T15:28:54Z</time>
      </trkpt>
      <trkpt lat="45.91556" lon="1.26702">
        <ele>367.4</ele>
        <time>2025-06-16T15:28:55Z</time>
      </trkpt>
      <trkpt lat="45.91559" lon="1.26703">
        <ele>367.4</ele>
        <time>2025-06-16T15:28:56Z</time>
      </trkpt>
      <trkpt lat="45.91565" lon="1.26704">
        <ele>367.6</ele>
        <time>2025-06-16T15:28:57Z</time>
      </trkpt>
      <trkpt lat="45.91568" lon="1.26704">
        <ele>367.7</ele>
        <time>2025-06-16T15:28:58Z</time>
      </trkpt>
      <trkpt lat="45.91574" lon="1.26705">
        <ele>367.8</ele>
        <time>2025-06-16T15:29:00Z</time>
      </trkpt>
      <trkpt lat="45.91577" lon="1.26705">
        <ele>367.9</ele>
        <time>2025-06-16T15:29:01Z</time>
      </trkpt>
      <trkpt lat="45.91581" lon="1.26706">
        <ele>368</ele>
        <time>2025-06-16T15:29:03Z</time>
      </trkpt>
      <trkpt lat="45.91582" lon="1.26706">
        <ele>368</ele>
        <time>2025-06-16T15:29:04Z</time>
      </trkpt>
      <trkpt lat="45.91586" lon="1.26706">
        <ele>368.1</ele>
        <time>2025-06-16T15:29:05Z</time>
      </trkpt>
      <trkpt lat="45.91588" lon="1.26706">
        <ele>368.2</ele>
        <time>2025-06-16T15:29:06Z</time>
      </trkpt>
      <trkpt lat="45.91594" lon="1.26705">
        <ele>368.3</ele>
        <time>2025-06-16T15:29:07Z</time>
      </trkpt>
      <trkpt lat="45.91597" lon="1.26705">
        <ele>368.4</ele>
        <time>2025-06-16T15:29:08Z</time>
      </trkpt>
      <trkpt lat="45.91603" lon="1.26706">
        <ele>368.5</ele>
        <time>2025-06-16T15:29:10Z</time>
      </trkpt>
      <trkpt lat="45.91606" lon="1.26706">
        <ele>368.6</ele>
        <time>2025-06-16T15:29:11Z</time>
      </trkpt>
      <trkpt lat="45.91613" lon="1.26705">
        <ele>368.8</ele>
        <time>2025-06-16T15:29:13Z</time>
      </trkpt>
      <trkpt lat="45.91616" lon="1.26704">
        <ele>368.8</ele>
        <time>2025-06-16T15:29:14Z</time>
      </trkpt>
      <trkpt lat="45.91619" lon="1.26703">
        <ele>368.9</ele>
        <time>2025-06-16T15:29:15Z</time>
      </trkpt>
      <trkpt lat="45.91626" lon="1.26701">
        <ele>369.1</ele>
        <time>2025-06-16T15:29:17Z</time>
      </trkpt>
      <trkpt lat="45.91629" lon="1.26699">
        <ele>369.1</ele>
        <time>2025-06-16T15:29:18Z</time>
      </trkpt>
      <trkpt lat="45.91633" lon="1.26698">
        <ele>369.2</ele>
        <time>2025-06-16T15:29:19Z</time>
      </trkpt>
      <trkpt lat="45.91636" lon="1.26697">
        <ele>369.3</ele>
        <time>2025-06-16T15:29:20Z</time>
      </trkpt>
      <trkpt lat="45.91639" lon="1.26696">
        <ele>369.4</ele>
        <time>2025-06-16T15:29:21Z</time>
      </trkpt>
      <trkpt lat="45.91642" lon="1.26695">
        <ele>369.5</ele>
        <time>2025-06-16T15:29:22Z</time>
      </trkpt>
      <trkpt lat="45.91645" lon="1.26694">
        <ele>369.5</ele>
        <time>2025-06-16T15:29:23Z</time>
      </trkpt>
      <trkpt lat="45.91652" lon="1.26694">
        <ele>369.7</ele>
        <time>2025-06-16T15:29:25Z</time>
      </trkpt>
      <trkpt lat="45.91656" lon="1.26692">
        <ele>369.8</ele>
        <time>2025-06-16T15:29:27Z</time>
      </trkpt>
      <trkpt lat="45.91658" lon="1.26691">
        <ele>369.9</ele>
        <time>2025-06-16T15:29:28Z</time>
      </trkpt>
      <trkpt lat="45.9166" lon="1.2669">
        <ele>369.9</ele>
        <time>2025-06-16T15:29:29Z</time>
      </trkpt>
      <trkpt lat="45.91665" lon="1.26689">
        <ele>370.1</ele>
        <time>2025-06-16T15:29:30Z</time>
      </trkpt>
      <trkpt lat="45.91667" lon="1.26688">
        <ele>370.1</ele>
        <time>2025-06-16T15:29:31Z</time>
      </trkpt>
      <trkpt lat="45.9167" lon="1.26688">
        <ele>370.2</ele>
        <time>2025-06-16T15:29:33Z</time>
      </trkpt>
      <trkpt lat="45.91673" lon="1.26687">
        <ele>370.3</ele>
        <time>2025-06-16T15:29:34Z</time>
      </trkpt>
      <trkpt lat="45.91675" lon="1.26684">
        <ele>370.4</ele>
        <time>2025-06-16T15:29:35Z</time>
      </trkpt>
      <trkpt lat="45.91679" lon="1.26682">
        <ele>370.4</ele>
        <time>2025-06-16T15:29:36Z</time>
      </trkpt>
      <trkpt lat="45.91682" lon="1.26682">
        <ele>370.5</ele>
        <time>2025-06-16T15:29:37Z</time>
      </trkpt>
      <trkpt lat="45.91685" lon="1.26682">
        <ele>370.6</ele>
        <time>2025-06-16T15:29:38Z</time>
      </trkpt>
      <trkpt lat="45.91688" lon="1.26682">
        <ele>370.7</ele>
        <time>2025-06-16T15:29:39Z</time>
      </trkpt>
      <trkpt lat="45.91694" lon="1.26679">
        <ele>370.8</ele>
        <time>2025-06-16T15:29:40Z</time>
      </trkpt>
      <trkpt lat="45.91697" lon="1.26678">
        <ele>370.9</ele>
        <time>2025-06-16T15:29:42Z</time>
      </trkpt>
      <trkpt lat="45.917" lon="1.26677">
        <ele>370.9</ele>
        <time>2025-06-16T15:29:43Z</time>
      </trkpt>
      <trkpt lat="45.91706" lon="1.26675">
        <ele>371.1</ele>
        <time>2025-06-16T15:29:44Z</time>
      </trkpt>
      <trkpt lat="45.9171" lon="1.26675">
        <ele>371.2</ele>
        <time>2025-06-16T15:29:46Z</time>
      </trkpt>
      <trkpt lat="45.91713" lon="1.26674">
        <ele>371.3</ele>
        <time>2025-06-16T15:29:47Z</time>
      </trkpt>
      <trkpt lat="45.91716" lon="1.26674">
        <ele>371.3</ele>
        <time>2025-06-16T15:29:48Z</time>
      </trkpt>
      <trkpt lat="45.91719" lon="1.26673">
        <ele>371.4</ele>
        <time>2025-06-16T15:29:49Z</time>
      </trkpt>
      <trkpt lat="45.91722" lon="1.26672">
        <ele>371.5</ele>
        <time>2025-06-16T15:29:50Z</time>
      </trkpt>
      <trkpt lat="45.91725" lon="1.26671">
        <ele>371.6</ele>
        <time>2025-06-16T15:29:51Z</time>
      </trkpt>
      <trkpt lat="45.91729" lon="1.2667">
        <ele>371.7</ele>
        <time>2025-06-16T15:29:52Z</time>
      </trkpt>
      <trkpt lat="45.9173" lon="1.2667">
        <ele>371.7</ele>
        <time>2025-06-16T15:29:53Z</time>
      </trkpt>
      <trkpt lat="45.91733" lon="1.26669">
        <ele>371.8</ele>
        <time>2025-06-16T15:29:54Z</time>
      </trkpt>
      <trkpt lat="45.91736" lon="1.26668">
        <ele>371.9</ele>
        <time>2025-06-16T15:29:55Z</time>
      </trkpt>
      <trkpt lat="45.91738" lon="1.26667">
        <ele>371.9</ele>
        <time>2025-06-16T15:29:56Z</time>
      </trkpt>
      <trkpt lat="45.91742" lon="1.26665">
        <ele>372</ele>
        <time>2025-06-16T15:29:57Z</time>
      </trkpt>
      <trkpt lat="45.91743" lon="1.26665">
        <ele>372.1</ele>
        <time>2025-06-16T15:29:58Z</time>
      </trkpt>
      <trkpt lat="45.91747" lon="1.26664">
        <ele>372.2</ele>
        <time>2025-06-16T15:29:59Z</time>
      </trkpt>
      <trkpt lat="45.91748" lon="1.26664">
        <ele>372.2</ele>
        <time>2025-06-16T15:30:00Z</time>
      </trkpt>
      <trkpt lat="45.91751" lon="1.26663">
        <ele>372.3</ele>
        <time>2025-06-16T15:30:01Z</time>
      </trkpt>
      <trkpt lat="45.91752" lon="1.26662">
        <ele>372.3</ele>
        <time>2025-06-16T15:30:02Z</time>
      </trkpt>
      <trkpt lat="45.91755" lon="1.26661">
        <ele>372.4</ele>
        <time>2025-06-16T15:30:03Z</time>
      </trkpt>
      <trkpt lat="45.91756" lon="1.2666">
        <ele>372.5</ele>
        <time>2025-06-16T15:30:04Z</time>
      </trkpt>
      <trkpt lat="45.91758" lon="1.2666">
        <ele>372.5</ele>
        <time>2025-06-16T15:30:05Z</time>
      </trkpt>
      <trkpt lat="45.91759" lon="1.26659">
        <ele>372.6</ele>
        <time>2025-06-16T15:30:06Z</time>
      </trkpt>
      <trkpt lat="45.91761" lon="1.26658">
        <ele>372.6</ele>
        <time>2025-06-16T15:30:07Z</time>
      </trkpt>
      <trkpt lat="45.91762" lon="1.26658">
        <ele>372.6</ele>
        <time>2025-06-16T15:30:08Z</time>
      </trkpt>
      <trkpt lat="45.91763" lon="1.26658">
        <ele>372.7</ele>
        <time>2025-06-16T15:30:09Z</time>
      </trkpt>
      <trkpt lat="45.91763" lon="1.26657">
        <ele>372.7</ele>
        <time>2025-06-16T15:30:10Z</time>
      </trkpt>
      <trkpt lat="45.91764" lon="1.26656">
        <ele>372.7</ele>
        <time>2025-06-16T15:30:11Z</time>
      </trkpt>
      <trkpt lat="45.91765" lon="1.26656">
        <ele>372.7</ele>
        <time>2025-06-16T15:30:12Z</time>
      </trkpt>
      <trkpt lat="45.91765" lon="1.26656">
        <ele>372.7</ele>
        <time>2025-06-16T15:30:13Z</time>
      </trkpt>
      <trkpt lat="45.91765" lon="1.26656">
        <ele>372.7</ele>
        <time>2025-06-16T15:30:14Z</time>
      </trkpt>
      <trkpt lat="45.91765" lon="1.26656">
        <ele>372.7</ele>
        <time>2025-06-16T15:30:15Z</time>
      </trkpt>
      <trkpt lat="45.91765" lon="1.26656">
        <ele>372.7</ele>
        <time>2025-06-16T15:30:16Z</time>
      </trkpt>
      <trkpt lat="45.91765" lon="1.26656">
        <ele>372.7</ele>
        <time>2025-06-16T15:30:17Z</time>
      </trkpt>
      <trkpt lat="45.91765" lon="1.26655">
        <ele>372.8</ele>
        <time>2025-06-16T15:30:18Z</time>
      </trkpt>
      <trkpt lat="45.91765" lon="1.26654">
        <ele>372.8</ele>
        <time>2025-06-16T15:30:19Z</time>
      </trkpt>
      <trkpt lat="45.91766" lon="1.26652">
        <ele>372.8</ele>
        <time>2025-06-16T15:30:20Z</time>
      </trkpt>
      <trkpt lat="45.91766" lon="1.26649">
        <ele>372.9</ele>
        <time>2025-06-16T15:30:21Z</time>
      </trkpt>
      <trkpt lat="45.91766" lon="1.26648">
        <ele>372.9</ele>
        <time>2025-06-16T15:30:22Z</time>
      </trkpt>
      <trkpt lat="45.91766" lon="1.26646">
        <ele>372.9</ele>
        <time>2025-06-16T15:30:23Z</time>
      </trkpt>
      <trkpt lat="45.91766" lon="1.26644">
        <ele>373</ele>
        <time>2025-06-16T15:30:24Z</time>
      </trkpt>
      <trkpt lat="45.91767" lon="1.26642">
        <ele>373</ele>
        <time>2025-06-16T15:30:25Z</time>
      </trkpt>
      <trkpt lat="45.91767" lon="1.26637">
        <ele>373.1</ele>
        <time>2025-06-16T15:30:26Z</time>
      </trkpt>
      <trkpt lat="45.91768" lon="1.26635">
        <ele>373.1</ele>
        <time>2025-06-16T15:30:27Z</time>
      </trkpt>
      <trkpt lat="45.91769" lon="1.26627">
        <ele>373.3</ele>
        <time>2025-06-16T15:30:28Z</time>
      </trkpt>
      <trkpt lat="45.91769" lon="1.26623">
        <ele>373.3</ele>
        <time>2025-06-16T15:30:29Z</time>
      </trkpt>
      <trkpt lat="45.91769" lon="1.26616">
        <ele>373.5</ele>
        <time>2025-06-16T15:30:31Z</time>
      </trkpt>
      <trkpt lat="45.9177" lon="1.26613">
        <ele>373.5</ele>
        <time>2025-06-16T15:30:32Z</time>
      </trkpt>
      <trkpt lat="45.9177" lon="1.2661">
        <ele>373.6</ele>
        <time>2025-06-16T15:30:33Z</time>
      </trkpt>
      <trkpt lat="45.9177" lon="1.26605">
        <ele>373.6</ele>
        <time>2025-06-16T15:30:34Z</time>
      </trkpt>
      <trkpt lat="45.9177" lon="1.266">
        <ele>373.7</ele>
        <time>2025-06-16T15:30:35Z</time>
      </trkpt>
      <trkpt lat="45.91771" lon="1.26591">
        <ele>373.9</ele>
        <time>2025-06-16T15:30:36Z</time>
      </trkpt>
      <trkpt lat="45.91771" lon="1.26587">
        <ele>373.9</ele>
        <time>2025-06-16T15:30:38Z</time>
      </trkpt>
      <trkpt lat="45.91772" lon="1.26583">
        <ele>374</ele>
        <time>2025-06-16T15:30:39Z</time>
      </trkpt>
      <trkpt lat="45.91771" lon="1.26576">
        <ele>374.1</ele>
        <time>2025-06-16T15:30:40Z</time>
      </trkpt>
      <trkpt lat="45.91772" lon="1.26572">
        <ele>374.1</ele>
        <time>2025-06-16T15:30:41Z</time>
      </trkpt>
      <trkpt lat="45.91772" lon="1.26562">
        <ele>374.2</ele>
        <time>2025-06-16T15:30:43Z</time>
      </trkpt>
      <trkpt lat="45.91772" lon="1.26556">
        <ele>374.2</ele>
        <time>2025-06-16T15:30:45Z</time>
      </trkpt>
      <trkpt lat="45.91772" lon="1.26551">
        <ele>374.2</ele>
        <time>2025-06-16T15:30:46Z</time>
      </trkpt>
      <trkpt lat="45.91773" lon="1.26546">
        <ele>374.1</ele>
        <time>2025-06-16T15:30:47Z</time>
      </trkpt>
      <trkpt lat="45.91774" lon="1.26542">
        <ele>374.1</ele>
        <time>2025-06-16T15:30:48Z</time>
      </trkpt>
      <trkpt lat="45.91774" lon="1.26537">
        <ele>374</ele>
        <time>2025-06-16T15:30:49Z</time>
      </trkpt>
      <trkpt lat="45.91774" lon="1.26532">
        <ele>373.9</ele>
        <time>2025-06-16T15:30:50Z</time>
      </trkpt>
      <trkpt lat="45.91775" lon="1.26527">
        <ele>373.8</ele>
        <time>2025-06-16T15:30:51Z</time>
      </trkpt>
      <trkpt lat="45.91775" lon="1.26522">
        <ele>373.7</ele>
        <time>2025-06-16T15:30:52Z</time>
      </trkpt>
      <trkpt lat="45.91776" lon="1.26511">
        <ele>373.4</ele>
        <time>2025-06-16T15:30:53Z</time>
      </trkpt>
      <trkpt lat="45.91778" lon="1.265">
        <ele>373.1</ele>
        <time>2025-06-16T15:30:55Z</time>
      </trkpt>
      <trkpt lat="45.9178" lon="1.26492">
        <ele>372.8</ele>
        <time>2025-06-16T15:30:57Z</time>
      </trkpt>
      <trkpt lat="45.91781" lon="1.26485">
        <ele>372.6</ele>
        <time>2025-06-16T15:30:58Z</time>
      </trkpt>
      <trkpt lat="45.91783" lon="1.26479">
        <ele>372.5</ele>
        <time>2025-06-16T15:30:59Z</time>
      </trkpt>
      <trkpt lat="45.91785" lon="1.26472">
        <ele>372.3</ele>
        <time>2025-06-16T15:31:00Z</time>
      </trkpt>
      <trkpt lat="45.91788" lon="1.26467">
        <ele>372.2</ele>
        <time>2025-06-16T15:31:01Z</time>
      </trkpt>
      <trkpt lat="45.9179" lon="1.26462">
        <ele>372.2</ele>
        <time>2025-06-16T15:31:02Z</time>
      </trkpt>
      <trkpt lat="45.91792" lon="1.26456">
        <ele>372.1</ele>
        <time>2025-06-16T15:31:03Z</time>
      </trkpt>
      <trkpt lat="45.91794" lon="1.2645">
        <ele>372.1</ele>
        <time>2025-06-16T15:31:04Z</time>
      </trkpt>
      <trkpt lat="45.91796" lon="1.26444">
        <ele>372.1</ele>
        <time>2025-06-16T15:31:05Z</time>
      </trkpt>
      <trkpt lat="45.91798" lon="1.26438">
        <ele>372.1</ele>
        <time>2025-06-16T15:31:06Z</time>
      </trkpt>
      <trkpt lat="45.91799" lon="1.26433">
        <ele>372.1</ele>
        <time>2025-06-16T15:31:07Z</time>
      </trkpt>
      <trkpt lat="45.91797" lon="1.26431">
        <ele>372.2</ele>
        <time>2025-06-16T15:31:08Z</time>
      </trkpt>
      <trkpt lat="45.91795" lon="1.26432">
        <ele>372.2</ele>
        <time>2025-06-16T15:31:09Z</time>
      </trkpt>
      <trkpt lat="45.91794" lon="1.26433">
        <ele>372.3</ele>
        <time>2025-06-16T15:31:10Z</time>
      </trkpt>
      <trkpt lat="45.91791" lon="1.26438">
        <ele>372.4</ele>
        <time>2025-06-16T15:31:11Z</time>
      </trkpt>
      <trkpt lat="45.91804" lon="1.26411">
        <ele>373.5</ele>
        <time>2025-06-16T15:31:12Z</time>
      </trkpt>
      <trkpt lat="45.91806" lon="1.26408">
        <ele>373.7</ele>
        <time>2025-06-16T15:31:13Z</time>
      </trkpt>
      <trkpt lat="45.91807" lon="1.26404">
        <ele>373.9</ele>
        <time>2025-06-16T15:31:14Z</time>
      </trkpt>
      <trkpt lat="45.91808" lon="1.26399">
        <ele>374.1</ele>
        <time>2025-06-16T15:31:15Z</time>
      </trkpt>
      <trkpt lat="45.91808" lon="1.26398">
        <ele>374.2</ele>
        <time>2025-06-16T15:31:16Z</time>
      </trkpt>
      <trkpt lat="45.91807" lon="1.26394">
        <ele>374</ele>
        <time>2025-06-16T15:31:17Z</time>
      </trkpt>
      <trkpt lat="45.91806" lon="1.26393">
        <ele>374</ele>
        <time>2025-06-16T15:31:18Z</time>
      </trkpt>
      <trkpt lat="45.91804" lon="1.26389">
        <ele>373.8</ele>
        <time>2025-06-16T15:31:19Z</time>
      </trkpt>
      <trkpt lat="45.91802" lon="1.26388">
        <ele>373.8</ele>
        <time>2025-06-16T15:31:20Z</time>
      </trkpt>
      <trkpt lat="45.918" lon="1.26386">
        <ele>373.6</ele>
        <time>2025-06-16T15:31:21Z</time>
      </trkpt>
      <trkpt lat="45.91794" lon="1.26382">
        <ele>373.1</ele>
        <time>2025-06-16T15:31:22Z</time>
      </trkpt>
      <trkpt lat="45.91788" lon="1.26376">
        <ele>372.6</ele>
        <time>2025-06-16T15:31:24Z</time>
      </trkpt>
      <trkpt lat="45.91785" lon="1.26374">
        <ele>372.3</ele>
        <time>2025-06-16T15:31:26Z</time>
      </trkpt>
      <trkpt lat="45.91781" lon="1.26371">
        <ele>372</ele>
        <time>2025-06-16T15:31:27Z</time>
      </trkpt>
      <trkpt lat="45.91773" lon="1.26364">
        <ele>371.2</ele>
        <time>2025-06-16T15:31:28Z</time>
      </trkpt>
      <trkpt lat="45.91767" lon="1.2636">
        <ele>370.6</ele>
        <time>2025-06-16T15:31:29Z</time>
      </trkpt>
      <trkpt lat="45.91762" lon="1.26355">
        <ele>370.1</ele>
        <time>2025-06-16T15:31:31Z</time>
      </trkpt>
      <trkpt lat="45.91757" lon="1.26349">
        <ele>369.6</ele>
        <time>2025-06-16T15:31:32Z</time>
      </trkpt>
      <trkpt lat="45.91754" lon="1.26344">
        <ele>369.2</ele>
        <time>2025-06-16T15:31:33Z</time>
      </trkpt>
      <trkpt lat="45.91749" lon="1.2634">
        <ele>368.7</ele>
        <time>2025-06-16T15:31:34Z</time>
      </trkpt>
      <trkpt lat="45.91742" lon="1.26335">
        <ele>368.1</ele>
        <time>2025-06-16T15:31:35Z</time>
      </trkpt>
      <trkpt lat="45.91731" lon="1.26327">
        <ele>367</ele>
        <time>2025-06-16T15:31:36Z</time>
      </trkpt>
      <trkpt lat="45.91725" lon="1.26321">
        <ele>366.5</ele>
        <time>2025-06-16T15:31:38Z</time>
      </trkpt>
      <trkpt lat="45.9172" lon="1.26314">
        <ele>366</ele>
        <time>2025-06-16T15:31:39Z</time>
      </trkpt>
      <trkpt lat="45.91715" lon="1.26308">
        <ele>365.5</ele>
        <time>2025-06-16T15:31:40Z</time>
      </trkpt>
      <trkpt lat="45.91708" lon="1.26302">
        <ele>365</ele>
        <time>2025-06-16T15:31:41Z</time>
      </trkpt>
      <trkpt lat="45.91703" lon="1.26299">
        <ele>364.7</ele>
        <time>2025-06-16T15:31:42Z</time>
      </trkpt>
      <trkpt lat="45.91696" lon="1.26293">
        <ele>364.3</ele>
        <time>2025-06-16T15:31:43Z</time>
      </trkpt>
      <trkpt lat="45.91689" lon="1.26286">
        <ele>363.9</ele>
        <time>2025-06-16T15:31:44Z</time>
      </trkpt>
      <trkpt lat="45.91683" lon="1.26279">
        <ele>363.4</ele>
        <time>2025-06-16T15:31:45Z</time>
      </trkpt>
      <trkpt lat="45.91678" lon="1.26269">
        <ele>363</ele>
        <time>2025-06-16T15:31:46Z</time>
      </trkpt>
      <trkpt lat="45.91672" lon="1.26261">
        <ele>362.5</ele>
        <time>2025-06-16T15:31:47Z</time>
      </trkpt>
      <trkpt lat="45.91667" lon="1.26254">
        <ele>362.1</ele>
        <time>2025-06-16T15:31:48Z</time>
      </trkpt>
      <trkpt lat="45.91661" lon="1.26246">
        <ele>361.8</ele>
        <time>2025-06-16T15:31:49Z</time>
      </trkpt>
      <trkpt lat="45.91656" lon="1.26239">
        <ele>361.6</ele>
        <time>2025-06-16T15:31:50Z</time>
      </trkpt>
      <trkpt lat="45.91651" lon="1.26233">
        <ele>361.5</ele>
        <time>2025-06-16T15:31:51Z</time>
      </trkpt>
      <trkpt lat="45.91648" lon="1.26228">
        <ele>361.4</ele>
        <time>2025-06-16T15:31:52Z</time>
      </trkpt>
      <trkpt lat="45.91647" lon="1.26224">
        <ele>361.4</ele>
        <time>2025-06-16T15:31:53Z</time>
      </trkpt>
      <trkpt lat="45.91646" lon="1.26223">
        <ele>361.4</ele>
        <time>2025-06-16T15:31:54Z</time>
      </trkpt>
      <trkpt lat="45.91646" lon="1.26223">
        <ele>361.4</ele>
        <time>2025-06-16T15:31:55Z</time>
      </trkpt>
      <trkpt lat="45.91646" lon="1.26222">
        <ele>361.4</ele>
        <time>2025-06-16T15:31:56Z</time>
      </trkpt>
      <trkpt lat="45.91646" lon="1.26222">
        <ele>361.4</ele>
        <time>2025-06-16T15:31:57Z</time>
      </trkpt>
      <trkpt lat="45.91646" lon="1.26222">
        <ele>361.4</ele>
        <time>2025-06-16T15:31:58Z</time>
      </trkpt>
      <trkpt lat="45.91646" lon="1.26221">
        <ele>361.4</ele>
        <time>2025-06-16T15:31:59Z</time>
      </trkpt>
      <trkpt lat="45.91646" lon="1.26221">
        <ele>361.4</ele>
        <time>2025-06-16T15:32:01Z</time>
      </trkpt>
      <trkpt lat="45.91646" lon="1.26221">
        <ele>361.4</ele>
        <time>2025-06-16T15:32:02Z</time>
      </trkpt>
      <trkpt lat="45.91646" lon="1.26221">
        <ele>361.4</ele>
        <time>2025-06-16T15:32:03Z</time>
      </trkpt>
      <trkpt lat="45.91646" lon="1.2622">
        <ele>361.4</ele>
        <time>2025-06-16T15:32:04Z</time>
      </trkpt>
      <trkpt lat="45.91646" lon="1.2622">
        <ele>361.4</ele>
        <time>2025-06-16T15:32:05Z</time>
      </trkpt>
      <trkpt lat="45.91646" lon="1.2622">
        <ele>361.4</ele>
        <time>2025-06-16T15:32:06Z</time>
      </trkpt>
      <trkpt lat="45.91646" lon="1.26219">
        <ele>361.4</ele>
        <time>2025-06-16T15:32:07Z</time>
      </trkpt>
      <trkpt lat="45.91646" lon="1.26219">
        <ele>361.4</ele>
        <time>2025-06-16T15:32:08Z</time>
      </trkpt>
      <trkpt lat="45.91646" lon="1.26219">
        <ele>361.4</ele>
        <time>2025-06-16T15:32:09Z</time>
      </trkpt>
      <trkpt lat="45.91646" lon="1.26219">
        <ele>361.4</ele>
        <time>2025-06-16T15:32:10Z</time>
      </trkpt>
      <trkpt lat="45.91648" lon="1.26215">
        <ele>361.4</ele>
        <time>2025-06-16T15:32:11Z</time>
      </trkpt>
      <trkpt lat="45.91648" lon="1.26214">
        <ele>361.4</ele>
        <time>2025-06-16T15:32:12Z</time>
      </trkpt>
      <trkpt lat="45.9165" lon="1.2621">
        <ele>361.4</ele>
        <time>2025-06-16T15:32:13Z</time>
      </trkpt>
      <trkpt lat="45.91651" lon="1.26209">
        <ele>361.4</ele>
        <time>2025-06-16T15:32:14Z</time>
      </trkpt>
      <trkpt lat="45.91653" lon="1.26206">
        <ele>361.4</ele>
        <time>2025-06-16T15:32:15Z</time>
      </trkpt>
      <trkpt lat="45.91654" lon="1.26205">
        <ele>361.4</ele>
        <time>2025-06-16T15:32:16Z</time>
      </trkpt>
      <trkpt lat="45.91656" lon="1.26202">
        <ele>361.4</ele>
        <time>2025-06-16T15:32:17Z</time>
      </trkpt>
      <trkpt lat="45.91658" lon="1.26199">
        <ele>361.4</ele>
        <time>2025-06-16T15:32:18Z</time>
      </trkpt>
      <trkpt lat="45.9166" lon="1.26196">
        <ele>361.4</ele>
        <time>2025-06-16T15:32:19Z</time>
      </trkpt>
      <trkpt lat="45.91662" lon="1.26193">
        <ele>361.4</ele>
        <time>2025-06-16T15:32:20Z</time>
      </trkpt>
      <trkpt lat="45.91664" lon="1.2619">
        <ele>361.3</ele>
        <time>2025-06-16T15:32:21Z</time>
      </trkpt>
      <trkpt lat="45.91665" lon="1.26187">
        <ele>361.3</ele>
        <time>2025-06-16T15:32:22Z</time>
      </trkpt>
      <trkpt lat="45.91667" lon="1.26184">
        <ele>361.2</ele>
        <time>2025-06-16T15:32:23Z</time>
      </trkpt>
      <trkpt lat="45.91669" lon="1.26181">
        <ele>361.1</ele>
        <time>2025-06-16T15:32:24Z</time>
      </trkpt>
      <trkpt lat="45.91672" lon="1.26177">
        <ele>360.9</ele>
        <time>2025-06-16T15:32:25Z</time>
      </trkpt>
      <trkpt lat="45.91673" lon="1.26176">
        <ele>360.9</ele>
        <time>2025-06-16T15:32:26Z</time>
      </trkpt>
      <trkpt lat="45.91675" lon="1.26173">
        <ele>360.7</ele>
        <time>2025-06-16T15:32:27Z</time>
      </trkpt>
      <trkpt lat="45.91677" lon="1.26169">
        <ele>360.5</ele>
        <time>2025-06-16T15:32:28Z</time>
      </trkpt>
      <trkpt lat="45.91679" lon="1.26166">
        <ele>360.2</ele>
        <time>2025-06-16T15:32:29Z</time>
      </trkpt>
      <trkpt lat="45.91682" lon="1.26161">
        <ele>359.9</ele>
        <time>2025-06-16T15:32:30Z</time>
      </trkpt>
      <trkpt lat="45.91684" lon="1.26157">
        <ele>359.5</ele>
        <time>2025-06-16T15:32:31Z</time>
      </trkpt>
      <trkpt lat="45.91687" lon="1.26152">
        <ele>359.1</ele>
        <time>2025-06-16T15:32:32Z</time>
      </trkpt>
      <trkpt lat="45.91692" lon="1.26147">
        <ele>358.3</ele>
        <time>2025-06-16T15:32:33Z</time>
      </trkpt>
      <trkpt lat="45.91695" lon="1.26143">
        <ele>357.7</ele>
        <time>2025-06-16T15:32:34Z</time>
      </trkpt>
      <trkpt lat="45.91698" lon="1.26138">
        <ele>357.1</ele>
        <time>2025-06-16T15:32:35Z</time>
      </trkpt>
      <trkpt lat="45.91701" lon="1.26133">
        <ele>356.5</ele>
        <time>2025-06-16T15:32:36Z</time>
      </trkpt>
      <trkpt lat="45.91705" lon="1.26128">
        <ele>355.8</ele>
        <time>2025-06-16T15:32:37Z</time>
      </trkpt>
      <trkpt lat="45.91708" lon="1.26122">
        <ele>355</ele>
        <time>2025-06-16T15:32:38Z</time>
      </trkpt>
      <trkpt lat="45.91711" lon="1.26116">
        <ele>354.4</ele>
        <time>2025-06-16T15:32:39Z</time>
      </trkpt>
      <trkpt lat="45.91713" lon="1.2611">
        <ele>353.9</ele>
        <time>2025-06-16T15:32:40Z</time>
      </trkpt>
      <trkpt lat="45.91716" lon="1.26102">
        <ele>353.2</ele>
        <time>2025-06-16T15:32:41Z</time>
      </trkpt>
      <trkpt lat="45.91719" lon="1.26094">
        <ele>352.5</ele>
        <time>2025-06-16T15:32:42Z</time>
      </trkpt>
      <trkpt lat="45.91723" lon="1.26087">
        <ele>352</ele>
        <time>2025-06-16T15:32:43Z</time>
      </trkpt>
      <trkpt lat="45.91727" lon="1.26079">
        <ele>351.4</ele>
        <time>2025-06-16T15:32:44Z</time>
      </trkpt>
      <trkpt lat="45.91729" lon="1.26072">
        <ele>351.1</ele>
        <time>2025-06-16T15:32:45Z</time>
      </trkpt>
      <trkpt lat="45.91731" lon="1.26065">
        <ele>350.8</ele>
        <time>2025-06-16T15:32:46Z</time>
      </trkpt>
      <trkpt lat="45.91731" lon="1.26061">
        <ele>350.6</ele>
        <time>2025-06-16T15:32:47Z</time>
      </trkpt>
      <trkpt lat="45.91732" lon="1.26057">
        <ele>350.4</ele>
        <time>2025-06-16T15:32:48Z</time>
      </trkpt>
      <trkpt lat="45.91733" lon="1.26051">
        <ele>350.2</ele>
        <time>2025-06-16T15:32:49Z</time>
      </trkpt>
      <trkpt lat="45.91733" lon="1.26045">
        <ele>350</ele>
        <time>2025-06-16T15:32:50Z</time>
      </trkpt>
      <trkpt lat="45.91735" lon="1.26038">
        <ele>349.7</ele>
        <time>2025-06-16T15:32:51Z</time>
      </trkpt>
      <trkpt lat="45.91737" lon="1.26032">
        <ele>349.5</ele>
        <time>2025-06-16T15:32:52Z</time>
      </trkpt>
      <trkpt lat="45.91739" lon="1.26027">
        <ele>349.2</ele>
        <time>2025-06-16T15:32:53Z</time>
      </trkpt>
      <trkpt lat="45.91741" lon="1.26022">
        <ele>349</ele>
        <time>2025-06-16T15:32:54Z</time>
      </trkpt>
      <trkpt lat="45.91744" lon="1.26018">
        <ele>348.9</ele>
        <time>2025-06-16T15:32:55Z</time>
      </trkpt>
      <trkpt lat="45.91746" lon="1.26012">
        <ele>348.7</ele>
        <time>2025-06-16T15:32:56Z</time>
      </trkpt>
      <trkpt lat="45.91747" lon="1.26006">
        <ele>348.5</ele>
        <time>2025-06-16T15:32:57Z</time>
      </trkpt>
      <trkpt lat="45.91749" lon="1.26002">
        <ele>348.4</ele>
        <time>2025-06-16T15:32:58Z</time>
      </trkpt>
      <trkpt lat="45.91751" lon="1.25998">
        <ele>348.3</ele>
        <time>2025-06-16T15:32:59Z</time>
      </trkpt>
      <trkpt lat="45.91752" lon="1.25993">
        <ele>348.3</ele>
        <time>2025-06-16T15:33:00Z</time>
      </trkpt>
      <trkpt lat="45.91754" lon="1.25987">
        <ele>348.2</ele>
        <time>2025-06-16T15:33:01Z</time>
      </trkpt>
      <trkpt lat="45.91755" lon="1.25983">
        <ele>348.2</ele>
        <time>2025-06-16T15:33:02Z</time>
      </trkpt>
      <trkpt lat="45.91756" lon="1.2598">
        <ele>348.1</ele>
        <time>2025-06-16T15:33:03Z</time>
      </trkpt>
      <trkpt lat="45.91757" lon="1.25979">
        <ele>348.1</ele>
        <time>2025-06-16T15:33:04Z</time>
      </trkpt>
      <trkpt lat="45.91758" lon="1.25977">
        <ele>348.1</ele>
        <time>2025-06-16T15:33:05Z</time>
      </trkpt>
      <trkpt lat="45.91759" lon="1.25974">
        <ele>348.1</ele>
        <time>2025-06-16T15:33:06Z</time>
      </trkpt>
      <trkpt lat="45.91763" lon="1.25971">
        <ele>348</ele>
        <time>2025-06-16T15:33:07Z</time>
      </trkpt>
      <trkpt lat="45.91764" lon="1.25969">
        <ele>348</ele>
        <time>2025-06-16T15:33:09Z</time>
      </trkpt>
      <trkpt lat="45.91764" lon="1.25967">
        <ele>348</ele>
        <time>2025-06-16T15:33:10Z</time>
      </trkpt>
      <trkpt lat="45.91764" lon="1.25965">
        <ele>347.9</ele>
        <time>2025-06-16T15:33:11Z</time>
      </trkpt>
      <trkpt lat="45.91764" lon="1.25963">
        <ele>347.9</ele>
        <time>2025-06-16T15:33:12Z</time>
      </trkpt>
      <trkpt lat="45.91765" lon="1.25958">
        <ele>347.9</ele>
        <time>2025-06-16T15:33:13Z</time>
      </trkpt>
      <trkpt lat="45.91765" lon="1.25957">
        <ele>347.9</ele>
        <time>2025-06-16T15:33:14Z</time>
      </trkpt>
      <trkpt lat="45.91766" lon="1.2595">
        <ele>347.9</ele>
        <time>2025-06-16T15:33:15Z</time>
      </trkpt>
      <trkpt lat="45.91767" lon="1.25946">
        <ele>347.8</ele>
        <time>2025-06-16T15:33:17Z</time>
      </trkpt>
      <trkpt lat="45.91768" lon="1.25945">
        <ele>347.8</ele>
        <time>2025-06-16T15:33:18Z</time>
      </trkpt>
      <trkpt lat="45.91769" lon="1.25941">
        <ele>347.8</ele>
        <time>2025-06-16T15:33:19Z</time>
      </trkpt>
      <trkpt lat="45.91769" lon="1.2594">
        <ele>347.8</ele>
        <time>2025-06-16T15:33:20Z</time>
      </trkpt>
      <trkpt lat="45.9177" lon="1.25938">
        <ele>347.8</ele>
        <time>2025-06-16T15:33:21Z</time>
      </trkpt>
      <trkpt lat="45.9177" lon="1.25936">
        <ele>347.7</ele>
        <time>2025-06-16T15:33:22Z</time>
      </trkpt>
      <trkpt lat="45.91771" lon="1.25934">
        <ele>347.7</ele>
        <time>2025-06-16T15:33:23Z</time>
      </trkpt>
      <trkpt lat="45.91772" lon="1.25931">
        <ele>347.7</ele>
        <time>2025-06-16T15:33:24Z</time>
      </trkpt>
      <trkpt lat="45.91772" lon="1.25929">
        <ele>347.7</ele>
        <time>2025-06-16T15:33:25Z</time>
      </trkpt>
      <trkpt lat="45.91773" lon="1.25927">
        <ele>347.7</ele>
        <time>2025-06-16T15:33:26Z</time>
      </trkpt>
      <trkpt lat="45.91773" lon="1.25923">
        <ele>347.6</ele>
        <time>2025-06-16T15:33:27Z</time>
      </trkpt>
      <trkpt lat="45.91773" lon="1.25921">
        <ele>347.6</ele>
        <time>2025-06-16T15:33:28Z</time>
      </trkpt>
      <trkpt lat="45.91774" lon="1.25919">
        <ele>347.6</ele>
        <time>2025-06-16T15:33:29Z</time>
      </trkpt>
      <trkpt lat="45.91774" lon="1.25917">
        <ele>347.6</ele>
        <time>2025-06-16T15:33:30Z</time>
      </trkpt>
      <trkpt lat="45.91774" lon="1.25916">
        <ele>347.6</ele>
        <time>2025-06-16T15:33:31Z</time>
      </trkpt>
      <trkpt lat="45.91775" lon="1.25915">
        <ele>347.6</ele>
        <time>2025-06-16T15:33:32Z</time>
      </trkpt>
      <trkpt lat="45.91775" lon="1.25913">
        <ele>347.6</ele>
        <time>2025-06-16T15:33:33Z</time>
      </trkpt>
      <trkpt lat="45.91775" lon="1.2591">
        <ele>347.6</ele>
        <time>2025-06-16T15:33:34Z</time>
      </trkpt>
      <trkpt lat="45.91775" lon="1.25908">
        <ele>347.6</ele>
        <time>2025-06-16T15:33:35Z</time>
      </trkpt>
      <trkpt lat="45.91776" lon="1.25904">
        <ele>347.6</ele>
        <time>2025-06-16T15:33:36Z</time>
      </trkpt>
      <trkpt lat="45.91776" lon="1.25903">
        <ele>347.6</ele>
        <time>2025-06-16T15:33:37Z</time>
      </trkpt>
      <trkpt lat="45.91778" lon="1.25899">
        <ele>347.7</ele>
        <time>2025-06-16T15:33:38Z</time>
      </trkpt>
      <trkpt lat="45.91779" lon="1.25898">
        <ele>347.7</ele>
        <time>2025-06-16T15:33:39Z</time>
      </trkpt>
      <trkpt lat="45.91781" lon="1.25894">
        <ele>347.8</ele>
        <time>2025-06-16T15:33:40Z</time>
      </trkpt>
      <trkpt lat="45.91783" lon="1.25893">
        <ele>347.8</ele>
        <time>2025-06-16T15:33:41Z</time>
      </trkpt>
      <trkpt lat="45.91786" lon="1.2589">
        <ele>348</ele>
        <time>2025-06-16T15:33:42Z</time>
      </trkpt>
      <trkpt lat="45.91787" lon="1.25889">
        <ele>348</ele>
        <time>2025-06-16T15:33:43Z</time>
      </trkpt>
      <trkpt lat="45.9179" lon="1.25887">
        <ele>348.1</ele>
        <time>2025-06-16T15:33:44Z</time>
      </trkpt>
      <trkpt lat="45.91794" lon="1.25882">
        <ele>348.3</ele>
        <time>2025-06-16T15:33:45Z</time>
      </trkpt>
      <trkpt lat="45.91799" lon="1.25876">
        <ele>348.6</ele>
        <time>2025-06-16T15:33:47Z</time>
      </trkpt>
      <trkpt lat="45.91802" lon="1.25874">
        <ele>348.8</ele>
        <time>2025-06-16T15:33:49Z</time>
      </trkpt>
      <trkpt lat="45.91804" lon="1.25872">
        <ele>348.9</ele>
        <time>2025-06-16T15:33:50Z</time>
      </trkpt>
      <trkpt lat="45.91807" lon="1.2587">
        <ele>349.1</ele>
        <time>2025-06-16T15:33:51Z</time>
      </trkpt>
      <trkpt lat="45.9181" lon="1.25867">
        <ele>349.3</ele>
        <time>2025-06-16T15:33:52Z</time>
      </trkpt>
      <trkpt lat="45.91811" lon="1.25866">
        <ele>349.3</ele>
        <time>2025-06-16T15:33:53Z</time>
      </trkpt>
      <trkpt lat="45.91814" lon="1.25863">
        <ele>349.5</ele>
        <time>2025-06-16T15:33:54Z</time>
      </trkpt>
      <trkpt lat="45.91814" lon="1.25862">
        <ele>349.5</ele>
        <time>2025-06-16T15:33:55Z</time>
      </trkpt>
      <trkpt lat="45.91817" lon="1.25859">
        <ele>349.7</ele>
        <time>2025-06-16T15:33:56Z</time>
      </trkpt>
      <trkpt lat="45.91817" lon="1.25858">
        <ele>349.7</ele>
        <time>2025-06-16T15:33:57Z</time>
      </trkpt>
      <trkpt lat="45.9182" lon="1.25855">
        <ele>349.9</ele>
        <time>2025-06-16T15:33:58Z</time>
      </trkpt>
      <trkpt lat="45.91821" lon="1.25854">
        <ele>349.9</ele>
        <time>2025-06-16T15:33:59Z</time>
      </trkpt>
      <trkpt lat="45.91825" lon="1.25852">
        <ele>349.9</ele>
        <time>2025-06-16T15:34:00Z</time>
      </trkpt>
      <trkpt lat="45.91826" lon="1.25851">
        <ele>349.9</ele>
        <time>2025-06-16T15:34:01Z</time>
      </trkpt>
      <trkpt lat="45.91828" lon="1.2585">
        <ele>349.9</ele>
        <time>2025-06-16T15:34:02Z</time>
      </trkpt>
      <trkpt lat="45.91831" lon="1.25849">
        <ele>349.9</ele>
        <time>2025-06-16T15:34:03Z</time>
      </trkpt>
      <trkpt lat="45.91834" lon="1.25847">
        <ele>349.9</ele>
        <time>2025-06-16T15:34:04Z</time>
      </trkpt>
      <trkpt lat="45.91837" lon="1.25846">
        <ele>349.9</ele>
        <time>2025-06-16T15:34:05Z</time>
      </trkpt>
      <trkpt lat="45.91839" lon="1.25844">
        <ele>349.9</ele>
        <time>2025-06-16T15:34:06Z</time>
      </trkpt>
      <trkpt lat="45.91842" lon="1.25843">
        <ele>349.9</ele>
        <time>2025-06-16T15:34:07Z</time>
      </trkpt>
      <trkpt lat="45.91846" lon="1.25841">
        <ele>350</ele>
        <time>2025-06-16T15:34:08Z</time>
      </trkpt>
      <trkpt lat="45.91851" lon="1.25838">
        <ele>350</ele>
        <time>2025-06-16T15:34:10Z</time>
      </trkpt>
      <trkpt lat="45.91853" lon="1.25836">
        <ele>350</ele>
        <time>2025-06-16T15:34:11Z</time>
      </trkpt>
      <trkpt lat="45.91857" lon="1.25835">
        <ele>350.1</ele>
        <time>2025-06-16T15:34:13Z</time>
      </trkpt>
      <trkpt lat="45.91858" lon="1.25834">
        <ele>350.1</ele>
        <time>2025-06-16T15:34:14Z</time>
      </trkpt>
      <trkpt lat="45.91863" lon="1.25833">
        <ele>350.1</ele>
        <time>2025-06-16T15:34:15Z</time>
      </trkpt>
      <trkpt lat="45.91866" lon="1.25832">
        <ele>350.1</ele>
        <time>2025-06-16T15:34:16Z</time>
      </trkpt>
      <trkpt lat="45.91873" lon="1.2583">
        <ele>350.2</ele>
        <time>2025-06-16T15:34:18Z</time>
      </trkpt>
      <trkpt lat="45.91877" lon="1.2583">
        <ele>350.2</ele>
        <time>2025-06-16T15:34:20Z</time>
      </trkpt>
      <trkpt lat="45.91882" lon="1.25827">
        <ele>350.3</ele>
        <time>2025-06-16T15:34:21Z</time>
      </trkpt>
      <trkpt lat="45.91886" lon="1.25826">
        <ele>350.3</ele>
        <time>2025-06-16T15:34:23Z</time>
      </trkpt>
      <trkpt lat="45.91889" lon="1.25825">
        <ele>350.3</ele>
        <time>2025-06-16T15:34:25Z</time>
      </trkpt>
      <trkpt lat="45.9189" lon="1.25824">
        <ele>350.3</ele>
        <time>2025-06-16T15:34:26Z</time>
      </trkpt>
      <trkpt lat="45.91892" lon="1.25824">
        <ele>350.4</ele>
        <time>2025-06-16T15:34:27Z</time>
      </trkpt>
      <trkpt lat="45.91895" lon="1.25823">
        <ele>350.4</ele>
        <time>2025-06-16T15:34:28Z</time>
      </trkpt>
      <trkpt lat="45.91897" lon="1.25823">
        <ele>350.4</ele>
        <time>2025-06-16T15:34:29Z</time>
      </trkpt>
      <trkpt lat="45.919" lon="1.25822">
        <ele>350.5</ele>
        <time>2025-06-16T15:34:30Z</time>
      </trkpt>
      <trkpt lat="45.91901" lon="1.25821">
        <ele>350.5</ele>
        <time>2025-06-16T15:34:31Z</time>
      </trkpt>
      <trkpt lat="45.91904" lon="1.2582">
        <ele>350.5</ele>
        <time>2025-06-16T15:34:32Z</time>
      </trkpt>
      <trkpt lat="45.91905" lon="1.25819">
        <ele>350.6</ele>
        <time>2025-06-16T15:34:33Z</time>
      </trkpt>
      <trkpt lat="45.91909" lon="1.25816">
        <ele>350.6</ele>
        <time>2025-06-16T15:34:34Z</time>
      </trkpt>
      <trkpt lat="45.91912" lon="1.25816">
        <ele>350.7</ele>
        <time>2025-06-16T15:34:36Z</time>
      </trkpt>
      <trkpt lat="45.91913" lon="1.25815">
        <ele>350.7</ele>
        <time>2025-06-16T15:34:37Z</time>
      </trkpt>
      <trkpt lat="45.91916" lon="1.25814">
        <ele>350.7</ele>
        <time>2025-06-16T15:34:38Z</time>
      </trkpt>
      <trkpt lat="45.91917" lon="1.25813">
        <ele>350.7</ele>
        <time>2025-06-16T15:34:39Z</time>
      </trkpt>
      <trkpt lat="45.9192" lon="1.25811">
        <ele>350.8</ele>
        <time>2025-06-16T15:34:40Z</time>
      </trkpt>
      <trkpt lat="45.91921" lon="1.2581">
        <ele>350.8</ele>
        <time>2025-06-16T15:34:41Z</time>
      </trkpt>
      <trkpt lat="45.91924" lon="1.25808">
        <ele>350.9</ele>
        <time>2025-06-16T15:34:42Z</time>
      </trkpt>
      <trkpt lat="45.91925" lon="1.25807">
        <ele>350.9</ele>
        <time>2025-06-16T15:34:43Z</time>
      </trkpt>
      <trkpt lat="45.91928" lon="1.25808">
        <ele>351</ele>
        <time>2025-06-16T15:34:44Z</time>
      </trkpt>
      <trkpt lat="45.91931" lon="1.25808">
        <ele>351</ele>
        <time>2025-06-16T15:34:46Z</time>
      </trkpt>
      <trkpt lat="45.91932" lon="1.25808">
        <ele>351.1</ele>
        <time>2025-06-16T15:34:47Z</time>
      </trkpt>
      <trkpt lat="45.91936" lon="1.25805">
        <ele>351.1</ele>
        <time>2025-06-16T15:34:48Z</time>
      </trkpt>
      <trkpt lat="45.91937" lon="1.25804">
        <ele>351.2</ele>
        <time>2025-06-16T15:34:49Z</time>
      </trkpt>
      <trkpt lat="45.91942" lon="1.25801">
        <ele>351.3</ele>
        <time>2025-06-16T15:34:50Z</time>
      </trkpt>
      <trkpt lat="45.91945" lon="1.258">
        <ele>351.4</ele>
        <time>2025-06-16T15:34:52Z</time>
      </trkpt>
      <trkpt lat="45.91946" lon="1.258">
        <ele>351.4</ele>
        <time>2025-06-16T15:34:53Z</time>
      </trkpt>
      <trkpt lat="45.9195" lon="1.25799">
        <ele>351.5</ele>
        <time>2025-06-16T15:34:54Z</time>
      </trkpt>
      <trkpt lat="45.91952" lon="1.25799">
        <ele>351.5</ele>
        <time>2025-06-16T15:34:55Z</time>
      </trkpt>
      <trkpt lat="45.91955" lon="1.25798">
        <ele>351.6</ele>
        <time>2025-06-16T15:34:57Z</time>
      </trkpt>
      <trkpt lat="45.91957" lon="1.25798">
        <ele>351.7</ele>
        <time>2025-06-16T15:34:58Z</time>
      </trkpt>
      <trkpt lat="45.91961" lon="1.25797">
        <ele>351.8</ele>
        <time>2025-06-16T15:34:59Z</time>
      </trkpt>
      <trkpt lat="45.91963" lon="1.25796">
        <ele>351.9</ele>
        <time>2025-06-16T15:35:00Z</time>
      </trkpt>
      <trkpt lat="45.91965" lon="1.25795">
        <ele>351.9</ele>
        <time>2025-06-16T15:35:01Z</time>
      </trkpt>
      <trkpt lat="45.9197" lon="1.25793">
        <ele>352.1</ele>
        <time>2025-06-16T15:35:02Z</time>
      </trkpt>
      <trkpt lat="45.91975" lon="1.25791">
        <ele>352.3</ele>
        <time>2025-06-16T15:35:04Z</time>
      </trkpt>
      <trkpt lat="45.91976" lon="1.2579">
        <ele>352.3</ele>
        <time>2025-06-16T15:35:06Z</time>
      </trkpt>
      <trkpt lat="45.91978" lon="1.25789">
        <ele>352.4</ele>
        <time>2025-06-16T15:35:07Z</time>
      </trkpt>
      <trkpt lat="45.91979" lon="1.25788">
        <ele>352.4</ele>
        <time>2025-06-16T15:35:08Z</time>
      </trkpt>
      <trkpt lat="45.9198" lon="1.25787">
        <ele>352.5</ele>
        <time>2025-06-16T15:35:09Z</time>
      </trkpt>
      <trkpt lat="45.91981" lon="1.25786">
        <ele>352.5</ele>
        <time>2025-06-16T15:35:10Z</time>
      </trkpt>
      <trkpt lat="45.91983" lon="1.25785">
        <ele>352.6</ele>
        <time>2025-06-16T15:35:11Z</time>
      </trkpt>
      <trkpt lat="45.91984" lon="1.25784">
        <ele>352.6</ele>
        <time>2025-06-16T15:35:12Z</time>
      </trkpt>
      <trkpt lat="45.91987" lon="1.25782">
        <ele>352.8</ele>
        <time>2025-06-16T15:35:13Z</time>
      </trkpt>
      <trkpt lat="45.91988" lon="1.2578">
        <ele>352.8</ele>
        <time>2025-06-16T15:35:14Z</time>
      </trkpt>
      <trkpt lat="45.9199" lon="1.25776">
        <ele>353</ele>
        <time>2025-06-16T15:35:15Z</time>
      </trkpt>
      <trkpt lat="45.91991" lon="1.25773">
        <ele>353.1</ele>
        <time>2025-06-16T15:35:17Z</time>
      </trkpt>
      <trkpt lat="45.91992" lon="1.25771">
        <ele>353.2</ele>
        <time>2025-06-16T15:35:18Z</time>
      </trkpt>
      <trkpt lat="45.91993" lon="1.25766">
        <ele>353.4</ele>
        <time>2025-06-16T15:35:19Z</time>
      </trkpt>
      <trkpt lat="45.91994" lon="1.25762">
        <ele>353.6</ele>
        <time>2025-06-16T15:35:21Z</time>
      </trkpt>
      <trkpt lat="45.91994" lon="1.25761">
        <ele>353.6</ele>
        <time>2025-06-16T15:35:22Z</time>
      </trkpt>
      <trkpt lat="45.91994" lon="1.25758">
        <ele>353.8</ele>
        <time>2025-06-16T15:35:23Z</time>
      </trkpt>
      <trkpt lat="45.91995" lon="1.25756">
        <ele>353.9</ele>
        <time>2025-06-16T15:35:24Z</time>
      </trkpt>
      <trkpt lat="45.91995" lon="1.25754">
        <ele>354</ele>
        <time>2025-06-16T15:35:25Z</time>
      </trkpt>
      <trkpt lat="45.91996" lon="1.25749">
        <ele>354.2</ele>
        <time>2025-06-16T15:35:26Z</time>
      </trkpt>
      <trkpt lat="45.91997" lon="1.25745">
        <ele>354.4</ele>
        <time>2025-06-16T15:35:28Z</time>
      </trkpt>
      <trkpt lat="45.91997" lon="1.25743">
        <ele>354.5</ele>
        <time>2025-06-16T15:35:30Z</time>
      </trkpt>
      <trkpt lat="45.91997" lon="1.25738">
        <ele>354.8</ele>
        <time>2025-06-16T15:35:31Z</time>
      </trkpt>
      <trkpt lat="45.91998" lon="1.25732">
        <ele>355.1</ele>
        <time>2025-06-16T15:35:33Z</time>
      </trkpt>
      <trkpt lat="45.91999" lon="1.25729">
        <ele>355.2</ele>
        <time>2025-06-16T15:35:34Z</time>
      </trkpt>
      <trkpt lat="45.92" lon="1.25726">
        <ele>355.4</ele>
        <time>2025-06-16T15:35:36Z</time>
      </trkpt>
      <trkpt lat="45.92" lon="1.25722">
        <ele>355.7</ele>
        <time>2025-06-16T15:35:37Z</time>
      </trkpt>
      <trkpt lat="45.92" lon="1.2572">
        <ele>355.7</ele>
        <time>2025-06-16T15:35:38Z</time>
      </trkpt>
      <trkpt lat="45.92001" lon="1.25715">
        <ele>356.1</ele>
        <time>2025-06-16T15:35:39Z</time>
      </trkpt>
      <trkpt lat="45.92002" lon="1.25712">
        <ele>356.3</ele>
        <time>2025-06-16T15:35:40Z</time>
      </trkpt>
      <trkpt lat="45.92003" lon="1.25706">
        <ele>356.8</ele>
        <time>2025-06-16T15:35:42Z</time>
      </trkpt>
      <trkpt lat="45.92004" lon="1.25703">
        <ele>357</ele>
        <time>2025-06-16T15:35:43Z</time>
      </trkpt>
      <trkpt lat="45.92005" lon="1.25701">
        <ele>357.1</ele>
        <time>2025-06-16T15:35:44Z</time>
      </trkpt>
      <trkpt lat="45.92006" lon="1.25698">
        <ele>357.4</ele>
        <time>2025-06-16T15:35:46Z</time>
      </trkpt>
      <trkpt lat="45.92007" lon="1.25692">
        <ele>357.8</ele>
        <time>2025-06-16T15:35:47Z</time>
      </trkpt>
      <trkpt lat="45.92008" lon="1.25686">
        <ele>358.2</ele>
        <time>2025-06-16T15:35:49Z</time>
      </trkpt>
      <trkpt lat="45.92009" lon="1.25681">
        <ele>358.5</ele>
        <time>2025-06-16T15:35:51Z</time>
      </trkpt>
      <trkpt lat="45.92009" lon="1.25677">
        <ele>358.8</ele>
        <time>2025-06-16T15:35:52Z</time>
      </trkpt>
      <trkpt lat="45.92009" lon="1.25676">
        <ele>358.9</ele>
        <time>2025-06-16T15:35:53Z</time>
      </trkpt>
      <trkpt lat="45.92009" lon="1.25672">
        <ele>359.1</ele>
        <time>2025-06-16T15:35:54Z</time>
      </trkpt>
      <trkpt lat="45.9201" lon="1.25664">
        <ele>359.6</ele>
        <time>2025-06-16T15:35:56Z</time>
      </trkpt>
      <trkpt lat="45.92011" lon="1.25657">
        <ele>359.9</ele>
        <time>2025-06-16T15:35:58Z</time>
      </trkpt>
      <trkpt lat="45.92012" lon="1.25651">
        <ele>360.3</ele>
        <time>2025-06-16T15:36:00Z</time>
      </trkpt>
      <trkpt lat="45.92013" lon="1.25648">
        <ele>360.4</ele>
        <time>2025-06-16T15:36:01Z</time>
      </trkpt>
      <trkpt lat="45.92015" lon="1.25642">
        <ele>360.7</ele>
        <time>2025-06-16T15:36:03Z</time>
      </trkpt>
      <trkpt lat="45.92015" lon="1.25638">
        <ele>360.9</ele>
        <time>2025-06-16T15:36:04Z</time>
      </trkpt>
      <trkpt lat="45.92016" lon="1.25633">
        <ele>361.1</ele>
        <time>2025-06-16T15:36:06Z</time>
      </trkpt>
      <trkpt lat="45.92017" lon="1.25631">
        <ele>361.2</ele>
        <time>2025-06-16T15:36:07Z</time>
      </trkpt>
      <trkpt lat="45.92018" lon="1.25625">
        <ele>361.5</ele>
        <time>2025-06-16T15:36:08Z</time>
      </trkpt>
      <trkpt lat="45.92019" lon="1.25621">
        <ele>361.6</ele>
        <time>2025-06-16T15:36:09Z</time>
      </trkpt>
      <trkpt lat="45.92019" lon="1.25619">
        <ele>361.7</ele>
        <time>2025-06-16T15:36:10Z</time>
      </trkpt>
      <trkpt lat="45.92019" lon="1.25612">
        <ele>362</ele>
        <time>2025-06-16T15:36:12Z</time>
      </trkpt>
      <trkpt lat="45.92019" lon="1.25608">
        <ele>362.1</ele>
        <time>2025-06-16T15:36:13Z</time>
      </trkpt>
      <trkpt lat="45.92018" lon="1.25605">
        <ele>362.2</ele>
        <time>2025-06-16T15:36:14Z</time>
      </trkpt>
      <trkpt lat="45.92017" lon="1.25597">
        <ele>362.5</ele>
        <time>2025-06-16T15:36:16Z</time>
      </trkpt>
      <trkpt lat="45.92017" lon="1.25594">
        <ele>362.6</ele>
        <time>2025-06-16T15:36:17Z</time>
      </trkpt>
      <trkpt lat="45.92016" lon="1.2559">
        <ele>362.7</ele>
        <time>2025-06-16T15:36:18Z</time>
      </trkpt>
      <trkpt lat="45.92015" lon="1.25583">
        <ele>362.9</ele>
        <time>2025-06-16T15:36:20Z</time>
      </trkpt>
      <trkpt lat="45.92015" lon="1.25576">
        <ele>363.1</ele>
        <time>2025-06-16T15:36:22Z</time>
      </trkpt>
      <trkpt lat="45.92015" lon="1.2557">
        <ele>363.2</ele>
        <time>2025-06-16T15:36:24Z</time>
      </trkpt>
      <trkpt lat="45.92015" lon="1.25566">
        <ele>363.3</ele>
        <time>2025-06-16T15:36:25Z</time>
      </trkpt>
      <trkpt lat="45.92014" lon="1.25559">
        <ele>363.5</ele>
        <time>2025-06-16T15:36:27Z</time>
      </trkpt>
      <trkpt lat="45.92014" lon="1.25551">
        <ele>363.7</ele>
        <time>2025-06-16T15:36:29Z</time>
      </trkpt>
      <trkpt lat="45.92014" lon="1.25547">
        <ele>363.8</ele>
        <time>2025-06-16T15:36:30Z</time>
      </trkpt>
      <trkpt lat="45.92013" lon="1.25543">
        <ele>363.9</ele>
        <time>2025-06-16T15:36:32Z</time>
      </trkpt>
      <trkpt lat="45.92011" lon="1.25539">
        <ele>364</ele>
        <time>2025-06-16T15:36:33Z</time>
      </trkpt>
      <trkpt lat="45.92009" lon="1.25535">
        <ele>364.1</ele>
        <time>2025-06-16T15:36:34Z</time>
      </trkpt>
      <trkpt lat="45.92008" lon="1.25533">
        <ele>364.1</ele>
        <time>2025-06-16T15:36:35Z</time>
      </trkpt>
      <trkpt lat="45.92007" lon="1.2553">
        <ele>364.2</ele>
        <time>2025-06-16T15:36:36Z</time>
      </trkpt>
      <trkpt lat="45.92006" lon="1.25526">
        <ele>364.3</ele>
        <time>2025-06-16T15:36:37Z</time>
      </trkpt>
      <trkpt lat="45.92005" lon="1.25521">
        <ele>364.3</ele>
        <time>2025-06-16T15:36:38Z</time>
      </trkpt>
      <trkpt lat="45.92005" lon="1.25519">
        <ele>364.4</ele>
        <time>2025-06-16T15:36:39Z</time>
      </trkpt>
      <trkpt lat="45.92003" lon="1.25516">
        <ele>364.4</ele>
        <time>2025-06-16T15:36:40Z</time>
      </trkpt>
      <trkpt lat="45.92003" lon="1.25508">
        <ele>364.6</ele>
        <time>2025-06-16T15:36:41Z</time>
      </trkpt>
      <trkpt lat="45.92003" lon="1.25501">
        <ele>364.7</ele>
        <time>2025-06-16T15:36:43Z</time>
      </trkpt>
      <trkpt lat="45.92003" lon="1.25499">
        <ele>364.7</ele>
        <time>2025-06-16T15:36:44Z</time>
      </trkpt>
      <trkpt lat="45.92003" lon="1.25496">
        <ele>364.7</ele>
        <time>2025-06-16T15:36:45Z</time>
      </trkpt>
      <trkpt lat="45.92002" lon="1.25491">
        <ele>364.8</ele>
        <time>2025-06-16T15:36:46Z</time>
      </trkpt>
      <trkpt lat="45.92001" lon="1.25489">
        <ele>364.8</ele>
        <time>2025-06-16T15:36:47Z</time>
      </trkpt>
      <trkpt lat="45.92001" lon="1.25485">
        <ele>364.8</ele>
        <time>2025-06-16T15:36:48Z</time>
      </trkpt>
      <trkpt lat="45.92001" lon="1.25481">
        <ele>364.8</ele>
        <time>2025-06-16T15:36:49Z</time>
      </trkpt>
      <trkpt lat="45.91999" lon="1.25473">
        <ele>364.7</ele>
        <time>2025-06-16T15:36:50Z</time>
      </trkpt>
      <trkpt lat="45.91998" lon="1.25467">
        <ele>364.6</ele>
        <time>2025-06-16T15:36:52Z</time>
      </trkpt>
      <trkpt lat="45.91998" lon="1.25465">
        <ele>364.6</ele>
        <time>2025-06-16T15:36:53Z</time>
      </trkpt>
      <trkpt lat="45.91996" lon="1.25457">
        <ele>364.4</ele>
        <time>2025-06-16T15:36:54Z</time>
      </trkpt>
      <trkpt lat="45.91995" lon="1.25453">
        <ele>364.4</ele>
        <time>2025-06-16T15:36:55Z</time>
      </trkpt>
      <trkpt lat="45.91994" lon="1.25448">
        <ele>364.3</ele>
        <time>2025-06-16T15:36:56Z</time>
      </trkpt>
      <trkpt lat="45.91995" lon="1.25439">
        <ele>364.1</ele>
        <time>2025-06-16T15:36:58Z</time>
      </trkpt>
      <trkpt lat="45.91995" lon="1.25435">
        <ele>364.1</ele>
        <time>2025-06-16T15:37:00Z</time>
      </trkpt>
      <trkpt lat="45.91994" lon="1.25428">
        <ele>364</ele>
        <time>2025-06-16T15:37:01Z</time>
      </trkpt>
      <trkpt lat="45.91993" lon="1.25421">
        <ele>364</ele>
        <time>2025-06-16T15:37:03Z</time>
      </trkpt>
      <trkpt lat="45.91993" lon="1.25419">
        <ele>363.9</ele>
        <time>2025-06-16T15:37:04Z</time>
      </trkpt>
      <trkpt lat="45.91993" lon="1.25418">
        <ele>363.9</ele>
        <time>2025-06-16T15:37:05Z</time>
      </trkpt>
      <trkpt lat="45.91993" lon="1.25416">
        <ele>363.9</ele>
        <time>2025-06-16T15:37:06Z</time>
      </trkpt>
      <trkpt lat="45.91992" lon="1.25415">
        <ele>363.9</ele>
        <time>2025-06-16T15:37:07Z</time>
      </trkpt>
      <trkpt lat="45.91991" lon="1.25414">
        <ele>363.9</ele>
        <time>2025-06-16T15:37:08Z</time>
      </trkpt>
      <trkpt lat="45.91991" lon="1.25415">
        <ele>363.9</ele>
        <time>2025-06-16T15:37:10Z</time>
      </trkpt>
      <trkpt lat="45.91991" lon="1.25415">
        <ele>363.8</ele>
        <time>2025-06-16T15:37:11Z</time>
      </trkpt>
      <trkpt lat="45.91992" lon="1.25416">
        <ele>363.8</ele>
        <time>2025-06-16T15:37:12Z</time>
      </trkpt>
      <trkpt lat="45.91992" lon="1.25416">
        <ele>363.8</ele>
        <time>2025-06-16T15:37:13Z</time>
      </trkpt>
      <trkpt lat="45.91992" lon="1.25416">
        <ele>363.8</ele>
        <time>2025-06-16T15:37:14Z</time>
      </trkpt>
      <trkpt lat="45.91992" lon="1.25417">
        <ele>363.8</ele>
        <time>2025-06-16T15:37:15Z</time>
      </trkpt>
      <trkpt lat="45.91992" lon="1.25417">
        <ele>363.8</ele>
        <time>2025-06-16T15:37:17Z</time>
      </trkpt>
      <trkpt lat="45.91992" lon="1.25417">
        <ele>363.8</ele>
        <time>2025-06-16T15:37:18Z</time>
      </trkpt>
      <trkpt lat="45.91992" lon="1.25417">
        <ele>363.8</ele>
        <time>2025-06-16T15:37:19Z</time>
      </trkpt>
      <trkpt lat="45.91991" lon="1.25417">
        <ele>363.7</ele>
        <time>2025-06-16T15:37:20Z</time>
      </trkpt>
      <trkpt lat="45.91991" lon="1.25417">
        <ele>363.7</ele>
        <time>2025-06-16T15:37:21Z</time>
      </trkpt>
      <trkpt lat="45.91991" lon="1.25417">
        <ele>363.7</ele>
        <time>2025-06-16T15:37:23Z</time>
      </trkpt>
      <trkpt lat="45.91991" lon="1.25417">
        <ele>363.7</ele>
        <time>2025-06-16T15:37:24Z</time>
      </trkpt>
      <trkpt lat="45.91991" lon="1.25418">
        <ele>363.7</ele>
        <time>2025-06-16T15:37:26Z</time>
      </trkpt>
      <trkpt lat="45.91991" lon="1.25418">
        <ele>363.7</ele>
        <time>2025-06-16T15:37:27Z</time>
      </trkpt>
      <trkpt lat="45.91991" lon="1.25417">
        <ele>363.7</ele>
        <time>2025-06-16T15:37:28Z</time>
      </trkpt>
      <trkpt lat="45.91991" lon="1.25417">
        <ele>363.6</ele>
        <time>2025-06-16T15:37:29Z</time>
      </trkpt>
      <trkpt lat="45.91991" lon="1.25417">
        <ele>363.6</ele>
        <time>2025-06-16T15:37:30Z</time>
      </trkpt>
      <trkpt lat="45.9199" lon="1.25417">
        <ele>363.6</ele>
        <time>2025-06-16T15:37:32Z</time>
      </trkpt>
      <trkpt lat="45.9199" lon="1.25417">
        <ele>363.6</ele>
        <time>2025-06-16T15:37:33Z</time>
      </trkpt>
      <trkpt lat="45.9199" lon="1.25417">
        <ele>363.6</ele>
        <time>2025-06-16T15:37:34Z</time>
      </trkpt>
      <trkpt lat="45.9199" lon="1.25417">
        <ele>363.6</ele>
        <time>2025-06-16T15:37:35Z</time>
      </trkpt>
      <trkpt lat="45.9199" lon="1.25417">
        <ele>363.5</ele>
        <time>2025-06-16T15:37:36Z</time>
      </trkpt>
      <trkpt lat="45.9199" lon="1.25417">
        <ele>363.5</ele>
        <time>2025-06-16T15:37:38Z</time>
      </trkpt>
      <trkpt lat="45.9199" lon="1.25417">
        <ele>363.5</ele>
        <time>2025-06-16T15:37:39Z</time>
      </trkpt>
      <trkpt lat="45.9199" lon="1.25417">
        <ele>363.5</ele>
        <time>2025-06-16T15:37:40Z</time>
      </trkpt>
      <trkpt lat="45.9199" lon="1.25417">
        <ele>363.5</ele>
        <time>2025-06-16T15:37:41Z</time>
      </trkpt>
      <trkpt lat="45.9199" lon="1.25417">
        <ele>363.5</ele>
        <time>2025-06-16T15:37:42Z</time>
      </trkpt>
      <trkpt lat="45.9199" lon="1.25417">
        <ele>363.4</ele>
        <time>2025-06-16T15:37:43Z</time>
      </trkpt>
      <trkpt lat="45.9199" lon="1.25417">
        <ele>363.4</ele>
        <time>2025-06-16T15:37:44Z</time>
      </trkpt>
      <trkpt lat="45.9199" lon="1.25417">
        <ele>363.4</ele>
        <time>2025-06-16T15:37:45Z</time>
      </trkpt>
      <trkpt lat="45.9199" lon="1.25417">
        <ele>363.4</ele>
        <time>2025-06-16T15:37:46Z</time>
      </trkpt>
      <trkpt lat="45.9199" lon="1.25417">
        <ele>363.4</ele>
        <time>2025-06-16T15:37:48Z</time>
      </trkpt>
      <trkpt lat="45.9199" lon="1.25416">
        <ele>363.4</ele>
        <time>2025-06-16T15:37:49Z</time>
      </trkpt>
      <trkpt lat="45.9199" lon="1.25416">
        <ele>363.4</ele>
        <time>2025-06-16T15:37:51Z</time>
      </trkpt>
      <trkpt lat="45.9199" lon="1.25417">
        <ele>363.4</ele>
        <time>2025-06-16T15:37:52Z</time>
      </trkpt>
      <trkpt lat="45.9199" lon="1.25417">
        <ele>363.4</ele>
        <time>2025-06-16T15:37:53Z</time>
      </trkpt>
      <trkpt lat="45.9199" lon="1.25417">
        <ele>363.4</ele>
        <time>2025-06-16T15:37:54Z</time>
      </trkpt>
      <trkpt lat="45.9199" lon="1.25417">
        <ele>363.4</ele>
        <time>2025-06-16T15:37:55Z</time>
      </trkpt>
      <trkpt lat="45.9199" lon="1.25417">
        <ele>363.4</ele>
        <time>2025-06-16T15:37:57Z</time>
      </trkpt>
      <trkpt lat="45.9199" lon="1.25416">
        <ele>363.4</ele>
        <time>2025-06-16T15:37:58Z</time>
      </trkpt>
      <trkpt lat="45.9199" lon="1.25416">
        <ele>363.4</ele>
        <time>2025-06-16T15:37:59Z</time>
      </trkpt>
      <trkpt lat="45.9199" lon="1.25416">
        <ele>363.3</ele>
        <time>2025-06-16T15:38:00Z</time>
      </trkpt>
      <trkpt lat="45.9199" lon="1.25416">
        <ele>363.3</ele>
        <time>2025-06-16T15:38:01Z</time>
      </trkpt>
      <trkpt lat="45.9199" lon="1.25416">
        <ele>363.3</ele>
        <time>2025-06-16T15:38:02Z</time>
      </trkpt>
      <trkpt lat="45.9199" lon="1.25416">
        <ele>363.3</ele>
        <time>2025-06-16T15:38:04Z</time>
      </trkpt>
      <trkpt lat="45.9199" lon="1.25416">
        <ele>363.3</ele>
        <time>2025-06-16T15:38:05Z</time>
      </trkpt>
      <trkpt lat="45.9199" lon="1.25416">
        <ele>363.3</ele>
        <time>2025-06-16T15:38:06Z</time>
      </trkpt>
      <trkpt lat="45.9199" lon="1.25416">
        <ele>363.3</ele>
        <time>2025-06-16T15:38:08Z</time>
      </trkpt>
      <trkpt lat="45.9199" lon="1.25416">
        <ele>363.3</ele>
        <time>2025-06-16T15:38:09Z</time>
      </trkpt>
      <trkpt lat="45.9199" lon="1.25416">
        <ele>363.3</ele>
        <time>2025-06-16T15:38:10Z</time>
      </trkpt>
      <trkpt lat="45.9199" lon="1.25416">
        <ele>363.2</ele>
        <time>2025-06-16T15:38:11Z</time>
      </trkpt>
      <trkpt lat="45.9199" lon="1.25415">
        <ele>363.2</ele>
        <time>2025-06-16T15:38:12Z</time>
      </trkpt>
      <trkpt lat="45.9199" lon="1.25415">
        <ele>363.2</ele>
        <time>2025-06-16T15:38:13Z</time>
      </trkpt>
      <trkpt lat="45.9199" lon="1.25416">
        <ele>363.2</ele>
        <time>2025-06-16T15:38:15Z</time>
      </trkpt>
      <trkpt lat="45.9199" lon="1.25416">
        <ele>363.2</ele>
        <time>2025-06-16T15:38:17Z</time>
      </trkpt>
      <trkpt lat="45.9199" lon="1.25416">
        <ele>363.2</ele>
        <time>2025-06-16T15:38:18Z</time>
      </trkpt>
      <trkpt lat="45.9199" lon="1.25416">
        <ele>363.2</ele>
        <time>2025-06-16T15:38:20Z</time>
      </trkpt>
      <trkpt lat="45.9199" lon="1.25416">
        <ele>363.2</ele>
        <time>2025-06-16T15:38:22Z</time>
      </trkpt>
      <trkpt lat="45.91989" lon="1.25416">
        <ele>363.1</ele>
        <time>2025-06-16T15:38:23Z</time>
      </trkpt>
      <trkpt lat="45.91987" lon="1.25416">
        <ele>362.9</ele>
        <time>2025-06-16T15:38:24Z</time>
      </trkpt>
      <trkpt lat="45.91985" lon="1.25416">
        <ele>362.8</ele>
        <time>2025-06-16T15:38:25Z</time>
      </trkpt>
      <trkpt lat="45.91984" lon="1.25416">
        <ele>362.7</ele>
        <time>2025-06-16T15:38:26Z</time>
      </trkpt>
      <trkpt lat="45.9198" lon="1.25421">
        <ele>362.3</ele>
        <time>2025-06-16T15:38:28Z</time>
      </trkpt>
      <trkpt lat="45.91977" lon="1.25426">
        <ele>361.9</ele>
        <time>2025-06-16T15:38:30Z</time>
      </trkpt>
      <trkpt lat="45.91972" lon="1.25431">
        <ele>361.4</ele>
        <time>2025-06-16T15:38:32Z</time>
      </trkpt>
      <trkpt lat="45.91968" lon="1.25435">
        <ele>361.1</ele>
        <time>2025-06-16T15:38:33Z</time>
      </trkpt>
      <trkpt lat="45.91958" lon="1.2544">
        <ele>360.2</ele>
        <time>2025-06-16T15:38:34Z</time>
      </trkpt>
      <trkpt lat="45.91953" lon="1.25442">
        <ele>359.9</ele>
        <time>2025-06-16T15:38:35Z</time>
      </trkpt>
      <trkpt lat="45.91947" lon="1.25444">
        <ele>359.5</ele>
        <time>2025-06-16T15:38:36Z</time>
      </trkpt>
      <trkpt lat="45.91941" lon="1.25446">
        <ele>359</ele>
        <time>2025-06-16T15:38:37Z</time>
      </trkpt>
      <trkpt lat="45.91935" lon="1.25449">
        <ele>358.6</ele>
        <time>2025-06-16T15:38:38Z</time>
      </trkpt>
      <trkpt lat="45.91923" lon="1.25455">
        <ele>357.7</ele>
        <time>2025-06-16T15:38:40Z</time>
      </trkpt>
      <trkpt lat="45.91908" lon="1.25461">
        <ele>356.7</ele>
        <time>2025-06-16T15:38:42Z</time>
      </trkpt>
      <trkpt lat="45.91893" lon="1.25468">
        <ele>355.7</ele>
        <time>2025-06-16T15:38:44Z</time>
      </trkpt>
      <trkpt lat="45.91885" lon="1.25471">
        <ele>355.2</ele>
        <time>2025-06-16T15:38:45Z</time>
      </trkpt>
      <trkpt lat="45.91876" lon="1.25475">
        <ele>354.6</ele>
        <time>2025-06-16T15:38:46Z</time>
      </trkpt>
      <trkpt lat="45.91867" lon="1.25477">
        <ele>354</ele>
        <time>2025-06-16T15:38:47Z</time>
      </trkpt>
      <trkpt lat="45.91858" lon="1.25479">
        <ele>353.3</ele>
        <time>2025-06-16T15:38:48Z</time>
      </trkpt>
      <trkpt lat="45.91848" lon="1.25481">
        <ele>352.7</ele>
        <time>2025-06-16T15:38:50Z</time>
      </trkpt>
      <trkpt lat="45.91829" lon="1.25483">
        <ele>351.4</ele>
        <time>2025-06-16T15:38:51Z</time>
      </trkpt>
      <trkpt lat="45.91818" lon="1.25484">
        <ele>350.8</ele>
        <time>2025-06-16T15:38:52Z</time>
      </trkpt>
      <trkpt lat="45.91798" lon="1.25484">
        <ele>349.9</ele>
        <time>2025-06-16T15:38:54Z</time>
      </trkpt>
      <trkpt lat="45.91777" lon="1.25485">
        <ele>349.4</ele>
        <time>2025-06-16T15:38:56Z</time>
      </trkpt>
      <trkpt lat="45.91767" lon="1.25486">
        <ele>349.3</ele>
        <time>2025-06-16T15:38:57Z</time>
      </trkpt>
      <trkpt lat="45.91757" lon="1.25486">
        <ele>349.2</ele>
        <time>2025-06-16T15:38:58Z</time>
      </trkpt>
      <trkpt lat="45.91747" lon="1.25487">
        <ele>349.2</ele>
        <time>2025-06-16T15:38:59Z</time>
      </trkpt>
      <trkpt lat="45.91738" lon="1.25488">
        <ele>349.3</ele>
        <time>2025-06-16T15:39:00Z</time>
      </trkpt>
      <trkpt lat="45.91729" lon="1.25488">
        <ele>349.5</ele>
        <time>2025-06-16T15:39:01Z</time>
      </trkpt>
      <trkpt lat="45.91712" lon="1.25488">
        <ele>349.9</ele>
        <time>2025-06-16T15:39:03Z</time>
      </trkpt>
      <trkpt lat="45.91698" lon="1.25488">
        <ele>350.4</ele>
        <time>2025-06-16T15:39:05Z</time>
      </trkpt>
      <trkpt lat="45.9169" lon="1.25489">
        <ele>350.7</ele>
        <time>2025-06-16T15:39:06Z</time>
      </trkpt>
      <trkpt lat="45.91678" lon="1.25489">
        <ele>351.3</ele>
        <time>2025-06-16T15:39:08Z</time>
      </trkpt>
      <trkpt lat="45.91673" lon="1.25489">
        <ele>351.6</ele>
        <time>2025-06-16T15:39:09Z</time>
      </trkpt>
      <trkpt lat="45.91667" lon="1.25489">
        <ele>351.9</ele>
        <time>2025-06-16T15:39:10Z</time>
      </trkpt>
      <trkpt lat="45.91663" lon="1.2549">
        <ele>352.1</ele>
        <time>2025-06-16T15:39:11Z</time>
      </trkpt>
      <trkpt lat="45.91659" lon="1.25491">
        <ele>352.4</ele>
        <time>2025-06-16T15:39:13Z</time>
      </trkpt>
      <trkpt lat="45.91655" lon="1.25491">
        <ele>352.6</ele>
        <time>2025-06-16T15:39:14Z</time>
      </trkpt>
      <trkpt lat="45.91648" lon="1.25494">
        <ele>353</ele>
        <time>2025-06-16T15:39:15Z</time>
      </trkpt>
      <trkpt lat="45.91645" lon="1.25495">
        <ele>353.1</ele>
        <time>2025-06-16T15:39:16Z</time>
      </trkpt>
      <trkpt lat="45.9164" lon="1.25499">
        <ele>353.2</ele>
        <time>2025-06-16T15:39:18Z</time>
      </trkpt>
      <trkpt lat="45.91637" lon="1.25502">
        <ele>353.2</ele>
        <time>2025-06-16T15:39:20Z</time>
      </trkpt>
      <trkpt lat="45.91636" lon="1.25503">
        <ele>353.2</ele>
        <time>2025-06-16T15:39:21Z</time>
      </trkpt>
      <trkpt lat="45.9163" lon="1.25506">
        <ele>353.3</ele>
        <time>2025-06-16T15:39:22Z</time>
      </trkpt>
      <trkpt lat="45.91627" lon="1.25509">
        <ele>353.3</ele>
        <time>2025-06-16T15:39:24Z</time>
      </trkpt>
      <trkpt lat="45.91626" lon="1.2551">
        <ele>353.4</ele>
        <time>2025-06-16T15:39:25Z</time>
      </trkpt>
      <trkpt lat="45.91624" lon="1.25512">
        <ele>353.5</ele>
        <time>2025-06-16T15:39:26Z</time>
      </trkpt>
      <trkpt lat="45.91621" lon="1.25516">
        <ele>353.7</ele>
        <time>2025-06-16T15:39:27Z</time>
      </trkpt>
      <trkpt lat="45.91619" lon="1.25519">
        <ele>353.9</ele>
        <time>2025-06-16T15:39:28Z</time>
      </trkpt>
      <trkpt lat="45.91617" lon="1.25522">
        <ele>354.1</ele>
        <time>2025-06-16T15:39:29Z</time>
      </trkpt>
      <trkpt lat="45.91613" lon="1.25528">
        <ele>354.6</ele>
        <time>2025-06-16T15:39:30Z</time>
      </trkpt>
      <trkpt lat="45.9161" lon="1.25533">
        <ele>354.9</ele>
        <time>2025-06-16T15:39:32Z</time>
      </trkpt>
      <trkpt lat="45.91608" lon="1.25534">
        <ele>355.1</ele>
        <time>2025-06-16T15:39:33Z</time>
      </trkpt>
      <trkpt lat="45.91607" lon="1.25536">
        <ele>355.2</ele>
        <time>2025-06-16T15:39:34Z</time>
      </trkpt>
      <trkpt lat="45.91605" lon="1.25541">
        <ele>355.6</ele>
        <time>2025-06-16T15:39:35Z</time>
      </trkpt>
      <trkpt lat="45.91603" lon="1.25543">
        <ele>355.8</ele>
        <time>2025-06-16T15:39:36Z</time>
      </trkpt>
      <trkpt lat="45.916" lon="1.25549">
        <ele>356.2</ele>
        <time>2025-06-16T15:39:38Z</time>
      </trkpt>
      <trkpt lat="45.91598" lon="1.25553">
        <ele>356.5</ele>
        <time>2025-06-16T15:39:40Z</time>
      </trkpt>
      <trkpt lat="45.91596" lon="1.25556">
        <ele>356.8</ele>
        <time>2025-06-16T15:39:41Z</time>
      </trkpt>
      <trkpt lat="45.91594" lon="1.25559">
        <ele>357.1</ele>
        <time>2025-06-16T15:39:42Z</time>
      </trkpt>
      <trkpt lat="45.91592" lon="1.25562">
        <ele>357.3</ele>
        <time>2025-06-16T15:39:43Z</time>
      </trkpt>
      <trkpt lat="45.91589" lon="1.25566">
        <ele>357.7</ele>
        <time>2025-06-16T15:39:44Z</time>
      </trkpt>
      <trkpt lat="45.91588" lon="1.25567">
        <ele>357.8</ele>
        <time>2025-06-16T15:39:45Z</time>
      </trkpt>
      <trkpt lat="45.91586" lon="1.25571">
        <ele>358.1</ele>
        <time>2025-06-16T15:39:46Z</time>
      </trkpt>
      <trkpt lat="45.91585" lon="1.25572">
        <ele>358.2</ele>
        <time>2025-06-16T15:39:47Z</time>
      </trkpt>
      <trkpt lat="45.91582" lon="1.25575">
        <ele>358.5</ele>
        <time>2025-06-16T15:39:48Z</time>
      </trkpt>
      <trkpt lat="45.91581" lon="1.25577">
        <ele>358.7</ele>
        <time>2025-06-16T15:39:49Z</time>
      </trkpt>
      <trkpt lat="45.91578" lon="1.25579">
        <ele>358.9</ele>
        <time>2025-06-16T15:39:50Z</time>
      </trkpt>
      <trkpt lat="45.91576" lon="1.25583">
        <ele>359.1</ele>
        <time>2025-06-16T15:39:51Z</time>
      </trkpt>
      <trkpt lat="45.91575" lon="1.25584">
        <ele>359.2</ele>
        <time>2025-06-16T15:39:52Z</time>
      </trkpt>
      <trkpt lat="45.91572" lon="1.25587">
        <ele>359.4</ele>
        <time>2025-06-16T15:39:53Z</time>
      </trkpt>
      <trkpt lat="45.91571" lon="1.25588">
        <ele>359.5</ele>
        <time>2025-06-16T15:39:54Z</time>
      </trkpt>
      <trkpt lat="45.91569" lon="1.25591">
        <ele>359.7</ele>
        <time>2025-06-16T15:39:55Z</time>
      </trkpt>
      <trkpt lat="45.91568" lon="1.25592">
        <ele>359.8</ele>
        <time>2025-06-16T15:39:56Z</time>
      </trkpt>
      <trkpt lat="45.91565" lon="1.25596">
        <ele>360</ele>
        <time>2025-06-16T15:39:57Z</time>
      </trkpt>
      <trkpt lat="45.91565" lon="1.25597">
        <ele>360</ele>
        <time>2025-06-16T15:39:58Z</time>
      </trkpt>
      <trkpt lat="45.91562" lon="1.25601">
        <ele>360.2</ele>
        <time>2025-06-16T15:39:59Z</time>
      </trkpt>
      <trkpt lat="45.91562" lon="1.25603">
        <ele>360.3</ele>
        <time>2025-06-16T15:40:00Z</time>
      </trkpt>
      <trkpt lat="45.91559" lon="1.25605">
        <ele>360.4</ele>
        <time>2025-06-16T15:40:01Z</time>
      </trkpt>
      <trkpt lat="45.91558" lon="1.25606">
        <ele>360.4</ele>
        <time>2025-06-16T15:40:02Z</time>
      </trkpt>
      <trkpt lat="45.91556" lon="1.25609">
        <ele>360.6</ele>
        <time>2025-06-16T15:40:03Z</time>
      </trkpt>
      <trkpt lat="45.91555" lon="1.2561">
        <ele>360.6</ele>
        <time>2025-06-16T15:40:04Z</time>
      </trkpt>
      <trkpt lat="45.91551" lon="1.25614">
        <ele>360.7</ele>
        <time>2025-06-16T15:40:05Z</time>
      </trkpt>
      <trkpt lat="45.9155" lon="1.25615">
        <ele>360.8</ele>
        <time>2025-06-16T15:40:06Z</time>
      </trkpt>
      <trkpt lat="45.91548" lon="1.25618">
        <ele>360.8</ele>
        <time>2025-06-16T15:40:07Z</time>
      </trkpt>
      <trkpt lat="45.91546" lon="1.2562">
        <ele>360.9</ele>
        <time>2025-06-16T15:40:08Z</time>
      </trkpt>
      <trkpt lat="45.91544" lon="1.25623">
        <ele>360.9</ele>
        <time>2025-06-16T15:40:09Z</time>
      </trkpt>
      <trkpt lat="45.91542" lon="1.25625">
        <ele>360.9</ele>
        <time>2025-06-16T15:40:10Z</time>
      </trkpt>
      <trkpt lat="45.91539" lon="1.25627">
        <ele>361</ele>
        <time>2025-06-16T15:40:11Z</time>
      </trkpt>
      <trkpt lat="45.91537" lon="1.2563">
        <ele>360.9</ele>
        <time>2025-06-16T15:40:12Z</time>
      </trkpt>
      <trkpt lat="45.91534" lon="1.25632">
        <ele>360.9</ele>
        <time>2025-06-16T15:40:13Z</time>
      </trkpt>
      <trkpt lat="45.91531" lon="1.25634">
        <ele>360.9</ele>
        <time>2025-06-16T15:40:14Z</time>
      </trkpt>
      <trkpt lat="45.91528" lon="1.25636">
        <ele>360.8</ele>
        <time>2025-06-16T15:40:15Z</time>
      </trkpt>
      <trkpt lat="45.91521" lon="1.2564">
        <ele>360.6</ele>
        <time>2025-06-16T15:40:16Z</time>
      </trkpt>
      <trkpt lat="45.91518" lon="1.25642">
        <ele>360.5</ele>
        <time>2025-06-16T15:40:18Z</time>
      </trkpt>
      <trkpt lat="45.91515" lon="1.25644">
        <ele>360.4</ele>
        <time>2025-06-16T15:40:19Z</time>
      </trkpt>
      <trkpt lat="45.91511" lon="1.25645">
        <ele>360.3</ele>
        <time>2025-06-16T15:40:20Z</time>
      </trkpt>
      <trkpt lat="45.91507" lon="1.25647">
        <ele>360.1</ele>
        <time>2025-06-16T15:40:21Z</time>
      </trkpt>
      <trkpt lat="45.91503" lon="1.25649">
        <ele>360</ele>
        <time>2025-06-16T15:40:22Z</time>
      </trkpt>
      <trkpt lat="45.91499" lon="1.2565">
        <ele>359.9</ele>
        <time>2025-06-16T15:40:23Z</time>
      </trkpt>
      <trkpt lat="45.91494" lon="1.25651">
        <ele>359.7</ele>
        <time>2025-06-16T15:40:24Z</time>
      </trkpt>
      <trkpt lat="45.91489" lon="1.25653">
        <ele>359.6</ele>
        <time>2025-06-16T15:40:25Z</time>
      </trkpt>
      <trkpt lat="45.91485" lon="1.25654">
        <ele>359.4</ele>
        <time>2025-06-16T15:40:26Z</time>
      </trkpt>
      <trkpt lat="45.9148" lon="1.25656">
        <ele>359.3</ele>
        <time>2025-06-16T15:40:27Z</time>
      </trkpt>
      <trkpt lat="45.91475" lon="1.25658">
        <ele>359.1</ele>
        <time>2025-06-16T15:40:28Z</time>
      </trkpt>
      <trkpt lat="45.9147" lon="1.2566">
        <ele>359</ele>
        <time>2025-06-16T15:40:29Z</time>
      </trkpt>
      <trkpt lat="45.91464" lon="1.25664">
        <ele>358.9</ele>
        <time>2025-06-16T15:40:30Z</time>
      </trkpt>
      <trkpt lat="45.91459" lon="1.25668">
        <ele>358.8</ele>
        <time>2025-06-16T15:40:31Z</time>
      </trkpt>
      <trkpt lat="45.91455" lon="1.25673">
        <ele>358.7</ele>
        <time>2025-06-16T15:40:32Z</time>
      </trkpt>
      <trkpt lat="45.91451" lon="1.25678">
        <ele>358.7</ele>
        <time>2025-06-16T15:40:33Z</time>
      </trkpt>
      <trkpt lat="45.91447" lon="1.25684">
        <ele>358.7</ele>
        <time>2025-06-16T15:40:34Z</time>
      </trkpt>
      <trkpt lat="45.91443" lon="1.2569">
        <ele>358.7</ele>
        <time>2025-06-16T15:40:35Z</time>
      </trkpt>
      <trkpt lat="45.9144" lon="1.25695">
        <ele>358.7</ele>
        <time>2025-06-16T15:40:36Z</time>
      </trkpt>
      <trkpt lat="45.91437" lon="1.25701">
        <ele>358.7</ele>
        <time>2025-06-16T15:40:37Z</time>
      </trkpt>
      <trkpt lat="45.91434" lon="1.25707">
        <ele>358.7</ele>
        <time>2025-06-16T15:40:38Z</time>
      </trkpt>
      <trkpt lat="45.91431" lon="1.25712">
        <ele>358.8</ele>
        <time>2025-06-16T15:40:39Z</time>
      </trkpt>
      <trkpt lat="45.91428" lon="1.25717">
        <ele>358.8</ele>
        <time>2025-06-16T15:40:40Z</time>
      </trkpt>
      <trkpt lat="45.91425" lon="1.25721">
        <ele>358.8</ele>
        <time>2025-06-16T15:40:41Z</time>
      </trkpt>
      <trkpt lat="45.91422" lon="1.25726">
        <ele>358.8</ele>
        <time>2025-06-16T15:40:42Z</time>
      </trkpt>
      <trkpt lat="45.91419" lon="1.25731">
        <ele>358.9</ele>
        <time>2025-06-16T15:40:43Z</time>
      </trkpt>
      <trkpt lat="45.91416" lon="1.25735">
        <ele>358.9</ele>
        <time>2025-06-16T15:40:44Z</time>
      </trkpt>
      <trkpt lat="45.91413" lon="1.2574">
        <ele>358.8</ele>
        <time>2025-06-16T15:40:45Z</time>
      </trkpt>
      <trkpt lat="45.9141" lon="1.25743">
        <ele>358.8</ele>
        <time>2025-06-16T15:40:46Z</time>
      </trkpt>
      <trkpt lat="45.91407" lon="1.25747">
        <ele>358.8</ele>
        <time>2025-06-16T15:40:47Z</time>
      </trkpt>
      <trkpt lat="45.91403" lon="1.25749">
        <ele>358.7</ele>
        <time>2025-06-16T15:40:48Z</time>
      </trkpt>
      <trkpt lat="45.914" lon="1.25752">
        <ele>358.7</ele>
        <time>2025-06-16T15:40:49Z</time>
      </trkpt>
      <trkpt lat="45.91397" lon="1.25754">
        <ele>358.6</ele>
        <time>2025-06-16T15:40:50Z</time>
      </trkpt>
      <trkpt lat="45.91393" lon="1.25757">
        <ele>358.6</ele>
        <time>2025-06-16T15:40:51Z</time>
      </trkpt>
      <trkpt lat="45.9139" lon="1.25759">
        <ele>358.5</ele>
        <time>2025-06-16T15:40:52Z</time>
      </trkpt>
      <trkpt lat="45.91386" lon="1.25762">
        <ele>358.4</ele>
        <time>2025-06-16T15:40:53Z</time>
      </trkpt>
      <trkpt lat="45.91383" lon="1.25764">
        <ele>358.4</ele>
        <time>2025-06-16T15:40:54Z</time>
      </trkpt>
      <trkpt lat="45.91379" lon="1.25766">
        <ele>358.3</ele>
        <time>2025-06-16T15:40:55Z</time>
      </trkpt>
      <trkpt lat="45.91372" lon="1.2577">
        <ele>358.2</ele>
        <time>2025-06-16T15:40:56Z</time>
      </trkpt>
      <trkpt lat="45.91368" lon="1.25771">
        <ele>358.2</ele>
        <time>2025-06-16T15:40:58Z</time>
      </trkpt>
      <trkpt lat="45.91364" lon="1.25772">
        <ele>358.2</ele>
        <time>2025-06-16T15:40:59Z</time>
      </trkpt>
      <trkpt lat="45.9136" lon="1.25773">
        <ele>358.2</ele>
        <time>2025-06-16T15:41:00Z</time>
      </trkpt>
      <trkpt lat="45.91357" lon="1.25773">
        <ele>358.2</ele>
        <time>2025-06-16T15:41:01Z</time>
      </trkpt>
      <trkpt lat="45.91353" lon="1.25773">
        <ele>358.2</ele>
        <time>2025-06-16T15:41:02Z</time>
      </trkpt>
      <trkpt lat="45.91349" lon="1.25773">
        <ele>358.3</ele>
        <time>2025-06-16T15:41:03Z</time>
      </trkpt>
      <trkpt lat="45.91346" lon="1.25773">
        <ele>358.3</ele>
        <time>2025-06-16T15:41:04Z</time>
      </trkpt>
      <trkpt lat="45.91342" lon="1.25773">
        <ele>358.4</ele>
        <time>2025-06-16T15:41:05Z</time>
      </trkpt>
      <trkpt lat="45.91339" lon="1.25772">
        <ele>358.5</ele>
        <time>2025-06-16T15:41:06Z</time>
      </trkpt>
      <trkpt lat="45.91333" lon="1.25771">
        <ele>358.7</ele>
        <time>2025-06-16T15:41:07Z</time>
      </trkpt>
      <trkpt lat="45.9133" lon="1.2577">
        <ele>358.8</ele>
        <time>2025-06-16T15:41:09Z</time>
      </trkpt>
      <trkpt lat="45.91327" lon="1.25769">
        <ele>358.9</ele>
        <time>2025-06-16T15:41:10Z</time>
      </trkpt>
      <trkpt lat="45.91321" lon="1.25766">
        <ele>359.1</ele>
        <time>2025-06-16T15:41:11Z</time>
      </trkpt>
      <trkpt lat="45.91318" lon="1.25765">
        <ele>359.3</ele>
        <time>2025-06-16T15:41:13Z</time>
      </trkpt>
      <trkpt lat="45.91315" lon="1.25764">
        <ele>359.4</ele>
        <time>2025-06-16T15:41:14Z</time>
      </trkpt>
      <trkpt lat="45.91312" lon="1.25763">
        <ele>359.5</ele>
        <time>2025-06-16T15:41:15Z</time>
      </trkpt>
      <trkpt lat="45.91309" lon="1.25761">
        <ele>359.6</ele>
        <time>2025-06-16T15:41:16Z</time>
      </trkpt>
      <trkpt lat="45.91306" lon="1.2576">
        <ele>359.7</ele>
        <time>2025-06-16T15:41:17Z</time>
      </trkpt>
      <trkpt lat="45.913" lon="1.25758">
        <ele>359.9</ele>
        <time>2025-06-16T15:41:18Z</time>
      </trkpt>
      <trkpt lat="45.91298" lon="1.25757">
        <ele>359.9</ele>
        <time>2025-06-16T15:41:20Z</time>
      </trkpt>
      <trkpt lat="45.91295" lon="1.25756">
        <ele>360</ele>
        <time>2025-06-16T15:41:21Z</time>
      </trkpt>
      <trkpt lat="45.91292" lon="1.25755">
        <ele>360.1</ele>
        <time>2025-06-16T15:41:22Z</time>
      </trkpt>
      <trkpt lat="45.91289" lon="1.25754">
        <ele>360.2</ele>
        <time>2025-06-16T15:41:23Z</time>
      </trkpt>
      <trkpt lat="45.91286" lon="1.25754">
        <ele>360.2</ele>
        <time>2025-06-16T15:41:24Z</time>
      </trkpt>
      <trkpt lat="45.91283" lon="1.25753">
        <ele>360.3</ele>
        <time>2025-06-16T15:41:25Z</time>
      </trkpt>
      <trkpt lat="45.9128" lon="1.25753">
        <ele>360.3</ele>
        <time>2025-06-16T15:41:26Z</time>
      </trkpt>
      <trkpt lat="45.91276" lon="1.25752">
        <ele>360.3</ele>
        <time>2025-06-16T15:41:27Z</time>
      </trkpt>
      <trkpt lat="45.91273" lon="1.25751">
        <ele>360.3</ele>
        <time>2025-06-16T15:41:28Z</time>
      </trkpt>
      <trkpt lat="45.91269" lon="1.2575">
        <ele>360.2</ele>
        <time>2025-06-16T15:41:29Z</time>
      </trkpt>
      <trkpt lat="45.91264" lon="1.25749">
        <ele>360.2</ele>
        <time>2025-06-16T15:41:30Z</time>
      </trkpt>
      <trkpt lat="45.9126" lon="1.25748">
        <ele>360</ele>
        <time>2025-06-16T15:41:31Z</time>
      </trkpt>
      <trkpt lat="45.91255" lon="1.25747">
        <ele>359.9</ele>
        <time>2025-06-16T15:41:32Z</time>
      </trkpt>
      <trkpt lat="45.91249" lon="1.25747">
        <ele>359.7</ele>
        <time>2025-06-16T15:41:33Z</time>
      </trkpt>
      <trkpt lat="45.91244" lon="1.25747">
        <ele>359.5</ele>
        <time>2025-06-16T15:41:34Z</time>
      </trkpt>
      <trkpt lat="45.91238" lon="1.25747">
        <ele>359.4</ele>
        <time>2025-06-16T15:41:35Z</time>
      </trkpt>
      <trkpt lat="45.91233" lon="1.25748">
        <ele>359.3</ele>
        <time>2025-06-16T15:41:36Z</time>
      </trkpt>
      <trkpt lat="45.91227" lon="1.25748">
        <ele>359.3</ele>
        <time>2025-06-16T15:41:37Z</time>
      </trkpt>
      <trkpt lat="45.91216" lon="1.2575">
        <ele>359.3</ele>
        <time>2025-06-16T15:41:38Z</time>
      </trkpt>
      <trkpt lat="45.91211" lon="1.2575">
        <ele>359.4</ele>
        <time>2025-06-16T15:41:40Z</time>
      </trkpt>
      <trkpt lat="45.91206" lon="1.2575">
        <ele>359.5</ele>
        <time>2025-06-16T15:41:41Z</time>
      </trkpt>
      <trkpt lat="45.91201" lon="1.25751">
        <ele>359.6</ele>
        <time>2025-06-16T15:41:42Z</time>
      </trkpt>
      <trkpt lat="45.91196" lon="1.25751">
        <ele>359.8</ele>
        <time>2025-06-16T15:41:43Z</time>
      </trkpt>
      <trkpt lat="45.91191" lon="1.25751">
        <ele>360</ele>
        <time>2025-06-16T15:41:44Z</time>
      </trkpt>
      <trkpt lat="45.91187" lon="1.25753">
        <ele>360.2</ele>
        <time>2025-06-16T15:41:45Z</time>
      </trkpt>
      <trkpt lat="45.91182" lon="1.25755">
        <ele>360.4</ele>
        <time>2025-06-16T15:41:46Z</time>
      </trkpt>
      <trkpt lat="45.91178" lon="1.25755">
        <ele>360.6</ele>
        <time>2025-06-16T15:41:47Z</time>
      </trkpt>
      <trkpt lat="45.91175" lon="1.25757">
        <ele>360.7</ele>
        <time>2025-06-16T15:41:48Z</time>
      </trkpt>
      <trkpt lat="45.91168" lon="1.25758">
        <ele>361</ele>
        <time>2025-06-16T15:41:49Z</time>
      </trkpt>
      <trkpt lat="45.91164" lon="1.25759">
        <ele>361.2</ele>
        <time>2025-06-16T15:41:51Z</time>
      </trkpt>
      <trkpt lat="45.91161" lon="1.25759">
        <ele>361.4</ele>
        <time>2025-06-16T15:41:52Z</time>
      </trkpt>
      <trkpt lat="45.91157" lon="1.2576">
        <ele>361.6</ele>
        <time>2025-06-16T15:41:53Z</time>
      </trkpt>
      <trkpt lat="45.91153" lon="1.25761">
        <ele>361.8</ele>
        <time>2025-06-16T15:41:54Z</time>
      </trkpt>
      <trkpt lat="45.9115" lon="1.25761">
        <ele>362</ele>
        <time>2025-06-16T15:41:55Z</time>
      </trkpt>
      <trkpt lat="45.91146" lon="1.25761">
        <ele>362.3</ele>
        <time>2025-06-16T15:41:56Z</time>
      </trkpt>
      <trkpt lat="45.91142" lon="1.25762">
        <ele>362.5</ele>
        <time>2025-06-16T15:41:57Z</time>
      </trkpt>
      <trkpt lat="45.91138" lon="1.25762">
        <ele>362.7</ele>
        <time>2025-06-16T15:41:58Z</time>
      </trkpt>
      <trkpt lat="45.91134" lon="1.25762">
        <ele>362.8</ele>
        <time>2025-06-16T15:41:59Z</time>
      </trkpt>
      <trkpt lat="45.9113" lon="1.25762">
        <ele>363</ele>
        <time>2025-06-16T15:42:00Z</time>
      </trkpt>
      <trkpt lat="45.91126" lon="1.25762">
        <ele>363.2</ele>
        <time>2025-06-16T15:42:01Z</time>
      </trkpt>
      <trkpt lat="45.91123" lon="1.25762">
        <ele>363.3</ele>
        <time>2025-06-16T15:42:02Z</time>
      </trkpt>
      <trkpt lat="45.91119" lon="1.25762">
        <ele>363.5</ele>
        <time>2025-06-16T15:42:03Z</time>
      </trkpt>
      <trkpt lat="45.91115" lon="1.25763">
        <ele>363.6</ele>
        <time>2025-06-16T15:42:04Z</time>
      </trkpt>
      <trkpt lat="45.91111" lon="1.25763">
        <ele>363.7</ele>
        <time>2025-06-16T15:42:05Z</time>
      </trkpt>
      <trkpt lat="45.91107" lon="1.25763">
        <ele>363.8</ele>
        <time>2025-06-16T15:42:06Z</time>
      </trkpt>
      <trkpt lat="45.91104" lon="1.25764">
        <ele>363.9</ele>
        <time>2025-06-16T15:42:07Z</time>
      </trkpt>
      <trkpt lat="45.911" lon="1.25764">
        <ele>363.9</ele>
        <time>2025-06-16T15:42:08Z</time>
      </trkpt>
      <trkpt lat="45.91096" lon="1.25764">
        <ele>364</ele>
        <time>2025-06-16T15:42:09Z</time>
      </trkpt>
      <trkpt lat="45.91092" lon="1.25764">
        <ele>364.1</ele>
        <time>2025-06-16T15:42:10Z</time>
      </trkpt>
      <trkpt lat="45.91089" lon="1.25764">
        <ele>364.1</ele>
        <time>2025-06-16T15:42:11Z</time>
      </trkpt>
      <trkpt lat="45.91085" lon="1.25764">
        <ele>364.2</ele>
        <time>2025-06-16T15:42:12Z</time>
      </trkpt>
      <trkpt lat="45.91081" lon="1.25764">
        <ele>364.2</ele>
        <time>2025-06-16T15:42:13Z</time>
      </trkpt>
      <trkpt lat="45.91077" lon="1.25764">
        <ele>364.3</ele>
        <time>2025-06-16T15:42:14Z</time>
      </trkpt>
      <trkpt lat="45.91073" lon="1.25765">
        <ele>364.3</ele>
        <time>2025-06-16T15:42:15Z</time>
      </trkpt>
      <trkpt lat="45.91069" lon="1.25765">
        <ele>364.4</ele>
        <time>2025-06-16T15:42:16Z</time>
      </trkpt>
      <trkpt lat="45.91065" lon="1.25765">
        <ele>364.4</ele>
        <time>2025-06-16T15:42:17Z</time>
      </trkpt>
      <trkpt lat="45.91062" lon="1.25765">
        <ele>364.4</ele>
        <time>2025-06-16T15:42:18Z</time>
      </trkpt>
      <trkpt lat="45.91059" lon="1.25766">
        <ele>364.4</ele>
        <time>2025-06-16T15:42:19Z</time>
      </trkpt>
      <trkpt lat="45.91055" lon="1.25766">
        <ele>364.4</ele>
        <time>2025-06-16T15:42:20Z</time>
      </trkpt>
      <trkpt lat="45.91052" lon="1.25766">
        <ele>364.4</ele>
        <time>2025-06-16T15:42:21Z</time>
      </trkpt>
      <trkpt lat="45.91049" lon="1.25766">
        <ele>364.4</ele>
        <time>2025-06-16T15:42:22Z</time>
      </trkpt>
      <trkpt lat="45.91044" lon="1.25767">
        <ele>364.4</ele>
        <time>2025-06-16T15:42:23Z</time>
      </trkpt>
      <trkpt lat="45.91041" lon="1.25767">
        <ele>364.4</ele>
        <time>2025-06-16T15:42:25Z</time>
      </trkpt>
      <trkpt lat="45.91035" lon="1.25767">
        <ele>364.4</ele>
        <time>2025-06-16T15:42:26Z</time>
      </trkpt>
      <trkpt lat="45.91032" lon="1.25767">
        <ele>364.4</ele>
        <time>2025-06-16T15:42:28Z</time>
      </trkpt>
      <trkpt lat="45.91028" lon="1.25767">
        <ele>364.4</ele>
        <time>2025-06-16T15:42:29Z</time>
      </trkpt>
      <trkpt lat="45.91025" lon="1.25768">
        <ele>364.4</ele>
        <time>2025-06-16T15:42:30Z</time>
      </trkpt>
      <trkpt lat="45.91021" lon="1.25768">
        <ele>364.4</ele>
        <time>2025-06-16T15:42:31Z</time>
      </trkpt>
      <trkpt lat="45.91018" lon="1.25767">
        <ele>364.4</ele>
        <time>2025-06-16T15:42:32Z</time>
      </trkpt>
      <trkpt lat="45.91014" lon="1.25768">
        <ele>364.4</ele>
        <time>2025-06-16T15:42:33Z</time>
      </trkpt>
      <trkpt lat="45.91011" lon="1.25768">
        <ele>364.4</ele>
        <time>2025-06-16T15:42:34Z</time>
      </trkpt>
      <trkpt lat="45.91008" lon="1.25768">
        <ele>364.4</ele>
        <time>2025-06-16T15:42:35Z</time>
      </trkpt>
      <trkpt lat="45.91005" lon="1.25768">
        <ele>364.5</ele>
        <time>2025-06-16T15:42:36Z</time>
      </trkpt>
      <trkpt lat="45.91002" lon="1.25768">
        <ele>364.5</ele>
        <time>2025-06-16T15:42:37Z</time>
      </trkpt>
      <trkpt lat="45.91001" lon="1.25768">
        <ele>364.5</ele>
        <time>2025-06-16T15:42:38Z</time>
      </trkpt>
      <trkpt lat="45.90996" lon="1.25767">
        <ele>364.5</ele>
        <time>2025-06-16T15:42:39Z</time>
      </trkpt>
      <trkpt lat="45.90992" lon="1.25767">
        <ele>364.5</ele>
        <time>2025-06-16T15:42:41Z</time>
      </trkpt>
      <trkpt lat="45.90991" lon="1.25767">
        <ele>364.5</ele>
        <time>2025-06-16T15:42:42Z</time>
      </trkpt>
      <trkpt lat="45.90988" lon="1.25767">
        <ele>364.5</ele>
        <time>2025-06-16T15:42:43Z</time>
      </trkpt>
      <trkpt lat="45.90985" lon="1.25766">
        <ele>364.5</ele>
        <time>2025-06-16T15:42:44Z</time>
      </trkpt>
      <trkpt lat="45.90982" lon="1.25765">
        <ele>364.5</ele>
        <time>2025-06-16T15:42:45Z</time>
      </trkpt>
      <trkpt lat="45.90979" lon="1.25764">
        <ele>364.5</ele>
        <time>2025-06-16T15:42:46Z</time>
      </trkpt>
      <trkpt lat="45.90975" lon="1.25763">
        <ele>364.5</ele>
        <time>2025-06-16T15:42:47Z</time>
      </trkpt>
      <trkpt lat="45.90974" lon="1.25762">
        <ele>364.5</ele>
        <time>2025-06-16T15:42:48Z</time>
      </trkpt>
      <trkpt lat="45.9097" lon="1.25761">
        <ele>364.5</ele>
        <time>2025-06-16T15:42:49Z</time>
      </trkpt>
      <trkpt lat="45.90969" lon="1.25761">
        <ele>364.5</ele>
        <time>2025-06-16T15:42:50Z</time>
      </trkpt>
      <trkpt lat="45.90965" lon="1.2576">
        <ele>364.5</ele>
        <time>2025-06-16T15:42:51Z</time>
      </trkpt>
      <trkpt lat="45.90964" lon="1.25759">
        <ele>364.5</ele>
        <time>2025-06-16T15:42:52Z</time>
      </trkpt>
      <trkpt lat="45.90961" lon="1.25758">
        <ele>364.5</ele>
        <time>2025-06-16T15:42:53Z</time>
      </trkpt>
      <trkpt lat="45.90959" lon="1.25758">
        <ele>364.5</ele>
        <time>2025-06-16T15:42:54Z</time>
      </trkpt>
      <trkpt lat="45.90956" lon="1.25757">
        <ele>364.5</ele>
        <time>2025-06-16T15:42:55Z</time>
      </trkpt>
      <trkpt lat="45.90955" lon="1.25757">
        <ele>364.5</ele>
        <time>2025-06-16T15:42:56Z</time>
      </trkpt>
      <trkpt lat="45.90952" lon="1.25757">
        <ele>364.5</ele>
        <time>2025-06-16T15:42:57Z</time>
      </trkpt>
      <trkpt lat="45.90951" lon="1.25757">
        <ele>364.5</ele>
        <time>2025-06-16T15:42:58Z</time>
      </trkpt>
      <trkpt lat="45.90948" lon="1.25757">
        <ele>364.6</ele>
        <time>2025-06-16T15:42:59Z</time>
      </trkpt>
      <trkpt lat="45.90947" lon="1.25756">
        <ele>364.6</ele>
        <time>2025-06-16T15:43:00Z</time>
      </trkpt>
      <trkpt lat="45.90946" lon="1.25755">
        <ele>364.6</ele>
        <time>2025-06-16T15:43:01Z</time>
      </trkpt>
      <trkpt lat="45.90945" lon="1.25754">
        <ele>364.6</ele>
        <time>2025-06-16T15:43:02Z</time>
      </trkpt>
      <trkpt lat="45.90944" lon="1.25753">
        <ele>364.6</ele>
        <time>2025-06-16T15:43:03Z</time>
      </trkpt>
      <trkpt lat="45.90944" lon="1.25753">
        <ele>364.6</ele>
        <time>2025-06-16T15:43:04Z</time>
      </trkpt>
      <trkpt lat="45.90944" lon="1.25753">
        <ele>364.6</ele>
        <time>2025-06-16T15:43:05Z</time>
      </trkpt>
      <trkpt lat="45.90944" lon="1.25754">
        <ele>364.6</ele>
        <time>2025-06-16T15:43:06Z</time>
      </trkpt>
      <trkpt lat="45.90944" lon="1.25753">
        <ele>364.6</ele>
        <time>2025-06-16T15:43:07Z</time>
      </trkpt>
      <trkpt lat="45.90943" lon="1.25753">
        <ele>364.6</ele>
        <time>2025-06-16T15:43:08Z</time>
      </trkpt>
      <trkpt lat="45.90942" lon="1.25753">
        <ele>364.7</ele>
        <time>2025-06-16T15:43:09Z</time>
      </trkpt>
      <trkpt lat="45.9094" lon="1.25754">
        <ele>364.7</ele>
        <time>2025-06-16T15:43:10Z</time>
      </trkpt>
      <trkpt lat="45.90939" lon="1.25754">
        <ele>364.7</ele>
        <time>2025-06-16T15:43:11Z</time>
      </trkpt>
      <trkpt lat="45.90938" lon="1.25755">
        <ele>364.7</ele>
        <time>2025-06-16T15:43:12Z</time>
      </trkpt>
      <trkpt lat="45.90935" lon="1.25754">
        <ele>364.8</ele>
        <time>2025-06-16T15:43:13Z</time>
      </trkpt>
      <trkpt lat="45.90934" lon="1.25754">
        <ele>364.8</ele>
        <time>2025-06-16T15:43:14Z</time>
      </trkpt>
      <trkpt lat="45.90932" lon="1.25756">
        <ele>364.8</ele>
        <time>2025-06-16T15:43:15Z</time>
      </trkpt>
      <trkpt lat="45.90929" lon="1.25759">
        <ele>364.8</ele>
        <time>2025-06-16T15:43:16Z</time>
      </trkpt>
      <trkpt lat="45.90927" lon="1.25762">
        <ele>364.7</ele>
        <time>2025-06-16T15:43:17Z</time>
      </trkpt>
      <trkpt lat="45.90924" lon="1.25766">
        <ele>364.6</ele>
        <time>2025-06-16T15:43:18Z</time>
      </trkpt>
      <trkpt lat="45.90922" lon="1.25771">
        <ele>364.5</ele>
        <time>2025-06-16T15:43:19Z</time>
      </trkpt>
      <trkpt lat="45.90919" lon="1.25775">
        <ele>364.4</ele>
        <time>2025-06-16T15:43:20Z</time>
      </trkpt>
      <trkpt lat="45.90917" lon="1.25781">
        <ele>364.3</ele>
        <time>2025-06-16T15:43:21Z</time>
      </trkpt>
      <trkpt lat="45.90914" lon="1.25786">
        <ele>364.2</ele>
        <time>2025-06-16T15:43:22Z</time>
      </trkpt>
      <trkpt lat="45.90911" lon="1.25791">
        <ele>364.1</ele>
        <time>2025-06-16T15:43:23Z</time>
      </trkpt>
      <trkpt lat="45.90909" lon="1.25796">
        <ele>364</ele>
        <time>2025-06-16T15:43:24Z</time>
      </trkpt>
      <trkpt lat="45.90905" lon="1.25801">
        <ele>363.9</ele>
        <time>2025-06-16T15:43:25Z</time>
      </trkpt>
      <trkpt lat="45.90902" lon="1.25804">
        <ele>363.8</ele>
        <time>2025-06-16T15:43:26Z</time>
      </trkpt>
      <trkpt lat="45.90898" lon="1.25807">
        <ele>363.7</ele>
        <time>2025-06-16T15:43:27Z</time>
      </trkpt>
      <trkpt lat="45.90894" lon="1.25808">
        <ele>363.8</ele>
        <time>2025-06-16T15:43:28Z</time>
      </trkpt>
      <trkpt lat="45.9089" lon="1.25808">
        <ele>363.9</ele>
        <time>2025-06-16T15:43:29Z</time>
      </trkpt>
      <trkpt lat="45.90886" lon="1.25809">
        <ele>364</ele>
        <time>2025-06-16T15:43:30Z</time>
      </trkpt>
      <trkpt lat="45.90882" lon="1.25811">
        <ele>363.9</ele>
        <time>2025-06-16T15:43:31Z</time>
      </trkpt>
      <trkpt lat="45.90874" lon="1.25816">
        <ele>363.8</ele>
        <time>2025-06-16T15:43:32Z</time>
      </trkpt>
      <trkpt lat="45.9087" lon="1.25818">
        <ele>363.8</ele>
        <time>2025-06-16T15:43:34Z</time>
      </trkpt>
      <trkpt lat="45.90867" lon="1.25818">
        <ele>363.8</ele>
        <time>2025-06-16T15:43:35Z</time>
      </trkpt>
      <trkpt lat="45.90863" lon="1.25817">
        <ele>363.8</ele>
        <time>2025-06-16T15:43:36Z</time>
      </trkpt>
      <trkpt lat="45.9086" lon="1.25817">
        <ele>363.9</ele>
        <time>2025-06-16T15:43:37Z</time>
      </trkpt>
      <trkpt lat="45.90857" lon="1.25816">
        <ele>363.9</ele>
        <time>2025-06-16T15:43:38Z</time>
      </trkpt>
      <trkpt lat="45.90854" lon="1.25814">
        <ele>364.1</ele>
        <time>2025-06-16T15:43:39Z</time>
      </trkpt>
      <trkpt lat="45.90853" lon="1.25811">
        <ele>364.1</ele>
        <time>2025-06-16T15:43:40Z</time>
      </trkpt>
      <trkpt lat="45.90852" lon="1.25807">
        <ele>364.3</ele>
        <time>2025-06-16T15:43:41Z</time>
      </trkpt>
      <trkpt lat="45.90852" lon="1.25802">
        <ele>364.7</ele>
        <time>2025-06-16T15:43:42Z</time>
      </trkpt>
      <trkpt lat="45.90852" lon="1.258">
        <ele>364.7</ele>
        <time>2025-06-16T15:43:43Z</time>
      </trkpt>
      <trkpt lat="45.90851" lon="1.25793">
        <ele>365.1</ele>
        <time>2025-06-16T15:43:44Z</time>
      </trkpt>
      <trkpt lat="45.90848" lon="1.25789">
        <ele>365.1</ele>
        <time>2025-06-16T15:43:46Z</time>
      </trkpt>
      <trkpt lat="45.90847" lon="1.25788">
        <ele>365.3</ele>
        <time>2025-06-16T15:43:47Z</time>
      </trkpt>
      <trkpt lat="45.90844" lon="1.25787">
        <ele>365.4</ele>
        <time>2025-06-16T15:43:48Z</time>
      </trkpt>
      <trkpt lat="45.90842" lon="1.25787">
        <ele>365.4</ele>
        <time>2025-06-16T15:43:49Z</time>
      </trkpt>
      <trkpt lat="45.90837" lon="1.25789">
        <ele>365.4</ele>
        <time>2025-06-16T15:43:50Z</time>
      </trkpt>
      <trkpt lat="45.90835" lon="1.2579">
        <ele>365.2</ele>
        <time>2025-06-16T15:43:51Z</time>
      </trkpt>
      <trkpt lat="45.90832" lon="1.25791">
        <ele>365.2</ele>
        <time>2025-06-16T15:43:53Z</time>
      </trkpt>
      <trkpt lat="45.90826" lon="1.2579">
        <ele>365.2</ele>
        <time>2025-06-16T15:43:54Z</time>
      </trkpt>
      <trkpt lat="45.90823" lon="1.25788">
        <ele>365.5</ele>
        <time>2025-06-16T15:43:56Z</time>
      </trkpt>
      <trkpt lat="45.90821" lon="1.25784">
        <ele>365.6</ele>
        <time>2025-06-16T15:43:57Z</time>
      </trkpt>
      <trkpt lat="45.90818" lon="1.2578">
        <ele>365.7</ele>
        <time>2025-06-16T15:43:58Z</time>
      </trkpt>
      <trkpt lat="45.90816" lon="1.25777">
        <ele>365.9</ele>
        <time>2025-06-16T15:43:59Z</time>
      </trkpt>
      <trkpt lat="45.90813" lon="1.25773">
        <ele>366</ele>
        <time>2025-06-16T15:44:00Z</time>
      </trkpt>
      <trkpt lat="45.90811" lon="1.2577">
        <ele>366.1</ele>
        <time>2025-06-16T15:44:01Z</time>
      </trkpt>
      <trkpt lat="45.90809" lon="1.25766">
        <ele>366.2</ele>
        <time>2025-06-16T15:44:02Z</time>
      </trkpt>
      <trkpt lat="45.90807" lon="1.25762">
        <ele>366.4</ele>
        <time>2025-06-16T15:44:03Z</time>
      </trkpt>
      <trkpt lat="45.90804" lon="1.25759">
        <ele>366.5</ele>
        <time>2025-06-16T15:44:04Z</time>
      </trkpt>
      <trkpt lat="45.90802" lon="1.25756">
        <ele>366.6</ele>
        <time>2025-06-16T15:44:05Z</time>
      </trkpt>
      <trkpt lat="45.908" lon="1.25752">
        <ele>366.7</ele>
        <time>2025-06-16T15:44:06Z</time>
      </trkpt>
      <trkpt lat="45.90798" lon="1.25748">
        <ele>366.8</ele>
        <time>2025-06-16T15:44:07Z</time>
      </trkpt>
      <trkpt lat="45.90793" lon="1.25742">
        <ele>367.1</ele>
        <time>2025-06-16T15:44:08Z</time>
      </trkpt>
      <trkpt lat="45.9079" lon="1.25737">
        <ele>367.3</ele>
        <time>2025-06-16T15:44:10Z</time>
      </trkpt>
      <trkpt lat="45.90789" lon="1.25735">
        <ele>367.3</ele>
        <time>2025-06-16T15:44:11Z</time>
      </trkpt>
      <trkpt lat="45.90788" lon="1.25734">
        <ele>367.4</ele>
        <time>2025-06-16T15:44:12Z</time>
      </trkpt>
      <trkpt lat="45.90786" lon="1.2573">
        <ele>367.5</ele>
        <time>2025-06-16T15:44:13Z</time>
      </trkpt>
      <trkpt lat="45.90784" lon="1.25727">
        <ele>367.6</ele>
        <time>2025-06-16T15:44:14Z</time>
      </trkpt>
      <trkpt lat="45.9078" lon="1.25719">
        <ele>367.8</ele>
        <time>2025-06-16T15:44:15Z</time>
      </trkpt>
      <trkpt lat="45.90777" lon="1.25716">
        <ele>367.9</ele>
        <time>2025-06-16T15:44:17Z</time>
      </trkpt>
      <trkpt lat="45.90775" lon="1.25713">
        <ele>368.1</ele>
        <time>2025-06-16T15:44:18Z</time>
      </trkpt>
      <trkpt lat="45.90772" lon="1.2571">
        <ele>368.2</ele>
        <time>2025-06-16T15:44:19Z</time>
      </trkpt>
      <trkpt lat="45.9077" lon="1.25708">
        <ele>368.3</ele>
        <time>2025-06-16T15:44:20Z</time>
      </trkpt>
      <trkpt lat="45.90767" lon="1.25705">
        <ele>368.4</ele>
        <time>2025-06-16T15:44:21Z</time>
      </trkpt>
      <trkpt lat="45.90765" lon="1.25703">
        <ele>368.5</ele>
        <time>2025-06-16T15:44:22Z</time>
      </trkpt>
      <trkpt lat="45.90762" lon="1.25701">
        <ele>368.6</ele>
        <time>2025-06-16T15:44:23Z</time>
      </trkpt>
      <trkpt lat="45.90759" lon="1.25699">
        <ele>368.7</ele>
        <time>2025-06-16T15:44:24Z</time>
      </trkpt>
      <trkpt lat="45.90756" lon="1.25697">
        <ele>368.8</ele>
        <time>2025-06-16T15:44:25Z</time>
      </trkpt>
      <trkpt lat="45.90753" lon="1.25695">
        <ele>368.9</ele>
        <time>2025-06-16T15:44:26Z</time>
      </trkpt>
      <trkpt lat="45.9075" lon="1.25693">
        <ele>369</ele>
        <time>2025-06-16T15:44:27Z</time>
      </trkpt>
      <trkpt lat="45.90748" lon="1.25691">
        <ele>369.1</ele>
        <time>2025-06-16T15:44:28Z</time>
      </trkpt>
      <trkpt lat="45.90745" lon="1.25689">
        <ele>369.2</ele>
        <time>2025-06-16T15:44:29Z</time>
      </trkpt>
      <trkpt lat="45.90742" lon="1.25687">
        <ele>369.3</ele>
        <time>2025-06-16T15:44:30Z</time>
      </trkpt>
      <trkpt lat="45.90739" lon="1.25685">
        <ele>369.4</ele>
        <time>2025-06-16T15:44:31Z</time>
      </trkpt>
      <trkpt lat="45.90736" lon="1.25683">
        <ele>369.5</ele>
        <time>2025-06-16T15:44:32Z</time>
      </trkpt>
      <trkpt lat="45.90733" lon="1.25681">
        <ele>369.6</ele>
        <time>2025-06-16T15:44:33Z</time>
      </trkpt>
      <trkpt lat="45.9073" lon="1.25679">
        <ele>369.7</ele>
        <time>2025-06-16T15:44:34Z</time>
      </trkpt>
      <trkpt lat="45.90727" lon="1.25677">
        <ele>369.8</ele>
        <time>2025-06-16T15:44:35Z</time>
      </trkpt>
      <trkpt lat="45.90724" lon="1.25674">
        <ele>369.9</ele>
        <time>2025-06-16T15:44:36Z</time>
      </trkpt>
      <trkpt lat="45.90721" lon="1.25672">
        <ele>370</ele>
        <time>2025-06-16T15:44:37Z</time>
      </trkpt>
      <trkpt lat="45.90717" lon="1.25671">
        <ele>370.1</ele>
        <time>2025-06-16T15:44:38Z</time>
      </trkpt>
      <trkpt lat="45.90714" lon="1.25669">
        <ele>370.2</ele>
        <time>2025-06-16T15:44:39Z</time>
      </trkpt>
      <trkpt lat="45.90711" lon="1.25667">
        <ele>370.2</ele>
        <time>2025-06-16T15:44:40Z</time>
      </trkpt>
      <trkpt lat="45.90708" lon="1.25665">
        <ele>370.3</ele>
        <time>2025-06-16T15:44:41Z</time>
      </trkpt>
      <trkpt lat="45.90705" lon="1.25662">
        <ele>370.4</ele>
        <time>2025-06-16T15:44:42Z</time>
      </trkpt>
      <trkpt lat="45.90702" lon="1.2566">
        <ele>370.5</ele>
        <time>2025-06-16T15:44:43Z</time>
      </trkpt>
      <trkpt lat="45.90698" lon="1.25657">
        <ele>370.6</ele>
        <time>2025-06-16T15:44:44Z</time>
      </trkpt>
      <trkpt lat="45.90695" lon="1.25655">
        <ele>370.7</ele>
        <time>2025-06-16T15:44:45Z</time>
      </trkpt>
      <trkpt lat="45.90692" lon="1.25653">
        <ele>370.8</ele>
        <time>2025-06-16T15:44:46Z</time>
      </trkpt>
      <trkpt lat="45.90689" lon="1.2565">
        <ele>370.9</ele>
        <time>2025-06-16T15:44:47Z</time>
      </trkpt>
      <trkpt lat="45.90686" lon="1.25648">
        <ele>370.9</ele>
        <time>2025-06-16T15:44:48Z</time>
      </trkpt>
      <trkpt lat="45.90683" lon="1.25646">
        <ele>371</ele>
        <time>2025-06-16T15:44:49Z</time>
      </trkpt>
      <trkpt lat="45.9068" lon="1.25644">
        <ele>371.1</ele>
        <time>2025-06-16T15:44:50Z</time>
      </trkpt>
      <trkpt lat="45.90677" lon="1.25643">
        <ele>371.2</ele>
        <time>2025-06-16T15:44:51Z</time>
      </trkpt>
      <trkpt lat="45.90673" lon="1.25641">
        <ele>371.3</ele>
        <time>2025-06-16T15:44:52Z</time>
      </trkpt>
      <trkpt lat="45.9067" lon="1.25639">
        <ele>371.3</ele>
        <time>2025-06-16T15:44:53Z</time>
      </trkpt>
      <trkpt lat="45.90667" lon="1.25637">
        <ele>371.4</ele>
        <time>2025-06-16T15:44:54Z</time>
      </trkpt>
      <trkpt lat="45.90664" lon="1.25634">
        <ele>371.5</ele>
        <time>2025-06-16T15:44:55Z</time>
      </trkpt>
      <trkpt lat="45.90661" lon="1.25631">
        <ele>371.6</ele>
        <time>2025-06-16T15:44:56Z</time>
      </trkpt>
      <trkpt lat="45.90658" lon="1.25629">
        <ele>371.6</ele>
        <time>2025-06-16T15:44:57Z</time>
      </trkpt>
      <trkpt lat="45.90655" lon="1.25626">
        <ele>371.7</ele>
        <time>2025-06-16T15:44:58Z</time>
      </trkpt>
      <trkpt lat="45.90652" lon="1.25623">
        <ele>371.8</ele>
        <time>2025-06-16T15:44:59Z</time>
      </trkpt>
      <trkpt lat="45.90649" lon="1.25619">
        <ele>371.9</ele>
        <time>2025-06-16T15:45:00Z</time>
      </trkpt>
      <trkpt lat="45.90647" lon="1.25616">
        <ele>371.9</ele>
        <time>2025-06-16T15:45:01Z</time>
      </trkpt>
      <trkpt lat="45.90644" lon="1.25613">
        <ele>372</ele>
        <time>2025-06-16T15:45:02Z</time>
      </trkpt>
      <trkpt lat="45.90642" lon="1.25609">
        <ele>372</ele>
        <time>2025-06-16T15:45:03Z</time>
      </trkpt>
      <trkpt lat="45.9064" lon="1.25605">
        <ele>372.1</ele>
        <time>2025-06-16T15:45:04Z</time>
      </trkpt>
      <trkpt lat="45.90638" lon="1.256">
        <ele>372.1</ele>
        <time>2025-06-16T15:45:05Z</time>
      </trkpt>
      <trkpt lat="45.90636" lon="1.25596">
        <ele>372.2</ele>
        <time>2025-06-16T15:45:06Z</time>
      </trkpt>
      <trkpt lat="45.90634" lon="1.25591">
        <ele>372.3</ele>
        <time>2025-06-16T15:45:07Z</time>
      </trkpt>
      <trkpt lat="45.90631" lon="1.25587">
        <ele>372.3</ele>
        <time>2025-06-16T15:45:08Z</time>
      </trkpt>
      <trkpt lat="45.90629" lon="1.25584">
        <ele>372.4</ele>
        <time>2025-06-16T15:45:09Z</time>
      </trkpt>
      <trkpt lat="45.90627" lon="1.2558">
        <ele>372.4</ele>
        <time>2025-06-16T15:45:10Z</time>
      </trkpt>
      <trkpt lat="45.90625" lon="1.25576">
        <ele>372.5</ele>
        <time>2025-06-16T15:45:11Z</time>
      </trkpt>
      <trkpt lat="45.90624" lon="1.25571">
        <ele>372.5</ele>
        <time>2025-06-16T15:45:12Z</time>
      </trkpt>
      <trkpt lat="45.90623" lon="1.25569">
        <ele>372.5</ele>
        <time>2025-06-16T15:45:13Z</time>
      </trkpt>
      <trkpt lat="45.90622" lon="1.25566">
        <ele>372.6</ele>
        <time>2025-06-16T15:45:14Z</time>
      </trkpt>
      <trkpt lat="45.90621" lon="1.25562">
        <ele>372.6</ele>
        <time>2025-06-16T15:45:15Z</time>
      </trkpt>
      <trkpt lat="45.9062" lon="1.25557">
        <ele>372.7</ele>
        <time>2025-06-16T15:45:16Z</time>
      </trkpt>
      <trkpt lat="45.90619" lon="1.25553">
        <ele>372.7</ele>
        <time>2025-06-16T15:45:17Z</time>
      </trkpt>
      <trkpt lat="45.90617" lon="1.25543">
        <ele>372.8</ele>
        <time>2025-06-16T15:45:18Z</time>
      </trkpt>
      <trkpt lat="45.90616" lon="1.25538">
        <ele>372.9</ele>
        <time>2025-06-16T15:45:19Z</time>
      </trkpt>
      <trkpt lat="45.90616" lon="1.25533">
        <ele>372.9</ele>
        <time>2025-06-16T15:45:21Z</time>
      </trkpt>
      <trkpt lat="45.90615" lon="1.25529">
        <ele>373</ele>
        <time>2025-06-16T15:45:22Z</time>
      </trkpt>
      <trkpt lat="45.90614" lon="1.25524">
        <ele>373.1</ele>
        <time>2025-06-16T15:45:23Z</time>
      </trkpt>
      <trkpt lat="45.90614" lon="1.25518">
        <ele>373.1</ele>
        <time>2025-06-16T15:45:24Z</time>
      </trkpt>
      <trkpt lat="45.90613" lon="1.25512">
        <ele>373.2</ele>
        <time>2025-06-16T15:45:25Z</time>
      </trkpt>
      <trkpt lat="45.90612" lon="1.25507">
        <ele>373.3</ele>
        <time>2025-06-16T15:45:26Z</time>
      </trkpt>
      <trkpt lat="45.90611" lon="1.25502">
        <ele>373.4</ele>
        <time>2025-06-16T15:45:27Z</time>
      </trkpt>
      <trkpt lat="45.9061" lon="1.25499">
        <ele>373.5</ele>
        <time>2025-06-16T15:45:28Z</time>
      </trkpt>
      <trkpt lat="45.90607" lon="1.25489">
        <ele>373.7</ele>
        <time>2025-06-16T15:45:29Z</time>
      </trkpt>
      <trkpt lat="45.90606" lon="1.25484">
        <ele>373.8</ele>
        <time>2025-06-16T15:45:31Z</time>
      </trkpt>
      <trkpt lat="45.90606" lon="1.2548">
        <ele>373.9</ele>
        <time>2025-06-16T15:45:32Z</time>
      </trkpt>
      <trkpt lat="45.90605" lon="1.25475">
        <ele>374</ele>
        <time>2025-06-16T15:45:33Z</time>
      </trkpt>
      <trkpt lat="45.90604" lon="1.2547">
        <ele>374.2</ele>
        <time>2025-06-16T15:45:34Z</time>
      </trkpt>
      <trkpt lat="45.90602" lon="1.25461">
        <ele>374.4</ele>
        <time>2025-06-16T15:45:35Z</time>
      </trkpt>
      <trkpt lat="45.90601" lon="1.25457">
        <ele>374.6</ele>
        <time>2025-06-16T15:45:37Z</time>
      </trkpt>
      <trkpt lat="45.906" lon="1.25453">
        <ele>374.7</ele>
        <time>2025-06-16T15:45:38Z</time>
      </trkpt>
      <trkpt lat="45.90599" lon="1.25449">
        <ele>374.8</ele>
        <time>2025-06-16T15:45:39Z</time>
      </trkpt>
      <trkpt lat="45.90598" lon="1.25445">
        <ele>375</ele>
        <time>2025-06-16T15:45:40Z</time>
      </trkpt>
      <trkpt lat="45.90597" lon="1.25441">
        <ele>375.1</ele>
        <time>2025-06-16T15:45:41Z</time>
      </trkpt>
      <trkpt lat="45.90595" lon="1.25437">
        <ele>375.2</ele>
        <time>2025-06-16T15:45:42Z</time>
      </trkpt>
      <trkpt lat="45.90594" lon="1.25433">
        <ele>375.3</ele>
        <time>2025-06-16T15:45:43Z</time>
      </trkpt>
      <trkpt lat="45.90593" lon="1.2543">
        <ele>375.5</ele>
        <time>2025-06-16T15:45:44Z</time>
      </trkpt>
      <trkpt lat="45.90592" lon="1.25426">
        <ele>375.6</ele>
        <time>2025-06-16T15:45:45Z</time>
      </trkpt>
      <trkpt lat="45.9059" lon="1.25422">
        <ele>375.7</ele>
        <time>2025-06-16T15:45:46Z</time>
      </trkpt>
      <trkpt lat="45.90588" lon="1.25418">
        <ele>375.8</ele>
        <time>2025-06-16T15:45:47Z</time>
      </trkpt>
      <trkpt lat="45.90587" lon="1.25415">
        <ele>376</ele>
        <time>2025-06-16T15:45:48Z</time>
      </trkpt>
      <trkpt lat="45.90585" lon="1.25411">
        <ele>376.1</ele>
        <time>2025-06-16T15:45:49Z</time>
      </trkpt>
      <trkpt lat="45.90583" lon="1.25408">
        <ele>376.2</ele>
        <time>2025-06-16T15:45:50Z</time>
      </trkpt>
      <trkpt lat="45.90581" lon="1.25404">
        <ele>376.3</ele>
        <time>2025-06-16T15:45:51Z</time>
      </trkpt>
      <trkpt lat="45.90579" lon="1.25401">
        <ele>376.4</ele>
        <time>2025-06-16T15:45:52Z</time>
      </trkpt>
      <trkpt lat="45.90576" lon="1.25398">
        <ele>376.6</ele>
        <time>2025-06-16T15:45:53Z</time>
      </trkpt>
      <trkpt lat="45.90574" lon="1.25395">
        <ele>376.7</ele>
        <time>2025-06-16T15:45:54Z</time>
      </trkpt>
      <trkpt lat="45.90572" lon="1.25392">
        <ele>376.8</ele>
        <time>2025-06-16T15:45:55Z</time>
      </trkpt>
      <trkpt lat="45.90567" lon="1.25386">
        <ele>377</ele>
        <time>2025-06-16T15:45:56Z</time>
      </trkpt>
      <trkpt lat="45.90565" lon="1.25383">
        <ele>377.1</ele>
        <time>2025-06-16T15:45:58Z</time>
      </trkpt>
      <trkpt lat="45.90563" lon="1.2538">
        <ele>377.1</ele>
        <time>2025-06-16T15:45:59Z</time>
      </trkpt>
      <trkpt lat="45.9056" lon="1.25377">
        <ele>377.3</ele>
        <time>2025-06-16T15:46:00Z</time>
      </trkpt>
      <trkpt lat="45.90557" lon="1.25374">
        <ele>377.4</ele>
        <time>2025-06-16T15:46:01Z</time>
      </trkpt>
      <trkpt lat="45.90554" lon="1.25371">
        <ele>377.5</ele>
        <time>2025-06-16T15:46:02Z</time>
      </trkpt>
      <trkpt lat="45.90551" lon="1.25367">
        <ele>377.6</ele>
        <time>2025-06-16T15:46:03Z</time>
      </trkpt>
      <trkpt lat="45.90549" lon="1.25363">
        <ele>377.7</ele>
        <time>2025-06-16T15:46:04Z</time>
      </trkpt>
      <trkpt lat="45.90546" lon="1.2536">
        <ele>377.8</ele>
        <time>2025-06-16T15:46:05Z</time>
      </trkpt>
      <trkpt lat="45.90543" lon="1.25357">
        <ele>377.9</ele>
        <time>2025-06-16T15:46:06Z</time>
      </trkpt>
      <trkpt lat="45.90541" lon="1.25354">
        <ele>378</ele>
        <time>2025-06-16T15:46:07Z</time>
      </trkpt>
      <trkpt lat="45.90538" lon="1.2535">
        <ele>378.1</ele>
        <time>2025-06-16T15:46:08Z</time>
      </trkpt>
      <trkpt lat="45.90536" lon="1.25347">
        <ele>378.1</ele>
        <time>2025-06-16T15:46:09Z</time>
      </trkpt>
      <trkpt lat="45.90533" lon="1.25344">
        <ele>378.2</ele>
        <time>2025-06-16T15:46:10Z</time>
      </trkpt>
      <trkpt lat="45.90531" lon="1.2534">
        <ele>378.3</ele>
        <time>2025-06-16T15:46:11Z</time>
      </trkpt>
      <trkpt lat="45.90528" lon="1.25337">
        <ele>378.4</ele>
        <time>2025-06-16T15:46:12Z</time>
      </trkpt>
      <trkpt lat="45.90525" lon="1.25333">
        <ele>378.5</ele>
        <time>2025-06-16T15:46:13Z</time>
      </trkpt>
      <trkpt lat="45.90523" lon="1.2533">
        <ele>378.6</ele>
        <time>2025-06-16T15:46:14Z</time>
      </trkpt>
      <trkpt lat="45.9052" lon="1.25327">
        <ele>378.7</ele>
        <time>2025-06-16T15:46:15Z</time>
      </trkpt>
      <trkpt lat="45.90518" lon="1.25324">
        <ele>378.8</ele>
        <time>2025-06-16T15:46:16Z</time>
      </trkpt>
      <trkpt lat="45.90515" lon="1.25321">
        <ele>378.9</ele>
        <time>2025-06-16T15:46:17Z</time>
      </trkpt>
      <trkpt lat="45.90513" lon="1.25318">
        <ele>379</ele>
        <time>2025-06-16T15:46:18Z</time>
      </trkpt>
      <trkpt lat="45.90512" lon="1.25315">
        <ele>379.1</ele>
        <time>2025-06-16T15:46:19Z</time>
      </trkpt>
      <trkpt lat="45.9051" lon="1.25312">
        <ele>379.2</ele>
        <time>2025-06-16T15:46:20Z</time>
      </trkpt>
      <trkpt lat="45.90506" lon="1.2531">
        <ele>379.3</ele>
        <time>2025-06-16T15:46:21Z</time>
      </trkpt>
      <trkpt lat="45.90505" lon="1.25309">
        <ele>379.4</ele>
        <time>2025-06-16T15:46:22Z</time>
      </trkpt>
      <trkpt lat="45.90502" lon="1.25308">
        <ele>379.4</ele>
        <time>2025-06-16T15:46:23Z</time>
      </trkpt>
      <trkpt lat="45.90499" lon="1.25306">
        <ele>379.5</ele>
        <time>2025-06-16T15:46:24Z</time>
      </trkpt>
      <trkpt lat="45.90497" lon="1.25304">
        <ele>379.6</ele>
        <time>2025-06-16T15:46:25Z</time>
      </trkpt>
      <trkpt lat="45.90494" lon="1.25302">
        <ele>379.7</ele>
        <time>2025-06-16T15:46:26Z</time>
      </trkpt>
      <trkpt lat="45.90492" lon="1.25299">
        <ele>379.8</ele>
        <time>2025-06-16T15:46:27Z</time>
      </trkpt>
      <trkpt lat="45.9049" lon="1.25296">
        <ele>379.9</ele>
        <time>2025-06-16T15:46:28Z</time>
      </trkpt>
      <trkpt lat="45.90487" lon="1.25294">
        <ele>380</ele>
        <time>2025-06-16T15:46:29Z</time>
      </trkpt>
      <trkpt lat="45.90485" lon="1.25291">
        <ele>380.1</ele>
        <time>2025-06-16T15:46:30Z</time>
      </trkpt>
      <trkpt lat="45.90482" lon="1.25289">
        <ele>380.2</ele>
        <time>2025-06-16T15:46:31Z</time>
      </trkpt>
      <trkpt lat="45.90479" lon="1.25286">
        <ele>380.4</ele>
        <time>2025-06-16T15:46:32Z</time>
      </trkpt>
      <trkpt lat="45.90476" lon="1.25284">
        <ele>380.5</ele>
        <time>2025-06-16T15:46:33Z</time>
      </trkpt>
      <trkpt lat="45.90473" lon="1.25282">
        <ele>380.6</ele>
        <time>2025-06-16T15:46:34Z</time>
      </trkpt>
      <trkpt lat="45.90471" lon="1.25281">
        <ele>380.7</ele>
        <time>2025-06-16T15:46:35Z</time>
      </trkpt>
      <trkpt lat="45.90468" lon="1.25279">
        <ele>380.8</ele>
        <time>2025-06-16T15:46:36Z</time>
      </trkpt>
      <trkpt lat="45.90465" lon="1.25278">
        <ele>380.9</ele>
        <time>2025-06-16T15:46:37Z</time>
      </trkpt>
      <trkpt lat="45.90459" lon="1.25275">
        <ele>381.1</ele>
        <time>2025-06-16T15:46:38Z</time>
      </trkpt>
      <trkpt lat="45.90456" lon="1.25273">
        <ele>381.2</ele>
        <time>2025-06-16T15:46:40Z</time>
      </trkpt>
      <trkpt lat="45.90453" lon="1.25272">
        <ele>381.3</ele>
        <time>2025-06-16T15:46:41Z</time>
      </trkpt>
      <trkpt lat="45.9045" lon="1.25271">
        <ele>381.4</ele>
        <time>2025-06-16T15:46:42Z</time>
      </trkpt>
      <trkpt lat="45.90447" lon="1.2527">
        <ele>381.5</ele>
        <time>2025-06-16T15:46:43Z</time>
      </trkpt>
      <trkpt lat="45.90444" lon="1.25269">
        <ele>381.6</ele>
        <time>2025-06-16T15:46:44Z</time>
      </trkpt>
      <trkpt lat="45.90439" lon="1.25267">
        <ele>381.8</ele>
        <time>2025-06-16T15:46:45Z</time>
      </trkpt>
      <trkpt lat="45.90435" lon="1.25266">
        <ele>381.9</ele>
        <time>2025-06-16T15:46:47Z</time>
      </trkpt>
      <trkpt lat="45.90432" lon="1.25265">
        <ele>382.1</ele>
        <time>2025-06-16T15:46:48Z</time>
      </trkpt>
      <trkpt lat="45.90429" lon="1.25264">
        <ele>382.2</ele>
        <time>2025-06-16T15:46:49Z</time>
      </trkpt>
      <trkpt lat="45.90426" lon="1.25263">
        <ele>382.3</ele>
        <time>2025-06-16T15:46:50Z</time>
      </trkpt>
      <trkpt lat="45.90422" lon="1.25262">
        <ele>382.4</ele>
        <time>2025-06-16T15:46:51Z</time>
      </trkpt>
      <trkpt lat="45.90419" lon="1.25261">
        <ele>382.6</ele>
        <time>2025-06-16T15:46:52Z</time>
      </trkpt>
      <trkpt lat="45.90416" lon="1.25261">
        <ele>382.7</ele>
        <time>2025-06-16T15:46:53Z</time>
      </trkpt>
      <trkpt lat="45.90413" lon="1.25261">
        <ele>382.8</ele>
        <time>2025-06-16T15:46:54Z</time>
      </trkpt>
      <trkpt lat="45.90407" lon="1.2526">
        <ele>383.1</ele>
        <time>2025-06-16T15:46:55Z</time>
      </trkpt>
      <trkpt lat="45.90404" lon="1.2526">
        <ele>383.2</ele>
        <time>2025-06-16T15:46:57Z</time>
      </trkpt>
      <trkpt lat="45.90401" lon="1.2526">
        <ele>383.3</ele>
        <time>2025-06-16T15:46:58Z</time>
      </trkpt>
      <trkpt lat="45.90398" lon="1.2526">
        <ele>383.5</ele>
        <time>2025-06-16T15:46:59Z</time>
      </trkpt>
      <trkpt lat="45.90395" lon="1.2526">
        <ele>383.6</ele>
        <time>2025-06-16T15:47:00Z</time>
      </trkpt>
      <trkpt lat="45.90391" lon="1.2526">
        <ele>383.7</ele>
        <time>2025-06-16T15:47:01Z</time>
      </trkpt>
      <trkpt lat="45.90388" lon="1.2526">
        <ele>383.9</ele>
        <time>2025-06-16T15:47:02Z</time>
      </trkpt>
      <trkpt lat="45.90385" lon="1.2526">
        <ele>384</ele>
        <time>2025-06-16T15:47:03Z</time>
      </trkpt>
      <trkpt lat="45.90382" lon="1.25261">
        <ele>384.2</ele>
        <time>2025-06-16T15:47:04Z</time>
      </trkpt>
      <trkpt lat="45.90379" lon="1.25261">
        <ele>384.3</ele>
        <time>2025-06-16T15:47:05Z</time>
      </trkpt>
      <trkpt lat="45.90375" lon="1.25261">
        <ele>384.5</ele>
        <time>2025-06-16T15:47:06Z</time>
      </trkpt>
      <trkpt lat="45.90372" lon="1.25261">
        <ele>384.6</ele>
        <time>2025-06-16T15:47:07Z</time>
      </trkpt>
      <trkpt lat="45.90369" lon="1.25262">
        <ele>384.8</ele>
        <time>2025-06-16T15:47:08Z</time>
      </trkpt>
      <trkpt lat="45.90365" lon="1.25262">
        <ele>384.9</ele>
        <time>2025-06-16T15:47:09Z</time>
      </trkpt>
      <trkpt lat="45.90362" lon="1.25262">
        <ele>385.1</ele>
        <time>2025-06-16T15:47:10Z</time>
      </trkpt>
      <trkpt lat="45.90359" lon="1.25263">
        <ele>385.2</ele>
        <time>2025-06-16T15:47:11Z</time>
      </trkpt>
      <trkpt lat="45.90355" lon="1.25263">
        <ele>385.4</ele>
        <time>2025-06-16T15:47:12Z</time>
      </trkpt>
      <trkpt lat="45.90351" lon="1.25263">
        <ele>385.6</ele>
        <time>2025-06-16T15:47:13Z</time>
      </trkpt>
      <trkpt lat="45.90348" lon="1.25263">
        <ele>385.8</ele>
        <time>2025-06-16T15:47:14Z</time>
      </trkpt>
      <trkpt lat="45.90345" lon="1.25264">
        <ele>385.9</ele>
        <time>2025-06-16T15:47:15Z</time>
      </trkpt>
      <trkpt lat="45.90338" lon="1.25264">
        <ele>386.3</ele>
        <time>2025-06-16T15:47:16Z</time>
      </trkpt>
      <trkpt lat="45.90334" lon="1.25264">
        <ele>386.5</ele>
        <time>2025-06-16T15:47:18Z</time>
      </trkpt>
      <trkpt lat="45.90331" lon="1.25264">
        <ele>386.7</ele>
        <time>2025-06-16T15:47:19Z</time>
      </trkpt>
      <trkpt lat="45.90327" lon="1.25264">
        <ele>386.8</ele>
        <time>2025-06-16T15:47:20Z</time>
      </trkpt>
      <trkpt lat="45.90323" lon="1.25263">
        <ele>387</ele>
        <time>2025-06-16T15:47:21Z</time>
      </trkpt>
      <trkpt lat="45.9032" lon="1.25263">
        <ele>387.2</ele>
        <time>2025-06-16T15:47:22Z</time>
      </trkpt>
      <trkpt lat="45.90316" lon="1.25262">
        <ele>387.4</ele>
        <time>2025-06-16T15:47:23Z</time>
      </trkpt>
      <trkpt lat="45.90313" lon="1.25262">
        <ele>387.5</ele>
        <time>2025-06-16T15:47:24Z</time>
      </trkpt>
      <trkpt lat="45.9031" lon="1.25261">
        <ele>387.6</ele>
        <time>2025-06-16T15:47:25Z</time>
      </trkpt>
      <trkpt lat="45.90306" lon="1.2526">
        <ele>387.7</ele>
        <time>2025-06-16T15:47:26Z</time>
      </trkpt>
      <trkpt lat="45.90303" lon="1.2526">
        <ele>387.8</ele>
        <time>2025-06-16T15:47:27Z</time>
      </trkpt>
      <trkpt lat="45.903" lon="1.25259">
        <ele>387.9</ele>
        <time>2025-06-16T15:47:28Z</time>
      </trkpt>
      <trkpt lat="45.90296" lon="1.25258">
        <ele>388</ele>
        <time>2025-06-16T15:47:29Z</time>
      </trkpt>
      <trkpt lat="45.90293" lon="1.25257">
        <ele>388.1</ele>
        <time>2025-06-16T15:47:30Z</time>
      </trkpt>
      <trkpt lat="45.9029" lon="1.25256">
        <ele>388.2</ele>
        <time>2025-06-16T15:47:31Z</time>
      </trkpt>
      <trkpt lat="45.90283" lon="1.25254">
        <ele>388.4</ele>
        <time>2025-06-16T15:47:32Z</time>
      </trkpt>
      <trkpt lat="45.9028" lon="1.25253">
        <ele>388.4</ele>
        <time>2025-06-16T15:47:34Z</time>
      </trkpt>
      <trkpt lat="45.90276" lon="1.25252">
        <ele>388.5</ele>
        <time>2025-06-16T15:47:35Z</time>
      </trkpt>
      <trkpt lat="45.90272" lon="1.25251">
        <ele>388.6</ele>
        <time>2025-06-16T15:47:36Z</time>
      </trkpt>
      <trkpt lat="45.90268" lon="1.2525">
        <ele>388.7</ele>
        <time>2025-06-16T15:47:37Z</time>
      </trkpt>
      <trkpt lat="45.90264" lon="1.25248">
        <ele>388.8</ele>
        <time>2025-06-16T15:47:38Z</time>
      </trkpt>
      <trkpt lat="45.9026" lon="1.25247">
        <ele>388.8</ele>
        <time>2025-06-16T15:47:39Z</time>
      </trkpt>
      <trkpt lat="45.90256" lon="1.25245">
        <ele>388.9</ele>
        <time>2025-06-16T15:47:40Z</time>
      </trkpt>
      <trkpt lat="45.90253" lon="1.25244">
        <ele>388.9</ele>
        <time>2025-06-16T15:47:41Z</time>
      </trkpt>
      <trkpt lat="45.90248" lon="1.25243">
        <ele>388.9</ele>
        <time>2025-06-16T15:47:42Z</time>
      </trkpt>
      <trkpt lat="45.9024" lon="1.2524">
        <ele>388.8</ele>
        <time>2025-06-16T15:47:43Z</time>
      </trkpt>
      <trkpt lat="45.90236" lon="1.25239">
        <ele>388.7</ele>
        <time>2025-06-16T15:47:45Z</time>
      </trkpt>
      <trkpt lat="45.90232" lon="1.25238">
        <ele>388.6</ele>
        <time>2025-06-16T15:47:46Z</time>
      </trkpt>
      <trkpt lat="45.90227" lon="1.25237">
        <ele>388.5</ele>
        <time>2025-06-16T15:47:47Z</time>
      </trkpt>
      <trkpt lat="45.90222" lon="1.25235">
        <ele>388.3</ele>
        <time>2025-06-16T15:47:48Z</time>
      </trkpt>
      <trkpt lat="45.90217" lon="1.25234">
        <ele>388.1</ele>
        <time>2025-06-16T15:47:49Z</time>
      </trkpt>
      <trkpt lat="45.90212" lon="1.25232">
        <ele>387.9</ele>
        <time>2025-06-16T15:47:50Z</time>
      </trkpt>
      <trkpt lat="45.90206" lon="1.25231">
        <ele>387.7</ele>
        <time>2025-06-16T15:47:51Z</time>
      </trkpt>
      <trkpt lat="45.90195" lon="1.25227">
        <ele>387.3</ele>
        <time>2025-06-16T15:47:52Z</time>
      </trkpt>
      <trkpt lat="45.90188" lon="1.25226">
        <ele>387.1</ele>
        <time>2025-06-16T15:47:54Z</time>
      </trkpt>
      <trkpt lat="45.90182" lon="1.25225">
        <ele>386.9</ele>
        <time>2025-06-16T15:47:55Z</time>
      </trkpt>
      <trkpt lat="45.90175" lon="1.25223">
        <ele>386.8</ele>
        <time>2025-06-16T15:47:56Z</time>
      </trkpt>
      <trkpt lat="45.90169" lon="1.25221">
        <ele>386.6</ele>
        <time>2025-06-16T15:47:57Z</time>
      </trkpt>
      <trkpt lat="45.90162" lon="1.2522">
        <ele>386.5</ele>
        <time>2025-06-16T15:47:58Z</time>
      </trkpt>
      <trkpt lat="45.90156" lon="1.2522">
        <ele>386.4</ele>
        <time>2025-06-16T15:47:59Z</time>
      </trkpt>
      <trkpt lat="45.90149" lon="1.25219">
        <ele>386.3</ele>
        <time>2025-06-16T15:48:00Z</time>
      </trkpt>
      <trkpt lat="45.90143" lon="1.25219">
        <ele>386.2</ele>
        <time>2025-06-16T15:48:01Z</time>
      </trkpt>
      <trkpt lat="45.90136" lon="1.2522">
        <ele>386.2</ele>
        <time>2025-06-16T15:48:02Z</time>
      </trkpt>
      <trkpt lat="45.90125" lon="1.25221">
        <ele>386.5</ele>
        <time>2025-06-16T15:48:03Z</time>
      </trkpt>
      <trkpt lat="45.90119" lon="1.25222">
        <ele>386.6</ele>
        <time>2025-06-16T15:48:05Z</time>
      </trkpt>
      <trkpt lat="45.90114" lon="1.25223">
        <ele>386.8</ele>
        <time>2025-06-16T15:48:06Z</time>
      </trkpt>
      <trkpt lat="45.90109" lon="1.25224">
        <ele>387</ele>
        <time>2025-06-16T15:48:07Z</time>
      </trkpt>
      <trkpt lat="45.90105" lon="1.25225">
        <ele>387.1</ele>
        <time>2025-06-16T15:48:08Z</time>
      </trkpt>
      <trkpt lat="45.90102" lon="1.25226">
        <ele>387.3</ele>
        <time>2025-06-16T15:48:09Z</time>
      </trkpt>
      <trkpt lat="45.90098" lon="1.25226">
        <ele>387.5</ele>
        <time>2025-06-16T15:48:10Z</time>
      </trkpt>
      <trkpt lat="45.9009" lon="1.25228">
        <ele>387.8</ele>
        <time>2025-06-16T15:48:11Z</time>
      </trkpt>
      <trkpt lat="45.90086" lon="1.25229">
        <ele>388</ele>
        <time>2025-06-16T15:48:13Z</time>
      </trkpt>
      <trkpt lat="45.90083" lon="1.25229">
        <ele>388.2</ele>
        <time>2025-06-16T15:48:14Z</time>
      </trkpt>
      <trkpt lat="45.90079" lon="1.2523">
        <ele>388.3</ele>
        <time>2025-06-16T15:48:15Z</time>
      </trkpt>
      <trkpt lat="45.90072" lon="1.25232">
        <ele>388.6</ele>
        <time>2025-06-16T15:48:16Z</time>
      </trkpt>
      <trkpt lat="45.90065" lon="1.25232">
        <ele>388.9</ele>
        <time>2025-06-16T15:48:18Z</time>
      </trkpt>
      <trkpt lat="45.90058" lon="1.25233">
        <ele>389.1</ele>
        <time>2025-06-16T15:48:20Z</time>
      </trkpt>
      <trkpt lat="45.90051" lon="1.25234">
        <ele>389.4</ele>
        <time>2025-06-16T15:48:22Z</time>
      </trkpt>
      <trkpt lat="45.90048" lon="1.25234">
        <ele>389.5</ele>
        <time>2025-06-16T15:48:23Z</time>
      </trkpt>
      <trkpt lat="45.90045" lon="1.25235">
        <ele>389.5</ele>
        <time>2025-06-16T15:48:24Z</time>
      </trkpt>
      <trkpt lat="45.90041" lon="1.25235">
        <ele>389.7</ele>
        <time>2025-06-16T15:48:26Z</time>
      </trkpt>
      <trkpt lat="45.9004" lon="1.25234">
        <ele>389.7</ele>
        <time>2025-06-16T15:48:27Z</time>
      </trkpt>
      <trkpt lat="45.90038" lon="1.25235">
        <ele>389.7</ele>
        <time>2025-06-16T15:48:28Z</time>
      </trkpt>
      <trkpt lat="45.90038" lon="1.25235">
        <ele>389.7</ele>
        <time>2025-06-16T15:48:29Z</time>
      </trkpt>
      <trkpt lat="45.90038" lon="1.25235">
        <ele>389.7</ele>
        <time>2025-06-16T15:48:30Z</time>
      </trkpt>
      <trkpt lat="45.90038" lon="1.25235">
        <ele>389.7</ele>
        <time>2025-06-16T15:48:31Z</time>
      </trkpt>
      <trkpt lat="45.90038" lon="1.25235">
        <ele>389.7</ele>
        <time>2025-06-16T15:48:32Z</time>
      </trkpt>
      <trkpt lat="45.90038" lon="1.25235">
        <ele>389.7</ele>
        <time>2025-06-16T15:48:33Z</time>
      </trkpt>
      <trkpt lat="45.90038" lon="1.25235">
        <ele>389.7</ele>
        <time>2025-06-16T15:48:34Z</time>
      </trkpt>
      <trkpt lat="45.90038" lon="1.25235">
        <ele>389.7</ele>
        <time>2025-06-16T15:48:35Z</time>
      </trkpt>
      <trkpt lat="45.90038" lon="1.25235">
        <ele>389.7</ele>
        <time>2025-06-16T15:48:36Z</time>
      </trkpt>
      <trkpt lat="45.90038" lon="1.25235">
        <ele>389.7</ele>
        <time>2025-06-16T15:48:37Z</time>
      </trkpt>
      <trkpt lat="45.90038" lon="1.25235">
        <ele>389.7</ele>
        <time>2025-06-16T15:48:38Z</time>
      </trkpt>
      <trkpt lat="45.90038" lon="1.25235">
        <ele>389.7</ele>
        <time>2025-06-16T15:48:39Z</time>
      </trkpt>
      <trkpt lat="45.90038" lon="1.25235">
        <ele>389.7</ele>
        <time>2025-06-16T15:48:40Z</time>
      </trkpt>
      <trkpt lat="45.90038" lon="1.25235">
        <ele>389.7</ele>
        <time>2025-06-16T15:48:41Z</time>
      </trkpt>
      <trkpt lat="45.90038" lon="1.25235">
        <ele>389.7</ele>
        <time>2025-06-16T15:48:43Z</time>
      </trkpt>
      <trkpt lat="45.90038" lon="1.25235">
        <ele>389.7</ele>
        <time>2025-06-16T15:48:44Z</time>
      </trkpt>
      <trkpt lat="45.90037" lon="1.25235">
        <ele>389.7</ele>
        <time>2025-06-16T15:48:45Z</time>
      </trkpt>
      <trkpt lat="45.90037" lon="1.25235">
        <ele>389.8</ele>
        <time>2025-06-16T15:48:46Z</time>
      </trkpt>
      <trkpt lat="45.90037" lon="1.25235">
        <ele>389.8</ele>
        <time>2025-06-16T15:48:47Z</time>
      </trkpt>
      <trkpt lat="45.90037" lon="1.25235">
        <ele>389.8</ele>
        <time>2025-06-16T15:48:48Z</time>
      </trkpt>
      <trkpt lat="45.90037" lon="1.25235">
        <ele>389.8</ele>
        <time>2025-06-16T15:48:49Z</time>
      </trkpt>
      <trkpt lat="45.90037" lon="1.25235">
        <ele>389.8</ele>
        <time>2025-06-16T15:48:50Z</time>
      </trkpt>
      <trkpt lat="45.90037" lon="1.25235">
        <ele>389.8</ele>
        <time>2025-06-16T15:48:51Z</time>
      </trkpt>
      <trkpt lat="45.90037" lon="1.25235">
        <ele>389.8</ele>
        <time>2025-06-16T15:48:52Z</time>
      </trkpt>
      <trkpt lat="45.90037" lon="1.25235">
        <ele>389.8</ele>
        <time>2025-06-16T15:48:54Z</time>
      </trkpt>
      <trkpt lat="45.90037" lon="1.25235">
        <ele>389.8</ele>
        <time>2025-06-16T15:48:55Z</time>
      </trkpt>
      <trkpt lat="45.90037" lon="1.25235">
        <ele>389.8</ele>
        <time>2025-06-16T15:48:56Z</time>
      </trkpt>
      <trkpt lat="45.90037" lon="1.25235">
        <ele>389.8</ele>
        <time>2025-06-16T15:48:58Z</time>
      </trkpt>
      <trkpt lat="45.90037" lon="1.25235">
        <ele>389.8</ele>
        <time>2025-06-16T15:48:59Z</time>
      </trkpt>
      <trkpt lat="45.90037" lon="1.25235">
        <ele>389.8</ele>
        <time>2025-06-16T15:49:00Z</time>
      </trkpt>
      <trkpt lat="45.90037" lon="1.25235">
        <ele>389.8</ele>
        <time>2025-06-16T15:49:01Z</time>
      </trkpt>
      <trkpt lat="45.90036" lon="1.25235">
        <ele>389.8</ele>
        <time>2025-06-16T15:49:02Z</time>
      </trkpt>
      <trkpt lat="45.90036" lon="1.25235">
        <ele>389.8</ele>
        <time>2025-06-16T15:49:03Z</time>
      </trkpt>
      <trkpt lat="45.90036" lon="1.25235">
        <ele>389.8</ele>
        <time>2025-06-16T15:49:04Z</time>
      </trkpt>
      <trkpt lat="45.90036" lon="1.25235">
        <ele>389.8</ele>
        <time>2025-06-16T15:49:05Z</time>
      </trkpt>
      <trkpt lat="45.90036" lon="1.25235">
        <ele>389.8</ele>
        <time>2025-06-16T15:49:06Z</time>
      </trkpt>
      <trkpt lat="45.90036" lon="1.25235">
        <ele>389.8</ele>
        <time>2025-06-16T15:49:07Z</time>
      </trkpt>
      <trkpt lat="45.90036" lon="1.25235">
        <ele>389.8</ele>
        <time>2025-06-16T15:49:09Z</time>
      </trkpt>
      <trkpt lat="45.90036" lon="1.25235">
        <ele>389.8</ele>
        <time>2025-06-16T15:49:10Z</time>
      </trkpt>
      <trkpt lat="45.90036" lon="1.25235">
        <ele>389.8</ele>
        <time>2025-06-16T15:49:12Z</time>
      </trkpt>
      <trkpt lat="45.90036" lon="1.25235">
        <ele>389.8</ele>
        <time>2025-06-16T15:49:13Z</time>
      </trkpt>
      <trkpt lat="45.90036" lon="1.25235">
        <ele>389.8</ele>
        <time>2025-06-16T15:49:14Z</time>
      </trkpt>
      <trkpt lat="45.90036" lon="1.25235">
        <ele>389.8</ele>
        <time>2025-06-16T15:49:15Z</time>
      </trkpt>
      <trkpt lat="45.90036" lon="1.25235">
        <ele>389.8</ele>
        <time>2025-06-16T15:49:16Z</time>
      </trkpt>
      <trkpt lat="45.90036" lon="1.25235">
        <ele>389.8</ele>
        <time>2025-06-16T15:49:17Z</time>
      </trkpt>
      <trkpt lat="45.90032" lon="1.25236">
        <ele>389.9</ele>
        <time>2025-06-16T15:49:18Z</time>
      </trkpt>
      <trkpt lat="45.9003" lon="1.25237">
        <ele>389.9</ele>
        <time>2025-06-16T15:49:19Z</time>
      </trkpt>
      <trkpt lat="45.90027" lon="1.25237">
        <ele>390</ele>
        <time>2025-06-16T15:49:20Z</time>
      </trkpt>
      <trkpt lat="45.90024" lon="1.25238">
        <ele>390.1</ele>
        <time>2025-06-16T15:49:21Z</time>
      </trkpt>
      <trkpt lat="45.9002" lon="1.25239">
        <ele>390.1</ele>
        <time>2025-06-16T15:49:22Z</time>
      </trkpt>
      <trkpt lat="45.90016" lon="1.2524">
        <ele>390.2</ele>
        <time>2025-06-16T15:49:23Z</time>
      </trkpt>
      <trkpt lat="45.90012" lon="1.2524">
        <ele>390.3</ele>
        <time>2025-06-16T15:49:24Z</time>
      </trkpt>
      <trkpt lat="45.90008" lon="1.2524">
        <ele>390.3</ele>
        <time>2025-06-16T15:49:25Z</time>
      </trkpt>
      <trkpt lat="45.90005" lon="1.25241">
        <ele>390.4</ele>
        <time>2025-06-16T15:49:26Z</time>
      </trkpt>
      <trkpt lat="45.90001" lon="1.25242">
        <ele>390.4</ele>
        <time>2025-06-16T15:49:27Z</time>
      </trkpt>
      <trkpt lat="45.89997" lon="1.25242">
        <ele>390.4</ele>
        <time>2025-06-16T15:49:28Z</time>
      </trkpt>
      <trkpt lat="45.89993" lon="1.25243">
        <ele>390.5</ele>
        <time>2025-06-16T15:49:29Z</time>
      </trkpt>
      <trkpt lat="45.89984" lon="1.25244">
        <ele>390.5</ele>
        <time>2025-06-16T15:49:30Z</time>
      </trkpt>
      <trkpt lat="45.8998" lon="1.25244">
        <ele>390.4</ele>
        <time>2025-06-16T15:49:32Z</time>
      </trkpt>
      <trkpt lat="45.89976" lon="1.25243">
        <ele>390.4</ele>
        <time>2025-06-16T15:49:33Z</time>
      </trkpt>
      <trkpt lat="45.89968" lon="1.25241">
        <ele>390.3</ele>
        <time>2025-06-16T15:49:34Z</time>
      </trkpt>
      <trkpt lat="45.89963" lon="1.2524">
        <ele>390.2</ele>
        <time>2025-06-16T15:49:36Z</time>
      </trkpt>
      <trkpt lat="45.89959" lon="1.25239">
        <ele>390.2</ele>
        <time>2025-06-16T15:49:37Z</time>
      </trkpt>
      <trkpt lat="45.89955" lon="1.25238">
        <ele>390.1</ele>
        <time>2025-06-16T15:49:38Z</time>
      </trkpt>
      <trkpt lat="45.89946" lon="1.25236">
        <ele>390</ele>
        <time>2025-06-16T15:49:39Z</time>
      </trkpt>
      <trkpt lat="45.89941" lon="1.25235">
        <ele>390</ele>
        <time>2025-06-16T15:49:41Z</time>
      </trkpt>
      <trkpt lat="45.89937" lon="1.25234">
        <ele>389.9</ele>
        <time>2025-06-16T15:49:42Z</time>
      </trkpt>
      <trkpt lat="45.89927" lon="1.25233">
        <ele>389.9</ele>
        <time>2025-06-16T15:49:43Z</time>
      </trkpt>
      <trkpt lat="45.89923" lon="1.25232">
        <ele>389.9</ele>
        <time>2025-06-16T15:49:45Z</time>
      </trkpt>
      <trkpt lat="45.89915" lon="1.2523">
        <ele>389.8</ele>
        <time>2025-06-16T15:49:46Z</time>
      </trkpt>
      <trkpt lat="45.8991" lon="1.25229">
        <ele>389.8</ele>
        <time>2025-06-16T15:49:48Z</time>
      </trkpt>
      <trkpt lat="45.89906" lon="1.25228">
        <ele>389.8</ele>
        <time>2025-06-16T15:49:49Z</time>
      </trkpt>
      <trkpt lat="45.89902" lon="1.25228">
        <ele>389.8</ele>
        <time>2025-06-16T15:49:50Z</time>
      </trkpt>
      <trkpt lat="45.89892" lon="1.25225">
        <ele>389.7</ele>
        <time>2025-06-16T15:49:51Z</time>
      </trkpt>
      <trkpt lat="45.89887" lon="1.25225">
        <ele>389.7</ele>
        <time>2025-06-16T15:49:52Z</time>
      </trkpt>
      <trkpt lat="45.89883" lon="1.25224">
        <ele>389.7</ele>
        <time>2025-06-16T15:49:54Z</time>
      </trkpt>
      <trkpt lat="45.89873" lon="1.25223">
        <ele>389.6</ele>
        <time>2025-06-16T15:49:55Z</time>
      </trkpt>
      <trkpt lat="45.89868" lon="1.25223">
        <ele>389.5</ele>
        <time>2025-06-16T15:49:57Z</time>
      </trkpt>
      <trkpt lat="45.89857" lon="1.25221">
        <ele>389.4</ele>
        <time>2025-06-16T15:49:58Z</time>
      </trkpt>
      <trkpt lat="45.89853" lon="1.2522">
        <ele>389.4</ele>
        <time>2025-06-16T15:50:00Z</time>
      </trkpt>
      <trkpt lat="45.89843" lon="1.25219">
        <ele>389.2</ele>
        <time>2025-06-16T15:50:01Z</time>
      </trkpt>
      <trkpt lat="45.89838" lon="1.25217">
        <ele>389.1</ele>
        <time>2025-06-16T15:50:03Z</time>
      </trkpt>
      <trkpt lat="45.89833" lon="1.25216">
        <ele>389</ele>
        <time>2025-06-16T15:50:04Z</time>
      </trkpt>
      <trkpt lat="45.89828" lon="1.25215">
        <ele>388.8</ele>
        <time>2025-06-16T15:50:05Z</time>
      </trkpt>
      <trkpt lat="45.89823" lon="1.25214">
        <ele>388.7</ele>
        <time>2025-06-16T15:50:06Z</time>
      </trkpt>
      <trkpt lat="45.89817" lon="1.25212">
        <ele>388.5</ele>
        <time>2025-06-16T15:50:07Z</time>
      </trkpt>
      <trkpt lat="45.89805" lon="1.25209">
        <ele>388.1</ele>
        <time>2025-06-16T15:50:08Z</time>
      </trkpt>
      <trkpt lat="45.89793" lon="1.25205">
        <ele>387.6</ele>
        <time>2025-06-16T15:50:10Z</time>
      </trkpt>
      <trkpt lat="45.89786" lon="1.25203">
        <ele>387.3</ele>
        <time>2025-06-16T15:50:12Z</time>
      </trkpt>
      <trkpt lat="45.89774" lon="1.25198">
        <ele>386.7</ele>
        <time>2025-06-16T15:50:13Z</time>
      </trkpt>
      <trkpt lat="45.89767" lon="1.25196">
        <ele>386.4</ele>
        <time>2025-06-16T15:50:15Z</time>
      </trkpt>
      <trkpt lat="45.89761" lon="1.25195">
        <ele>386</ele>
        <time>2025-06-16T15:50:16Z</time>
      </trkpt>
      <trkpt lat="45.89753" lon="1.25192">
        <ele>385.6</ele>
        <time>2025-06-16T15:50:17Z</time>
      </trkpt>
      <trkpt lat="45.89746" lon="1.2519">
        <ele>385.2</ele>
        <time>2025-06-16T15:50:18Z</time>
      </trkpt>
      <trkpt lat="45.8973" lon="1.25187">
        <ele>384.3</ele>
        <time>2025-06-16T15:50:19Z</time>
      </trkpt>
      <trkpt lat="45.89723" lon="1.25187">
        <ele>383.9</ele>
        <time>2025-06-16T15:50:20Z</time>
      </trkpt>
      <trkpt lat="45.89706" lon="1.25189">
        <ele>382.9</ele>
        <time>2025-06-16T15:50:22Z</time>
      </trkpt>
      <trkpt lat="45.89697" lon="1.25189">
        <ele>382.3</ele>
        <time>2025-06-16T15:50:23Z</time>
      </trkpt>
      <trkpt lat="45.89688" lon="1.2519">
        <ele>381.8</ele>
        <time>2025-06-16T15:50:24Z</time>
      </trkpt>
      <trkpt lat="45.89678" lon="1.2519">
        <ele>381.1</ele>
        <time>2025-06-16T15:50:25Z</time>
      </trkpt>
      <trkpt lat="45.89669" lon="1.25191">
        <ele>380.5</ele>
        <time>2025-06-16T15:50:27Z</time>
      </trkpt>
      <trkpt lat="45.89649" lon="1.25192">
        <ele>379.4</ele>
        <time>2025-06-16T15:50:28Z</time>
      </trkpt>
      <trkpt lat="45.89639" lon="1.25192">
        <ele>378.9</ele>
        <time>2025-06-16T15:50:30Z</time>
      </trkpt>
      <trkpt lat="45.89618" lon="1.25194">
        <ele>378</ele>
        <time>2025-06-16T15:50:31Z</time>
      </trkpt>
      <trkpt lat="45.89607" lon="1.25194">
        <ele>377.7</ele>
        <time>2025-06-16T15:50:32Z</time>
      </trkpt>
      <trkpt lat="45.89587" lon="1.25195">
        <ele>377.2</ele>
        <time>2025-06-16T15:50:34Z</time>
      </trkpt>
      <trkpt lat="45.89577" lon="1.25196">
        <ele>377</ele>
        <time>2025-06-16T15:50:36Z</time>
      </trkpt>
      <trkpt lat="45.89566" lon="1.25197">
        <ele>376.8</ele>
        <time>2025-06-16T15:50:37Z</time>
      </trkpt>
      <trkpt lat="45.89556" lon="1.25197">
        <ele>376.7</ele>
        <time>2025-06-16T15:50:38Z</time>
      </trkpt>
      <trkpt lat="45.89547" lon="1.25198">
        <ele>376.5</ele>
        <time>2025-06-16T15:50:39Z</time>
      </trkpt>
      <trkpt lat="45.89537" lon="1.25199">
        <ele>376.3</ele>
        <time>2025-06-16T15:50:40Z</time>
      </trkpt>
      <trkpt lat="45.89527" lon="1.252">
        <ele>376.1</ele>
        <time>2025-06-16T15:50:41Z</time>
      </trkpt>
      <trkpt lat="45.89518" lon="1.25201">
        <ele>375.8</ele>
        <time>2025-06-16T15:50:42Z</time>
      </trkpt>
      <trkpt lat="45.89499" lon="1.25202">
        <ele>375.4</ele>
        <time>2025-06-16T15:50:43Z</time>
      </trkpt>
      <trkpt lat="45.8949" lon="1.25203">
        <ele>375.3</ele>
        <time>2025-06-16T15:50:45Z</time>
      </trkpt>
      <trkpt lat="45.89472" lon="1.25204">
        <ele>374.9</ele>
        <time>2025-06-16T15:50:46Z</time>
      </trkpt>
      <trkpt lat="45.89462" lon="1.25204">
        <ele>374.8</ele>
        <time>2025-06-16T15:50:48Z</time>
      </trkpt>
      <trkpt lat="45.89444" lon="1.25206">
        <ele>374.6</ele>
        <time>2025-06-16T15:50:49Z</time>
      </trkpt>
      <trkpt lat="45.89427" lon="1.25208">
        <ele>374.3</ele>
        <time>2025-06-16T15:50:51Z</time>
      </trkpt>
      <trkpt lat="45.89419" lon="1.25209">
        <ele>374.1</ele>
        <time>2025-06-16T15:50:52Z</time>
      </trkpt>
      <trkpt lat="45.89411" lon="1.2521">
        <ele>374</ele>
        <time>2025-06-16T15:50:54Z</time>
      </trkpt>
      <trkpt lat="45.89395" lon="1.25211">
        <ele>373.6</ele>
        <time>2025-06-16T15:50:55Z</time>
      </trkpt>
      <trkpt lat="45.89387" lon="1.25212">
        <ele>373.4</ele>
        <time>2025-06-16T15:50:56Z</time>
      </trkpt>
      <trkpt lat="45.89379" lon="1.25213">
        <ele>373.1</ele>
        <time>2025-06-16T15:50:57Z</time>
      </trkpt>
      <trkpt lat="45.89371" lon="1.25214">
        <ele>372.8</ele>
        <time>2025-06-16T15:50:58Z</time>
      </trkpt>
      <trkpt lat="45.89363" lon="1.25214">
        <ele>372.5</ele>
        <time>2025-06-16T15:51:00Z</time>
      </trkpt>
      <trkpt lat="45.89346" lon="1.25216">
        <ele>371.6</ele>
        <time>2025-06-16T15:51:01Z</time>
      </trkpt>
      <trkpt lat="45.89338" lon="1.25216">
        <ele>371.2</ele>
        <time>2025-06-16T15:51:03Z</time>
      </trkpt>
      <trkpt lat="45.89321" lon="1.25215">
        <ele>370.5</ele>
        <time>2025-06-16T15:51:04Z</time>
      </trkpt>
      <trkpt lat="45.89312" lon="1.25214">
        <ele>370</ele>
        <time>2025-06-16T15:51:05Z</time>
      </trkpt>
      <trkpt lat="45.89295" lon="1.25208">
        <ele>369.2</ele>
        <time>2025-06-16T15:51:07Z</time>
      </trkpt>
      <trkpt lat="45.89278" lon="1.25196">
        <ele>368.5</ele>
        <time>2025-06-16T15:51:09Z</time>
      </trkpt>
      <trkpt lat="45.8927" lon="1.25189">
        <ele>368.3</ele>
        <time>2025-06-16T15:51:10Z</time>
      </trkpt>
      <trkpt lat="45.89256" lon="1.25173">
        <ele>368</ele>
        <time>2025-06-16T15:51:12Z</time>
      </trkpt>
      <trkpt lat="45.89248" lon="1.25166">
        <ele>367.9</ele>
        <time>2025-06-16T15:51:13Z</time>
      </trkpt>
      <trkpt lat="45.89242" lon="1.25158">
        <ele>367.8</ele>
        <time>2025-06-16T15:51:15Z</time>
      </trkpt>
      <trkpt lat="45.89229" lon="1.25143">
        <ele>367.7</ele>
        <time>2025-06-16T15:51:16Z</time>
      </trkpt>
      <trkpt lat="45.89222" lon="1.25136">
        <ele>367.6</ele>
        <time>2025-06-16T15:51:18Z</time>
      </trkpt>
      <trkpt lat="45.89209" lon="1.25122">
        <ele>367.6</ele>
        <time>2025-06-16T15:51:19Z</time>
      </trkpt>
      <trkpt lat="45.89202" lon="1.25115">
        <ele>367.6</ele>
        <time>2025-06-16T15:51:21Z</time>
      </trkpt>
      <trkpt lat="45.89189" lon="1.25105">
        <ele>367.7</ele>
        <time>2025-06-16T15:51:22Z</time>
      </trkpt>
      <trkpt lat="45.89182" lon="1.25101">
        <ele>367.8</ele>
        <time>2025-06-16T15:51:24Z</time>
      </trkpt>
      <trkpt lat="45.89175" lon="1.25097">
        <ele>367.9</ele>
        <time>2025-06-16T15:51:25Z</time>
      </trkpt>
      <trkpt lat="45.89163" lon="1.25091">
        <ele>368.2</ele>
        <time>2025-06-16T15:51:26Z</time>
      </trkpt>
      <trkpt lat="45.89156" lon="1.25087">
        <ele>368.4</ele>
        <time>2025-06-16T15:51:28Z</time>
      </trkpt>
      <trkpt lat="45.89152" lon="1.25086">
        <ele>368.6</ele>
        <time>2025-06-16T15:51:29Z</time>
      </trkpt>
      <trkpt lat="45.89147" lon="1.25083">
        <ele>368.9</ele>
        <time>2025-06-16T15:51:30Z</time>
      </trkpt>
      <trkpt lat="45.89142" lon="1.25079">
        <ele>369.2</ele>
        <time>2025-06-16T15:51:31Z</time>
      </trkpt>
      <trkpt lat="45.89137" lon="1.25076">
        <ele>369.5</ele>
        <time>2025-06-16T15:51:32Z</time>
      </trkpt>
      <trkpt lat="45.89132" lon="1.25073">
        <ele>369.9</ele>
        <time>2025-06-16T15:51:33Z</time>
      </trkpt>
      <trkpt lat="45.89127" lon="1.2507">
        <ele>370.3</ele>
        <time>2025-06-16T15:51:34Z</time>
      </trkpt>
      <trkpt lat="45.89123" lon="1.25068">
        <ele>370.6</ele>
        <time>2025-06-16T15:51:35Z</time>
      </trkpt>
      <trkpt lat="45.8912" lon="1.25066">
        <ele>371</ele>
        <time>2025-06-16T15:51:36Z</time>
      </trkpt>
      <trkpt lat="45.89115" lon="1.25062">
        <ele>371.5</ele>
        <time>2025-06-16T15:51:37Z</time>
      </trkpt>
      <trkpt lat="45.89111" lon="1.2506">
        <ele>371.9</ele>
        <time>2025-06-16T15:51:38Z</time>
      </trkpt>
      <trkpt lat="45.89105" lon="1.25057">
        <ele>372.6</ele>
        <time>2025-06-16T15:51:40Z</time>
      </trkpt>
      <trkpt lat="45.89102" lon="1.25055">
        <ele>372.9</ele>
        <time>2025-06-16T15:51:41Z</time>
      </trkpt>
      <trkpt lat="45.89099" lon="1.25053">
        <ele>373.2</ele>
        <time>2025-06-16T15:51:42Z</time>
      </trkpt>
      <trkpt lat="45.89096" lon="1.25051">
        <ele>373.6</ele>
        <time>2025-06-16T15:51:44Z</time>
      </trkpt>
      <trkpt lat="45.8909" lon="1.25047">
        <ele>374.2</ele>
        <time>2025-06-16T15:51:45Z</time>
      </trkpt>
      <trkpt lat="45.89087" lon="1.25045">
        <ele>374.6</ele>
        <time>2025-06-16T15:51:47Z</time>
      </trkpt>
      <trkpt lat="45.89083" lon="1.25043">
        <ele>374.9</ele>
        <time>2025-06-16T15:51:48Z</time>
      </trkpt>
      <trkpt lat="45.8908" lon="1.25041">
        <ele>375.2</ele>
        <time>2025-06-16T15:51:49Z</time>
      </trkpt>
      <trkpt lat="45.89077" lon="1.25039">
        <ele>375.6</ele>
        <time>2025-06-16T15:51:50Z</time>
      </trkpt>
      <trkpt lat="45.89073" lon="1.25037">
        <ele>375.9</ele>
        <time>2025-06-16T15:51:51Z</time>
      </trkpt>
      <trkpt lat="45.8907" lon="1.25036">
        <ele>376.2</ele>
        <time>2025-06-16T15:51:52Z</time>
      </trkpt>
      <trkpt lat="45.89067" lon="1.25034">
        <ele>376.5</ele>
        <time>2025-06-16T15:51:53Z</time>
      </trkpt>
      <trkpt lat="45.89064" lon="1.25032">
        <ele>376.8</ele>
        <time>2025-06-16T15:51:54Z</time>
      </trkpt>
      <trkpt lat="45.89061" lon="1.25031">
        <ele>377.1</ele>
        <time>2025-06-16T15:51:55Z</time>
      </trkpt>
      <trkpt lat="45.89058" lon="1.25029">
        <ele>377.3</ele>
        <time>2025-06-16T15:51:56Z</time>
      </trkpt>
      <trkpt lat="45.89055" lon="1.25027">
        <ele>377.7</ele>
        <time>2025-06-16T15:51:57Z</time>
      </trkpt>
      <trkpt lat="45.89051" lon="1.25024">
        <ele>378</ele>
        <time>2025-06-16T15:51:58Z</time>
      </trkpt>
      <trkpt lat="45.89048" lon="1.25021">
        <ele>378.4</ele>
        <time>2025-06-16T15:51:59Z</time>
      </trkpt>
      <trkpt lat="45.89044" lon="1.25017">
        <ele>378.9</ele>
        <time>2025-06-16T15:52:00Z</time>
      </trkpt>
      <trkpt lat="45.8904" lon="1.25012">
        <ele>379.3</ele>
        <time>2025-06-16T15:52:01Z</time>
      </trkpt>
      <trkpt lat="45.89036" lon="1.25008">
        <ele>379.8</ele>
        <time>2025-06-16T15:52:02Z</time>
      </trkpt>
      <trkpt lat="45.89029" lon="1.24999">
        <ele>380.6</ele>
        <time>2025-06-16T15:52:03Z</time>
      </trkpt>
      <trkpt lat="45.89025" lon="1.24996">
        <ele>380.9</ele>
        <time>2025-06-16T15:52:05Z</time>
      </trkpt>
      <trkpt lat="45.89022" lon="1.24994">
        <ele>381.2</ele>
        <time>2025-06-16T15:52:06Z</time>
      </trkpt>
      <trkpt lat="45.8902" lon="1.24991">
        <ele>381.5</ele>
        <time>2025-06-16T15:52:07Z</time>
      </trkpt>
      <trkpt lat="45.89017" lon="1.24988">
        <ele>381.8</ele>
        <time>2025-06-16T15:52:08Z</time>
      </trkpt>
      <trkpt lat="45.89013" lon="1.24984">
        <ele>382.2</ele>
        <time>2025-06-16T15:52:09Z</time>
      </trkpt>
      <trkpt lat="45.8901" lon="1.2498">
        <ele>382.5</ele>
        <time>2025-06-16T15:52:11Z</time>
      </trkpt>
      <trkpt lat="45.89009" lon="1.24979">
        <ele>382.6</ele>
        <time>2025-06-16T15:52:12Z</time>
      </trkpt>
      <trkpt lat="45.89006" lon="1.24976">
        <ele>382.9</ele>
        <time>2025-06-16T15:52:13Z</time>
      </trkpt>
      <trkpt lat="45.89005" lon="1.24975">
        <ele>383</ele>
        <time>2025-06-16T15:52:14Z</time>
      </trkpt>
      <trkpt lat="45.89002" lon="1.24972">
        <ele>383.3</ele>
        <time>2025-06-16T15:52:15Z</time>
      </trkpt>
      <trkpt lat="45.89001" lon="1.24971">
        <ele>383.4</ele>
        <time>2025-06-16T15:52:16Z</time>
      </trkpt>
      <trkpt lat="45.88998" lon="1.24968">
        <ele>383.7</ele>
        <time>2025-06-16T15:52:17Z</time>
      </trkpt>
      <trkpt lat="45.88997" lon="1.24966">
        <ele>383.8</ele>
        <time>2025-06-16T15:52:18Z</time>
      </trkpt>
      <trkpt lat="45.88994" lon="1.24963">
        <ele>384.1</ele>
        <time>2025-06-16T15:52:19Z</time>
      </trkpt>
      <trkpt lat="45.88993" lon="1.24962">
        <ele>384.2</ele>
        <time>2025-06-16T15:52:20Z</time>
      </trkpt>
      <trkpt lat="45.8899" lon="1.24959">
        <ele>384.5</ele>
        <time>2025-06-16T15:52:21Z</time>
      </trkpt>
      <trkpt lat="45.88989" lon="1.24958">
        <ele>384.6</ele>
        <time>2025-06-16T15:52:22Z</time>
      </trkpt>
      <trkpt lat="45.88986" lon="1.24954">
        <ele>384.9</ele>
        <time>2025-06-16T15:52:23Z</time>
      </trkpt>
      <trkpt lat="45.88985" lon="1.24953">
        <ele>385</ele>
        <time>2025-06-16T15:52:24Z</time>
      </trkpt>
      <trkpt lat="45.88981" lon="1.24949">
        <ele>385.3</ele>
        <time>2025-06-16T15:52:25Z</time>
      </trkpt>
      <trkpt lat="45.88978" lon="1.24946">
        <ele>385.5</ele>
        <time>2025-06-16T15:52:27Z</time>
      </trkpt>
      <trkpt lat="45.88977" lon="1.24945">
        <ele>385.6</ele>
        <time>2025-06-16T15:52:28Z</time>
      </trkpt>
      <trkpt lat="45.88974" lon="1.24941">
        <ele>385.9</ele>
        <time>2025-06-16T15:52:29Z</time>
      </trkpt>
      <trkpt lat="45.88973" lon="1.2494">
        <ele>385.9</ele>
        <time>2025-06-16T15:52:30Z</time>
      </trkpt>
      <trkpt lat="45.8897" lon="1.24937">
        <ele>386.1</ele>
        <time>2025-06-16T15:52:31Z</time>
      </trkpt>
      <trkpt lat="45.88969" lon="1.24936">
        <ele>386.2</ele>
        <time>2025-06-16T15:52:32Z</time>
      </trkpt>
      <trkpt lat="45.88965" lon="1.24932">
        <ele>386.5</ele>
        <time>2025-06-16T15:52:33Z</time>
      </trkpt>
      <trkpt lat="45.88962" lon="1.24928">
        <ele>386.7</ele>
        <time>2025-06-16T15:52:35Z</time>
      </trkpt>
      <trkpt lat="45.88961" lon="1.24927">
        <ele>386.8</ele>
        <time>2025-06-16T15:52:36Z</time>
      </trkpt>
      <trkpt lat="45.88958" lon="1.24924">
        <ele>386.9</ele>
        <time>2025-06-16T15:52:37Z</time>
      </trkpt>
      <trkpt lat="45.88957" lon="1.24923">
        <ele>387</ele>
        <time>2025-06-16T15:52:38Z</time>
      </trkpt>
      <trkpt lat="45.88953" lon="1.24919">
        <ele>387.1</ele>
        <time>2025-06-16T15:52:39Z</time>
      </trkpt>
      <trkpt lat="45.8895" lon="1.24915">
        <ele>387.2</ele>
        <time>2025-06-16T15:52:41Z</time>
      </trkpt>
      <trkpt lat="45.88949" lon="1.24914">
        <ele>387.2</ele>
        <time>2025-06-16T15:52:42Z</time>
      </trkpt>
      <trkpt lat="45.88946" lon="1.2491">
        <ele>387.4</ele>
        <time>2025-06-16T15:52:43Z</time>
      </trkpt>
      <trkpt lat="45.88944" lon="1.24908">
        <ele>387.4</ele>
        <time>2025-06-16T15:52:44Z</time>
      </trkpt>
      <trkpt lat="45.88942" lon="1.24906">
        <ele>387.5</ele>
        <time>2025-06-16T15:52:46Z</time>
      </trkpt>
      <trkpt lat="45.8894" lon="1.24904">
        <ele>387.6</ele>
        <time>2025-06-16T15:52:47Z</time>
      </trkpt>
      <trkpt lat="45.88939" lon="1.24903">
        <ele>387.6</ele>
        <time>2025-06-16T15:52:48Z</time>
      </trkpt>
      <trkpt lat="45.88936" lon="1.24899">
        <ele>387.7</ele>
        <time>2025-06-16T15:52:49Z</time>
      </trkpt>
      <trkpt lat="45.88935" lon="1.24898">
        <ele>387.7</ele>
        <time>2025-06-16T15:52:50Z</time>
      </trkpt>
      <trkpt lat="45.88933" lon="1.24895">
        <ele>387.8</ele>
        <time>2025-06-16T15:52:51Z</time>
      </trkpt>
      <trkpt lat="45.8893" lon="1.24892">
        <ele>387.9</ele>
        <time>2025-06-16T15:52:52Z</time>
      </trkpt>
      <trkpt lat="45.88928" lon="1.24889">
        <ele>388</ele>
        <time>2025-06-16T15:52:53Z</time>
      </trkpt>
      <trkpt lat="45.88926" lon="1.24886">
        <ele>388.1</ele>
        <time>2025-06-16T15:52:54Z</time>
      </trkpt>
      <trkpt lat="45.88924" lon="1.24883">
        <ele>388.1</ele>
        <time>2025-06-16T15:52:55Z</time>
      </trkpt>
      <trkpt lat="45.88921" lon="1.2488">
        <ele>388.2</ele>
        <time>2025-06-16T15:52:56Z</time>
      </trkpt>
      <trkpt lat="45.88919" lon="1.24878">
        <ele>388.3</ele>
        <time>2025-06-16T15:52:57Z</time>
      </trkpt>
      <trkpt lat="45.88917" lon="1.24875">
        <ele>388.4</ele>
        <time>2025-06-16T15:52:58Z</time>
      </trkpt>
      <trkpt lat="45.88914" lon="1.24872">
        <ele>388.5</ele>
        <time>2025-06-16T15:52:59Z</time>
      </trkpt>
      <trkpt lat="45.88912" lon="1.2487">
        <ele>388.5</ele>
        <time>2025-06-16T15:53:00Z</time>
      </trkpt>
      <trkpt lat="45.88909" lon="1.24867">
        <ele>388.6</ele>
        <time>2025-06-16T15:53:01Z</time>
      </trkpt>
      <trkpt lat="45.88907" lon="1.24864">
        <ele>388.7</ele>
        <time>2025-06-16T15:53:02Z</time>
      </trkpt>
      <trkpt lat="45.88903" lon="1.24859">
        <ele>388.9</ele>
        <time>2025-06-16T15:53:03Z</time>
      </trkpt>
      <trkpt lat="45.889" lon="1.24855">
        <ele>389</ele>
        <time>2025-06-16T15:53:04Z</time>
      </trkpt>
      <trkpt lat="45.88899" lon="1.24854">
        <ele>389.1</ele>
        <time>2025-06-16T15:53:05Z</time>
      </trkpt>
      <trkpt lat="45.88897" lon="1.24851">
        <ele>389.1</ele>
        <time>2025-06-16T15:53:06Z</time>
      </trkpt>
      <trkpt lat="45.88895" lon="1.24849">
        <ele>389.2</ele>
        <time>2025-06-16T15:53:08Z</time>
      </trkpt>
      <trkpt lat="45.88891" lon="1.24844">
        <ele>389.4</ele>
        <time>2025-06-16T15:53:09Z</time>
      </trkpt>
      <trkpt lat="45.88888" lon="1.24839">
        <ele>389.6</ele>
        <time>2025-06-16T15:53:11Z</time>
      </trkpt>
      <trkpt lat="45.88886" lon="1.24836">
        <ele>389.6</ele>
        <time>2025-06-16T15:53:12Z</time>
      </trkpt>
      <trkpt lat="45.88884" lon="1.24834">
        <ele>389.7</ele>
        <time>2025-06-16T15:53:14Z</time>
      </trkpt>
      <trkpt lat="45.88881" lon="1.2483">
        <ele>389.8</ele>
        <time>2025-06-16T15:53:15Z</time>
      </trkpt>
      <trkpt lat="45.88881" lon="1.24829">
        <ele>389.8</ele>
        <time>2025-06-16T15:53:16Z</time>
      </trkpt>
      <trkpt lat="45.88878" lon="1.24826">
        <ele>389.9</ele>
        <time>2025-06-16T15:53:17Z</time>
      </trkpt>
      <trkpt lat="45.88878" lon="1.24825">
        <ele>389.9</ele>
        <time>2025-06-16T15:53:18Z</time>
      </trkpt>
      <trkpt lat="45.88876" lon="1.24823">
        <ele>390</ele>
        <time>2025-06-16T15:53:19Z</time>
      </trkpt>
      <trkpt lat="45.88875" lon="1.24821">
        <ele>390</ele>
        <time>2025-06-16T15:53:20Z</time>
      </trkpt>
      <trkpt lat="45.88874" lon="1.2482">
        <ele>390</ele>
        <time>2025-06-16T15:53:21Z</time>
      </trkpt>
      <trkpt lat="45.88873" lon="1.2482">
        <ele>390</ele>
        <time>2025-06-16T15:53:22Z</time>
      </trkpt>
      <trkpt lat="45.88873" lon="1.2482">
        <ele>390</ele>
        <time>2025-06-16T15:53:23Z</time>
      </trkpt>
      <trkpt lat="45.88873" lon="1.2482">
        <ele>390</ele>
        <time>2025-06-16T15:53:24Z</time>
      </trkpt>
      <trkpt lat="45.88873" lon="1.2482">
        <ele>390</ele>
        <time>2025-06-16T15:53:25Z</time>
      </trkpt>
      <trkpt lat="45.88873" lon="1.2482">
        <ele>390</ele>
        <time>2025-06-16T15:53:26Z</time>
      </trkpt>
      <trkpt lat="45.88873" lon="1.2482">
        <ele>390.1</ele>
        <time>2025-06-16T15:53:28Z</time>
      </trkpt>
      <trkpt lat="45.88873" lon="1.2482">
        <ele>390.1</ele>
        <time>2025-06-16T15:53:29Z</time>
      </trkpt>
      <trkpt lat="45.88873" lon="1.24821">
        <ele>390.1</ele>
        <time>2025-06-16T15:53:30Z</time>
      </trkpt>
      <trkpt lat="45.88873" lon="1.24821">
        <ele>390.1</ele>
        <time>2025-06-16T15:53:31Z</time>
      </trkpt>
      <trkpt lat="45.88873" lon="1.24821">
        <ele>390.1</ele>
        <time>2025-06-16T15:53:32Z</time>
      </trkpt>
      <trkpt lat="45.88873" lon="1.24821">
        <ele>390.1</ele>
        <time>2025-06-16T15:53:33Z</time>
      </trkpt>
      <trkpt lat="45.88873" lon="1.24821">
        <ele>390.1</ele>
        <time>2025-06-16T15:53:35Z</time>
      </trkpt>
      <trkpt lat="45.88872" lon="1.24821">
        <ele>390.1</ele>
        <time>2025-06-16T15:53:36Z</time>
      </trkpt>
      <trkpt lat="45.88871" lon="1.2482">
        <ele>390.1</ele>
        <time>2025-06-16T15:53:37Z</time>
      </trkpt>
      <trkpt lat="45.8887" lon="1.2482">
        <ele>390.1</ele>
        <time>2025-06-16T15:53:39Z</time>
      </trkpt>
      <trkpt lat="45.8887" lon="1.24819">
        <ele>390.2</ele>
        <time>2025-06-16T15:53:40Z</time>
      </trkpt>
      <trkpt lat="45.88868" lon="1.24817">
        <ele>390.2</ele>
        <time>2025-06-16T15:53:41Z</time>
      </trkpt>
      <trkpt lat="45.88867" lon="1.24816">
        <ele>390.2</ele>
        <time>2025-06-16T15:53:43Z</time>
      </trkpt>
      <trkpt lat="45.88866" lon="1.24815">
        <ele>390.2</ele>
        <time>2025-06-16T15:53:44Z</time>
      </trkpt>
      <trkpt lat="45.88865" lon="1.24814">
        <ele>390.3</ele>
        <time>2025-06-16T15:53:45Z</time>
      </trkpt>
      <trkpt lat="45.88864" lon="1.24812">
        <ele>390.3</ele>
        <time>2025-06-16T15:53:46Z</time>
      </trkpt>
      <trkpt lat="45.88861" lon="1.24809">
        <ele>390.4</ele>
        <time>2025-06-16T15:53:47Z</time>
      </trkpt>
      <trkpt lat="45.8886" lon="1.24808">
        <ele>390.4</ele>
        <time>2025-06-16T15:53:48Z</time>
      </trkpt>
      <trkpt lat="45.88857" lon="1.24805">
        <ele>390.5</ele>
        <time>2025-06-16T15:53:49Z</time>
      </trkpt>
      <trkpt lat="45.88856" lon="1.24803">
        <ele>390.5</ele>
        <time>2025-06-16T15:53:50Z</time>
      </trkpt>
      <trkpt lat="45.88854" lon="1.24801">
        <ele>390.5</ele>
        <time>2025-06-16T15:53:51Z</time>
      </trkpt>
      <trkpt lat="45.88852" lon="1.24798">
        <ele>390.6</ele>
        <time>2025-06-16T15:53:52Z</time>
      </trkpt>
      <trkpt lat="45.88849" lon="1.24795">
        <ele>390.6</ele>
        <time>2025-06-16T15:53:53Z</time>
      </trkpt>
      <trkpt lat="45.88848" lon="1.24792">
        <ele>390.6</ele>
        <time>2025-06-16T15:53:54Z</time>
      </trkpt>
      <trkpt lat="45.88846" lon="1.24789">
        <ele>390.7</ele>
        <time>2025-06-16T15:53:55Z</time>
      </trkpt>
      <trkpt lat="45.88844" lon="1.24786">
        <ele>390.7</ele>
        <time>2025-06-16T15:53:56Z</time>
      </trkpt>
      <trkpt lat="45.88841" lon="1.24783">
        <ele>390.8</ele>
        <time>2025-06-16T15:53:57Z</time>
      </trkpt>
      <trkpt lat="45.88839" lon="1.2478">
        <ele>390.8</ele>
        <time>2025-06-16T15:53:58Z</time>
      </trkpt>
      <trkpt lat="45.88836" lon="1.24778">
        <ele>390.9</ele>
        <time>2025-06-16T15:53:59Z</time>
      </trkpt>
      <trkpt lat="45.88834" lon="1.24775">
        <ele>390.9</ele>
        <time>2025-06-16T15:54:00Z</time>
      </trkpt>
      <trkpt lat="45.88832" lon="1.24772">
        <ele>390.9</ele>
        <time>2025-06-16T15:54:01Z</time>
      </trkpt>
      <trkpt lat="45.8883" lon="1.2477">
        <ele>391</ele>
        <time>2025-06-16T15:54:02Z</time>
      </trkpt>
      <trkpt lat="45.88828" lon="1.24768">
        <ele>391</ele>
        <time>2025-06-16T15:54:03Z</time>
      </trkpt>
      <trkpt lat="45.88826" lon="1.24765">
        <ele>391</ele>
        <time>2025-06-16T15:54:04Z</time>
      </trkpt>
      <trkpt lat="45.88823" lon="1.24762">
        <ele>391.1</ele>
        <time>2025-06-16T15:54:05Z</time>
      </trkpt>
      <trkpt lat="45.88821" lon="1.24759">
        <ele>391.1</ele>
        <time>2025-06-16T15:54:06Z</time>
      </trkpt>
      <trkpt lat="45.88819" lon="1.24755">
        <ele>391.1</ele>
        <time>2025-06-16T15:54:07Z</time>
      </trkpt>
      <trkpt lat="45.88818" lon="1.24754">
        <ele>391.2</ele>
        <time>2025-06-16T15:54:08Z</time>
      </trkpt>
      <trkpt lat="45.88815" lon="1.24751">
        <ele>391.2</ele>
        <time>2025-06-16T15:54:09Z</time>
      </trkpt>
      <trkpt lat="45.88814" lon="1.24749">
        <ele>391.2</ele>
        <time>2025-06-16T15:54:10Z</time>
      </trkpt>
      <trkpt lat="45.88812" lon="1.24747">
        <ele>391.2</ele>
        <time>2025-06-16T15:54:11Z</time>
      </trkpt>
      <trkpt lat="45.8881" lon="1.24744">
        <ele>391.2</ele>
        <time>2025-06-16T15:54:12Z</time>
      </trkpt>
      <trkpt lat="45.88808" lon="1.24741">
        <ele>391.3</ele>
        <time>2025-06-16T15:54:13Z</time>
      </trkpt>
      <trkpt lat="45.88805" lon="1.24738">
        <ele>391.3</ele>
        <time>2025-06-16T15:54:14Z</time>
      </trkpt>
      <trkpt lat="45.88803" lon="1.24736">
        <ele>391.3</ele>
        <time>2025-06-16T15:54:15Z</time>
      </trkpt>
      <trkpt lat="45.88801" lon="1.24733">
        <ele>391.3</ele>
        <time>2025-06-16T15:54:16Z</time>
      </trkpt>
      <trkpt lat="45.88798" lon="1.2473">
        <ele>391.3</ele>
        <time>2025-06-16T15:54:17Z</time>
      </trkpt>
      <trkpt lat="45.88796" lon="1.24727">
        <ele>391.4</ele>
        <time>2025-06-16T15:54:18Z</time>
      </trkpt>
      <trkpt lat="45.8879" lon="1.24722">
        <ele>391.4</ele>
        <time>2025-06-16T15:54:19Z</time>
      </trkpt>
      <trkpt lat="45.88787" lon="1.2472">
        <ele>391.4</ele>
        <time>2025-06-16T15:54:21Z</time>
      </trkpt>
      <trkpt lat="45.88785" lon="1.24717">
        <ele>391.5</ele>
        <time>2025-06-16T15:54:22Z</time>
      </trkpt>
      <trkpt lat="45.88782" lon="1.24715">
        <ele>391.5</ele>
        <time>2025-06-16T15:54:23Z</time>
      </trkpt>
      <trkpt lat="45.88779" lon="1.24713">
        <ele>391.5</ele>
        <time>2025-06-16T15:54:24Z</time>
      </trkpt>
      <trkpt lat="45.88777" lon="1.24711">
        <ele>391.5</ele>
        <time>2025-06-16T15:54:25Z</time>
      </trkpt>
      <trkpt lat="45.88774" lon="1.24709">
        <ele>391.5</ele>
        <time>2025-06-16T15:54:26Z</time>
      </trkpt>
      <trkpt lat="45.88771" lon="1.24707">
        <ele>391.5</ele>
        <time>2025-06-16T15:54:27Z</time>
      </trkpt>
      <trkpt lat="45.88768" lon="1.24705">
        <ele>391.5</ele>
        <time>2025-06-16T15:54:28Z</time>
      </trkpt>
      <trkpt lat="45.88765" lon="1.24704">
        <ele>391.5</ele>
        <time>2025-06-16T15:54:29Z</time>
      </trkpt>
      <trkpt lat="45.88762" lon="1.24703">
        <ele>391.5</ele>
        <time>2025-06-16T15:54:30Z</time>
      </trkpt>
      <trkpt lat="45.88758" lon="1.24701">
        <ele>391.5</ele>
        <time>2025-06-16T15:54:31Z</time>
      </trkpt>
      <trkpt lat="45.88755" lon="1.247">
        <ele>391.5</ele>
        <time>2025-06-16T15:54:32Z</time>
      </trkpt>
      <trkpt lat="45.88752" lon="1.24698">
        <ele>391.5</ele>
        <time>2025-06-16T15:54:33Z</time>
      </trkpt>
      <trkpt lat="45.88748" lon="1.24696">
        <ele>391.5</ele>
        <time>2025-06-16T15:54:34Z</time>
      </trkpt>
      <trkpt lat="45.88744" lon="1.24694">
        <ele>391.5</ele>
        <time>2025-06-16T15:54:35Z</time>
      </trkpt>
      <trkpt lat="45.88741" lon="1.24693">
        <ele>391.5</ele>
        <time>2025-06-16T15:54:36Z</time>
      </trkpt>
      <trkpt lat="45.88737" lon="1.24691">
        <ele>391.5</ele>
        <time>2025-06-16T15:54:37Z</time>
      </trkpt>
      <trkpt lat="45.88734" lon="1.2469">
        <ele>391.5</ele>
        <time>2025-06-16T15:54:38Z</time>
      </trkpt>
      <trkpt lat="45.88731" lon="1.24688">
        <ele>391.5</ele>
        <time>2025-06-16T15:54:39Z</time>
      </trkpt>
      <trkpt lat="45.88728" lon="1.24687">
        <ele>391.4</ele>
        <time>2025-06-16T15:54:40Z</time>
      </trkpt>
      <trkpt lat="45.88721" lon="1.24684">
        <ele>391.4</ele>
        <time>2025-06-16T15:54:41Z</time>
      </trkpt>
      <trkpt lat="45.88718" lon="1.24683">
        <ele>391.3</ele>
        <time>2025-06-16T15:54:42Z</time>
      </trkpt>
      <trkpt lat="45.88711" lon="1.24679">
        <ele>391.2</ele>
        <time>2025-06-16T15:54:44Z</time>
      </trkpt>
      <trkpt lat="45.88708" lon="1.24678">
        <ele>391.1</ele>
        <time>2025-06-16T15:54:46Z</time>
      </trkpt>
      <trkpt lat="45.88701" lon="1.24675">
        <ele>391</ele>
        <time>2025-06-16T15:54:47Z</time>
      </trkpt>
      <trkpt lat="45.88698" lon="1.24673">
        <ele>391</ele>
        <time>2025-06-16T15:54:49Z</time>
      </trkpt>
      <trkpt lat="45.88695" lon="1.24672">
        <ele>390.9</ele>
        <time>2025-06-16T15:54:50Z</time>
      </trkpt>
      <trkpt lat="45.88691" lon="1.2467">
        <ele>390.9</ele>
        <time>2025-06-16T15:54:51Z</time>
      </trkpt>
      <trkpt lat="45.88688" lon="1.24669">
        <ele>390.8</ele>
        <time>2025-06-16T15:54:52Z</time>
      </trkpt>
      <trkpt lat="45.88685" lon="1.24667">
        <ele>390.8</ele>
        <time>2025-06-16T15:54:53Z</time>
      </trkpt>
      <trkpt lat="45.88681" lon="1.24665">
        <ele>390.7</ele>
        <time>2025-06-16T15:54:54Z</time>
      </trkpt>
      <trkpt lat="45.88677" lon="1.24663">
        <ele>390.6</ele>
        <time>2025-06-16T15:54:55Z</time>
      </trkpt>
      <trkpt lat="45.88672" lon="1.24661">
        <ele>390.6</ele>
        <time>2025-06-16T15:54:56Z</time>
      </trkpt>
      <trkpt lat="45.88668" lon="1.24659">
        <ele>390.5</ele>
        <time>2025-06-16T15:54:57Z</time>
      </trkpt>
      <trkpt lat="45.88663" lon="1.24657">
        <ele>390.4</ele>
        <time>2025-06-16T15:54:58Z</time>
      </trkpt>
      <trkpt lat="45.88658" lon="1.24655">
        <ele>390.3</ele>
        <time>2025-06-16T15:54:59Z</time>
      </trkpt>
      <trkpt lat="45.88647" lon="1.2465">
        <ele>390.1</ele>
        <time>2025-06-16T15:55:00Z</time>
      </trkpt>
      <trkpt lat="45.88642" lon="1.24647">
        <ele>390</ele>
        <time>2025-06-16T15:55:02Z</time>
      </trkpt>
      <trkpt lat="45.88637" lon="1.24644">
        <ele>389.9</ele>
        <time>2025-06-16T15:55:03Z</time>
      </trkpt>
      <trkpt lat="45.88625" lon="1.24639">
        <ele>389.8</ele>
        <time>2025-06-16T15:55:04Z</time>
      </trkpt>
      <trkpt lat="45.88614" lon="1.24632">
        <ele>389.6</ele>
        <time>2025-06-16T15:55:06Z</time>
      </trkpt>
      <trkpt lat="45.88609" lon="1.24629">
        <ele>389.5</ele>
        <time>2025-06-16T15:55:08Z</time>
      </trkpt>
      <trkpt lat="45.88603" lon="1.24626">
        <ele>389.4</ele>
        <time>2025-06-16T15:55:09Z</time>
      </trkpt>
      <trkpt lat="45.88598" lon="1.24623">
        <ele>389.3</ele>
        <time>2025-06-16T15:55:10Z</time>
      </trkpt>
      <trkpt lat="45.88592" lon="1.24619">
        <ele>389.2</ele>
        <time>2025-06-16T15:55:11Z</time>
      </trkpt>
      <trkpt lat="45.88587" lon="1.24617">
        <ele>389.1</ele>
        <time>2025-06-16T15:55:12Z</time>
      </trkpt>
      <trkpt lat="45.88582" lon="1.24613">
        <ele>389</ele>
        <time>2025-06-16T15:55:13Z</time>
      </trkpt>
      <trkpt lat="45.88576" lon="1.2461">
        <ele>389</ele>
        <time>2025-06-16T15:55:14Z</time>
      </trkpt>
      <trkpt lat="45.88571" lon="1.24607">
        <ele>388.9</ele>
        <time>2025-06-16T15:55:15Z</time>
      </trkpt>
      <trkpt lat="45.88567" lon="1.24604">
        <ele>388.8</ele>
        <time>2025-06-16T15:55:16Z</time>
      </trkpt>
      <trkpt lat="45.88563" lon="1.24602">
        <ele>388.8</ele>
        <time>2025-06-16T15:55:17Z</time>
      </trkpt>
      <trkpt lat="45.88554" lon="1.24595">
        <ele>388.6</ele>
        <time>2025-06-16T15:55:18Z</time>
      </trkpt>
      <trkpt lat="45.88544" lon="1.24588">
        <ele>388.4</ele>
        <time>2025-06-16T15:55:20Z</time>
      </trkpt>
      <trkpt lat="45.8854" lon="1.24584">
        <ele>388.3</ele>
        <time>2025-06-16T15:55:21Z</time>
      </trkpt>
      <trkpt lat="45.88536" lon="1.24578">
        <ele>388.2</ele>
        <time>2025-06-16T15:55:23Z</time>
      </trkpt>
      <trkpt lat="45.88528" lon="1.24567">
        <ele>387.9</ele>
        <time>2025-06-16T15:55:24Z</time>
      </trkpt>
      <trkpt lat="45.88523" lon="1.24561">
        <ele>387.7</ele>
        <time>2025-06-16T15:55:25Z</time>
      </trkpt>
      <trkpt lat="45.88519" lon="1.24556">
        <ele>387.6</ele>
        <time>2025-06-16T15:55:26Z</time>
      </trkpt>
      <trkpt lat="45.88515" lon="1.24549">
        <ele>387.4</ele>
        <time>2025-06-16T15:55:27Z</time>
      </trkpt>
      <trkpt lat="45.88511" lon="1.24542">
        <ele>387.2</ele>
        <time>2025-06-16T15:55:29Z</time>
      </trkpt>
      <trkpt lat="45.88501" lon="1.24526">
        <ele>386.8</ele>
        <time>2025-06-16T15:55:30Z</time>
      </trkpt>
      <trkpt lat="45.88496" lon="1.24518">
        <ele>386.6</ele>
        <time>2025-06-16T15:55:32Z</time>
      </trkpt>
      <trkpt lat="45.88486" lon="1.24502">
        <ele>386.3</ele>
        <time>2025-06-16T15:55:33Z</time>
      </trkpt>
      <trkpt lat="45.88481" lon="1.24494">
        <ele>386.2</ele>
        <time>2025-06-16T15:55:34Z</time>
      </trkpt>
      <trkpt lat="45.88476" lon="1.24486">
        <ele>386.1</ele>
        <time>2025-06-16T15:55:36Z</time>
      </trkpt>
      <trkpt lat="45.8847" lon="1.24477">
        <ele>386</ele>
        <time>2025-06-16T15:55:37Z</time>
      </trkpt>
      <trkpt lat="45.88465" lon="1.2447">
        <ele>385.9</ele>
        <time>2025-06-16T15:55:38Z</time>
      </trkpt>
      <trkpt lat="45.88459" lon="1.24463">
        <ele>385.8</ele>
        <time>2025-06-16T15:55:39Z</time>
      </trkpt>
      <trkpt lat="45.88448" lon="1.24449">
        <ele>385.7</ele>
        <time>2025-06-16T15:55:40Z</time>
      </trkpt>
      <trkpt lat="45.88437" lon="1.24435">
        <ele>385.5</ele>
        <time>2025-06-16T15:55:42Z</time>
      </trkpt>
      <trkpt lat="45.88432" lon="1.24428">
        <ele>385.5</ele>
        <time>2025-06-16T15:55:44Z</time>
      </trkpt>
      <trkpt lat="45.88426" lon="1.24422">
        <ele>385.5</ele>
        <time>2025-06-16T15:55:45Z</time>
      </trkpt>
      <trkpt lat="45.8842" lon="1.24416">
        <ele>385.5</ele>
        <time>2025-06-16T15:55:46Z</time>
      </trkpt>
      <trkpt lat="45.88408" lon="1.24404">
        <ele>385.4</ele>
        <time>2025-06-16T15:55:47Z</time>
      </trkpt>
      <trkpt lat="45.88403" lon="1.24398">
        <ele>385.4</ele>
        <time>2025-06-16T15:55:48Z</time>
      </trkpt>
      <trkpt lat="45.88398" lon="1.24391">
        <ele>385.3</ele>
        <time>2025-06-16T15:55:50Z</time>
      </trkpt>
      <trkpt lat="45.88392" lon="1.24385">
        <ele>385.2</ele>
        <time>2025-06-16T15:55:51Z</time>
      </trkpt>
      <trkpt lat="45.88381" lon="1.24373">
        <ele>385</ele>
        <time>2025-06-16T15:55:52Z</time>
      </trkpt>
      <trkpt lat="45.88371" lon="1.24361">
        <ele>384.8</ele>
        <time>2025-06-16T15:55:54Z</time>
      </trkpt>
      <trkpt lat="45.8836" lon="1.2435">
        <ele>384.6</ele>
        <time>2025-06-16T15:55:56Z</time>
      </trkpt>
      <trkpt lat="45.8835" lon="1.24338">
        <ele>384.4</ele>
        <time>2025-06-16T15:55:58Z</time>
      </trkpt>
      <trkpt lat="45.8834" lon="1.24326">
        <ele>384.2</ele>
        <time>2025-06-16T15:56:00Z</time>
      </trkpt>
      <trkpt lat="45.88334" lon="1.24322">
        <ele>384.1</ele>
        <time>2025-06-16T15:56:02Z</time>
      </trkpt>
      <trkpt lat="45.88321" lon="1.24325">
        <ele>383.8</ele>
        <time>2025-06-16T15:56:03Z</time>
      </trkpt>
      <trkpt lat="45.88316" lon="1.24331">
        <ele>383.7</ele>
        <time>2025-06-16T15:56:04Z</time>
      </trkpt>
      <trkpt lat="45.88311" lon="1.24337">
        <ele>383.6</ele>
        <time>2025-06-16T15:56:06Z</time>
      </trkpt>
      <trkpt lat="45.88302" lon="1.2435">
        <ele>383.6</ele>
        <time>2025-06-16T15:56:07Z</time>
      </trkpt>
      <trkpt lat="45.88298" lon="1.24357">
        <ele>383.6</ele>
        <time>2025-06-16T15:56:08Z</time>
      </trkpt>
      <trkpt lat="45.88291" lon="1.2437">
        <ele>383.5</ele>
        <time>2025-06-16T15:56:10Z</time>
      </trkpt>
      <trkpt lat="45.88287" lon="1.24377">
        <ele>383.4</ele>
        <time>2025-06-16T15:56:12Z</time>
      </trkpt>
      <trkpt lat="45.8828" lon="1.24391">
        <ele>383.3</ele>
        <time>2025-06-16T15:56:13Z</time>
      </trkpt>
      <trkpt lat="45.88276" lon="1.24397">
        <ele>383.2</ele>
        <time>2025-06-16T15:56:14Z</time>
      </trkpt>
      <trkpt lat="45.88273" lon="1.24403">
        <ele>383.2</ele>
        <time>2025-06-16T15:56:15Z</time>
      </trkpt>
      <trkpt lat="45.88269" lon="1.24409">
        <ele>383.1</ele>
        <time>2025-06-16T15:56:17Z</time>
      </trkpt>
      <trkpt lat="45.88265" lon="1.24416">
        <ele>382.9</ele>
        <time>2025-06-16T15:56:18Z</time>
      </trkpt>
      <trkpt lat="45.8826" lon="1.24423">
        <ele>382.7</ele>
        <time>2025-06-16T15:56:19Z</time>
      </trkpt>
      <trkpt lat="45.88256" lon="1.24428">
        <ele>382.6</ele>
        <time>2025-06-16T15:56:20Z</time>
      </trkpt>
      <trkpt lat="45.88252" lon="1.24435">
        <ele>382.4</ele>
        <time>2025-06-16T15:56:21Z</time>
      </trkpt>
      <trkpt lat="45.88248" lon="1.24441">
        <ele>382.2</ele>
        <time>2025-06-16T15:56:22Z</time>
      </trkpt>
      <trkpt lat="45.8824" lon="1.24453">
        <ele>381.7</ele>
        <time>2025-06-16T15:56:23Z</time>
      </trkpt>
      <trkpt lat="45.88235" lon="1.24459">
        <ele>381.4</ele>
        <time>2025-06-16T15:56:25Z</time>
      </trkpt>
      <trkpt lat="45.88229" lon="1.24466">
        <ele>381.1</ele>
        <time>2025-06-16T15:56:26Z</time>
      </trkpt>
      <trkpt lat="45.88218" lon="1.24479">
        <ele>380.3</ele>
        <time>2025-06-16T15:56:27Z</time>
      </trkpt>
      <trkpt lat="45.88212" lon="1.24486">
        <ele>379.9</ele>
        <time>2025-06-16T15:56:28Z</time>
      </trkpt>
      <trkpt lat="45.88207" lon="1.24491">
        <ele>379.5</ele>
        <time>2025-06-16T15:56:30Z</time>
      </trkpt>
      <trkpt lat="45.88193" lon="1.24501">
        <ele>378.4</ele>
        <time>2025-06-16T15:56:31Z</time>
      </trkpt>
      <trkpt lat="45.88186" lon="1.24508">
        <ele>377.8</ele>
        <time>2025-06-16T15:56:32Z</time>
      </trkpt>
      <trkpt lat="45.88179" lon="1.24515">
        <ele>377.2</ele>
        <time>2025-06-16T15:56:33Z</time>
      </trkpt>
      <trkpt lat="45.88161" lon="1.2453">
        <ele>376.1</ele>
        <time>2025-06-16T15:56:35Z</time>
      </trkpt>
      <trkpt lat="45.88153" lon="1.24537">
        <ele>375.6</ele>
        <time>2025-06-16T15:56:36Z</time>
      </trkpt>
      <trkpt lat="45.88145" lon="1.24543">
        <ele>375.2</ele>
        <time>2025-06-16T15:56:37Z</time>
      </trkpt>
      <trkpt lat="45.88139" lon="1.24548">
        <ele>374.8</ele>
        <time>2025-06-16T15:56:39Z</time>
      </trkpt>
      <trkpt lat="45.88134" lon="1.24552">
        <ele>374.5</ele>
        <time>2025-06-16T15:56:40Z</time>
      </trkpt>
      <trkpt lat="45.88129" lon="1.24551">
        <ele>374.3</ele>
        <time>2025-06-16T15:56:41Z</time>
      </trkpt>
      <trkpt lat="45.88122" lon="1.24546">
        <ele>374.1</ele>
        <time>2025-06-16T15:56:42Z</time>
      </trkpt>
      <trkpt lat="45.88118" lon="1.24543">
        <ele>374</ele>
        <time>2025-06-16T15:56:44Z</time>
      </trkpt>
      <trkpt lat="45.88116" lon="1.24541">
        <ele>374</ele>
        <time>2025-06-16T15:56:45Z</time>
      </trkpt>
      <trkpt lat="45.88113" lon="1.24539">
        <ele>374</ele>
        <time>2025-06-16T15:56:46Z</time>
      </trkpt>
      <trkpt lat="45.88109" lon="1.24537">
        <ele>373.9</ele>
        <time>2025-06-16T15:56:47Z</time>
      </trkpt>
      <trkpt lat="45.88106" lon="1.24535">
        <ele>373.9</ele>
        <time>2025-06-16T15:56:48Z</time>
      </trkpt>
      <trkpt lat="45.88102" lon="1.24534">
        <ele>373.9</ele>
        <time>2025-06-16T15:56:49Z</time>
      </trkpt>
      <trkpt lat="45.88099" lon="1.24532">
        <ele>373.9</ele>
        <time>2025-06-16T15:56:50Z</time>
      </trkpt>
      <trkpt lat="45.88094" lon="1.2453">
        <ele>373.9</ele>
        <time>2025-06-16T15:56:51Z</time>
      </trkpt>
      <trkpt lat="45.8809" lon="1.24528">
        <ele>373.9</ele>
        <time>2025-06-16T15:56:52Z</time>
      </trkpt>
      <trkpt lat="45.88086" lon="1.24526">
        <ele>373.9</ele>
        <time>2025-06-16T15:56:53Z</time>
      </trkpt>
      <trkpt lat="45.88081" lon="1.24522">
        <ele>373.9</ele>
        <time>2025-06-16T15:56:54Z</time>
      </trkpt>
      <trkpt lat="45.88076" lon="1.24516">
        <ele>373.9</ele>
        <time>2025-06-16T15:56:55Z</time>
      </trkpt>
      <trkpt lat="45.88071" lon="1.24512">
        <ele>373.9</ele>
        <time>2025-06-16T15:56:56Z</time>
      </trkpt>
      <trkpt lat="45.88068" lon="1.24506">
        <ele>373.9</ele>
        <time>2025-06-16T15:56:57Z</time>
      </trkpt>
      <trkpt lat="45.88061" lon="1.24495">
        <ele>374.2</ele>
        <time>2025-06-16T15:56:58Z</time>
      </trkpt>
      <trkpt lat="45.88057" lon="1.24489">
        <ele>374.4</ele>
        <time>2025-06-16T15:56:59Z</time>
      </trkpt>
      <trkpt lat="45.88053" lon="1.24482">
        <ele>374.6</ele>
        <time>2025-06-16T15:57:01Z</time>
      </trkpt>
      <trkpt lat="45.88048" lon="1.24476">
        <ele>374.7</ele>
        <time>2025-06-16T15:57:02Z</time>
      </trkpt>
      <trkpt lat="45.8804" lon="1.24464">
        <ele>374.6</ele>
        <time>2025-06-16T15:57:03Z</time>
      </trkpt>
      <trkpt lat="45.88036" lon="1.24457">
        <ele>374.4</ele>
        <time>2025-06-16T15:57:04Z</time>
      </trkpt>
      <trkpt lat="45.8803" lon="1.24444">
        <ele>373.9</ele>
        <time>2025-06-16T15:57:06Z</time>
      </trkpt>
      <trkpt lat="45.88026" lon="1.24437">
        <ele>373.5</ele>
        <time>2025-06-16T15:57:08Z</time>
      </trkpt>
      <trkpt lat="45.88023" lon="1.2443">
        <ele>373.1</ele>
        <time>2025-06-16T15:57:09Z</time>
      </trkpt>
      <trkpt lat="45.8802" lon="1.24424">
        <ele>372.8</ele>
        <time>2025-06-16T15:57:10Z</time>
      </trkpt>
      <trkpt lat="45.88016" lon="1.24419">
        <ele>372.3</ele>
        <time>2025-06-16T15:57:11Z</time>
      </trkpt>
      <trkpt lat="45.88006" lon="1.24413">
        <ele>371.3</ele>
        <time>2025-06-16T15:57:12Z</time>
      </trkpt>
      <trkpt lat="45.88" lon="1.24413">
        <ele>370.8</ele>
        <time>2025-06-16T15:57:14Z</time>
      </trkpt>
      <trkpt lat="45.87995" lon="1.24417">
        <ele>370.3</ele>
        <time>2025-06-16T15:57:15Z</time>
      </trkpt>
      <trkpt lat="45.87984" lon="1.24425">
        <ele>369.3</ele>
        <time>2025-06-16T15:57:16Z</time>
      </trkpt>
      <trkpt lat="45.87978" lon="1.24428">
        <ele>368.7</ele>
        <time>2025-06-16T15:57:18Z</time>
      </trkpt>
      <trkpt lat="45.87971" lon="1.24433">
        <ele>368.1</ele>
        <time>2025-06-16T15:57:19Z</time>
      </trkpt>
      <trkpt lat="45.87965" lon="1.24438">
        <ele>367.5</ele>
        <time>2025-06-16T15:57:20Z</time>
      </trkpt>
      <trkpt lat="45.87958" lon="1.24444">
        <ele>366.9</ele>
        <time>2025-06-16T15:57:21Z</time>
      </trkpt>
      <trkpt lat="45.87952" lon="1.2445">
        <ele>366.3</ele>
        <time>2025-06-16T15:57:22Z</time>
      </trkpt>
      <trkpt lat="45.87944" lon="1.24455">
        <ele>365.8</ele>
        <time>2025-06-16T15:57:23Z</time>
      </trkpt>
      <trkpt lat="45.87929" lon="1.24463">
        <ele>364.8</ele>
        <time>2025-06-16T15:57:24Z</time>
      </trkpt>
      <trkpt lat="45.87921" lon="1.24466">
        <ele>364.4</ele>
        <time>2025-06-16T15:57:25Z</time>
      </trkpt>
      <trkpt lat="45.87914" lon="1.24468">
        <ele>364.1</ele>
        <time>2025-06-16T15:57:27Z</time>
      </trkpt>
      <trkpt lat="45.87899" lon="1.24466">
        <ele>363.6</ele>
        <time>2025-06-16T15:57:28Z</time>
      </trkpt>
      <trkpt lat="45.87892" lon="1.24462">
        <ele>363.4</ele>
        <time>2025-06-16T15:57:30Z</time>
      </trkpt>
      <trkpt lat="45.87886" lon="1.24457">
        <ele>363.1</ele>
        <time>2025-06-16T15:57:31Z</time>
      </trkpt>
      <trkpt lat="45.8788" lon="1.24451">
        <ele>363</ele>
        <time>2025-06-16T15:57:32Z</time>
      </trkpt>
      <trkpt lat="45.87876" lon="1.24446">
        <ele>362.9</ele>
        <time>2025-06-16T15:57:33Z</time>
      </trkpt>
      <trkpt lat="45.87872" lon="1.2444">
        <ele>362.8</ele>
        <time>2025-06-16T15:57:34Z</time>
      </trkpt>
      <trkpt lat="45.87868" lon="1.24437">
        <ele>362.7</ele>
        <time>2025-06-16T15:57:35Z</time>
      </trkpt>
      <trkpt lat="45.87864" lon="1.24435">
        <ele>362.7</ele>
        <time>2025-06-16T15:57:36Z</time>
      </trkpt>
      <trkpt lat="45.87859" lon="1.24435">
        <ele>362.7</ele>
        <time>2025-06-16T15:57:37Z</time>
      </trkpt>
      <trkpt lat="45.87855" lon="1.24438">
        <ele>362.7</ele>
        <time>2025-06-16T15:57:38Z</time>
      </trkpt>
      <trkpt lat="45.87852" lon="1.24441">
        <ele>362.7</ele>
        <time>2025-06-16T15:57:39Z</time>
      </trkpt>
      <trkpt lat="45.87849" lon="1.24443">
        <ele>362.7</ele>
        <time>2025-06-16T15:57:40Z</time>
      </trkpt>
      <trkpt lat="45.87846" lon="1.24446">
        <ele>362.8</ele>
        <time>2025-06-16T15:57:41Z</time>
      </trkpt>
      <trkpt lat="45.87844" lon="1.24449">
        <ele>362.8</ele>
        <time>2025-06-16T15:57:42Z</time>
      </trkpt>
      <trkpt lat="45.87841" lon="1.24452">
        <ele>362.9</ele>
        <time>2025-06-16T15:57:43Z</time>
      </trkpt>
      <trkpt lat="45.87838" lon="1.24454">
        <ele>362.9</ele>
        <time>2025-06-16T15:57:44Z</time>
      </trkpt>
      <trkpt lat="45.87835" lon="1.24456">
        <ele>363</ele>
        <time>2025-06-16T15:57:45Z</time>
      </trkpt>
      <trkpt lat="45.87832" lon="1.24457">
        <ele>363.1</ele>
        <time>2025-06-16T15:57:46Z</time>
      </trkpt>
      <trkpt lat="45.87828" lon="1.24457">
        <ele>363.1</ele>
        <time>2025-06-16T15:57:47Z</time>
      </trkpt>
      <trkpt lat="45.87825" lon="1.24456">
        <ele>363.2</ele>
        <time>2025-06-16T15:57:48Z</time>
      </trkpt>
      <trkpt lat="45.87817" lon="1.24452">
        <ele>362.9</ele>
        <time>2025-06-16T15:57:50Z</time>
      </trkpt>
      <trkpt lat="45.87812" lon="1.24448">
        <ele>362.5</ele>
        <time>2025-06-16T15:57:52Z</time>
      </trkpt>
      <trkpt lat="45.87801" lon="1.24441">
        <ele>361.5</ele>
        <time>2025-06-16T15:57:53Z</time>
      </trkpt>
      <trkpt lat="45.87795" lon="1.24437">
        <ele>361</ele>
        <time>2025-06-16T15:57:54Z</time>
      </trkpt>
      <trkpt lat="45.87782" lon="1.2443">
        <ele>359.8</ele>
        <time>2025-06-16T15:57:56Z</time>
      </trkpt>
      <trkpt lat="45.87767" lon="1.24422">
        <ele>358.5</ele>
        <time>2025-06-16T15:57:58Z</time>
      </trkpt>
      <trkpt lat="45.8776" lon="1.24418">
        <ele>357.9</ele>
        <time>2025-06-16T15:57:59Z</time>
      </trkpt>
      <trkpt lat="45.87753" lon="1.24414">
        <ele>357.4</ele>
        <time>2025-06-16T15:58:00Z</time>
      </trkpt>
      <trkpt lat="45.8774" lon="1.24407">
        <ele>357.1</ele>
        <time>2025-06-16T15:58:02Z</time>
      </trkpt>
      <trkpt lat="45.87734" lon="1.24404">
        <ele>356.4</ele>
        <time>2025-06-16T15:58:04Z</time>
      </trkpt>
      <trkpt lat="45.87727" lon="1.244">
        <ele>355.9</ele>
        <time>2025-06-16T15:58:05Z</time>
      </trkpt>
      <trkpt lat="45.87721" lon="1.24396">
        <ele>355.3</ele>
        <time>2025-06-16T15:58:06Z</time>
      </trkpt>
      <trkpt lat="45.87716" lon="1.24392">
        <ele>354.8</ele>
        <time>2025-06-16T15:58:07Z</time>
      </trkpt>
      <trkpt lat="45.8771" lon="1.24388">
        <ele>354.3</ele>
        <time>2025-06-16T15:58:08Z</time>
      </trkpt>
      <trkpt lat="45.87701" lon="1.24383">
        <ele>353.6</ele>
        <time>2025-06-16T15:58:09Z</time>
      </trkpt>
      <trkpt lat="45.87697" lon="1.24382">
        <ele>353.3</ele>
        <time>2025-06-16T15:58:11Z</time>
      </trkpt>
      <trkpt lat="45.87689" lon="1.2438">
        <ele>352.9</ele>
        <time>2025-06-16T15:58:12Z</time>
      </trkpt>
      <trkpt lat="45.87685" lon="1.2438">
        <ele>352.7</ele>
        <time>2025-06-16T15:58:14Z</time>
      </trkpt>
      <trkpt lat="45.8768" lon="1.24382">
        <ele>352.3</ele>
        <time>2025-06-16T15:58:15Z</time>
      </trkpt>
      <trkpt lat="45.87675" lon="1.24383">
        <ele>351.8</ele>
        <time>2025-06-16T15:58:16Z</time>
      </trkpt>
      <trkpt lat="45.87661" lon="1.24386">
        <ele>350.4</ele>
        <time>2025-06-16T15:58:17Z</time>
      </trkpt>
      <trkpt lat="45.87654" lon="1.24388">
        <ele>349.5</ele>
        <time>2025-06-16T15:58:18Z</time>
      </trkpt>
      <trkpt lat="45.87646" lon="1.24391">
        <ele>348.5</ele>
        <time>2025-06-16T15:58:20Z</time>
      </trkpt>
      <trkpt lat="45.87638" lon="1.24396">
        <ele>347.4</ele>
        <time>2025-06-16T15:58:21Z</time>
      </trkpt>
      <trkpt lat="45.87629" lon="1.24403">
        <ele>346.3</ele>
        <time>2025-06-16T15:58:22Z</time>
      </trkpt>
      <trkpt lat="45.8762" lon="1.24411">
        <ele>345.1</ele>
        <time>2025-06-16T15:58:23Z</time>
      </trkpt>
      <trkpt lat="45.876" lon="1.24421">
        <ele>343</ele>
        <time>2025-06-16T15:58:24Z</time>
      </trkpt>
      <trkpt lat="45.87589" lon="1.24421">
        <ele>342.1</ele>
        <time>2025-06-16T15:58:25Z</time>
      </trkpt>
      <trkpt lat="45.87567" lon="1.24407">
        <ele>340.5</ele>
        <time>2025-06-16T15:58:27Z</time>
      </trkpt>
      <trkpt lat="45.87558" lon="1.24396">
        <ele>340.1</ele>
        <time>2025-06-16T15:58:28Z</time>
      </trkpt>
      <trkpt lat="45.87548" lon="1.24387">
        <ele>339.8</ele>
        <time>2025-06-16T15:58:29Z</time>
      </trkpt>
      <trkpt lat="45.87539" lon="1.24382">
        <ele>339.5</ele>
        <time>2025-06-16T15:58:30Z</time>
      </trkpt>
      <trkpt lat="45.87529" lon="1.24378">
        <ele>339.1</ele>
        <time>2025-06-16T15:58:31Z</time>
      </trkpt>
      <trkpt lat="45.87518" lon="1.24375">
        <ele>338.8</ele>
        <time>2025-06-16T15:58:32Z</time>
      </trkpt>
      <trkpt lat="45.87507" lon="1.24373">
        <ele>338.6</ele>
        <time>2025-06-16T15:58:33Z</time>
      </trkpt>
      <trkpt lat="45.87496" lon="1.24371">
        <ele>338.4</ele>
        <time>2025-06-16T15:58:34Z</time>
      </trkpt>
      <trkpt lat="45.87485" lon="1.24367">
        <ele>338.4</ele>
        <time>2025-06-16T15:58:35Z</time>
      </trkpt>
      <trkpt lat="45.87476" lon="1.24364">
        <ele>338.4</ele>
        <time>2025-06-16T15:58:36Z</time>
      </trkpt>
      <trkpt lat="45.87466" lon="1.24362">
        <ele>338.4</ele>
        <time>2025-06-16T15:58:37Z</time>
      </trkpt>
      <trkpt lat="45.87456" lon="1.24362">
        <ele>338.6</ele>
        <time>2025-06-16T15:58:38Z</time>
      </trkpt>
      <trkpt lat="45.87448" lon="1.24363">
        <ele>338.8</ele>
        <time>2025-06-16T15:58:39Z</time>
      </trkpt>
      <trkpt lat="45.8744" lon="1.24364">
        <ele>339.1</ele>
        <time>2025-06-16T15:58:40Z</time>
      </trkpt>
      <trkpt lat="45.87432" lon="1.24364">
        <ele>339.4</ele>
        <time>2025-06-16T15:58:41Z</time>
      </trkpt>
      <trkpt lat="45.87426" lon="1.24364">
        <ele>339.7</ele>
        <time>2025-06-16T15:58:42Z</time>
      </trkpt>
      <trkpt lat="45.87419" lon="1.24363">
        <ele>340</ele>
        <time>2025-06-16T15:58:43Z</time>
      </trkpt>
      <trkpt lat="45.87414" lon="1.24364">
        <ele>340.2</ele>
        <time>2025-06-16T15:58:44Z</time>
      </trkpt>
      <trkpt lat="45.87404" lon="1.24364">
        <ele>340.8</ele>
        <time>2025-06-16T15:58:46Z</time>
      </trkpt>
      <trkpt lat="45.87399" lon="1.24363">
        <ele>341.1</ele>
        <time>2025-06-16T15:58:47Z</time>
      </trkpt>
      <trkpt lat="45.87394" lon="1.24364">
        <ele>341.4</ele>
        <time>2025-06-16T15:58:48Z</time>
      </trkpt>
      <trkpt lat="45.87386" lon="1.24363">
        <ele>341.9</ele>
        <time>2025-06-16T15:58:50Z</time>
      </trkpt>
      <trkpt lat="45.87378" lon="1.24363">
        <ele>342.4</ele>
        <time>2025-06-16T15:58:52Z</time>
      </trkpt>
      <trkpt lat="45.87374" lon="1.24363">
        <ele>342.6</ele>
        <time>2025-06-16T15:58:53Z</time>
      </trkpt>
      <trkpt lat="45.8737" lon="1.24363">
        <ele>342.8</ele>
        <time>2025-06-16T15:58:54Z</time>
      </trkpt>
      <trkpt lat="45.87367" lon="1.24363">
        <ele>342.9</ele>
        <time>2025-06-16T15:58:55Z</time>
      </trkpt>
      <trkpt lat="45.87363" lon="1.24363">
        <ele>343.1</ele>
        <time>2025-06-16T15:58:56Z</time>
      </trkpt>
      <trkpt lat="45.87359" lon="1.24363">
        <ele>343.2</ele>
        <time>2025-06-16T15:58:57Z</time>
      </trkpt>
      <trkpt lat="45.87354" lon="1.24362">
        <ele>343.3</ele>
        <time>2025-06-16T15:58:58Z</time>
      </trkpt>
      <trkpt lat="45.8735" lon="1.24361">
        <ele>343.5</ele>
        <time>2025-06-16T15:58:59Z</time>
      </trkpt>
      <trkpt lat="45.87346" lon="1.24359">
        <ele>343.6</ele>
        <time>2025-06-16T15:59:00Z</time>
      </trkpt>
      <trkpt lat="45.87338" lon="1.24353">
        <ele>343.9</ele>
        <time>2025-06-16T15:59:02Z</time>
      </trkpt>
      <trkpt lat="45.87332" lon="1.24345">
        <ele>344.1</ele>
        <time>2025-06-16T15:59:04Z</time>
      </trkpt>
      <trkpt lat="45.8733" lon="1.2434">
        <ele>344.3</ele>
        <time>2025-06-16T15:59:05Z</time>
      </trkpt>
      <trkpt lat="45.87329" lon="1.24335">
        <ele>344.4</ele>
        <time>2025-06-16T15:59:06Z</time>
      </trkpt>
      <trkpt lat="45.87325" lon="1.24326">
        <ele>344.7</ele>
        <time>2025-06-16T15:59:08Z</time>
      </trkpt>
      <trkpt lat="45.87323" lon="1.24322">
        <ele>344.9</ele>
        <time>2025-06-16T15:59:09Z</time>
      </trkpt>
      <trkpt lat="45.8732" lon="1.24319">
        <ele>345.1</ele>
        <time>2025-06-16T15:59:10Z</time>
      </trkpt>
      <trkpt lat="45.87316" lon="1.24319">
        <ele>345</ele>
        <time>2025-06-16T15:59:11Z</time>
      </trkpt>
      <trkpt lat="45.87312" lon="1.2432">
        <ele>344.9</ele>
        <time>2025-06-16T15:59:12Z</time>
      </trkpt>
      <trkpt lat="45.87304" lon="1.24326">
        <ele>344.5</ele>
        <time>2025-06-16T15:59:14Z</time>
      </trkpt>
      <trkpt lat="45.87301" lon="1.2433">
        <ele>344.3</ele>
        <time>2025-06-16T15:59:15Z</time>
      </trkpt>
      <trkpt lat="45.87298" lon="1.24334">
        <ele>344.1</ele>
        <time>2025-06-16T15:59:17Z</time>
      </trkpt>
      <trkpt lat="45.87295" lon="1.24339">
        <ele>343.8</ele>
        <time>2025-06-16T15:59:18Z</time>
      </trkpt>
      <trkpt lat="45.87293" lon="1.24346">
        <ele>343.6</ele>
        <time>2025-06-16T15:59:19Z</time>
      </trkpt>
      <trkpt lat="45.87291" lon="1.24362">
        <ele>342.4</ele>
        <time>2025-06-16T15:59:20Z</time>
      </trkpt>
      <trkpt lat="45.87291" lon="1.24371">
        <ele>341.7</ele>
        <time>2025-06-16T15:59:21Z</time>
      </trkpt>
      <trkpt lat="45.87292" lon="1.2438">
        <ele>341.1</ele>
        <time>2025-06-16T15:59:22Z</time>
      </trkpt>
      <trkpt lat="45.87296" lon="1.244">
        <ele>339.8</ele>
        <time>2025-06-16T15:59:24Z</time>
      </trkpt>
      <trkpt lat="45.87297" lon="1.2441">
        <ele>339.1</ele>
        <time>2025-06-16T15:59:25Z</time>
      </trkpt>
      <trkpt lat="45.87297" lon="1.2442">
        <ele>338.7</ele>
        <time>2025-06-16T15:59:26Z</time>
      </trkpt>
      <trkpt lat="45.87294" lon="1.2443">
        <ele>338.4</ele>
        <time>2025-06-16T15:59:27Z</time>
      </trkpt>
      <trkpt lat="45.87289" lon="1.2444">
        <ele>338.1</ele>
        <time>2025-06-16T15:59:28Z</time>
      </trkpt>
      <trkpt lat="45.87283" lon="1.24448">
        <ele>337.9</ele>
        <time>2025-06-16T15:59:29Z</time>
      </trkpt>
      <trkpt lat="45.87275" lon="1.24455">
        <ele>337.7</ele>
        <time>2025-06-16T15:59:30Z</time>
      </trkpt>
      <trkpt lat="45.87261" lon="1.24466">
        <ele>337.6</ele>
        <time>2025-06-16T15:59:32Z</time>
      </trkpt>
      <trkpt lat="45.87253" lon="1.2447">
        <ele>337.6</ele>
        <time>2025-06-16T15:59:34Z</time>
      </trkpt>
      <trkpt lat="45.87246" lon="1.24472">
        <ele>337.7</ele>
        <time>2025-06-16T15:59:35Z</time>
      </trkpt>
      <trkpt lat="45.87238" lon="1.24474">
        <ele>338</ele>
        <time>2025-06-16T15:59:36Z</time>
      </trkpt>
      <trkpt lat="45.87231" lon="1.24476">
        <ele>338.3</ele>
        <time>2025-06-16T15:59:37Z</time>
      </trkpt>
      <trkpt lat="45.87225" lon="1.24476">
        <ele>338.6</ele>
        <time>2025-06-16T15:59:38Z</time>
      </trkpt>
      <trkpt lat="45.87219" lon="1.24477">
        <ele>339</ele>
        <time>2025-06-16T15:59:39Z</time>
      </trkpt>
      <trkpt lat="45.87213" lon="1.24476">
        <ele>339.4</ele>
        <time>2025-06-16T15:59:40Z</time>
      </trkpt>
      <trkpt lat="45.87208" lon="1.24476">
        <ele>339.7</ele>
        <time>2025-06-16T15:59:41Z</time>
      </trkpt>
      <trkpt lat="45.87203" lon="1.24474">
        <ele>340</ele>
        <time>2025-06-16T15:59:42Z</time>
      </trkpt>
      <trkpt lat="45.87199" lon="1.24473">
        <ele>340.3</ele>
        <time>2025-06-16T15:59:43Z</time>
      </trkpt>
      <trkpt lat="45.8719" lon="1.2447">
        <ele>340.8</ele>
        <time>2025-06-16T15:59:44Z</time>
      </trkpt>
      <trkpt lat="45.87185" lon="1.24468">
        <ele>340.9</ele>
        <time>2025-06-16T15:59:46Z</time>
      </trkpt>
      <trkpt lat="45.87181" lon="1.24466">
        <ele>341.1</ele>
        <time>2025-06-16T15:59:47Z</time>
      </trkpt>
      <trkpt lat="45.87177" lon="1.24463">
        <ele>341.2</ele>
        <time>2025-06-16T15:59:48Z</time>
      </trkpt>
      <trkpt lat="45.87174" lon="1.2446">
        <ele>341.3</ele>
        <time>2025-06-16T15:59:49Z</time>
      </trkpt>
      <trkpt lat="45.87169" lon="1.24457">
        <ele>341.3</ele>
        <time>2025-06-16T15:59:50Z</time>
      </trkpt>
      <trkpt lat="45.87165" lon="1.24453">
        <ele>341.2</ele>
        <time>2025-06-16T15:59:51Z</time>
      </trkpt>
      <trkpt lat="45.8716" lon="1.24449">
        <ele>341</ele>
        <time>2025-06-16T15:59:52Z</time>
      </trkpt>
      <trkpt lat="45.87152" lon="1.24441">
        <ele>340.6</ele>
        <time>2025-06-16T15:59:53Z</time>
      </trkpt>
      <trkpt lat="45.87148" lon="1.24436">
        <ele>340.2</ele>
        <time>2025-06-16T15:59:55Z</time>
      </trkpt>
      <trkpt lat="45.8714" lon="1.24424">
        <ele>339.5</ele>
        <time>2025-06-16T15:59:56Z</time>
      </trkpt>
      <trkpt lat="45.87132" lon="1.24408">
        <ele>338.7</ele>
        <time>2025-06-16T15:59:58Z</time>
      </trkpt>
      <trkpt lat="45.87128" lon="1.24399">
        <ele>338.3</ele>
        <time>2025-06-16T15:59:59Z</time>
      </trkpt>
      <trkpt lat="45.87125" lon="1.24389">
        <ele>338.3</ele>
        <time>2025-06-16T16:00:00Z</time>
      </trkpt>
      <trkpt lat="45.87122" lon="1.24378">
        <ele>338.1</ele>
        <time>2025-06-16T16:00:01Z</time>
      </trkpt>
      <trkpt lat="45.87119" lon="1.24368">
        <ele>338.1</ele>
        <time>2025-06-16T16:00:02Z</time>
      </trkpt>
      <trkpt lat="45.87117" lon="1.24357">
        <ele>338.2</ele>
        <time>2025-06-16T16:00:04Z</time>
      </trkpt>
      <trkpt lat="45.87116" lon="1.24336">
        <ele>338.7</ele>
        <time>2025-06-16T16:00:05Z</time>
      </trkpt>
      <trkpt lat="45.87116" lon="1.24326">
        <ele>339.1</ele>
        <time>2025-06-16T16:00:06Z</time>
      </trkpt>
      <trkpt lat="45.87115" lon="1.24309">
        <ele>339.8</ele>
        <time>2025-06-16T16:00:08Z</time>
      </trkpt>
      <trkpt lat="45.87115" lon="1.24301">
        <ele>340.2</ele>
        <time>2025-06-16T16:00:09Z</time>
      </trkpt>
      <trkpt lat="45.87117" lon="1.24288">
        <ele>340.8</ele>
        <time>2025-06-16T16:00:11Z</time>
      </trkpt>
      <trkpt lat="45.87117" lon="1.24281">
        <ele>341</ele>
        <time>2025-06-16T16:00:12Z</time>
      </trkpt>
      <trkpt lat="45.87118" lon="1.24269">
        <ele>341.5</ele>
        <time>2025-06-16T16:00:14Z</time>
      </trkpt>
      <trkpt lat="45.87117" lon="1.24263">
        <ele>341.7</ele>
        <time>2025-06-16T16:00:16Z</time>
      </trkpt>
      <trkpt lat="45.87115" lon="1.24252">
        <ele>342</ele>
        <time>2025-06-16T16:00:17Z</time>
      </trkpt>
      <trkpt lat="45.87114" lon="1.24247">
        <ele>342.2</ele>
        <time>2025-06-16T16:00:18Z</time>
      </trkpt>
      <trkpt lat="45.87113" lon="1.24242">
        <ele>342.4</ele>
        <time>2025-06-16T16:00:20Z</time>
      </trkpt>
      <trkpt lat="45.87112" lon="1.24237">
        <ele>342.5</ele>
        <time>2025-06-16T16:00:21Z</time>
      </trkpt>
      <trkpt lat="45.87111" lon="1.24233">
        <ele>342.7</ele>
        <time>2025-06-16T16:00:22Z</time>
      </trkpt>
      <trkpt lat="45.87107" lon="1.24226">
        <ele>342.9</ele>
        <time>2025-06-16T16:00:23Z</time>
      </trkpt>
      <trkpt lat="45.87105" lon="1.2422">
        <ele>343</ele>
        <time>2025-06-16T16:00:25Z</time>
      </trkpt>
      <trkpt lat="45.87104" lon="1.24218">
        <ele>343</ele>
        <time>2025-06-16T16:00:26Z</time>
      </trkpt>
      <trkpt lat="45.87103" lon="1.24216">
        <ele>343</ele>
        <time>2025-06-16T16:00:27Z</time>
      </trkpt>
      <trkpt lat="45.87101" lon="1.24212">
        <ele>343</ele>
        <time>2025-06-16T16:00:28Z</time>
      </trkpt>
      <trkpt lat="45.87099" lon="1.24208">
        <ele>343</ele>
        <time>2025-06-16T16:00:29Z</time>
      </trkpt>
      <trkpt lat="45.87092" lon="1.242">
        <ele>342.9</ele>
        <time>2025-06-16T16:00:30Z</time>
      </trkpt>
      <trkpt lat="45.87086" lon="1.24195">
        <ele>342.8</ele>
        <time>2025-06-16T16:00:32Z</time>
      </trkpt>
      <trkpt lat="45.87084" lon="1.24193">
        <ele>342.7</ele>
        <time>2025-06-16T16:00:33Z</time>
      </trkpt>
      <trkpt lat="45.87082" lon="1.24192">
        <ele>342.7</ele>
        <time>2025-06-16T16:00:35Z</time>
      </trkpt>
      <trkpt lat="45.87081" lon="1.24192">
        <ele>342.7</ele>
        <time>2025-06-16T16:00:36Z</time>
      </trkpt>
      <trkpt lat="45.87081" lon="1.24191">
        <ele>342.6</ele>
        <time>2025-06-16T16:00:38Z</time>
      </trkpt>
      <trkpt lat="45.8708" lon="1.24191">
        <ele>342.6</ele>
        <time>2025-06-16T16:00:39Z</time>
      </trkpt>
      <trkpt lat="45.87074" lon="1.24187">
        <ele>342.6</ele>
        <time>2025-06-16T16:00:40Z</time>
      </trkpt>
      <trkpt lat="45.87071" lon="1.24184">
        <ele>342.5</ele>
        <time>2025-06-16T16:00:41Z</time>
      </trkpt>
      <trkpt lat="45.87067" lon="1.2418">
        <ele>342.5</ele>
        <time>2025-06-16T16:00:43Z</time>
      </trkpt>
      <trkpt lat="45.8706" lon="1.24172">
        <ele>342.5</ele>
        <time>2025-06-16T16:00:44Z</time>
      </trkpt>
      <trkpt lat="45.87057" lon="1.24168">
        <ele>342.5</ele>
        <time>2025-06-16T16:00:46Z</time>
      </trkpt>
      <trkpt lat="45.87052" lon="1.24162">
        <ele>342.6</ele>
        <time>2025-06-16T16:00:47Z</time>
      </trkpt>
      <trkpt lat="45.87049" lon="1.2416">
        <ele>342.6</ele>
        <time>2025-06-16T16:00:48Z</time>
      </trkpt>
      <trkpt lat="45.87046" lon="1.24157">
        <ele>342.7</ele>
        <time>2025-06-16T16:00:49Z</time>
      </trkpt>
      <trkpt lat="45.87043" lon="1.24154">
        <ele>342.7</ele>
        <time>2025-06-16T16:00:50Z</time>
      </trkpt>
      <trkpt lat="45.87037" lon="1.24148">
        <ele>342.8</ele>
        <time>2025-06-16T16:00:52Z</time>
      </trkpt>
      <trkpt lat="45.87034" lon="1.24145">
        <ele>342.9</ele>
        <time>2025-06-16T16:00:53Z</time>
      </trkpt>
      <trkpt lat="45.87031" lon="1.24142">
        <ele>343</ele>
        <time>2025-06-16T16:00:54Z</time>
      </trkpt>
      <trkpt lat="45.87028" lon="1.24138">
        <ele>343.1</ele>
        <time>2025-06-16T16:00:55Z</time>
      </trkpt>
      <trkpt lat="45.87024" lon="1.24136">
        <ele>343.1</ele>
        <time>2025-06-16T16:00:56Z</time>
      </trkpt>
      <trkpt lat="45.87022" lon="1.24134">
        <ele>343.2</ele>
        <time>2025-06-16T16:00:57Z</time>
      </trkpt>
      <trkpt lat="45.87019" lon="1.24131">
        <ele>343.2</ele>
        <time>2025-06-16T16:00:58Z</time>
      </trkpt>
      <trkpt lat="45.87016" lon="1.24128">
        <ele>343.3</ele>
        <time>2025-06-16T16:00:59Z</time>
      </trkpt>
      <trkpt lat="45.87012" lon="1.24125">
        <ele>343.4</ele>
        <time>2025-06-16T16:01:00Z</time>
      </trkpt>
      <trkpt lat="45.87008" lon="1.24122">
        <ele>343.4</ele>
        <time>2025-06-16T16:01:01Z</time>
      </trkpt>
      <trkpt lat="45.87005" lon="1.24119">
        <ele>343.5</ele>
        <time>2025-06-16T16:01:02Z</time>
      </trkpt>
      <trkpt lat="45.87001" lon="1.24116">
        <ele>343.6</ele>
        <time>2025-06-16T16:01:03Z</time>
      </trkpt>
      <trkpt lat="45.86995" lon="1.2411">
        <ele>343.7</ele>
        <time>2025-06-16T16:01:05Z</time>
      </trkpt>
      <trkpt lat="45.86992" lon="1.24107">
        <ele>343.8</ele>
        <time>2025-06-16T16:01:06Z</time>
      </trkpt>
      <trkpt lat="45.86985" lon="1.24103">
        <ele>344.2</ele>
        <time>2025-06-16T16:01:08Z</time>
      </trkpt>
      <trkpt lat="45.86982" lon="1.24102">
        <ele>344.4</ele>
        <time>2025-06-16T16:01:09Z</time>
      </trkpt>
      <trkpt lat="45.86975" lon="1.24098">
        <ele>344.7</ele>
        <time>2025-06-16T16:01:11Z</time>
      </trkpt>
      <trkpt lat="45.86972" lon="1.24097">
        <ele>344.9</ele>
        <time>2025-06-16T16:01:13Z</time>
      </trkpt>
      <trkpt lat="45.86969" lon="1.24096">
        <ele>345.1</ele>
        <time>2025-06-16T16:01:14Z</time>
      </trkpt>
      <trkpt lat="45.86966" lon="1.24094">
        <ele>345.3</ele>
        <time>2025-06-16T16:01:15Z</time>
      </trkpt>
      <trkpt lat="45.86962" lon="1.24092">
        <ele>345.4</ele>
        <time>2025-06-16T16:01:16Z</time>
      </trkpt>
      <trkpt lat="45.86959" lon="1.24091">
        <ele>345.6</ele>
        <time>2025-06-16T16:01:17Z</time>
      </trkpt>
      <trkpt lat="45.86955" lon="1.24089">
        <ele>345.7</ele>
        <time>2025-06-16T16:01:18Z</time>
      </trkpt>
      <trkpt lat="45.86953" lon="1.24088">
        <ele>345.8</ele>
        <time>2025-06-16T16:01:19Z</time>
      </trkpt>
      <trkpt lat="45.8695" lon="1.24086">
        <ele>345.8</ele>
        <time>2025-06-16T16:01:20Z</time>
      </trkpt>
      <trkpt lat="45.86946" lon="1.24085">
        <ele>345.8</ele>
        <time>2025-06-16T16:01:21Z</time>
      </trkpt>
      <trkpt lat="45.86943" lon="1.24083">
        <ele>345.8</ele>
        <time>2025-06-16T16:01:22Z</time>
      </trkpt>
      <trkpt lat="45.86939" lon="1.24081">
        <ele>345.7</ele>
        <time>2025-06-16T16:01:23Z</time>
      </trkpt>
      <trkpt lat="45.86936" lon="1.24079">
        <ele>345.6</ele>
        <time>2025-06-16T16:01:24Z</time>
      </trkpt>
      <trkpt lat="45.86932" lon="1.24077">
        <ele>345.5</ele>
        <time>2025-06-16T16:01:25Z</time>
      </trkpt>
      <trkpt lat="45.86928" lon="1.24075">
        <ele>345.4</ele>
        <time>2025-06-16T16:01:26Z</time>
      </trkpt>
      <trkpt lat="45.8692" lon="1.24071">
        <ele>345.2</ele>
        <time>2025-06-16T16:01:27Z</time>
      </trkpt>
      <trkpt lat="45.86915" lon="1.24068">
        <ele>345.1</ele>
        <time>2025-06-16T16:01:29Z</time>
      </trkpt>
      <trkpt lat="45.8691" lon="1.24066">
        <ele>345.1</ele>
        <time>2025-06-16T16:01:30Z</time>
      </trkpt>
      <trkpt lat="45.86906" lon="1.24064">
        <ele>345.1</ele>
        <time>2025-06-16T16:01:31Z</time>
      </trkpt>
      <trkpt lat="45.86902" lon="1.24062">
        <ele>345.1</ele>
        <time>2025-06-16T16:01:32Z</time>
      </trkpt>
      <trkpt lat="45.86898" lon="1.24059">
        <ele>345.1</ele>
        <time>2025-06-16T16:01:33Z</time>
      </trkpt>
      <trkpt lat="45.86893" lon="1.24056">
        <ele>345.2</ele>
        <time>2025-06-16T16:01:34Z</time>
      </trkpt>
      <trkpt lat="45.8689" lon="1.24055">
        <ele>345.3</ele>
        <time>2025-06-16T16:01:35Z</time>
      </trkpt>
      <trkpt lat="45.86886" lon="1.24052">
        <ele>345.4</ele>
        <time>2025-06-16T16:01:36Z</time>
      </trkpt>
      <trkpt lat="45.86882" lon="1.24049">
        <ele>345.5</ele>
        <time>2025-06-16T16:01:37Z</time>
      </trkpt>
      <trkpt lat="45.86878" lon="1.24046">
        <ele>345.6</ele>
        <time>2025-06-16T16:01:38Z</time>
      </trkpt>
      <trkpt lat="45.86874" lon="1.24044">
        <ele>345.7</ele>
        <time>2025-06-16T16:01:39Z</time>
      </trkpt>
      <trkpt lat="45.86871" lon="1.24043">
        <ele>345.8</ele>
        <time>2025-06-16T16:01:40Z</time>
      </trkpt>
      <trkpt lat="45.86868" lon="1.24041">
        <ele>346</ele>
        <time>2025-06-16T16:01:41Z</time>
      </trkpt>
      <trkpt lat="45.86865" lon="1.24039">
        <ele>346.2</ele>
        <time>2025-06-16T16:01:42Z</time>
      </trkpt>
      <trkpt lat="45.86862" lon="1.24036">
        <ele>346.3</ele>
        <time>2025-06-16T16:01:43Z</time>
      </trkpt>
      <trkpt lat="45.8686" lon="1.24033">
        <ele>346.5</ele>
        <time>2025-06-16T16:01:44Z</time>
      </trkpt>
      <trkpt lat="45.8686" lon="1.24032">
        <ele>346.6</ele>
        <time>2025-06-16T16:01:45Z</time>
      </trkpt>
      <trkpt lat="45.86859" lon="1.24028">
        <ele>346.9</ele>
        <time>2025-06-16T16:01:46Z</time>
      </trkpt>
      <trkpt lat="45.86859" lon="1.24026">
        <ele>347</ele>
        <time>2025-06-16T16:01:47Z</time>
      </trkpt>
      <trkpt lat="45.86859" lon="1.24022">
        <ele>347.1</ele>
        <time>2025-06-16T16:01:48Z</time>
      </trkpt>
      <trkpt lat="45.86859" lon="1.24018">
        <ele>347.2</ele>
        <time>2025-06-16T16:01:49Z</time>
      </trkpt>
      <trkpt lat="45.86859" lon="1.24014">
        <ele>347.3</ele>
        <time>2025-06-16T16:01:50Z</time>
      </trkpt>
      <trkpt lat="45.86859" lon="1.2401">
        <ele>347.4</ele>
        <time>2025-06-16T16:01:51Z</time>
      </trkpt>
      <trkpt lat="45.86859" lon="1.24006">
        <ele>347.6</ele>
        <time>2025-06-16T16:01:52Z</time>
      </trkpt>
      <trkpt lat="45.86858" lon="1.24">
        <ele>347.7</ele>
        <time>2025-06-16T16:01:53Z</time>
      </trkpt>
      <trkpt lat="45.86858" lon="1.23999">
        <ele>347.8</ele>
        <time>2025-06-16T16:01:54Z</time>
      </trkpt>
      <trkpt lat="45.86858" lon="1.23995">
        <ele>347.9</ele>
        <time>2025-06-16T16:01:55Z</time>
      </trkpt>
      <trkpt lat="45.86857" lon="1.23991">
        <ele>348</ele>
        <time>2025-06-16T16:01:56Z</time>
      </trkpt>
      <trkpt lat="45.86857" lon="1.23985">
        <ele>348.1</ele>
        <time>2025-06-16T16:01:57Z</time>
      </trkpt>
      <trkpt lat="45.86857" lon="1.23983">
        <ele>348.1</ele>
        <time>2025-06-16T16:01:58Z</time>
      </trkpt>
      <trkpt lat="45.86857" lon="1.23979">
        <ele>348.2</ele>
        <time>2025-06-16T16:01:59Z</time>
      </trkpt>
      <trkpt lat="45.86857" lon="1.23977">
        <ele>348.3</ele>
        <time>2025-06-16T16:02:00Z</time>
      </trkpt>
      <trkpt lat="45.86857" lon="1.23973">
        <ele>348.4</ele>
        <time>2025-06-16T16:02:01Z</time>
      </trkpt>
      <trkpt lat="45.86856" lon="1.23971">
        <ele>348.4</ele>
        <time>2025-06-16T16:02:02Z</time>
      </trkpt>
      <trkpt lat="45.86851" lon="1.23968">
        <ele>348.2</ele>
        <time>2025-06-16T16:02:03Z</time>
      </trkpt>
      <trkpt lat="45.86848" lon="1.23968">
        <ele>348</ele>
        <time>2025-06-16T16:02:04Z</time>
      </trkpt>
      <trkpt lat="45.8684" lon="1.23968">
        <ele>347.7</ele>
        <time>2025-06-16T16:02:06Z</time>
      </trkpt>
      <trkpt lat="45.86836" lon="1.23968">
        <ele>347.6</ele>
        <time>2025-06-16T16:02:08Z</time>
      </trkpt>
      <trkpt lat="45.86831" lon="1.23969">
        <ele>347.4</ele>
        <time>2025-06-16T16:02:09Z</time>
      </trkpt>
      <trkpt lat="45.86826" lon="1.2397">
        <ele>347.2</ele>
        <time>2025-06-16T16:02:10Z</time>
      </trkpt>
      <trkpt lat="45.86821" lon="1.23969">
        <ele>347.1</ele>
        <time>2025-06-16T16:02:11Z</time>
      </trkpt>
      <trkpt lat="45.86817" lon="1.23969">
        <ele>346.9</ele>
        <time>2025-06-16T16:02:12Z</time>
      </trkpt>
      <trkpt lat="45.86812" lon="1.23969">
        <ele>346.8</ele>
        <time>2025-06-16T16:02:13Z</time>
      </trkpt>
      <trkpt lat="45.86807" lon="1.2397">
        <ele>346.6</ele>
        <time>2025-06-16T16:02:14Z</time>
      </trkpt>
      <trkpt lat="45.86803" lon="1.23969">
        <ele>346.5</ele>
        <time>2025-06-16T16:02:15Z</time>
      </trkpt>
      <trkpt lat="45.86798" lon="1.23969">
        <ele>346.4</ele>
        <time>2025-06-16T16:02:16Z</time>
      </trkpt>
      <trkpt lat="45.86793" lon="1.23969">
        <ele>346.3</ele>
        <time>2025-06-16T16:02:17Z</time>
      </trkpt>
      <trkpt lat="45.86788" lon="1.23969">
        <ele>346.2</ele>
        <time>2025-06-16T16:02:18Z</time>
      </trkpt>
      <trkpt lat="45.86778" lon="1.23967">
        <ele>346</ele>
        <time>2025-06-16T16:02:19Z</time>
      </trkpt>
      <trkpt lat="45.86774" lon="1.23967">
        <ele>345.9</ele>
        <time>2025-06-16T16:02:21Z</time>
      </trkpt>
      <trkpt lat="45.86769" lon="1.23967">
        <ele>345.9</ele>
        <time>2025-06-16T16:02:22Z</time>
      </trkpt>
      <trkpt lat="45.86764" lon="1.23968">
        <ele>345.8</ele>
        <time>2025-06-16T16:02:23Z</time>
      </trkpt>
      <trkpt lat="45.8676" lon="1.23969">
        <ele>345.8</ele>
        <time>2025-06-16T16:02:24Z</time>
      </trkpt>
      <trkpt lat="45.86756" lon="1.23968">
        <ele>345.8</ele>
        <time>2025-06-16T16:02:25Z</time>
      </trkpt>
      <trkpt lat="45.86753" lon="1.23966">
        <ele>345.8</ele>
        <time>2025-06-16T16:02:26Z</time>
      </trkpt>
      <trkpt lat="45.86752" lon="1.23961">
        <ele>345.8</ele>
        <time>2025-06-16T16:02:27Z</time>
      </trkpt>
      <trkpt lat="45.86751" lon="1.23959">
        <ele>345.8</ele>
        <time>2025-06-16T16:02:28Z</time>
      </trkpt>
      <trkpt lat="45.86751" lon="1.23951">
        <ele>345.9</ele>
        <time>2025-06-16T16:02:29Z</time>
      </trkpt>
      <trkpt lat="45.86751" lon="1.23941">
        <ele>345.9</ele>
        <time>2025-06-16T16:02:31Z</time>
      </trkpt>
      <trkpt lat="45.86751" lon="1.23936">
        <ele>345.9</ele>
        <time>2025-06-16T16:02:32Z</time>
      </trkpt>
      <trkpt lat="45.86751" lon="1.23931">
        <ele>345.9</ele>
        <time>2025-06-16T16:02:34Z</time>
      </trkpt>
      <trkpt lat="45.86751" lon="1.23926">
        <ele>345.9</ele>
        <time>2025-06-16T16:02:35Z</time>
      </trkpt>
      <trkpt lat="45.86751" lon="1.23916">
        <ele>346</ele>
        <time>2025-06-16T16:02:36Z</time>
      </trkpt>
      <trkpt lat="45.86751" lon="1.23905">
        <ele>346.1</ele>
        <time>2025-06-16T16:02:38Z</time>
      </trkpt>
      <trkpt lat="45.86749" lon="1.23893">
        <ele>346.1</ele>
        <time>2025-06-16T16:02:40Z</time>
      </trkpt>
      <trkpt lat="45.86749" lon="1.23888">
        <ele>346.2</ele>
        <time>2025-06-16T16:02:41Z</time>
      </trkpt>
      <trkpt lat="45.8675" lon="1.23883">
        <ele>346.2</ele>
        <time>2025-06-16T16:02:42Z</time>
      </trkpt>
      <trkpt lat="45.8675" lon="1.23874">
        <ele>346.2</ele>
        <time>2025-06-16T16:02:44Z</time>
      </trkpt>
      <trkpt lat="45.86751" lon="1.23869">
        <ele>346.3</ele>
        <time>2025-06-16T16:02:46Z</time>
      </trkpt>
      <trkpt lat="45.86752" lon="1.23865">
        <ele>346.3</ele>
        <time>2025-06-16T16:02:47Z</time>
      </trkpt>
      <trkpt lat="45.86752" lon="1.2386">
        <ele>346.3</ele>
        <time>2025-06-16T16:02:48Z</time>
      </trkpt>
      <trkpt lat="45.86753" lon="1.23854">
        <ele>346.4</ele>
        <time>2025-06-16T16:02:49Z</time>
      </trkpt>
      <trkpt lat="45.86753" lon="1.23843">
        <ele>346.5</ele>
        <time>2025-06-16T16:02:50Z</time>
      </trkpt>
      <trkpt lat="45.86754" lon="1.23837">
        <ele>346.5</ele>
        <time>2025-06-16T16:02:52Z</time>
      </trkpt>
      <trkpt lat="45.86754" lon="1.23831">
        <ele>346.6</ele>
        <time>2025-06-16T16:02:53Z</time>
      </trkpt>
      <trkpt lat="45.86754" lon="1.23826">
        <ele>346.6</ele>
        <time>2025-06-16T16:02:54Z</time>
      </trkpt>
      <trkpt lat="45.86754" lon="1.23819">
        <ele>346.6</ele>
        <time>2025-06-16T16:02:55Z</time>
      </trkpt>
      <trkpt lat="45.86753" lon="1.23806">
        <ele>346.4</ele>
        <time>2025-06-16T16:02:56Z</time>
      </trkpt>
      <trkpt lat="45.86753" lon="1.23799">
        <ele>346.4</ele>
        <time>2025-06-16T16:02:58Z</time>
      </trkpt>
      <trkpt lat="45.86753" lon="1.23793">
        <ele>346.3</ele>
        <time>2025-06-16T16:02:59Z</time>
      </trkpt>
      <trkpt lat="45.86753" lon="1.23786">
        <ele>346.2</ele>
        <time>2025-06-16T16:03:00Z</time>
      </trkpt>
      <trkpt lat="45.86753" lon="1.23779">
        <ele>346.2</ele>
        <time>2025-06-16T16:03:01Z</time>
      </trkpt>
      <trkpt lat="45.86752" lon="1.23773">
        <ele>346.1</ele>
        <time>2025-06-16T16:03:02Z</time>
      </trkpt>
      <trkpt lat="45.86751" lon="1.23766">
        <ele>346</ele>
        <time>2025-06-16T16:03:03Z</time>
      </trkpt>
      <trkpt lat="45.86749" lon="1.23762">
        <ele>346</ele>
        <time>2025-06-16T16:03:04Z</time>
      </trkpt>
      <trkpt lat="45.86746" lon="1.23758">
        <ele>345.8</ele>
        <time>2025-06-16T16:03:05Z</time>
      </trkpt>
      <trkpt lat="45.86742" lon="1.23755">
        <ele>345.7</ele>
        <time>2025-06-16T16:03:06Z</time>
      </trkpt>
      <trkpt lat="45.86739" lon="1.23752">
        <ele>345.6</ele>
        <time>2025-06-16T16:03:07Z</time>
      </trkpt>
      <trkpt lat="45.86735" lon="1.23749">
        <ele>345.5</ele>
        <time>2025-06-16T16:03:08Z</time>
      </trkpt>
      <trkpt lat="45.86731" lon="1.23746">
        <ele>345.3</ele>
        <time>2025-06-16T16:03:09Z</time>
      </trkpt>
      <trkpt lat="45.86726" lon="1.23744">
        <ele>345.2</ele>
        <time>2025-06-16T16:03:10Z</time>
      </trkpt>
      <trkpt lat="45.86718" lon="1.23738">
        <ele>344.9</ele>
        <time>2025-06-16T16:03:11Z</time>
      </trkpt>
      <trkpt lat="45.86713" lon="1.23736">
        <ele>344.7</ele>
        <time>2025-06-16T16:03:12Z</time>
      </trkpt>
      <trkpt lat="45.86704" lon="1.23728">
        <ele>344.4</ele>
        <time>2025-06-16T16:03:14Z</time>
      </trkpt>
      <trkpt lat="45.867" lon="1.23723">
        <ele>344.2</ele>
        <time>2025-06-16T16:03:15Z</time>
      </trkpt>
      <trkpt lat="45.86696" lon="1.23717">
        <ele>344</ele>
        <time>2025-06-16T16:03:16Z</time>
      </trkpt>
      <trkpt lat="45.86693" lon="1.23711">
        <ele>343.8</ele>
        <time>2025-06-16T16:03:17Z</time>
      </trkpt>
      <trkpt lat="45.8669" lon="1.23706">
        <ele>343.6</ele>
        <time>2025-06-16T16:03:18Z</time>
      </trkpt>
      <trkpt lat="45.86685" lon="1.23699">
        <ele>343.3</ele>
        <time>2025-06-16T16:03:20Z</time>
      </trkpt>
      <trkpt lat="45.86682" lon="1.23695">
        <ele>343.2</ele>
        <time>2025-06-16T16:03:22Z</time>
      </trkpt>
      <trkpt lat="45.86681" lon="1.23695">
        <ele>343.1</ele>
        <time>2025-06-16T16:03:24Z</time>
      </trkpt>
      <trkpt lat="45.8668" lon="1.23695">
        <ele>343.1</ele>
        <time>2025-06-16T16:03:25Z</time>
      </trkpt>
      <trkpt lat="45.86679" lon="1.23695">
        <ele>343</ele>
        <time>2025-06-16T16:03:26Z</time>
      </trkpt>
      <trkpt lat="45.86679" lon="1.23695">
        <ele>343</ele>
        <time>2025-06-16T16:03:27Z</time>
      </trkpt>
      <trkpt lat="45.86673" lon="1.23694">
        <ele>342.7</ele>
        <time>2025-06-16T16:03:29Z</time>
      </trkpt>
      <trkpt lat="45.86669" lon="1.23696">
        <ele>342.5</ele>
        <time>2025-06-16T16:03:31Z</time>
      </trkpt>
      <trkpt lat="45.86663" lon="1.23702">
        <ele>342.1</ele>
        <time>2025-06-16T16:03:32Z</time>
      </trkpt>
      <trkpt lat="45.86659" lon="1.23705">
        <ele>341.9</ele>
        <time>2025-06-16T16:03:34Z</time>
      </trkpt>
      <trkpt lat="45.86654" lon="1.23711">
        <ele>341.5</ele>
        <time>2025-06-16T16:03:35Z</time>
      </trkpt>
      <trkpt lat="45.86646" lon="1.23719">
        <ele>340.9</ele>
        <time>2025-06-16T16:03:36Z</time>
      </trkpt>
      <trkpt lat="45.86641" lon="1.23723">
        <ele>340.6</ele>
        <time>2025-06-16T16:03:38Z</time>
      </trkpt>
      <trkpt lat="45.86637" lon="1.23726">
        <ele>340.3</ele>
        <time>2025-06-16T16:03:39Z</time>
      </trkpt>
      <trkpt lat="45.86634" lon="1.23728">
        <ele>340.1</ele>
        <time>2025-06-16T16:03:40Z</time>
      </trkpt>
      <trkpt lat="45.8663" lon="1.23729">
        <ele>339.9</ele>
        <time>2025-06-16T16:03:41Z</time>
      </trkpt>
      <trkpt lat="45.86627" lon="1.23729">
        <ele>339.7</ele>
        <time>2025-06-16T16:03:42Z</time>
      </trkpt>
      <trkpt lat="45.86626" lon="1.23727">
        <ele>339.6</ele>
        <time>2025-06-16T16:03:44Z</time>
      </trkpt>
      <trkpt lat="45.86625" lon="1.23726">
        <ele>339.5</ele>
        <time>2025-06-16T16:03:45Z</time>
      </trkpt>
      <trkpt lat="45.86624" lon="1.23725">
        <ele>339.4</ele>
        <time>2025-06-16T16:03:46Z</time>
      </trkpt>
      <trkpt lat="45.86622" lon="1.23722">
        <ele>339.2</ele>
        <time>2025-06-16T16:03:47Z</time>
      </trkpt>
      <trkpt lat="45.86618" lon="1.23713">
        <ele>338.8</ele>
        <time>2025-06-16T16:03:48Z</time>
      </trkpt>
      <trkpt lat="45.86615" lon="1.23708">
        <ele>338.6</ele>
        <time>2025-06-16T16:03:49Z</time>
      </trkpt>
      <trkpt lat="45.86613" lon="1.23703">
        <ele>338.5</ele>
        <time>2025-06-16T16:03:51Z</time>
      </trkpt>
      <trkpt lat="45.8661" lon="1.23698">
        <ele>338.3</ele>
        <time>2025-06-16T16:03:52Z</time>
      </trkpt>
      <trkpt lat="45.86608" lon="1.23693">
        <ele>338.2</ele>
        <time>2025-06-16T16:03:53Z</time>
      </trkpt>
      <trkpt lat="45.86607" lon="1.23687">
        <ele>338</ele>
        <time>2025-06-16T16:03:54Z</time>
      </trkpt>
      <trkpt lat="45.86601" lon="1.23676">
        <ele>337.8</ele>
        <time>2025-06-16T16:03:55Z</time>
      </trkpt>
      <trkpt lat="45.86598" lon="1.23671">
        <ele>337.8</ele>
        <time>2025-06-16T16:03:56Z</time>
      </trkpt>
      <trkpt lat="45.86593" lon="1.2366">
        <ele>337.7</ele>
        <time>2025-06-16T16:03:58Z</time>
      </trkpt>
      <trkpt lat="45.86591" lon="1.23654">
        <ele>337.6</ele>
        <time>2025-06-16T16:03:59Z</time>
      </trkpt>
      <trkpt lat="45.86588" lon="1.23648">
        <ele>337.6</ele>
        <time>2025-06-16T16:04:01Z</time>
      </trkpt>
      <trkpt lat="45.86582" lon="1.23638">
        <ele>337.6</ele>
        <time>2025-06-16T16:04:02Z</time>
      </trkpt>
      <trkpt lat="45.86578" lon="1.23628">
        <ele>337.6</ele>
        <time>2025-06-16T16:04:04Z</time>
      </trkpt>
      <trkpt lat="45.86573" lon="1.23618">
        <ele>337.6</ele>
        <time>2025-06-16T16:04:06Z</time>
      </trkpt>
      <trkpt lat="45.86569" lon="1.23608">
        <ele>337.6</ele>
        <time>2025-06-16T16:04:08Z</time>
      </trkpt>
      <trkpt lat="45.86567" lon="1.23604">
        <ele>337.5</ele>
        <time>2025-06-16T16:04:10Z</time>
      </trkpt>
      <trkpt lat="45.86565" lon="1.236">
        <ele>337.5</ele>
        <time>2025-06-16T16:04:11Z</time>
      </trkpt>
      <trkpt lat="45.86563" lon="1.23596">
        <ele>337.4</ele>
        <time>2025-06-16T16:04:12Z</time>
      </trkpt>
      <trkpt lat="45.86561" lon="1.23592">
        <ele>337.3</ele>
        <time>2025-06-16T16:04:13Z</time>
      </trkpt>
      <trkpt lat="45.86557" lon="1.23587">
        <ele>337.1</ele>
        <time>2025-06-16T16:04:14Z</time>
      </trkpt>
      <trkpt lat="45.86556" lon="1.23586">
        <ele>337.1</ele>
        <time>2025-06-16T16:04:15Z</time>
      </trkpt>
      <trkpt lat="45.86553" lon="1.23586">
        <ele>336.9</ele>
        <time>2025-06-16T16:04:17Z</time>
      </trkpt>
      <trkpt lat="45.86552" lon="1.23586">
        <ele>336.8</ele>
        <time>2025-06-16T16:04:18Z</time>
      </trkpt>
      <trkpt lat="45.86549" lon="1.23587">
        <ele>336.7</ele>
        <time>2025-06-16T16:04:19Z</time>
      </trkpt>
      <trkpt lat="45.86546" lon="1.23589">
        <ele>336.5</ele>
        <time>2025-06-16T16:04:20Z</time>
      </trkpt>
      <trkpt lat="45.86539" lon="1.23596">
        <ele>336.1</ele>
        <time>2025-06-16T16:04:21Z</time>
      </trkpt>
      <trkpt lat="45.86536" lon="1.23601">
        <ele>335.8</ele>
        <time>2025-06-16T16:04:22Z</time>
      </trkpt>
      <trkpt lat="45.86532" lon="1.23606">
        <ele>335.5</ele>
        <time>2025-06-16T16:04:23Z</time>
      </trkpt>
      <trkpt lat="45.86527" lon="1.23611">
        <ele>335.3</ele>
        <time>2025-06-16T16:04:24Z</time>
      </trkpt>
      <trkpt lat="45.86523" lon="1.23615">
        <ele>335</ele>
        <time>2025-06-16T16:04:25Z</time>
      </trkpt>
      <trkpt lat="45.86519" lon="1.23619">
        <ele>334.8</ele>
        <time>2025-06-16T16:04:26Z</time>
      </trkpt>
      <trkpt lat="45.8651" lon="1.2363">
        <ele>334.3</ele>
        <time>2025-06-16T16:04:28Z</time>
      </trkpt>
      <trkpt lat="45.86505" lon="1.23635">
        <ele>334.1</ele>
        <time>2025-06-16T16:04:30Z</time>
      </trkpt>
      <trkpt lat="45.865" lon="1.2364">
        <ele>333.9</ele>
        <time>2025-06-16T16:04:31Z</time>
      </trkpt>
      <trkpt lat="45.86495" lon="1.23646">
        <ele>333.8</ele>
        <time>2025-06-16T16:04:32Z</time>
      </trkpt>
      <trkpt lat="45.8649" lon="1.23651">
        <ele>333.7</ele>
        <time>2025-06-16T16:04:33Z</time>
      </trkpt>
      <trkpt lat="45.86485" lon="1.23657">
        <ele>333.6</ele>
        <time>2025-06-16T16:04:34Z</time>
      </trkpt>
      <trkpt lat="45.86477" lon="1.23666">
        <ele>333.5</ele>
        <time>2025-06-16T16:04:35Z</time>
      </trkpt>
      <trkpt lat="45.86472" lon="1.23671">
        <ele>333.4</ele>
        <time>2025-06-16T16:04:37Z</time>
      </trkpt>
      <trkpt lat="45.86464" lon="1.2368">
        <ele>333.3</ele>
        <time>2025-06-16T16:04:38Z</time>
      </trkpt>
      <trkpt lat="45.86459" lon="1.23684">
        <ele>333.3</ele>
        <time>2025-06-16T16:04:40Z</time>
      </trkpt>
      <trkpt lat="45.86455" lon="1.23688">
        <ele>333.2</ele>
        <time>2025-06-16T16:04:41Z</time>
      </trkpt>
      <trkpt lat="45.8645" lon="1.23693">
        <ele>333.2</ele>
        <time>2025-06-16T16:04:42Z</time>
      </trkpt>
      <trkpt lat="45.86442" lon="1.237">
        <ele>333.1</ele>
        <time>2025-06-16T16:04:43Z</time>
      </trkpt>
      <trkpt lat="45.86438" lon="1.23705">
        <ele>333.1</ele>
        <time>2025-06-16T16:04:45Z</time>
      </trkpt>
      <trkpt lat="45.86431" lon="1.23713">
        <ele>333.1</ele>
        <time>2025-06-16T16:04:46Z</time>
      </trkpt>
      <trkpt lat="45.86428" lon="1.23717">
        <ele>333.1</ele>
        <time>2025-06-16T16:04:48Z</time>
      </trkpt>
      <trkpt lat="45.8642" lon="1.23727">
        <ele>333.2</ele>
        <time>2025-06-16T16:04:49Z</time>
      </trkpt>
      <trkpt lat="45.86414" lon="1.23736">
        <ele>333.2</ele>
        <time>2025-06-16T16:04:51Z</time>
      </trkpt>
      <trkpt lat="45.8641" lon="1.23739">
        <ele>333.2</ele>
        <time>2025-06-16T16:04:53Z</time>
      </trkpt>
      <trkpt lat="45.86403" lon="1.23746">
        <ele>333.3</ele>
        <time>2025-06-16T16:04:54Z</time>
      </trkpt>
      <trkpt lat="45.86399" lon="1.2375">
        <ele>333.3</ele>
        <time>2025-06-16T16:04:56Z</time>
      </trkpt>
      <trkpt lat="45.86396" lon="1.23755">
        <ele>333.4</ele>
        <time>2025-06-16T16:04:57Z</time>
      </trkpt>
      <trkpt lat="45.86392" lon="1.23758">
        <ele>333.5</ele>
        <time>2025-06-16T16:04:58Z</time>
      </trkpt>
      <trkpt lat="45.86388" lon="1.23762">
        <ele>333.6</ele>
        <time>2025-06-16T16:04:59Z</time>
      </trkpt>
      <trkpt lat="45.86384" lon="1.23763">
        <ele>333.6</ele>
        <time>2025-06-16T16:05:00Z</time>
      </trkpt>
      <trkpt lat="45.8638" lon="1.23762">
        <ele>333.7</ele>
        <time>2025-06-16T16:05:02Z</time>
      </trkpt>
      <trkpt lat="45.86376" lon="1.23761">
        <ele>333.8</ele>
        <time>2025-06-16T16:05:03Z</time>
      </trkpt>
      <trkpt lat="45.86369" lon="1.23764">
        <ele>334</ele>
        <time>2025-06-16T16:05:04Z</time>
      </trkpt>
      <trkpt lat="45.86367" lon="1.23767">
        <ele>334</ele>
        <time>2025-06-16T16:05:05Z</time>
      </trkpt>
      <trkpt lat="45.86365" lon="1.23768">
        <ele>334.1</ele>
        <time>2025-06-16T16:05:07Z</time>
      </trkpt>
      <trkpt lat="45.86365" lon="1.2377">
        <ele>334.1</ele>
        <time>2025-06-16T16:05:08Z</time>
      </trkpt>
      <trkpt lat="45.86364" lon="1.2377">
        <ele>334.2</ele>
        <time>2025-06-16T16:05:09Z</time>
      </trkpt>
      <trkpt lat="45.86363" lon="1.23769">
        <ele>334.2</ele>
        <time>2025-06-16T16:05:10Z</time>
      </trkpt>
      <trkpt lat="45.86363" lon="1.23769">
        <ele>334.2</ele>
        <time>2025-06-16T16:05:11Z</time>
      </trkpt>
      <trkpt lat="45.86363" lon="1.23768">
        <ele>334.2</ele>
        <time>2025-06-16T16:05:13Z</time>
      </trkpt>
      <trkpt lat="45.86365" lon="1.23769">
        <ele>334.3</ele>
        <time>2025-06-16T16:05:14Z</time>
      </trkpt>
      <trkpt lat="45.86365" lon="1.23769">
        <ele>334.3</ele>
        <time>2025-06-16T16:05:15Z</time>
      </trkpt>
      <trkpt lat="45.86365" lon="1.23769">
        <ele>334.3</ele>
        <time>2025-06-16T16:05:17Z</time>
      </trkpt>
      <trkpt lat="45.86366" lon="1.23769">
        <ele>334.3</ele>
        <time>2025-06-16T16:05:18Z</time>
      </trkpt>
      <trkpt lat="45.86366" lon="1.23769">
        <ele>334.3</ele>
        <time>2025-06-16T16:05:19Z</time>
      </trkpt>
      <trkpt lat="45.86366" lon="1.23769">
        <ele>334.3</ele>
        <time>2025-06-16T16:05:20Z</time>
      </trkpt>
      <trkpt lat="45.86366" lon="1.23769">
        <ele>334.3</ele>
        <time>2025-06-16T16:05:21Z</time>
      </trkpt>
      <trkpt lat="45.86367" lon="1.23769">
        <ele>334.3</ele>
        <time>2025-06-16T16:05:22Z</time>
      </trkpt>
      <trkpt lat="45.86367" lon="1.23769">
        <ele>334.3</ele>
        <time>2025-06-16T16:05:23Z</time>
      </trkpt>
      <trkpt lat="45.86367" lon="1.23769">
        <ele>334.3</ele>
        <time>2025-06-16T16:05:24Z</time>
      </trkpt>
      <trkpt lat="45.86367" lon="1.23769">
        <ele>334.3</ele>
        <time>2025-06-16T16:05:25Z</time>
      </trkpt>
      <trkpt lat="45.86367" lon="1.23769">
        <ele>334.3</ele>
        <time>2025-06-16T16:05:26Z</time>
      </trkpt>
      <trkpt lat="45.86367" lon="1.23769">
        <ele>334.3</ele>
        <time>2025-06-16T16:05:28Z</time>
      </trkpt>
      <trkpt lat="45.86367" lon="1.23769">
        <ele>334.3</ele>
        <time>2025-06-16T16:05:29Z</time>
      </trkpt>
      <trkpt lat="45.86367" lon="1.23769">
        <ele>334.3</ele>
        <time>2025-06-16T16:05:30Z</time>
      </trkpt>
      <trkpt lat="45.86367" lon="1.23769">
        <ele>334.3</ele>
        <time>2025-06-16T16:05:31Z</time>
      </trkpt>
      <trkpt lat="45.86367" lon="1.23769">
        <ele>334.3</ele>
        <time>2025-06-16T16:05:32Z</time>
      </trkpt>
      <trkpt lat="45.86367" lon="1.23769">
        <ele>334.3</ele>
        <time>2025-06-16T16:05:33Z</time>
      </trkpt>
      <trkpt lat="45.86367" lon="1.23769">
        <ele>334.3</ele>
        <time>2025-06-16T16:05:34Z</time>
      </trkpt>
      <trkpt lat="45.86367" lon="1.23769">
        <ele>334.3</ele>
        <time>2025-06-16T16:05:36Z</time>
      </trkpt>
      <trkpt lat="45.86367" lon="1.23768">
        <ele>334.3</ele>
        <time>2025-06-16T16:05:37Z</time>
      </trkpt>
      <trkpt lat="45.86367" lon="1.23768">
        <ele>334.4</ele>
        <time>2025-06-16T16:05:39Z</time>
      </trkpt>
      <trkpt lat="45.86367" lon="1.23768">
        <ele>334.4</ele>
        <time>2025-06-16T16:05:41Z</time>
      </trkpt>
      <trkpt lat="45.86367" lon="1.23768">
        <ele>334.4</ele>
        <time>2025-06-16T16:05:42Z</time>
      </trkpt>
      <trkpt lat="45.86367" lon="1.23767">
        <ele>334.4</ele>
        <time>2025-06-16T16:05:43Z</time>
      </trkpt>
      <trkpt lat="45.86367" lon="1.23767">
        <ele>334.4</ele>
        <time>2025-06-16T16:05:44Z</time>
      </trkpt>
      <trkpt lat="45.86367" lon="1.23767">
        <ele>334.4</ele>
        <time>2025-06-16T16:05:45Z</time>
      </trkpt>
      <trkpt lat="45.86367" lon="1.23767">
        <ele>334.4</ele>
        <time>2025-06-16T16:05:46Z</time>
      </trkpt>
      <trkpt lat="45.86367" lon="1.23767">
        <ele>334.4</ele>
        <time>2025-06-16T16:05:48Z</time>
      </trkpt>
      <trkpt lat="45.86367" lon="1.23767">
        <ele>334.4</ele>
        <time>2025-06-16T16:05:49Z</time>
      </trkpt>
      <trkpt lat="45.86367" lon="1.23767">
        <ele>334.4</ele>
        <time>2025-06-16T16:05:50Z</time>
      </trkpt>
      <trkpt lat="45.86367" lon="1.23767">
        <ele>334.4</ele>
        <time>2025-06-16T16:05:51Z</time>
      </trkpt>
      <trkpt lat="45.86367" lon="1.23767">
        <ele>334.4</ele>
        <time>2025-06-16T16:05:52Z</time>
      </trkpt>
      <trkpt lat="45.86367" lon="1.23767">
        <ele>334.4</ele>
        <time>2025-06-16T16:05:54Z</time>
      </trkpt>
      <trkpt lat="45.86367" lon="1.23767">
        <ele>334.4</ele>
        <time>2025-06-16T16:05:56Z</time>
      </trkpt>
      <trkpt lat="45.86367" lon="1.23767">
        <ele>334.4</ele>
        <time>2025-06-16T16:05:57Z</time>
      </trkpt>
      <trkpt lat="45.86367" lon="1.23767">
        <ele>334.4</ele>
        <time>2025-06-16T16:05:59Z</time>
      </trkpt>
      <trkpt lat="45.86367" lon="1.23767">
        <ele>334.4</ele>
        <time>2025-06-16T16:06:00Z</time>
      </trkpt>
      <trkpt lat="45.86366" lon="1.23767">
        <ele>334.4</ele>
        <time>2025-06-16T16:06:02Z</time>
      </trkpt>
      <trkpt lat="45.86366" lon="1.23767">
        <ele>334.4</ele>
        <time>2025-06-16T16:06:03Z</time>
      </trkpt>
      <trkpt lat="45.86366" lon="1.23768">
        <ele>334.4</ele>
        <time>2025-06-16T16:06:04Z</time>
      </trkpt>
      <trkpt lat="45.86366" lon="1.23768">
        <ele>334.4</ele>
        <time>2025-06-16T16:06:05Z</time>
      </trkpt>
      <trkpt lat="45.86366" lon="1.23768">
        <ele>334.4</ele>
        <time>2025-06-16T16:06:06Z</time>
      </trkpt>
      <trkpt lat="45.86366" lon="1.23768">
        <ele>334.4</ele>
        <time>2025-06-16T16:06:07Z</time>
      </trkpt>
      <trkpt lat="45.86366" lon="1.23768">
        <ele>334.4</ele>
        <time>2025-06-16T16:06:08Z</time>
      </trkpt>
      <trkpt lat="45.86366" lon="1.23768">
        <ele>334.4</ele>
        <time>2025-06-16T16:06:10Z</time>
      </trkpt>
      <trkpt lat="45.86366" lon="1.23768">
        <ele>334.4</ele>
        <time>2025-06-16T16:06:12Z</time>
      </trkpt>
      <trkpt lat="45.86366" lon="1.23768">
        <ele>334.4</ele>
        <time>2025-06-16T16:06:13Z</time>
      </trkpt>
      <trkpt lat="45.86366" lon="1.23768">
        <ele>334.4</ele>
        <time>2025-06-16T16:06:14Z</time>
      </trkpt>
      <trkpt lat="45.86366" lon="1.23768">
        <ele>334.4</ele>
        <time>2025-06-16T16:06:15Z</time>
      </trkpt>
      <trkpt lat="45.86366" lon="1.23768">
        <ele>334.4</ele>
        <time>2025-06-16T16:06:16Z</time>
      </trkpt>
      <trkpt lat="45.86366" lon="1.23768">
        <ele>334.4</ele>
        <time>2025-06-16T16:06:18Z</time>
      </trkpt>
      <trkpt lat="45.86366" lon="1.23768">
        <ele>334.4</ele>
        <time>2025-06-16T16:06:19Z</time>
      </trkpt>
      <trkpt lat="45.86366" lon="1.23768">
        <ele>334.4</ele>
        <time>2025-06-16T16:06:20Z</time>
      </trkpt>
      <trkpt lat="45.86366" lon="1.23768">
        <ele>334.4</ele>
        <time>2025-06-16T16:06:21Z</time>
      </trkpt>
      <trkpt lat="45.86366" lon="1.23768">
        <ele>334.4</ele>
        <time>2025-06-16T16:06:22Z</time>
      </trkpt>
      <trkpt lat="45.86366" lon="1.23768">
        <ele>334.4</ele>
        <time>2025-06-16T16:06:23Z</time>
      </trkpt>
      <trkpt lat="45.86366" lon="1.23768">
        <ele>334.4</ele>
        <time>2025-06-16T16:06:24Z</time>
      </trkpt>
      <trkpt lat="45.86366" lon="1.23768">
        <ele>334.4</ele>
        <time>2025-06-16T16:06:25Z</time>
      </trkpt>
      <trkpt lat="45.86366" lon="1.23767">
        <ele>334.4</ele>
        <time>2025-06-16T16:06:27Z</time>
      </trkpt>
      <trkpt lat="45.86366" lon="1.23768">
        <ele>334.4</ele>
        <time>2025-06-16T16:06:28Z</time>
      </trkpt>
      <trkpt lat="45.86367" lon="1.23768">
        <ele>334.4</ele>
        <time>2025-06-16T16:06:29Z</time>
      </trkpt>
      <trkpt lat="45.86367" lon="1.23768">
        <ele>334.5</ele>
        <time>2025-06-16T16:06:30Z</time>
      </trkpt>
      <trkpt lat="45.86367" lon="1.23768">
        <ele>334.5</ele>
        <time>2025-06-16T16:06:31Z</time>
      </trkpt>
      <trkpt lat="45.86367" lon="1.23768">
        <ele>334.5</ele>
        <time>2025-06-16T16:06:32Z</time>
      </trkpt>
      <trkpt lat="45.86367" lon="1.23768">
        <ele>334.5</ele>
        <time>2025-06-16T16:06:33Z</time>
      </trkpt>
      <trkpt lat="45.86367" lon="1.23768">
        <ele>334.5</ele>
        <time>2025-06-16T16:06:34Z</time>
      </trkpt>
      <trkpt lat="45.86367" lon="1.23768">
        <ele>334.5</ele>
        <time>2025-06-16T16:06:35Z</time>
      </trkpt>
      <trkpt lat="45.86367" lon="1.23768">
        <ele>334.5</ele>
        <time>2025-06-16T16:06:36Z</time>
      </trkpt>
      <trkpt lat="45.86367" lon="1.23768">
        <ele>334.5</ele>
        <time>2025-06-16T16:06:38Z</time>
      </trkpt>
      <trkpt lat="45.86367" lon="1.23768">
        <ele>334.7</ele>
        <time>2025-06-16T16:06:40Z</time>
      </trkpt>
      <trkpt lat="45.86366" lon="1.23768">
        <ele>334.7</ele>
        <time>2025-06-16T16:06:41Z</time>
      </trkpt>
      <trkpt lat="45.86366" lon="1.23768">
        <ele>334.8</ele>
        <time>2025-06-16T16:06:43Z</time>
      </trkpt>
      <trkpt lat="45.86366" lon="1.23768">
        <ele>334.8</ele>
        <time>2025-06-16T16:06:44Z</time>
      </trkpt>
      <trkpt lat="45.86366" lon="1.23768">
        <ele>334.7</ele>
        <time>2025-06-16T16:06:46Z</time>
      </trkpt>
      <trkpt lat="45.86365" lon="1.23768">
        <ele>334.9</ele>
        <time>2025-06-16T16:06:47Z</time>
      </trkpt>
      <trkpt lat="45.86365" lon="1.23768">
        <ele>334.9</ele>
        <time>2025-06-16T16:06:49Z</time>
      </trkpt>
      <trkpt lat="45.86366" lon="1.23768">
        <ele>335</ele>
        <time>2025-06-16T16:06:50Z</time>
      </trkpt>
      <trkpt lat="45.86366" lon="1.23768">
        <ele>334.9</ele>
        <time>2025-06-16T16:06:51Z</time>
      </trkpt>
      <trkpt lat="45.86365" lon="1.23768">
        <ele>334.9</ele>
        <time>2025-06-16T16:06:52Z</time>
      </trkpt>
      <trkpt lat="45.86365" lon="1.23768">
        <ele>335</ele>
        <time>2025-06-16T16:06:53Z</time>
      </trkpt>
      <trkpt lat="45.86365" lon="1.23767">
        <ele>335</ele>
        <time>2025-06-16T16:06:55Z</time>
      </trkpt>
      <trkpt lat="45.86365" lon="1.23767">
        <ele>335</ele>
        <time>2025-06-16T16:06:56Z</time>
      </trkpt>
      <trkpt lat="45.86365" lon="1.23768">
        <ele>335.1</ele>
        <time>2025-06-16T16:06:58Z</time>
      </trkpt>
      <trkpt lat="45.86366" lon="1.23768">
        <ele>335.2</ele>
        <time>2025-06-16T16:06:59Z</time>
      </trkpt>
      <trkpt lat="45.86366" lon="1.23768">
        <ele>335.3</ele>
        <time>2025-06-16T16:07:01Z</time>
      </trkpt>
      <trkpt lat="45.86366" lon="1.23768">
        <ele>335.3</ele>
        <time>2025-06-16T16:07:02Z</time>
      </trkpt>
      <trkpt lat="45.86366" lon="1.23768">
        <ele>335.3</ele>
        <time>2025-06-16T16:07:03Z</time>
      </trkpt>
      <trkpt lat="45.86366" lon="1.23769">
        <ele>335.4</ele>
        <time>2025-06-16T16:07:04Z</time>
      </trkpt>
      <trkpt lat="45.86365" lon="1.23772">
        <ele>335.4</ele>
        <time>2025-06-16T16:07:05Z</time>
      </trkpt>
      <trkpt lat="45.86365" lon="1.23774">
        <ele>335.6</ele>
        <time>2025-06-16T16:07:07Z</time>
      </trkpt>
      <trkpt lat="45.86366" lon="1.23776">
        <ele>335.6</ele>
        <time>2025-06-16T16:07:08Z</time>
      </trkpt>
      <trkpt lat="45.86365" lon="1.23782">
        <ele>335.9</ele>
        <time>2025-06-16T16:07:09Z</time>
      </trkpt>
      <trkpt lat="45.86366" lon="1.23786">
        <ele>336</ele>
        <time>2025-06-16T16:07:10Z</time>
      </trkpt>
      <trkpt lat="45.86368" lon="1.2379">
        <ele>336.2</ele>
        <time>2025-06-16T16:07:12Z</time>
      </trkpt>
      <trkpt lat="45.86373" lon="1.23793">
        <ele>336.2</ele>
        <time>2025-06-16T16:07:14Z</time>
      </trkpt>
      <trkpt lat="45.86374" lon="1.23794">
        <ele>336.4</ele>
        <time>2025-06-16T16:07:15Z</time>
      </trkpt>
      <trkpt lat="45.8638" lon="1.23795">
        <ele>336.4</ele>
        <time>2025-06-16T16:07:17Z</time>
      </trkpt>
      <trkpt lat="45.86384" lon="1.23794">
        <ele>336.4</ele>
        <time>2025-06-16T16:07:19Z</time>
      </trkpt>
      <trkpt lat="45.86388" lon="1.23794">
        <ele>336.5</ele>
        <time>2025-06-16T16:07:20Z</time>
      </trkpt>
      <trkpt lat="45.86392" lon="1.23794">
        <ele>336.5</ele>
        <time>2025-06-16T16:07:21Z</time>
      </trkpt>
      <trkpt lat="45.864" lon="1.23795">
        <ele>336.6</ele>
        <time>2025-06-16T16:07:22Z</time>
      </trkpt>
      <trkpt lat="45.86404" lon="1.23796">
        <ele>336.6</ele>
        <time>2025-06-16T16:07:24Z</time>
      </trkpt>
      <trkpt lat="45.86407" lon="1.23798">
        <ele>336.7</ele>
        <time>2025-06-16T16:07:25Z</time>
      </trkpt>
      <trkpt lat="45.86411" lon="1.23798">
        <ele>336.7</ele>
        <time>2025-06-16T16:07:26Z</time>
      </trkpt>
      <trkpt lat="45.86414" lon="1.23797">
        <ele>336.8</ele>
        <time>2025-06-16T16:07:27Z</time>
      </trkpt>
      <trkpt lat="45.86422" lon="1.23798">
        <ele>336.9</ele>
        <time>2025-06-16T16:07:28Z</time>
      </trkpt>
      <trkpt lat="45.86426" lon="1.23798">
        <ele>336.9</ele>
        <time>2025-06-16T16:07:30Z</time>
      </trkpt>
      <trkpt lat="45.86429" lon="1.23798">
        <ele>337</ele>
        <time>2025-06-16T16:07:31Z</time>
      </trkpt>
      <trkpt lat="45.86438" lon="1.23798">
        <ele>337.1</ele>
        <time>2025-06-16T16:07:32Z</time>
      </trkpt>
      <trkpt lat="45.86442" lon="1.23799">
        <ele>337.2</ele>
        <time>2025-06-16T16:07:33Z</time>
      </trkpt>
      <trkpt lat="45.8645" lon="1.238">
        <ele>337.3</ele>
        <time>2025-06-16T16:07:35Z</time>
      </trkpt>
      <trkpt lat="45.86454" lon="1.23801">
        <ele>337.4</ele>
        <time>2025-06-16T16:07:36Z</time>
      </trkpt>
      <trkpt lat="45.86462" lon="1.23799">
        <ele>337.6</ele>
        <time>2025-06-16T16:07:38Z</time>
      </trkpt>
      <trkpt lat="45.86467" lon="1.23797">
        <ele>337.6</ele>
        <time>2025-06-16T16:07:40Z</time>
      </trkpt>
      <trkpt lat="45.86471" lon="1.23796">
        <ele>337.7</ele>
        <time>2025-06-16T16:07:41Z</time>
      </trkpt>
      <trkpt lat="45.86476" lon="1.23797">
        <ele>337.8</ele>
        <time>2025-06-16T16:07:42Z</time>
      </trkpt>
      <trkpt lat="45.86484" lon="1.238">
        <ele>337.9</ele>
        <time>2025-06-16T16:07:43Z</time>
      </trkpt>
      <trkpt lat="45.86488" lon="1.23801">
        <ele>338</ele>
        <time>2025-06-16T16:07:44Z</time>
      </trkpt>
      <trkpt lat="45.86492" lon="1.23802">
        <ele>338.1</ele>
        <time>2025-06-16T16:07:46Z</time>
      </trkpt>
      <trkpt lat="45.86495" lon="1.23802">
        <ele>338.2</ele>
        <time>2025-06-16T16:07:47Z</time>
      </trkpt>
      <trkpt lat="45.86498" lon="1.23803">
        <ele>338.2</ele>
        <time>2025-06-16T16:07:48Z</time>
      </trkpt>
      <trkpt lat="45.86504" lon="1.23803">
        <ele>338.4</ele>
        <time>2025-06-16T16:07:49Z</time>
      </trkpt>
      <trkpt lat="45.86507" lon="1.23803">
        <ele>338.4</ele>
        <time>2025-06-16T16:07:51Z</time>
      </trkpt>
      <trkpt lat="45.8651" lon="1.23803">
        <ele>338.5</ele>
        <time>2025-06-16T16:07:52Z</time>
      </trkpt>
      <trkpt lat="45.86513" lon="1.23804">
        <ele>338.6</ele>
        <time>2025-06-16T16:07:53Z</time>
      </trkpt>
      <trkpt lat="45.86517" lon="1.23802">
        <ele>338.6</ele>
        <time>2025-06-16T16:07:54Z</time>
      </trkpt>
      <trkpt lat="45.86519" lon="1.23801">
        <ele>338.7</ele>
        <time>2025-06-16T16:07:55Z</time>
      </trkpt>
      <trkpt lat="45.8652" lon="1.23797">
        <ele>338.7</ele>
        <time>2025-06-16T16:07:56Z</time>
      </trkpt>
      <trkpt lat="45.8652" lon="1.23794">
        <ele>338.8</ele>
        <time>2025-06-16T16:07:57Z</time>
      </trkpt>
      <trkpt lat="45.86524" lon="1.23787">
        <ele>338.9</ele>
        <time>2025-06-16T16:07:59Z</time>
      </trkpt>
      <trkpt lat="45.86527" lon="1.23781">
        <ele>339</ele>
        <time>2025-06-16T16:08:01Z</time>
      </trkpt>
      <trkpt lat="45.86527" lon="1.23776">
        <ele>338.9</ele>
        <time>2025-06-16T16:08:02Z</time>
      </trkpt>
      <trkpt lat="45.86525" lon="1.23774">
        <ele>338.9</ele>
        <time>2025-06-16T16:08:03Z</time>
      </trkpt>
      <trkpt lat="45.86521" lon="1.23775">
        <ele>338.8</ele>
        <time>2025-06-16T16:08:04Z</time>
      </trkpt>
      <trkpt lat="45.8652" lon="1.23777">
        <ele>338.7</ele>
        <time>2025-06-16T16:08:05Z</time>
      </trkpt>
      <trkpt lat="45.86518" lon="1.23781">
        <ele>338.7</ele>
        <time>2025-06-16T16:08:06Z</time>
      </trkpt>
      <trkpt lat="45.86518" lon="1.23785">
        <ele>338.6</ele>
        <time>2025-06-16T16:08:07Z</time>
      </trkpt>
      <trkpt lat="45.86518" lon="1.2379">
        <ele>338.5</ele>
        <time>2025-06-16T16:08:08Z</time>
      </trkpt>
      <trkpt lat="45.86519" lon="1.23794">
        <ele>338.5</ele>
        <time>2025-06-16T16:08:09Z</time>
      </trkpt>
      <trkpt lat="45.86518" lon="1.23802">
        <ele>338.4</ele>
        <time>2025-06-16T16:08:11Z</time>
      </trkpt>
      <trkpt lat="45.86518" lon="1.23805">
        <ele>338.3</ele>
        <time>2025-06-16T16:08:12Z</time>
      </trkpt>
      <trkpt lat="45.86515" lon="1.23807">
        <ele>338.2</ele>
        <time>2025-06-16T16:08:14Z</time>
      </trkpt>
      <trkpt lat="45.86512" lon="1.23807">
        <ele>338.2</ele>
        <time>2025-06-16T16:08:15Z</time>
      </trkpt>
      <trkpt lat="45.86508" lon="1.23807">
        <ele>338.1</ele>
        <time>2025-06-16T16:08:16Z</time>
      </trkpt>
      <trkpt lat="45.86505" lon="1.23807">
        <ele>338</ele>
        <time>2025-06-16T16:08:18Z</time>
      </trkpt>
      <trkpt lat="45.86497" lon="1.23807">
        <ele>337.9</ele>
        <time>2025-06-16T16:08:19Z</time>
      </trkpt>
      <trkpt lat="45.86493" lon="1.23806">
        <ele>337.8</ele>
        <time>2025-06-16T16:08:20Z</time>
      </trkpt>
      <trkpt lat="45.86485" lon="1.23804">
        <ele>337.7</ele>
        <time>2025-06-16T16:08:22Z</time>
      </trkpt>
      <trkpt lat="45.8648" lon="1.23804">
        <ele>337.6</ele>
        <time>2025-06-16T16:08:23Z</time>
      </trkpt>
      <trkpt lat="45.86476" lon="1.23803">
        <ele>337.5</ele>
        <time>2025-06-16T16:08:24Z</time>
      </trkpt>
      <trkpt lat="45.86472" lon="1.23801">
        <ele>337.5</ele>
        <time>2025-06-16T16:08:25Z</time>
      </trkpt>
      <trkpt lat="45.86462" lon="1.238">
        <ele>337.3</ele>
        <time>2025-06-16T16:08:27Z</time>
      </trkpt>
      <trkpt lat="45.86451" lon="1.23798">
        <ele>337.1</ele>
        <time>2025-06-16T16:08:29Z</time>
      </trkpt>
      <trkpt lat="45.86446" lon="1.23797">
        <ele>337.1</ele>
        <time>2025-06-16T16:08:30Z</time>
      </trkpt>
      <trkpt lat="45.86442" lon="1.23798">
        <ele>337</ele>
        <time>2025-06-16T16:08:31Z</time>
      </trkpt>
      <trkpt lat="45.86437" lon="1.23798">
        <ele>336.9</ele>
        <time>2025-06-16T16:08:32Z</time>
      </trkpt>
      <trkpt lat="45.86432" lon="1.23799">
        <ele>336.8</ele>
        <time>2025-06-16T16:08:33Z</time>
      </trkpt>
      <trkpt lat="45.86428" lon="1.23799">
        <ele>336.8</ele>
        <time>2025-06-16T16:08:34Z</time>
      </trkpt>
      <trkpt lat="45.86423" lon="1.238">
        <ele>336.7</ele>
        <time>2025-06-16T16:08:35Z</time>
      </trkpt>
      <trkpt lat="45.86415" lon="1.23799">
        <ele>336.6</ele>
        <time>2025-06-16T16:08:37Z</time>
      </trkpt>
      <trkpt lat="45.8641" lon="1.23798">
        <ele>336.6</ele>
        <time>2025-06-16T16:08:39Z</time>
      </trkpt>
      <trkpt lat="45.86406" lon="1.23798">
        <ele>336.5</ele>
        <time>2025-06-16T16:08:40Z</time>
      </trkpt>
      <trkpt lat="45.86397" lon="1.23796">
        <ele>336.4</ele>
        <time>2025-06-16T16:08:41Z</time>
      </trkpt>
      <trkpt lat="45.86392" lon="1.23795">
        <ele>336.4</ele>
        <time>2025-06-16T16:08:43Z</time>
      </trkpt>
      <trkpt lat="45.86388" lon="1.23795">
        <ele>336.4</ele>
        <time>2025-06-16T16:08:44Z</time>
      </trkpt>
      <trkpt lat="45.86383" lon="1.23795">
        <ele>336.3</ele>
        <time>2025-06-16T16:08:45Z</time>
      </trkpt>
      <trkpt lat="45.86379" lon="1.23795">
        <ele>336.3</ele>
        <time>2025-06-16T16:08:46Z</time>
      </trkpt>
      <trkpt lat="45.86374" lon="1.23794">
        <ele>336.3</ele>
        <time>2025-06-16T16:08:47Z</time>
      </trkpt>
      <trkpt lat="45.86371" lon="1.23794">
        <ele>336.2</ele>
        <time>2025-06-16T16:08:48Z</time>
      </trkpt>
      <trkpt lat="45.86368" lon="1.23791">
        <ele>336.1</ele>
        <time>2025-06-16T16:08:49Z</time>
      </trkpt>
      <trkpt lat="45.86365" lon="1.23789">
        <ele>336</ele>
        <time>2025-06-16T16:08:50Z</time>
      </trkpt>
      <trkpt lat="45.86362" lon="1.23781">
        <ele>335.7</ele>
        <time>2025-06-16T16:08:51Z</time>
      </trkpt>
      <trkpt lat="45.8636" lon="1.23777">
        <ele>335.5</ele>
        <time>2025-06-16T16:08:53Z</time>
      </trkpt>
      <trkpt lat="45.86357" lon="1.23774">
        <ele>335.4</ele>
        <time>2025-06-16T16:08:54Z</time>
      </trkpt>
      <trkpt lat="45.86354" lon="1.23772">
        <ele>335.2</ele>
        <time>2025-06-16T16:08:55Z</time>
      </trkpt>
      <trkpt lat="45.8635" lon="1.23772">
        <ele>335.1</ele>
        <time>2025-06-16T16:08:56Z</time>
      </trkpt>
      <trkpt lat="45.86346" lon="1.23773">
        <ele>335.1</ele>
        <time>2025-06-16T16:08:57Z</time>
      </trkpt>
      <trkpt lat="45.86341" lon="1.23775">
        <ele>335.1</ele>
        <time>2025-06-16T16:08:58Z</time>
      </trkpt>
      <trkpt lat="45.86337" lon="1.23776">
        <ele>335.2</ele>
        <time>2025-06-16T16:08:59Z</time>
      </trkpt>
      <trkpt lat="45.86332" lon="1.23774">
        <ele>335.2</ele>
        <time>2025-06-16T16:09:00Z</time>
      </trkpt>
      <trkpt lat="45.86327" lon="1.23772">
        <ele>335.2</ele>
        <time>2025-06-16T16:09:01Z</time>
      </trkpt>
      <trkpt lat="45.86323" lon="1.23769">
        <ele>335.2</ele>
        <time>2025-06-16T16:09:02Z</time>
      </trkpt>
      <trkpt lat="45.86318" lon="1.23766">
        <ele>335.2</ele>
        <time>2025-06-16T16:09:03Z</time>
      </trkpt>
      <trkpt lat="45.86314" lon="1.23764">
        <ele>335.2</ele>
        <time>2025-06-16T16:09:04Z</time>
      </trkpt>
      <trkpt lat="45.86309" lon="1.23761">
        <ele>335.2</ele>
        <time>2025-06-16T16:09:05Z</time>
      </trkpt>
      <trkpt lat="45.863" lon="1.23757">
        <ele>335.2</ele>
        <time>2025-06-16T16:09:06Z</time>
      </trkpt>
      <trkpt lat="45.86289" lon="1.23753">
        <ele>335.1</ele>
        <time>2025-06-16T16:09:08Z</time>
      </trkpt>
      <trkpt lat="45.86285" lon="1.23749">
        <ele>335.1</ele>
        <time>2025-06-16T16:09:09Z</time>
      </trkpt>
      <trkpt lat="45.8628" lon="1.23747">
        <ele>335.1</ele>
        <time>2025-06-16T16:09:11Z</time>
      </trkpt>
      <trkpt lat="45.86271" lon="1.23741">
        <ele>335.2</ele>
        <time>2025-06-16T16:09:12Z</time>
      </trkpt>
      <trkpt lat="45.86267" lon="1.23739">
        <ele>335.2</ele>
        <time>2025-06-16T16:09:14Z</time>
      </trkpt>
      <trkpt lat="45.86257" lon="1.23734">
        <ele>335.2</ele>
        <time>2025-06-16T16:09:15Z</time>
      </trkpt>
      <trkpt lat="45.86248" lon="1.2373">
        <ele>335.1</ele>
        <time>2025-06-16T16:09:17Z</time>
      </trkpt>
      <trkpt lat="45.86243" lon="1.23727">
        <ele>335.1</ele>
        <time>2025-06-16T16:09:18Z</time>
      </trkpt>
      <trkpt lat="45.86233" lon="1.23721">
        <ele>335</ele>
        <time>2025-06-16T16:09:20Z</time>
      </trkpt>
      <trkpt lat="45.86229" lon="1.23719">
        <ele>334.9</ele>
        <time>2025-06-16T16:09:21Z</time>
      </trkpt>
      <trkpt lat="45.86219" lon="1.23715">
        <ele>334.8</ele>
        <time>2025-06-16T16:09:23Z</time>
      </trkpt>
      <trkpt lat="45.86214" lon="1.23712">
        <ele>334.7</ele>
        <time>2025-06-16T16:09:24Z</time>
      </trkpt>
      <trkpt lat="45.86209" lon="1.2371">
        <ele>334.6</ele>
        <time>2025-06-16T16:09:25Z</time>
      </trkpt>
      <trkpt lat="45.862" lon="1.23707">
        <ele>334.3</ele>
        <time>2025-06-16T16:09:27Z</time>
      </trkpt>
      <trkpt lat="45.86194" lon="1.23704">
        <ele>334.2</ele>
        <time>2025-06-16T16:09:28Z</time>
      </trkpt>
      <trkpt lat="45.86189" lon="1.23701">
        <ele>334</ele>
        <time>2025-06-16T16:09:29Z</time>
      </trkpt>
      <trkpt lat="45.86184" lon="1.23697">
        <ele>333.8</ele>
        <time>2025-06-16T16:09:30Z</time>
      </trkpt>
      <trkpt lat="45.86179" lon="1.23694">
        <ele>333.6</ele>
        <time>2025-06-16T16:09:31Z</time>
      </trkpt>
      <trkpt lat="45.86173" lon="1.23691">
        <ele>333.4</ele>
        <time>2025-06-16T16:09:32Z</time>
      </trkpt>
      <trkpt lat="45.86168" lon="1.23688">
        <ele>333.1</ele>
        <time>2025-06-16T16:09:34Z</time>
      </trkpt>
      <trkpt lat="45.86156" lon="1.23681">
        <ele>332.5</ele>
        <time>2025-06-16T16:09:35Z</time>
      </trkpt>
      <trkpt lat="45.8615" lon="1.23678">
        <ele>332.1</ele>
        <time>2025-06-16T16:09:36Z</time>
      </trkpt>
      <trkpt lat="45.86136" lon="1.23672">
        <ele>331.4</ele>
        <time>2025-06-16T16:09:38Z</time>
      </trkpt>
      <trkpt lat="45.86129" lon="1.23668">
        <ele>331</ele>
        <time>2025-06-16T16:09:39Z</time>
      </trkpt>
      <trkpt lat="45.86122" lon="1.23665">
        <ele>330.7</ele>
        <time>2025-06-16T16:09:40Z</time>
      </trkpt>
      <trkpt lat="45.86115" lon="1.23662">
        <ele>330.5</ele>
        <time>2025-06-16T16:09:41Z</time>
      </trkpt>
      <trkpt lat="45.86108" lon="1.23659">
        <ele>330.2</ele>
        <time>2025-06-16T16:09:42Z</time>
      </trkpt>
      <trkpt lat="45.86101" lon="1.23657">
        <ele>330</ele>
        <time>2025-06-16T16:09:43Z</time>
      </trkpt>
      <trkpt lat="45.86088" lon="1.2365">
        <ele>329.6</ele>
        <time>2025-06-16T16:09:45Z</time>
      </trkpt>
      <trkpt lat="45.86082" lon="1.23647">
        <ele>329.5</ele>
        <time>2025-06-16T16:09:46Z</time>
      </trkpt>
      <trkpt lat="45.86076" lon="1.23644">
        <ele>329.3</ele>
        <time>2025-06-16T16:09:47Z</time>
      </trkpt>
      <trkpt lat="45.86069" lon="1.2364">
        <ele>329.2</ele>
        <time>2025-06-16T16:09:48Z</time>
      </trkpt>
      <trkpt lat="45.86057" lon="1.23633">
        <ele>329</ele>
        <time>2025-06-16T16:09:50Z</time>
      </trkpt>
      <trkpt lat="45.86051" lon="1.2363">
        <ele>328.8</ele>
        <time>2025-06-16T16:09:51Z</time>
      </trkpt>
      <trkpt lat="45.86044" lon="1.23627">
        <ele>328.7</ele>
        <time>2025-06-16T16:09:52Z</time>
      </trkpt>
      <trkpt lat="45.86038" lon="1.23624">
        <ele>328.6</ele>
        <time>2025-06-16T16:09:53Z</time>
      </trkpt>
      <trkpt lat="45.86032" lon="1.23621">
        <ele>328.4</ele>
        <time>2025-06-16T16:09:54Z</time>
      </trkpt>
      <trkpt lat="45.86026" lon="1.23618">
        <ele>328.3</ele>
        <time>2025-06-16T16:09:56Z</time>
      </trkpt>
      <trkpt lat="45.86014" lon="1.23611">
        <ele>328</ele>
        <time>2025-06-16T16:09:57Z</time>
      </trkpt>
      <trkpt lat="45.86001" lon="1.23604">
        <ele>327.6</ele>
        <time>2025-06-16T16:09:59Z</time>
      </trkpt>
      <trkpt lat="45.85995" lon="1.23601">
        <ele>327.5</ele>
        <time>2025-06-16T16:10:00Z</time>
      </trkpt>
      <trkpt lat="45.85989" lon="1.23598">
        <ele>327.3</ele>
        <time>2025-06-16T16:10:01Z</time>
      </trkpt>
      <trkpt lat="45.85983" lon="1.23594">
        <ele>327.1</ele>
        <time>2025-06-16T16:10:02Z</time>
      </trkpt>
      <trkpt lat="45.85977" lon="1.23591">
        <ele>327</ele>
        <time>2025-06-16T16:10:03Z</time>
      </trkpt>
      <trkpt lat="45.85971" lon="1.23588">
        <ele>326.9</ele>
        <time>2025-06-16T16:10:04Z</time>
      </trkpt>
      <trkpt lat="45.85965" lon="1.23585">
        <ele>326.7</ele>
        <time>2025-06-16T16:10:05Z</time>
      </trkpt>
      <trkpt lat="45.85959" lon="1.23582">
        <ele>326.6</ele>
        <time>2025-06-16T16:10:06Z</time>
      </trkpt>
      <trkpt lat="45.85948" lon="1.23578">
        <ele>326.4</ele>
        <time>2025-06-16T16:10:08Z</time>
      </trkpt>
      <trkpt lat="45.85944" lon="1.23578">
        <ele>326.4</ele>
        <time>2025-06-16T16:10:09Z</time>
      </trkpt>
      <trkpt lat="45.85938" lon="1.23582">
        <ele>326.2</ele>
        <time>2025-06-16T16:10:11Z</time>
      </trkpt>
      <trkpt lat="45.85936" lon="1.23583">
        <ele>326.1</ele>
        <time>2025-06-16T16:10:12Z</time>
      </trkpt>
      <trkpt lat="45.85935" lon="1.23583">
        <ele>326</ele>
        <time>2025-06-16T16:10:13Z</time>
      </trkpt>
      <trkpt lat="45.85934" lon="1.23583">
        <ele>325.9</ele>
        <time>2025-06-16T16:10:14Z</time>
      </trkpt>
      <trkpt lat="45.85931" lon="1.2358">
        <ele>325.8</ele>
        <time>2025-06-16T16:10:15Z</time>
      </trkpt>
      <trkpt lat="45.85929" lon="1.23578">
        <ele>325.8</ele>
        <time>2025-06-16T16:10:16Z</time>
      </trkpt>
      <trkpt lat="45.85927" lon="1.23575">
        <ele>325.8</ele>
        <time>2025-06-16T16:10:17Z</time>
      </trkpt>
      <trkpt lat="45.85924" lon="1.23571">
        <ele>325.7</ele>
        <time>2025-06-16T16:10:18Z</time>
      </trkpt>
      <trkpt lat="45.85921" lon="1.23568">
        <ele>325.7</ele>
        <time>2025-06-16T16:10:19Z</time>
      </trkpt>
      <trkpt lat="45.85917" lon="1.23565">
        <ele>325.7</ele>
        <time>2025-06-16T16:10:20Z</time>
      </trkpt>
      <trkpt lat="45.85913" lon="1.23563">
        <ele>325.7</ele>
        <time>2025-06-16T16:10:21Z</time>
      </trkpt>
      <trkpt lat="45.85904" lon="1.23557">
        <ele>325.6</ele>
        <time>2025-06-16T16:10:23Z</time>
      </trkpt>
      <trkpt lat="45.85899" lon="1.23555">
        <ele>325.5</ele>
        <time>2025-06-16T16:10:24Z</time>
      </trkpt>
      <trkpt lat="45.85895" lon="1.23553">
        <ele>325.5</ele>
        <time>2025-06-16T16:10:25Z</time>
      </trkpt>
      <trkpt lat="45.85885" lon="1.23552">
        <ele>325.3</ele>
        <time>2025-06-16T16:10:27Z</time>
      </trkpt>
      <trkpt lat="45.85881" lon="1.23552">
        <ele>325.3</ele>
        <time>2025-06-16T16:10:28Z</time>
      </trkpt>
      <trkpt lat="45.85876" lon="1.23553">
        <ele>325.1</ele>
        <time>2025-06-16T16:10:29Z</time>
      </trkpt>
      <trkpt lat="45.85871" lon="1.23555">
        <ele>324.9</ele>
        <time>2025-06-16T16:10:30Z</time>
      </trkpt>
      <trkpt lat="45.85866" lon="1.23557">
        <ele>324.6</ele>
        <time>2025-06-16T16:10:31Z</time>
      </trkpt>
      <trkpt lat="45.8586" lon="1.2356">
        <ele>324.4</ele>
        <time>2025-06-16T16:10:32Z</time>
      </trkpt>
      <trkpt lat="45.85855" lon="1.23563">
        <ele>324</ele>
        <time>2025-06-16T16:10:34Z</time>
      </trkpt>
      <trkpt lat="45.85844" lon="1.23571">
        <ele>323.2</ele>
        <time>2025-06-16T16:10:35Z</time>
      </trkpt>
      <trkpt lat="45.85831" lon="1.23581">
        <ele>322.3</ele>
        <time>2025-06-16T16:10:37Z</time>
      </trkpt>
      <trkpt lat="45.85824" lon="1.23586">
        <ele>321.9</ele>
        <time>2025-06-16T16:10:39Z</time>
      </trkpt>
      <trkpt lat="45.85817" lon="1.2359">
        <ele>321.4</ele>
        <time>2025-06-16T16:10:40Z</time>
      </trkpt>
      <trkpt lat="45.8581" lon="1.23596">
        <ele>320.9</ele>
        <time>2025-06-16T16:10:41Z</time>
      </trkpt>
      <trkpt lat="45.85795" lon="1.23605">
        <ele>320</ele>
        <time>2025-06-16T16:10:42Z</time>
      </trkpt>
      <trkpt lat="45.85788" lon="1.2361">
        <ele>319.5</ele>
        <time>2025-06-16T16:10:44Z</time>
      </trkpt>
      <trkpt lat="45.8578" lon="1.23615">
        <ele>319</ele>
        <time>2025-06-16T16:10:45Z</time>
      </trkpt>
      <trkpt lat="45.85773" lon="1.2362">
        <ele>318.5</ele>
        <time>2025-06-16T16:10:46Z</time>
      </trkpt>
      <trkpt lat="45.8576" lon="1.2363">
        <ele>317.7</ele>
        <time>2025-06-16T16:10:47Z</time>
      </trkpt>
      <trkpt lat="45.85753" lon="1.23635">
        <ele>317.5</ele>
        <time>2025-06-16T16:10:49Z</time>
      </trkpt>
      <trkpt lat="45.85747" lon="1.23639">
        <ele>317.2</ele>
        <time>2025-06-16T16:10:50Z</time>
      </trkpt>
      <trkpt lat="45.85741" lon="1.23642">
        <ele>317</ele>
        <time>2025-06-16T16:10:51Z</time>
      </trkpt>
      <trkpt lat="45.85735" lon="1.23644">
        <ele>316.7</ele>
        <time>2025-06-16T16:10:52Z</time>
      </trkpt>
      <trkpt lat="45.85729" lon="1.23645">
        <ele>316.4</ele>
        <time>2025-06-16T16:10:53Z</time>
      </trkpt>
      <trkpt lat="45.85723" lon="1.23648">
        <ele>316</ele>
        <time>2025-06-16T16:10:54Z</time>
      </trkpt>
      <trkpt lat="45.85712" lon="1.23656">
        <ele>315</ele>
        <time>2025-06-16T16:10:55Z</time>
      </trkpt>
      <trkpt lat="45.85706" lon="1.23659">
        <ele>314.6</ele>
        <time>2025-06-16T16:10:56Z</time>
      </trkpt>
      <trkpt lat="45.85693" lon="1.23669">
        <ele>313.5</ele>
        <time>2025-06-16T16:10:58Z</time>
      </trkpt>
      <trkpt lat="45.85685" lon="1.23675">
        <ele>313</ele>
        <time>2025-06-16T16:10:59Z</time>
      </trkpt>
      <trkpt lat="45.8567" lon="1.23685">
        <ele>312.3</ele>
        <time>2025-06-16T16:11:01Z</time>
      </trkpt>
      <trkpt lat="45.85662" lon="1.2369">
        <ele>312</ele>
        <time>2025-06-16T16:11:02Z</time>
      </trkpt>
      <trkpt lat="45.85655" lon="1.23694">
        <ele>311.7</ele>
        <time>2025-06-16T16:11:04Z</time>
      </trkpt>
      <trkpt lat="45.85641" lon="1.23704">
        <ele>311.1</ele>
        <time>2025-06-16T16:11:05Z</time>
      </trkpt>
      <trkpt lat="45.85634" lon="1.23708">
        <ele>310.8</ele>
        <time>2025-06-16T16:11:07Z</time>
      </trkpt>
      <trkpt lat="45.85627" lon="1.23712">
        <ele>310.4</ele>
        <time>2025-06-16T16:11:08Z</time>
      </trkpt>
      <trkpt lat="45.85619" lon="1.23716">
        <ele>310.1</ele>
        <time>2025-06-16T16:11:09Z</time>
      </trkpt>
      <trkpt lat="45.85612" lon="1.23719">
        <ele>309.7</ele>
        <time>2025-06-16T16:11:10Z</time>
      </trkpt>
      <trkpt lat="45.85603" lon="1.23721">
        <ele>309.3</ele>
        <time>2025-06-16T16:11:11Z</time>
      </trkpt>
      <trkpt lat="45.85596" lon="1.23724">
        <ele>308.9</ele>
        <time>2025-06-16T16:11:12Z</time>
      </trkpt>
      <trkpt lat="45.85588" lon="1.23727">
        <ele>308.4</ele>
        <time>2025-06-16T16:11:13Z</time>
      </trkpt>
      <trkpt lat="45.8558" lon="1.23731">
        <ele>308</ele>
        <time>2025-06-16T16:11:14Z</time>
      </trkpt>
      <trkpt lat="45.85564" lon="1.2374">
        <ele>307.2</ele>
        <time>2025-06-16T16:11:15Z</time>
      </trkpt>
      <trkpt lat="45.85557" lon="1.23746">
        <ele>306.9</ele>
        <time>2025-06-16T16:11:16Z</time>
      </trkpt>
      <trkpt lat="45.85542" lon="1.23757">
        <ele>306.2</ele>
        <time>2025-06-16T16:11:18Z</time>
      </trkpt>
      <trkpt lat="45.85528" lon="1.23769">
        <ele>305.4</ele>
        <time>2025-06-16T16:11:20Z</time>
      </trkpt>
      <trkpt lat="45.85514" lon="1.23779">
        <ele>304.5</ele>
        <time>2025-06-16T16:11:22Z</time>
      </trkpt>
      <trkpt lat="45.85506" lon="1.23783">
        <ele>304</ele>
        <time>2025-06-16T16:11:23Z</time>
      </trkpt>
      <trkpt lat="45.85499" lon="1.23786">
        <ele>303.6</ele>
        <time>2025-06-16T16:11:24Z</time>
      </trkpt>
      <trkpt lat="45.85491" lon="1.23787">
        <ele>303.2</ele>
        <time>2025-06-16T16:11:25Z</time>
      </trkpt>
      <trkpt lat="45.85483" lon="1.23787">
        <ele>302.7</ele>
        <time>2025-06-16T16:11:26Z</time>
      </trkpt>
      <trkpt lat="45.85466" lon="1.2379">
        <ele>301.8</ele>
        <time>2025-06-16T16:11:28Z</time>
      </trkpt>
      <trkpt lat="45.85451" lon="1.23791">
        <ele>301.2</ele>
        <time>2025-06-16T16:11:30Z</time>
      </trkpt>
      <trkpt lat="45.85443" lon="1.23794">
        <ele>301</ele>
        <time>2025-06-16T16:11:32Z</time>
      </trkpt>
      <trkpt lat="45.85436" lon="1.23797">
        <ele>300.9</ele>
        <time>2025-06-16T16:11:33Z</time>
      </trkpt>
      <trkpt lat="45.85428" lon="1.23797">
        <ele>300.9</ele>
        <time>2025-06-16T16:11:34Z</time>
      </trkpt>
      <trkpt lat="45.85416" lon="1.23792">
        <ele>301.1</ele>
        <time>2025-06-16T16:11:35Z</time>
      </trkpt>
      <trkpt lat="45.85411" lon="1.23786">
        <ele>301.3</ele>
        <time>2025-06-16T16:11:37Z</time>
      </trkpt>
      <trkpt lat="45.85404" lon="1.23774">
        <ele>301.9</ele>
        <time>2025-06-16T16:11:38Z</time>
      </trkpt>
      <trkpt lat="45.85402" lon="1.23768">
        <ele>302.1</ele>
        <time>2025-06-16T16:11:40Z</time>
      </trkpt>
      <trkpt lat="45.85398" lon="1.23758">
        <ele>302.5</ele>
        <time>2025-06-16T16:11:41Z</time>
      </trkpt>
      <trkpt lat="45.85396" lon="1.23753">
        <ele>302.7</ele>
        <time>2025-06-16T16:11:42Z</time>
      </trkpt>
      <trkpt lat="45.85394" lon="1.23748">
        <ele>302.8</ele>
        <time>2025-06-16T16:11:43Z</time>
      </trkpt>
      <trkpt lat="45.85393" lon="1.23744">
        <ele>302.8</ele>
        <time>2025-06-16T16:11:44Z</time>
      </trkpt>
      <trkpt lat="45.85392" lon="1.2374">
        <ele>302.8</ele>
        <time>2025-06-16T16:11:45Z</time>
      </trkpt>
      <trkpt lat="45.85388" lon="1.2373">
        <ele>302.7</ele>
        <time>2025-06-16T16:11:47Z</time>
      </trkpt>
      <trkpt lat="45.85386" lon="1.23725">
        <ele>302.6</ele>
        <time>2025-06-16T16:11:49Z</time>
      </trkpt>
      <trkpt lat="45.85381" lon="1.23712">
        <ele>302.1</ele>
        <time>2025-06-16T16:11:50Z</time>
      </trkpt>
      <trkpt lat="45.85374" lon="1.23695">
        <ele>301.1</ele>
        <time>2025-06-16T16:11:52Z</time>
      </trkpt>
      <trkpt lat="45.85371" lon="1.23687">
        <ele>300.4</ele>
        <time>2025-06-16T16:11:53Z</time>
      </trkpt>
      <trkpt lat="45.85366" lon="1.23676">
        <ele>299.7</ele>
        <time>2025-06-16T16:11:54Z</time>
      </trkpt>
      <trkpt lat="45.85361" lon="1.23665">
        <ele>298.9</ele>
        <time>2025-06-16T16:11:55Z</time>
      </trkpt>
      <trkpt lat="45.85356" lon="1.23654">
        <ele>298.2</ele>
        <time>2025-06-16T16:11:56Z</time>
      </trkpt>
      <trkpt lat="45.85351" lon="1.23641">
        <ele>297.6</ele>
        <time>2025-06-16T16:11:57Z</time>
      </trkpt>
      <trkpt lat="45.85346" lon="1.23629">
        <ele>297.1</ele>
        <time>2025-06-16T16:11:58Z</time>
      </trkpt>
      <trkpt lat="45.85342" lon="1.23619">
        <ele>296.8</ele>
        <time>2025-06-16T16:11:59Z</time>
      </trkpt>
      <trkpt lat="45.85338" lon="1.23609">
        <ele>296.6</ele>
        <time>2025-06-16T16:12:00Z</time>
      </trkpt>
      <trkpt lat="45.85334" lon="1.23599">
        <ele>296.4</ele>
        <time>2025-06-16T16:12:01Z</time>
      </trkpt>
      <trkpt lat="45.8533" lon="1.2359">
        <ele>296.2</ele>
        <time>2025-06-16T16:12:03Z</time>
      </trkpt>
      <trkpt lat="45.85321" lon="1.2357">
        <ele>295.8</ele>
        <time>2025-06-16T16:12:04Z</time>
      </trkpt>
      <trkpt lat="45.85317" lon="1.2356">
        <ele>295.7</ele>
        <time>2025-06-16T16:12:05Z</time>
      </trkpt>
      <trkpt lat="45.85314" lon="1.23551">
        <ele>295.6</ele>
        <time>2025-06-16T16:12:07Z</time>
      </trkpt>
      <trkpt lat="45.85311" lon="1.23544">
        <ele>295.6</ele>
        <time>2025-06-16T16:12:08Z</time>
      </trkpt>
      <trkpt lat="45.85305" lon="1.23528">
        <ele>295.4</ele>
        <time>2025-06-16T16:12:09Z</time>
      </trkpt>
      <trkpt lat="45.85299" lon="1.23514">
        <ele>295.2</ele>
        <time>2025-06-16T16:12:11Z</time>
      </trkpt>
      <trkpt lat="45.85297" lon="1.23507">
        <ele>295</ele>
        <time>2025-06-16T16:12:12Z</time>
      </trkpt>
      <trkpt lat="45.85295" lon="1.23501">
        <ele>294.9</ele>
        <time>2025-06-16T16:12:13Z</time>
      </trkpt>
      <trkpt lat="45.85292" lon="1.23495">
        <ele>294.6</ele>
        <time>2025-06-16T16:12:14Z</time>
      </trkpt>
      <trkpt lat="45.85288" lon="1.23489">
        <ele>294.4</ele>
        <time>2025-06-16T16:12:15Z</time>
      </trkpt>
      <trkpt lat="45.85281" lon="1.23485">
        <ele>293.9</ele>
        <time>2025-06-16T16:12:17Z</time>
      </trkpt>
      <trkpt lat="45.85272" lon="1.23483">
        <ele>293.5</ele>
        <time>2025-06-16T16:12:19Z</time>
      </trkpt>
      <trkpt lat="45.85268" lon="1.23483">
        <ele>293.2</ele>
        <time>2025-06-16T16:12:20Z</time>
      </trkpt>
      <trkpt lat="45.85263" lon="1.23482">
        <ele>293</ele>
        <time>2025-06-16T16:12:21Z</time>
      </trkpt>
      <trkpt lat="45.85258" lon="1.23481">
        <ele>292.7</ele>
        <time>2025-06-16T16:12:22Z</time>
      </trkpt>
      <trkpt lat="45.85247" lon="1.2348">
        <ele>292.1</ele>
        <time>2025-06-16T16:12:24Z</time>
      </trkpt>
      <trkpt lat="45.85242" lon="1.2348">
        <ele>291.9</ele>
        <time>2025-06-16T16:12:26Z</time>
      </trkpt>
      <trkpt lat="45.85237" lon="1.2348">
        <ele>291.6</ele>
        <time>2025-06-16T16:12:27Z</time>
      </trkpt>
      <trkpt lat="45.85224" lon="1.23482">
        <ele>290.9</ele>
        <time>2025-06-16T16:12:28Z</time>
      </trkpt>
      <trkpt lat="45.85218" lon="1.23482">
        <ele>290.5</ele>
        <time>2025-06-16T16:12:29Z</time>
      </trkpt>
      <trkpt lat="45.85212" lon="1.23483">
        <ele>290</ele>
        <time>2025-06-16T16:12:31Z</time>
      </trkpt>
      <trkpt lat="45.85202" lon="1.23485">
        <ele>289.3</ele>
        <time>2025-06-16T16:12:32Z</time>
      </trkpt>
      <trkpt lat="45.85192" lon="1.2349">
        <ele>288.6</ele>
        <time>2025-06-16T16:12:34Z</time>
      </trkpt>
      <trkpt lat="45.8518" lon="1.23498">
        <ele>288</ele>
        <time>2025-06-16T16:12:36Z</time>
      </trkpt>
      <trkpt lat="45.85175" lon="1.23503">
        <ele>287.6</ele>
        <time>2025-06-16T16:12:37Z</time>
      </trkpt>
      <trkpt lat="45.8517" lon="1.23508">
        <ele>287.4</ele>
        <time>2025-06-16T16:12:39Z</time>
      </trkpt>
      <trkpt lat="45.85166" lon="1.23513">
        <ele>287.1</ele>
        <time>2025-06-16T16:12:40Z</time>
      </trkpt>
      <trkpt lat="45.85157" lon="1.2352">
        <ele>286.6</ele>
        <time>2025-06-16T16:12:41Z</time>
      </trkpt>
      <trkpt lat="45.85151" lon="1.23521">
        <ele>286.5</ele>
        <time>2025-06-16T16:12:42Z</time>
      </trkpt>
      <trkpt lat="45.85145" lon="1.2352">
        <ele>286.4</ele>
        <time>2025-06-16T16:12:43Z</time>
      </trkpt>
      <trkpt lat="45.85134" lon="1.23511">
        <ele>286</ele>
        <time>2025-06-16T16:12:45Z</time>
      </trkpt>
      <trkpt lat="45.85128" lon="1.23506">
        <ele>285.7</ele>
        <time>2025-06-16T16:12:47Z</time>
      </trkpt>
      <trkpt lat="45.85124" lon="1.23499">
        <ele>285.5</ele>
        <time>2025-06-16T16:12:48Z</time>
      </trkpt>
      <trkpt lat="45.85114" lon="1.23489">
        <ele>285</ele>
        <time>2025-06-16T16:12:49Z</time>
      </trkpt>
      <trkpt lat="45.85109" lon="1.23483">
        <ele>284.8</ele>
        <time>2025-06-16T16:12:50Z</time>
      </trkpt>
      <trkpt lat="45.85104" lon="1.23477">
        <ele>284.6</ele>
        <time>2025-06-16T16:12:51Z</time>
      </trkpt>
      <trkpt lat="45.85099" lon="1.23472">
        <ele>284.4</ele>
        <time>2025-06-16T16:12:52Z</time>
      </trkpt>
      <trkpt lat="45.85088" lon="1.23461">
        <ele>283.9</ele>
        <time>2025-06-16T16:12:54Z</time>
      </trkpt>
      <trkpt lat="45.85078" lon="1.23451">
        <ele>283.5</ele>
        <time>2025-06-16T16:12:56Z</time>
      </trkpt>
      <trkpt lat="45.85073" lon="1.23444">
        <ele>283.3</ele>
        <time>2025-06-16T16:12:57Z</time>
      </trkpt>
      <trkpt lat="45.85068" lon="1.23437">
        <ele>283</ele>
        <time>2025-06-16T16:12:58Z</time>
      </trkpt>
      <trkpt lat="45.85064" lon="1.2343">
        <ele>282.8</ele>
        <time>2025-06-16T16:12:59Z</time>
      </trkpt>
      <trkpt lat="45.85059" lon="1.23425">
        <ele>282.6</ele>
        <time>2025-06-16T16:13:00Z</time>
      </trkpt>
      <trkpt lat="45.85055" lon="1.23418">
        <ele>282.4</ele>
        <time>2025-06-16T16:13:01Z</time>
      </trkpt>
      <trkpt lat="45.8505" lon="1.23412">
        <ele>282.2</ele>
        <time>2025-06-16T16:13:02Z</time>
      </trkpt>
      <trkpt lat="45.85044" lon="1.23405">
        <ele>282</ele>
        <time>2025-06-16T16:13:03Z</time>
      </trkpt>
      <trkpt lat="45.85034" lon="1.23392">
        <ele>281.5</ele>
        <time>2025-06-16T16:13:05Z</time>
      </trkpt>
      <trkpt lat="45.85029" lon="1.23385">
        <ele>281.3</ele>
        <time>2025-06-16T16:13:06Z</time>
      </trkpt>
      <trkpt lat="45.85024" lon="1.23378">
        <ele>281</ele>
        <time>2025-06-16T16:13:07Z</time>
      </trkpt>
      <trkpt lat="45.85014" lon="1.23364">
        <ele>280.4</ele>
        <time>2025-06-16T16:13:09Z</time>
      </trkpt>
      <trkpt lat="45.85009" lon="1.23356">
        <ele>280.1</ele>
        <time>2025-06-16T16:13:10Z</time>
      </trkpt>
      <trkpt lat="45.85004" lon="1.23349">
        <ele>279.7</ele>
        <time>2025-06-16T16:13:11Z</time>
      </trkpt>
      <trkpt lat="45.84999" lon="1.23342">
        <ele>279.4</ele>
        <time>2025-06-16T16:13:12Z</time>
      </trkpt>
      <trkpt lat="45.84986" lon="1.2333">
        <ele>278.6</ele>
        <time>2025-06-16T16:13:14Z</time>
      </trkpt>
      <trkpt lat="45.84979" lon="1.23326">
        <ele>278.1</ele>
        <time>2025-06-16T16:13:15Z</time>
      </trkpt>
      <trkpt lat="45.8497" lon="1.23324">
        <ele>277.5</ele>
        <time>2025-06-16T16:13:16Z</time>
      </trkpt>
      <trkpt lat="45.84961" lon="1.23323">
        <ele>276.8</ele>
        <time>2025-06-16T16:13:17Z</time>
      </trkpt>
      <trkpt lat="45.84953" lon="1.23321">
        <ele>276.1</ele>
        <time>2025-06-16T16:13:18Z</time>
      </trkpt>
      <trkpt lat="45.84944" lon="1.23318">
        <ele>275.4</ele>
        <time>2025-06-16T16:13:19Z</time>
      </trkpt>
      <trkpt lat="45.84935" lon="1.23315">
        <ele>274.6</ele>
        <time>2025-06-16T16:13:20Z</time>
      </trkpt>
      <trkpt lat="45.84927" lon="1.23313">
        <ele>273.9</ele>
        <time>2025-06-16T16:13:21Z</time>
      </trkpt>
      <trkpt lat="45.84919" lon="1.23309">
        <ele>273.1</ele>
        <time>2025-06-16T16:13:22Z</time>
      </trkpt>
      <trkpt lat="45.84912" lon="1.23304">
        <ele>272.2</ele>
        <time>2025-06-16T16:13:23Z</time>
      </trkpt>
      <trkpt lat="45.84904" lon="1.23298">
        <ele>271.2</ele>
        <time>2025-06-16T16:13:24Z</time>
      </trkpt>
      <trkpt lat="45.84897" lon="1.23293">
        <ele>270.1</ele>
        <time>2025-06-16T16:13:25Z</time>
      </trkpt>
      <trkpt lat="45.8489" lon="1.23287">
        <ele>269.1</ele>
        <time>2025-06-16T16:13:26Z</time>
      </trkpt>
      <trkpt lat="45.84882" lon="1.23281">
        <ele>267.9</ele>
        <time>2025-06-16T16:13:27Z</time>
      </trkpt>
      <trkpt lat="45.84866" lon="1.23269">
        <ele>265.8</ele>
        <time>2025-06-16T16:13:29Z</time>
      </trkpt>
      <trkpt lat="45.84858" lon="1.23263">
        <ele>264.9</ele>
        <time>2025-06-16T16:13:30Z</time>
      </trkpt>
      <trkpt lat="45.84851" lon="1.23257">
        <ele>264.3</ele>
        <time>2025-06-16T16:13:31Z</time>
      </trkpt>
      <trkpt lat="45.84844" lon="1.23253">
        <ele>263.8</ele>
        <time>2025-06-16T16:13:32Z</time>
      </trkpt>
      <trkpt lat="45.84839" lon="1.23248">
        <ele>263.6</ele>
        <time>2025-06-16T16:13:33Z</time>
      </trkpt>
      <trkpt lat="45.84834" lon="1.23243">
        <ele>263.4</ele>
        <time>2025-06-16T16:13:34Z</time>
      </trkpt>
      <trkpt lat="45.84831" lon="1.23236">
        <ele>263.5</ele>
        <time>2025-06-16T16:13:35Z</time>
      </trkpt>
      <trkpt lat="45.84829" lon="1.23229">
        <ele>263.5</ele>
        <time>2025-06-16T16:13:36Z</time>
      </trkpt>
      <trkpt lat="45.84828" lon="1.23222">
        <ele>263.5</ele>
        <time>2025-06-16T16:13:37Z</time>
      </trkpt>
      <trkpt lat="45.84832" lon="1.23208">
        <ele>263.6</ele>
        <time>2025-06-16T16:13:39Z</time>
      </trkpt>
      <trkpt lat="45.84836" lon="1.23202">
        <ele>263.6</ele>
        <time>2025-06-16T16:13:41Z</time>
      </trkpt>
      <trkpt lat="45.84847" lon="1.2319">
        <ele>263.6</ele>
        <time>2025-06-16T16:13:42Z</time>
      </trkpt>
      <trkpt lat="45.84852" lon="1.23183">
        <ele>263.6</ele>
        <time>2025-06-16T16:13:43Z</time>
      </trkpt>
      <trkpt lat="45.84856" lon="1.23175">
        <ele>263.7</ele>
        <time>2025-06-16T16:13:44Z</time>
      </trkpt>
      <trkpt lat="45.8486" lon="1.23169">
        <ele>263.9</ele>
        <time>2025-06-16T16:13:45Z</time>
      </trkpt>
      <trkpt lat="45.84863" lon="1.23163">
        <ele>264</ele>
        <time>2025-06-16T16:13:46Z</time>
      </trkpt>
      <trkpt lat="45.84867" lon="1.23156">
        <ele>264.2</ele>
        <time>2025-06-16T16:13:47Z</time>
      </trkpt>
      <trkpt lat="45.84871" lon="1.23149">
        <ele>264.5</ele>
        <time>2025-06-16T16:13:48Z</time>
      </trkpt>
      <trkpt lat="45.84875" lon="1.23143">
        <ele>264.8</ele>
        <time>2025-06-16T16:13:49Z</time>
      </trkpt>
      <trkpt lat="45.84879" lon="1.23138">
        <ele>265.1</ele>
        <time>2025-06-16T16:13:50Z</time>
      </trkpt>
      <trkpt lat="45.84883" lon="1.23131">
        <ele>265.4</ele>
        <time>2025-06-16T16:13:51Z</time>
      </trkpt>
      <trkpt lat="45.84887" lon="1.23126">
        <ele>265.8</ele>
        <time>2025-06-16T16:13:52Z</time>
      </trkpt>
      <trkpt lat="45.8489" lon="1.2312">
        <ele>266.2</ele>
        <time>2025-06-16T16:13:53Z</time>
      </trkpt>
      <trkpt lat="45.84893" lon="1.23115">
        <ele>266.5</ele>
        <time>2025-06-16T16:13:54Z</time>
      </trkpt>
      <trkpt lat="45.84896" lon="1.2311">
        <ele>266.9</ele>
        <time>2025-06-16T16:13:55Z</time>
      </trkpt>
      <trkpt lat="45.84898" lon="1.23104">
        <ele>267.3</ele>
        <time>2025-06-16T16:13:57Z</time>
      </trkpt>
      <trkpt lat="45.84903" lon="1.23091">
        <ele>268.2</ele>
        <time>2025-06-16T16:13:58Z</time>
      </trkpt>
      <trkpt lat="45.84905" lon="1.23085">
        <ele>268.6</ele>
        <time>2025-06-16T16:13:59Z</time>
      </trkpt>
      <trkpt lat="45.84907" lon="1.23079">
        <ele>269</ele>
        <time>2025-06-16T16:14:00Z</time>
      </trkpt>
      <trkpt lat="45.84912" lon="1.23067">
        <ele>269.8</ele>
        <time>2025-06-16T16:14:02Z</time>
      </trkpt>
      <trkpt lat="45.84916" lon="1.23055">
        <ele>270.6</ele>
        <time>2025-06-16T16:14:04Z</time>
      </trkpt>
      <trkpt lat="45.84919" lon="1.23049">
        <ele>271</ele>
        <time>2025-06-16T16:14:05Z</time>
      </trkpt>
      <trkpt lat="45.84921" lon="1.23043">
        <ele>271.4</ele>
        <time>2025-06-16T16:14:06Z</time>
      </trkpt>
      <trkpt lat="45.84923" lon="1.23038">
        <ele>271.7</ele>
        <time>2025-06-16T16:14:08Z</time>
      </trkpt>
      <trkpt lat="45.84924" lon="1.23032">
        <ele>272.1</ele>
        <time>2025-06-16T16:14:09Z</time>
      </trkpt>
      <trkpt lat="45.84927" lon="1.23027">
        <ele>272.4</ele>
        <time>2025-06-16T16:14:10Z</time>
      </trkpt>
      <trkpt lat="45.84929" lon="1.23022">
        <ele>272.8</ele>
        <time>2025-06-16T16:14:11Z</time>
      </trkpt>
      <trkpt lat="45.84931" lon="1.23016">
        <ele>273.1</ele>
        <time>2025-06-16T16:14:12Z</time>
      </trkpt>
      <trkpt lat="45.84932" lon="1.2301">
        <ele>273.5</ele>
        <time>2025-06-16T16:14:13Z</time>
      </trkpt>
      <trkpt lat="45.84934" lon="1.23004">
        <ele>273.9</ele>
        <time>2025-06-16T16:14:14Z</time>
      </trkpt>
      <trkpt lat="45.84937" lon="1.22992">
        <ele>274.6</ele>
        <time>2025-06-16T16:14:15Z</time>
      </trkpt>
      <trkpt lat="45.84939" lon="1.22979">
        <ele>275.2</ele>
        <time>2025-06-16T16:14:17Z</time>
      </trkpt>
      <trkpt lat="45.8494" lon="1.22973">
        <ele>275.5</ele>
        <time>2025-06-16T16:14:18Z</time>
      </trkpt>
      <trkpt lat="45.8494" lon="1.22966">
        <ele>275.8</ele>
        <time>2025-06-16T16:14:20Z</time>
      </trkpt>
      <trkpt lat="45.84941" lon="1.2296">
        <ele>276</ele>
        <time>2025-06-16T16:14:21Z</time>
      </trkpt>
      <trkpt lat="45.84942" lon="1.22954">
        <ele>276</ele>
        <time>2025-06-16T16:14:22Z</time>
      </trkpt>
      <trkpt lat="45.84943" lon="1.22948">
        <ele>276.1</ele>
        <time>2025-06-16T16:14:23Z</time>
      </trkpt>
      <trkpt lat="45.84944" lon="1.22942">
        <ele>276.3</ele>
        <time>2025-06-16T16:14:24Z</time>
      </trkpt>
      <trkpt lat="45.84944" lon="1.22929">
        <ele>276.8</ele>
        <time>2025-06-16T16:14:25Z</time>
      </trkpt>
      <trkpt lat="45.84944" lon="1.22923">
        <ele>277.1</ele>
        <time>2025-06-16T16:14:26Z</time>
      </trkpt>
      <trkpt lat="45.84944" lon="1.22916">
        <ele>277.3</ele>
        <time>2025-06-16T16:14:27Z</time>
      </trkpt>
      <trkpt lat="45.84943" lon="1.2291">
        <ele>277.6</ele>
        <time>2025-06-16T16:14:28Z</time>
      </trkpt>
      <trkpt lat="45.84943" lon="1.22905">
        <ele>277.8</ele>
        <time>2025-06-16T16:14:30Z</time>
      </trkpt>
      <trkpt lat="45.84943" lon="1.22892">
        <ele>278.3</ele>
        <time>2025-06-16T16:14:31Z</time>
      </trkpt>
      <trkpt lat="45.84942" lon="1.2288">
        <ele>278.8</ele>
        <time>2025-06-16T16:14:33Z</time>
      </trkpt>
      <trkpt lat="45.84941" lon="1.22873">
        <ele>279</ele>
        <time>2025-06-16T16:14:34Z</time>
      </trkpt>
      <trkpt lat="45.8494" lon="1.2286">
        <ele>279.5</ele>
        <time>2025-06-16T16:14:36Z</time>
      </trkpt>
      <trkpt lat="45.84939" lon="1.22854">
        <ele>279.8</ele>
        <time>2025-06-16T16:14:37Z</time>
      </trkpt>
      <trkpt lat="45.84937" lon="1.22841">
        <ele>280.3</ele>
        <time>2025-06-16T16:14:39Z</time>
      </trkpt>
      <trkpt lat="45.84937" lon="1.22828">
        <ele>280.8</ele>
        <time>2025-06-16T16:14:41Z</time>
      </trkpt>
      <trkpt lat="45.84937" lon="1.22822">
        <ele>281.1</ele>
        <time>2025-06-16T16:14:42Z</time>
      </trkpt>
      <trkpt lat="45.84937" lon="1.22816">
        <ele>281.3</ele>
        <time>2025-06-16T16:14:43Z</time>
      </trkpt>
      <trkpt lat="45.84938" lon="1.22803">
        <ele>281.8</ele>
        <time>2025-06-16T16:14:45Z</time>
      </trkpt>
      <trkpt lat="45.84938" lon="1.22796">
        <ele>282.1</ele>
        <time>2025-06-16T16:14:46Z</time>
      </trkpt>
      <trkpt lat="45.84938" lon="1.2279">
        <ele>282.4</ele>
        <time>2025-06-16T16:14:47Z</time>
      </trkpt>
      <trkpt lat="45.84938" lon="1.22783">
        <ele>282.7</ele>
        <time>2025-06-16T16:14:48Z</time>
      </trkpt>
      <trkpt lat="45.84938" lon="1.22777">
        <ele>282.9</ele>
        <time>2025-06-16T16:14:49Z</time>
      </trkpt>
      <trkpt lat="45.84937" lon="1.2277">
        <ele>283.2</ele>
        <time>2025-06-16T16:14:51Z</time>
      </trkpt>
      <trkpt lat="45.84938" lon="1.22763">
        <ele>283.5</ele>
        <time>2025-06-16T16:14:52Z</time>
      </trkpt>
      <trkpt lat="45.84935" lon="1.22752">
        <ele>283.9</ele>
        <time>2025-06-16T16:14:53Z</time>
      </trkpt>
      <trkpt lat="45.84931" lon="1.2275">
        <ele>283.9</ele>
        <time>2025-06-16T16:14:54Z</time>
      </trkpt>
      <trkpt lat="45.84925" lon="1.22753">
        <ele>284</ele>
        <time>2025-06-16T16:14:55Z</time>
      </trkpt>
      <trkpt lat="45.84913" lon="1.22758">
        <ele>284</ele>
        <time>2025-06-16T16:14:57Z</time>
      </trkpt>
      <trkpt lat="45.84902" lon="1.22763">
        <ele>284</ele>
        <time>2025-06-16T16:14:59Z</time>
      </trkpt>
      <trkpt lat="45.84897" lon="1.22767">
        <ele>283.9</ele>
        <time>2025-06-16T16:15:00Z</time>
      </trkpt>
      <trkpt lat="45.84892" lon="1.22771">
        <ele>283.9</ele>
        <time>2025-06-16T16:15:02Z</time>
      </trkpt>
      <trkpt lat="45.84881" lon="1.22779">
        <ele>283.8</ele>
        <time>2025-06-16T16:15:03Z</time>
      </trkpt>
      <trkpt lat="45.84876" lon="1.22783">
        <ele>283.7</ele>
        <time>2025-06-16T16:15:04Z</time>
      </trkpt>
      <trkpt lat="45.84871" lon="1.22787">
        <ele>283.7</ele>
        <time>2025-06-16T16:15:05Z</time>
      </trkpt>
      <trkpt lat="45.84865" lon="1.22791">
        <ele>283.6</ele>
        <time>2025-06-16T16:15:06Z</time>
      </trkpt>
      <trkpt lat="45.8486" lon="1.22794">
        <ele>283.4</ele>
        <time>2025-06-16T16:15:07Z</time>
      </trkpt>
      <trkpt lat="45.84854" lon="1.22798">
        <ele>283.3</ele>
        <time>2025-06-16T16:15:08Z</time>
      </trkpt>
      <trkpt lat="45.84849" lon="1.22802">
        <ele>283.2</ele>
        <time>2025-06-16T16:15:09Z</time>
      </trkpt>
      <trkpt lat="45.84843" lon="1.22806">
        <ele>283.1</ele>
        <time>2025-06-16T16:15:10Z</time>
      </trkpt>
      <trkpt lat="45.84838" lon="1.2281">
        <ele>283</ele>
        <time>2025-06-16T16:15:11Z</time>
      </trkpt>
      <trkpt lat="45.84832" lon="1.22814">
        <ele>282.9</ele>
        <time>2025-06-16T16:15:12Z</time>
      </trkpt>
      <trkpt lat="45.84827" lon="1.22818">
        <ele>282.8</ele>
        <time>2025-06-16T16:15:13Z</time>
      </trkpt>
      <trkpt lat="45.84822" lon="1.22822">
        <ele>282.6</ele>
        <time>2025-06-16T16:15:14Z</time>
      </trkpt>
      <trkpt lat="45.84817" lon="1.22826">
        <ele>282.5</ele>
        <time>2025-06-16T16:15:15Z</time>
      </trkpt>
      <trkpt lat="45.84804" lon="1.22831">
        <ele>282.2</ele>
        <time>2025-06-16T16:15:17Z</time>
      </trkpt>
      <trkpt lat="45.84792" lon="1.22826">
        <ele>281.5</ele>
        <time>2025-06-16T16:15:19Z</time>
      </trkpt>
      <trkpt lat="45.84786" lon="1.22821">
        <ele>280.9</ele>
        <time>2025-06-16T16:15:20Z</time>
      </trkpt>
      <trkpt lat="45.84781" lon="1.22812">
        <ele>280.3</ele>
        <time>2025-06-16T16:15:21Z</time>
      </trkpt>
      <trkpt lat="45.84778" lon="1.22803">
        <ele>279.6</ele>
        <time>2025-06-16T16:15:22Z</time>
      </trkpt>
      <trkpt lat="45.84774" lon="1.22792">
        <ele>278.9</ele>
        <time>2025-06-16T16:15:23Z</time>
      </trkpt>
      <trkpt lat="45.8477" lon="1.22781">
        <ele>278.2</ele>
        <time>2025-06-16T16:15:24Z</time>
      </trkpt>
      <trkpt lat="45.84764" lon="1.22762">
        <ele>277.1</ele>
        <time>2025-06-16T16:15:26Z</time>
      </trkpt>
      <trkpt lat="45.84762" lon="1.22754">
        <ele>276.6</ele>
        <time>2025-06-16T16:15:27Z</time>
      </trkpt>
      <trkpt lat="45.84759" lon="1.22746">
        <ele>276.3</ele>
        <time>2025-06-16T16:15:28Z</time>
      </trkpt>
      <trkpt lat="45.84756" lon="1.22739">
        <ele>275.9</ele>
        <time>2025-06-16T16:15:29Z</time>
      </trkpt>
      <trkpt lat="45.84752" lon="1.22727">
        <ele>275.4</ele>
        <time>2025-06-16T16:15:31Z</time>
      </trkpt>
      <trkpt lat="45.8475" lon="1.22722">
        <ele>275.2</ele>
        <time>2025-06-16T16:15:32Z</time>
      </trkpt>
      <trkpt lat="45.84748" lon="1.22718">
        <ele>275</ele>
        <time>2025-06-16T16:15:34Z</time>
      </trkpt>
      <trkpt lat="45.84745" lon="1.22714">
        <ele>274.8</ele>
        <time>2025-06-16T16:15:35Z</time>
      </trkpt>
      <trkpt lat="45.84742" lon="1.22713">
        <ele>274.3</ele>
        <time>2025-06-16T16:15:36Z</time>
      </trkpt>
      <trkpt lat="45.84737" lon="1.22716">
        <ele>273.9</ele>
        <time>2025-06-16T16:15:37Z</time>
      </trkpt>
      <trkpt lat="45.84731" lon="1.22731">
        <ele>272.9</ele>
        <time>2025-06-16T16:15:38Z</time>
      </trkpt>
      <trkpt lat="45.84728" lon="1.22739">
        <ele>272.2</ele>
        <time>2025-06-16T16:15:39Z</time>
      </trkpt>
      <trkpt lat="45.84726" lon="1.22745">
        <ele>271.6</ele>
        <time>2025-06-16T16:15:41Z</time>
      </trkpt>
      <trkpt lat="45.84723" lon="1.22749">
        <ele>271.1</ele>
        <time>2025-06-16T16:15:42Z</time>
      </trkpt>
      <trkpt lat="45.84712" lon="1.22749">
        <ele>269.9</ele>
        <time>2025-06-16T16:15:43Z</time>
      </trkpt>
      <trkpt lat="45.84707" lon="1.22744">
        <ele>269.2</ele>
        <time>2025-06-16T16:15:44Z</time>
      </trkpt>
      <trkpt lat="45.84695" lon="1.22738">
        <ele>267.7</ele>
        <time>2025-06-16T16:15:46Z</time>
      </trkpt>
      <trkpt lat="45.84688" lon="1.22739">
        <ele>267</ele>
        <time>2025-06-16T16:15:47Z</time>
      </trkpt>
      <trkpt lat="45.84681" lon="1.22739">
        <ele>266.1</ele>
        <time>2025-06-16T16:15:48Z</time>
      </trkpt>
      <trkpt lat="45.84675" lon="1.22741">
        <ele>265.3</ele>
        <time>2025-06-16T16:15:49Z</time>
      </trkpt>
      <trkpt lat="45.84669" lon="1.22743">
        <ele>264.6</ele>
        <time>2025-06-16T16:15:50Z</time>
      </trkpt>
      <trkpt lat="45.84664" lon="1.22745">
        <ele>264</ele>
        <time>2025-06-16T16:15:51Z</time>
      </trkpt>
      <trkpt lat="45.84659" lon="1.22744">
        <ele>263.5</ele>
        <time>2025-06-16T16:15:52Z</time>
      </trkpt>
      <trkpt lat="45.84655" lon="1.22743">
        <ele>263.3</ele>
        <time>2025-06-16T16:15:54Z</time>
      </trkpt>
      <trkpt lat="45.8465" lon="1.22739">
        <ele>263</ele>
        <time>2025-06-16T16:15:55Z</time>
      </trkpt>
      <trkpt lat="45.84648" lon="1.22736">
        <ele>262.8</ele>
        <time>2025-06-16T16:15:56Z</time>
      </trkpt>
      <trkpt lat="45.84645" lon="1.22731">
        <ele>262.5</ele>
        <time>2025-06-16T16:15:57Z</time>
      </trkpt>
      <trkpt lat="45.84642" lon="1.2273">
        <ele>262.3</ele>
        <time>2025-06-16T16:15:58Z</time>
      </trkpt>
      <trkpt lat="45.84638" lon="1.22729">
        <ele>262</ele>
        <time>2025-06-16T16:15:59Z</time>
      </trkpt>
      <trkpt lat="45.84633" lon="1.22729">
        <ele>261.6</ele>
        <time>2025-06-16T16:16:01Z</time>
      </trkpt>
      <trkpt lat="45.84623" lon="1.22726">
        <ele>260.8</ele>
        <time>2025-06-16T16:16:02Z</time>
      </trkpt>
      <trkpt lat="45.84611" lon="1.22725">
        <ele>260</ele>
        <time>2025-06-16T16:16:04Z</time>
      </trkpt>
      <trkpt lat="45.84605" lon="1.22725">
        <ele>259.6</ele>
        <time>2025-06-16T16:16:05Z</time>
      </trkpt>
      <trkpt lat="45.84599" lon="1.22727">
        <ele>259.3</ele>
        <time>2025-06-16T16:16:06Z</time>
      </trkpt>
      <trkpt lat="45.84594" lon="1.22728">
        <ele>259</ele>
        <time>2025-06-16T16:16:07Z</time>
      </trkpt>
      <trkpt lat="45.84588" lon="1.22727">
        <ele>258.8</ele>
        <time>2025-06-16T16:16:08Z</time>
      </trkpt>
      <trkpt lat="45.84582" lon="1.22729">
        <ele>258.5</ele>
        <time>2025-06-16T16:16:09Z</time>
      </trkpt>
      <trkpt lat="45.84576" lon="1.22731">
        <ele>258.3</ele>
        <time>2025-06-16T16:16:10Z</time>
      </trkpt>
      <trkpt lat="45.8457" lon="1.22731">
        <ele>258.2</ele>
        <time>2025-06-16T16:16:11Z</time>
      </trkpt>
      <trkpt lat="45.84564" lon="1.22731">
        <ele>258</ele>
        <time>2025-06-16T16:16:12Z</time>
      </trkpt>
      <trkpt lat="45.84558" lon="1.22728">
        <ele>257.9</ele>
        <time>2025-06-16T16:16:13Z</time>
      </trkpt>
      <trkpt lat="45.84553" lon="1.22726">
        <ele>257.8</ele>
        <time>2025-06-16T16:16:14Z</time>
      </trkpt>
      <trkpt lat="45.84548" lon="1.22724">
        <ele>257.8</ele>
        <time>2025-06-16T16:16:15Z</time>
      </trkpt>
      <trkpt lat="45.84544" lon="1.22722">
        <ele>257.8</ele>
        <time>2025-06-16T16:16:17Z</time>
      </trkpt>
      <trkpt lat="45.84539" lon="1.22721">
        <ele>257.8</ele>
        <time>2025-06-16T16:16:18Z</time>
      </trkpt>
      <trkpt lat="45.84535" lon="1.22719">
        <ele>257.9</ele>
        <time>2025-06-16T16:16:19Z</time>
      </trkpt>
      <trkpt lat="45.84532" lon="1.22719">
        <ele>257.9</ele>
        <time>2025-06-16T16:16:20Z</time>
      </trkpt>
      <trkpt lat="45.84531" lon="1.22718">
        <ele>257.9</ele>
        <time>2025-06-16T16:16:21Z</time>
      </trkpt>
      <trkpt lat="45.84527" lon="1.22715">
        <ele>257.9</ele>
        <time>2025-06-16T16:16:22Z</time>
      </trkpt>
      <trkpt lat="45.84523" lon="1.22713">
        <ele>257.9</ele>
        <time>2025-06-16T16:16:24Z</time>
      </trkpt>
      <trkpt lat="45.8452" lon="1.22711">
        <ele>257.9</ele>
        <time>2025-06-16T16:16:25Z</time>
      </trkpt>
      <trkpt lat="45.84513" lon="1.22703">
        <ele>257.9</ele>
        <time>2025-06-16T16:16:26Z</time>
      </trkpt>
      <trkpt lat="45.84507" lon="1.22697">
        <ele>257.8</ele>
        <time>2025-06-16T16:16:28Z</time>
      </trkpt>
      <trkpt lat="45.845" lon="1.22691">
        <ele>257.7</ele>
        <time>2025-06-16T16:16:30Z</time>
      </trkpt>
      <trkpt lat="45.84496" lon="1.22688">
        <ele>257.6</ele>
        <time>2025-06-16T16:16:32Z</time>
      </trkpt>
      <trkpt lat="45.8449" lon="1.22685">
        <ele>257.5</ele>
        <time>2025-06-16T16:16:33Z</time>
      </trkpt>
      <trkpt lat="45.8448" lon="1.22681">
        <ele>257.4</ele>
        <time>2025-06-16T16:16:34Z</time>
      </trkpt>
      <trkpt lat="45.84471" lon="1.2268">
        <ele>257.3</ele>
        <time>2025-06-16T16:16:36Z</time>
      </trkpt>
      <trkpt lat="45.84465" lon="1.2268">
        <ele>257.3</ele>
        <time>2025-06-16T16:16:37Z</time>
      </trkpt>
      <trkpt lat="45.8446" lon="1.2268">
        <ele>257.3</ele>
        <time>2025-06-16T16:16:38Z</time>
      </trkpt>
      <trkpt lat="45.84455" lon="1.2268">
        <ele>257.3</ele>
        <time>2025-06-16T16:16:39Z</time>
      </trkpt>
      <trkpt lat="45.84451" lon="1.2268">
        <ele>257.3</ele>
        <time>2025-06-16T16:16:40Z</time>
      </trkpt>
      <trkpt lat="45.84446" lon="1.2268">
        <ele>257.3</ele>
        <time>2025-06-16T16:16:41Z</time>
      </trkpt>
      <trkpt lat="45.84439" lon="1.22681">
        <ele>257.3</ele>
        <time>2025-06-16T16:16:43Z</time>
      </trkpt>
      <trkpt lat="45.84435" lon="1.22681">
        <ele>257.3</ele>
        <time>2025-06-16T16:16:44Z</time>
      </trkpt>
      <trkpt lat="45.84432" lon="1.22682">
        <ele>257.2</ele>
        <time>2025-06-16T16:16:45Z</time>
      </trkpt>
      <trkpt lat="45.84427" lon="1.22683">
        <ele>257.2</ele>
        <time>2025-06-16T16:16:46Z</time>
      </trkpt>
      <trkpt lat="45.84423" lon="1.22684">
        <ele>257.1</ele>
        <time>2025-06-16T16:16:47Z</time>
      </trkpt>
      <trkpt lat="45.84418" lon="1.22685">
        <ele>257</ele>
        <time>2025-06-16T16:16:48Z</time>
      </trkpt>
      <trkpt lat="45.84414" lon="1.22685">
        <ele>257</ele>
        <time>2025-06-16T16:16:49Z</time>
      </trkpt>
      <trkpt lat="45.84411" lon="1.22682">
        <ele>256.8</ele>
        <time>2025-06-16T16:16:50Z</time>
      </trkpt>
      <trkpt lat="45.84408" lon="1.22677">
        <ele>256.7</ele>
        <time>2025-06-16T16:16:51Z</time>
      </trkpt>
      <trkpt lat="45.84406" lon="1.22671">
        <ele>256.6</ele>
        <time>2025-06-16T16:16:52Z</time>
      </trkpt>
      <trkpt lat="45.84403" lon="1.22666">
        <ele>256.5</ele>
        <time>2025-06-16T16:16:53Z</time>
      </trkpt>
      <trkpt lat="45.844" lon="1.22662">
        <ele>256.4</ele>
        <time>2025-06-16T16:16:54Z</time>
      </trkpt>
      <trkpt lat="45.84397" lon="1.22657">
        <ele>256.3</ele>
        <time>2025-06-16T16:16:55Z</time>
      </trkpt>
      <trkpt lat="45.84394" lon="1.22651">
        <ele>256.2</ele>
        <time>2025-06-16T16:16:57Z</time>
      </trkpt>
      <trkpt lat="45.8439" lon="1.22639">
        <ele>256</ele>
        <time>2025-06-16T16:16:58Z</time>
      </trkpt>
      <trkpt lat="45.84385" lon="1.22627">
        <ele>255.9</ele>
        <time>2025-06-16T16:17:00Z</time>
      </trkpt>
      <trkpt lat="45.8438" lon="1.22617">
        <ele>255.9</ele>
        <time>2025-06-16T16:17:02Z</time>
      </trkpt>
      <trkpt lat="45.84377" lon="1.22614">
        <ele>255.9</ele>
        <time>2025-06-16T16:17:03Z</time>
      </trkpt>
      <trkpt lat="45.84373" lon="1.22614">
        <ele>255.8</ele>
        <time>2025-06-16T16:17:04Z</time>
      </trkpt>
      <trkpt lat="45.84368" lon="1.22615">
        <ele>255.8</ele>
        <time>2025-06-16T16:17:05Z</time>
      </trkpt>
      <trkpt lat="45.84364" lon="1.22616">
        <ele>255.8</ele>
        <time>2025-06-16T16:17:06Z</time>
      </trkpt>
      <trkpt lat="45.84359" lon="1.22617">
        <ele>255.7</ele>
        <time>2025-06-16T16:17:07Z</time>
      </trkpt>
      <trkpt lat="45.84349" lon="1.22621">
        <ele>255.7</ele>
        <time>2025-06-16T16:17:09Z</time>
      </trkpt>
      <trkpt lat="45.84344" lon="1.22622">
        <ele>255.6</ele>
        <time>2025-06-16T16:17:10Z</time>
      </trkpt>
      <trkpt lat="45.84338" lon="1.22621">
        <ele>255.6</ele>
        <time>2025-06-16T16:17:11Z</time>
      </trkpt>
      <trkpt lat="45.84333" lon="1.2262">
        <ele>255.5</ele>
        <time>2025-06-16T16:17:12Z</time>
      </trkpt>
      <trkpt lat="45.84328" lon="1.22617">
        <ele>255.5</ele>
        <time>2025-06-16T16:17:13Z</time>
      </trkpt>
      <trkpt lat="45.84325" lon="1.22615">
        <ele>255.5</ele>
        <time>2025-06-16T16:17:14Z</time>
      </trkpt>
      <trkpt lat="45.8432" lon="1.22611">
        <ele>255.4</ele>
        <time>2025-06-16T16:17:15Z</time>
      </trkpt>
      <trkpt lat="45.84317" lon="1.22608">
        <ele>255.4</ele>
        <time>2025-06-16T16:17:16Z</time>
      </trkpt>
      <trkpt lat="45.84313" lon="1.22603">
        <ele>255.4</ele>
        <time>2025-06-16T16:17:18Z</time>
      </trkpt>
      <trkpt lat="45.84307" lon="1.22593">
        <ele>255.3</ele>
        <time>2025-06-16T16:17:19Z</time>
      </trkpt>
      <trkpt lat="45.84303" lon="1.22587">
        <ele>255.2</ele>
        <time>2025-06-16T16:17:20Z</time>
      </trkpt>
      <trkpt lat="45.843" lon="1.22583">
        <ele>255.2</ele>
        <time>2025-06-16T16:17:21Z</time>
      </trkpt>
      <trkpt lat="45.84296" lon="1.2258">
        <ele>255.2</ele>
        <time>2025-06-16T16:17:23Z</time>
      </trkpt>
      <trkpt lat="45.84292" lon="1.22577">
        <ele>255.1</ele>
        <time>2025-06-16T16:17:24Z</time>
      </trkpt>
      <trkpt lat="45.84281" lon="1.2258">
        <ele>255</ele>
        <time>2025-06-16T16:17:25Z</time>
      </trkpt>
      <trkpt lat="45.84276" lon="1.22583">
        <ele>254.9</ele>
        <time>2025-06-16T16:17:26Z</time>
      </trkpt>
      <trkpt lat="45.84268" lon="1.22593">
        <ele>254.7</ele>
        <time>2025-06-16T16:17:28Z</time>
      </trkpt>
      <trkpt lat="45.8426" lon="1.22606">
        <ele>254.6</ele>
        <time>2025-06-16T16:17:30Z</time>
      </trkpt>
      <trkpt lat="45.84255" lon="1.22611">
        <ele>254.6</ele>
        <time>2025-06-16T16:17:31Z</time>
      </trkpt>
      <trkpt lat="45.84249" lon="1.22615">
        <ele>254.5</ele>
        <time>2025-06-16T16:17:32Z</time>
      </trkpt>
      <trkpt lat="45.84244" lon="1.22618">
        <ele>254.5</ele>
        <time>2025-06-16T16:17:34Z</time>
      </trkpt>
      <trkpt lat="45.84239" lon="1.22621">
        <ele>254.4</ele>
        <time>2025-06-16T16:17:35Z</time>
      </trkpt>
      <trkpt lat="45.84228" lon="1.22622">
        <ele>254.3</ele>
        <time>2025-06-16T16:17:36Z</time>
      </trkpt>
      <trkpt lat="45.84222" lon="1.22621">
        <ele>254.3</ele>
        <time>2025-06-16T16:17:38Z</time>
      </trkpt>
      <trkpt lat="45.84216" lon="1.2262">
        <ele>254.3</ele>
        <time>2025-06-16T16:17:39Z</time>
      </trkpt>
      <trkpt lat="45.84206" lon="1.22617">
        <ele>254.3</ele>
        <time>2025-06-16T16:17:40Z</time>
      </trkpt>
      <trkpt lat="45.84201" lon="1.22616">
        <ele>254.3</ele>
        <time>2025-06-16T16:17:41Z</time>
      </trkpt>
      <trkpt lat="45.84196" lon="1.22616">
        <ele>254.3</ele>
        <time>2025-06-16T16:17:42Z</time>
      </trkpt>
      <trkpt lat="45.84192" lon="1.22616">
        <ele>254.3</ele>
        <time>2025-06-16T16:17:43Z</time>
      </trkpt>
      <trkpt lat="45.84187" lon="1.22615">
        <ele>254.3</ele>
        <time>2025-06-16T16:17:44Z</time>
      </trkpt>
      <trkpt lat="45.84183" lon="1.22613">
        <ele>254.3</ele>
        <time>2025-06-16T16:17:45Z</time>
      </trkpt>
      <trkpt lat="45.84179" lon="1.22611">
        <ele>254.3</ele>
        <time>2025-06-16T16:17:46Z</time>
      </trkpt>
      <trkpt lat="45.84175" lon="1.2261">
        <ele>254.3</ele>
        <time>2025-06-16T16:17:47Z</time>
      </trkpt>
      <trkpt lat="45.84165" lon="1.22609">
        <ele>254.3</ele>
        <time>2025-06-16T16:17:49Z</time>
      </trkpt>
      <trkpt lat="45.84155" lon="1.22606">
        <ele>254.3</ele>
        <time>2025-06-16T16:17:51Z</time>
      </trkpt>
      <trkpt lat="45.84147" lon="1.22603">
        <ele>254.3</ele>
        <time>2025-06-16T16:17:53Z</time>
      </trkpt>
      <trkpt lat="45.84142" lon="1.22602">
        <ele>254.4</ele>
        <time>2025-06-16T16:17:54Z</time>
      </trkpt>
      <trkpt lat="45.84138" lon="1.22601">
        <ele>254.4</ele>
        <time>2025-06-16T16:17:55Z</time>
      </trkpt>
      <trkpt lat="45.84133" lon="1.226">
        <ele>254.4</ele>
        <time>2025-06-16T16:17:56Z</time>
      </trkpt>
      <trkpt lat="45.84129" lon="1.22598">
        <ele>254.5</ele>
        <time>2025-06-16T16:17:57Z</time>
      </trkpt>
      <trkpt lat="45.84125" lon="1.22596">
        <ele>254.5</ele>
        <time>2025-06-16T16:17:58Z</time>
      </trkpt>
      <trkpt lat="45.84117" lon="1.22592">
        <ele>254.6</ele>
        <time>2025-06-16T16:18:00Z</time>
      </trkpt>
      <trkpt lat="45.84113" lon="1.2259">
        <ele>254.6</ele>
        <time>2025-06-16T16:18:01Z</time>
      </trkpt>
      <trkpt lat="45.84109" lon="1.22587">
        <ele>254.6</ele>
        <time>2025-06-16T16:18:02Z</time>
      </trkpt>
      <trkpt lat="45.84105" lon="1.22583">
        <ele>254.6</ele>
        <time>2025-06-16T16:18:03Z</time>
      </trkpt>
      <trkpt lat="45.84102" lon="1.2258">
        <ele>254.6</ele>
        <time>2025-06-16T16:18:04Z</time>
      </trkpt>
      <trkpt lat="45.84098" lon="1.22577">
        <ele>254.6</ele>
        <time>2025-06-16T16:18:05Z</time>
      </trkpt>
      <trkpt lat="45.84094" lon="1.22574">
        <ele>254.6</ele>
        <time>2025-06-16T16:18:07Z</time>
      </trkpt>
      <trkpt lat="45.8409" lon="1.22571">
        <ele>254.6</ele>
        <time>2025-06-16T16:18:08Z</time>
      </trkpt>
      <trkpt lat="45.84086" lon="1.22568">
        <ele>254.6</ele>
        <time>2025-06-16T16:18:09Z</time>
      </trkpt>
      <trkpt lat="45.8408" lon="1.22561">
        <ele>254.5</ele>
        <time>2025-06-16T16:18:10Z</time>
      </trkpt>
      <trkpt lat="45.84077" lon="1.22558">
        <ele>254.4</ele>
        <time>2025-06-16T16:18:11Z</time>
      </trkpt>
      <trkpt lat="45.84075" lon="1.22555">
        <ele>254.4</ele>
        <time>2025-06-16T16:18:12Z</time>
      </trkpt>
      <trkpt lat="45.84072" lon="1.22551">
        <ele>254.4</ele>
        <time>2025-06-16T16:18:13Z</time>
      </trkpt>
      <trkpt lat="45.8407" lon="1.22547">
        <ele>254.3</ele>
        <time>2025-06-16T16:18:14Z</time>
      </trkpt>
      <trkpt lat="45.84067" lon="1.22542">
        <ele>254.3</ele>
        <time>2025-06-16T16:18:15Z</time>
      </trkpt>
      <trkpt lat="45.84063" lon="1.22539">
        <ele>254.2</ele>
        <time>2025-06-16T16:18:16Z</time>
      </trkpt>
      <trkpt lat="45.84059" lon="1.22534">
        <ele>254.1</ele>
        <time>2025-06-16T16:18:17Z</time>
      </trkpt>
      <trkpt lat="45.84056" lon="1.2253">
        <ele>254.1</ele>
        <time>2025-06-16T16:18:18Z</time>
      </trkpt>
      <trkpt lat="45.84053" lon="1.22526">
        <ele>254</ele>
        <time>2025-06-16T16:18:19Z</time>
      </trkpt>
      <trkpt lat="45.84051" lon="1.22522">
        <ele>254</ele>
        <time>2025-06-16T16:18:20Z</time>
      </trkpt>
      <trkpt lat="45.84049" lon="1.22519">
        <ele>254</ele>
        <time>2025-06-16T16:18:21Z</time>
      </trkpt>
      <trkpt lat="45.84047" lon="1.22516">
        <ele>254</ele>
        <time>2025-06-16T16:18:22Z</time>
      </trkpt>
      <trkpt lat="45.84045" lon="1.22513">
        <ele>253.9</ele>
        <time>2025-06-16T16:18:23Z</time>
      </trkpt>
      <trkpt lat="45.84044" lon="1.22508">
        <ele>253.9</ele>
        <time>2025-06-16T16:18:24Z</time>
      </trkpt>
      <trkpt lat="45.84045" lon="1.22503">
        <ele>253.9</ele>
        <time>2025-06-16T16:18:25Z</time>
      </trkpt>
      <trkpt lat="45.84045" lon="1.22499">
        <ele>253.8</ele>
        <time>2025-06-16T16:18:26Z</time>
      </trkpt>
      <trkpt lat="45.84047" lon="1.22491">
        <ele>253.7</ele>
        <time>2025-06-16T16:18:28Z</time>
      </trkpt>
      <trkpt lat="45.84047" lon="1.22487">
        <ele>253.6</ele>
        <time>2025-06-16T16:18:29Z</time>
      </trkpt>
      <trkpt lat="45.84048" lon="1.22483">
        <ele>253.6</ele>
        <time>2025-06-16T16:18:30Z</time>
      </trkpt>
      <trkpt lat="45.84048" lon="1.22477">
        <ele>253.4</ele>
        <time>2025-06-16T16:18:31Z</time>
      </trkpt>
      <trkpt lat="45.84047" lon="1.22471">
        <ele>253.3</ele>
        <time>2025-06-16T16:18:32Z</time>
      </trkpt>
      <trkpt lat="45.84045" lon="1.22465">
        <ele>253.2</ele>
        <time>2025-06-16T16:18:33Z</time>
      </trkpt>
      <trkpt lat="45.84034" lon="1.22458">
        <ele>252.8</ele>
        <time>2025-06-16T16:18:35Z</time>
      </trkpt>
      <trkpt lat="45.84029" lon="1.22459">
        <ele>252.7</ele>
        <time>2025-06-16T16:18:36Z</time>
      </trkpt>
      <trkpt lat="45.84023" lon="1.22459">
        <ele>252.5</ele>
        <time>2025-06-16T16:18:37Z</time>
      </trkpt>
      <trkpt lat="45.84018" lon="1.22459">
        <ele>252.4</ele>
        <time>2025-06-16T16:18:38Z</time>
      </trkpt>
      <trkpt lat="45.84013" lon="1.22458">
        <ele>252.3</ele>
        <time>2025-06-16T16:18:39Z</time>
      </trkpt>
      <trkpt lat="45.84007" lon="1.22457">
        <ele>252.3</ele>
        <time>2025-06-16T16:18:40Z</time>
      </trkpt>
      <trkpt lat="45.84002" lon="1.22456">
        <ele>252.2</ele>
        <time>2025-06-16T16:18:41Z</time>
      </trkpt>
      <trkpt lat="45.83997" lon="1.22454">
        <ele>252.1</ele>
        <time>2025-06-16T16:18:42Z</time>
      </trkpt>
      <trkpt lat="45.83993" lon="1.2245">
        <ele>252.1</ele>
        <time>2025-06-16T16:18:43Z</time>
      </trkpt>
      <trkpt lat="45.83989" lon="1.22447">
        <ele>252</ele>
        <time>2025-06-16T16:18:44Z</time>
      </trkpt>
      <trkpt lat="45.83985" lon="1.22442">
        <ele>252</ele>
        <time>2025-06-16T16:18:45Z</time>
      </trkpt>
      <trkpt lat="45.83983" lon="1.22437">
        <ele>252</ele>
        <time>2025-06-16T16:18:46Z</time>
      </trkpt>
      <trkpt lat="45.83978" lon="1.22427">
        <ele>252.1</ele>
        <time>2025-06-16T16:18:48Z</time>
      </trkpt>
      <trkpt lat="45.83975" lon="1.22421">
        <ele>252.2</ele>
        <time>2025-06-16T16:18:49Z</time>
      </trkpt>
      <trkpt lat="45.83974" lon="1.22415">
        <ele>252.2</ele>
        <time>2025-06-16T16:18:50Z</time>
      </trkpt>
      <trkpt lat="45.83972" lon="1.2241">
        <ele>252.3</ele>
        <time>2025-06-16T16:18:51Z</time>
      </trkpt>
      <trkpt lat="45.83971" lon="1.22404">
        <ele>252.4</ele>
        <time>2025-06-16T16:18:52Z</time>
      </trkpt>
      <trkpt lat="45.83969" lon="1.22398">
        <ele>252.4</ele>
        <time>2025-06-16T16:18:53Z</time>
      </trkpt>
      <trkpt lat="45.83967" lon="1.22393">
        <ele>252.5</ele>
        <time>2025-06-16T16:18:54Z</time>
      </trkpt>
      <trkpt lat="45.83965" lon="1.22388">
        <ele>252.5</ele>
        <time>2025-06-16T16:18:55Z</time>
      </trkpt>
      <trkpt lat="45.83963" lon="1.22383">
        <ele>252.5</ele>
        <time>2025-06-16T16:18:56Z</time>
      </trkpt>
      <trkpt lat="45.8396" lon="1.22378">
        <ele>252.5</ele>
        <time>2025-06-16T16:18:57Z</time>
      </trkpt>
      <trkpt lat="45.83957" lon="1.22373">
        <ele>252.5</ele>
        <time>2025-06-16T16:18:58Z</time>
      </trkpt>
      <trkpt lat="45.83954" lon="1.22368">
        <ele>252.5</ele>
        <time>2025-06-16T16:18:59Z</time>
      </trkpt>
      <trkpt lat="45.83946" lon="1.22361">
        <ele>252.5</ele>
        <time>2025-06-16T16:19:01Z</time>
      </trkpt>
      <trkpt lat="45.83943" lon="1.22357">
        <ele>252.5</ele>
        <time>2025-06-16T16:19:02Z</time>
      </trkpt>
      <trkpt lat="45.83939" lon="1.22352">
        <ele>252.5</ele>
        <time>2025-06-16T16:19:03Z</time>
      </trkpt>
      <trkpt lat="45.83936" lon="1.22348">
        <ele>252.5</ele>
        <time>2025-06-16T16:19:04Z</time>
      </trkpt>
      <trkpt lat="45.83931" lon="1.22346">
        <ele>252.4</ele>
        <time>2025-06-16T16:19:05Z</time>
      </trkpt>
      <trkpt lat="45.83927" lon="1.22343">
        <ele>252.3</ele>
        <time>2025-06-16T16:19:06Z</time>
      </trkpt>
      <trkpt lat="45.83922" lon="1.22342">
        <ele>252.3</ele>
        <time>2025-06-16T16:19:07Z</time>
      </trkpt>
      <trkpt lat="45.83917" lon="1.22341">
        <ele>252.2</ele>
        <time>2025-06-16T16:19:08Z</time>
      </trkpt>
      <trkpt lat="45.83912" lon="1.2234">
        <ele>252.2</ele>
        <time>2025-06-16T16:19:09Z</time>
      </trkpt>
      <trkpt lat="45.83907" lon="1.2234">
        <ele>252.2</ele>
        <time>2025-06-16T16:19:10Z</time>
      </trkpt>
      <trkpt lat="45.83902" lon="1.22339">
        <ele>252.2</ele>
        <time>2025-06-16T16:19:11Z</time>
      </trkpt>
      <trkpt lat="45.83897" lon="1.22334">
        <ele>252.2</ele>
        <time>2025-06-16T16:19:13Z</time>
      </trkpt>
      <trkpt lat="45.83896" lon="1.2233">
        <ele>252.2</ele>
        <time>2025-06-16T16:19:14Z</time>
      </trkpt>
      <trkpt lat="45.83894" lon="1.22326">
        <ele>252.1</ele>
        <time>2025-06-16T16:19:15Z</time>
      </trkpt>
      <trkpt lat="45.83892" lon="1.22322">
        <ele>252</ele>
        <time>2025-06-16T16:19:16Z</time>
      </trkpt>
      <trkpt lat="45.83888" lon="1.22319">
        <ele>252</ele>
        <time>2025-06-16T16:19:17Z</time>
      </trkpt>
      <trkpt lat="45.83878" lon="1.22316">
        <ele>251.5</ele>
        <time>2025-06-16T16:19:19Z</time>
      </trkpt>
      <trkpt lat="45.83873" lon="1.22314">
        <ele>251.3</ele>
        <time>2025-06-16T16:19:20Z</time>
      </trkpt>
      <trkpt lat="45.83868" lon="1.22311">
        <ele>251.1</ele>
        <time>2025-06-16T16:19:21Z</time>
      </trkpt>
      <trkpt lat="45.83863" lon="1.22308">
        <ele>251</ele>
        <time>2025-06-16T16:19:22Z</time>
      </trkpt>
      <trkpt lat="45.83858" lon="1.22304">
        <ele>250.8</ele>
        <time>2025-06-16T16:19:23Z</time>
      </trkpt>
      <trkpt lat="45.83854" lon="1.22299">
        <ele>250.7</ele>
        <time>2025-06-16T16:19:24Z</time>
      </trkpt>
      <trkpt lat="45.83849" lon="1.22294">
        <ele>250.5</ele>
        <time>2025-06-16T16:19:25Z</time>
      </trkpt>
      <trkpt lat="45.83844" lon="1.22289">
        <ele>250.4</ele>
        <time>2025-06-16T16:19:26Z</time>
      </trkpt>
      <trkpt lat="45.8384" lon="1.22283">
        <ele>250.3</ele>
        <time>2025-06-16T16:19:27Z</time>
      </trkpt>
      <trkpt lat="45.83837" lon="1.22276">
        <ele>250.3</ele>
        <time>2025-06-16T16:19:28Z</time>
      </trkpt>
      <trkpt lat="45.83833" lon="1.22269">
        <ele>250.2</ele>
        <time>2025-06-16T16:19:29Z</time>
      </trkpt>
      <trkpt lat="45.8383" lon="1.22264">
        <ele>250.2</ele>
        <time>2025-06-16T16:19:30Z</time>
      </trkpt>
      <trkpt lat="45.83826" lon="1.22258">
        <ele>250.1</ele>
        <time>2025-06-16T16:19:31Z</time>
      </trkpt>
      <trkpt lat="45.83823" lon="1.22253">
        <ele>250.1</ele>
        <time>2025-06-16T16:19:32Z</time>
      </trkpt>
      <trkpt lat="45.83819" lon="1.22247">
        <ele>250.1</ele>
        <time>2025-06-16T16:19:33Z</time>
      </trkpt>
      <trkpt lat="45.83816" lon="1.22242">
        <ele>250</ele>
        <time>2025-06-16T16:19:35Z</time>
      </trkpt>
      <trkpt lat="45.8381" lon="1.22231">
        <ele>250</ele>
        <time>2025-06-16T16:19:36Z</time>
      </trkpt>
      <trkpt lat="45.83807" lon="1.22225">
        <ele>249.9</ele>
        <time>2025-06-16T16:19:38Z</time>
      </trkpt>
      <trkpt lat="45.83804" lon="1.2222">
        <ele>249.9</ele>
        <time>2025-06-16T16:19:39Z</time>
      </trkpt>
      <trkpt lat="45.838" lon="1.22215">
        <ele>249.8</ele>
        <time>2025-06-16T16:19:40Z</time>
      </trkpt>
      <trkpt lat="45.83796" lon="1.2221">
        <ele>249.8</ele>
        <time>2025-06-16T16:19:41Z</time>
      </trkpt>
      <trkpt lat="45.83793" lon="1.22206">
        <ele>249.8</ele>
        <time>2025-06-16T16:19:42Z</time>
      </trkpt>
      <trkpt lat="45.8379" lon="1.22202">
        <ele>249.7</ele>
        <time>2025-06-16T16:19:43Z</time>
      </trkpt>
      <trkpt lat="45.83786" lon="1.22198">
        <ele>249.7</ele>
        <time>2025-06-16T16:19:44Z</time>
      </trkpt>
      <trkpt lat="45.83781" lon="1.22194">
        <ele>249.6</ele>
        <time>2025-06-16T16:19:45Z</time>
      </trkpt>
      <trkpt lat="45.83773" lon="1.22188">
        <ele>249.6</ele>
        <time>2025-06-16T16:19:46Z</time>
      </trkpt>
      <trkpt lat="45.83769" lon="1.22185">
        <ele>249.6</ele>
        <time>2025-06-16T16:19:47Z</time>
      </trkpt>
      <trkpt lat="45.83765" lon="1.22183">
        <ele>249.5</ele>
        <time>2025-06-16T16:19:49Z</time>
      </trkpt>
      <trkpt lat="45.8376" lon="1.22181">
        <ele>249.5</ele>
        <time>2025-06-16T16:19:50Z</time>
      </trkpt>
      <trkpt lat="45.83756" lon="1.22179">
        <ele>249.5</ele>
        <time>2025-06-16T16:19:51Z</time>
      </trkpt>
      <trkpt lat="45.83752" lon="1.22178">
        <ele>249.5</ele>
        <time>2025-06-16T16:19:52Z</time>
      </trkpt>
      <trkpt lat="45.83748" lon="1.22176">
        <ele>249.5</ele>
        <time>2025-06-16T16:19:53Z</time>
      </trkpt>
      <trkpt lat="45.83744" lon="1.22174">
        <ele>249.5</ele>
        <time>2025-06-16T16:19:54Z</time>
      </trkpt>
      <trkpt lat="45.8374" lon="1.22174">
        <ele>249.6</ele>
        <time>2025-06-16T16:19:55Z</time>
      </trkpt>
      <trkpt lat="45.83734" lon="1.22174">
        <ele>249.6</ele>
        <time>2025-06-16T16:19:56Z</time>
      </trkpt>
      <trkpt lat="45.83733" lon="1.22176">
        <ele>249.7</ele>
        <time>2025-06-16T16:19:58Z</time>
      </trkpt>
      <trkpt lat="45.83732" lon="1.22179">
        <ele>249.7</ele>
        <time>2025-06-16T16:19:59Z</time>
      </trkpt>
      <trkpt lat="45.83731" lon="1.2218">
        <ele>249.7</ele>
        <time>2025-06-16T16:20:00Z</time>
      </trkpt>
      <trkpt lat="45.8373" lon="1.22181">
        <ele>249.7</ele>
        <time>2025-06-16T16:20:01Z</time>
      </trkpt>
      <trkpt lat="45.83729" lon="1.22183">
        <ele>249.7</ele>
        <time>2025-06-16T16:20:02Z</time>
      </trkpt>
      <trkpt lat="45.83728" lon="1.22185">
        <ele>249.7</ele>
        <time>2025-06-16T16:20:03Z</time>
      </trkpt>
      <trkpt lat="45.83725" lon="1.22187">
        <ele>249.7</ele>
        <time>2025-06-16T16:20:04Z</time>
      </trkpt>
      <trkpt lat="45.83724" lon="1.22187">
        <ele>249.8</ele>
        <time>2025-06-16T16:20:05Z</time>
      </trkpt>
      <trkpt lat="45.83721" lon="1.22185">
        <ele>249.8</ele>
        <time>2025-06-16T16:20:06Z</time>
      </trkpt>
      <trkpt lat="45.83718" lon="1.22178">
        <ele>249.8</ele>
        <time>2025-06-16T16:20:07Z</time>
      </trkpt>
      <trkpt lat="45.83716" lon="1.22174">
        <ele>249.8</ele>
        <time>2025-06-16T16:20:08Z</time>
      </trkpt>
      <trkpt lat="45.83714" lon="1.2217">
        <ele>249.8</ele>
        <time>2025-06-16T16:20:10Z</time>
      </trkpt>
      <trkpt lat="45.83712" lon="1.22165">
        <ele>249.8</ele>
        <time>2025-06-16T16:20:11Z</time>
      </trkpt>
      <trkpt lat="45.8371" lon="1.2216">
        <ele>249.8</ele>
        <time>2025-06-16T16:20:12Z</time>
      </trkpt>
      <trkpt lat="45.83706" lon="1.22149">
        <ele>249.7</ele>
        <time>2025-06-16T16:20:13Z</time>
      </trkpt>
      <trkpt lat="45.83703" lon="1.22135">
        <ele>249.7</ele>
        <time>2025-06-16T16:20:15Z</time>
      </trkpt>
      <trkpt lat="45.83699" lon="1.22125">
        <ele>249.6</ele>
        <time>2025-06-16T16:20:17Z</time>
      </trkpt>
      <trkpt lat="45.83696" lon="1.2212">
        <ele>249.6</ele>
        <time>2025-06-16T16:20:18Z</time>
      </trkpt>
      <trkpt lat="45.83694" lon="1.22116">
        <ele>249.7</ele>
        <time>2025-06-16T16:20:19Z</time>
      </trkpt>
      <trkpt lat="45.83692" lon="1.22112">
        <ele>249.7</ele>
        <time>2025-06-16T16:20:20Z</time>
      </trkpt>
      <trkpt lat="45.83689" lon="1.22108">
        <ele>249.8</ele>
        <time>2025-06-16T16:20:21Z</time>
      </trkpt>
      <trkpt lat="45.83685" lon="1.22105">
        <ele>249.9</ele>
        <time>2025-06-16T16:20:22Z</time>
      </trkpt>
      <trkpt lat="45.83679" lon="1.22101">
        <ele>250.2</ele>
        <time>2025-06-16T16:20:24Z</time>
      </trkpt>
      <trkpt lat="45.83676" lon="1.22099">
        <ele>250.3</ele>
        <time>2025-06-16T16:20:25Z</time>
      </trkpt>
      <trkpt lat="45.83675" lon="1.22099">
        <ele>250.4</ele>
        <time>2025-06-16T16:20:26Z</time>
      </trkpt>
      <trkpt lat="45.83672" lon="1.22098">
        <ele>250.5</ele>
        <time>2025-06-16T16:20:27Z</time>
      </trkpt>
      <trkpt lat="45.83665" lon="1.22095">
        <ele>250.9</ele>
        <time>2025-06-16T16:20:29Z</time>
      </trkpt>
      <trkpt lat="45.83662" lon="1.22094">
        <ele>251.1</ele>
        <time>2025-06-16T16:20:30Z</time>
      </trkpt>
      <trkpt lat="45.83661" lon="1.22094">
        <ele>251.1</ele>
        <time>2025-06-16T16:20:31Z</time>
      </trkpt>
      <trkpt lat="45.83658" lon="1.22091">
        <ele>251.3</ele>
        <time>2025-06-16T16:20:32Z</time>
      </trkpt>
      <trkpt lat="45.83657" lon="1.22091">
        <ele>251.3</ele>
        <time>2025-06-16T16:20:33Z</time>
      </trkpt>
      <trkpt lat="45.83652" lon="1.22086">
        <ele>251.4</ele>
        <time>2025-06-16T16:20:35Z</time>
      </trkpt>
      <trkpt lat="45.83646" lon="1.22083">
        <ele>251.4</ele>
        <time>2025-06-16T16:20:37Z</time>
      </trkpt>
      <trkpt lat="45.83643" lon="1.2208">
        <ele>251.5</ele>
        <time>2025-06-16T16:20:38Z</time>
      </trkpt>
      <trkpt lat="45.83638" lon="1.22077">
        <ele>251.5</ele>
        <time>2025-06-16T16:20:40Z</time>
      </trkpt>
      <trkpt lat="45.83635" lon="1.22076">
        <ele>251.5</ele>
        <time>2025-06-16T16:20:41Z</time>
      </trkpt>
      <trkpt lat="45.83633" lon="1.22075">
        <ele>251.5</ele>
        <time>2025-06-16T16:20:42Z</time>
      </trkpt>
      <trkpt lat="45.8363" lon="1.22074">
        <ele>251.5</ele>
        <time>2025-06-16T16:20:43Z</time>
      </trkpt>
      <trkpt lat="45.83626" lon="1.22072">
        <ele>251.5</ele>
        <time>2025-06-16T16:20:45Z</time>
      </trkpt>
      <trkpt lat="45.83624" lon="1.22071">
        <ele>251.5</ele>
        <time>2025-06-16T16:20:46Z</time>
      </trkpt>
      <trkpt lat="45.83621" lon="1.22069">
        <ele>251.6</ele>
        <time>2025-06-16T16:20:47Z</time>
      </trkpt>
      <trkpt lat="45.83619" lon="1.22069">
        <ele>251.6</ele>
        <time>2025-06-16T16:20:48Z</time>
      </trkpt>
      <trkpt lat="45.83617" lon="1.22068">
        <ele>251.6</ele>
        <time>2025-06-16T16:20:50Z</time>
      </trkpt>
      <trkpt lat="45.83612" lon="1.22066">
        <ele>251.6</ele>
        <time>2025-06-16T16:20:51Z</time>
      </trkpt>
      <trkpt lat="45.83609" lon="1.22065">
        <ele>251.6</ele>
        <time>2025-06-16T16:20:52Z</time>
      </trkpt>
      <trkpt lat="45.83607" lon="1.22063">
        <ele>251.6</ele>
        <time>2025-06-16T16:20:54Z</time>
      </trkpt>
      <trkpt lat="45.83602" lon="1.22061">
        <ele>251.7</ele>
        <time>2025-06-16T16:20:55Z</time>
      </trkpt>
      <trkpt lat="45.836" lon="1.2206">
        <ele>251.7</ele>
        <time>2025-06-16T16:20:57Z</time>
      </trkpt>
      <trkpt lat="45.83597" lon="1.22062">
        <ele>251.7</ele>
        <time>2025-06-16T16:20:58Z</time>
      </trkpt>
      <trkpt lat="45.83596" lon="1.22064">
        <ele>251.8</ele>
        <time>2025-06-16T16:20:59Z</time>
      </trkpt>
      <trkpt lat="45.83594" lon="1.22071">
        <ele>251.8</ele>
        <time>2025-06-16T16:21:01Z</time>
      </trkpt>
      <trkpt lat="45.83594" lon="1.22074">
        <ele>251.9</ele>
        <time>2025-06-16T16:21:02Z</time>
      </trkpt>
      <trkpt lat="45.83592" lon="1.22079">
        <ele>252</ele>
        <time>2025-06-16T16:21:03Z</time>
      </trkpt>
      <trkpt lat="45.83591" lon="1.22081">
        <ele>252</ele>
        <time>2025-06-16T16:21:04Z</time>
      </trkpt>
      <trkpt lat="45.83589" lon="1.22091">
        <ele>252.2</ele>
        <time>2025-06-16T16:21:06Z</time>
      </trkpt>
      <trkpt lat="45.83588" lon="1.22094">
        <ele>252.2</ele>
        <time>2025-06-16T16:21:07Z</time>
      </trkpt>
      <trkpt lat="45.83587" lon="1.22099">
        <ele>252.3</ele>
        <time>2025-06-16T16:21:08Z</time>
      </trkpt>
      <trkpt lat="45.83586" lon="1.22104">
        <ele>252.4</ele>
        <time>2025-06-16T16:21:09Z</time>
      </trkpt>
      <trkpt lat="45.83585" lon="1.22109">
        <ele>252.5</ele>
        <time>2025-06-16T16:21:10Z</time>
      </trkpt>
      <trkpt lat="45.83585" lon="1.22114">
        <ele>252.5</ele>
        <time>2025-06-16T16:21:11Z</time>
      </trkpt>
      <trkpt lat="45.83586" lon="1.22119">
        <ele>252.6</ele>
        <time>2025-06-16T16:21:12Z</time>
      </trkpt>
      <trkpt lat="45.83587" lon="1.22123">
        <ele>252.6</ele>
        <time>2025-06-16T16:21:13Z</time>
      </trkpt>
      <trkpt lat="45.83588" lon="1.22127">
        <ele>252.7</ele>
        <time>2025-06-16T16:21:14Z</time>
      </trkpt>
      <trkpt lat="45.83591" lon="1.2213">
        <ele>252.7</ele>
        <time>2025-06-16T16:21:15Z</time>
      </trkpt>
      <trkpt lat="45.83595" lon="1.22135">
        <ele>252.7</ele>
        <time>2025-06-16T16:21:17Z</time>
      </trkpt>
      <trkpt lat="45.83596" lon="1.22137">
        <ele>252.8</ele>
        <time>2025-06-16T16:21:18Z</time>
      </trkpt>
      <trkpt lat="45.83589" lon="1.22141">
        <ele>252.6</ele>
        <time>2025-06-16T16:21:20Z</time>
      </trkpt>
      <trkpt lat="45.83586" lon="1.22142">
        <ele>252.6</ele>
        <time>2025-06-16T16:21:21Z</time>
      </trkpt>
      <trkpt lat="45.83582" lon="1.22141">
        <ele>252.5</ele>
        <time>2025-06-16T16:21:22Z</time>
      </trkpt>
      <trkpt lat="45.83579" lon="1.22141">
        <ele>252.4</ele>
        <time>2025-06-16T16:21:23Z</time>
      </trkpt>
      <trkpt lat="45.83576" lon="1.22141">
        <ele>252.3</ele>
        <time>2025-06-16T16:21:24Z</time>
      </trkpt>
      <trkpt lat="45.83569" lon="1.22141">
        <ele>252.3</ele>
        <time>2025-06-16T16:21:26Z</time>
      </trkpt>
      <trkpt lat="45.83561" lon="1.22142">
        <ele>252.3</ele>
        <time>2025-06-16T16:21:28Z</time>
      </trkpt>
      <trkpt lat="45.83558" lon="1.22143">
        <ele>252.3</ele>
        <time>2025-06-16T16:21:29Z</time>
      </trkpt>
      <trkpt lat="45.83554" lon="1.22145">
        <ele>252.3</ele>
        <time>2025-06-16T16:21:30Z</time>
      </trkpt>
      <trkpt lat="45.83547" lon="1.22148">
        <ele>252.2</ele>
        <time>2025-06-16T16:21:32Z</time>
      </trkpt>
      <trkpt lat="45.83543" lon="1.22149">
        <ele>252.3</ele>
        <time>2025-06-16T16:21:34Z</time>
      </trkpt>
      <trkpt lat="45.83536" lon="1.22154">
        <ele>252.7</ele>
        <time>2025-06-16T16:21:35Z</time>
      </trkpt>
      <trkpt lat="45.83534" lon="1.22156">
        <ele>252.9</ele>
        <time>2025-06-16T16:21:36Z</time>
      </trkpt>
      <trkpt lat="45.83528" lon="1.22161">
        <ele>253.2</ele>
        <time>2025-06-16T16:21:38Z</time>
      </trkpt>
      <trkpt lat="45.83525" lon="1.22164">
        <ele>253.4</ele>
        <time>2025-06-16T16:21:39Z</time>
      </trkpt>
      <trkpt lat="45.83523" lon="1.22166">
        <ele>253.5</ele>
        <time>2025-06-16T16:21:40Z</time>
      </trkpt>
      <trkpt lat="45.83521" lon="1.22167">
        <ele>253.7</ele>
        <time>2025-06-16T16:21:41Z</time>
      </trkpt>
      <trkpt lat="45.83516" lon="1.22171">
        <ele>254</ele>
        <time>2025-06-16T16:21:43Z</time>
      </trkpt>
      <trkpt lat="45.83512" lon="1.22174">
        <ele>254.3</ele>
        <time>2025-06-16T16:21:44Z</time>
      </trkpt>
      <trkpt lat="45.83511" lon="1.22175">
        <ele>254.3</ele>
        <time>2025-06-16T16:21:45Z</time>
      </trkpt>
      <trkpt lat="45.83508" lon="1.22178">
        <ele>254.6</ele>
        <time>2025-06-16T16:21:47Z</time>
      </trkpt>
      <trkpt lat="45.83507" lon="1.2218">
        <ele>254.7</ele>
        <time>2025-06-16T16:21:48Z</time>
      </trkpt>
      <trkpt lat="45.83504" lon="1.22183">
        <ele>255</ele>
        <time>2025-06-16T16:21:49Z</time>
      </trkpt>
      <trkpt lat="45.83502" lon="1.22186">
        <ele>255.2</ele>
        <time>2025-06-16T16:21:50Z</time>
      </trkpt>
      <trkpt lat="45.83501" lon="1.22187">
        <ele>255.3</ele>
        <time>2025-06-16T16:21:51Z</time>
      </trkpt>
      <trkpt lat="45.83497" lon="1.22191">
        <ele>255.7</ele>
        <time>2025-06-16T16:21:53Z</time>
      </trkpt>
      <trkpt lat="45.83495" lon="1.22196">
        <ele>256</ele>
        <time>2025-06-16T16:21:54Z</time>
      </trkpt>
      <trkpt lat="45.83494" lon="1.22197">
        <ele>256.1</ele>
        <time>2025-06-16T16:21:55Z</time>
      </trkpt>
      <trkpt lat="45.83492" lon="1.22201">
        <ele>256.4</ele>
        <time>2025-06-16T16:21:56Z</time>
      </trkpt>
      <trkpt lat="45.83491" lon="1.22203">
        <ele>256.5</ele>
        <time>2025-06-16T16:21:57Z</time>
      </trkpt>
      <trkpt lat="45.83489" lon="1.22208">
        <ele>256.8</ele>
        <time>2025-06-16T16:21:58Z</time>
      </trkpt>
      <trkpt lat="45.83489" lon="1.22209">
        <ele>256.9</ele>
        <time>2025-06-16T16:21:59Z</time>
      </trkpt>
      <trkpt lat="45.83487" lon="1.22214">
        <ele>257.2</ele>
        <time>2025-06-16T16:22:00Z</time>
      </trkpt>
      <trkpt lat="45.83486" lon="1.22216">
        <ele>257.3</ele>
        <time>2025-06-16T16:22:01Z</time>
      </trkpt>
      <trkpt lat="45.83485" lon="1.2222">
        <ele>257.5</ele>
        <time>2025-06-16T16:22:02Z</time>
      </trkpt>
      <trkpt lat="45.83483" lon="1.22227">
        <ele>257.9</ele>
        <time>2025-06-16T16:22:04Z</time>
      </trkpt>
      <trkpt lat="45.83482" lon="1.22232">
        <ele>258.2</ele>
        <time>2025-06-16T16:22:05Z</time>
      </trkpt>
      <trkpt lat="45.83482" lon="1.22234">
        <ele>258.3</ele>
        <time>2025-06-16T16:22:06Z</time>
      </trkpt>
      <trkpt lat="45.83481" lon="1.22241">
        <ele>258.7</ele>
        <time>2025-06-16T16:22:08Z</time>
      </trkpt>
      <trkpt lat="45.8348" lon="1.22245">
        <ele>258.9</ele>
        <time>2025-06-16T16:22:09Z</time>
      </trkpt>
      <trkpt lat="45.8348" lon="1.22249">
        <ele>259.1</ele>
        <time>2025-06-16T16:22:11Z</time>
      </trkpt>
      <trkpt lat="45.83479" lon="1.22257">
        <ele>259.6</ele>
        <time>2025-06-16T16:22:12Z</time>
      </trkpt>
      <trkpt lat="45.83478" lon="1.22261">
        <ele>259.8</ele>
        <time>2025-06-16T16:22:13Z</time>
      </trkpt>
      <trkpt lat="45.83478" lon="1.22265">
        <ele>260</ele>
        <time>2025-06-16T16:22:14Z</time>
      </trkpt>
      <trkpt lat="45.83476" lon="1.22273">
        <ele>260.4</ele>
        <time>2025-06-16T16:22:16Z</time>
      </trkpt>
      <trkpt lat="45.83476" lon="1.22278">
        <ele>260.6</ele>
        <time>2025-06-16T16:22:17Z</time>
      </trkpt>
      <trkpt lat="45.83475" lon="1.22282">
        <ele>260.8</ele>
        <time>2025-06-16T16:22:18Z</time>
      </trkpt>
      <trkpt lat="45.83475" lon="1.22287">
        <ele>261</ele>
        <time>2025-06-16T16:22:19Z</time>
      </trkpt>
      <trkpt lat="45.83475" lon="1.22289">
        <ele>261.1</ele>
        <time>2025-06-16T16:22:20Z</time>
      </trkpt>
      <trkpt lat="45.83474" lon="1.22294">
        <ele>261.3</ele>
        <time>2025-06-16T16:22:21Z</time>
      </trkpt>
      <trkpt lat="45.83474" lon="1.22296">
        <ele>261.4</ele>
        <time>2025-06-16T16:22:22Z</time>
      </trkpt>
      <trkpt lat="45.83473" lon="1.22304">
        <ele>261.8</ele>
        <time>2025-06-16T16:22:24Z</time>
      </trkpt>
      <trkpt lat="45.83473" lon="1.22308">
        <ele>261.9</ele>
        <time>2025-06-16T16:22:25Z</time>
      </trkpt>
      <trkpt lat="45.83472" lon="1.22312">
        <ele>262.1</ele>
        <time>2025-06-16T16:22:26Z</time>
      </trkpt>
      <trkpt lat="45.83472" lon="1.22316">
        <ele>262.3</ele>
        <time>2025-06-16T16:22:27Z</time>
      </trkpt>
      <trkpt lat="45.83472" lon="1.22324">
        <ele>262.6</ele>
        <time>2025-06-16T16:22:29Z</time>
      </trkpt>
      <trkpt lat="45.83472" lon="1.22331">
        <ele>262.9</ele>
        <time>2025-06-16T16:22:31Z</time>
      </trkpt>
      <trkpt lat="45.83471" lon="1.22338">
        <ele>263.2</ele>
        <time>2025-06-16T16:22:33Z</time>
      </trkpt>
      <trkpt lat="45.83471" lon="1.22341">
        <ele>263.3</ele>
        <time>2025-06-16T16:22:35Z</time>
      </trkpt>
      <trkpt lat="45.8347" lon="1.22346">
        <ele>263.5</ele>
        <time>2025-06-16T16:22:36Z</time>
      </trkpt>
      <trkpt lat="45.8347" lon="1.22349">
        <ele>263.6</ele>
        <time>2025-06-16T16:22:37Z</time>
      </trkpt>
      <trkpt lat="45.83469" lon="1.22357">
        <ele>263.9</ele>
        <time>2025-06-16T16:22:38Z</time>
      </trkpt>
      <trkpt lat="45.83468" lon="1.22362">
        <ele>264.1</ele>
        <time>2025-06-16T16:22:39Z</time>
      </trkpt>
      <trkpt lat="45.83468" lon="1.22364">
        <ele>264.2</ele>
        <time>2025-06-16T16:22:40Z</time>
      </trkpt>
      <trkpt lat="45.83467" lon="1.2237">
        <ele>264.4</ele>
        <time>2025-06-16T16:22:42Z</time>
      </trkpt>
      <trkpt lat="45.83467" lon="1.22372">
        <ele>264.5</ele>
        <time>2025-06-16T16:22:43Z</time>
      </trkpt>
      <trkpt lat="45.83466" lon="1.2238">
        <ele>264.8</ele>
        <time>2025-06-16T16:22:44Z</time>
      </trkpt>
      <trkpt lat="45.83465" lon="1.22385">
        <ele>265</ele>
        <time>2025-06-16T16:22:45Z</time>
      </trkpt>
      <trkpt lat="45.83464" lon="1.22389">
        <ele>265.2</ele>
        <time>2025-06-16T16:22:46Z</time>
      </trkpt>
      <trkpt lat="45.83464" lon="1.22395">
        <ele>265.4</ele>
        <time>2025-06-16T16:22:48Z</time>
      </trkpt>
      <trkpt lat="45.83463" lon="1.224">
        <ele>265.6</ele>
        <time>2025-06-16T16:22:49Z</time>
      </trkpt>
      <trkpt lat="45.83463" lon="1.22402">
        <ele>265.7</ele>
        <time>2025-06-16T16:22:50Z</time>
      </trkpt>
      <trkpt lat="45.83462" lon="1.22406">
        <ele>265.8</ele>
        <time>2025-06-16T16:22:51Z</time>
      </trkpt>
      <trkpt lat="45.83462" lon="1.22411">
        <ele>265.9</ele>
        <time>2025-06-16T16:22:52Z</time>
      </trkpt>
      <trkpt lat="45.83463" lon="1.22415">
        <ele>266.1</ele>
        <time>2025-06-16T16:22:53Z</time>
      </trkpt>
      <trkpt lat="45.83463" lon="1.2242">
        <ele>266.3</ele>
        <time>2025-06-16T16:22:54Z</time>
      </trkpt>
      <trkpt lat="45.83464" lon="1.22425">
        <ele>266.4</ele>
        <time>2025-06-16T16:22:55Z</time>
      </trkpt>
      <trkpt lat="45.83465" lon="1.22429">
        <ele>266.6</ele>
        <time>2025-06-16T16:22:56Z</time>
      </trkpt>
      <trkpt lat="45.83465" lon="1.22434">
        <ele>266.7</ele>
        <time>2025-06-16T16:22:57Z</time>
      </trkpt>
      <trkpt lat="45.83466" lon="1.22439">
        <ele>266.9</ele>
        <time>2025-06-16T16:22:58Z</time>
      </trkpt>
      <trkpt lat="45.83467" lon="1.22444">
        <ele>267.1</ele>
        <time>2025-06-16T16:22:59Z</time>
      </trkpt>
      <trkpt lat="45.83467" lon="1.22448">
        <ele>267.2</ele>
        <time>2025-06-16T16:23:00Z</time>
      </trkpt>
      <trkpt lat="45.83468" lon="1.22453">
        <ele>267.4</ele>
        <time>2025-06-16T16:23:01Z</time>
      </trkpt>
      <trkpt lat="45.83468" lon="1.22457">
        <ele>267.5</ele>
        <time>2025-06-16T16:23:02Z</time>
      </trkpt>
      <trkpt lat="45.83468" lon="1.22461">
        <ele>267.6</ele>
        <time>2025-06-16T16:23:03Z</time>
      </trkpt>
      <trkpt lat="45.83468" lon="1.22465">
        <ele>267.7</ele>
        <time>2025-06-16T16:23:04Z</time>
      </trkpt>
      <trkpt lat="45.83468" lon="1.22469">
        <ele>267.9</ele>
        <time>2025-06-16T16:23:05Z</time>
      </trkpt>
      <trkpt lat="45.83468" lon="1.22474">
        <ele>268</ele>
        <time>2025-06-16T16:23:06Z</time>
      </trkpt>
      <trkpt lat="45.83468" lon="1.22478">
        <ele>268.2</ele>
        <time>2025-06-16T16:23:07Z</time>
      </trkpt>
      <trkpt lat="45.83468" lon="1.22483">
        <ele>268.3</ele>
        <time>2025-06-16T16:23:08Z</time>
      </trkpt>
      <trkpt lat="45.83468" lon="1.22487">
        <ele>268.5</ele>
        <time>2025-06-16T16:23:09Z</time>
      </trkpt>
      <trkpt lat="45.83468" lon="1.22491">
        <ele>268.6</ele>
        <time>2025-06-16T16:23:10Z</time>
      </trkpt>
      <trkpt lat="45.83467" lon="1.22495">
        <ele>268.8</ele>
        <time>2025-06-16T16:23:11Z</time>
      </trkpt>
      <trkpt lat="45.83467" lon="1.225">
        <ele>268.9</ele>
        <time>2025-06-16T16:23:12Z</time>
      </trkpt>
      <trkpt lat="45.83467" lon="1.22505">
        <ele>269.1</ele>
        <time>2025-06-16T16:23:13Z</time>
      </trkpt>
      <trkpt lat="45.83467" lon="1.22514">
        <ele>269.4</ele>
        <time>2025-06-16T16:23:15Z</time>
      </trkpt>
      <trkpt lat="45.83467" lon="1.22522">
        <ele>269.7</ele>
        <time>2025-06-16T16:23:17Z</time>
      </trkpt>
      <trkpt lat="45.83467" lon="1.22526">
        <ele>269.8</ele>
        <time>2025-06-16T16:23:18Z</time>
      </trkpt>
      <trkpt lat="45.83467" lon="1.2253">
        <ele>270</ele>
        <time>2025-06-16T16:23:19Z</time>
      </trkpt>
      <trkpt lat="45.83468" lon="1.22534">
        <ele>270.1</ele>
        <time>2025-06-16T16:23:20Z</time>
      </trkpt>
      <trkpt lat="45.83468" lon="1.22538">
        <ele>270.2</ele>
        <time>2025-06-16T16:23:21Z</time>
      </trkpt>
      <trkpt lat="45.83468" lon="1.22542">
        <ele>270.4</ele>
        <time>2025-06-16T16:23:22Z</time>
      </trkpt>
      <trkpt lat="45.83468" lon="1.22546">
        <ele>270.5</ele>
        <time>2025-06-16T16:23:23Z</time>
      </trkpt>
      <trkpt lat="45.83469" lon="1.2255">
        <ele>270.6</ele>
        <time>2025-06-16T16:23:25Z</time>
      </trkpt>
      <trkpt lat="45.8347" lon="1.22558">
        <ele>270.8</ele>
        <time>2025-06-16T16:23:26Z</time>
      </trkpt>
      <trkpt lat="45.83471" lon="1.22561">
        <ele>270.9</ele>
        <time>2025-06-16T16:23:27Z</time>
      </trkpt>
      <trkpt lat="45.83471" lon="1.22566">
        <ele>271.1</ele>
        <time>2025-06-16T16:23:28Z</time>
      </trkpt>
      <trkpt lat="45.83471" lon="1.22567">
        <ele>271.1</ele>
        <time>2025-06-16T16:23:29Z</time>
      </trkpt>
      <trkpt lat="45.83473" lon="1.2257">
        <ele>271.1</ele>
        <time>2025-06-16T16:23:30Z</time>
      </trkpt>
      <trkpt lat="45.83475" lon="1.22571">
        <ele>270.9</ele>
        <time>2025-06-16T16:23:31Z</time>
      </trkpt>
      <trkpt lat="45.83478" lon="1.2257">
        <ele>270.5</ele>
        <time>2025-06-16T16:23:32Z</time>
      </trkpt>
      <trkpt lat="45.8348" lon="1.22568">
        <ele>270.3</ele>
        <time>2025-06-16T16:23:33Z</time>
      </trkpt>
      <trkpt lat="45.83484" lon="1.22562">
        <ele>270.3</ele>
        <time>2025-06-16T16:23:35Z</time>
      </trkpt>
      <trkpt lat="45.83488" lon="1.22557">
        <ele>270.3</ele>
        <time>2025-06-16T16:23:37Z</time>
      </trkpt>
      <trkpt lat="45.83492" lon="1.22556">
        <ele>270.4</ele>
        <time>2025-06-16T16:23:38Z</time>
      </trkpt>
      <trkpt lat="45.83494" lon="1.22556">
        <ele>270.4</ele>
        <time>2025-06-16T16:23:39Z</time>
      </trkpt>
      <trkpt lat="45.835" lon="1.22555">
        <ele>270.4</ele>
        <time>2025-06-16T16:23:41Z</time>
      </trkpt>
      <trkpt lat="45.83503" lon="1.22554">
        <ele>270.4</ele>
        <time>2025-06-16T16:23:42Z</time>
      </trkpt>
      <trkpt lat="45.83506" lon="1.22554">
        <ele>270.4</ele>
        <time>2025-06-16T16:23:43Z</time>
      </trkpt>
      <trkpt lat="45.83509" lon="1.22554">
        <ele>270.4</ele>
        <time>2025-06-16T16:23:44Z</time>
      </trkpt>
      <trkpt lat="45.83512" lon="1.22554">
        <ele>270.4</ele>
        <time>2025-06-16T16:23:45Z</time>
      </trkpt>
      <trkpt lat="45.83515" lon="1.22555">
        <ele>270.4</ele>
        <time>2025-06-16T16:23:46Z</time>
      </trkpt>
      <trkpt lat="45.83517" lon="1.22555">
        <ele>270.4</ele>
        <time>2025-06-16T16:23:47Z</time>
      </trkpt>
      <trkpt lat="45.83522" lon="1.22554">
        <ele>270.4</ele>
        <time>2025-06-16T16:23:49Z</time>
      </trkpt>
      <trkpt lat="45.83525" lon="1.22554">
        <ele>270.4</ele>
        <time>2025-06-16T16:23:50Z</time>
      </trkpt>
      <trkpt lat="45.83527" lon="1.22552">
        <ele>270.4</ele>
        <time>2025-06-16T16:23:52Z</time>
      </trkpt>
      <trkpt lat="45.83528" lon="1.22548">
        <ele>270.4</ele>
        <time>2025-06-16T16:23:53Z</time>
      </trkpt>
      <trkpt lat="45.83528" lon="1.22547">
        <ele>270.5</ele>
        <time>2025-06-16T16:23:54Z</time>
      </trkpt>
      <trkpt lat="45.83525" lon="1.22543">
        <ele>270.5</ele>
        <time>2025-06-16T16:23:55Z</time>
      </trkpt>
      <trkpt lat="45.83523" lon="1.22543">
        <ele>270.5</ele>
        <time>2025-06-16T16:23:57Z</time>
      </trkpt>
      <trkpt lat="45.8352" lon="1.22544">
        <ele>270.5</ele>
        <time>2025-06-16T16:23:58Z</time>
      </trkpt>
      <trkpt lat="45.83519" lon="1.22544">
        <ele>270.5</ele>
        <time>2025-06-16T16:23:59Z</time>
      </trkpt>
      <trkpt lat="45.83518" lon="1.22544">
        <ele>270.5</ele>
        <time>2025-06-16T16:24:00Z</time>
      </trkpt>
      <trkpt lat="45.83516" lon="1.22544">
        <ele>270.5</ele>
        <time>2025-06-16T16:24:01Z</time>
      </trkpt>
      <trkpt lat="45.83515" lon="1.22544">
        <ele>270.5</ele>
        <time>2025-06-16T16:24:02Z</time>
      </trkpt>
      <trkpt lat="45.83515" lon="1.22544">
        <ele>270.5</ele>
        <time>2025-06-16T16:24:03Z</time>
      </trkpt>
      <trkpt lat="45.83515" lon="1.22545">
        <ele>270.5</ele>
        <time>2025-06-16T16:24:04Z</time>
      </trkpt>
      <trkpt lat="45.83515" lon="1.22545">
        <ele>270.5</ele>
        <time>2025-06-16T16:24:05Z</time>
      </trkpt>
      <trkpt lat="45.83515" lon="1.22545">
        <ele>270.5</ele>
        <time>2025-06-16T16:24:06Z</time>
      </trkpt>
      <trkpt lat="45.83515" lon="1.22545">
        <ele>270.5</ele>
        <time>2025-06-16T16:24:08Z</time>
      </trkpt>
      <trkpt lat="45.83515" lon="1.22545">
        <ele>270.5</ele>
        <time>2025-06-16T16:24:09Z</time>
      </trkpt>
      <trkpt lat="45.83515" lon="1.22546">
        <ele>270.5</ele>
        <time>2025-06-16T16:24:10Z</time>
      </trkpt>
      <trkpt lat="45.83515" lon="1.22546">
        <ele>270.5</ele>
        <time>2025-06-16T16:24:11Z</time>
      </trkpt>
      <trkpt lat="45.83515" lon="1.22546">
        <ele>270.5</ele>
        <time>2025-06-16T16:24:12Z</time>
      </trkpt>
      <trkpt lat="45.83515" lon="1.22546">
        <ele>270.5</ele>
        <time>2025-06-16T16:24:13Z</time>
      </trkpt>
      <trkpt lat="45.83515" lon="1.22546">
        <ele>270.5</ele>
        <time>2025-06-16T16:24:14Z</time>
      </trkpt>
      <trkpt lat="45.83515" lon="1.22547">
        <ele>270.5</ele>
        <time>2025-06-16T16:24:15Z</time>
      </trkpt>
      <trkpt lat="45.83515" lon="1.22547">
        <ele>270.5</ele>
        <time>2025-06-16T16:24:16Z</time>
      </trkpt>
      <trkpt lat="45.83515" lon="1.22547">
        <ele>270.5</ele>
        <time>2025-06-16T16:24:17Z</time>
      </trkpt>
      <trkpt lat="45.83515" lon="1.22547">
        <ele>270.5</ele>
        <time>2025-06-16T16:24:18Z</time>
      </trkpt>
      <trkpt lat="45.83515" lon="1.22547">
        <ele>270.5</ele>
        <time>2025-06-16T16:24:19Z</time>
      </trkpt>
      <trkpt lat="45.83515" lon="1.22547">
        <ele>270.5</ele>
        <time>2025-06-16T16:24:20Z</time>
      </trkpt>
      <trkpt lat="45.83515" lon="1.22548">
        <ele>270.5</ele>
        <time>2025-06-16T16:24:21Z</time>
      </trkpt>
      <trkpt lat="45.83515" lon="1.22548">
        <ele>270.5</ele>
        <time>2025-06-16T16:24:22Z</time>
      </trkpt>
      <trkpt lat="45.83515" lon="1.22548">
        <ele>270.5</ele>
        <time>2025-06-16T16:24:23Z</time>
      </trkpt>
      <trkpt lat="45.83515" lon="1.22548">
        <ele>270.5</ele>
        <time>2025-06-16T16:24:24Z</time>
      </trkpt>
      <trkpt lat="45.83515" lon="1.22548">
        <ele>270.5</ele>
        <time>2025-06-16T16:24:25Z</time>
      </trkpt>
      <trkpt lat="45.83515" lon="1.22549">
        <ele>270.5</ele>
        <time>2025-06-16T16:24:26Z</time>
      </trkpt>
      <trkpt lat="45.83515" lon="1.22549">
        <ele>270.5</ele>
        <time>2025-06-16T16:24:27Z</time>
      </trkpt>
      <trkpt lat="45.83515" lon="1.22549">
        <ele>270.5</ele>
        <time>2025-06-16T16:24:28Z</time>
      </trkpt>
      <trkpt lat="45.83515" lon="1.22549">
        <ele>270.5</ele>
        <time>2025-06-16T16:24:29Z</time>
      </trkpt>
      <trkpt lat="45.83516" lon="1.22549">
        <ele>270.5</ele>
        <time>2025-06-16T16:24:30Z</time>
      </trkpt>
      <trkpt lat="45.83516" lon="1.2255">
        <ele>270.5</ele>
        <time>2025-06-16T16:24:31Z</time>
      </trkpt>
      <trkpt lat="45.83516" lon="1.2255">
        <ele>270.5</ele>
        <time>2025-06-16T16:24:32Z</time>
      </trkpt>
      <trkpt lat="45.83516" lon="1.22552">
        <ele>270.5</ele>
        <time>2025-06-16T16:24:33Z</time>
      </trkpt>
      <trkpt lat="45.83516" lon="1.22554">
        <ele>270.5</ele>
        <time>2025-06-16T16:24:34Z</time>
      </trkpt>
      <trkpt lat="45.83516" lon="1.22554">
        <ele>270.5</ele>
        <time>2025-06-16T16:24:35Z</time>
      </trkpt>
      <trkpt lat="45.83516" lon="1.22553">
        <ele>270.5</ele>
        <time>2025-06-16T16:24:37Z</time>
      </trkpt>
      <trkpt lat="45.83516" lon="1.22552">
        <ele>270.5</ele>
        <time>2025-06-16T16:24:38Z</time>
      </trkpt>
      <trkpt lat="45.83516" lon="1.22551">
        <ele>270.5</ele>
        <time>2025-06-16T16:24:39Z</time>
      </trkpt>
      <trkpt lat="45.83516" lon="1.22551">
        <ele>270.5</ele>
        <time>2025-06-16T16:24:40Z</time>
      </trkpt>
      <trkpt lat="45.83516" lon="1.2255">
        <ele>270.5</ele>
        <time>2025-06-16T16:24:41Z</time>
      </trkpt>
      <trkpt lat="45.83516" lon="1.22549">
        <ele>270.5</ele>
        <time>2025-06-16T16:24:42Z</time>
      </trkpt>
      <trkpt lat="45.83516" lon="1.22548">
        <ele>270.5</ele>
        <time>2025-06-16T16:24:43Z</time>
      </trkpt>
      <trkpt lat="45.83516" lon="1.22547">
        <ele>270.5</ele>
        <time>2025-06-16T16:24:44Z</time>
      </trkpt>
      <trkpt lat="45.83516" lon="1.22546">
        <ele>270.5</ele>
        <time>2025-06-16T16:24:45Z</time>
      </trkpt>
      <trkpt lat="45.83516" lon="1.22543">
        <ele>270.5</ele>
        <time>2025-06-16T16:24:46Z</time>
      </trkpt>
      <trkpt lat="45.83516" lon="1.22542">
        <ele>270.5</ele>
        <time>2025-06-16T16:24:47Z</time>
      </trkpt>
      <trkpt lat="45.83516" lon="1.22543">
        <ele>270.5</ele>
        <time>2025-06-16T16:24:48Z</time>
      </trkpt>
      <trkpt lat="45.83516" lon="1.22542">
        <ele>270.5</ele>
        <time>2025-06-16T16:24:49Z</time>
      </trkpt>
      <trkpt lat="45.83514" lon="1.22542">
        <ele>270.5</ele>
        <time>2025-06-16T16:24:50Z</time>
      </trkpt>
      <trkpt lat="45.83513" lon="1.22543">
        <ele>270.5</ele>
        <time>2025-06-16T16:24:51Z</time>
      </trkpt>
      <trkpt lat="45.83513" lon="1.22542">
        <ele>270.5</ele>
        <time>2025-06-16T16:24:52Z</time>
      </trkpt>
      <trkpt lat="45.83513" lon="1.22542">
        <ele>270.5</ele>
        <time>2025-06-16T16:24:53Z</time>
      </trkpt>
      <trkpt lat="45.83513" lon="1.22542">
        <ele>270.5</ele>
        <time>2025-06-16T16:24:54Z</time>
      </trkpt>
      <trkpt lat="45.83513" lon="1.22542">
        <ele>270.5</ele>
        <time>2025-06-16T16:24:55Z</time>
      </trkpt>
      <trkpt lat="45.83513" lon="1.22541">
        <ele>270.5</ele>
        <time>2025-06-16T16:24:56Z</time>
      </trkpt>
      <trkpt lat="45.83513" lon="1.22541">
        <ele>270.5</ele>
        <time>2025-06-16T16:24:57Z</time>
      </trkpt>
      <trkpt lat="45.83513" lon="1.22542">
        <ele>270.5</ele>
        <time>2025-06-16T16:24:58Z</time>
      </trkpt>
      <trkpt lat="45.83513" lon="1.22542">
        <ele>270.5</ele>
        <time>2025-06-16T16:24:59Z</time>
      </trkpt>
      <trkpt lat="45.83513" lon="1.22542">
        <ele>270.5</ele>
        <time>2025-06-16T16:25:00Z</time>
      </trkpt>
      <trkpt lat="45.83512" lon="1.22542">
        <ele>270.5</ele>
        <time>2025-06-16T16:25:01Z</time>
      </trkpt>
      <trkpt lat="45.83512" lon="1.22542">
        <ele>270.5</ele>
        <time>2025-06-16T16:25:02Z</time>
      </trkpt>
      <trkpt lat="45.83512" lon="1.22542">
        <ele>270.5</ele>
        <time>2025-06-16T16:25:03Z</time>
      </trkpt>
      <trkpt lat="45.83512" lon="1.22542">
        <ele>270.5</ele>
        <time>2025-06-16T16:25:04Z</time>
      </trkpt>
      <trkpt lat="45.83512" lon="1.22543">
        <ele>270.5</ele>
        <time>2025-06-16T16:25:05Z</time>
      </trkpt>
      <trkpt lat="45.83512" lon="1.22544">
        <ele>270.5</ele>
        <time>2025-06-16T16:25:06Z</time>
      </trkpt>
      <trkpt lat="45.83512" lon="1.22544">
        <ele>270.5</ele>
        <time>2025-06-16T16:25:07Z</time>
      </trkpt>
      <trkpt lat="45.83512" lon="1.22544">
        <ele>270.5</ele>
        <time>2025-06-16T16:25:08Z</time>
      </trkpt>
      <trkpt lat="45.83511" lon="1.22544">
        <ele>270.5</ele>
        <time>2025-06-16T16:25:09Z</time>
      </trkpt>
      <trkpt lat="45.83512" lon="1.22543">
        <ele>270.5</ele>
        <time>2025-06-16T16:25:10Z</time>
      </trkpt>
      <trkpt lat="45.83512" lon="1.22542">
        <ele>270.5</ele>
        <time>2025-06-16T16:25:11Z</time>
      </trkpt>
      <trkpt lat="45.83512" lon="1.22542">
        <ele>270.5</ele>
        <time>2025-06-16T16:25:12Z</time>
      </trkpt>
      <trkpt lat="45.83512" lon="1.22542">
        <ele>270.5</ele>
        <time>2025-06-16T16:25:13Z</time>
      </trkpt>
      <trkpt lat="45.83512" lon="1.22542">
        <ele>270.5</ele>
        <time>2025-06-16T16:25:14Z</time>
      </trkpt>
      <trkpt lat="45.83511" lon="1.22544">
        <ele>270.6</ele>
        <time>2025-06-16T16:25:15Z</time>
      </trkpt>
      <trkpt lat="45.8351" lon="1.22545">
        <ele>270.6</ele>
        <time>2025-06-16T16:25:16Z</time>
      </trkpt>
      <trkpt lat="45.83509" lon="1.22546">
        <ele>270.6</ele>
        <time>2025-06-16T16:25:17Z</time>
      </trkpt>
      <trkpt lat="45.83509" lon="1.22546">
        <ele>270.6</ele>
        <time>2025-06-16T16:25:18Z</time>
      </trkpt>
      <trkpt lat="45.83509" lon="1.22546">
        <ele>270.6</ele>
        <time>2025-06-16T16:25:19Z</time>
      </trkpt>
      <trkpt lat="45.83509" lon="1.22542">
        <ele>270.6</ele>
        <time>2025-06-16T16:25:20Z</time>
      </trkpt>
      <trkpt lat="45.83509" lon="1.22541">
        <ele>270.6</ele>
        <time>2025-06-16T16:25:21Z</time>
      </trkpt>
      <trkpt lat="45.83509" lon="1.2254">
        <ele>270.6</ele>
        <time>2025-06-16T16:25:22Z</time>
      </trkpt>
      <trkpt lat="45.8351" lon="1.2254">
        <ele>270.6</ele>
        <time>2025-06-16T16:25:23Z</time>
      </trkpt>
      <trkpt lat="45.8351" lon="1.2254">
        <ele>270.6</ele>
        <time>2025-06-16T16:25:24Z</time>
      </trkpt>
      <trkpt lat="45.8351" lon="1.22539">
        <ele>270.6</ele>
        <time>2025-06-16T16:25:25Z</time>
      </trkpt>
      <trkpt lat="45.8351" lon="1.22539">
        <ele>270.6</ele>
        <time>2025-06-16T16:25:26Z</time>
      </trkpt>
      <trkpt lat="45.83511" lon="1.22539">
        <ele>270.6</ele>
        <time>2025-06-16T16:25:27Z</time>
      </trkpt>
      <trkpt lat="45.83511" lon="1.22538">
        <ele>270.6</ele>
        <time>2025-06-16T16:25:28Z</time>
      </trkpt>
      <trkpt lat="45.83511" lon="1.22538">
        <ele>270.6</ele>
        <time>2025-06-16T16:25:29Z</time>
      </trkpt>
      <trkpt lat="45.83512" lon="1.22538">
        <ele>270.6</ele>
        <time>2025-06-16T16:25:30Z</time>
      </trkpt>
      <trkpt lat="45.83512" lon="1.22537">
        <ele>270.6</ele>
        <time>2025-06-16T16:25:32Z</time>
      </trkpt>
      <trkpt lat="45.83512" lon="1.22537">
        <ele>270.6</ele>
        <time>2025-06-16T16:25:33Z</time>
      </trkpt>
      <trkpt lat="45.83513" lon="1.22537">
        <ele>270.6</ele>
        <time>2025-06-16T16:25:34Z</time>
      </trkpt>
      <trkpt lat="45.83513" lon="1.22537">
        <ele>270.6</ele>
        <time>2025-06-16T16:25:35Z</time>
      </trkpt>
      <trkpt lat="45.83514" lon="1.22535">
        <ele>270.6</ele>
        <time>2025-06-16T16:25:36Z</time>
      </trkpt>
      <trkpt lat="45.83521" lon="1.22521">
        <ele>270.6</ele>
        <time>2025-06-16T16:25:45Z</time>
      </trkpt>
      <trkpt lat="45.83522" lon="1.2251">
        <ele>270.6</ele>
        <time>2025-06-16T16:25:50Z</time>
      </trkpt>
      <trkpt lat="45.83523" lon="1.22501">
        <ele>270.6</ele>
        <time>2025-06-16T16:25:55Z</time>
      </trkpt>
      <trkpt lat="45.83523" lon="1.22496">
        <ele>270.7</ele>
        <time>2025-06-16T16:26:00Z</time>
      </trkpt>
      <trkpt lat="45.83524" lon="1.22493">
        <ele>270.7</ele>
        <time>2025-06-16T16:26:05Z</time>
      </trkpt>
      <trkpt lat="45.83522" lon="1.22497">
        <ele>270.7</ele>
        <time>2025-06-16T16:26:10Z</time>
      </trkpt>
      <trkpt lat="45.83523" lon="1.22496">
        <ele>270.7</ele>
        <time>2025-06-16T16:26:15Z</time>
      </trkpt>
      <trkpt lat="45.83519" lon="1.22498">
        <ele>270.7</ele>
        <time>2025-06-16T16:26:20Z</time>
      </trkpt>
      <trkpt lat="45.83526" lon="1.22492">
        <ele>270.7</ele>
        <time>2025-06-16T16:26:25Z</time>
      </trkpt>
      <trkpt lat="45.83524" lon="1.22492">
        <ele>270.7</ele>
        <time>2025-06-16T16:26:30Z</time>
      </trkpt>
      <trkpt lat="45.83523" lon="1.22494">
        <ele>270.7</ele>
        <time>2025-06-16T16:26:32Z</time>
      </trkpt>
      <trkpt lat="45.83522" lon="1.22495">
        <ele>270.7</ele>
        <time>2025-06-16T16:26:35Z</time>
      </trkpt>
      <trkpt lat="45.83523" lon="1.22495">
        <ele>270.7</ele>
        <time>2025-06-16T16:26:40Z</time>
      </trkpt>
      <trkpt lat="45.83523" lon="1.22495">
        <ele>270.7</ele>
        <time>2025-06-16T16:26:45Z</time>
      </trkpt>
      <trkpt lat="45.83525" lon="1.22492">
        <ele>270.7</ele>
        <time>2025-06-16T16:26:50Z</time>
      </trkpt>
      <trkpt lat="45.83524" lon="1.22493">
        <ele>270.7</ele>
        <time>2025-06-16T16:26:55Z</time>
      </trkpt>
      <trkpt lat="45.83524" lon="1.22492">
        <ele>270.7</ele>
        <time>2025-06-16T16:27:00Z</time>
      </trkpt>
      <trkpt lat="45.83524" lon="1.22494">
        <ele>270.7</ele>
        <time>2025-06-16T16:27:06Z</time>
      </trkpt>
      <trkpt lat="45.83523" lon="1.22495">
        <ele>270.7</ele>
        <time>2025-06-16T16:27:11Z</time>
      </trkpt>
      <trkpt lat="45.83523" lon="1.22494">
        <ele>270.7</ele>
        <time>2025-06-16T16:27:16Z</time>
      </trkpt>
      <trkpt lat="45.83524" lon="1.22494">
        <ele>270.7</ele>
        <time>2025-06-16T16:27:21Z</time>
      </trkpt>
      <trkpt lat="45.83524" lon="1.22495">
        <ele>270.7</ele>
        <time>2025-06-16T16:27:26Z</time>
      </trkpt>
      <trkpt lat="45.83523" lon="1.22495">
        <ele>270.7</ele>
        <time>2025-06-16T16:27:31Z</time>
      </trkpt>
      <trkpt lat="45.83525" lon="1.22494">
        <ele>270.7</ele>
        <time>2025-06-16T16:27:36Z</time>
      </trkpt>
      <trkpt lat="45.83523" lon="1.22494">
        <ele>270.7</ele>
        <time>2025-06-16T16:27:41Z</time>
      </trkpt>
      <trkpt lat="45.83523" lon="1.22494">
        <ele>270.7</ele>
        <time>2025-06-16T16:27:46Z</time>
      </trkpt>
      <trkpt lat="45.83523" lon="1.22496">
        <ele>270.8</ele>
        <time>2025-06-16T16:27:51Z</time>
      </trkpt>
      <trkpt lat="45.83524" lon="1.22493">
        <ele>270.8</ele>
        <time>2025-06-16T16:27:56Z</time>
      </trkpt>
      <trkpt lat="45.83524" lon="1.22493">
        <ele>270.8</ele>
        <time>2025-06-16T16:28:01Z</time>
      </trkpt>
      <trkpt lat="45.83524" lon="1.22494">
        <ele>270.8</ele>
        <time>2025-06-16T16:28:06Z</time>
      </trkpt>
      <trkpt lat="45.83523" lon="1.22495">
        <ele>270.8</ele>
        <time>2025-06-16T16:28:11Z</time>
      </trkpt>
      <trkpt lat="45.83524" lon="1.22495">
        <ele>270.8</ele>
        <time>2025-06-16T16:28:16Z</time>
      </trkpt>
      <trkpt lat="45.83524" lon="1.22498">
        <ele>270.8</ele>
        <time>2025-06-16T16:28:19Z</time>
      </trkpt>
      <trkpt lat="45.83523" lon="1.22497">
        <ele>270.8</ele>
        <time>2025-06-16T16:28:21Z</time>
      </trkpt>
      <trkpt lat="45.83524" lon="1.22496">
        <ele>270.8</ele>
        <time>2025-06-16T16:28:26Z</time>
      </trkpt>
    </trkseg>
  </trk>
</gpx>